<?xml version='1.0' encoding='UTF-8'?><gpx version="1.1" creator="JPX - https://github.com/jenetics/jpx" xmlns="http://www.topografix.com/GPX/1/1"><trk><trkseg><trkpt lat="49.3093187" lon="5.7648087"><ele>303.0</ele><time>2026-03-22T13:18:13.151Z</time></trkpt><trkpt lat="49.3094005" lon="5.7647675"><ele>303.0</ele><time>2026-03-22T13:18:15.151Z</time></trkpt><trkpt lat="49.3095028" lon="5.7647125"><ele>303.0</ele><time>2026-03-22T13:18:17.15Z</time></trkpt><trkpt lat="49.309562" lon="5.764678"><ele>303.0</ele><time>2026-03-22T13:18:18.151Z</time></trkpt><trkpt lat="49.3096271" lon="5.7646412"><ele>303.0</ele><time>2026-03-22T13:18:19.15Z</time></trkpt><trkpt lat="49.3096955" lon="5.7646059"><ele>303.0</ele><time>2026-03-22T13:18:20.149Z</time></trkpt><trkpt lat="49.3097701" lon="5.7645649"><ele>303.1666666666667</ele><time>2026-03-22T13:18:21.15Z</time></trkpt><trkpt lat="49.3098451" lon="5.7645225"><ele>303.3333333333333</ele><time>2026-03-22T13:18:22.151Z</time></trkpt><trkpt lat="49.3099218" lon="5.7644772"><ele>303.5</ele><time>2026-03-22T13:18:23.15Z</time></trkpt><trkpt lat="49.3100015" lon="5.7644352"><ele>303.66666666666663</ele><time>2026-03-22T13:18:24.129Z</time></trkpt><trkpt lat="49.310077" lon="5.764398"><ele>303.8333333333333</ele><time>2026-03-22T13:18:25.128Z</time></trkpt><trkpt lat="49.3101524" lon="5.764363"><ele>304.0</ele><time>2026-03-22T13:18:26.13Z</time></trkpt><trkpt lat="49.3102274" lon="5.7643287"><ele>304.0</ele><time>2026-03-22T13:18:27.129Z</time></trkpt><trkpt lat="49.3103037" lon="5.7642948"><ele>304.0</ele><time>2026-03-22T13:18:28.129Z</time></trkpt><trkpt lat="49.3103804" lon="5.7642609"><ele>304.0</ele><time>2026-03-22T13:18:29.13Z</time></trkpt><trkpt lat="49.310456" lon="5.7642277"><ele>304.0</ele><time>2026-03-22T13:18:30.13Z</time></trkpt><trkpt lat="49.3105294" lon="5.7642006"><ele>304.0</ele><time>2026-03-22T13:18:31.13Z</time></trkpt><trkpt lat="49.310599" lon="5.764176"><ele>304.0</ele><time>2026-03-22T13:18:32.13Z</time></trkpt><trkpt lat="49.3106646" lon="5.7641551"><ele>304.59999999999997</ele><time>2026-03-22T13:18:33.13Z</time></trkpt><trkpt lat="49.3107582" lon="5.7640726"><ele>305.2</ele><time>2026-03-22T13:18:35.13Z</time></trkpt><trkpt lat="49.3107539" lon="5.7639328"><ele>305.79999999999995</ele><time>2026-03-22T13:18:37.13Z</time></trkpt><trkpt lat="49.3106834" lon="5.7637629"><ele>306.4</ele><time>2026-03-22T13:18:39.13Z</time></trkpt><trkpt lat="49.3106421" lon="5.7636637"><ele>307.0</ele><time>2026-03-22T13:18:40.13Z</time></trkpt><trkpt lat="49.3105945" lon="5.7635562"><ele>306.2</ele><time>2026-03-22T13:18:41.13Z</time></trkpt><trkpt lat="49.3105435" lon="5.7634414"><ele>305.4</ele><time>2026-03-22T13:18:42.13Z</time></trkpt><trkpt lat="49.3104888" lon="5.7633194"><ele>304.6</ele><time>2026-03-22T13:18:43.13Z</time></trkpt><trkpt lat="49.3104324" lon="5.7631963"><ele>303.8</ele><time>2026-03-22T13:18:44.13Z</time></trkpt><trkpt lat="49.3103785" lon="5.7630689"><ele>303.0</ele><time>2026-03-22T13:18:45.13Z</time></trkpt><trkpt lat="49.3103265" lon="5.7629352"><ele>303.0</ele><time>2026-03-22T13:18:46.13Z</time></trkpt><trkpt lat="49.3102715" lon="5.7628004"><ele>303.0</ele><time>2026-03-22T13:18:47.13Z</time></trkpt><trkpt lat="49.3102152" lon="5.7626662"><ele>303.0</ele><time>2026-03-22T13:18:48.13Z</time></trkpt><trkpt lat="49.310159" lon="5.7625288"><ele>303.0</ele><time>2026-03-22T13:18:49.13Z</time></trkpt><trkpt lat="49.3101031" lon="5.7623916"><ele>303.0</ele><time>2026-03-22T13:18:50.13Z</time></trkpt><trkpt lat="49.3100476" lon="5.7622538"><ele>302.8</ele><time>2026-03-22T13:18:51.13Z</time></trkpt><trkpt lat="49.3099956" lon="5.7621145"><ele>302.6</ele><time>2026-03-22T13:18:52.13Z</time></trkpt><trkpt lat="49.3099517" lon="5.7619741"><ele>302.4</ele><time>2026-03-22T13:18:53.13Z</time></trkpt><trkpt lat="49.3099157" lon="5.7618331"><ele>302.2</ele><time>2026-03-22T13:18:54.13Z</time></trkpt><trkpt lat="49.3098842" lon="5.7616949"><ele>302.0</ele><time>2026-03-22T13:18:55.13Z</time></trkpt><trkpt lat="49.3098551" lon="5.7615589"><ele>301.6666666666667</ele><time>2026-03-22T13:18:56.131Z</time></trkpt><trkpt lat="49.3098291" lon="5.7614275"><ele>301.33333333333337</ele><time>2026-03-22T13:18:57.13Z</time></trkpt><trkpt lat="49.3098059" lon="5.7613013"><ele>301.0</ele><time>2026-03-22T13:18:58.13Z</time></trkpt><trkpt lat="49.3097819" lon="5.761178"><ele>300.6666666666667</ele><time>2026-03-22T13:18:59.13Z</time></trkpt><trkpt lat="49.3097575" lon="5.7610563"><ele>300.3333333333333</ele><time>2026-03-22T13:19:00.13Z</time></trkpt><trkpt lat="49.3097355" lon="5.7609356"><ele>300.0</ele><time>2026-03-22T13:19:01.13Z</time></trkpt><trkpt lat="49.3097086" lon="5.76082"><ele>300.6666666666667</ele><time>2026-03-22T13:19:02.13Z</time></trkpt><trkpt lat="49.3096812" lon="5.7607095"><ele>301.3333333333333</ele><time>2026-03-22T13:19:03.13Z</time></trkpt><trkpt lat="49.3096485" lon="5.7606126"><ele>302.0</ele><time>2026-03-22T13:19:04.13Z</time></trkpt><trkpt lat="49.3096083" lon="5.7604738"><ele>302.66666666666663</ele><time>2026-03-22T13:19:06.13Z</time></trkpt><trkpt lat="49.3096418" lon="5.7603644"><ele>303.3333333333333</ele><time>2026-03-22T13:19:08.13Z</time></trkpt><trkpt lat="49.3097021" lon="5.7602771"><ele>304.0</ele><time>2026-03-22T13:19:10.13Z</time></trkpt><trkpt lat="49.3097251" lon="5.760156"><ele>304.8</ele><time>2026-03-22T13:19:12.13Z</time></trkpt><trkpt lat="49.3096906" lon="5.7600177"><ele>305.59999999999997</ele><time>2026-03-22T13:19:14.13Z</time></trkpt><trkpt lat="49.3096523" lon="5.7598914"><ele>306.4</ele><time>2026-03-22T13:19:16.131Z</time></trkpt><trkpt lat="49.3096008" lon="5.759783"><ele>307.2</ele><time>2026-03-22T13:19:18.13Z</time></trkpt><trkpt lat="49.3095378" lon="5.7596544"><ele>308.0</ele><time>2026-03-22T13:19:20.131Z</time></trkpt><trkpt lat="49.3094692" lon="5.7595062"><ele>308.0</ele><time>2026-03-22T13:19:22.131Z</time></trkpt><trkpt lat="49.3093999" lon="5.7593706"><ele>308.0</ele><time>2026-03-22T13:19:24.13Z</time></trkpt><trkpt lat="49.3093368" lon="5.7592519"><ele>308.0</ele><time>2026-03-22T13:19:26.13Z</time></trkpt><trkpt lat="49.3092669" lon="5.7591227"><ele>308.0</ele><time>2026-03-22T13:19:28.13Z</time></trkpt><trkpt lat="49.3092267" lon="5.7590468"><ele>308.0</ele><time>2026-03-22T13:19:29.13Z</time></trkpt><trkpt lat="49.3091797" lon="5.7589659"><ele>307.57142857142856</ele><time>2026-03-22T13:19:30.13Z</time></trkpt><trkpt lat="49.3091345" lon="5.758886"><ele>307.1428571428571</ele><time>2026-03-22T13:19:31.13Z</time></trkpt><trkpt lat="49.3090904" lon="5.7588065"><ele>306.7142857142857</ele><time>2026-03-22T13:19:32.131Z</time></trkpt><trkpt lat="49.3090437" lon="5.7587231"><ele>306.2857142857143</ele><time>2026-03-22T13:19:33.13Z</time></trkpt><trkpt lat="49.3089942" lon="5.7586352"><ele>305.85714285714283</ele><time>2026-03-22T13:19:34.13Z</time></trkpt><trkpt lat="49.3089428" lon="5.7585394"><ele>305.42857142857144</ele><time>2026-03-22T13:19:35.131Z</time></trkpt><trkpt lat="49.3088924" lon="5.7584444"><ele>305.0</ele><time>2026-03-22T13:19:36.13Z</time></trkpt><trkpt lat="49.3088436" lon="5.7583481"><ele>305.0</ele><time>2026-03-22T13:19:37.13Z</time></trkpt><trkpt lat="49.3087943" lon="5.7582535"><ele>305.0</ele><time>2026-03-22T13:19:38.13Z</time></trkpt><trkpt lat="49.3087479" lon="5.7581594"><ele>305.0</ele><time>2026-03-22T13:19:39.131Z</time></trkpt><trkpt lat="49.3087012" lon="5.7580594"><ele>305.0</ele><time>2026-03-22T13:19:40.13Z</time></trkpt><trkpt lat="49.3086544" lon="5.7579582"><ele>305.0</ele><time>2026-03-22T13:19:41.13Z</time></trkpt><trkpt lat="49.3086069" lon="5.7578571"><ele>305.0</ele><time>2026-03-22T13:19:42.13Z</time></trkpt><trkpt lat="49.3085605" lon="5.7577595"><ele>305.0</ele><time>2026-03-22T13:19:43.13Z</time></trkpt><trkpt lat="49.3085159" lon="5.757665"><ele>305.0</ele><time>2026-03-22T13:19:44.13Z</time></trkpt><trkpt lat="49.3084734" lon="5.7575751"><ele>305.0</ele><time>2026-03-22T13:19:45.13Z</time></trkpt><trkpt lat="49.308425" lon="5.7574097"><ele>305.0</ele><time>2026-03-22T13:19:47.13Z</time></trkpt><trkpt lat="49.3084281" lon="5.7572352"><ele>305.0</ele><time>2026-03-22T13:19:49.13Z</time></trkpt><trkpt lat="49.3085112" lon="5.7571304"><ele>305.0</ele><time>2026-03-22T13:19:51.131Z</time></trkpt><trkpt lat="49.3086034" lon="5.7571097"><ele>305.0</ele><time>2026-03-22T13:19:53.13Z</time></trkpt><trkpt lat="49.3086906" lon="5.7571834"><ele>305.0</ele><time>2026-03-22T13:19:55.13Z</time></trkpt><trkpt lat="49.308739" lon="5.7572473"><ele>305.0</ele><time>2026-03-22T13:19:56.13Z</time></trkpt><trkpt lat="49.3087873" lon="5.7573221"><ele>305.0</ele><time>2026-03-22T13:19:57.13Z</time></trkpt><trkpt lat="49.3088368" lon="5.7574036"><ele>305.0</ele><time>2026-03-22T13:19:58.13Z</time></trkpt><trkpt lat="49.3088854" lon="5.7574859"><ele>304.0</ele><time>2026-03-22T13:19:59.13Z</time></trkpt><trkpt lat="49.3089313" lon="5.757564"><ele>303.0</ele><time>2026-03-22T13:20:00.13Z</time></trkpt><trkpt lat="49.3089737" lon="5.7576389"><ele>302.0</ele><time>2026-03-22T13:20:01.13Z</time></trkpt><trkpt lat="49.3090721" lon="5.7577276"><ele>301.0</ele><time>2026-03-22T13:20:03.13Z</time></trkpt><trkpt lat="49.3091822" lon="5.7577021"><ele>300.0</ele><time>2026-03-22T13:20:05.13Z</time></trkpt><trkpt lat="49.3092981" lon="5.7576215"><ele>300.0</ele><time>2026-03-22T13:20:07.13Z</time></trkpt><trkpt lat="49.3093575" lon="5.7575759"><ele>300.0</ele><time>2026-03-22T13:20:08.131Z</time></trkpt><trkpt lat="49.3094176" lon="5.7575316"><ele>300.0</ele><time>2026-03-22T13:20:09.131Z</time></trkpt><trkpt lat="49.3094754" lon="5.7574864"><ele>300.0</ele><time>2026-03-22T13:20:10.131Z</time></trkpt><trkpt lat="49.3095811" lon="5.7574056"><ele>300.0</ele><time>2026-03-22T13:20:12.13Z</time></trkpt><trkpt lat="49.3096677" lon="5.7573051"><ele>300.0</ele><time>2026-03-22T13:20:14.13Z</time></trkpt><trkpt lat="49.309697" lon="5.7571326"><ele>300.0</ele><time>2026-03-22T13:20:16.13Z</time></trkpt><trkpt lat="49.3096523" lon="5.7569574"><ele>300.0</ele><time>2026-03-22T13:20:18.13Z</time></trkpt><trkpt lat="49.3096159" lon="5.7568661"><ele>300.0</ele><time>2026-03-22T13:20:19.131Z</time></trkpt><trkpt lat="49.3095738" lon="5.7567567"><ele>300.0</ele><time>2026-03-22T13:20:20.13Z</time></trkpt><trkpt lat="49.3095421" lon="5.7566296"><ele>300.0</ele><time>2026-03-22T13:20:21.13Z</time></trkpt><trkpt lat="49.3095177" lon="5.7564885"><ele>299.0</ele><time>2026-03-22T13:20:22.131Z</time></trkpt><trkpt lat="49.30949" lon="5.7563405"><ele>298.0</ele><time>2026-03-22T13:20:23.13Z</time></trkpt><trkpt lat="49.3094514" lon="5.7561924"><ele>297.0</ele><time>2026-03-22T13:20:24.131Z</time></trkpt><trkpt lat="49.3094039" lon="5.7560523"><ele>296.0</ele><time>2026-03-22T13:20:25.13Z</time></trkpt><trkpt lat="49.3093506" lon="5.7559195"><ele>295.0</ele><time>2026-03-22T13:20:26.13Z</time></trkpt><trkpt lat="49.3092918" lon="5.7557888"><ele>293.4</ele><time>2026-03-22T13:20:27.13Z</time></trkpt><trkpt lat="49.3092315" lon="5.7556605"><ele>291.8</ele><time>2026-03-22T13:20:28.13Z</time></trkpt><trkpt lat="49.3091705" lon="5.7555354"><ele>290.2</ele><time>2026-03-22T13:20:29.13Z</time></trkpt><trkpt lat="49.3091104" lon="5.7554069"><ele>288.6</ele><time>2026-03-22T13:20:30.13Z</time></trkpt><trkpt lat="49.3090529" lon="5.7552756"><ele>287.0</ele><time>2026-03-22T13:20:31.131Z</time></trkpt><trkpt lat="49.3089979" lon="5.7551444"><ele>285.4</ele><time>2026-03-22T13:20:32.13Z</time></trkpt><trkpt lat="49.3089451" lon="5.755018"><ele>283.79999999999995</ele><time>2026-03-22T13:20:33.13Z</time></trkpt><trkpt lat="49.3088926" lon="5.7548919"><ele>282.2</ele><time>2026-03-22T13:20:34.13Z</time></trkpt><trkpt lat="49.3088426" lon="5.7547629"><ele>280.59999999999997</ele><time>2026-03-22T13:20:35.13Z</time></trkpt><trkpt lat="49.3087961" lon="5.7546298"><ele>279.0</ele><time>2026-03-22T13:20:36.131Z</time></trkpt><trkpt lat="49.3087571" lon="5.7544877"><ele>281.2</ele><time>2026-03-22T13:20:37.13Z</time></trkpt><trkpt lat="49.3087273" lon="5.754337"><ele>283.4</ele><time>2026-03-22T13:20:38.13Z</time></trkpt><trkpt lat="49.308707" lon="5.754181"><ele>285.6</ele><time>2026-03-22T13:20:39.131Z</time></trkpt><trkpt lat="49.3086939" lon="5.7540208"><ele>287.8</ele><time>2026-03-22T13:20:40.13Z</time></trkpt><trkpt lat="49.3086894" lon="5.753858"><ele>290.0</ele><time>2026-03-22T13:20:41.13Z</time></trkpt><trkpt lat="49.3086867" lon="5.7536947"><ele>289.6</ele><time>2026-03-22T13:20:42.13Z</time></trkpt><trkpt lat="49.3086844" lon="5.753532"><ele>289.2</ele><time>2026-03-22T13:20:43.13Z</time></trkpt><trkpt lat="49.3086829" lon="5.7533735"><ele>288.8</ele><time>2026-03-22T13:20:44.13Z</time></trkpt><trkpt lat="49.3086789" lon="5.7532267"><ele>288.4</ele><time>2026-03-22T13:20:45.13Z</time></trkpt><trkpt lat="49.3086755" lon="5.7530861"><ele>288.0</ele><time>2026-03-22T13:20:46.13Z</time></trkpt><trkpt lat="49.308676" lon="5.7529481"><ele>288.0</ele><time>2026-03-22T13:20:47.13Z</time></trkpt><trkpt lat="49.3086859" lon="5.7528178"><ele>288.0</ele><time>2026-03-22T13:20:48.131Z</time></trkpt><trkpt lat="49.3087091" lon="5.7527039"><ele>288.0</ele><time>2026-03-22T13:20:49.13Z</time></trkpt><trkpt lat="49.3087489" lon="5.7526218"><ele>288.0</ele><time>2026-03-22T13:20:50.13Z</time></trkpt><trkpt lat="49.3088608" lon="5.7525701"><ele>288.0</ele><time>2026-03-22T13:20:52.13Z</time></trkpt><trkpt lat="49.3089259" lon="5.7525417"><ele>288.0</ele><time>2026-03-22T13:20:53.131Z</time></trkpt><trkpt lat="49.3089891" lon="5.7524947"><ele>286.1666666666667</ele><time>2026-03-22T13:20:54.13Z</time></trkpt><trkpt lat="49.3090521" lon="5.7524299"><ele>284.3333333333333</ele><time>2026-03-22T13:20:55.13Z</time></trkpt><trkpt lat="49.3091139" lon="5.7523521"><ele>282.5</ele><time>2026-03-22T13:20:56.13Z</time></trkpt><trkpt lat="49.3091737" lon="5.7522613"><ele>280.66666666666663</ele><time>2026-03-22T13:20:57.131Z</time></trkpt><trkpt lat="49.3092323" lon="5.7521663"><ele>278.8333333333333</ele><time>2026-03-22T13:20:58.13Z</time></trkpt><trkpt lat="49.3092901" lon="5.7520617"><ele>277.0</ele><time>2026-03-22T13:20:59.13Z</time></trkpt><trkpt lat="49.3093421" lon="5.7519477"><ele>277.8333333333333</ele><time>2026-03-22T13:21:00.13Z</time></trkpt><trkpt lat="49.3093886" lon="5.7518309"><ele>278.66666666666663</ele><time>2026-03-22T13:21:01.13Z</time></trkpt><trkpt lat="49.3094287" lon="5.7517114"><ele>279.5</ele><time>2026-03-22T13:21:02.13Z</time></trkpt><trkpt lat="49.3094652" lon="5.7515868"><ele>280.3333333333333</ele><time>2026-03-22T13:21:03.13Z</time></trkpt><trkpt lat="49.3094899" lon="5.7514594"><ele>281.1666666666667</ele><time>2026-03-22T13:21:04.13Z</time></trkpt><trkpt lat="49.3094993" lon="5.7513338"><ele>282.0</ele><time>2026-03-22T13:21:05.13Z</time></trkpt><trkpt lat="49.309499" lon="5.7512052"><ele>282.0</ele><time>2026-03-22T13:21:06.13Z</time></trkpt><trkpt lat="49.3094941" lon="5.751079"><ele>282.0</ele><time>2026-03-22T13:21:07.13Z</time></trkpt><trkpt lat="49.3094843" lon="5.7509534"><ele>282.0</ele><time>2026-03-22T13:21:08.13Z</time></trkpt><trkpt lat="49.3094751" lon="5.7508313"><ele>282.0</ele><time>2026-03-22T13:21:09.13Z</time></trkpt><trkpt lat="49.3094639" lon="5.7507125"><ele>282.0</ele><time>2026-03-22T13:21:10.13Z</time></trkpt><trkpt lat="49.3094605" lon="5.750599"><ele>282.0</ele><time>2026-03-22T13:21:11.13Z</time></trkpt><trkpt lat="49.3094695" lon="5.7504921"><ele>281.7142857142857</ele><time>2026-03-22T13:21:12.13Z</time></trkpt><trkpt lat="49.309492" lon="5.7503977"><ele>281.42857142857144</ele><time>2026-03-22T13:21:13.13Z</time></trkpt><trkpt lat="49.3095258" lon="5.750306"><ele>281.1428571428571</ele><time>2026-03-22T13:21:14.13Z</time></trkpt><trkpt lat="49.309566" lon="5.7502227"><ele>280.8571428571429</ele><time>2026-03-22T13:21:15.13Z</time></trkpt><trkpt lat="49.3096089" lon="5.7501463"><ele>280.57142857142856</ele><time>2026-03-22T13:21:16.13Z</time></trkpt><trkpt lat="49.3096786" lon="5.7500351"><ele>280.2857142857143</ele><time>2026-03-22T13:21:18.13Z</time></trkpt><trkpt lat="49.3096824" lon="5.7499364"><ele>280.0</ele><time>2026-03-22T13:21:21.13Z</time></trkpt><trkpt lat="49.3096441" lon="5.749854"><ele>280.0</ele><time>2026-03-22T13:21:30.131Z</time></trkpt><trkpt lat="49.3095661" lon="5.7499151"><ele>280.0</ele><time>2026-03-22T13:21:33.131Z</time></trkpt><trkpt lat="49.3094957" lon="5.7500483"><ele>280.0</ele><time>2026-03-22T13:21:35.13Z</time></trkpt><trkpt lat="49.3094561" lon="5.7501344"><ele>280.0</ele><time>2026-03-22T13:21:36.13Z</time></trkpt><trkpt lat="49.3094119" lon="5.7502162"><ele>280.0</ele><time>2026-03-22T13:21:37.13Z</time></trkpt><trkpt lat="49.3093542" lon="5.7502796"><ele>280.0</ele><time>2026-03-22T13:21:38.13Z</time></trkpt><trkpt lat="49.3092875" lon="5.7503082"><ele>280.0</ele><time>2026-03-22T13:21:39.13Z</time></trkpt><trkpt lat="49.3092088" lon="5.7503086"><ele>280.0</ele><time>2026-03-22T13:21:40.131Z</time></trkpt><trkpt lat="49.3091273" lon="5.750301"><ele>280.0</ele><time>2026-03-22T13:21:41.13Z</time></trkpt><trkpt lat="49.3090422" lon="5.7502943"><ele>280.0</ele><time>2026-03-22T13:21:42.131Z</time></trkpt><trkpt lat="49.3089607" lon="5.7502829"><ele>280.0</ele><time>2026-03-22T13:21:43.13Z</time></trkpt><trkpt lat="49.3088875" lon="5.7502643"><ele>280.0</ele><time>2026-03-22T13:21:44.131Z</time></trkpt><trkpt lat="49.3088293" lon="5.7502097"><ele>281.16666666666663</ele><time>2026-03-22T13:21:45.131Z</time></trkpt><trkpt lat="49.3087955" lon="5.7501191"><ele>282.3333333333333</ele><time>2026-03-22T13:21:46.13Z</time></trkpt><trkpt lat="49.3087678" lon="5.7500057"><ele>283.5</ele><time>2026-03-22T13:21:47.13Z</time></trkpt><trkpt lat="49.3087394" lon="5.7498849"><ele>284.6666666666667</ele><time>2026-03-22T13:21:48.13Z</time></trkpt><trkpt lat="49.3087071" lon="5.7497622"><ele>285.83333333333337</ele><time>2026-03-22T13:21:49.13Z</time></trkpt><trkpt lat="49.3086701" lon="5.7496406"><ele>287.0</ele><time>2026-03-22T13:21:50.13Z</time></trkpt><trkpt lat="49.3086336" lon="5.7495238"><ele>287.0</ele><time>2026-03-22T13:21:51.13Z</time></trkpt><trkpt lat="49.3085964" lon="5.7494087"><ele>287.0</ele><time>2026-03-22T13:21:52.13Z</time></trkpt><trkpt lat="49.3085595" lon="5.7492902"><ele>287.0</ele><time>2026-03-22T13:21:53.131Z</time></trkpt><trkpt lat="49.3085231" lon="5.7491728"><ele>287.0</ele><time>2026-03-22T13:21:54.131Z</time></trkpt><trkpt lat="49.3084815" lon="5.7490551"><ele>287.0</ele><time>2026-03-22T13:21:55.13Z</time></trkpt><trkpt lat="49.3084404" lon="5.7489357"><ele>287.0</ele><time>2026-03-22T13:21:56.13Z</time></trkpt><trkpt lat="49.3084004" lon="5.7488148"><ele>286.6</ele><time>2026-03-22T13:21:57.13Z</time></trkpt><trkpt lat="49.3083598" lon="5.748692"><ele>286.2</ele><time>2026-03-22T13:21:58.13Z</time></trkpt><trkpt lat="49.3083169" lon="5.7485673"><ele>285.8</ele><time>2026-03-22T13:21:59.13Z</time></trkpt><trkpt lat="49.3082718" lon="5.7484387"><ele>285.4</ele><time>2026-03-22T13:22:00.13Z</time></trkpt><trkpt lat="49.3082242" lon="5.7483083"><ele>285.0</ele><time>2026-03-22T13:22:01.13Z</time></trkpt><trkpt lat="49.3081716" lon="5.7481826"><ele>284.6666666666667</ele><time>2026-03-22T13:22:02.13Z</time></trkpt><trkpt lat="49.3081178" lon="5.7480587"><ele>284.3333333333333</ele><time>2026-03-22T13:22:03.131Z</time></trkpt><trkpt lat="49.3080656" lon="5.7479387"><ele>284.0</ele><time>2026-03-22T13:22:04.13Z</time></trkpt><trkpt lat="49.3080207" lon="5.7478218"><ele>283.66666666666663</ele><time>2026-03-22T13:22:05.13Z</time></trkpt><trkpt lat="49.3079865" lon="5.7477066"><ele>283.3333333333333</ele><time>2026-03-22T13:22:06.13Z</time></trkpt><trkpt lat="49.307955" lon="5.7475949"><ele>283.0</ele><time>2026-03-22T13:22:07.13Z</time></trkpt><trkpt lat="49.3079185" lon="5.7474867"><ele>283.0</ele><time>2026-03-22T13:22:08.13Z</time></trkpt><trkpt lat="49.307876" lon="5.7473758"><ele>283.0</ele><time>2026-03-22T13:22:09.13Z</time></trkpt><trkpt lat="49.3078358" lon="5.7472729"><ele>283.0</ele><time>2026-03-22T13:22:10.13Z</time></trkpt><trkpt lat="49.3077896" lon="5.747165"><ele>283.0</ele><time>2026-03-22T13:22:11.13Z</time></trkpt><trkpt lat="49.3077592" lon="5.7470617"><ele>283.0</ele><time>2026-03-22T13:22:12.13Z</time></trkpt><trkpt lat="49.3077308" lon="5.7469656"><ele>283.0</ele><time>2026-03-22T13:22:13.13Z</time></trkpt><trkpt lat="49.3076766" lon="5.7468152"><ele>282.5</ele><time>2026-03-22T13:22:15.15Z</time></trkpt><trkpt lat="49.3076355" lon="5.746724"><ele>282.0</ele><time>2026-03-22T13:22:16.15Z</time></trkpt><trkpt lat="49.3075818" lon="5.7466069"><ele>281.5</ele><time>2026-03-22T13:22:17.15Z</time></trkpt><trkpt lat="49.3075286" lon="5.7464832"><ele>281.0</ele><time>2026-03-22T13:22:18.149Z</time></trkpt><trkpt lat="49.3074877" lon="5.7463754"><ele>280.5</ele><time>2026-03-22T13:22:19.149Z</time></trkpt><trkpt lat="49.3074402" lon="5.7462708"><ele>280.0</ele><time>2026-03-22T13:22:20.151Z</time></trkpt><trkpt lat="49.3073919" lon="5.746155"><ele>280.2</ele><time>2026-03-22T13:22:21.149Z</time></trkpt><trkpt lat="49.3073436" lon="5.7460221"><ele>280.4</ele><time>2026-03-22T13:22:22.15Z</time></trkpt><trkpt lat="49.3072884" lon="5.7458816"><ele>280.6</ele><time>2026-03-22T13:22:23.149Z</time></trkpt><trkpt lat="49.3072427" lon="5.7457525"><ele>280.8</ele><time>2026-03-22T13:22:24.15Z</time></trkpt><trkpt lat="49.3072065" lon="5.7456311"><ele>281.0</ele><time>2026-03-22T13:22:25.15Z</time></trkpt><trkpt lat="49.3071631" lon="5.7455201"><ele>281.0</ele><time>2026-03-22T13:22:26.15Z</time></trkpt><trkpt lat="49.3071218" lon="5.7454137"><ele>281.0</ele><time>2026-03-22T13:22:27.15Z</time></trkpt><trkpt lat="49.3070856" lon="5.7452996"><ele>281.0</ele><time>2026-03-22T13:22:28.15Z</time></trkpt><trkpt lat="49.3070466" lon="5.7451823"><ele>281.0</ele><time>2026-03-22T13:22:29.151Z</time></trkpt><trkpt lat="49.3070088" lon="5.7450752"><ele>281.0</ele><time>2026-03-22T13:22:30.15Z</time></trkpt><trkpt lat="49.3069687" lon="5.7449725"><ele>281.0</ele><time>2026-03-22T13:22:31.15Z</time></trkpt><trkpt lat="49.3069292" lon="5.7448627"><ele>280.1666666666667</ele><time>2026-03-22T13:22:32.15Z</time></trkpt><trkpt lat="49.3068908" lon="5.7447475"><ele>279.33333333333337</ele><time>2026-03-22T13:22:33.15Z</time></trkpt><trkpt lat="49.3068576" lon="5.7446281"><ele>278.5</ele><time>2026-03-22T13:22:34.15Z</time></trkpt><trkpt lat="49.306821" lon="5.7445073"><ele>277.6666666666667</ele><time>2026-03-22T13:22:35.15Z</time></trkpt><trkpt lat="49.3067825" lon="5.7443868"><ele>276.8333333333333</ele><time>2026-03-22T13:22:36.15Z</time></trkpt><trkpt lat="49.3067438" lon="5.7442663"><ele>276.0</ele><time>2026-03-22T13:22:37.15Z</time></trkpt><trkpt lat="49.3067121" lon="5.7441472"><ele>275.5</ele><time>2026-03-22T13:22:38.15Z</time></trkpt><trkpt lat="49.306687" lon="5.7440224"><ele>275.0</ele><time>2026-03-22T13:22:39.15Z</time></trkpt><trkpt lat="49.3066783" lon="5.7438958"><ele>274.5</ele><time>2026-03-22T13:22:40.149Z</time></trkpt><trkpt lat="49.3066808" lon="5.7437698"><ele>274.0</ele><time>2026-03-22T13:22:41.15Z</time></trkpt><trkpt lat="49.3066931" lon="5.7436532"><ele>273.5</ele><time>2026-03-22T13:22:42.15Z</time></trkpt><trkpt lat="49.3067229" lon="5.7434789"><ele>273.0</ele><time>2026-03-22T13:22:44.149Z</time></trkpt><trkpt lat="49.3068118" lon="5.7434496"><ele>272.8333333333333</ele><time>2026-03-22T13:22:46.149Z</time></trkpt><trkpt lat="49.3069069" lon="5.7435531"><ele>272.6666666666667</ele><time>2026-03-22T13:22:48.149Z</time></trkpt><trkpt lat="49.3069583" lon="5.7436167"><ele>272.5</ele><time>2026-03-22T13:22:49.149Z</time></trkpt><trkpt lat="49.3070115" lon="5.7436936"><ele>272.33333333333337</ele><time>2026-03-22T13:22:50.15Z</time></trkpt><trkpt lat="49.3070618" lon="5.7437776"><ele>272.1666666666667</ele><time>2026-03-22T13:22:51.149Z</time></trkpt><trkpt lat="49.3071164" lon="5.743848"><ele>272.0</ele><time>2026-03-22T13:22:52.149Z</time></trkpt><trkpt lat="49.3071766" lon="5.7438785"><ele>271.5</ele><time>2026-03-22T13:22:53.149Z</time></trkpt><trkpt lat="49.3072792" lon="5.7438044"><ele>271.0</ele><time>2026-03-22T13:22:55.15Z</time></trkpt><trkpt lat="49.3073555" lon="5.7436499"><ele>270.5</ele><time>2026-03-22T13:22:57.149Z</time></trkpt><trkpt lat="49.3073958" lon="5.7435658"><ele>270.0</ele><time>2026-03-22T13:22:58.149Z</time></trkpt><trkpt lat="49.3074422" lon="5.7434833"><ele>269.5</ele><time>2026-03-22T13:22:59.149Z</time></trkpt><trkpt lat="49.3074767" lon="5.7433953"><ele>269.0</ele><time>2026-03-22T13:23:00.149Z</time></trkpt><trkpt lat="49.3075042" lon="5.7432952"><ele>269.0</ele><time>2026-03-22T13:23:01.149Z</time></trkpt><trkpt lat="49.3075117" lon="5.7431816"><ele>269.0</ele><time>2026-03-22T13:23:02.149Z</time></trkpt><trkpt lat="49.3075115" lon="5.7430606"><ele>269.0</ele><time>2026-03-22T13:23:03.149Z</time></trkpt><trkpt lat="49.307494" lon="5.7429445"><ele>269.0</ele><time>2026-03-22T13:23:04.149Z</time></trkpt><trkpt lat="49.3074746" lon="5.7428207"><ele>269.0</ele><time>2026-03-22T13:23:05.149Z</time></trkpt><trkpt lat="49.3074515" lon="5.7426986"><ele>269.0</ele><time>2026-03-22T13:23:06.15Z</time></trkpt><trkpt lat="49.307427" lon="5.7425812"><ele>268.5</ele><time>2026-03-22T13:23:07.149Z</time></trkpt><trkpt lat="49.3074022" lon="5.742464"><ele>268.0</ele><time>2026-03-22T13:23:08.15Z</time></trkpt><trkpt lat="49.3073717" lon="5.7423637"><ele>267.5</ele><time>2026-03-22T13:23:09.15Z</time></trkpt><trkpt lat="49.3073212" lon="5.7422344"><ele>267.0</ele><time>2026-03-22T13:23:11.15Z</time></trkpt><trkpt lat="49.3073017" lon="5.7421353"><ele>266.5</ele><time>2026-03-22T13:23:14.15Z</time></trkpt><trkpt lat="49.3072723" lon="5.7420145"><ele>266.0</ele><time>2026-03-22T13:23:19.149Z</time></trkpt><trkpt lat="49.307218" lon="5.7419126"><ele>266.33333333333337</ele><time>2026-03-22T13:23:21.149Z</time></trkpt><trkpt lat="49.3071508" lon="5.7417578"><ele>266.6666666666667</ele><time>2026-03-22T13:23:23.15Z</time></trkpt><trkpt lat="49.3071101" lon="5.7416646"><ele>267.0</ele><time>2026-03-22T13:23:24.15Z</time></trkpt><trkpt lat="49.3070637" lon="5.7415676"><ele>267.3333333333333</ele><time>2026-03-22T13:23:25.15Z</time></trkpt><trkpt lat="49.3070127" lon="5.7414629"><ele>267.66666666666663</ele><time>2026-03-22T13:23:26.15Z</time></trkpt><trkpt lat="49.306956" lon="5.7413562"><ele>268.0</ele><time>2026-03-22T13:23:27.149Z</time></trkpt><trkpt lat="49.3068968" lon="5.7412541"><ele>268.0</ele><time>2026-03-22T13:23:28.15Z</time></trkpt><trkpt lat="49.3068401" lon="5.7411572"><ele>268.0</ele><time>2026-03-22T13:23:29.15Z</time></trkpt><trkpt lat="49.3067948" lon="5.741057"><ele>268.0</ele><time>2026-03-22T13:23:30.149Z</time></trkpt><trkpt lat="49.3067641" lon="5.7409558"><ele>268.0</ele><time>2026-03-22T13:23:31.15Z</time></trkpt><trkpt lat="49.3067445" lon="5.740847"><ele>268.0</ele><time>2026-03-22T13:23:32.15Z</time></trkpt><trkpt lat="49.3067243" lon="5.7407376"><ele>268.0</ele><time>2026-03-22T13:23:33.15Z</time></trkpt><trkpt lat="49.3067123" lon="5.7406351"><ele>267.2</ele><time>2026-03-22T13:23:34.15Z</time></trkpt><trkpt lat="49.3067078" lon="5.7405355"><ele>266.4</ele><time>2026-03-22T13:23:35.15Z</time></trkpt><trkpt lat="49.3067164" lon="5.7403716"><ele>265.59999999999997</ele><time>2026-03-22T13:23:37.15Z</time></trkpt><trkpt lat="49.3067084" lon="5.7402639"><ele>264.8</ele><time>2026-03-22T13:23:41.15Z</time></trkpt><trkpt lat="49.3066469" lon="5.7401354"><ele>264.0</ele><time>2026-03-22T13:23:44.151Z</time></trkpt><trkpt lat="49.3065742" lon="5.7399981"><ele>263.8333333333333</ele><time>2026-03-22T13:23:46.15Z</time></trkpt><trkpt lat="49.3065295" lon="5.739914"><ele>263.6666666666667</ele><time>2026-03-22T13:23:47.149Z</time></trkpt><trkpt lat="49.3064791" lon="5.7398191"><ele>263.5</ele><time>2026-03-22T13:23:48.149Z</time></trkpt><trkpt lat="49.3064224" lon="5.7397164"><ele>263.33333333333337</ele><time>2026-03-22T13:23:49.15Z</time></trkpt><trkpt lat="49.3063601" lon="5.7396"><ele>263.1666666666667</ele><time>2026-03-22T13:23:50.149Z</time></trkpt><trkpt lat="49.3062975" lon="5.7394826"><ele>263.0</ele><time>2026-03-22T13:23:51.15Z</time></trkpt><trkpt lat="49.30623" lon="5.7393559"><ele>262.75</ele><time>2026-03-22T13:23:52.15Z</time></trkpt><trkpt lat="49.3061588" lon="5.7392284"><ele>262.5</ele><time>2026-03-22T13:23:53.15Z</time></trkpt><trkpt lat="49.3060865" lon="5.7390916"><ele>262.25</ele><time>2026-03-22T13:23:54.149Z</time></trkpt><trkpt lat="49.3060222" lon="5.7389388"><ele>262.0</ele><time>2026-03-22T13:23:55.15Z</time></trkpt><trkpt lat="49.3059612" lon="5.7387698"><ele>262.0</ele><time>2026-03-22T13:23:56.149Z</time></trkpt><trkpt lat="49.3059084" lon="5.738592"><ele>262.0</ele><time>2026-03-22T13:23:57.15Z</time></trkpt><trkpt lat="49.3058599" lon="5.7384084"><ele>262.0</ele><time>2026-03-22T13:23:58.15Z</time></trkpt><trkpt lat="49.3058168" lon="5.7382257"><ele>262.0</ele><time>2026-03-22T13:23:59.15Z</time></trkpt><trkpt lat="49.3057742" lon="5.7380413"><ele>261.25</ele><time>2026-03-22T13:24:00.149Z</time></trkpt><trkpt lat="49.3057316" lon="5.7378619"><ele>260.5</ele><time>2026-03-22T13:24:01.15Z</time></trkpt><trkpt lat="49.3056858" lon="5.7376824"><ele>259.75</ele><time>2026-03-22T13:24:02.15Z</time></trkpt><trkpt lat="49.3056349" lon="5.7375072"><ele>259.0</ele><time>2026-03-22T13:24:03.149Z</time></trkpt><trkpt lat="49.3055885" lon="5.7373286"><ele>259.25</ele><time>2026-03-22T13:24:04.149Z</time></trkpt><trkpt lat="49.3055461" lon="5.7371502"><ele>259.5</ele><time>2026-03-22T13:24:05.15Z</time></trkpt><trkpt lat="49.3055061" lon="5.7369705"><ele>259.75</ele><time>2026-03-22T13:24:06.15Z</time></trkpt><trkpt lat="49.3054617" lon="5.7367942"><ele>260.0</ele><time>2026-03-22T13:24:07.15Z</time></trkpt><trkpt lat="49.3054163" lon="5.7366193"><ele>259.5</ele><time>2026-03-22T13:24:08.15Z</time></trkpt><trkpt lat="49.3053736" lon="5.7364391"><ele>259.0</ele><time>2026-03-22T13:24:09.15Z</time></trkpt><trkpt lat="49.3053278" lon="5.7362668"><ele>258.5</ele><time>2026-03-22T13:24:10.15Z</time></trkpt><trkpt lat="49.3052851" lon="5.7360893"><ele>258.0</ele><time>2026-03-22T13:24:11.149Z</time></trkpt><trkpt lat="49.3052444" lon="5.7359165"><ele>257.75</ele><time>2026-03-22T13:24:12.15Z</time></trkpt><trkpt lat="49.3052026" lon="5.7357364"><ele>257.5</ele><time>2026-03-22T13:24:13.149Z</time></trkpt><trkpt lat="49.3051567" lon="5.7355584"><ele>257.25</ele><time>2026-03-22T13:24:14.149Z</time></trkpt><trkpt lat="49.3051141" lon="5.7353855"><ele>257.0</ele><time>2026-03-22T13:24:15.15Z</time></trkpt><trkpt lat="49.3050706" lon="5.7352086"><ele>256.5</ele><time>2026-03-22T13:24:16.15Z</time></trkpt><trkpt lat="49.3050311" lon="5.7350245"><ele>256.0</ele><time>2026-03-22T13:24:17.15Z</time></trkpt><trkpt lat="49.30499" lon="5.7348409"><ele>255.5</ele><time>2026-03-22T13:24:18.151Z</time></trkpt><trkpt lat="49.3049487" lon="5.7346583"><ele>255.0</ele><time>2026-03-22T13:24:19.149Z</time></trkpt><trkpt lat="49.3049101" lon="5.7344841"><ele>255.0</ele><time>2026-03-22T13:24:20.15Z</time></trkpt><trkpt lat="49.3048718" lon="5.7343191"><ele>255.0</ele><time>2026-03-22T13:24:21.15Z</time></trkpt><trkpt lat="49.3048283" lon="5.7341533"><ele>255.0</ele><time>2026-03-22T13:24:22.15Z</time></trkpt><trkpt lat="49.3047881" lon="5.7339927"><ele>255.0</ele><time>2026-03-22T13:24:23.149Z</time></trkpt><trkpt lat="49.3047494" lon="5.7338339"><ele>255.2</ele><time>2026-03-22T13:24:24.15Z</time></trkpt><trkpt lat="49.3047179" lon="5.7336764"><ele>255.4</ele><time>2026-03-22T13:24:25.151Z</time></trkpt><trkpt lat="49.3046972" lon="5.7335123"><ele>255.60000000000002</ele><time>2026-03-22T13:24:26.15Z</time></trkpt><trkpt lat="49.304685" lon="5.7333423"><ele>255.8</ele><time>2026-03-22T13:24:27.15Z</time></trkpt><trkpt lat="49.3046749" lon="5.7331715"><ele>256.0</ele><time>2026-03-22T13:24:28.15Z</time></trkpt><trkpt lat="49.3046692" lon="5.7329989"><ele>255.5</ele><time>2026-03-22T13:24:29.15Z</time></trkpt><trkpt lat="49.3046642" lon="5.7328232"><ele>255.0</ele><time>2026-03-22T13:24:30.149Z</time></trkpt><trkpt lat="49.3046629" lon="5.7326462"><ele>254.5</ele><time>2026-03-22T13:24:31.15Z</time></trkpt><trkpt lat="49.3046595" lon="5.7324673"><ele>254.0</ele><time>2026-03-22T13:24:32.15Z</time></trkpt><trkpt lat="49.3046538" lon="5.7322877"><ele>253.75</ele><time>2026-03-22T13:24:33.15Z</time></trkpt><trkpt lat="49.3046543" lon="5.7321098"><ele>253.5</ele><time>2026-03-22T13:24:34.149Z</time></trkpt><trkpt lat="49.3046562" lon="5.7319342"><ele>253.25</ele><time>2026-03-22T13:24:35.149Z</time></trkpt><trkpt lat="49.3046569" lon="5.7317608"><ele>253.0</ele><time>2026-03-22T13:24:36.15Z</time></trkpt><trkpt lat="49.3046578" lon="5.7315914"><ele>253.0</ele><time>2026-03-22T13:24:37.15Z</time></trkpt><trkpt lat="49.3046582" lon="5.7314321"><ele>253.0</ele><time>2026-03-22T13:24:38.149Z</time></trkpt><trkpt lat="49.3046528" lon="5.731284"><ele>253.0</ele><time>2026-03-22T13:24:39.15Z</time></trkpt><trkpt lat="49.3046514" lon="5.7311489"><ele>253.0</ele><time>2026-03-22T13:24:40.151Z</time></trkpt><trkpt lat="49.3046556" lon="5.7310288"><ele>253.0</ele><time>2026-03-22T13:24:41.15Z</time></trkpt><trkpt lat="49.3046758" lon="5.7308596"><ele>252.99999999999997</ele><time>2026-03-22T13:24:43.15Z</time></trkpt><trkpt lat="49.3046964" lon="5.7307534"><ele>253.0</ele><time>2026-03-22T13:24:45.149Z</time></trkpt><trkpt lat="49.3047785" lon="5.7306994"><ele>253.0</ele><time>2026-03-22T13:24:48.15Z</time></trkpt><trkpt lat="49.3048635" lon="5.7306632"><ele>253.0</ele><time>2026-03-22T13:24:50.15Z</time></trkpt><trkpt lat="49.3049289" lon="5.7306401"><ele>252.99999999999997</ele><time>2026-03-22T13:24:51.15Z</time></trkpt><trkpt lat="49.3050065" lon="5.7306175"><ele>253.0</ele><time>2026-03-22T13:24:52.15Z</time></trkpt><trkpt lat="49.3050847" lon="5.7305882"><ele>252.99999999999997</ele><time>2026-03-22T13:24:53.15Z</time></trkpt><trkpt lat="49.3051616" lon="5.730544"><ele>253.0</ele><time>2026-03-22T13:24:54.151Z</time></trkpt><trkpt lat="49.305213" lon="5.7304676"><ele>253.0</ele><time>2026-03-22T13:24:55.15Z</time></trkpt><trkpt lat="49.3052459" lon="5.7303615"><ele>253.0</ele><time>2026-03-22T13:24:56.15Z</time></trkpt><trkpt lat="49.3052724" lon="5.7302409"><ele>252.99999999999997</ele><time>2026-03-22T13:24:57.15Z</time></trkpt><trkpt lat="49.305303" lon="5.7301062"><ele>253.0</ele><time>2026-03-22T13:24:58.15Z</time></trkpt><trkpt lat="49.3053206" lon="5.7299603"><ele>252.8</ele><time>2026-03-22T13:24:59.15Z</time></trkpt><trkpt lat="49.3053185" lon="5.7298079"><ele>252.60000000000002</ele><time>2026-03-22T13:25:00.149Z</time></trkpt><trkpt lat="49.305305" lon="5.7296491"><ele>252.39999999999998</ele><time>2026-03-22T13:25:01.15Z</time></trkpt><trkpt lat="49.3052862" lon="5.7294862"><ele>252.2</ele><time>2026-03-22T13:25:02.151Z</time></trkpt><trkpt lat="49.3052638" lon="5.7293144"><ele>252.0</ele><time>2026-03-22T13:25:03.149Z</time></trkpt><trkpt lat="49.3052401" lon="5.7291394"><ele>251.75</ele><time>2026-03-22T13:25:04.15Z</time></trkpt><trkpt lat="49.3052129" lon="5.7289576"><ele>251.5</ele><time>2026-03-22T13:25:05.15Z</time></trkpt><trkpt lat="49.305185" lon="5.7287698"><ele>251.25</ele><time>2026-03-22T13:25:06.149Z</time></trkpt><trkpt lat="49.3051593" lon="5.7285865"><ele>251.0</ele><time>2026-03-22T13:25:07.15Z</time></trkpt><trkpt lat="49.3051355" lon="5.7284015"><ele>251.0</ele><time>2026-03-22T13:25:08.15Z</time></trkpt><trkpt lat="49.3051137" lon="5.7282207"><ele>251.0</ele><time>2026-03-22T13:25:09.149Z</time></trkpt><trkpt lat="49.3050923" lon="5.7280448"><ele>251.0</ele><time>2026-03-22T13:25:10.15Z</time></trkpt><trkpt lat="49.3050713" lon="5.7278717"><ele>251.0</ele><time>2026-03-22T13:25:11.151Z</time></trkpt><trkpt lat="49.3050537" lon="5.7276891"><ele>251.25</ele><time>2026-03-22T13:25:12.149Z</time></trkpt><trkpt lat="49.3050399" lon="5.7275037"><ele>251.5</ele><time>2026-03-22T13:25:13.151Z</time></trkpt><trkpt lat="49.305031" lon="5.7273196"><ele>251.75</ele><time>2026-03-22T13:25:14.15Z</time></trkpt><trkpt lat="49.3050252" lon="5.7271338"><ele>252.0</ele><time>2026-03-22T13:25:15.149Z</time></trkpt><trkpt lat="49.3050131" lon="5.7269484"><ele>252.0</ele><time>2026-03-22T13:25:16.15Z</time></trkpt><trkpt lat="49.3050018" lon="5.7267622"><ele>252.0</ele><time>2026-03-22T13:25:17.15Z</time></trkpt><trkpt lat="49.305006" lon="5.7265773"><ele>252.0</ele><time>2026-03-22T13:25:18.151Z</time></trkpt><trkpt lat="49.3050243" lon="5.7263975"><ele>252.0</ele><time>2026-03-22T13:25:19.149Z</time></trkpt><trkpt lat="49.3050453" lon="5.7262135"><ele>252.0</ele><time>2026-03-22T13:25:20.149Z</time></trkpt><trkpt lat="49.3050514" lon="5.7260269"><ele>252.0</ele><time>2026-03-22T13:25:21.15Z</time></trkpt><trkpt lat="49.305044" lon="5.7258485"><ele>252.0</ele><time>2026-03-22T13:25:22.15Z</time></trkpt><trkpt lat="49.3050277" lon="5.7256704"><ele>252.0</ele><time>2026-03-22T13:25:23.15Z</time></trkpt><trkpt lat="49.30501" lon="5.725495"><ele>252.0</ele><time>2026-03-22T13:25:24.149Z</time></trkpt><trkpt lat="49.3049888" lon="5.7253224"><ele>252.0</ele><time>2026-03-22T13:25:25.15Z</time></trkpt><trkpt lat="49.3049669" lon="5.7251454"><ele>252.0</ele><time>2026-03-22T13:25:26.15Z</time></trkpt><trkpt lat="49.3049432" lon="5.7249694"><ele>252.0</ele><time>2026-03-22T13:25:27.15Z</time></trkpt><trkpt lat="49.3049218" lon="5.7247937"><ele>252.75</ele><time>2026-03-22T13:25:28.15Z</time></trkpt><trkpt lat="49.3049015" lon="5.7246176"><ele>253.5</ele><time>2026-03-22T13:25:29.15Z</time></trkpt><trkpt lat="49.3048774" lon="5.7244431"><ele>254.25</ele><time>2026-03-22T13:25:30.15Z</time></trkpt><trkpt lat="49.3048564" lon="5.7242711"><ele>255.0</ele><time>2026-03-22T13:25:31.15Z</time></trkpt><trkpt lat="49.3048257" lon="5.7241003"><ele>254.75</ele><time>2026-03-22T13:25:32.151Z</time></trkpt><trkpt lat="49.3047884" lon="5.7239375"><ele>254.5</ele><time>2026-03-22T13:25:33.149Z</time></trkpt><trkpt lat="49.3047444" lon="5.7237831"><ele>254.25</ele><time>2026-03-22T13:25:34.15Z</time></trkpt><trkpt lat="49.3046914" lon="5.7236306"><ele>254.0</ele><time>2026-03-22T13:25:35.15Z</time></trkpt><trkpt lat="49.3046286" lon="5.7234815"><ele>254.0</ele><time>2026-03-22T13:25:36.15Z</time></trkpt><trkpt lat="49.304567" lon="5.7233364"><ele>254.0</ele><time>2026-03-22T13:25:37.15Z</time></trkpt><trkpt lat="49.3045038" lon="5.7231883"><ele>254.0</ele><time>2026-03-22T13:25:38.15Z</time></trkpt><trkpt lat="49.3044434" lon="5.7230414"><ele>254.0</ele><time>2026-03-22T13:25:39.15Z</time></trkpt><trkpt lat="49.3043826" lon="5.7228961"><ele>254.0</ele><time>2026-03-22T13:25:40.15Z</time></trkpt><trkpt lat="49.3043225" lon="5.7227483"><ele>254.0</ele><time>2026-03-22T13:25:41.149Z</time></trkpt><trkpt lat="49.3042595" lon="5.7226045"><ele>254.0</ele><time>2026-03-22T13:25:42.149Z</time></trkpt><trkpt lat="49.3041957" lon="5.7224615"><ele>254.0</ele><time>2026-03-22T13:25:43.149Z</time></trkpt><trkpt lat="49.3041297" lon="5.7223229"><ele>254.25</ele><time>2026-03-22T13:25:44.149Z</time></trkpt><trkpt lat="49.3040593" lon="5.7221804"><ele>254.5</ele><time>2026-03-22T13:25:45.149Z</time></trkpt><trkpt lat="49.3039885" lon="5.7220424"><ele>254.75</ele><time>2026-03-22T13:25:46.149Z</time></trkpt><trkpt lat="49.3039159" lon="5.7219044"><ele>255.0</ele><time>2026-03-22T13:25:47.149Z</time></trkpt><trkpt lat="49.3038432" lon="5.7217642"><ele>255.0</ele><time>2026-03-22T13:25:48.15Z</time></trkpt><trkpt lat="49.3037708" lon="5.72163"><ele>255.0</ele><time>2026-03-22T13:25:49.151Z</time></trkpt><trkpt lat="49.3036985" lon="5.7214941"><ele>255.0</ele><time>2026-03-22T13:25:50.151Z</time></trkpt><trkpt lat="49.3036272" lon="5.7213682"><ele>255.0</ele><time>2026-03-22T13:25:51.149Z</time></trkpt><trkpt lat="49.3035536" lon="5.7212336"><ele>255.0</ele><time>2026-03-22T13:25:52.15Z</time></trkpt><trkpt lat="49.3034826" lon="5.7211005"><ele>255.0</ele><time>2026-03-22T13:25:53.15Z</time></trkpt><trkpt lat="49.3034116" lon="5.720965"><ele>255.0</ele><time>2026-03-22T13:25:54.151Z</time></trkpt><trkpt lat="49.3033409" lon="5.7208327"><ele>255.0</ele><time>2026-03-22T13:25:55.15Z</time></trkpt><trkpt lat="49.3032711" lon="5.7207012"><ele>255.0</ele><time>2026-03-22T13:25:56.148Z</time></trkpt><trkpt lat="49.3032024" lon="5.7205702"><ele>256.2</ele><time>2026-03-22T13:25:57.149Z</time></trkpt><trkpt lat="49.3031346" lon="5.720449"><ele>257.4</ele><time>2026-03-22T13:25:58.15Z</time></trkpt><trkpt lat="49.3030713" lon="5.7203281"><ele>258.6</ele><time>2026-03-22T13:25:59.149Z</time></trkpt><trkpt lat="49.3030117" lon="5.7202057"><ele>259.8</ele><time>2026-03-22T13:26:00.148Z</time></trkpt><trkpt lat="49.302953" lon="5.7200895"><ele>261.0</ele><time>2026-03-22T13:26:01.149Z</time></trkpt><trkpt lat="49.3028926" lon="5.7199737"><ele>261.6</ele><time>2026-03-22T13:26:02.15Z</time></trkpt><trkpt lat="49.302832" lon="5.7198615"><ele>262.20000000000005</ele><time>2026-03-22T13:26:03.149Z</time></trkpt><trkpt lat="49.3027729" lon="5.7197462"><ele>262.79999999999995</ele><time>2026-03-22T13:26:04.15Z</time></trkpt><trkpt lat="49.3027214" lon="5.7196368"><ele>263.4</ele><time>2026-03-22T13:26:05.149Z</time></trkpt><trkpt lat="49.3026703" lon="5.7195262"><ele>264.0</ele><time>2026-03-22T13:26:06.148Z</time></trkpt><trkpt lat="49.3026122" lon="5.7194115"><ele>264.0</ele><time>2026-03-22T13:26:07.149Z</time></trkpt><trkpt lat="49.3025524" lon="5.7192983"><ele>264.0</ele><time>2026-03-22T13:26:08.149Z</time></trkpt><trkpt lat="49.3024901" lon="5.7191796"><ele>264.0</ele><time>2026-03-22T13:26:09.148Z</time></trkpt><trkpt lat="49.3024259" lon="5.7190622"><ele>264.0</ele><time>2026-03-22T13:26:10.149Z</time></trkpt><trkpt lat="49.3023582" lon="5.7189394"><ele>264.0</ele><time>2026-03-22T13:26:11.148Z</time></trkpt><trkpt lat="49.3022925" lon="5.7188141"><ele>263.2</ele><time>2026-03-22T13:26:12.149Z</time></trkpt><trkpt lat="49.3022267" lon="5.71869"><ele>262.4</ele><time>2026-03-22T13:26:13.148Z</time></trkpt><trkpt lat="49.3021633" lon="5.7185703"><ele>261.6</ele><time>2026-03-22T13:26:14.149Z</time></trkpt><trkpt lat="49.3021062" lon="5.718444"><ele>260.8</ele><time>2026-03-22T13:26:15.148Z</time></trkpt><trkpt lat="49.3020467" lon="5.7183251"><ele>260.0</ele><time>2026-03-22T13:26:16.15Z</time></trkpt><trkpt lat="49.3019902" lon="5.7182074"><ele>260.0</ele><time>2026-03-22T13:26:17.149Z</time></trkpt><trkpt lat="49.3019387" lon="5.7180882"><ele>260.0</ele><time>2026-03-22T13:26:18.149Z</time></trkpt><trkpt lat="49.3018884" lon="5.7179689"><ele>260.0</ele><time>2026-03-22T13:26:19.149Z</time></trkpt><trkpt lat="49.301838" lon="5.7178538"><ele>260.0</ele><time>2026-03-22T13:26:20.149Z</time></trkpt><trkpt lat="49.3017873" lon="5.7177414"><ele>260.0</ele><time>2026-03-22T13:26:21.148Z</time></trkpt><trkpt lat="49.3017345" lon="5.7176294"><ele>259.83333333333337</ele><time>2026-03-22T13:26:22.149Z</time></trkpt><trkpt lat="49.3016837" lon="5.7175202"><ele>259.6666666666667</ele><time>2026-03-22T13:26:23.149Z</time></trkpt><trkpt lat="49.3016334" lon="5.7174083"><ele>259.5</ele><time>2026-03-22T13:26:24.149Z</time></trkpt><trkpt lat="49.3015759" lon="5.7172989"><ele>259.3333333333333</ele><time>2026-03-22T13:26:25.149Z</time></trkpt><trkpt lat="49.3015203" lon="5.7172004"><ele>259.16666666666663</ele><time>2026-03-22T13:26:26.149Z</time></trkpt><trkpt lat="49.3014711" lon="5.7171089"><ele>259.0</ele><time>2026-03-22T13:26:27.149Z</time></trkpt><trkpt lat="49.3014371" lon="5.7170221"><ele>259.0</ele><time>2026-03-22T13:26:28.148Z</time></trkpt><trkpt lat="49.3014271" lon="5.7169262"><ele>259.0</ele><time>2026-03-22T13:26:29.149Z</time></trkpt><trkpt lat="49.3014933" lon="5.7167668"><ele>259.0</ele><time>2026-03-22T13:26:31.148Z</time></trkpt><trkpt lat="49.3015464" lon="5.7166807"><ele>259.0</ele><time>2026-03-22T13:26:32.149Z</time></trkpt><trkpt lat="49.3016106" lon="5.7165918"><ele>259.0</ele><time>2026-03-22T13:26:33.149Z</time></trkpt><trkpt lat="49.3016746" lon="5.7165011"><ele>259.0</ele><time>2026-03-22T13:26:34.149Z</time></trkpt><trkpt lat="49.301741" lon="5.7164139"><ele>259.14285714285717</ele><time>2026-03-22T13:26:35.15Z</time></trkpt><trkpt lat="49.3018132" lon="5.7163394"><ele>259.2857142857143</ele><time>2026-03-22T13:26:36.15Z</time></trkpt><trkpt lat="49.3018874" lon="5.7162813"><ele>259.42857142857144</ele><time>2026-03-22T13:26:37.149Z</time></trkpt><trkpt lat="49.3019527" lon="5.7162335"><ele>259.57142857142856</ele><time>2026-03-22T13:26:38.149Z</time></trkpt><trkpt lat="49.3020039" lon="5.7161628"><ele>259.7142857142857</ele><time>2026-03-22T13:26:39.149Z</time></trkpt><trkpt lat="49.3020214" lon="5.7160695"><ele>259.8571428571429</ele><time>2026-03-22T13:26:40.15Z</time></trkpt><trkpt lat="49.3020145" lon="5.7159682"><ele>260.0</ele><time>2026-03-22T13:26:41.149Z</time></trkpt><trkpt lat="49.3019958" lon="5.7158634"><ele>260.6</ele><time>2026-03-22T13:26:42.149Z</time></trkpt><trkpt lat="49.3019672" lon="5.7157455"><ele>261.2</ele><time>2026-03-22T13:26:43.149Z</time></trkpt><trkpt lat="49.3019311" lon="5.7156287"><ele>261.8</ele><time>2026-03-22T13:26:44.149Z</time></trkpt><trkpt lat="49.3018881" lon="5.7155041"><ele>262.4</ele><time>2026-03-22T13:26:45.15Z</time></trkpt><trkpt lat="49.3018378" lon="5.7153772"><ele>263.0</ele><time>2026-03-22T13:26:46.149Z</time></trkpt><trkpt lat="49.3017828" lon="5.7152572"><ele>263.2</ele><time>2026-03-22T13:26:47.149Z</time></trkpt><trkpt lat="49.3017216" lon="5.7151336"><ele>263.4</ele><time>2026-03-22T13:26:48.149Z</time></trkpt><trkpt lat="49.3016564" lon="5.7150117"><ele>263.59999999999997</ele><time>2026-03-22T13:26:49.149Z</time></trkpt><trkpt lat="49.3015918" lon="5.7148833"><ele>263.8</ele><time>2026-03-22T13:26:50.148Z</time></trkpt><trkpt lat="49.3015235" lon="5.714755"><ele>264.0</ele><time>2026-03-22T13:26:51.149Z</time></trkpt><trkpt lat="49.3014543" lon="5.7146288"><ele>263.8</ele><time>2026-03-22T13:26:52.148Z</time></trkpt><trkpt lat="49.301384" lon="5.7145019"><ele>263.59999999999997</ele><time>2026-03-22T13:26:53.148Z</time></trkpt><trkpt lat="49.3013151" lon="5.7143669"><ele>263.4</ele><time>2026-03-22T13:26:54.15Z</time></trkpt><trkpt lat="49.3012453" lon="5.7142344"><ele>263.2</ele><time>2026-03-22T13:26:55.148Z</time></trkpt><trkpt lat="49.3011728" lon="5.7140944"><ele>263.0</ele><time>2026-03-22T13:26:56.148Z</time></trkpt><trkpt lat="49.3011015" lon="5.7139528"><ele>263.0</ele><time>2026-03-22T13:26:57.148Z</time></trkpt><trkpt lat="49.3010331" lon="5.713808"><ele>263.0</ele><time>2026-03-22T13:26:58.148Z</time></trkpt><trkpt lat="49.3009637" lon="5.7136689"><ele>263.0</ele><time>2026-03-22T13:26:59.148Z</time></trkpt><trkpt lat="49.3008933" lon="5.7135267"><ele>263.0</ele><time>2026-03-22T13:27:00.148Z</time></trkpt><trkpt lat="49.3008282" lon="5.7133822"><ele>262.8</ele><time>2026-03-22T13:27:01.148Z</time></trkpt><trkpt lat="49.3007582" lon="5.713251"><ele>262.6</ele><time>2026-03-22T13:27:02.149Z</time></trkpt><trkpt lat="49.3006904" lon="5.7131179"><ele>262.4</ele><time>2026-03-22T13:27:03.149Z</time></trkpt><trkpt lat="49.3006186" lon="5.7129903"><ele>262.2</ele><time>2026-03-22T13:27:04.148Z</time></trkpt><trkpt lat="49.3005498" lon="5.7128542"><ele>262.0</ele><time>2026-03-22T13:27:05.148Z</time></trkpt><trkpt lat="49.3004845" lon="5.7127116"><ele>263.0</ele><time>2026-03-22T13:27:06.148Z</time></trkpt><trkpt lat="49.3004216" lon="5.71257"><ele>264.0</ele><time>2026-03-22T13:27:07.149Z</time></trkpt><trkpt lat="49.3003492" lon="5.7124405"><ele>265.0</ele><time>2026-03-22T13:27:08.149Z</time></trkpt><trkpt lat="49.3002698" lon="5.712313"><ele>266.0</ele><time>2026-03-22T13:27:09.149Z</time></trkpt><trkpt lat="49.3001925" lon="5.7121811"><ele>266.0</ele><time>2026-03-22T13:27:10.149Z</time></trkpt><trkpt lat="49.3001208" lon="5.7120421"><ele>266.0</ele><time>2026-03-22T13:27:11.149Z</time></trkpt><trkpt lat="49.3000617" lon="5.711893"><ele>266.0</ele><time>2026-03-22T13:27:12.15Z</time></trkpt><trkpt lat="49.3000043" lon="5.7117366"><ele>266.0</ele><time>2026-03-22T13:27:13.149Z</time></trkpt><trkpt lat="49.2999363" lon="5.7115851"><ele>266.25</ele><time>2026-03-22T13:27:14.149Z</time></trkpt><trkpt lat="49.2998634" lon="5.7114351"><ele>266.5</ele><time>2026-03-22T13:27:15.149Z</time></trkpt><trkpt lat="49.2997937" lon="5.7112854"><ele>266.75</ele><time>2026-03-22T13:27:16.149Z</time></trkpt><trkpt lat="49.2997308" lon="5.7111259"><ele>267.0</ele><time>2026-03-22T13:27:17.149Z</time></trkpt><trkpt lat="49.2996696" lon="5.7109604"><ele>266.0</ele><time>2026-03-22T13:27:18.15Z</time></trkpt><trkpt lat="49.2996062" lon="5.7107947"><ele>265.0</ele><time>2026-03-22T13:27:19.148Z</time></trkpt><trkpt lat="49.2995347" lon="5.7106342"><ele>264.0</ele><time>2026-03-22T13:27:20.148Z</time></trkpt><trkpt lat="49.2994562" lon="5.7104787"><ele>263.0</ele><time>2026-03-22T13:27:21.149Z</time></trkpt><trkpt lat="49.2993707" lon="5.7103318"><ele>262.75</ele><time>2026-03-22T13:27:22.149Z</time></trkpt><trkpt lat="49.299281" lon="5.7101798"><ele>262.5</ele><time>2026-03-22T13:27:23.148Z</time></trkpt><trkpt lat="49.2992058" lon="5.7100232"><ele>262.25</ele><time>2026-03-22T13:27:24.149Z</time></trkpt><trkpt lat="49.2991349" lon="5.7098577"><ele>262.0</ele><time>2026-03-22T13:27:25.148Z</time></trkpt><trkpt lat="49.2990649" lon="5.7096968"><ele>262.0</ele><time>2026-03-22T13:27:26.148Z</time></trkpt><trkpt lat="49.2990063" lon="5.7095284"><ele>262.0</ele><time>2026-03-22T13:27:27.148Z</time></trkpt><trkpt lat="49.2989459" lon="5.709365"><ele>262.0</ele><time>2026-03-22T13:27:28.149Z</time></trkpt><trkpt lat="49.2988908" lon="5.7092013"><ele>262.0</ele><time>2026-03-22T13:27:29.149Z</time></trkpt><trkpt lat="49.2988426" lon="5.709031"><ele>260.75</ele><time>2026-03-22T13:27:30.149Z</time></trkpt><trkpt lat="49.2988049" lon="5.7088553"><ele>259.5</ele><time>2026-03-22T13:27:31.149Z</time></trkpt><trkpt lat="49.2987754" lon="5.7086885"><ele>258.25</ele><time>2026-03-22T13:27:32.149Z</time></trkpt><trkpt lat="49.2987451" lon="5.7085125"><ele>257.0</ele><time>2026-03-22T13:27:33.149Z</time></trkpt><trkpt lat="49.2987211" lon="5.708341"><ele>257.0</ele><time>2026-03-22T13:27:34.149Z</time></trkpt><trkpt lat="49.2986978" lon="5.7081677"><ele>257.0</ele><time>2026-03-22T13:27:35.149Z</time></trkpt><trkpt lat="49.2986731" lon="5.7080007"><ele>257.0</ele><time>2026-03-22T13:27:36.149Z</time></trkpt><trkpt lat="49.2986492" lon="5.7078343"><ele>257.0</ele><time>2026-03-22T13:27:37.149Z</time></trkpt><trkpt lat="49.2986186" lon="5.707666"><ele>257.0</ele><time>2026-03-22T13:27:38.149Z</time></trkpt><trkpt lat="49.2985808" lon="5.7074947"><ele>257.0</ele><time>2026-03-22T13:27:39.149Z</time></trkpt><trkpt lat="49.2985424" lon="5.7073244"><ele>257.0</ele><time>2026-03-22T13:27:40.148Z</time></trkpt><trkpt lat="49.2985038" lon="5.7071537"><ele>257.0</ele><time>2026-03-22T13:27:41.149Z</time></trkpt><trkpt lat="49.2984696" lon="5.7069831"><ele>256.5</ele><time>2026-03-22T13:27:42.15Z</time></trkpt><trkpt lat="49.2984276" lon="5.7068136"><ele>256.0</ele><time>2026-03-22T13:27:43.149Z</time></trkpt><trkpt lat="49.2983891" lon="5.7066403"><ele>255.5</ele><time>2026-03-22T13:27:44.149Z</time></trkpt><trkpt lat="49.2983494" lon="5.7064681"><ele>255.0</ele><time>2026-03-22T13:27:45.149Z</time></trkpt><trkpt lat="49.298311" lon="5.7062956"><ele>255.0</ele><time>2026-03-22T13:27:46.148Z</time></trkpt><trkpt lat="49.298278" lon="5.7061238"><ele>255.0</ele><time>2026-03-22T13:27:47.149Z</time></trkpt><trkpt lat="49.2982438" lon="5.7059543"><ele>255.0</ele><time>2026-03-22T13:27:48.149Z</time></trkpt><trkpt lat="49.2982096" lon="5.7057874"><ele>255.0</ele><time>2026-03-22T13:27:49.149Z</time></trkpt><trkpt lat="49.2981713" lon="5.7056252"><ele>254.8</ele><time>2026-03-22T13:27:50.15Z</time></trkpt><trkpt lat="49.2981404" lon="5.7054609"><ele>254.6</ele><time>2026-03-22T13:27:51.149Z</time></trkpt><trkpt lat="49.2981081" lon="5.7053038"><ele>254.39999999999998</ele><time>2026-03-22T13:27:52.149Z</time></trkpt><trkpt lat="49.2980765" lon="5.7051499"><ele>254.2</ele><time>2026-03-22T13:27:53.149Z</time></trkpt><trkpt lat="49.2980536" lon="5.7049966"><ele>254.0</ele><time>2026-03-22T13:27:54.149Z</time></trkpt><trkpt lat="49.2980233" lon="5.7048425"><ele>253.0</ele><time>2026-03-22T13:27:55.15Z</time></trkpt><trkpt lat="49.2979974" lon="5.7046844"><ele>251.99999999999997</ele><time>2026-03-22T13:27:56.149Z</time></trkpt><trkpt lat="49.2979676" lon="5.7045286"><ele>250.99999999999997</ele><time>2026-03-22T13:27:57.148Z</time></trkpt><trkpt lat="49.2979384" lon="5.704371"><ele>250.0</ele><time>2026-03-22T13:27:58.149Z</time></trkpt><trkpt lat="49.2979056" lon="5.7042121"><ele>249.0</ele><time>2026-03-22T13:27:59.149Z</time></trkpt><trkpt lat="49.2978722" lon="5.7040469"><ele>249.0</ele><time>2026-03-22T13:28:00.149Z</time></trkpt><trkpt lat="49.297834" lon="5.7038873"><ele>248.99999999999997</ele><time>2026-03-22T13:28:01.15Z</time></trkpt><trkpt lat="49.2977945" lon="5.7037293"><ele>248.99999999999997</ele><time>2026-03-22T13:28:02.149Z</time></trkpt><trkpt lat="49.2977538" lon="5.7035751"><ele>249.0</ele><time>2026-03-22T13:28:03.15Z</time></trkpt><trkpt lat="49.297712" lon="5.7034262"><ele>249.0</ele><time>2026-03-22T13:28:04.148Z</time></trkpt><trkpt lat="49.2976596" lon="5.7032974"><ele>249.0</ele><time>2026-03-22T13:28:05.148Z</time></trkpt><trkpt lat="49.2975998" lon="5.7031841"><ele>248.99999999999997</ele><time>2026-03-22T13:28:06.15Z</time></trkpt><trkpt lat="49.2975361" lon="5.7030685"><ele>248.99999999999997</ele><time>2026-03-22T13:28:07.149Z</time></trkpt><trkpt lat="49.2974708" lon="5.7029537"><ele>249.0</ele><time>2026-03-22T13:28:08.149Z</time></trkpt><trkpt lat="49.2974095" lon="5.7028314"><ele>249.0</ele><time>2026-03-22T13:28:09.15Z</time></trkpt><trkpt lat="49.2973552" lon="5.7026981"><ele>248.79999999999998</ele><time>2026-03-22T13:28:10.148Z</time></trkpt><trkpt lat="49.2972977" lon="5.7025631"><ele>248.59999999999997</ele><time>2026-03-22T13:28:11.148Z</time></trkpt><trkpt lat="49.2972405" lon="5.7024238"><ele>248.4</ele><time>2026-03-22T13:28:12.148Z</time></trkpt><trkpt lat="49.2971886" lon="5.7022819"><ele>248.2</ele><time>2026-03-22T13:28:13.148Z</time></trkpt><trkpt lat="49.2971394" lon="5.7021315"><ele>248.0</ele><time>2026-03-22T13:28:14.148Z</time></trkpt><trkpt lat="49.2970943" lon="5.7019824"><ele>247.0</ele><time>2026-03-22T13:28:15.148Z</time></trkpt><trkpt lat="49.2970496" lon="5.7018318"><ele>246.0</ele><time>2026-03-22T13:28:16.149Z</time></trkpt><trkpt lat="49.2970073" lon="5.7016839"><ele>245.0</ele><time>2026-03-22T13:28:17.149Z</time></trkpt><trkpt lat="49.2969721" lon="5.7015303"><ele>244.0</ele><time>2026-03-22T13:28:18.148Z</time></trkpt><trkpt lat="49.2969408" lon="5.7013752"><ele>243.0</ele><time>2026-03-22T13:28:19.149Z</time></trkpt><trkpt lat="49.2969185" lon="5.7012193"><ele>243.0</ele><time>2026-03-22T13:28:20.149Z</time></trkpt><trkpt lat="49.2969047" lon="5.7010706"><ele>243.0</ele><time>2026-03-22T13:28:21.149Z</time></trkpt><trkpt lat="49.2968952" lon="5.7009245"><ele>243.0</ele><time>2026-03-22T13:28:22.15Z</time></trkpt><trkpt lat="49.2968847" lon="5.7007831"><ele>243.0</ele><time>2026-03-22T13:28:23.149Z</time></trkpt><trkpt lat="49.2968746" lon="5.7006455"><ele>243.0</ele><time>2026-03-22T13:28:24.15Z</time></trkpt><trkpt lat="49.2968641" lon="5.700516"><ele>243.0</ele><time>2026-03-22T13:28:25.15Z</time></trkpt><trkpt lat="49.2968682" lon="5.700382"><ele>243.0</ele><time>2026-03-22T13:28:26.149Z</time></trkpt><trkpt lat="49.2968741" lon="5.7002539"><ele>243.0</ele><time>2026-03-22T13:28:27.149Z</time></trkpt><trkpt lat="49.2968781" lon="5.7001177"><ele>243.0</ele><time>2026-03-22T13:28:28.149Z</time></trkpt><trkpt lat="49.2968863" lon="5.6999791"><ele>243.0</ele><time>2026-03-22T13:28:29.149Z</time></trkpt><trkpt lat="49.2968913" lon="5.6998488"><ele>243.0</ele><time>2026-03-22T13:28:30.15Z</time></trkpt><trkpt lat="49.2969036" lon="5.6997258"><ele>243.0</ele><time>2026-03-22T13:28:31.149Z</time></trkpt><trkpt lat="49.296926" lon="5.6995939"><ele>243.0</ele><time>2026-03-22T13:28:32.148Z</time></trkpt><trkpt lat="49.2969467" lon="5.6994548"><ele>243.0</ele><time>2026-03-22T13:28:33.148Z</time></trkpt><trkpt lat="49.2969707" lon="5.6993127"><ele>243.0</ele><time>2026-03-22T13:28:34.148Z</time></trkpt><trkpt lat="49.2969946" lon="5.6991655"><ele>243.0</ele><time>2026-03-22T13:28:35.149Z</time></trkpt><trkpt lat="49.297016" lon="5.6990189"><ele>243.0</ele><time>2026-03-22T13:28:36.148Z</time></trkpt><trkpt lat="49.2970414" lon="5.6988733"><ele>243.0</ele><time>2026-03-22T13:28:37.148Z</time></trkpt><trkpt lat="49.2970651" lon="5.6987236"><ele>243.0</ele><time>2026-03-22T13:28:38.148Z</time></trkpt><trkpt lat="49.2970896" lon="5.6985731"><ele>243.0</ele><time>2026-03-22T13:28:39.148Z</time></trkpt><trkpt lat="49.2971119" lon="5.6984247"><ele>243.0</ele><time>2026-03-22T13:28:40.149Z</time></trkpt><trkpt lat="49.297141" lon="5.698282"><ele>243.0</ele><time>2026-03-22T13:28:41.148Z</time></trkpt><trkpt lat="49.2971703" lon="5.6981438"><ele>243.0</ele><time>2026-03-22T13:28:42.15Z</time></trkpt><trkpt lat="49.2971998" lon="5.6979976"><ele>243.0</ele><time>2026-03-22T13:28:43.148Z</time></trkpt><trkpt lat="49.2972226" lon="5.6978612"><ele>243.0</ele><time>2026-03-22T13:28:44.149Z</time></trkpt><trkpt lat="49.2972458" lon="5.6977165"><ele>243.0</ele><time>2026-03-22T13:28:45.149Z</time></trkpt><trkpt lat="49.2972762" lon="5.6975788"><ele>243.0</ele><time>2026-03-22T13:28:46.149Z</time></trkpt><trkpt lat="49.2973079" lon="5.6974419"><ele>243.0</ele><time>2026-03-22T13:28:47.149Z</time></trkpt><trkpt lat="49.2973339" lon="5.6972969"><ele>243.0</ele><time>2026-03-22T13:28:48.149Z</time></trkpt><trkpt lat="49.2973628" lon="5.6971477"><ele>243.0</ele><time>2026-03-22T13:28:49.149Z</time></trkpt><trkpt lat="49.2973977" lon="5.6970046"><ele>243.0</ele><time>2026-03-22T13:28:50.149Z</time></trkpt><trkpt lat="49.2974277" lon="5.6968672"><ele>242.83333333333334</ele><time>2026-03-22T13:28:51.149Z</time></trkpt><trkpt lat="49.2974533" lon="5.6967345"><ele>242.66666666666669</ele><time>2026-03-22T13:28:52.149Z</time></trkpt><trkpt lat="49.2974761" lon="5.6966114"><ele>242.5</ele><time>2026-03-22T13:28:53.148Z</time></trkpt><trkpt lat="49.2974841" lon="5.6964918"><ele>242.33333333333334</ele><time>2026-03-22T13:28:54.149Z</time></trkpt><trkpt lat="49.2974697" lon="5.6963874"><ele>242.16666666666669</ele><time>2026-03-22T13:28:55.15Z</time></trkpt><trkpt lat="49.297439" lon="5.6962879"><ele>242.0</ele><time>2026-03-22T13:28:56.148Z</time></trkpt><trkpt lat="49.2973985" lon="5.6962073"><ele>242.0</ele><time>2026-03-22T13:28:57.149Z</time></trkpt><trkpt lat="49.2973575" lon="5.6961284"><ele>241.99999999999997</ele><time>2026-03-22T13:28:58.149Z</time></trkpt><trkpt lat="49.2973164" lon="5.6960502"><ele>242.0</ele><time>2026-03-22T13:28:59.15Z</time></trkpt><trkpt lat="49.2972777" lon="5.6959658"><ele>242.0</ele><time>2026-03-22T13:29:00.149Z</time></trkpt><trkpt lat="49.2972413" lon="5.6958807"><ele>241.99999999999997</ele><time>2026-03-22T13:29:01.149Z</time></trkpt><trkpt lat="49.2972042" lon="5.6958002"><ele>242.0</ele><time>2026-03-22T13:29:02.148Z</time></trkpt><trkpt lat="49.2971723" lon="5.6957117"><ele>242.0</ele><time>2026-03-22T13:29:03.149Z</time></trkpt><trkpt lat="49.2971384" lon="5.6956262"><ele>241.0</ele><time>2026-03-22T13:29:04.148Z</time></trkpt><trkpt lat="49.2970775" lon="5.6954653"><ele>240.0</ele><time>2026-03-22T13:29:06.148Z</time></trkpt><trkpt lat="49.2970233" lon="5.695313"><ele>239.0</ele><time>2026-03-22T13:29:08.149Z</time></trkpt><trkpt lat="49.2969765" lon="5.6951632"><ele>238.0</ele><time>2026-03-22T13:29:10.148Z</time></trkpt><trkpt lat="49.2969388" lon="5.6950087"><ele>238.0</ele><time>2026-03-22T13:29:12.15Z</time></trkpt><trkpt lat="49.2969057" lon="5.6948663"><ele>238.0</ele><time>2026-03-22T13:29:14.148Z</time></trkpt><trkpt lat="49.2968796" lon="5.6947284"><ele>238.0</ele><time>2026-03-22T13:29:16.149Z</time></trkpt><trkpt lat="49.2968546" lon="5.6945943"><ele>238.0</ele><time>2026-03-22T13:29:18.149Z</time></trkpt><trkpt lat="49.2968493" lon="5.6944351"><ele>238.0</ele><time>2026-03-22T13:29:20.149Z</time></trkpt><trkpt lat="49.2968834" lon="5.6942718"><ele>238.0</ele><time>2026-03-22T13:29:22.15Z</time></trkpt><trkpt lat="49.2969589" lon="5.6941288"><ele>238.0</ele><time>2026-03-22T13:29:24.149Z</time></trkpt><trkpt lat="49.2970089" lon="5.6940649"><ele>238.0</ele><time>2026-03-22T13:29:25.149Z</time></trkpt><trkpt lat="49.297062" lon="5.6940053"><ele>238.0</ele><time>2026-03-22T13:29:26.15Z</time></trkpt><trkpt lat="49.2971682" lon="5.6939149"><ele>238.0</ele><time>2026-03-22T13:29:28.149Z</time></trkpt><trkpt lat="49.2972734" lon="5.6938364"><ele>238.0</ele><time>2026-03-22T13:29:30.15Z</time></trkpt><trkpt lat="49.2973206" lon="5.693713"><ele>238.0</ele><time>2026-03-22T13:29:32.149Z</time></trkpt><trkpt lat="49.2972738" lon="5.6935646"><ele>238.0</ele><time>2026-03-22T13:29:34.149Z</time></trkpt><trkpt lat="49.2972369" lon="5.6934777"><ele>238.0</ele><time>2026-03-22T13:29:35.148Z</time></trkpt><trkpt lat="49.2971802" lon="5.6933824"><ele>238.0</ele><time>2026-03-22T13:29:36.148Z</time></trkpt><trkpt lat="49.2971092" lon="5.6932773"><ele>236.75</ele><time>2026-03-22T13:29:37.149Z</time></trkpt><trkpt lat="49.2970331" lon="5.69317"><ele>235.5</ele><time>2026-03-22T13:29:38.15Z</time></trkpt><trkpt lat="49.2969465" lon="5.6930534"><ele>234.25</ele><time>2026-03-22T13:29:39.149Z</time></trkpt><trkpt lat="49.2968567" lon="5.6929349"><ele>233.0</ele><time>2026-03-22T13:29:40.149Z</time></trkpt><trkpt lat="49.2967638" lon="5.6928159"><ele>233.0</ele><time>2026-03-22T13:29:41.149Z</time></trkpt><trkpt lat="49.2966765" lon="5.6926993"><ele>233.0</ele><time>2026-03-22T13:29:42.149Z</time></trkpt><trkpt lat="49.2965929" lon="5.6925941"><ele>233.0</ele><time>2026-03-22T13:29:43.149Z</time></trkpt><trkpt lat="49.2965128" lon="5.6924987"><ele>233.0</ele><time>2026-03-22T13:29:44.148Z</time></trkpt><trkpt lat="49.2964397" lon="5.6924132"><ele>233.0</ele><time>2026-03-22T13:29:45.149Z</time></trkpt><trkpt lat="49.2963748" lon="5.6923567"><ele>233.00000000000003</ele><time>2026-03-22T13:29:46.149Z</time></trkpt><trkpt lat="49.2963129" lon="5.692339"><ele>233.0</ele><time>2026-03-22T13:29:47.148Z</time></trkpt><trkpt lat="49.2961946" lon="5.6924088"><ele>233.0</ele><time>2026-03-22T13:29:49.148Z</time></trkpt><trkpt lat="49.2961469" lon="5.6924766"><ele>233.0</ele><time>2026-03-22T13:29:50.15Z</time></trkpt><trkpt lat="49.2960965" lon="5.6925599"><ele>233.00000000000003</ele><time>2026-03-22T13:29:51.15Z</time></trkpt><trkpt lat="49.2960418" lon="5.6926602"><ele>233.0</ele><time>2026-03-22T13:29:52.15Z</time></trkpt><trkpt lat="49.29598" lon="5.6927715"><ele>233.0</ele><time>2026-03-22T13:29:53.149Z</time></trkpt><trkpt lat="49.2959141" lon="5.6928925"><ele>233.0</ele><time>2026-03-22T13:29:54.149Z</time></trkpt><trkpt lat="49.2958427" lon="5.6930151"><ele>233.0</ele><time>2026-03-22T13:29:55.149Z</time></trkpt><trkpt lat="49.2957688" lon="5.6931404"><ele>233.0</ele><time>2026-03-22T13:29:56.149Z</time></trkpt><trkpt lat="49.2956982" lon="5.6932704"><ele>233.0</ele><time>2026-03-22T13:29:57.149Z</time></trkpt><trkpt lat="49.2956323" lon="5.6933949"><ele>233.50000000000003</ele><time>2026-03-22T13:29:58.148Z</time></trkpt><trkpt lat="49.2955713" lon="5.6935026"><ele>234.0</ele><time>2026-03-22T13:29:59.148Z</time></trkpt><trkpt lat="49.2955053" lon="5.6935847"><ele>234.5</ele><time>2026-03-22T13:30:00.149Z</time></trkpt><trkpt lat="49.2954294" lon="5.6936164"><ele>235.0</ele><time>2026-03-22T13:30:01.148Z</time></trkpt><trkpt lat="49.2953575" lon="5.6935941"><ele>235.50000000000003</ele><time>2026-03-22T13:30:02.149Z</time></trkpt><trkpt lat="49.2952828" lon="5.6935346"><ele>236.0</ele><time>2026-03-22T13:30:03.149Z</time></trkpt><trkpt lat="49.2952052" lon="5.6934656"><ele>236.20000000000002</ele><time>2026-03-22T13:30:04.149Z</time></trkpt><trkpt lat="49.2951178" lon="5.6933877"><ele>236.40000000000003</ele><time>2026-03-22T13:30:05.149Z</time></trkpt><trkpt lat="49.2950261" lon="5.6933087"><ele>236.6</ele><time>2026-03-22T13:30:06.149Z</time></trkpt><trkpt lat="49.2949314" lon="5.6932267"><ele>236.8</ele><time>2026-03-22T13:30:07.148Z</time></trkpt><trkpt lat="49.2948191" lon="5.6931295"><ele>237.0</ele><time>2026-03-22T13:30:08.149Z</time></trkpt><trkpt lat="49.2946991" lon="5.6930235"><ele>237.2</ele><time>2026-03-22T13:30:09.149Z</time></trkpt><trkpt lat="49.2945857" lon="5.6929283"><ele>237.39999999999998</ele><time>2026-03-22T13:30:10.149Z</time></trkpt><trkpt lat="49.2944775" lon="5.6928421"><ele>237.60000000000002</ele><time>2026-03-22T13:30:11.149Z</time></trkpt><trkpt lat="49.2943903" lon="5.6927571"><ele>237.8</ele><time>2026-03-22T13:30:12.15Z</time></trkpt><trkpt lat="49.2943175" lon="5.6926676"><ele>238.0</ele><time>2026-03-22T13:30:13.149Z</time></trkpt><trkpt lat="49.2942502" lon="5.6925584"><ele>238.0</ele><time>2026-03-22T13:30:14.149Z</time></trkpt><trkpt lat="49.2941975" lon="5.6924286"><ele>238.0</ele><time>2026-03-22T13:30:15.149Z</time></trkpt><trkpt lat="49.2941425" lon="5.6922831"><ele>238.0</ele><time>2026-03-22T13:30:16.15Z</time></trkpt><trkpt lat="49.2940848" lon="5.6921327"><ele>238.0</ele><time>2026-03-22T13:30:17.149Z</time></trkpt><trkpt lat="49.2940227" lon="5.6919766"><ele>238.0</ele><time>2026-03-22T13:30:18.148Z</time></trkpt><trkpt lat="49.29396" lon="5.6918283"><ele>239.0</ele><time>2026-03-22T13:30:19.148Z</time></trkpt><trkpt lat="49.293878" lon="5.6916855"><ele>240.0</ele><time>2026-03-22T13:30:20.149Z</time></trkpt><trkpt lat="49.2937844" lon="5.6915487"><ele>241.0</ele><time>2026-03-22T13:30:21.149Z</time></trkpt><trkpt lat="49.2936862" lon="5.6914262"><ele>242.0</ele><time>2026-03-22T13:30:22.148Z</time></trkpt><trkpt lat="49.2935867" lon="5.6913071"><ele>242.0</ele><time>2026-03-22T13:30:23.149Z</time></trkpt><trkpt lat="49.293484" lon="5.6911968"><ele>242.0</ele><time>2026-03-22T13:30:24.149Z</time></trkpt><trkpt lat="49.2933776" lon="5.691093"><ele>242.0</ele><time>2026-03-22T13:30:25.148Z</time></trkpt><trkpt lat="49.293269" lon="5.6909996"><ele>242.0</ele><time>2026-03-22T13:30:26.149Z</time></trkpt><trkpt lat="49.2931568" lon="5.6909301"><ele>242.75</ele><time>2026-03-22T13:30:27.149Z</time></trkpt><trkpt lat="49.29304" lon="5.6908759"><ele>243.5</ele><time>2026-03-22T13:30:28.15Z</time></trkpt><trkpt lat="49.2929184" lon="5.6908346"><ele>244.25</ele><time>2026-03-22T13:30:29.149Z</time></trkpt><trkpt lat="49.2927946" lon="5.6908076"><ele>245.0</ele><time>2026-03-22T13:30:30.148Z</time></trkpt><trkpt lat="49.2926692" lon="5.69078"><ele>245.0</ele><time>2026-03-22T13:30:31.149Z</time></trkpt><trkpt lat="49.2925481" lon="5.6907533"><ele>245.0</ele><time>2026-03-22T13:30:32.149Z</time></trkpt><trkpt lat="49.2924317" lon="5.6907033"><ele>245.0</ele><time>2026-03-22T13:30:33.148Z</time></trkpt><trkpt lat="49.2923132" lon="5.6906441"><ele>245.0</ele><time>2026-03-22T13:30:34.148Z</time></trkpt><trkpt lat="49.2921982" lon="5.6905818"><ele>245.5</ele><time>2026-03-22T13:30:35.149Z</time></trkpt><trkpt lat="49.2920801" lon="5.6905252"><ele>246.0</ele><time>2026-03-22T13:30:36.149Z</time></trkpt><trkpt lat="49.2919659" lon="5.6904644"><ele>246.5</ele><time>2026-03-22T13:30:37.149Z</time></trkpt><trkpt lat="49.2918521" lon="5.6903999"><ele>247.0</ele><time>2026-03-22T13:30:38.148Z</time></trkpt><trkpt lat="49.2917379" lon="5.6903328"><ele>247.0</ele><time>2026-03-22T13:30:39.148Z</time></trkpt><trkpt lat="49.2916219" lon="5.6902683"><ele>247.0</ele><time>2026-03-22T13:30:40.148Z</time></trkpt><trkpt lat="49.2915041" lon="5.6902009"><ele>247.0</ele><time>2026-03-22T13:30:41.148Z</time></trkpt><trkpt lat="49.2913855" lon="5.6901301"><ele>247.0</ele><time>2026-03-22T13:30:42.149Z</time></trkpt><trkpt lat="49.2912678" lon="5.6900597"><ele>247.5</ele><time>2026-03-22T13:30:43.149Z</time></trkpt><trkpt lat="49.2911531" lon="5.6899808"><ele>248.0</ele><time>2026-03-22T13:30:44.149Z</time></trkpt><trkpt lat="49.2910323" lon="5.6899027"><ele>248.5</ele><time>2026-03-22T13:30:45.148Z</time></trkpt><trkpt lat="49.2909189" lon="5.6898248"><ele>249.0</ele><time>2026-03-22T13:30:46.149Z</time></trkpt><trkpt lat="49.2908102" lon="5.6897539"><ele>249.0</ele><time>2026-03-22T13:30:47.149Z</time></trkpt><trkpt lat="49.2907034" lon="5.6896812"><ele>248.99999999999997</ele><time>2026-03-22T13:30:48.148Z</time></trkpt><trkpt lat="49.2906007" lon="5.689613"><ele>248.99999999999997</ele><time>2026-03-22T13:30:49.149Z</time></trkpt><trkpt lat="49.2905031" lon="5.6895413"><ele>249.0</ele><time>2026-03-22T13:30:50.148Z</time></trkpt><trkpt lat="49.2904044" lon="5.6894664"><ele>249.0</ele><time>2026-03-22T13:30:51.148Z</time></trkpt><trkpt lat="49.2903071" lon="5.689396"><ele>248.79999999999998</ele><time>2026-03-22T13:30:52.15Z</time></trkpt><trkpt lat="49.2902107" lon="5.689333"><ele>248.59999999999997</ele><time>2026-03-22T13:30:53.149Z</time></trkpt><trkpt lat="49.2901115" lon="5.6892628"><ele>248.4</ele><time>2026-03-22T13:30:54.148Z</time></trkpt><trkpt lat="49.2900137" lon="5.6891986"><ele>248.2</ele><time>2026-03-22T13:30:55.149Z</time></trkpt><trkpt lat="49.2899119" lon="5.6891452"><ele>248.0</ele><time>2026-03-22T13:30:56.149Z</time></trkpt><trkpt lat="49.2898079" lon="5.6890946"><ele>248.2</ele><time>2026-03-22T13:30:57.149Z</time></trkpt><trkpt lat="49.2897043" lon="5.6890531"><ele>248.4</ele><time>2026-03-22T13:30:58.149Z</time></trkpt><trkpt lat="49.2895992" lon="5.6890113"><ele>248.59999999999997</ele><time>2026-03-22T13:30:59.149Z</time></trkpt><trkpt lat="49.2894909" lon="5.6889751"><ele>248.79999999999998</ele><time>2026-03-22T13:31:00.148Z</time></trkpt><trkpt lat="49.2893852" lon="5.6889449"><ele>249.0</ele><time>2026-03-22T13:31:01.149Z</time></trkpt><trkpt lat="49.2892807" lon="5.6889195"><ele>249.0</ele><time>2026-03-22T13:31:02.148Z</time></trkpt><trkpt lat="49.2891745" lon="5.688905"><ele>248.99999999999997</ele><time>2026-03-22T13:31:03.149Z</time></trkpt><trkpt lat="49.2890667" lon="5.6888832"><ele>248.99999999999997</ele><time>2026-03-22T13:31:04.149Z</time></trkpt><trkpt lat="49.2889578" lon="5.6888569"><ele>249.0</ele><time>2026-03-22T13:31:05.149Z</time></trkpt><trkpt lat="49.2888505" lon="5.6888281"><ele>249.0</ele><time>2026-03-22T13:31:06.149Z</time></trkpt><trkpt lat="49.2887503" lon="5.6887945"><ele>249.0</ele><time>2026-03-22T13:31:07.149Z</time></trkpt><trkpt lat="49.2886543" lon="5.6887672"><ele>248.99999999999997</ele><time>2026-03-22T13:31:08.15Z</time></trkpt><trkpt lat="49.2885592" lon="5.6887417"><ele>248.99999999999997</ele><time>2026-03-22T13:31:09.149Z</time></trkpt><trkpt lat="49.2884648" lon="5.6887045"><ele>249.0</ele><time>2026-03-22T13:31:10.148Z</time></trkpt><trkpt lat="49.2883699" lon="5.6886689"><ele>249.0</ele><time>2026-03-22T13:31:11.148Z</time></trkpt><trkpt lat="49.2882739" lon="5.6886346"><ele>249.0</ele><time>2026-03-22T13:31:12.149Z</time></trkpt><trkpt lat="49.2881809" lon="5.6886003"><ele>248.99999999999997</ele><time>2026-03-22T13:31:13.149Z</time></trkpt><trkpt lat="49.2880875" lon="5.6885664"><ele>248.99999999999997</ele><time>2026-03-22T13:31:14.148Z</time></trkpt><trkpt lat="49.2879978" lon="5.6885316"><ele>249.0</ele><time>2026-03-22T13:31:15.148Z</time></trkpt><trkpt lat="49.287906" lon="5.6884957"><ele>249.0</ele><time>2026-03-22T13:31:16.148Z</time></trkpt><trkpt lat="49.2878148" lon="5.6884643"><ele>249.2</ele><time>2026-03-22T13:31:17.149Z</time></trkpt><trkpt lat="49.2877244" lon="5.688424"><ele>249.39999999999998</ele><time>2026-03-22T13:31:18.149Z</time></trkpt><trkpt lat="49.2876313" lon="5.688391"><ele>249.6</ele><time>2026-03-22T13:31:19.149Z</time></trkpt><trkpt lat="49.2875366" lon="5.6883564"><ele>249.8</ele><time>2026-03-22T13:31:20.149Z</time></trkpt><trkpt lat="49.2874412" lon="5.6883258"><ele>250.0</ele><time>2026-03-22T13:31:21.149Z</time></trkpt><trkpt lat="49.2873445" lon="5.6882942"><ele>250.2</ele><time>2026-03-22T13:31:22.149Z</time></trkpt><trkpt lat="49.2872469" lon="5.6882616"><ele>250.4</ele><time>2026-03-22T13:31:23.148Z</time></trkpt><trkpt lat="49.2871459" lon="5.6882273"><ele>250.60000000000002</ele><time>2026-03-22T13:31:24.148Z</time></trkpt><trkpt lat="49.2870458" lon="5.6881876"><ele>250.8</ele><time>2026-03-22T13:31:25.149Z</time></trkpt><trkpt lat="49.2869449" lon="5.688138"><ele>251.0</ele><time>2026-03-22T13:31:26.149Z</time></trkpt><trkpt lat="49.2868429" lon="5.6880782"><ele>251.0</ele><time>2026-03-22T13:31:27.148Z</time></trkpt><trkpt lat="49.2867471" lon="5.6880116"><ele>251.00000000000003</ele><time>2026-03-22T13:31:28.148Z</time></trkpt><trkpt lat="49.28665" lon="5.6879505"><ele>251.00000000000003</ele><time>2026-03-22T13:31:29.149Z</time></trkpt><trkpt lat="49.2865552" lon="5.6878817"><ele>251.0</ele><time>2026-03-22T13:31:30.149Z</time></trkpt><trkpt lat="49.286467" lon="5.6878132"><ele>251.0</ele><time>2026-03-22T13:31:31.148Z</time></trkpt><trkpt lat="49.2863783" lon="5.6877457"><ele>250.60000000000002</ele><time>2026-03-22T13:31:32.15Z</time></trkpt><trkpt lat="49.2862901" lon="5.6876765"><ele>250.20000000000002</ele><time>2026-03-22T13:31:33.149Z</time></trkpt><trkpt lat="49.286202" lon="5.6876119"><ele>249.79999999999998</ele><time>2026-03-22T13:31:34.149Z</time></trkpt><trkpt lat="49.286117" lon="5.687545"><ele>249.39999999999998</ele><time>2026-03-22T13:31:35.149Z</time></trkpt><trkpt lat="49.2860315" lon="5.6874754"><ele>249.0</ele><time>2026-03-22T13:31:36.148Z</time></trkpt><trkpt lat="49.2859418" lon="5.6874069"><ele>249.0</ele><time>2026-03-22T13:31:37.15Z</time></trkpt><trkpt lat="49.2858574" lon="5.6873365"><ele>248.99999999999997</ele><time>2026-03-22T13:31:38.15Z</time></trkpt><trkpt lat="49.2857699" lon="5.6872695"><ele>248.99999999999997</ele><time>2026-03-22T13:31:39.149Z</time></trkpt><trkpt lat="49.2856806" lon="5.687202"><ele>249.0</ele><time>2026-03-22T13:31:40.149Z</time></trkpt><trkpt lat="49.2855955" lon="5.6871318"><ele>249.0</ele><time>2026-03-22T13:31:41.15Z</time></trkpt><trkpt lat="49.2855086" lon="5.6870652"><ele>249.0</ele><time>2026-03-22T13:31:42.149Z</time></trkpt><trkpt lat="49.2854203" lon="5.6869998"><ele>248.99999999999997</ele><time>2026-03-22T13:31:43.149Z</time></trkpt><trkpt lat="49.285332" lon="5.6869358"><ele>248.99999999999997</ele><time>2026-03-22T13:31:44.149Z</time></trkpt><trkpt lat="49.2852471" lon="5.686869"><ele>249.0</ele><time>2026-03-22T13:31:45.149Z</time></trkpt><trkpt lat="49.285165" lon="5.6868034"><ele>249.0</ele><time>2026-03-22T13:31:46.148Z</time></trkpt><trkpt lat="49.2850774" lon="5.6867365"><ele>249.0</ele><time>2026-03-22T13:31:47.148Z</time></trkpt><trkpt lat="49.2849917" lon="5.6866707"><ele>248.99999999999997</ele><time>2026-03-22T13:31:48.148Z</time></trkpt><trkpt lat="49.2849031" lon="5.6866017"><ele>248.99999999999997</ele><time>2026-03-22T13:31:49.148Z</time></trkpt><trkpt lat="49.2848118" lon="5.6865315"><ele>249.0</ele><time>2026-03-22T13:31:50.148Z</time></trkpt><trkpt lat="49.2847189" lon="5.6864601"><ele>249.0</ele><time>2026-03-22T13:31:51.149Z</time></trkpt><trkpt lat="49.284623" lon="5.6863833"><ele>248.6</ele><time>2026-03-22T13:31:52.148Z</time></trkpt><trkpt lat="49.2845239" lon="5.686307"><ele>248.2</ele><time>2026-03-22T13:31:53.149Z</time></trkpt><trkpt lat="49.2844259" lon="5.6862235"><ele>247.79999999999998</ele><time>2026-03-22T13:31:54.149Z</time></trkpt><trkpt lat="49.2843259" lon="5.6861406"><ele>247.39999999999998</ele><time>2026-03-22T13:31:55.149Z</time></trkpt><trkpt lat="49.2842279" lon="5.6860599"><ele>247.0</ele><time>2026-03-22T13:31:56.149Z</time></trkpt><trkpt lat="49.2841275" lon="5.6859816"><ele>247.0</ele><time>2026-03-22T13:31:57.148Z</time></trkpt><trkpt lat="49.2840278" lon="5.6859041"><ele>247.0</ele><time>2026-03-22T13:31:58.149Z</time></trkpt><trkpt lat="49.2839279" lon="5.6858223"><ele>247.0</ele><time>2026-03-22T13:31:59.149Z</time></trkpt><trkpt lat="49.2838249" lon="5.6857388"><ele>247.0</ele><time>2026-03-22T13:32:00.149Z</time></trkpt><trkpt lat="49.2837197" lon="5.6856541"><ele>246.5</ele><time>2026-03-22T13:32:01.149Z</time></trkpt><trkpt lat="49.2836147" lon="5.6855744"><ele>246.0</ele><time>2026-03-22T13:32:02.148Z</time></trkpt><trkpt lat="49.283508" lon="5.6854959"><ele>245.5</ele><time>2026-03-22T13:32:03.148Z</time></trkpt><trkpt lat="49.283404" lon="5.6854168"><ele>245.0</ele><time>2026-03-22T13:32:04.149Z</time></trkpt><trkpt lat="49.2833014" lon="5.6853384"><ele>245.0</ele><time>2026-03-22T13:32:05.148Z</time></trkpt><trkpt lat="49.2832023" lon="5.68526"><ele>245.0</ele><time>2026-03-22T13:32:06.15Z</time></trkpt><trkpt lat="49.2831" lon="5.6851878"><ele>245.0</ele><time>2026-03-22T13:32:07.149Z</time></trkpt><trkpt lat="49.282996" lon="5.685129"><ele>245.0</ele><time>2026-03-22T13:32:08.15Z</time></trkpt><trkpt lat="49.2828923" lon="5.6850771"><ele>245.0</ele><time>2026-03-22T13:32:09.148Z</time></trkpt><trkpt lat="49.2827877" lon="5.6850238"><ele>244.8</ele><time>2026-03-22T13:32:10.149Z</time></trkpt><trkpt lat="49.2826832" lon="5.6849682"><ele>244.6</ele><time>2026-03-22T13:32:11.149Z</time></trkpt><trkpt lat="49.2825776" lon="5.6849195"><ele>244.39999999999998</ele><time>2026-03-22T13:32:12.149Z</time></trkpt><trkpt lat="49.2824743" lon="5.6848718"><ele>244.2</ele><time>2026-03-22T13:32:13.148Z</time></trkpt><trkpt lat="49.2823762" lon="5.6848206"><ele>244.0</ele><time>2026-03-22T13:32:14.149Z</time></trkpt><trkpt lat="49.2822739" lon="5.6847683"><ele>244.2</ele><time>2026-03-22T13:32:15.149Z</time></trkpt><trkpt lat="49.282174" lon="5.6847231"><ele>244.39999999999998</ele><time>2026-03-22T13:32:16.149Z</time></trkpt><trkpt lat="49.282076" lon="5.6846796"><ele>244.6</ele><time>2026-03-22T13:32:17.149Z</time></trkpt><trkpt lat="49.2819811" lon="5.6846362"><ele>244.8</ele><time>2026-03-22T13:32:18.149Z</time></trkpt><trkpt lat="49.2818936" lon="5.6845921"><ele>245.0</ele><time>2026-03-22T13:32:19.148Z</time></trkpt><trkpt lat="49.2818156" lon="5.6845547"><ele>245.00000000000003</ele><time>2026-03-22T13:32:20.15Z</time></trkpt><trkpt lat="49.2817491" lon="5.6845048"><ele>245.0</ele><time>2026-03-22T13:32:21.149Z</time></trkpt><trkpt lat="49.2817112" lon="5.6844205"><ele>245.0</ele><time>2026-03-22T13:32:22.149Z</time></trkpt><trkpt lat="49.2816901" lon="5.6843082"><ele>245.0</ele><time>2026-03-22T13:32:23.15Z</time></trkpt><trkpt lat="49.2816672" lon="5.6841714"><ele>245.00000000000003</ele><time>2026-03-22T13:32:24.149Z</time></trkpt><trkpt lat="49.2816388" lon="5.6840304"><ele>245.0</ele><time>2026-03-22T13:32:25.149Z</time></trkpt><trkpt lat="49.2816038" lon="5.6838867"><ele>245.0</ele><time>2026-03-22T13:32:26.149Z</time></trkpt><trkpt lat="49.2815655" lon="5.6837422"><ele>245.0</ele><time>2026-03-22T13:32:27.149Z</time></trkpt><trkpt lat="49.2815263" lon="5.683595"><ele>245.0</ele><time>2026-03-22T13:32:28.148Z</time></trkpt><trkpt lat="49.2814885" lon="5.6834456"><ele>245.0</ele><time>2026-03-22T13:32:29.148Z</time></trkpt><trkpt lat="49.2814528" lon="5.6833021"><ele>245.0</ele><time>2026-03-22T13:32:30.149Z</time></trkpt><trkpt lat="49.2814169" lon="5.6831559"><ele>244.6</ele><time>2026-03-22T13:32:31.148Z</time></trkpt><trkpt lat="49.2813783" lon="5.6830075"><ele>244.2</ele><time>2026-03-22T13:32:32.149Z</time></trkpt><trkpt lat="49.2813407" lon="5.6828591"><ele>243.8</ele><time>2026-03-22T13:32:33.148Z</time></trkpt><trkpt lat="49.2813073" lon="5.6827163"><ele>243.4</ele><time>2026-03-22T13:32:34.148Z</time></trkpt><trkpt lat="49.2812724" lon="5.6825686"><ele>243.0</ele><time>2026-03-22T13:32:35.148Z</time></trkpt><trkpt lat="49.2812365" lon="5.6824189"><ele>243.0</ele><time>2026-03-22T13:32:36.149Z</time></trkpt><trkpt lat="49.2811998" lon="5.6822633"><ele>243.0</ele><time>2026-03-22T13:32:37.149Z</time></trkpt><trkpt lat="49.2811624" lon="5.6821042"><ele>243.0</ele><time>2026-03-22T13:32:38.148Z</time></trkpt><trkpt lat="49.281119" lon="5.6819465"><ele>243.0</ele><time>2026-03-22T13:32:39.149Z</time></trkpt><trkpt lat="49.2810794" lon="5.6817886"><ele>243.0</ele><time>2026-03-22T13:32:40.149Z</time></trkpt><trkpt lat="49.2810393" lon="5.6816281"><ele>243.0</ele><time>2026-03-22T13:32:41.149Z</time></trkpt><trkpt lat="49.2809965" lon="5.681463"><ele>243.0</ele><time>2026-03-22T13:32:42.149Z</time></trkpt><trkpt lat="49.2809548" lon="5.6812973"><ele>243.0</ele><time>2026-03-22T13:32:43.149Z</time></trkpt><trkpt lat="49.28091" lon="5.6811326"><ele>243.0</ele><time>2026-03-22T13:32:44.149Z</time></trkpt><trkpt lat="49.2808647" lon="5.6809632"><ele>243.25</ele><time>2026-03-22T13:32:45.149Z</time></trkpt><trkpt lat="49.2808204" lon="5.6807923"><ele>243.5</ele><time>2026-03-22T13:32:46.148Z</time></trkpt><trkpt lat="49.2807682" lon="5.6806327"><ele>243.75</ele><time>2026-03-22T13:32:47.149Z</time></trkpt><trkpt lat="49.2807081" lon="5.6804816"><ele>244.0</ele><time>2026-03-22T13:32:48.15Z</time></trkpt><trkpt lat="49.2806364" lon="5.6803374"><ele>243.79999999999998</ele><time>2026-03-22T13:32:49.15Z</time></trkpt><trkpt lat="49.2805557" lon="5.6802141"><ele>243.59999999999997</ele><time>2026-03-22T13:32:50.149Z</time></trkpt><trkpt lat="49.2804734" lon="5.6801057"><ele>243.4</ele><time>2026-03-22T13:32:51.149Z</time></trkpt><trkpt lat="49.2803897" lon="5.6800017"><ele>243.2</ele><time>2026-03-22T13:32:52.149Z</time></trkpt><trkpt lat="49.2803033" lon="5.6799103"><ele>243.0</ele><time>2026-03-22T13:32:53.148Z</time></trkpt><trkpt lat="49.2802175" lon="5.679814"><ele>243.0</ele><time>2026-03-22T13:32:54.149Z</time></trkpt><trkpt lat="49.2801315" lon="5.6797121"><ele>243.0</ele><time>2026-03-22T13:32:55.149Z</time></trkpt><trkpt lat="49.2800437" lon="5.6796144"><ele>243.0</ele><time>2026-03-22T13:32:56.148Z</time></trkpt><trkpt lat="49.2799627" lon="5.679519"><ele>243.0</ele><time>2026-03-22T13:32:57.148Z</time></trkpt><trkpt lat="49.2798842" lon="5.6794336"><ele>243.0</ele><time>2026-03-22T13:32:58.148Z</time></trkpt><trkpt lat="49.2798077" lon="5.6793556"><ele>243.0</ele><time>2026-03-22T13:32:59.149Z</time></trkpt><trkpt lat="49.2797413" lon="5.6792858"><ele>243.0</ele><time>2026-03-22T13:33:00.149Z</time></trkpt><trkpt lat="49.2796895" lon="5.6792009"><ele>243.0</ele><time>2026-03-22T13:33:01.149Z</time></trkpt><trkpt lat="49.2796273" lon="5.6791201"><ele>243.0</ele><time>2026-03-22T13:33:02.15Z</time></trkpt><trkpt lat="49.2795551" lon="5.679036"><ele>243.0</ele><time>2026-03-22T13:33:03.149Z</time></trkpt><trkpt lat="49.2794843" lon="5.6789398"><ele>243.0</ele><time>2026-03-22T13:33:04.149Z</time></trkpt><trkpt lat="49.2794149" lon="5.6788374"><ele>243.0</ele><time>2026-03-22T13:33:05.149Z</time></trkpt><trkpt lat="49.2793488" lon="5.6787253"><ele>243.0</ele><time>2026-03-22T13:33:06.149Z</time></trkpt><trkpt lat="49.2792861" lon="5.6786052"><ele>243.0</ele><time>2026-03-22T13:33:07.149Z</time></trkpt><trkpt lat="49.2792264" lon="5.6784936"><ele>243.0</ele><time>2026-03-22T13:33:08.15Z</time></trkpt><trkpt lat="49.2791656" lon="5.6783794"><ele>243.0</ele><time>2026-03-22T13:33:09.149Z</time></trkpt><trkpt lat="49.2791043" lon="5.6782698"><ele>242.8</ele><time>2026-03-22T13:33:10.149Z</time></trkpt><trkpt lat="49.2790475" lon="5.6781506"><ele>242.60000000000002</ele><time>2026-03-22T13:33:11.149Z</time></trkpt><trkpt lat="49.2789939" lon="5.6780359"><ele>242.39999999999998</ele><time>2026-03-22T13:33:12.148Z</time></trkpt><trkpt lat="49.2789434" lon="5.6779189"><ele>242.2</ele><time>2026-03-22T13:33:13.149Z</time></trkpt><trkpt lat="49.2788956" lon="5.6777918"><ele>242.0</ele><time>2026-03-22T13:33:14.149Z</time></trkpt><trkpt lat="49.278859" lon="5.6776606"><ele>243.2</ele><time>2026-03-22T13:33:15.148Z</time></trkpt><trkpt lat="49.2788277" lon="5.6775278"><ele>244.39999999999998</ele><time>2026-03-22T13:33:16.148Z</time></trkpt><trkpt lat="49.2788022" lon="5.6773908"><ele>245.60000000000002</ele><time>2026-03-22T13:33:17.148Z</time></trkpt><trkpt lat="49.2787845" lon="5.6772584"><ele>246.8</ele><time>2026-03-22T13:33:18.148Z</time></trkpt><trkpt lat="49.278769" lon="5.6771234"><ele>248.0</ele><time>2026-03-22T13:33:19.149Z</time></trkpt><trkpt lat="49.27875" lon="5.676992"><ele>248.66666666666669</ele><time>2026-03-22T13:33:20.148Z</time></trkpt><trkpt lat="49.2787308" lon="5.676861"><ele>249.33333333333334</ele><time>2026-03-22T13:33:21.148Z</time></trkpt><trkpt lat="49.2787144" lon="5.6767317"><ele>250.0</ele><time>2026-03-22T13:33:22.149Z</time></trkpt><trkpt lat="49.2787036" lon="5.6765984"><ele>250.66666666666669</ele><time>2026-03-22T13:33:23.149Z</time></trkpt><trkpt lat="49.2786886" lon="5.6764608"><ele>251.33333333333334</ele><time>2026-03-22T13:33:24.149Z</time></trkpt><trkpt lat="49.2786797" lon="5.6763252"><ele>252.0</ele><time>2026-03-22T13:33:25.15Z</time></trkpt><trkpt lat="49.2786765" lon="5.6761885"><ele>252.33333333333334</ele><time>2026-03-22T13:33:26.149Z</time></trkpt><trkpt lat="49.2786643" lon="5.6760496"><ele>252.66666666666669</ele><time>2026-03-22T13:33:27.148Z</time></trkpt><trkpt lat="49.278644" lon="5.6759147"><ele>253.0</ele><time>2026-03-22T13:33:28.15Z</time></trkpt><trkpt lat="49.2786214" lon="5.6757845"><ele>253.33333333333334</ele><time>2026-03-22T13:33:29.149Z</time></trkpt><trkpt lat="49.2786017" lon="5.6756575"><ele>253.66666666666669</ele><time>2026-03-22T13:33:30.149Z</time></trkpt><trkpt lat="49.2785873" lon="5.675541"><ele>254.0</ele><time>2026-03-22T13:33:31.149Z</time></trkpt><trkpt lat="49.2785696" lon="5.6754283"><ele>254.00000000000003</ele><time>2026-03-22T13:33:32.149Z</time></trkpt><trkpt lat="49.2785554" lon="5.6753133"><ele>254.0</ele><time>2026-03-22T13:33:33.148Z</time></trkpt><trkpt lat="49.2785518" lon="5.6751947"><ele>254.0</ele><time>2026-03-22T13:33:34.149Z</time></trkpt><trkpt lat="49.2785599" lon="5.6750644"><ele>254.0</ele><time>2026-03-22T13:33:35.15Z</time></trkpt><trkpt lat="49.2785659" lon="5.6749343"><ele>254.00000000000003</ele><time>2026-03-22T13:33:36.148Z</time></trkpt><trkpt lat="49.2785706" lon="5.6748065"><ele>254.0</ele><time>2026-03-22T13:33:37.149Z</time></trkpt><trkpt lat="49.278574" lon="5.674671"><ele>254.2</ele><time>2026-03-22T13:33:38.148Z</time></trkpt><trkpt lat="49.2785703" lon="5.6745391"><ele>254.39999999999998</ele><time>2026-03-22T13:33:39.149Z</time></trkpt><trkpt lat="49.2785604" lon="5.6744063"><ele>254.6</ele><time>2026-03-22T13:33:40.149Z</time></trkpt><trkpt lat="49.2785443" lon="5.6742703"><ele>254.8</ele><time>2026-03-22T13:33:41.149Z</time></trkpt><trkpt lat="49.2785203" lon="5.6741332"><ele>255.0</ele><time>2026-03-22T13:33:42.15Z</time></trkpt><trkpt lat="49.2784906" lon="5.6739956"><ele>255.2</ele><time>2026-03-22T13:33:43.149Z</time></trkpt><trkpt lat="49.2784551" lon="5.6738639"><ele>255.4</ele><time>2026-03-22T13:33:44.149Z</time></trkpt><trkpt lat="49.2784166" lon="5.6737332"><ele>255.60000000000002</ele><time>2026-03-22T13:33:45.148Z</time></trkpt><trkpt lat="49.278387" lon="5.6735966"><ele>255.8</ele><time>2026-03-22T13:33:46.148Z</time></trkpt><trkpt lat="49.2783603" lon="5.6734645"><ele>256.0</ele><time>2026-03-22T13:33:47.148Z</time></trkpt><trkpt lat="49.2783313" lon="5.6733278"><ele>256.0</ele><time>2026-03-22T13:33:48.148Z</time></trkpt><trkpt lat="49.2782992" lon="5.6731889"><ele>256.0</ele><time>2026-03-22T13:33:49.15Z</time></trkpt><trkpt lat="49.2782648" lon="5.6730486"><ele>256.0</ele><time>2026-03-22T13:33:50.15Z</time></trkpt><trkpt lat="49.278233" lon="5.6729054"><ele>256.0</ele><time>2026-03-22T13:33:51.149Z</time></trkpt><trkpt lat="49.2782013" lon="5.6727597"><ele>256.0</ele><time>2026-03-22T13:33:52.149Z</time></trkpt><trkpt lat="49.2781678" lon="5.6726127"><ele>256.0</ele><time>2026-03-22T13:33:53.149Z</time></trkpt><trkpt lat="49.2781308" lon="5.6724693"><ele>256.0</ele><time>2026-03-22T13:33:54.149Z</time></trkpt><trkpt lat="49.2780957" lon="5.672322"><ele>256.0</ele><time>2026-03-22T13:33:55.149Z</time></trkpt><trkpt lat="49.2780638" lon="5.6721767"><ele>256.0</ele><time>2026-03-22T13:33:56.149Z</time></trkpt><trkpt lat="49.2780312" lon="5.6720375"><ele>256.0</ele><time>2026-03-22T13:33:57.148Z</time></trkpt><trkpt lat="49.2779969" lon="5.6719013"><ele>255.8</ele><time>2026-03-22T13:33:58.148Z</time></trkpt><trkpt lat="49.2779654" lon="5.6717642"><ele>255.60000000000002</ele><time>2026-03-22T13:33:59.15Z</time></trkpt><trkpt lat="49.2779326" lon="5.6716307"><ele>255.4</ele><time>2026-03-22T13:34:00.148Z</time></trkpt><trkpt lat="49.2778981" lon="5.6715008"><ele>255.2</ele><time>2026-03-22T13:34:01.149Z</time></trkpt><trkpt lat="49.2778656" lon="5.6713752"><ele>255.0</ele><time>2026-03-22T13:34:02.149Z</time></trkpt><trkpt lat="49.2778375" lon="5.671247"><ele>255.0</ele><time>2026-03-22T13:34:03.149Z</time></trkpt><trkpt lat="49.2778081" lon="5.6711162"><ele>255.0</ele><time>2026-03-22T13:34:04.148Z</time></trkpt><trkpt lat="49.2777779" lon="5.6709839"><ele>255.0</ele><time>2026-03-22T13:34:05.148Z</time></trkpt><trkpt lat="49.2777481" lon="5.670848"><ele>255.0</ele><time>2026-03-22T13:34:06.148Z</time></trkpt><trkpt lat="49.2777158" lon="5.6707156"><ele>255.0</ele><time>2026-03-22T13:34:07.148Z</time></trkpt><trkpt lat="49.2776831" lon="5.670579"><ele>254.8</ele><time>2026-03-22T13:34:08.149Z</time></trkpt><trkpt lat="49.2776526" lon="5.6704457"><ele>254.6</ele><time>2026-03-22T13:34:09.148Z</time></trkpt><trkpt lat="49.2776195" lon="5.6703127"><ele>254.39999999999998</ele><time>2026-03-22T13:34:10.149Z</time></trkpt><trkpt lat="49.2775878" lon="5.6701765"><ele>254.2</ele><time>2026-03-22T13:34:11.15Z</time></trkpt><trkpt lat="49.2775544" lon="5.6700445"><ele>254.0</ele><time>2026-03-22T13:34:12.149Z</time></trkpt><trkpt lat="49.2775241" lon="5.6699147"><ele>254.0</ele><time>2026-03-22T13:34:13.148Z</time></trkpt><trkpt lat="49.277491" lon="5.6697797"><ele>253.99999999999997</ele><time>2026-03-22T13:34:14.15Z</time></trkpt><trkpt lat="49.2774609" lon="5.6696441"><ele>253.99999999999997</ele><time>2026-03-22T13:34:15.148Z</time></trkpt><trkpt lat="49.2774343" lon="5.6695078"><ele>254.0</ele><time>2026-03-22T13:34:16.149Z</time></trkpt><trkpt lat="49.2774044" lon="5.6693738"><ele>254.0</ele><time>2026-03-22T13:34:17.149Z</time></trkpt><trkpt lat="49.2773748" lon="5.6692431"><ele>254.0</ele><time>2026-03-22T13:34:18.149Z</time></trkpt><trkpt lat="49.2773477" lon="5.6691177"><ele>253.99999999999997</ele><time>2026-03-22T13:34:19.149Z</time></trkpt><trkpt lat="49.2773242" lon="5.6689822"><ele>253.99999999999997</ele><time>2026-03-22T13:34:20.149Z</time></trkpt><trkpt lat="49.2772992" lon="5.66884"><ele>254.0</ele><time>2026-03-22T13:34:21.15Z</time></trkpt><trkpt lat="49.2772675" lon="5.6687008"><ele>254.0</ele><time>2026-03-22T13:34:22.149Z</time></trkpt><trkpt lat="49.2772381" lon="5.6685554"><ele>253.6</ele><time>2026-03-22T13:34:23.148Z</time></trkpt><trkpt lat="49.2772091" lon="5.6684105"><ele>253.2</ele><time>2026-03-22T13:34:24.149Z</time></trkpt><trkpt lat="49.2771836" lon="5.6682604"><ele>252.79999999999998</ele><time>2026-03-22T13:34:25.149Z</time></trkpt><trkpt lat="49.2771535" lon="5.6681174"><ele>252.39999999999998</ele><time>2026-03-22T13:34:26.15Z</time></trkpt><trkpt lat="49.2771292" lon="5.6679893"><ele>252.0</ele><time>2026-03-22T13:34:27.148Z</time></trkpt><trkpt lat="49.2770676" lon="5.6678741"><ele>252.0</ele><time>2026-03-22T13:34:29.149Z</time></trkpt><trkpt lat="49.2769808" lon="5.6679309"><ele>252.0</ele><time>2026-03-22T13:34:31.149Z</time></trkpt><trkpt lat="49.2769264" lon="5.6679833"><ele>252.0</ele><time>2026-03-22T13:34:32.15Z</time></trkpt><trkpt lat="49.2768596" lon="5.668042"><ele>252.0</ele><time>2026-03-22T13:34:33.15Z</time></trkpt><trkpt lat="49.2767792" lon="5.6681099"><ele>252.0</ele><time>2026-03-22T13:34:34.148Z</time></trkpt><trkpt lat="49.2766954" lon="5.6681825"><ele>252.0</ele><time>2026-03-22T13:34:35.148Z</time></trkpt><trkpt lat="49.276611" lon="5.6682533"><ele>252.0</ele><time>2026-03-22T13:34:36.15Z</time></trkpt><trkpt lat="49.2765259" lon="5.6683307"><ele>252.0</ele><time>2026-03-22T13:34:37.149Z</time></trkpt><trkpt lat="49.2764395" lon="5.6684107"><ele>252.0</ele><time>2026-03-22T13:34:38.149Z</time></trkpt><trkpt lat="49.2763516" lon="5.6684836"><ele>252.0</ele><time>2026-03-22T13:34:39.149Z</time></trkpt><trkpt lat="49.2762672" lon="5.6685616"><ele>252.0</ele><time>2026-03-22T13:34:40.149Z</time></trkpt><trkpt lat="49.2761817" lon="5.668633"><ele>251.8</ele><time>2026-03-22T13:34:41.149Z</time></trkpt><trkpt lat="49.2760953" lon="5.6687043"><ele>251.6</ele><time>2026-03-22T13:34:42.149Z</time></trkpt><trkpt lat="49.2760087" lon="5.6687773"><ele>251.40000000000003</ele><time>2026-03-22T13:34:43.148Z</time></trkpt><trkpt lat="49.2759251" lon="5.6688565"><ele>251.20000000000002</ele><time>2026-03-22T13:34:44.149Z</time></trkpt><trkpt lat="49.2758452" lon="5.668945"><ele>251.0</ele><time>2026-03-22T13:34:45.149Z</time></trkpt><trkpt lat="49.2757577" lon="5.6690295"><ele>251.0</ele><time>2026-03-22T13:34:46.149Z</time></trkpt><trkpt lat="49.2756654" lon="5.6691018"><ele>251.00000000000003</ele><time>2026-03-22T13:34:47.149Z</time></trkpt><trkpt lat="49.2755757" lon="5.6691758"><ele>251.00000000000003</ele><time>2026-03-22T13:34:48.148Z</time></trkpt><trkpt lat="49.2754857" lon="5.6692524"><ele>251.0</ele><time>2026-03-22T13:34:49.148Z</time></trkpt><trkpt lat="49.2754" lon="5.6693322"><ele>251.0</ele><time>2026-03-22T13:34:50.149Z</time></trkpt><trkpt lat="49.2753148" lon="5.6694085"><ele>251.20000000000002</ele><time>2026-03-22T13:34:51.149Z</time></trkpt><trkpt lat="49.2752297" lon="5.6694793"><ele>251.40000000000003</ele><time>2026-03-22T13:34:52.148Z</time></trkpt><trkpt lat="49.2751478" lon="5.6695472"><ele>251.6</ele><time>2026-03-22T13:34:53.149Z</time></trkpt><trkpt lat="49.2750677" lon="5.6696166"><ele>251.8</ele><time>2026-03-22T13:34:54.149Z</time></trkpt><trkpt lat="49.2749914" lon="5.6696871"><ele>252.0</ele><time>2026-03-22T13:34:55.148Z</time></trkpt><trkpt lat="49.2749141" lon="5.6697569"><ele>252.0</ele><time>2026-03-22T13:34:56.149Z</time></trkpt><trkpt lat="49.274838" lon="5.6698323"><ele>252.0</ele><time>2026-03-22T13:34:57.149Z</time></trkpt><trkpt lat="49.2747603" lon="5.6699114"><ele>252.0</ele><time>2026-03-22T13:34:58.15Z</time></trkpt><trkpt lat="49.274684" lon="5.6699883"><ele>252.0</ele><time>2026-03-22T13:34:59.15Z</time></trkpt><trkpt lat="49.2746093" lon="5.6700577"><ele>252.0</ele><time>2026-03-22T13:35:00.149Z</time></trkpt><trkpt lat="49.2745443" lon="5.6701285"><ele>252.0</ele><time>2026-03-22T13:35:01.15Z</time></trkpt><trkpt lat="49.2744903" lon="5.6701884"><ele>251.83333333333334</ele><time>2026-03-22T13:35:02.15Z</time></trkpt><trkpt lat="49.2744233" lon="5.6702652"><ele>251.66666666666669</ele><time>2026-03-22T13:35:04.149Z</time></trkpt><trkpt lat="49.2743743" lon="5.6703474"><ele>251.5</ele><time>2026-03-22T13:35:12.149Z</time></trkpt><trkpt lat="49.2744228" lon="5.6702815"><ele>251.33333333333334</ele><time>2026-03-22T13:35:30.149Z</time></trkpt><trkpt lat="49.2744882" lon="5.6701904"><ele>251.16666666666669</ele><time>2026-03-22T13:36:30.149Z</time></trkpt><trkpt lat="49.2745641" lon="5.6701142"><ele>251.0</ele><time>2026-03-22T13:36:32.149Z</time></trkpt><trkpt lat="49.2746555" lon="5.6700002"><ele>251.00000000000003</ele><time>2026-03-22T13:36:34.148Z</time></trkpt><trkpt lat="49.2747112" lon="5.6699454"><ele>251.0</ele><time>2026-03-22T13:36:35.147Z</time></trkpt><trkpt lat="49.2747741" lon="5.6698852"><ele>251.0</ele><time>2026-03-22T13:36:36.149Z</time></trkpt><trkpt lat="49.2748419" lon="5.6698222"><ele>251.0</ele><time>2026-03-22T13:36:37.148Z</time></trkpt><trkpt lat="49.274914" lon="5.6697576"><ele>251.00000000000003</ele><time>2026-03-22T13:36:38.148Z</time></trkpt><trkpt lat="49.2749881" lon="5.6696904"><ele>251.0</ele><time>2026-03-22T13:36:39.148Z</time></trkpt><trkpt lat="49.2750644" lon="5.6696201"><ele>251.0</ele><time>2026-03-22T13:36:40.148Z</time></trkpt><trkpt lat="49.2751439" lon="5.6695461"><ele>251.00000000000003</ele><time>2026-03-22T13:36:41.148Z</time></trkpt><trkpt lat="49.2752249" lon="5.6694735"><ele>251.00000000000003</ele><time>2026-03-22T13:36:42.148Z</time></trkpt><trkpt lat="49.2753105" lon="5.6694015"><ele>251.0</ele><time>2026-03-22T13:36:43.148Z</time></trkpt><trkpt lat="49.2753906" lon="5.6693316"><ele>251.0</ele><time>2026-03-22T13:36:44.148Z</time></trkpt><trkpt lat="49.2754692" lon="5.6692606"><ele>251.0</ele><time>2026-03-22T13:36:45.148Z</time></trkpt><trkpt lat="49.27555" lon="5.669194"><ele>251.00000000000003</ele><time>2026-03-22T13:36:46.148Z</time></trkpt><trkpt lat="49.2756303" lon="5.6691228"><ele>251.00000000000003</ele><time>2026-03-22T13:36:47.147Z</time></trkpt><trkpt lat="49.2757112" lon="5.6690627"><ele>251.0</ele><time>2026-03-22T13:36:48.148Z</time></trkpt><trkpt lat="49.2757959" lon="5.6689936"><ele>251.0</ele><time>2026-03-22T13:36:49.148Z</time></trkpt><trkpt lat="49.275876" lon="5.6689202"><ele>251.0</ele><time>2026-03-22T13:36:50.148Z</time></trkpt><trkpt lat="49.2759591" lon="5.6688458"><ele>251.00000000000003</ele><time>2026-03-22T13:36:51.148Z</time></trkpt><trkpt lat="49.2760393" lon="5.6687758"><ele>251.00000000000003</ele><time>2026-03-22T13:36:52.148Z</time></trkpt><trkpt lat="49.2761182" lon="5.668703"><ele>251.0</ele><time>2026-03-22T13:36:53.147Z</time></trkpt><trkpt lat="49.2761971" lon="5.6686331"><ele>251.0</ele><time>2026-03-22T13:36:54.147Z</time></trkpt><trkpt lat="49.2762767" lon="5.6685596"><ele>251.0</ele><time>2026-03-22T13:36:55.148Z</time></trkpt><trkpt lat="49.276355" lon="5.6684894"><ele>251.00000000000003</ele><time>2026-03-22T13:36:56.147Z</time></trkpt><trkpt lat="49.2764362" lon="5.6684182"><ele>251.00000000000003</ele><time>2026-03-22T13:36:57.148Z</time></trkpt><trkpt lat="49.2765157" lon="5.6683482"><ele>251.0</ele><time>2026-03-22T13:36:58.147Z</time></trkpt><trkpt lat="49.2765944" lon="5.668277"><ele>251.0</ele><time>2026-03-22T13:36:59.148Z</time></trkpt><trkpt lat="49.2766734" lon="5.6682026"><ele>251.20000000000002</ele><time>2026-03-22T13:37:00.149Z</time></trkpt><trkpt lat="49.2767506" lon="5.6681346"><ele>251.40000000000003</ele><time>2026-03-22T13:37:01.148Z</time></trkpt><trkpt lat="49.2768311" lon="5.6680646"><ele>251.6</ele><time>2026-03-22T13:37:02.147Z</time></trkpt><trkpt lat="49.2769047" lon="5.6680004"><ele>251.8</ele><time>2026-03-22T13:37:03.148Z</time></trkpt><trkpt lat="49.276971" lon="5.6679402"><ele>252.0</ele><time>2026-03-22T13:37:04.148Z</time></trkpt><trkpt lat="49.2770637" lon="5.6678494"><ele>251.83333333333334</ele><time>2026-03-22T13:37:06.147Z</time></trkpt><trkpt lat="49.2770824" lon="5.66773"><ele>251.66666666666669</ele><time>2026-03-22T13:37:08.148Z</time></trkpt><trkpt lat="49.2770414" lon="5.6675739"><ele>251.5</ele><time>2026-03-22T13:37:10.149Z</time></trkpt><trkpt lat="49.2770155" lon="5.6674813"><ele>251.33333333333334</ele><time>2026-03-22T13:37:11.149Z</time></trkpt><trkpt lat="49.2769864" lon="5.6673799"><ele>251.16666666666669</ele><time>2026-03-22T13:37:12.148Z</time></trkpt><trkpt lat="49.2769487" lon="5.6672673"><ele>251.0</ele><time>2026-03-22T13:37:13.148Z</time></trkpt><trkpt lat="49.2769015" lon="5.6671416"><ele>251.0</ele><time>2026-03-22T13:37:14.148Z</time></trkpt><trkpt lat="49.2768464" lon="5.6670097"><ele>251.00000000000003</ele><time>2026-03-22T13:37:15.148Z</time></trkpt><trkpt lat="49.2767866" lon="5.6668722"><ele>251.00000000000003</ele><time>2026-03-22T13:37:16.147Z</time></trkpt><trkpt lat="49.2767247" lon="5.6667248"><ele>251.0</ele><time>2026-03-22T13:37:17.148Z</time></trkpt><trkpt lat="49.2766552" lon="5.6665825"><ele>251.0</ele><time>2026-03-22T13:37:18.148Z</time></trkpt><trkpt lat="49.276588" lon="5.6664472"><ele>250.5</ele><time>2026-03-22T13:37:19.148Z</time></trkpt><trkpt lat="49.2765222" lon="5.6663014"><ele>250.0</ele><time>2026-03-22T13:37:20.147Z</time></trkpt><trkpt lat="49.2764542" lon="5.6661543"><ele>249.5</ele><time>2026-03-22T13:37:21.147Z</time></trkpt><trkpt lat="49.2763896" lon="5.666014"><ele>249.0</ele><time>2026-03-22T13:37:22.148Z</time></trkpt><trkpt lat="49.2763281" lon="5.6658802"><ele>248.6</ele><time>2026-03-22T13:37:23.148Z</time></trkpt><trkpt lat="49.2762676" lon="5.665746"><ele>248.2</ele><time>2026-03-22T13:37:24.148Z</time></trkpt><trkpt lat="49.2762073" lon="5.6656158"><ele>247.79999999999998</ele><time>2026-03-22T13:37:25.148Z</time></trkpt><trkpt lat="49.2761489" lon="5.6654896"><ele>247.39999999999998</ele><time>2026-03-22T13:37:26.147Z</time></trkpt><trkpt lat="49.2760903" lon="5.665366"><ele>247.0</ele><time>2026-03-22T13:37:27.148Z</time></trkpt><trkpt lat="49.2760326" lon="5.66524"><ele>247.0</ele><time>2026-03-22T13:37:28.148Z</time></trkpt><trkpt lat="49.2759769" lon="5.6651192"><ele>247.0</ele><time>2026-03-22T13:37:29.148Z</time></trkpt><trkpt lat="49.2759215" lon="5.6649997"><ele>247.0</ele><time>2026-03-22T13:37:30.147Z</time></trkpt><trkpt lat="49.2758667" lon="5.664882"><ele>247.0</ele><time>2026-03-22T13:37:31.148Z</time></trkpt><trkpt lat="49.2758119" lon="5.6647636"><ele>247.0</ele><time>2026-03-22T13:37:32.149Z</time></trkpt><trkpt lat="49.2757604" lon="5.6646513"><ele>246.99999999999997</ele><time>2026-03-22T13:37:33.148Z</time></trkpt><trkpt lat="49.2757126" lon="5.6645447"><ele>247.0</ele><time>2026-03-22T13:37:34.149Z</time></trkpt><trkpt lat="49.2756661" lon="5.6644457"><ele>247.0</ele><time>2026-03-22T13:37:35.148Z</time></trkpt><trkpt lat="49.2756195" lon="5.6643711"><ele>247.0</ele><time>2026-03-22T13:37:36.147Z</time></trkpt><trkpt lat="49.2755332" lon="5.6643581"><ele>246.99999999999997</ele><time>2026-03-22T13:37:38.147Z</time></trkpt><trkpt lat="49.2754324" lon="5.6644489"><ele>247.0</ele><time>2026-03-22T13:37:40.149Z</time></trkpt><trkpt lat="49.2753695" lon="5.6644991"><ele>247.2</ele><time>2026-03-22T13:37:41.148Z</time></trkpt><trkpt lat="49.2752899" lon="5.6645553"><ele>247.39999999999998</ele><time>2026-03-22T13:37:42.149Z</time></trkpt><trkpt lat="49.2752027" lon="5.6646145"><ele>247.60000000000002</ele><time>2026-03-22T13:37:43.148Z</time></trkpt><trkpt lat="49.2751133" lon="5.6646727"><ele>247.8</ele><time>2026-03-22T13:37:44.148Z</time></trkpt><trkpt lat="49.2750184" lon="5.66474"><ele>248.0</ele><time>2026-03-22T13:37:45.147Z</time></trkpt><trkpt lat="49.2749168" lon="5.6648118"><ele>248.0</ele><time>2026-03-22T13:37:46.147Z</time></trkpt><trkpt lat="49.2748099" lon="5.6648929"><ele>248.0</ele><time>2026-03-22T13:37:47.148Z</time></trkpt><trkpt lat="49.2747009" lon="5.664974"><ele>248.0</ele><time>2026-03-22T13:37:48.148Z</time></trkpt><trkpt lat="49.2745904" lon="5.6650534"><ele>248.0</ele><time>2026-03-22T13:37:49.148Z</time></trkpt><trkpt lat="49.2744793" lon="5.6651325"><ele>247.75</ele><time>2026-03-22T13:37:50.147Z</time></trkpt><trkpt lat="49.274373" lon="5.6652125"><ele>247.5</ele><time>2026-03-22T13:37:51.147Z</time></trkpt><trkpt lat="49.274269" lon="5.6652915"><ele>247.25</ele><time>2026-03-22T13:37:52.147Z</time></trkpt><trkpt lat="49.274166" lon="5.6653691"><ele>247.0</ele><time>2026-03-22T13:37:53.148Z</time></trkpt><trkpt lat="49.2740637" lon="5.6654427"><ele>247.0</ele><time>2026-03-22T13:37:54.147Z</time></trkpt><trkpt lat="49.2739613" lon="5.6655163"><ele>247.0</ele><time>2026-03-22T13:37:55.148Z</time></trkpt><trkpt lat="49.2738622" lon="5.6655891"><ele>247.0</ele><time>2026-03-22T13:37:56.149Z</time></trkpt><trkpt lat="49.273765" lon="5.6656653"><ele>247.0</ele><time>2026-03-22T13:37:57.148Z</time></trkpt><trkpt lat="49.27367" lon="5.6657372"><ele>247.0</ele><time>2026-03-22T13:37:58.147Z</time></trkpt><trkpt lat="49.2735725" lon="5.6658058"><ele>247.2</ele><time>2026-03-22T13:37:59.148Z</time></trkpt><trkpt lat="49.2734737" lon="5.6658753"><ele>247.39999999999998</ele><time>2026-03-22T13:38:00.147Z</time></trkpt><trkpt lat="49.273374" lon="5.6659426"><ele>247.60000000000002</ele><time>2026-03-22T13:38:01.149Z</time></trkpt><trkpt lat="49.2732746" lon="5.6660146"><ele>247.8</ele><time>2026-03-22T13:38:02.148Z</time></trkpt><trkpt lat="49.273178" lon="5.6660833"><ele>248.0</ele><time>2026-03-22T13:38:03.148Z</time></trkpt><trkpt lat="49.273078" lon="5.6661505"><ele>248.0</ele><time>2026-03-22T13:38:04.148Z</time></trkpt><trkpt lat="49.2729819" lon="5.6662216"><ele>248.0</ele><time>2026-03-22T13:38:05.148Z</time></trkpt><trkpt lat="49.2728867" lon="5.6662919"><ele>248.0</ele><time>2026-03-22T13:38:06.148Z</time></trkpt><trkpt lat="49.2727945" lon="5.6663628"><ele>248.0</ele><time>2026-03-22T13:38:07.147Z</time></trkpt><trkpt lat="49.2727051" lon="5.6664345"><ele>248.0</ele><time>2026-03-22T13:38:08.148Z</time></trkpt><trkpt lat="49.272612" lon="5.666504"><ele>248.0</ele><time>2026-03-22T13:38:09.148Z</time></trkpt><trkpt lat="49.2725174" lon="5.6665725"><ele>248.0</ele><time>2026-03-22T13:38:10.148Z</time></trkpt><trkpt lat="49.2724226" lon="5.6666416"><ele>248.0</ele><time>2026-03-22T13:38:11.148Z</time></trkpt><trkpt lat="49.2723289" lon="5.6667075"><ele>248.0</ele><time>2026-03-22T13:38:12.148Z</time></trkpt><trkpt lat="49.2722388" lon="5.6667765"><ele>248.0</ele><time>2026-03-22T13:38:13.147Z</time></trkpt><trkpt lat="49.2721496" lon="5.6668436"><ele>247.83333333333334</ele><time>2026-03-22T13:38:14.147Z</time></trkpt><trkpt lat="49.2720639" lon="5.6669075"><ele>247.66666666666669</ele><time>2026-03-22T13:38:15.149Z</time></trkpt><trkpt lat="49.2719806" lon="5.6669695"><ele>247.5</ele><time>2026-03-22T13:38:16.148Z</time></trkpt><trkpt lat="49.2718998" lon="5.6670294"><ele>247.33333333333331</ele><time>2026-03-22T13:38:17.147Z</time></trkpt><trkpt lat="49.2718241" lon="5.6670861"><ele>247.16666666666666</ele><time>2026-03-22T13:38:18.148Z</time></trkpt><trkpt lat="49.271751" lon="5.667137"><ele>247.0</ele><time>2026-03-22T13:38:19.147Z</time></trkpt><trkpt lat="49.2716817" lon="5.6671895"><ele>246.8</ele><time>2026-03-22T13:38:20.147Z</time></trkpt><trkpt lat="49.2716157" lon="5.6672425"><ele>246.6</ele><time>2026-03-22T13:38:21.149Z</time></trkpt><trkpt lat="49.2715239" lon="5.6673221"><ele>246.40000000000003</ele><time>2026-03-22T13:38:23.148Z</time></trkpt><trkpt lat="49.2714587" lon="5.6673233"><ele>246.20000000000002</ele><time>2026-03-22T13:38:25.147Z</time></trkpt><trkpt lat="49.2713976" lon="5.6672368"><ele>246.0</ele><time>2026-03-22T13:38:27.148Z</time></trkpt><trkpt lat="49.2713219" lon="5.6670889"><ele>245.60000000000002</ele><time>2026-03-22T13:38:29.149Z</time></trkpt><trkpt lat="49.2712658" lon="5.6669918"><ele>245.20000000000002</ele><time>2026-03-22T13:38:30.148Z</time></trkpt><trkpt lat="49.2712006" lon="5.6668824"><ele>244.79999999999998</ele><time>2026-03-22T13:38:31.148Z</time></trkpt><trkpt lat="49.2711382" lon="5.6667606"><ele>244.39999999999998</ele><time>2026-03-22T13:38:32.148Z</time></trkpt><trkpt lat="49.271072" lon="5.6666233"><ele>244.0</ele><time>2026-03-22T13:38:33.148Z</time></trkpt><trkpt lat="49.2710022" lon="5.6664724"><ele>244.0</ele><time>2026-03-22T13:38:34.148Z</time></trkpt><trkpt lat="49.270936" lon="5.6663163"><ele>244.0</ele><time>2026-03-22T13:38:35.148Z</time></trkpt><trkpt lat="49.270874" lon="5.666155"><ele>244.0</ele><time>2026-03-22T13:38:36.148Z</time></trkpt><trkpt lat="49.2708125" lon="5.665991"><ele>244.0</ele><time>2026-03-22T13:38:37.148Z</time></trkpt><trkpt lat="49.2707511" lon="5.6658263"><ele>244.0</ele><time>2026-03-22T13:38:38.148Z</time></trkpt><trkpt lat="49.2706903" lon="5.6656597"><ele>244.0</ele><time>2026-03-22T13:38:39.147Z</time></trkpt><trkpt lat="49.2706302" lon="5.6654946"><ele>244.0</ele><time>2026-03-22T13:38:40.148Z</time></trkpt><trkpt lat="49.2705656" lon="5.6653258"><ele>244.0</ele><time>2026-03-22T13:38:41.148Z</time></trkpt><trkpt lat="49.2705014" lon="5.6651491"><ele>244.0</ele><time>2026-03-22T13:38:42.148Z</time></trkpt><trkpt lat="49.2704389" lon="5.6649763"><ele>244.0</ele><time>2026-03-22T13:38:43.148Z</time></trkpt><trkpt lat="49.2703791" lon="5.6648029"><ele>244.0</ele><time>2026-03-22T13:38:44.147Z</time></trkpt><trkpt lat="49.2703202" lon="5.6646351"><ele>244.0</ele><time>2026-03-22T13:38:45.149Z</time></trkpt><trkpt lat="49.2702635" lon="5.6644668"><ele>243.5</ele><time>2026-03-22T13:38:46.148Z</time></trkpt><trkpt lat="49.2702097" lon="5.6642996"><ele>243.0</ele><time>2026-03-22T13:38:47.148Z</time></trkpt><trkpt lat="49.2701556" lon="5.6641297"><ele>242.5</ele><time>2026-03-22T13:38:48.147Z</time></trkpt><trkpt lat="49.2701003" lon="5.6639634"><ele>242.0</ele><time>2026-03-22T13:38:49.149Z</time></trkpt><trkpt lat="49.2700459" lon="5.6638007"><ele>242.0</ele><time>2026-03-22T13:38:50.149Z</time></trkpt><trkpt lat="49.2699974" lon="5.6636432"><ele>242.0</ele><time>2026-03-22T13:38:51.147Z</time></trkpt><trkpt lat="49.2699495" lon="5.6634895"><ele>242.0</ele><time>2026-03-22T13:38:52.148Z</time></trkpt><trkpt lat="49.2699091" lon="5.6633527"><ele>242.0</ele><time>2026-03-22T13:38:53.148Z</time></trkpt><trkpt lat="49.2698613" lon="5.6632463"><ele>242.0</ele><time>2026-03-22T13:38:54.148Z</time></trkpt><trkpt lat="49.2698149" lon="5.6631628"><ele>242.00000000000003</ele><time>2026-03-22T13:38:55.149Z</time></trkpt><trkpt lat="49.2697479" lon="5.6631222"><ele>242.0</ele><time>2026-03-22T13:38:57.147Z</time></trkpt><trkpt lat="49.269694" lon="5.663013"><ele>242.0</ele><time>2026-03-22T13:39:00.148Z</time></trkpt><trkpt lat="49.2696605" lon="5.6628942"><ele>242.0</ele><time>2026-03-22T13:39:26.149Z</time></trkpt><trkpt lat="49.2696203" lon="5.6627584"><ele>242.00000000000003</ele><time>2026-03-22T13:39:28.149Z</time></trkpt><trkpt lat="49.2695901" lon="5.6626521"><ele>242.0</ele><time>2026-03-22T13:39:29.148Z</time></trkpt><trkpt lat="49.2695575" lon="5.6625319"><ele>241.8</ele><time>2026-03-22T13:39:30.147Z</time></trkpt><trkpt lat="49.2695158" lon="5.6624046"><ele>241.6</ele><time>2026-03-22T13:39:31.147Z</time></trkpt><trkpt lat="49.2694571" lon="5.662301"><ele>241.40000000000003</ele><time>2026-03-22T13:39:32.148Z</time></trkpt><trkpt lat="49.2693797" lon="5.6622242"><ele>241.20000000000002</ele><time>2026-03-22T13:39:33.147Z</time></trkpt><trkpt lat="49.2692945" lon="5.6621902"><ele>241.0</ele><time>2026-03-22T13:39:34.149Z</time></trkpt><trkpt lat="49.2692047" lon="5.6621948"><ele>241.0</ele><time>2026-03-22T13:39:35.147Z</time></trkpt><trkpt lat="49.2691002" lon="5.6622291"><ele>241.0</ele><time>2026-03-22T13:39:36.129Z</time></trkpt><trkpt lat="49.2689847" lon="5.6622603"><ele>241.0</ele><time>2026-03-22T13:39:37.126Z</time></trkpt><trkpt lat="49.2688647" lon="5.6622917"><ele>241.0</ele><time>2026-03-22T13:39:38.127Z</time></trkpt><trkpt lat="49.2687449" lon="5.6623178"><ele>240.75</ele><time>2026-03-22T13:39:39.129Z</time></trkpt><trkpt lat="49.2686265" lon="5.6623451"><ele>240.5</ele><time>2026-03-22T13:39:40.128Z</time></trkpt><trkpt lat="49.2685073" lon="5.6623756"><ele>240.25</ele><time>2026-03-22T13:39:41.128Z</time></trkpt><trkpt lat="49.2683885" lon="5.6624083"><ele>240.0</ele><time>2026-03-22T13:39:42.128Z</time></trkpt><trkpt lat="49.2682707" lon="5.6624367"><ele>240.0</ele><time>2026-03-22T13:39:43.127Z</time></trkpt><trkpt lat="49.2681527" lon="5.6624627"><ele>240.0</ele><time>2026-03-22T13:39:44.127Z</time></trkpt><trkpt lat="49.2680364" lon="5.6624908"><ele>240.0</ele><time>2026-03-22T13:39:45.127Z</time></trkpt><trkpt lat="49.2679192" lon="5.6625202"><ele>240.0</ele><time>2026-03-22T13:39:46.127Z</time></trkpt><trkpt lat="49.2678024" lon="5.6625474"><ele>240.0</ele><time>2026-03-22T13:39:47.127Z</time></trkpt><trkpt lat="49.2676867" lon="5.6625731"><ele>240.0</ele><time>2026-03-22T13:39:48.127Z</time></trkpt><trkpt lat="49.2675731" lon="5.6625948"><ele>240.0</ele><time>2026-03-22T13:39:49.127Z</time></trkpt><trkpt lat="49.2674595" lon="5.6626169"><ele>240.0</ele><time>2026-03-22T13:39:50.127Z</time></trkpt><trkpt lat="49.267346" lon="5.6626416"><ele>239.4</ele><time>2026-03-22T13:39:51.127Z</time></trkpt><trkpt lat="49.2672357" lon="5.6626684"><ele>238.8</ele><time>2026-03-22T13:39:52.127Z</time></trkpt><trkpt lat="49.2671265" lon="5.6626946"><ele>238.2</ele><time>2026-03-22T13:39:53.127Z</time></trkpt><trkpt lat="49.2670192" lon="5.6627214"><ele>237.6</ele><time>2026-03-22T13:39:54.127Z</time></trkpt><trkpt lat="49.26691" lon="5.6627477"><ele>237.0</ele><time>2026-03-22T13:39:55.127Z</time></trkpt><trkpt lat="49.2668062" lon="5.6627803"><ele>237.16666666666666</ele><time>2026-03-22T13:39:56.128Z</time></trkpt><trkpt lat="49.2667065" lon="5.6628116"><ele>237.33333333333331</ele><time>2026-03-22T13:39:57.127Z</time></trkpt><trkpt lat="49.2666133" lon="5.6628403"><ele>237.5</ele><time>2026-03-22T13:39:58.127Z</time></trkpt><trkpt lat="49.2665301" lon="5.6628465"><ele>237.66666666666666</ele><time>2026-03-22T13:39:59.127Z</time></trkpt><trkpt lat="49.2664559" lon="5.6628308"><ele>237.83333333333331</ele><time>2026-03-22T13:40:00.127Z</time></trkpt><trkpt lat="49.2663799" lon="5.6628413"><ele>238.0</ele><time>2026-03-22T13:40:01.127Z</time></trkpt><trkpt lat="49.2662993" lon="5.6628907"><ele>237.60000000000002</ele><time>2026-03-22T13:40:02.127Z</time></trkpt><trkpt lat="49.2662202" lon="5.6629424"><ele>237.20000000000002</ele><time>2026-03-22T13:40:03.127Z</time></trkpt><trkpt lat="49.2661364" lon="5.6629772"><ele>236.8</ele><time>2026-03-22T13:40:04.127Z</time></trkpt><trkpt lat="49.2660449" lon="5.6630004"><ele>236.4</ele><time>2026-03-22T13:40:05.127Z</time></trkpt><trkpt lat="49.2659433" lon="5.6630157"><ele>236.0</ele><time>2026-03-22T13:40:06.127Z</time></trkpt><trkpt lat="49.2658274" lon="5.6630396"><ele>236.0</ele><time>2026-03-22T13:40:07.127Z</time></trkpt><trkpt lat="49.2657088" lon="5.6630631"><ele>236.0</ele><time>2026-03-22T13:40:08.127Z</time></trkpt><trkpt lat="49.2655918" lon="5.6630889"><ele>236.0</ele><time>2026-03-22T13:40:09.127Z</time></trkpt><trkpt lat="49.2654741" lon="5.6631172"><ele>236.0</ele><time>2026-03-22T13:40:10.127Z</time></trkpt><trkpt lat="49.265356" lon="5.6631464"><ele>236.0</ele><time>2026-03-22T13:40:11.127Z</time></trkpt><trkpt lat="49.2652363" lon="5.663173"><ele>236.0</ele><time>2026-03-22T13:40:12.128Z</time></trkpt><trkpt lat="49.2651152" lon="5.6632004"><ele>236.0</ele><time>2026-03-22T13:40:13.127Z</time></trkpt><trkpt lat="49.2649913" lon="5.6632284"><ele>236.0</ele><time>2026-03-22T13:40:14.127Z</time></trkpt><trkpt lat="49.2648731" lon="5.6632545"><ele>236.25</ele><time>2026-03-22T13:40:15.127Z</time></trkpt><trkpt lat="49.2647523" lon="5.6632843"><ele>236.5</ele><time>2026-03-22T13:40:16.127Z</time></trkpt><trkpt lat="49.2646328" lon="5.6633139"><ele>236.75</ele><time>2026-03-22T13:40:17.127Z</time></trkpt><trkpt lat="49.2645133" lon="5.6633483"><ele>237.0</ele><time>2026-03-22T13:40:18.127Z</time></trkpt><trkpt lat="49.2643936" lon="5.663385"><ele>237.0</ele><time>2026-03-22T13:40:19.127Z</time></trkpt><trkpt lat="49.2642752" lon="5.6634169"><ele>237.0</ele><time>2026-03-22T13:40:20.127Z</time></trkpt><trkpt lat="49.2641629" lon="5.663443"><ele>237.0</ele><time>2026-03-22T13:40:21.128Z</time></trkpt><trkpt lat="49.2640492" lon="5.6634665"><ele>237.0</ele><time>2026-03-22T13:40:22.127Z</time></trkpt><trkpt lat="49.2639363" lon="5.6634883"><ele>236.75</ele><time>2026-03-22T13:40:23.127Z</time></trkpt><trkpt lat="49.2638228" lon="5.6635128"><ele>236.5</ele><time>2026-03-22T13:40:24.127Z</time></trkpt><trkpt lat="49.2637091" lon="5.663542"><ele>236.25</ele><time>2026-03-22T13:40:25.127Z</time></trkpt><trkpt lat="49.2635946" lon="5.6635733"><ele>236.0</ele><time>2026-03-22T13:40:26.127Z</time></trkpt><trkpt lat="49.2634826" lon="5.6636015"><ele>235.75</ele><time>2026-03-22T13:40:27.127Z</time></trkpt><trkpt lat="49.2633704" lon="5.6636307"><ele>235.5</ele><time>2026-03-22T13:40:28.128Z</time></trkpt><trkpt lat="49.2632585" lon="5.6636608"><ele>235.25</ele><time>2026-03-22T13:40:29.127Z</time></trkpt><trkpt lat="49.2631469" lon="5.6636926"><ele>235.0</ele><time>2026-03-22T13:40:30.127Z</time></trkpt><trkpt lat="49.2630365" lon="5.6637195"><ele>234.0</ele><time>2026-03-22T13:40:31.127Z</time></trkpt><trkpt lat="49.2629256" lon="5.6637438"><ele>233.0</ele><time>2026-03-22T13:40:32.128Z</time></trkpt><trkpt lat="49.2628133" lon="5.6637696"><ele>232.0</ele><time>2026-03-22T13:40:33.128Z</time></trkpt><trkpt lat="49.2627009" lon="5.663799"><ele>231.0</ele><time>2026-03-22T13:40:34.127Z</time></trkpt><trkpt lat="49.2625865" lon="5.6638298"><ele>231.0</ele><time>2026-03-22T13:40:35.128Z</time></trkpt><trkpt lat="49.2624748" lon="5.6638582"><ele>231.00000000000003</ele><time>2026-03-22T13:40:36.127Z</time></trkpt><trkpt lat="49.2623644" lon="5.6638866"><ele>231.00000000000003</ele><time>2026-03-22T13:40:37.127Z</time></trkpt><trkpt lat="49.2622547" lon="5.6639138"><ele>231.0</ele><time>2026-03-22T13:40:38.127Z</time></trkpt><trkpt lat="49.2621441" lon="5.6639427"><ele>231.0</ele><time>2026-03-22T13:40:39.127Z</time></trkpt><trkpt lat="49.2620326" lon="5.663969"><ele>230.60000000000002</ele><time>2026-03-22T13:40:40.127Z</time></trkpt><trkpt lat="49.2619327" lon="5.6639918"><ele>230.20000000000002</ele><time>2026-03-22T13:40:41.127Z</time></trkpt><trkpt lat="49.2618337" lon="5.664001"><ele>229.79999999999998</ele><time>2026-03-22T13:40:42.127Z</time></trkpt><trkpt lat="49.2617416" lon="5.6640131"><ele>229.39999999999998</ele><time>2026-03-22T13:40:43.127Z</time></trkpt><trkpt lat="49.2616545" lon="5.6640285"><ele>229.0</ele><time>2026-03-22T13:40:44.127Z</time></trkpt><trkpt lat="49.2615704" lon="5.6640394"><ele>229.0</ele><time>2026-03-22T13:40:45.127Z</time></trkpt><trkpt lat="49.2614796" lon="5.6640434"><ele>228.99999999999997</ele><time>2026-03-22T13:40:46.127Z</time></trkpt><trkpt lat="49.2613881" lon="5.6640541"><ele>228.99999999999997</ele><time>2026-03-22T13:40:47.127Z</time></trkpt><trkpt lat="49.2612949" lon="5.6640677"><ele>229.0</ele><time>2026-03-22T13:40:48.127Z</time></trkpt><trkpt lat="49.2612089" lon="5.6641018"><ele>229.0</ele><time>2026-03-22T13:40:49.128Z</time></trkpt><trkpt lat="49.2611288" lon="5.6641575"><ele>228.79999999999998</ele><time>2026-03-22T13:40:50.127Z</time></trkpt><trkpt lat="49.2610389" lon="5.6642104"><ele>228.59999999999997</ele><time>2026-03-22T13:40:51.127Z</time></trkpt><trkpt lat="49.2609454" lon="5.6642416"><ele>228.4</ele><time>2026-03-22T13:40:52.128Z</time></trkpt><trkpt lat="49.2608483" lon="5.6642381"><ele>228.2</ele><time>2026-03-22T13:40:53.127Z</time></trkpt><trkpt lat="49.2607444" lon="5.6642579"><ele>228.0</ele><time>2026-03-22T13:40:54.127Z</time></trkpt><trkpt lat="49.2606383" lon="5.6643041"><ele>228.25</ele><time>2026-03-22T13:40:55.127Z</time></trkpt><trkpt lat="49.2605294" lon="5.6643472"><ele>228.5</ele><time>2026-03-22T13:40:56.127Z</time></trkpt><trkpt lat="49.2604152" lon="5.6643757"><ele>228.75</ele><time>2026-03-22T13:40:57.127Z</time></trkpt><trkpt lat="49.2603036" lon="5.6644006"><ele>229.0</ele><time>2026-03-22T13:40:58.127Z</time></trkpt><trkpt lat="49.260191" lon="5.6644221"><ele>229.0</ele><time>2026-03-22T13:40:59.127Z</time></trkpt><trkpt lat="49.260078" lon="5.664445"><ele>228.99999999999997</ele><time>2026-03-22T13:41:00.127Z</time></trkpt><trkpt lat="49.2599678" lon="5.664474"><ele>228.99999999999997</ele><time>2026-03-22T13:41:01.127Z</time></trkpt><trkpt lat="49.259858" lon="5.6645039"><ele>229.0</ele><time>2026-03-22T13:41:02.128Z</time></trkpt><trkpt lat="49.2597498" lon="5.6645319"><ele>229.0</ele><time>2026-03-22T13:41:03.127Z</time></trkpt><trkpt lat="49.2596416" lon="5.6645577"><ele>228.39999999999998</ele><time>2026-03-22T13:41:04.127Z</time></trkpt><trkpt lat="49.2595337" lon="5.6645841"><ele>227.79999999999998</ele><time>2026-03-22T13:41:05.127Z</time></trkpt><trkpt lat="49.2594254" lon="5.6646075"><ele>227.20000000000002</ele><time>2026-03-22T13:41:06.127Z</time></trkpt><trkpt lat="49.2593208" lon="5.6646334"><ele>226.60000000000002</ele><time>2026-03-22T13:41:07.127Z</time></trkpt><trkpt lat="49.2592155" lon="5.6646615"><ele>226.0</ele><time>2026-03-22T13:41:08.127Z</time></trkpt><trkpt lat="49.2591102" lon="5.6646881"><ele>226.0</ele><time>2026-03-22T13:41:09.127Z</time></trkpt><trkpt lat="49.2590029" lon="5.6647126"><ele>226.00000000000003</ele><time>2026-03-22T13:41:10.127Z</time></trkpt><trkpt lat="49.2588953" lon="5.6647388"><ele>226.00000000000003</ele><time>2026-03-22T13:41:11.127Z</time></trkpt><trkpt lat="49.2587878" lon="5.6647646"><ele>226.0</ele><time>2026-03-22T13:41:12.127Z</time></trkpt><trkpt lat="49.2586791" lon="5.6647921"><ele>226.0</ele><time>2026-03-22T13:41:13.127Z</time></trkpt><trkpt lat="49.2585699" lon="5.6648189"><ele>226.0</ele><time>2026-03-22T13:41:14.127Z</time></trkpt><trkpt lat="49.2584597" lon="5.6648459"><ele>226.0</ele><time>2026-03-22T13:41:15.127Z</time></trkpt><trkpt lat="49.2583488" lon="5.6648735"><ele>226.0</ele><time>2026-03-22T13:41:16.127Z</time></trkpt><trkpt lat="49.2582363" lon="5.6649042"><ele>226.0</ele><time>2026-03-22T13:41:17.127Z</time></trkpt><trkpt lat="49.2581232" lon="5.6649309"><ele>225.5</ele><time>2026-03-22T13:41:18.127Z</time></trkpt><trkpt lat="49.2580093" lon="5.6649602"><ele>225.0</ele><time>2026-03-22T13:41:19.127Z</time></trkpt><trkpt lat="49.2578933" lon="5.6649886"><ele>224.5</ele><time>2026-03-22T13:41:20.127Z</time></trkpt><trkpt lat="49.2577762" lon="5.6650176"><ele>224.0</ele><time>2026-03-22T13:41:21.127Z</time></trkpt><trkpt lat="49.2576588" lon="5.6650495"><ele>224.0</ele><time>2026-03-22T13:41:22.127Z</time></trkpt><trkpt lat="49.2575401" lon="5.6650809"><ele>224.0</ele><time>2026-03-22T13:41:23.127Z</time></trkpt><trkpt lat="49.2574202" lon="5.6651119"><ele>224.0</ele><time>2026-03-22T13:41:24.127Z</time></trkpt><trkpt lat="49.2573057" lon="5.6651395"><ele>224.0</ele><time>2026-03-22T13:41:25.127Z</time></trkpt><trkpt lat="49.2571955" lon="5.6651663"><ele>223.75</ele><time>2026-03-22T13:41:26.127Z</time></trkpt><trkpt lat="49.2570824" lon="5.665191"><ele>223.5</ele><time>2026-03-22T13:41:27.127Z</time></trkpt><trkpt lat="49.2569658" lon="5.6652157"><ele>223.25</ele><time>2026-03-22T13:41:28.127Z</time></trkpt><trkpt lat="49.2568448" lon="5.6652446"><ele>223.0</ele><time>2026-03-22T13:41:29.127Z</time></trkpt><trkpt lat="49.2567231" lon="5.6652748"><ele>222.5</ele><time>2026-03-22T13:41:30.127Z</time></trkpt><trkpt lat="49.2566005" lon="5.6653049"><ele>222.0</ele><time>2026-03-22T13:41:31.127Z</time></trkpt><trkpt lat="49.2564795" lon="5.6653356"><ele>221.5</ele><time>2026-03-22T13:41:32.127Z</time></trkpt><trkpt lat="49.2563629" lon="5.6653671"><ele>221.0</ele><time>2026-03-22T13:41:33.127Z</time></trkpt><trkpt lat="49.2562471" lon="5.6653971"><ele>221.0</ele><time>2026-03-22T13:41:34.127Z</time></trkpt><trkpt lat="49.2561339" lon="5.6654321"><ele>221.00000000000003</ele><time>2026-03-22T13:41:35.127Z</time></trkpt><trkpt lat="49.2560263" lon="5.6654617"><ele>221.00000000000003</ele><time>2026-03-22T13:41:36.128Z</time></trkpt><trkpt lat="49.255927" lon="5.6654944"><ele>221.0</ele><time>2026-03-22T13:41:37.128Z</time></trkpt><trkpt lat="49.2558235" lon="5.665533"><ele>221.0</ele><time>2026-03-22T13:41:38.127Z</time></trkpt><trkpt lat="49.2557142" lon="5.665563"><ele>220.75</ele><time>2026-03-22T13:41:39.127Z</time></trkpt><trkpt lat="49.2555909" lon="5.6655937"><ele>220.5</ele><time>2026-03-22T13:41:40.127Z</time></trkpt><trkpt lat="49.2554714" lon="5.665617"><ele>220.25</ele><time>2026-03-22T13:41:41.127Z</time></trkpt><trkpt lat="49.2553464" lon="5.6656417"><ele>220.0</ele><time>2026-03-22T13:41:42.127Z</time></trkpt><trkpt lat="49.2552259" lon="5.6656685"><ele>220.0</ele><time>2026-03-22T13:41:43.127Z</time></trkpt><trkpt lat="49.2551051" lon="5.6657024"><ele>220.0</ele><time>2026-03-22T13:41:44.127Z</time></trkpt><trkpt lat="49.2549872" lon="5.6657341"><ele>220.0</ele><time>2026-03-22T13:41:45.127Z</time></trkpt><trkpt lat="49.2548688" lon="5.6657654"><ele>220.0</ele><time>2026-03-22T13:41:46.127Z</time></trkpt><trkpt lat="49.2547527" lon="5.6657952"><ele>219.75</ele><time>2026-03-22T13:41:47.127Z</time></trkpt><trkpt lat="49.2546381" lon="5.6658282"><ele>219.5</ele><time>2026-03-22T13:41:48.127Z</time></trkpt><trkpt lat="49.2545244" lon="5.665862"><ele>219.25</ele><time>2026-03-22T13:41:49.127Z</time></trkpt><trkpt lat="49.254409" lon="5.6658934"><ele>219.0</ele><time>2026-03-22T13:41:50.127Z</time></trkpt><trkpt lat="49.2542962" lon="5.6659199"><ele>219.0</ele><time>2026-03-22T13:41:51.127Z</time></trkpt><trkpt lat="49.2541857" lon="5.6659485"><ele>218.99999999999997</ele><time>2026-03-22T13:41:52.127Z</time></trkpt><trkpt lat="49.2540753" lon="5.6659776"><ele>218.99999999999997</ele><time>2026-03-22T13:41:53.127Z</time></trkpt><trkpt lat="49.2539664" lon="5.6660051"><ele>219.0</ele><time>2026-03-22T13:41:54.127Z</time></trkpt><trkpt lat="49.2538611" lon="5.6660334"><ele>219.0</ele><time>2026-03-22T13:41:55.128Z</time></trkpt><trkpt lat="49.2537601" lon="5.6660632"><ele>219.0</ele><time>2026-03-22T13:41:56.127Z</time></trkpt><trkpt lat="49.2536629" lon="5.6660937"><ele>218.99999999999997</ele><time>2026-03-22T13:41:57.127Z</time></trkpt><trkpt lat="49.2535676" lon="5.6661171"><ele>218.99999999999997</ele><time>2026-03-22T13:41:58.127Z</time></trkpt><trkpt lat="49.2534719" lon="5.6661408"><ele>219.0</ele><time>2026-03-22T13:41:59.127Z</time></trkpt><trkpt lat="49.2533774" lon="5.6661643"><ele>219.0</ele><time>2026-03-22T13:42:00.127Z</time></trkpt><trkpt lat="49.2532848" lon="5.6661917"><ele>219.0</ele><time>2026-03-22T13:42:01.127Z</time></trkpt><trkpt lat="49.2531913" lon="5.6662221"><ele>218.99999999999997</ele><time>2026-03-22T13:42:02.127Z</time></trkpt><trkpt lat="49.2530988" lon="5.6662488"><ele>218.99999999999997</ele><time>2026-03-22T13:42:03.127Z</time></trkpt><trkpt lat="49.2530067" lon="5.6662725"><ele>219.0</ele><time>2026-03-22T13:42:04.127Z</time></trkpt><trkpt lat="49.2529118" lon="5.6662991"><ele>219.0</ele><time>2026-03-22T13:42:05.128Z</time></trkpt><trkpt lat="49.2528164" lon="5.6663271"><ele>219.0</ele><time>2026-03-22T13:42:06.127Z</time></trkpt><trkpt lat="49.252717" lon="5.6663504"><ele>218.99999999999997</ele><time>2026-03-22T13:42:07.127Z</time></trkpt><trkpt lat="49.2526052" lon="5.6663703"><ele>218.99999999999997</ele><time>2026-03-22T13:42:08.127Z</time></trkpt><trkpt lat="49.252488" lon="5.6663957"><ele>219.0</ele><time>2026-03-22T13:42:09.127Z</time></trkpt><trkpt lat="49.2523729" lon="5.6664353"><ele>219.0</ele><time>2026-03-22T13:42:10.127Z</time></trkpt><trkpt lat="49.2522557" lon="5.6664768"><ele>219.0</ele><time>2026-03-22T13:42:11.127Z</time></trkpt><trkpt lat="49.25214" lon="5.6665105"><ele>219.0</ele><time>2026-03-22T13:42:12.127Z</time></trkpt><trkpt lat="49.2520269" lon="5.6665417"><ele>219.0</ele><time>2026-03-22T13:42:13.127Z</time></trkpt><trkpt lat="49.2519152" lon="5.6665699"><ele>219.0</ele><time>2026-03-22T13:42:14.127Z</time></trkpt><trkpt lat="49.2518045" lon="5.6665971"><ele>219.0</ele><time>2026-03-22T13:42:15.127Z</time></trkpt><trkpt lat="49.2516969" lon="5.6666258"><ele>218.99999999999997</ele><time>2026-03-22T13:42:16.127Z</time></trkpt><trkpt lat="49.2515919" lon="5.6666531"><ele>218.99999999999997</ele><time>2026-03-22T13:42:17.127Z</time></trkpt><trkpt lat="49.2514878" lon="5.6666802"><ele>219.0</ele><time>2026-03-22T13:42:18.127Z</time></trkpt><trkpt lat="49.2513856" lon="5.6667026"><ele>219.0</ele><time>2026-03-22T13:42:19.127Z</time></trkpt><trkpt lat="49.2512868" lon="5.6667279"><ele>219.39999999999998</ele><time>2026-03-22T13:42:20.128Z</time></trkpt><trkpt lat="49.251191" lon="5.6667544"><ele>219.79999999999998</ele><time>2026-03-22T13:42:21.127Z</time></trkpt><trkpt lat="49.2510938" lon="5.6667784"><ele>220.20000000000002</ele><time>2026-03-22T13:42:22.127Z</time></trkpt><trkpt lat="49.2509986" lon="5.6668004"><ele>220.60000000000002</ele><time>2026-03-22T13:42:23.127Z</time></trkpt><trkpt lat="49.2508998" lon="5.6668193"><ele>221.0</ele><time>2026-03-22T13:42:24.127Z</time></trkpt><trkpt lat="49.2507971" lon="5.6668372"><ele>221.0</ele><time>2026-03-22T13:42:25.128Z</time></trkpt><trkpt lat="49.2506948" lon="5.6668592"><ele>221.00000000000003</ele><time>2026-03-22T13:42:26.127Z</time></trkpt><trkpt lat="49.2505924" lon="5.6668873"><ele>221.00000000000003</ele><time>2026-03-22T13:42:27.127Z</time></trkpt><trkpt lat="49.2504984" lon="5.666914"><ele>221.0</ele><time>2026-03-22T13:42:28.127Z</time></trkpt><trkpt lat="49.2504177" lon="5.6669334"><ele>221.0</ele><time>2026-03-22T13:42:29.127Z</time></trkpt><trkpt lat="49.2503533" lon="5.6669459"><ele>221.00000000000003</ele><time>2026-03-22T13:42:30.127Z</time></trkpt><trkpt lat="49.2502691" lon="5.6669467"><ele>221.0</ele><time>2026-03-22T13:42:32.127Z</time></trkpt><trkpt lat="49.2501986" lon="5.6668798"><ele>221.0</ele><time>2026-03-22T13:42:35.128Z</time></trkpt><trkpt lat="49.25012" lon="5.6668401"><ele>221.0</ele><time>2026-03-22T13:42:37.128Z</time></trkpt><trkpt lat="49.2500568" lon="5.6668377"><ele>221.00000000000003</ele><time>2026-03-22T13:42:38.127Z</time></trkpt><trkpt lat="49.2499811" lon="5.6668485"><ele>221.0</ele><time>2026-03-22T13:42:39.127Z</time></trkpt><trkpt lat="49.2498952" lon="5.666868"><ele>221.0</ele><time>2026-03-22T13:42:40.127Z</time></trkpt><trkpt lat="49.2498028" lon="5.6668943"><ele>221.00000000000003</ele><time>2026-03-22T13:42:41.127Z</time></trkpt><trkpt lat="49.2497059" lon="5.6669248"><ele>221.00000000000003</ele><time>2026-03-22T13:42:42.127Z</time></trkpt><trkpt lat="49.2496032" lon="5.6669542"><ele>221.0</ele><time>2026-03-22T13:42:43.127Z</time></trkpt><trkpt lat="49.2494965" lon="5.6669836"><ele>221.0</ele><time>2026-03-22T13:42:44.128Z</time></trkpt><trkpt lat="49.2493846" lon="5.6670153"><ele>220.5</ele><time>2026-03-22T13:42:45.127Z</time></trkpt><trkpt lat="49.2492695" lon="5.6670449"><ele>220.0</ele><time>2026-03-22T13:42:46.127Z</time></trkpt><trkpt lat="49.2491532" lon="5.6670741"><ele>219.5</ele><time>2026-03-22T13:42:47.127Z</time></trkpt><trkpt lat="49.2490361" lon="5.6671042"><ele>219.0</ele><time>2026-03-22T13:42:48.127Z</time></trkpt><trkpt lat="49.2489178" lon="5.6671351"><ele>219.0</ele><time>2026-03-22T13:42:49.127Z</time></trkpt><trkpt lat="49.2487987" lon="5.6671669"><ele>219.0</ele><time>2026-03-22T13:42:50.127Z</time></trkpt><trkpt lat="49.2486797" lon="5.6672005"><ele>219.0</ele><time>2026-03-22T13:42:51.127Z</time></trkpt><trkpt lat="49.2485622" lon="5.6672348"><ele>219.0</ele><time>2026-03-22T13:42:52.127Z</time></trkpt><trkpt lat="49.2484459" lon="5.6672683"><ele>219.0</ele><time>2026-03-22T13:42:53.127Z</time></trkpt><trkpt lat="49.2483307" lon="5.6673"><ele>219.0</ele><time>2026-03-22T13:42:54.127Z</time></trkpt><trkpt lat="49.2482163" lon="5.6673298"><ele>219.0</ele><time>2026-03-22T13:42:55.128Z</time></trkpt><trkpt lat="49.2481038" lon="5.6673621"><ele>219.0</ele><time>2026-03-22T13:42:56.128Z</time></trkpt><trkpt lat="49.247992" lon="5.6673922"><ele>218.5</ele><time>2026-03-22T13:42:57.128Z</time></trkpt><trkpt lat="49.2478798" lon="5.6674199"><ele>218.0</ele><time>2026-03-22T13:42:58.127Z</time></trkpt><trkpt lat="49.2477664" lon="5.6674521"><ele>217.5</ele><time>2026-03-22T13:42:59.127Z</time></trkpt><trkpt lat="49.2476517" lon="5.6674846"><ele>217.0</ele><time>2026-03-22T13:43:00.127Z</time></trkpt><trkpt lat="49.247535" lon="5.6675145"><ele>217.0</ele><time>2026-03-22T13:43:01.127Z</time></trkpt><trkpt lat="49.2474164" lon="5.667546"><ele>217.0</ele><time>2026-03-22T13:43:02.127Z</time></trkpt><trkpt lat="49.2472885" lon="5.6675826"><ele>217.0</ele><time>2026-03-22T13:43:03.128Z</time></trkpt><trkpt lat="49.2471566" lon="5.6676217"><ele>217.0</ele><time>2026-03-22T13:43:04.127Z</time></trkpt><trkpt lat="49.2470242" lon="5.6676591"><ele>217.75</ele><time>2026-03-22T13:43:05.127Z</time></trkpt><trkpt lat="49.2468936" lon="5.6676949"><ele>218.5</ele><time>2026-03-22T13:43:06.127Z</time></trkpt><trkpt lat="49.246763" lon="5.667732"><ele>219.25</ele><time>2026-03-22T13:43:07.128Z</time></trkpt><trkpt lat="49.2466317" lon="5.6677712"><ele>220.0</ele><time>2026-03-22T13:43:08.127Z</time></trkpt><trkpt lat="49.2465028" lon="5.6678094"><ele>220.25</ele><time>2026-03-22T13:43:09.127Z</time></trkpt><trkpt lat="49.2463765" lon="5.6678441"><ele>220.5</ele><time>2026-03-22T13:43:10.127Z</time></trkpt><trkpt lat="49.2462521" lon="5.6678746"><ele>220.75</ele><time>2026-03-22T13:43:11.127Z</time></trkpt><trkpt lat="49.2461299" lon="5.6679061"><ele>221.0</ele><time>2026-03-22T13:43:12.127Z</time></trkpt><trkpt lat="49.2460087" lon="5.6679407"><ele>221.0</ele><time>2026-03-22T13:43:13.127Z</time></trkpt><trkpt lat="49.2458885" lon="5.6679715"><ele>221.0</ele><time>2026-03-22T13:43:14.127Z</time></trkpt><trkpt lat="49.2457686" lon="5.6679971"><ele>221.0</ele><time>2026-03-22T13:43:15.127Z</time></trkpt><trkpt lat="49.2456482" lon="5.6680079"><ele>221.0</ele><time>2026-03-22T13:43:16.127Z</time></trkpt><trkpt lat="49.2455255" lon="5.6680033"><ele>220.75</ele><time>2026-03-22T13:43:17.127Z</time></trkpt><trkpt lat="49.2454006" lon="5.6679816"><ele>220.5</ele><time>2026-03-22T13:43:18.128Z</time></trkpt><trkpt lat="49.2452758" lon="5.6679399"><ele>220.25</ele><time>2026-03-22T13:43:19.127Z</time></trkpt><trkpt lat="49.2451506" lon="5.6678847"><ele>220.0</ele><time>2026-03-22T13:43:20.127Z</time></trkpt><trkpt lat="49.2450257" lon="5.6678213"><ele>220.25</ele><time>2026-03-22T13:43:21.127Z</time></trkpt><trkpt lat="49.2449027" lon="5.6677533"><ele>220.5</ele><time>2026-03-22T13:43:22.128Z</time></trkpt><trkpt lat="49.2447794" lon="5.6676879"><ele>220.75</ele><time>2026-03-22T13:43:23.127Z</time></trkpt><trkpt lat="49.2446564" lon="5.6676248"><ele>221.0</ele><time>2026-03-22T13:43:24.127Z</time></trkpt><trkpt lat="49.2445343" lon="5.66756"><ele>221.0</ele><time>2026-03-22T13:43:25.127Z</time></trkpt><trkpt lat="49.244413" lon="5.6674946"><ele>221.0</ele><time>2026-03-22T13:43:26.127Z</time></trkpt><trkpt lat="49.2442919" lon="5.667431"><ele>221.0</ele><time>2026-03-22T13:43:27.127Z</time></trkpt><trkpt lat="49.2441707" lon="5.6673685"><ele>221.0</ele><time>2026-03-22T13:43:28.127Z</time></trkpt><trkpt lat="49.2440508" lon="5.6673045"><ele>221.0</ele><time>2026-03-22T13:43:29.127Z</time></trkpt><trkpt lat="49.2439313" lon="5.6672391"><ele>221.0</ele><time>2026-03-22T13:43:30.127Z</time></trkpt><trkpt lat="49.2438118" lon="5.6671734"><ele>221.0</ele><time>2026-03-22T13:43:31.127Z</time></trkpt><trkpt lat="49.2436918" lon="5.6671109"><ele>221.0</ele><time>2026-03-22T13:43:32.127Z</time></trkpt><trkpt lat="49.2435724" lon="5.6670482"><ele>221.0</ele><time>2026-03-22T13:43:33.127Z</time></trkpt><trkpt lat="49.2434534" lon="5.6669838"><ele>221.0</ele><time>2026-03-22T13:43:34.127Z</time></trkpt><trkpt lat="49.2433346" lon="5.6669211"><ele>221.0</ele><time>2026-03-22T13:43:35.127Z</time></trkpt><trkpt lat="49.2432161" lon="5.6668593"><ele>221.0</ele><time>2026-03-22T13:43:36.127Z</time></trkpt><trkpt lat="49.2430971" lon="5.6667952"><ele>221.25</ele><time>2026-03-22T13:43:37.127Z</time></trkpt><trkpt lat="49.2429752" lon="5.6667313"><ele>221.5</ele><time>2026-03-22T13:43:38.127Z</time></trkpt><trkpt lat="49.2428521" lon="5.6666667"><ele>221.75</ele><time>2026-03-22T13:43:39.127Z</time></trkpt><trkpt lat="49.2427287" lon="5.666602"><ele>222.0</ele><time>2026-03-22T13:43:40.128Z</time></trkpt><trkpt lat="49.242604" lon="5.6665396"><ele>222.0</ele><time>2026-03-22T13:43:41.127Z</time></trkpt><trkpt lat="49.2424794" lon="5.6664759"><ele>222.0</ele><time>2026-03-22T13:43:42.127Z</time></trkpt><trkpt lat="49.2423549" lon="5.6664115"><ele>222.0</ele><time>2026-03-22T13:43:43.127Z</time></trkpt><trkpt lat="49.2422331" lon="5.666346"><ele>222.0</ele><time>2026-03-22T13:43:44.127Z</time></trkpt><trkpt lat="49.2421133" lon="5.6662797"><ele>222.25</ele><time>2026-03-22T13:43:45.127Z</time></trkpt><trkpt lat="49.2419935" lon="5.6662185"><ele>222.5</ele><time>2026-03-22T13:43:46.127Z</time></trkpt><trkpt lat="49.241874" lon="5.6661588"><ele>222.75</ele><time>2026-03-22T13:43:47.127Z</time></trkpt><trkpt lat="49.2417553" lon="5.6660979"><ele>223.0</ele><time>2026-03-22T13:43:48.127Z</time></trkpt><trkpt lat="49.241636" lon="5.6660345"><ele>223.0</ele><time>2026-03-22T13:43:49.127Z</time></trkpt><trkpt lat="49.2415127" lon="5.6659692"><ele>223.0</ele><time>2026-03-22T13:43:50.127Z</time></trkpt><trkpt lat="49.2413823" lon="5.6659012"><ele>223.0</ele><time>2026-03-22T13:43:51.127Z</time></trkpt><trkpt lat="49.2412481" lon="5.665832"><ele>223.0</ele><time>2026-03-22T13:43:52.127Z</time></trkpt><trkpt lat="49.2411155" lon="5.6657618"><ele>224.25</ele><time>2026-03-22T13:43:53.127Z</time></trkpt><trkpt lat="49.2409857" lon="5.6656945"><ele>225.5</ele><time>2026-03-22T13:43:54.127Z</time></trkpt><trkpt lat="49.2408541" lon="5.6656291"><ele>226.75</ele><time>2026-03-22T13:43:55.127Z</time></trkpt><trkpt lat="49.2407241" lon="5.6655609"><ele>228.0</ele><time>2026-03-22T13:43:56.127Z</time></trkpt><trkpt lat="49.2405966" lon="5.6654891"><ele>228.25</ele><time>2026-03-22T13:43:57.127Z</time></trkpt><trkpt lat="49.2404715" lon="5.6654135"><ele>228.5</ele><time>2026-03-22T13:43:58.127Z</time></trkpt><trkpt lat="49.2403453" lon="5.665336"><ele>228.75</ele><time>2026-03-22T13:43:59.127Z</time></trkpt><trkpt lat="49.2402154" lon="5.665258"><ele>229.0</ele><time>2026-03-22T13:44:00.128Z</time></trkpt><trkpt lat="49.2400835" lon="5.6651788"><ele>229.0</ele><time>2026-03-22T13:44:01.127Z</time></trkpt><trkpt lat="49.2399515" lon="5.6650978"><ele>229.0</ele><time>2026-03-22T13:44:02.127Z</time></trkpt><trkpt lat="49.239819" lon="5.665015"><ele>229.0</ele><time>2026-03-22T13:44:03.127Z</time></trkpt><trkpt lat="49.2396876" lon="5.6649309"><ele>229.0</ele><time>2026-03-22T13:44:04.127Z</time></trkpt><trkpt lat="49.2395553" lon="5.664846"><ele>229.0</ele><time>2026-03-22T13:44:05.127Z</time></trkpt><trkpt lat="49.2394219" lon="5.6647606"><ele>229.0</ele><time>2026-03-22T13:44:06.127Z</time></trkpt><trkpt lat="49.2392877" lon="5.6646747"><ele>229.0</ele><time>2026-03-22T13:44:07.127Z</time></trkpt><trkpt lat="49.2391547" lon="5.6645844"><ele>229.0</ele><time>2026-03-22T13:44:08.127Z</time></trkpt><trkpt lat="49.2390223" lon="5.6644918"><ele>229.0</ele><time>2026-03-22T13:44:09.127Z</time></trkpt><trkpt lat="49.2388915" lon="5.6644001"><ele>229.0</ele><time>2026-03-22T13:44:10.127Z</time></trkpt><trkpt lat="49.2387614" lon="5.6643098"><ele>229.0</ele><time>2026-03-22T13:44:11.127Z</time></trkpt><trkpt lat="49.2386319" lon="5.6642254"><ele>229.0</ele><time>2026-03-22T13:44:12.127Z</time></trkpt><trkpt lat="49.2385039" lon="5.6641419"><ele>229.0</ele><time>2026-03-22T13:44:13.127Z</time></trkpt><trkpt lat="49.2383748" lon="5.6640569"><ele>229.0</ele><time>2026-03-22T13:44:14.127Z</time></trkpt><trkpt lat="49.238247" lon="5.6639704"><ele>229.0</ele><time>2026-03-22T13:44:15.127Z</time></trkpt><trkpt lat="49.2381197" lon="5.6638864"><ele>229.0</ele><time>2026-03-22T13:44:16.128Z</time></trkpt><trkpt lat="49.2379937" lon="5.6638045"><ele>229.0</ele><time>2026-03-22T13:44:17.127Z</time></trkpt><trkpt lat="49.2378695" lon="5.6637235"><ele>229.0</ele><time>2026-03-22T13:44:18.127Z</time></trkpt><trkpt lat="49.2377459" lon="5.6636454"><ele>229.0</ele><time>2026-03-22T13:44:19.127Z</time></trkpt><trkpt lat="49.2376236" lon="5.6635643"><ele>229.0</ele><time>2026-03-22T13:44:20.127Z</time></trkpt><trkpt lat="49.2375006" lon="5.6634817"><ele>229.0</ele><time>2026-03-22T13:44:21.127Z</time></trkpt><trkpt lat="49.2373759" lon="5.6634026"><ele>229.0</ele><time>2026-03-22T13:44:22.127Z</time></trkpt><trkpt lat="49.2372501" lon="5.6633241"><ele>229.0</ele><time>2026-03-22T13:44:23.127Z</time></trkpt><trkpt lat="49.2371233" lon="5.6632442"><ele>229.0</ele><time>2026-03-22T13:44:24.127Z</time></trkpt><trkpt lat="49.2369962" lon="5.6631644"><ele>228.25</ele><time>2026-03-22T13:44:25.127Z</time></trkpt><trkpt lat="49.2368695" lon="5.6630833"><ele>227.5</ele><time>2026-03-22T13:44:26.128Z</time></trkpt><trkpt lat="49.2367438" lon="5.6630005"><ele>226.75</ele><time>2026-03-22T13:44:27.127Z</time></trkpt><trkpt lat="49.2366194" lon="5.6629184"><ele>226.0</ele><time>2026-03-22T13:44:28.127Z</time></trkpt><trkpt lat="49.2364975" lon="5.6628391"><ele>226.0</ele><time>2026-03-22T13:44:29.127Z</time></trkpt><trkpt lat="49.2363762" lon="5.6627632"><ele>226.0</ele><time>2026-03-22T13:44:30.127Z</time></trkpt><trkpt lat="49.2362566" lon="5.6626904"><ele>226.0</ele><time>2026-03-22T13:44:31.127Z</time></trkpt><trkpt lat="49.2361409" lon="5.6626194"><ele>226.0</ele><time>2026-03-22T13:44:32.127Z</time></trkpt><trkpt lat="49.2360296" lon="5.6625491"><ele>226.0</ele><time>2026-03-22T13:44:33.127Z</time></trkpt><trkpt lat="49.2359243" lon="5.6624807"><ele>226.00000000000003</ele><time>2026-03-22T13:44:34.127Z</time></trkpt><trkpt lat="49.2358193" lon="5.6624302"><ele>226.00000000000003</ele><time>2026-03-22T13:44:35.128Z</time></trkpt><trkpt lat="49.235715" lon="5.6624025"><ele>226.0</ele><time>2026-03-22T13:44:36.127Z</time></trkpt><trkpt lat="49.2356135" lon="5.6623982"><ele>226.0</ele><time>2026-03-22T13:44:37.127Z</time></trkpt><trkpt lat="49.2355089" lon="5.6623865"><ele>226.0</ele><time>2026-03-22T13:44:38.127Z</time></trkpt><trkpt lat="49.2354057" lon="5.6623307"><ele>226.0</ele><time>2026-03-22T13:44:39.127Z</time></trkpt><trkpt lat="49.2352986" lon="5.6622526"><ele>226.0</ele><time>2026-03-22T13:44:40.127Z</time></trkpt><trkpt lat="49.2351899" lon="5.6621777"><ele>226.0</ele><time>2026-03-22T13:44:41.127Z</time></trkpt><trkpt lat="49.2350804" lon="5.6621082"><ele>226.0</ele><time>2026-03-22T13:44:42.127Z</time></trkpt><trkpt lat="49.2349717" lon="5.6620388"><ele>226.0</ele><time>2026-03-22T13:44:43.127Z</time></trkpt><trkpt lat="49.2348649" lon="5.6619704"><ele>226.0</ele><time>2026-03-22T13:44:44.127Z</time></trkpt><trkpt lat="49.2347579" lon="5.6619069"><ele>226.0</ele><time>2026-03-22T13:44:45.127Z</time></trkpt><trkpt lat="49.2346495" lon="5.6618417"><ele>225.75</ele><time>2026-03-22T13:44:46.127Z</time></trkpt><trkpt lat="49.2345424" lon="5.661769"><ele>225.5</ele><time>2026-03-22T13:44:47.127Z</time></trkpt><trkpt lat="49.2344371" lon="5.6616891"><ele>225.25</ele><time>2026-03-22T13:44:48.127Z</time></trkpt><trkpt lat="49.2343308" lon="5.6616136"><ele>225.0</ele><time>2026-03-22T13:44:49.127Z</time></trkpt><trkpt lat="49.2342174" lon="5.6615377"><ele>225.0</ele><time>2026-03-22T13:44:50.127Z</time></trkpt><trkpt lat="49.234101" lon="5.6614619"><ele>225.0</ele><time>2026-03-22T13:44:51.127Z</time></trkpt><trkpt lat="49.233984" lon="5.661386"><ele>225.0</ele><time>2026-03-22T13:44:52.127Z</time></trkpt><trkpt lat="49.2338636" lon="5.6613068"><ele>225.0</ele><time>2026-03-22T13:44:53.127Z</time></trkpt><trkpt lat="49.2337351" lon="5.6612237"><ele>225.0</ele><time>2026-03-22T13:44:54.127Z</time></trkpt><trkpt lat="49.2336072" lon="5.661138"><ele>225.0</ele><time>2026-03-22T13:44:55.127Z</time></trkpt><trkpt lat="49.2334848" lon="5.6610576"><ele>225.0</ele><time>2026-03-22T13:44:56.128Z</time></trkpt><trkpt lat="49.2333678" lon="5.6609814"><ele>225.0</ele><time>2026-03-22T13:44:57.127Z</time></trkpt><trkpt lat="49.2332567" lon="5.6609076"><ele>225.0</ele><time>2026-03-22T13:44:58.127Z</time></trkpt><trkpt lat="49.2331504" lon="5.6608389"><ele>225.0</ele><time>2026-03-22T13:44:59.128Z</time></trkpt><trkpt lat="49.2330465" lon="5.6607708"><ele>225.0</ele><time>2026-03-22T13:45:00.128Z</time></trkpt><trkpt lat="49.2329461" lon="5.6607053"><ele>225.0</ele><time>2026-03-22T13:45:01.128Z</time></trkpt><trkpt lat="49.2328486" lon="5.6606415"><ele>225.0</ele><time>2026-03-22T13:45:02.127Z</time></trkpt><trkpt lat="49.2327505" lon="5.6605771"><ele>225.4</ele><time>2026-03-22T13:45:03.127Z</time></trkpt><trkpt lat="49.232652" lon="5.6605125"><ele>225.8</ele><time>2026-03-22T13:45:04.127Z</time></trkpt><trkpt lat="49.2325544" lon="5.6604482"><ele>226.2</ele><time>2026-03-22T13:45:05.127Z</time></trkpt><trkpt lat="49.2324576" lon="5.6603857"><ele>226.6</ele><time>2026-03-22T13:45:06.127Z</time></trkpt><trkpt lat="49.2323631" lon="5.6603215"><ele>227.0</ele><time>2026-03-22T13:45:07.127Z</time></trkpt><trkpt lat="49.2322682" lon="5.6602595"><ele>227.0</ele><time>2026-03-22T13:45:08.127Z</time></trkpt><trkpt lat="49.2321722" lon="5.6601971"><ele>227.0</ele><time>2026-03-22T13:45:09.128Z</time></trkpt><trkpt lat="49.2320756" lon="5.6601325"><ele>227.0</ele><time>2026-03-22T13:45:10.127Z</time></trkpt><trkpt lat="49.2319779" lon="5.6600694"><ele>227.0</ele><time>2026-03-22T13:45:11.127Z</time></trkpt><trkpt lat="49.2318809" lon="5.6600052"><ele>227.0</ele><time>2026-03-22T13:45:12.127Z</time></trkpt><trkpt lat="49.2317848" lon="5.6599428"><ele>227.0</ele><time>2026-03-22T13:45:13.127Z</time></trkpt><trkpt lat="49.2316902" lon="5.6598815"><ele>227.0</ele><time>2026-03-22T13:45:14.127Z</time></trkpt><trkpt lat="49.2315976" lon="5.659822"><ele>227.0</ele><time>2026-03-22T13:45:15.127Z</time></trkpt><trkpt lat="49.2315076" lon="5.659761"><ele>227.0</ele><time>2026-03-22T13:45:16.127Z</time></trkpt><trkpt lat="49.2314174" lon="5.6597026"><ele>227.0</ele><time>2026-03-22T13:45:17.127Z</time></trkpt><trkpt lat="49.2313276" lon="5.6596444"><ele>227.0</ele><time>2026-03-22T13:45:18.127Z</time></trkpt><trkpt lat="49.2312387" lon="5.6595856"><ele>227.0</ele><time>2026-03-22T13:45:19.128Z</time></trkpt><trkpt lat="49.2311515" lon="5.6595298"><ele>227.0</ele><time>2026-03-22T13:45:20.127Z</time></trkpt><trkpt lat="49.2310668" lon="5.6594739"><ele>227.0</ele><time>2026-03-22T13:45:21.127Z</time></trkpt><trkpt lat="49.2309829" lon="5.6594197"><ele>227.0</ele><time>2026-03-22T13:45:22.128Z</time></trkpt><trkpt lat="49.2308997" lon="5.6593642"><ele>227.00000000000003</ele><time>2026-03-22T13:45:23.127Z</time></trkpt><trkpt lat="49.2308178" lon="5.6593105"><ele>227.0</ele><time>2026-03-22T13:45:24.127Z</time></trkpt><trkpt lat="49.2307359" lon="5.6592574"><ele>227.0</ele><time>2026-03-22T13:45:25.127Z</time></trkpt><trkpt lat="49.2306552" lon="5.6592019"><ele>227.0</ele><time>2026-03-22T13:45:26.127Z</time></trkpt><trkpt lat="49.2305745" lon="5.6591501"><ele>227.00000000000003</ele><time>2026-03-22T13:45:27.127Z</time></trkpt><trkpt lat="49.230497" lon="5.6590967"><ele>227.0</ele><time>2026-03-22T13:45:28.127Z</time></trkpt><trkpt lat="49.2304212" lon="5.659045"><ele>227.16666666666669</ele><time>2026-03-22T13:45:29.127Z</time></trkpt><trkpt lat="49.2303466" lon="5.6589947"><ele>227.33333333333334</ele><time>2026-03-22T13:45:30.127Z</time></trkpt><trkpt lat="49.2302727" lon="5.6589461"><ele>227.5</ele><time>2026-03-22T13:45:31.127Z</time></trkpt><trkpt lat="49.2302007" lon="5.6588969"><ele>227.66666666666669</ele><time>2026-03-22T13:45:32.127Z</time></trkpt><trkpt lat="49.2301273" lon="5.6588504"><ele>227.83333333333334</ele><time>2026-03-22T13:45:33.128Z</time></trkpt><trkpt lat="49.2300549" lon="5.6587997"><ele>228.0</ele><time>2026-03-22T13:45:34.127Z</time></trkpt><trkpt lat="49.2299807" lon="5.658752"><ele>228.0</ele><time>2026-03-22T13:45:35.128Z</time></trkpt><trkpt lat="49.2299075" lon="5.6587018"><ele>228.0</ele><time>2026-03-22T13:45:36.127Z</time></trkpt><trkpt lat="49.2298332" lon="5.6586539"><ele>228.0</ele><time>2026-03-22T13:45:37.127Z</time></trkpt><trkpt lat="49.2297597" lon="5.6586034"><ele>228.0</ele><time>2026-03-22T13:45:38.128Z</time></trkpt><trkpt lat="49.2296851" lon="5.658556"><ele>228.0</ele><time>2026-03-22T13:45:39.127Z</time></trkpt><trkpt lat="49.2296105" lon="5.6585068"><ele>228.0</ele><time>2026-03-22T13:45:40.128Z</time></trkpt><trkpt lat="49.2295333" lon="5.6584546"><ele>228.0</ele><time>2026-03-22T13:45:41.127Z</time></trkpt><trkpt lat="49.2294526" lon="5.6584016"><ele>228.0</ele><time>2026-03-22T13:45:42.128Z</time></trkpt><trkpt lat="49.2293701" lon="5.6583456"><ele>228.0</ele><time>2026-03-22T13:45:43.127Z</time></trkpt><trkpt lat="49.2292863" lon="5.6582925"><ele>228.0</ele><time>2026-03-22T13:45:44.127Z</time></trkpt><trkpt lat="49.2292008" lon="5.6582373"><ele>228.0</ele><time>2026-03-22T13:45:45.127Z</time></trkpt><trkpt lat="49.2291184" lon="5.6581831"><ele>228.0</ele><time>2026-03-22T13:45:46.127Z</time></trkpt><trkpt lat="49.2290363" lon="5.6581277"><ele>228.0</ele><time>2026-03-22T13:45:47.127Z</time></trkpt><trkpt lat="49.2289543" lon="5.6580754"><ele>228.0</ele><time>2026-03-22T13:45:48.127Z</time></trkpt><trkpt lat="49.2288717" lon="5.6580204"><ele>228.0</ele><time>2026-03-22T13:45:49.127Z</time></trkpt><trkpt lat="49.2287868" lon="5.6579645"><ele>228.0</ele><time>2026-03-22T13:45:50.127Z</time></trkpt><trkpt lat="49.2286976" lon="5.6579066"><ele>227.8</ele><time>2026-03-22T13:45:51.128Z</time></trkpt><trkpt lat="49.2286063" lon="5.6578474"><ele>227.60000000000002</ele><time>2026-03-22T13:45:52.127Z</time></trkpt><trkpt lat="49.2285141" lon="5.6577869"><ele>227.39999999999998</ele><time>2026-03-22T13:45:53.127Z</time></trkpt><trkpt lat="49.2284201" lon="5.6577256"><ele>227.2</ele><time>2026-03-22T13:45:54.127Z</time></trkpt><trkpt lat="49.2283278" lon="5.6576634"><ele>227.0</ele><time>2026-03-22T13:45:55.128Z</time></trkpt><trkpt lat="49.2282344" lon="5.6576041"><ele>227.2</ele><time>2026-03-22T13:45:56.127Z</time></trkpt><trkpt lat="49.2281402" lon="5.6575417"><ele>227.39999999999998</ele><time>2026-03-22T13:45:57.127Z</time></trkpt><trkpt lat="49.2280444" lon="5.6574793"><ele>227.60000000000002</ele><time>2026-03-22T13:45:58.127Z</time></trkpt><trkpt lat="49.2279483" lon="5.6574153"><ele>227.8</ele><time>2026-03-22T13:45:59.128Z</time></trkpt><trkpt lat="49.2278541" lon="5.6573499"><ele>228.0</ele><time>2026-03-22T13:46:00.127Z</time></trkpt><trkpt lat="49.2277627" lon="5.657277"><ele>228.0</ele><time>2026-03-22T13:46:01.127Z</time></trkpt><trkpt lat="49.2276727" lon="5.6571946"><ele>228.0</ele><time>2026-03-22T13:46:02.128Z</time></trkpt><trkpt lat="49.2275843" lon="5.6571038"><ele>228.0</ele><time>2026-03-22T13:46:03.127Z</time></trkpt><trkpt lat="49.2274993" lon="5.6570108"><ele>228.0</ele><time>2026-03-22T13:46:04.127Z</time></trkpt><trkpt lat="49.2274178" lon="5.6569184"><ele>228.0</ele><time>2026-03-22T13:46:05.127Z</time></trkpt><trkpt lat="49.2273373" lon="5.6568263"><ele>227.8</ele><time>2026-03-22T13:46:06.127Z</time></trkpt><trkpt lat="49.2272577" lon="5.656734"><ele>227.60000000000002</ele><time>2026-03-22T13:46:07.127Z</time></trkpt><trkpt lat="49.227179" lon="5.656644"><ele>227.39999999999998</ele><time>2026-03-22T13:46:08.127Z</time></trkpt><trkpt lat="49.2271034" lon="5.6565498"><ele>227.2</ele><time>2026-03-22T13:46:09.127Z</time></trkpt><trkpt lat="49.2270313" lon="5.6564497"><ele>227.0</ele><time>2026-03-22T13:46:10.127Z</time></trkpt><trkpt lat="49.2269649" lon="5.6563411"><ele>227.0</ele><time>2026-03-22T13:46:11.127Z</time></trkpt><trkpt lat="49.2269002" lon="5.6562344"><ele>227.0</ele><time>2026-03-22T13:46:12.127Z</time></trkpt><trkpt lat="49.2268315" lon="5.6561298"><ele>227.0</ele><time>2026-03-22T13:46:13.127Z</time></trkpt><trkpt lat="49.2267585" lon="5.6560266"><ele>227.0</ele><time>2026-03-22T13:46:14.128Z</time></trkpt><trkpt lat="49.2266827" lon="5.6559242"><ele>227.0</ele><time>2026-03-22T13:46:15.127Z</time></trkpt><trkpt lat="49.226606" lon="5.6558236"><ele>226.8</ele><time>2026-03-22T13:46:16.128Z</time></trkpt><trkpt lat="49.2265302" lon="5.6557231"><ele>226.6</ele><time>2026-03-22T13:46:17.127Z</time></trkpt><trkpt lat="49.2264551" lon="5.655624"><ele>226.40000000000003</ele><time>2026-03-22T13:46:18.127Z</time></trkpt><trkpt lat="49.2263797" lon="5.655525"><ele>226.20000000000002</ele><time>2026-03-22T13:46:19.127Z</time></trkpt><trkpt lat="49.226302" lon="5.6554242"><ele>226.0</ele><time>2026-03-22T13:46:20.127Z</time></trkpt><trkpt lat="49.2262232" lon="5.6553226"><ele>226.0</ele><time>2026-03-22T13:46:21.127Z</time></trkpt><trkpt lat="49.2261441" lon="5.6552214"><ele>226.00000000000003</ele><time>2026-03-22T13:46:22.127Z</time></trkpt><trkpt lat="49.2260662" lon="5.6551199"><ele>226.00000000000003</ele><time>2026-03-22T13:46:23.127Z</time></trkpt><trkpt lat="49.2259868" lon="5.6550168"><ele>226.0</ele><time>2026-03-22T13:46:24.127Z</time></trkpt><trkpt lat="49.225902" lon="5.6549049"><ele>226.0</ele><time>2026-03-22T13:46:25.127Z</time></trkpt><trkpt lat="49.2258138" lon="5.6547902"><ele>226.0</ele><time>2026-03-22T13:46:26.127Z</time></trkpt><trkpt lat="49.2257253" lon="5.6546752"><ele>226.0</ele><time>2026-03-22T13:46:27.127Z</time></trkpt><trkpt lat="49.2256396" lon="5.6545581"><ele>226.0</ele><time>2026-03-22T13:46:28.127Z</time></trkpt><trkpt lat="49.2255549" lon="5.6544395"><ele>226.0</ele><time>2026-03-22T13:46:29.127Z</time></trkpt><trkpt lat="49.2254703" lon="5.6543196"><ele>226.0</ele><time>2026-03-22T13:46:30.127Z</time></trkpt><trkpt lat="49.2253851" lon="5.6542082"><ele>226.0</ele><time>2026-03-22T13:46:31.127Z</time></trkpt><trkpt lat="49.225298" lon="5.6541052"><ele>226.0</ele><time>2026-03-22T13:46:32.127Z</time></trkpt><trkpt lat="49.2252073" lon="5.6539971"><ele>226.0</ele><time>2026-03-22T13:46:33.127Z</time></trkpt><trkpt lat="49.2251182" lon="5.6538819"><ele>226.0</ele><time>2026-03-22T13:46:34.127Z</time></trkpt><trkpt lat="49.2250271" lon="5.6537667"><ele>226.0</ele><time>2026-03-22T13:46:35.128Z</time></trkpt><trkpt lat="49.2249371" lon="5.6536479"><ele>226.0</ele><time>2026-03-22T13:46:36.128Z</time></trkpt><trkpt lat="49.2248492" lon="5.653529"><ele>226.0</ele><time>2026-03-22T13:46:37.128Z</time></trkpt><trkpt lat="49.2247609" lon="5.6534152"><ele>225.60000000000002</ele><time>2026-03-22T13:46:38.127Z</time></trkpt><trkpt lat="49.224676" lon="5.6533019"><ele>225.20000000000002</ele><time>2026-03-22T13:46:39.127Z</time></trkpt><trkpt lat="49.2245943" lon="5.6531953"><ele>224.79999999999998</ele><time>2026-03-22T13:46:40.127Z</time></trkpt><trkpt lat="49.2245161" lon="5.6530926"><ele>224.39999999999998</ele><time>2026-03-22T13:46:41.127Z</time></trkpt><trkpt lat="49.2244397" lon="5.652993"><ele>224.0</ele><time>2026-03-22T13:46:42.127Z</time></trkpt><trkpt lat="49.2243643" lon="5.652891"><ele>224.0</ele><time>2026-03-22T13:46:43.127Z</time></trkpt><trkpt lat="49.2242876" lon="5.6527919"><ele>223.99999999999997</ele><time>2026-03-22T13:46:44.127Z</time></trkpt><trkpt lat="49.2242107" lon="5.652692"><ele>223.99999999999997</ele><time>2026-03-22T13:46:45.127Z</time></trkpt><trkpt lat="49.2241332" lon="5.6525914"><ele>224.0</ele><time>2026-03-22T13:46:46.127Z</time></trkpt><trkpt lat="49.2240561" lon="5.6524909"><ele>224.0</ele><time>2026-03-22T13:46:47.127Z</time></trkpt><trkpt lat="49.2239787" lon="5.6523903"><ele>224.2</ele><time>2026-03-22T13:46:48.128Z</time></trkpt><trkpt lat="49.2239015" lon="5.6522886"><ele>224.39999999999998</ele><time>2026-03-22T13:46:49.127Z</time></trkpt><trkpt lat="49.2238241" lon="5.6521874"><ele>224.6</ele><time>2026-03-22T13:46:50.127Z</time></trkpt><trkpt lat="49.2237467" lon="5.6520876"><ele>224.8</ele><time>2026-03-22T13:46:51.127Z</time></trkpt><trkpt lat="49.2236704" lon="5.6519861"><ele>225.0</ele><time>2026-03-22T13:46:52.127Z</time></trkpt><trkpt lat="49.2235936" lon="5.6518837"><ele>225.0</ele><time>2026-03-22T13:46:53.127Z</time></trkpt><trkpt lat="49.2235155" lon="5.6517805"><ele>225.0</ele><time>2026-03-22T13:46:54.127Z</time></trkpt><trkpt lat="49.2234367" lon="5.6516767"><ele>225.0</ele><time>2026-03-22T13:46:55.127Z</time></trkpt><trkpt lat="49.2233579" lon="5.6515744"><ele>225.0</ele><time>2026-03-22T13:46:56.127Z</time></trkpt><trkpt lat="49.2232799" lon="5.6514718"><ele>225.0</ele><time>2026-03-22T13:46:57.127Z</time></trkpt><trkpt lat="49.2232014" lon="5.6513693"><ele>225.0</ele><time>2026-03-22T13:46:58.128Z</time></trkpt><trkpt lat="49.2231229" lon="5.6512652"><ele>225.0</ele><time>2026-03-22T13:46:59.127Z</time></trkpt><trkpt lat="49.2230442" lon="5.6511634"><ele>225.0</ele><time>2026-03-22T13:47:00.128Z</time></trkpt><trkpt lat="49.2229646" lon="5.6510592"><ele>225.0</ele><time>2026-03-22T13:47:01.127Z</time></trkpt><trkpt lat="49.2228841" lon="5.650954"><ele>225.0</ele><time>2026-03-22T13:47:02.127Z</time></trkpt><trkpt lat="49.2228044" lon="5.6508489"><ele>225.0</ele><time>2026-03-22T13:47:03.127Z</time></trkpt><trkpt lat="49.2227246" lon="5.6507449"><ele>225.0</ele><time>2026-03-22T13:47:04.127Z</time></trkpt><trkpt lat="49.2226471" lon="5.6506428"><ele>225.0</ele><time>2026-03-22T13:47:05.127Z</time></trkpt><trkpt lat="49.2225716" lon="5.6505431"><ele>225.0</ele><time>2026-03-22T13:47:06.127Z</time></trkpt><trkpt lat="49.2224966" lon="5.6504478"><ele>225.0</ele><time>2026-03-22T13:47:07.127Z</time></trkpt><trkpt lat="49.2224244" lon="5.6503527"><ele>225.0</ele><time>2026-03-22T13:47:08.127Z</time></trkpt><trkpt lat="49.2223548" lon="5.6502593"><ele>225.0</ele><time>2026-03-22T13:47:09.128Z</time></trkpt><trkpt lat="49.2222862" lon="5.6501708"><ele>225.0</ele><time>2026-03-22T13:47:10.127Z</time></trkpt><trkpt lat="49.2222183" lon="5.650082"><ele>225.0</ele><time>2026-03-22T13:47:11.127Z</time></trkpt><trkpt lat="49.2221522" lon="5.6499934"><ele>225.0</ele><time>2026-03-22T13:47:12.127Z</time></trkpt><trkpt lat="49.2220872" lon="5.6499075"><ele>225.0</ele><time>2026-03-22T13:47:13.127Z</time></trkpt><trkpt lat="49.2220236" lon="5.6498234"><ele>224.66666666666666</ele><time>2026-03-22T13:47:14.128Z</time></trkpt><trkpt lat="49.2219607" lon="5.6497418"><ele>224.33333333333331</ele><time>2026-03-22T13:47:15.127Z</time></trkpt><trkpt lat="49.2218981" lon="5.6496611"><ele>224.0</ele><time>2026-03-22T13:47:16.127Z</time></trkpt><trkpt lat="49.221837" lon="5.6495813"><ele>223.66666666666666</ele><time>2026-03-22T13:47:17.127Z</time></trkpt><trkpt lat="49.2217807" lon="5.6494999"><ele>223.33333333333331</ele><time>2026-03-22T13:47:18.127Z</time></trkpt><trkpt lat="49.2217392" lon="5.6494086"><ele>223.0</ele><time>2026-03-22T13:47:19.127Z</time></trkpt><trkpt lat="49.2217134" lon="5.6493142"><ele>222.99999999999997</ele><time>2026-03-22T13:47:20.127Z</time></trkpt><trkpt lat="49.2216837" lon="5.6492155"><ele>223.0</ele><time>2026-03-22T13:47:21.127Z</time></trkpt><trkpt lat="49.2216401" lon="5.6491174"><ele>223.0</ele><time>2026-03-22T13:47:22.127Z</time></trkpt><trkpt lat="49.2215848" lon="5.6490195"><ele>223.0</ele><time>2026-03-22T13:47:23.127Z</time></trkpt><trkpt lat="49.2215206" lon="5.6489256"><ele>222.99999999999997</ele><time>2026-03-22T13:47:24.127Z</time></trkpt><trkpt lat="49.2214522" lon="5.6488301"><ele>223.0</ele><time>2026-03-22T13:47:25.127Z</time></trkpt><trkpt lat="49.2213811" lon="5.6487323"><ele>223.0</ele><time>2026-03-22T13:47:26.127Z</time></trkpt><trkpt lat="49.2213066" lon="5.6486342"><ele>223.0</ele><time>2026-03-22T13:47:27.127Z</time></trkpt><trkpt lat="49.2212297" lon="5.6485336"><ele>223.0</ele><time>2026-03-22T13:47:28.127Z</time></trkpt><trkpt lat="49.2211525" lon="5.6484297"><ele>223.0</ele><time>2026-03-22T13:47:29.127Z</time></trkpt><trkpt lat="49.2210776" lon="5.6483232"><ele>223.0</ele><time>2026-03-22T13:47:30.127Z</time></trkpt><trkpt lat="49.2210053" lon="5.6482194"><ele>222.99999999999997</ele><time>2026-03-22T13:47:31.127Z</time></trkpt><trkpt lat="49.2209358" lon="5.6481178"><ele>223.0</ele><time>2026-03-22T13:47:32.127Z</time></trkpt><trkpt lat="49.2208792" lon="5.6480131"><ele>223.0</ele><time>2026-03-22T13:47:33.127Z</time></trkpt><trkpt lat="49.2208392" lon="5.6479021"><ele>223.0</ele><time>2026-03-22T13:47:34.127Z</time></trkpt><trkpt lat="49.2208096" lon="5.6477907"><ele>222.99999999999997</ele><time>2026-03-22T13:47:35.127Z</time></trkpt><trkpt lat="49.2207747" lon="5.6476882"><ele>223.0</ele><time>2026-03-22T13:47:36.127Z</time></trkpt><trkpt lat="49.2207276" lon="5.6476003"><ele>222.99999999999997</ele><time>2026-03-22T13:47:37.127Z</time></trkpt><trkpt lat="49.2206673" lon="5.6475359"><ele>223.0</ele><time>2026-03-22T13:47:38.127Z</time></trkpt><trkpt lat="49.2205975" lon="5.6474954"><ele>223.0</ele><time>2026-03-22T13:47:39.127Z</time></trkpt><trkpt lat="49.2205191" lon="5.6474623"><ele>223.0</ele><time>2026-03-22T13:47:40.127Z</time></trkpt><trkpt lat="49.2204353" lon="5.6474154"><ele>222.99999999999997</ele><time>2026-03-22T13:47:41.128Z</time></trkpt><trkpt lat="49.2203551" lon="5.6473418"><ele>223.0</ele><time>2026-03-22T13:47:42.127Z</time></trkpt><trkpt lat="49.2202758" lon="5.6472498"><ele>222.8</ele><time>2026-03-22T13:47:43.127Z</time></trkpt><trkpt lat="49.2201948" lon="5.6471472"><ele>222.60000000000002</ele><time>2026-03-22T13:47:44.128Z</time></trkpt><trkpt lat="49.2201103" lon="5.6470434"><ele>222.39999999999998</ele><time>2026-03-22T13:47:45.127Z</time></trkpt><trkpt lat="49.2200217" lon="5.6469367"><ele>222.2</ele><time>2026-03-22T13:47:46.127Z</time></trkpt><trkpt lat="49.2199341" lon="5.6468244"><ele>222.0</ele><time>2026-03-22T13:47:47.127Z</time></trkpt><trkpt lat="49.2198469" lon="5.6467121"><ele>221.8</ele><time>2026-03-22T13:47:48.127Z</time></trkpt><trkpt lat="49.2197601" lon="5.6465974"><ele>221.6</ele><time>2026-03-22T13:47:49.127Z</time></trkpt><trkpt lat="49.2196736" lon="5.6464851"><ele>221.40000000000003</ele><time>2026-03-22T13:47:50.127Z</time></trkpt><trkpt lat="49.2195883" lon="5.6463735"><ele>221.20000000000002</ele><time>2026-03-22T13:47:51.127Z</time></trkpt><trkpt lat="49.2195048" lon="5.6462657"><ele>221.0</ele><time>2026-03-22T13:47:52.127Z</time></trkpt><trkpt lat="49.2194234" lon="5.6461586"><ele>221.0</ele><time>2026-03-22T13:47:53.127Z</time></trkpt><trkpt lat="49.2193427" lon="5.6460516"><ele>221.00000000000003</ele><time>2026-03-22T13:47:54.128Z</time></trkpt><trkpt lat="49.2192622" lon="5.6459448"><ele>221.00000000000003</ele><time>2026-03-22T13:47:55.127Z</time></trkpt><trkpt lat="49.2191822" lon="5.6458369"><ele>221.0</ele><time>2026-03-22T13:47:56.127Z</time></trkpt><trkpt lat="49.2191025" lon="5.6457304"><ele>221.0</ele><time>2026-03-22T13:47:57.127Z</time></trkpt><trkpt lat="49.2190214" lon="5.6456252"><ele>220.60000000000002</ele><time>2026-03-22T13:47:58.128Z</time></trkpt><trkpt lat="49.2189407" lon="5.6455196"><ele>220.20000000000002</ele><time>2026-03-22T13:47:59.127Z</time></trkpt><trkpt lat="49.2188623" lon="5.6454108"><ele>219.79999999999998</ele><time>2026-03-22T13:48:00.128Z</time></trkpt><trkpt lat="49.218784" lon="5.6453012"><ele>219.39999999999998</ele><time>2026-03-22T13:48:01.127Z</time></trkpt><trkpt lat="49.2187051" lon="5.6451949"><ele>219.0</ele><time>2026-03-22T13:48:02.127Z</time></trkpt><trkpt lat="49.2186261" lon="5.6450902"><ele>219.0</ele><time>2026-03-22T13:48:03.127Z</time></trkpt><trkpt lat="49.2185487" lon="5.6449853"><ele>218.99999999999997</ele><time>2026-03-22T13:48:04.128Z</time></trkpt><trkpt lat="49.2184723" lon="5.6448844"><ele>218.99999999999997</ele><time>2026-03-22T13:48:05.127Z</time></trkpt><trkpt lat="49.2183975" lon="5.6447871"><ele>219.0</ele><time>2026-03-22T13:48:06.127Z</time></trkpt><trkpt lat="49.2183225" lon="5.6446921"><ele>219.0</ele><time>2026-03-22T13:48:07.127Z</time></trkpt><trkpt lat="49.2182477" lon="5.6445934"><ele>219.0</ele><time>2026-03-22T13:48:08.127Z</time></trkpt><trkpt lat="49.2181727" lon="5.6444946"><ele>218.99999999999997</ele><time>2026-03-22T13:48:09.127Z</time></trkpt><trkpt lat="49.2180957" lon="5.6443957"><ele>218.99999999999997</ele><time>2026-03-22T13:48:10.127Z</time></trkpt><trkpt lat="49.2180184" lon="5.6442952"><ele>219.0</ele><time>2026-03-22T13:48:11.127Z</time></trkpt><trkpt lat="49.2179417" lon="5.6441936"><ele>219.0</ele><time>2026-03-22T13:48:12.127Z</time></trkpt><trkpt lat="49.2178653" lon="5.6440942"><ele>218.66666666666666</ele><time>2026-03-22T13:48:13.127Z</time></trkpt><trkpt lat="49.2177901" lon="5.6440007"><ele>218.33333333333331</ele><time>2026-03-22T13:48:14.127Z</time></trkpt><trkpt lat="49.2177189" lon="5.6439095"><ele>218.0</ele><time>2026-03-22T13:48:15.127Z</time></trkpt><trkpt lat="49.217652" lon="5.6438212"><ele>217.66666666666666</ele><time>2026-03-22T13:48:16.127Z</time></trkpt><trkpt lat="49.2175896" lon="5.6437367"><ele>217.33333333333331</ele><time>2026-03-22T13:48:17.127Z</time></trkpt><trkpt lat="49.2175313" lon="5.6436602"><ele>217.0</ele><time>2026-03-22T13:48:18.128Z</time></trkpt><trkpt lat="49.2174743" lon="5.6435887"><ele>216.83333333333331</ele><time>2026-03-22T13:48:19.127Z</time></trkpt><trkpt lat="49.2174183" lon="5.6435127"><ele>216.66666666666666</ele><time>2026-03-22T13:48:20.127Z</time></trkpt><trkpt lat="49.2173608" lon="5.6434375"><ele>216.5</ele><time>2026-03-22T13:48:21.128Z</time></trkpt><trkpt lat="49.2173032" lon="5.643362"><ele>216.33333333333331</ele><time>2026-03-22T13:48:22.128Z</time></trkpt><trkpt lat="49.2172444" lon="5.6432873"><ele>216.16666666666666</ele><time>2026-03-22T13:48:23.127Z</time></trkpt><trkpt lat="49.2171841" lon="5.6432114"><ele>216.0</ele><time>2026-03-22T13:48:24.127Z</time></trkpt><trkpt lat="49.2171239" lon="5.6431329"><ele>216.0</ele><time>2026-03-22T13:48:25.127Z</time></trkpt><trkpt lat="49.2170643" lon="5.6430515"><ele>216.0</ele><time>2026-03-22T13:48:26.127Z</time></trkpt><trkpt lat="49.2170036" lon="5.6429723"><ele>216.0</ele><time>2026-03-22T13:48:27.128Z</time></trkpt><trkpt lat="49.216941" lon="5.6428929"><ele>216.0</ele><time>2026-03-22T13:48:28.127Z</time></trkpt><trkpt lat="49.2168787" lon="5.6428098"><ele>216.0</ele><time>2026-03-22T13:48:29.127Z</time></trkpt><trkpt lat="49.2168137" lon="5.6427228"><ele>216.0</ele><time>2026-03-22T13:48:30.127Z</time></trkpt><trkpt lat="49.2167446" lon="5.6426328"><ele>215.60000000000002</ele><time>2026-03-22T13:48:31.127Z</time></trkpt><trkpt lat="49.2166725" lon="5.6425392"><ele>215.20000000000002</ele><time>2026-03-22T13:48:32.128Z</time></trkpt><trkpt lat="49.2165991" lon="5.6424432"><ele>214.79999999999998</ele><time>2026-03-22T13:48:33.127Z</time></trkpt><trkpt lat="49.2165245" lon="5.6423437"><ele>214.39999999999998</ele><time>2026-03-22T13:48:34.127Z</time></trkpt><trkpt lat="49.2164514" lon="5.6422444"><ele>214.0</ele><time>2026-03-22T13:48:35.127Z</time></trkpt><trkpt lat="49.2163776" lon="5.6421445"><ele>213.79999999999998</ele><time>2026-03-22T13:48:36.127Z</time></trkpt><trkpt lat="49.2163034" lon="5.6420463"><ele>213.59999999999997</ele><time>2026-03-22T13:48:37.128Z</time></trkpt><trkpt lat="49.2162289" lon="5.6419502"><ele>213.4</ele><time>2026-03-22T13:48:38.127Z</time></trkpt><trkpt lat="49.216154" lon="5.6418549"><ele>213.2</ele><time>2026-03-22T13:48:39.128Z</time></trkpt><trkpt lat="49.2160783" lon="5.641759"><ele>213.0</ele><time>2026-03-22T13:48:40.127Z</time></trkpt><trkpt lat="49.2160028" lon="5.6416627"><ele>212.8</ele><time>2026-03-22T13:48:41.127Z</time></trkpt><trkpt lat="49.2159265" lon="5.6415637"><ele>212.60000000000002</ele><time>2026-03-22T13:48:42.127Z</time></trkpt><trkpt lat="49.2158508" lon="5.6414625"><ele>212.39999999999998</ele><time>2026-03-22T13:48:43.127Z</time></trkpt><trkpt lat="49.2157763" lon="5.6413596"><ele>212.2</ele><time>2026-03-22T13:48:44.127Z</time></trkpt><trkpt lat="49.2157003" lon="5.6412583"><ele>212.0</ele><time>2026-03-22T13:48:45.127Z</time></trkpt><trkpt lat="49.2156227" lon="5.6411597"><ele>211.8</ele><time>2026-03-22T13:48:46.127Z</time></trkpt><trkpt lat="49.2155453" lon="5.6410622"><ele>211.6</ele><time>2026-03-22T13:48:47.127Z</time></trkpt><trkpt lat="49.2154702" lon="5.6409636"><ele>211.4</ele><time>2026-03-22T13:48:48.127Z</time></trkpt><trkpt lat="49.2153954" lon="5.6408679"><ele>211.20000000000002</ele><time>2026-03-22T13:48:49.127Z</time></trkpt><trkpt lat="49.2153198" lon="5.6407692"><ele>211.0</ele><time>2026-03-22T13:48:50.128Z</time></trkpt><trkpt lat="49.2152446" lon="5.6406682"><ele>211.0</ele><time>2026-03-22T13:48:51.127Z</time></trkpt><trkpt lat="49.2151695" lon="5.6405666"><ele>211.0</ele><time>2026-03-22T13:48:52.127Z</time></trkpt><trkpt lat="49.2150944" lon="5.6404666"><ele>211.0</ele><time>2026-03-22T13:48:53.127Z</time></trkpt><trkpt lat="49.2150191" lon="5.6403683"><ele>211.0</ele><time>2026-03-22T13:48:54.127Z</time></trkpt><trkpt lat="49.2149445" lon="5.6402747"><ele>211.0</ele><time>2026-03-22T13:48:55.127Z</time></trkpt><trkpt lat="49.2148708" lon="5.6401807"><ele>211.20000000000002</ele><time>2026-03-22T13:48:56.127Z</time></trkpt><trkpt lat="49.2147978" lon="5.6400883"><ele>211.4</ele><time>2026-03-22T13:48:57.127Z</time></trkpt><trkpt lat="49.2147262" lon="5.6399942"><ele>211.6</ele><time>2026-03-22T13:48:58.127Z</time></trkpt><trkpt lat="49.2146551" lon="5.6398899"><ele>211.8</ele><time>2026-03-22T13:48:59.127Z</time></trkpt><trkpt lat="49.2145866" lon="5.6397682"><ele>212.0</ele><time>2026-03-22T13:49:00.127Z</time></trkpt><trkpt lat="49.2145212" lon="5.6396428"><ele>212.0</ele><time>2026-03-22T13:49:01.127Z</time></trkpt><trkpt lat="49.2144598" lon="5.6395114"><ele>212.0</ele><time>2026-03-22T13:49:02.127Z</time></trkpt><trkpt lat="49.2144042" lon="5.6393777"><ele>212.0</ele><time>2026-03-22T13:49:03.127Z</time></trkpt><trkpt lat="49.2143578" lon="5.6392409"><ele>212.0</ele><time>2026-03-22T13:49:04.127Z</time></trkpt><trkpt lat="49.2143174" lon="5.6391033"><ele>212.0</ele><time>2026-03-22T13:49:05.128Z</time></trkpt><trkpt lat="49.2142788" lon="5.6389668"><ele>212.0</ele><time>2026-03-22T13:49:06.127Z</time></trkpt><trkpt lat="49.2142401" lon="5.6388345"><ele>212.0</ele><time>2026-03-22T13:49:07.127Z</time></trkpt><trkpt lat="49.2142046" lon="5.6387032"><ele>212.0</ele><time>2026-03-22T13:49:08.127Z</time></trkpt><trkpt lat="49.2141718" lon="5.6385716"><ele>212.0</ele><time>2026-03-22T13:49:09.127Z</time></trkpt><trkpt lat="49.2141393" lon="5.6384409"><ele>212.0</ele><time>2026-03-22T13:49:10.128Z</time></trkpt><trkpt lat="49.2141063" lon="5.6383077"><ele>211.8</ele><time>2026-03-22T13:49:11.127Z</time></trkpt><trkpt lat="49.2140719" lon="5.638172"><ele>211.6</ele><time>2026-03-22T13:49:12.127Z</time></trkpt><trkpt lat="49.2140366" lon="5.6380379"><ele>211.4</ele><time>2026-03-22T13:49:13.127Z</time></trkpt><trkpt lat="49.2140025" lon="5.6379033"><ele>211.20000000000002</ele><time>2026-03-22T13:49:14.127Z</time></trkpt><trkpt lat="49.2139707" lon="5.6377678"><ele>211.0</ele><time>2026-03-22T13:49:15.127Z</time></trkpt><trkpt lat="49.2139405" lon="5.6376301"><ele>210.8</ele><time>2026-03-22T13:49:16.127Z</time></trkpt><trkpt lat="49.2139125" lon="5.6374925"><ele>210.60000000000002</ele><time>2026-03-22T13:49:17.127Z</time></trkpt><trkpt lat="49.2138847" lon="5.6373573"><ele>210.4</ele><time>2026-03-22T13:49:18.127Z</time></trkpt><trkpt lat="49.2138574" lon="5.6372251"><ele>210.2</ele><time>2026-03-22T13:49:19.127Z</time></trkpt><trkpt lat="49.2138303" lon="5.6370963"><ele>210.0</ele><time>2026-03-22T13:49:20.127Z</time></trkpt><trkpt lat="49.2138008" lon="5.6369719"><ele>210.16666666666666</ele><time>2026-03-22T13:49:21.127Z</time></trkpt><trkpt lat="49.2137698" lon="5.6368519"><ele>210.33333333333331</ele><time>2026-03-22T13:49:22.127Z</time></trkpt><trkpt lat="49.2137393" lon="5.6367332"><ele>210.5</ele><time>2026-03-22T13:49:23.127Z</time></trkpt><trkpt lat="49.2137091" lon="5.6366173"><ele>210.66666666666666</ele><time>2026-03-22T13:49:24.127Z</time></trkpt><trkpt lat="49.2136806" lon="5.6364997"><ele>210.83333333333331</ele><time>2026-03-22T13:49:25.127Z</time></trkpt><trkpt lat="49.2136545" lon="5.6363804"><ele>211.0</ele><time>2026-03-22T13:49:26.127Z</time></trkpt><trkpt lat="49.213631" lon="5.6362601"><ele>210.99999999999997</ele><time>2026-03-22T13:49:27.127Z</time></trkpt><trkpt lat="49.2136077" lon="5.6361401"><ele>211.0</ele><time>2026-03-22T13:49:28.127Z</time></trkpt><trkpt lat="49.2135876" lon="5.6360177"><ele>211.0</ele><time>2026-03-22T13:49:29.127Z</time></trkpt><trkpt lat="49.2135685" lon="5.635896"><ele>211.0</ele><time>2026-03-22T13:49:30.127Z</time></trkpt><trkpt lat="49.2135527" lon="5.6357737"><ele>210.99999999999997</ele><time>2026-03-22T13:49:31.128Z</time></trkpt><trkpt lat="49.213535" lon="5.6356504"><ele>211.0</ele><time>2026-03-22T13:49:32.127Z</time></trkpt><trkpt lat="49.2135168" lon="5.6355278"><ele>210.83333333333331</ele><time>2026-03-22T13:49:33.127Z</time></trkpt><trkpt lat="49.213497" lon="5.6354057"><ele>210.66666666666666</ele><time>2026-03-22T13:49:34.127Z</time></trkpt><trkpt lat="49.2134767" lon="5.6352841"><ele>210.5</ele><time>2026-03-22T13:49:35.127Z</time></trkpt><trkpt lat="49.2134562" lon="5.6351636"><ele>210.33333333333331</ele><time>2026-03-22T13:49:36.127Z</time></trkpt><trkpt lat="49.2134367" lon="5.6350434"><ele>210.16666666666666</ele><time>2026-03-22T13:49:37.128Z</time></trkpt><trkpt lat="49.213417" lon="5.6349207"><ele>210.0</ele><time>2026-03-22T13:49:38.127Z</time></trkpt><trkpt lat="49.2133995" lon="5.6347975"><ele>209.6</ele><time>2026-03-22T13:49:39.128Z</time></trkpt><trkpt lat="49.2133813" lon="5.6346722"><ele>209.2</ele><time>2026-03-22T13:49:40.128Z</time></trkpt><trkpt lat="49.2133601" lon="5.6345373"><ele>208.8</ele><time>2026-03-22T13:49:41.127Z</time></trkpt><trkpt lat="49.2133366" lon="5.6343976"><ele>208.4</ele><time>2026-03-22T13:49:42.127Z</time></trkpt><trkpt lat="49.2133074" lon="5.6342576"><ele>208.0</ele><time>2026-03-22T13:49:43.127Z</time></trkpt><trkpt lat="49.2132752" lon="5.6341181"><ele>208.0</ele><time>2026-03-22T13:49:44.128Z</time></trkpt><trkpt lat="49.2132425" lon="5.6339782"><ele>208.0</ele><time>2026-03-22T13:49:45.127Z</time></trkpt><trkpt lat="49.2132105" lon="5.6338377"><ele>208.0</ele><time>2026-03-22T13:49:46.127Z</time></trkpt><trkpt lat="49.2131803" lon="5.6336954"><ele>208.0</ele><time>2026-03-22T13:49:47.127Z</time></trkpt><trkpt lat="49.2131558" lon="5.6335498"><ele>208.0</ele><time>2026-03-22T13:49:48.127Z</time></trkpt><trkpt lat="49.2131388" lon="5.6334027"><ele>207.4</ele><time>2026-03-22T13:49:49.127Z</time></trkpt><trkpt lat="49.2131308" lon="5.6332538"><ele>206.8</ele><time>2026-03-22T13:49:50.128Z</time></trkpt><trkpt lat="49.2131338" lon="5.6331047"><ele>206.2</ele><time>2026-03-22T13:49:51.127Z</time></trkpt><trkpt lat="49.2131469" lon="5.6329583"><ele>205.6</ele><time>2026-03-22T13:49:52.127Z</time></trkpt><trkpt lat="49.2131709" lon="5.6328167"><ele>205.0</ele><time>2026-03-22T13:49:53.127Z</time></trkpt><trkpt lat="49.2132063" lon="5.6326834"><ele>204.4</ele><time>2026-03-22T13:49:54.127Z</time></trkpt><trkpt lat="49.2132504" lon="5.6325561"><ele>203.8</ele><time>2026-03-22T13:49:55.127Z</time></trkpt><trkpt lat="49.213301" lon="5.6324367"><ele>203.2</ele><time>2026-03-22T13:49:56.128Z</time></trkpt><trkpt lat="49.2133555" lon="5.6323223"><ele>202.6</ele><time>2026-03-22T13:49:57.127Z</time></trkpt><trkpt lat="49.2134114" lon="5.6322082"><ele>202.0</ele><time>2026-03-22T13:49:58.127Z</time></trkpt><trkpt lat="49.2134639" lon="5.6320856"><ele>201.6</ele><time>2026-03-22T13:49:59.127Z</time></trkpt><trkpt lat="49.2135135" lon="5.6319521"><ele>201.2</ele><time>2026-03-22T13:50:00.127Z</time></trkpt><trkpt lat="49.2135545" lon="5.63181"><ele>200.8</ele><time>2026-03-22T13:50:01.127Z</time></trkpt><trkpt lat="49.2135849" lon="5.6316629"><ele>200.4</ele><time>2026-03-22T13:50:02.128Z</time></trkpt><trkpt lat="49.2136027" lon="5.6315209"><ele>200.0</ele><time>2026-03-22T13:50:03.127Z</time></trkpt><trkpt lat="49.2136123" lon="5.6313965"><ele>200.0</ele><time>2026-03-22T13:50:04.127Z</time></trkpt><trkpt lat="49.2136105" lon="5.6312406"><ele>200.0</ele><time>2026-03-22T13:50:06.127Z</time></trkpt><trkpt lat="49.2135959" lon="5.6310945"><ele>200.0</ele><time>2026-03-22T13:50:10.127Z</time></trkpt><trkpt lat="49.2135765" lon="5.6308949"><ele>200.0</ele><time>2026-03-22T13:50:12.127Z</time></trkpt><trkpt lat="49.2135647" lon="5.6307547"><ele>200.0</ele><time>2026-03-22T13:50:13.127Z</time></trkpt><trkpt lat="49.2135487" lon="5.6306057"><ele>200.2</ele><time>2026-03-22T13:50:14.128Z</time></trkpt><trkpt lat="49.2135337" lon="5.6304487"><ele>200.4</ele><time>2026-03-22T13:50:15.127Z</time></trkpt><trkpt lat="49.2135195" lon="5.6302833"><ele>200.60000000000002</ele><time>2026-03-22T13:50:16.127Z</time></trkpt><trkpt lat="49.2135041" lon="5.6301161"><ele>200.8</ele><time>2026-03-22T13:50:17.128Z</time></trkpt><trkpt lat="49.2134873" lon="5.6299491"><ele>201.0</ele><time>2026-03-22T13:50:18.127Z</time></trkpt><trkpt lat="49.2134711" lon="5.6297829"><ele>201.20000000000002</ele><time>2026-03-22T13:50:19.127Z</time></trkpt><trkpt lat="49.2134549" lon="5.629616"><ele>201.4</ele><time>2026-03-22T13:50:20.127Z</time></trkpt><trkpt lat="49.2134375" lon="5.6294472"><ele>201.6</ele><time>2026-03-22T13:50:21.128Z</time></trkpt><trkpt lat="49.2134214" lon="5.6292764"><ele>201.8</ele><time>2026-03-22T13:50:22.127Z</time></trkpt><trkpt lat="49.2134056" lon="5.629106"><ele>202.0</ele><time>2026-03-22T13:50:23.127Z</time></trkpt><trkpt lat="49.2133906" lon="5.6289366"><ele>202.0</ele><time>2026-03-22T13:50:24.127Z</time></trkpt><trkpt lat="49.2133736" lon="5.628769"><ele>202.0</ele><time>2026-03-22T13:50:25.127Z</time></trkpt><trkpt lat="49.213356" lon="5.6286024"><ele>202.0</ele><time>2026-03-22T13:50:26.127Z</time></trkpt><trkpt lat="49.2133387" lon="5.6284368"><ele>202.0</ele><time>2026-03-22T13:50:27.128Z</time></trkpt><trkpt lat="49.2133226" lon="5.6282711"><ele>202.0</ele><time>2026-03-22T13:50:28.127Z</time></trkpt><trkpt lat="49.2133077" lon="5.6281069"><ele>202.2</ele><time>2026-03-22T13:50:29.128Z</time></trkpt><trkpt lat="49.2132938" lon="5.627948"><ele>202.39999999999998</ele><time>2026-03-22T13:50:30.127Z</time></trkpt><trkpt lat="49.2132805" lon="5.6277927"><ele>202.60000000000002</ele><time>2026-03-22T13:50:31.127Z</time></trkpt><trkpt lat="49.2132671" lon="5.6276409"><ele>202.8</ele><time>2026-03-22T13:50:32.127Z</time></trkpt><trkpt lat="49.213253" lon="5.627494"><ele>203.0</ele><time>2026-03-22T13:50:33.127Z</time></trkpt><trkpt lat="49.2132382" lon="5.6273504"><ele>203.0</ele><time>2026-03-22T13:50:34.127Z</time></trkpt><trkpt lat="49.213224" lon="5.6272091"><ele>203.0</ele><time>2026-03-22T13:50:35.127Z</time></trkpt><trkpt lat="49.2132101" lon="5.6270683"><ele>203.0</ele><time>2026-03-22T13:50:36.127Z</time></trkpt><trkpt lat="49.213197" lon="5.6269272"><ele>203.0</ele><time>2026-03-22T13:50:37.127Z</time></trkpt><trkpt lat="49.2131841" lon="5.6267871"><ele>203.0</ele><time>2026-03-22T13:50:38.127Z</time></trkpt><trkpt lat="49.2131705" lon="5.6266498"><ele>203.0</ele><time>2026-03-22T13:50:39.127Z</time></trkpt><trkpt lat="49.2131564" lon="5.6265122"><ele>203.0</ele><time>2026-03-22T13:50:40.127Z</time></trkpt><trkpt lat="49.2131411" lon="5.6263728"><ele>203.0</ele><time>2026-03-22T13:50:41.127Z</time></trkpt><trkpt lat="49.2131252" lon="5.6262309"><ele>203.0</ele><time>2026-03-22T13:50:42.127Z</time></trkpt><trkpt lat="49.21311" lon="5.6260846"><ele>203.0</ele><time>2026-03-22T13:50:43.127Z</time></trkpt><trkpt lat="49.2130957" lon="5.625936"><ele>203.0</ele><time>2026-03-22T13:50:44.127Z</time></trkpt><trkpt lat="49.2130811" lon="5.6257852"><ele>203.0</ele><time>2026-03-22T13:50:45.127Z</time></trkpt><trkpt lat="49.2130654" lon="5.6256338"><ele>203.0</ele><time>2026-03-22T13:50:46.127Z</time></trkpt><trkpt lat="49.21305" lon="5.6254811"><ele>203.0</ele><time>2026-03-22T13:50:47.127Z</time></trkpt><trkpt lat="49.2130354" lon="5.6253237"><ele>203.0</ele><time>2026-03-22T13:50:48.127Z</time></trkpt><trkpt lat="49.2130225" lon="5.6251576"><ele>203.0</ele><time>2026-03-22T13:50:49.128Z</time></trkpt><trkpt lat="49.2130097" lon="5.6249882"><ele>203.0</ele><time>2026-03-22T13:50:50.127Z</time></trkpt><trkpt lat="49.2129951" lon="5.6248202"><ele>203.0</ele><time>2026-03-22T13:50:51.127Z</time></trkpt><trkpt lat="49.2129786" lon="5.6246539"><ele>203.0</ele><time>2026-03-22T13:50:52.127Z</time></trkpt><trkpt lat="49.2129619" lon="5.6244868"><ele>203.0</ele><time>2026-03-22T13:50:53.127Z</time></trkpt><trkpt lat="49.2129461" lon="5.6243194"><ele>203.0</ele><time>2026-03-22T13:50:54.127Z</time></trkpt><trkpt lat="49.2129302" lon="5.62415"><ele>203.0</ele><time>2026-03-22T13:50:55.127Z</time></trkpt><trkpt lat="49.2129132" lon="5.6239809"><ele>203.0</ele><time>2026-03-22T13:50:56.127Z</time></trkpt><trkpt lat="49.2128976" lon="5.6238139"><ele>203.0</ele><time>2026-03-22T13:50:57.127Z</time></trkpt><trkpt lat="49.2128834" lon="5.6236488"><ele>203.0</ele><time>2026-03-22T13:50:58.127Z</time></trkpt><trkpt lat="49.2128698" lon="5.6234858"><ele>203.0</ele><time>2026-03-22T13:50:59.127Z</time></trkpt><trkpt lat="49.2128549" lon="5.6233246"><ele>203.0</ele><time>2026-03-22T13:51:00.127Z</time></trkpt><trkpt lat="49.2128395" lon="5.6231613"><ele>203.0</ele><time>2026-03-22T13:51:01.128Z</time></trkpt><trkpt lat="49.2128245" lon="5.6229971"><ele>203.0</ele><time>2026-03-22T13:51:02.127Z</time></trkpt><trkpt lat="49.212808" lon="5.6228324"><ele>203.0</ele><time>2026-03-22T13:51:03.127Z</time></trkpt><trkpt lat="49.2127901" lon="5.6226667"><ele>203.4</ele><time>2026-03-22T13:51:04.127Z</time></trkpt><trkpt lat="49.2127722" lon="5.622499"><ele>203.8</ele><time>2026-03-22T13:51:05.127Z</time></trkpt><trkpt lat="49.2127553" lon="5.6223327"><ele>204.2</ele><time>2026-03-22T13:51:06.127Z</time></trkpt><trkpt lat="49.2127389" lon="5.6221644"><ele>204.6</ele><time>2026-03-22T13:51:07.127Z</time></trkpt><trkpt lat="49.2127247" lon="5.6219979"><ele>205.0</ele><time>2026-03-22T13:51:08.127Z</time></trkpt><trkpt lat="49.212711" lon="5.6218293"><ele>205.25</ele><time>2026-03-22T13:51:09.127Z</time></trkpt><trkpt lat="49.2126949" lon="5.6216609"><ele>205.5</ele><time>2026-03-22T13:51:10.127Z</time></trkpt><trkpt lat="49.2126778" lon="5.6214914"><ele>205.75</ele><time>2026-03-22T13:51:11.127Z</time></trkpt><trkpt lat="49.2126604" lon="5.6213202"><ele>206.0</ele><time>2026-03-22T13:51:12.127Z</time></trkpt><trkpt lat="49.212645" lon="5.6211468"><ele>206.25</ele><time>2026-03-22T13:51:13.127Z</time></trkpt><trkpt lat="49.2126295" lon="5.6209725"><ele>206.5</ele><time>2026-03-22T13:51:14.127Z</time></trkpt><trkpt lat="49.2126137" lon="5.6207977"><ele>206.75</ele><time>2026-03-22T13:51:15.127Z</time></trkpt><trkpt lat="49.2125972" lon="5.620622"><ele>207.0</ele><time>2026-03-22T13:51:16.127Z</time></trkpt><trkpt lat="49.2125804" lon="5.6204491"><ele>207.0</ele><time>2026-03-22T13:51:17.127Z</time></trkpt><trkpt lat="49.2125633" lon="5.6202778"><ele>207.0</ele><time>2026-03-22T13:51:18.127Z</time></trkpt><trkpt lat="49.2125477" lon="5.6201073"><ele>207.0</ele><time>2026-03-22T13:51:19.127Z</time></trkpt><trkpt lat="49.2125329" lon="5.6199346"><ele>207.0</ele><time>2026-03-22T13:51:20.127Z</time></trkpt><trkpt lat="49.2125196" lon="5.6197599"><ele>207.0</ele><time>2026-03-22T13:51:21.128Z</time></trkpt><trkpt lat="49.2125052" lon="5.6195836"><ele>207.0</ele><time>2026-03-22T13:51:22.127Z</time></trkpt><trkpt lat="49.2124889" lon="5.6194062"><ele>207.0</ele><time>2026-03-22T13:51:23.127Z</time></trkpt><trkpt lat="49.2124729" lon="5.6192265"><ele>207.0</ele><time>2026-03-22T13:51:24.127Z</time></trkpt><trkpt lat="49.2124558" lon="5.6190457"><ele>207.0</ele><time>2026-03-22T13:51:25.127Z</time></trkpt><trkpt lat="49.2124373" lon="5.6188643"><ele>207.0</ele><time>2026-03-22T13:51:26.127Z</time></trkpt><trkpt lat="49.2124199" lon="5.6186813"><ele>207.0</ele><time>2026-03-22T13:51:27.127Z</time></trkpt><trkpt lat="49.2124028" lon="5.6184975"><ele>207.0</ele><time>2026-03-22T13:51:28.128Z</time></trkpt><trkpt lat="49.2123866" lon="5.6183121"><ele>207.25</ele><time>2026-03-22T13:51:29.128Z</time></trkpt><trkpt lat="49.21237" lon="5.6181244"><ele>207.5</ele><time>2026-03-22T13:51:30.127Z</time></trkpt><trkpt lat="49.2123539" lon="5.6179364"><ele>207.75</ele><time>2026-03-22T13:51:31.127Z</time></trkpt><trkpt lat="49.2123369" lon="5.6177497"><ele>208.0</ele><time>2026-03-22T13:51:32.127Z</time></trkpt><trkpt lat="49.2123192" lon="5.6175641"><ele>206.25</ele><time>2026-03-22T13:51:33.127Z</time></trkpt><trkpt lat="49.2123025" lon="5.6173781"><ele>204.5</ele><time>2026-03-22T13:51:34.128Z</time></trkpt><trkpt lat="49.2122845" lon="5.6171926"><ele>202.75</ele><time>2026-03-22T13:51:35.127Z</time></trkpt><trkpt lat="49.2122688" lon="5.617007"><ele>201.0</ele><time>2026-03-22T13:51:36.128Z</time></trkpt><trkpt lat="49.2122526" lon="5.6168214"><ele>201.0</ele><time>2026-03-22T13:51:37.127Z</time></trkpt><trkpt lat="49.2122365" lon="5.616639"><ele>201.0</ele><time>2026-03-22T13:51:38.127Z</time></trkpt><trkpt lat="49.2122196" lon="5.6164612"><ele>201.0</ele><time>2026-03-22T13:51:39.127Z</time></trkpt><trkpt lat="49.2122026" lon="5.6162859"><ele>201.0</ele><time>2026-03-22T13:51:40.127Z</time></trkpt><trkpt lat="49.212186" lon="5.6161149"><ele>201.25</ele><time>2026-03-22T13:51:41.127Z</time></trkpt><trkpt lat="49.2121699" lon="5.6159386"><ele>201.5</ele><time>2026-03-22T13:51:42.127Z</time></trkpt><trkpt lat="49.2121558" lon="5.6157624"><ele>201.75</ele><time>2026-03-22T13:51:43.127Z</time></trkpt><trkpt lat="49.2121405" lon="5.6155837"><ele>202.0</ele><time>2026-03-22T13:51:44.127Z</time></trkpt><trkpt lat="49.2121246" lon="5.6154024"><ele>202.0</ele><time>2026-03-22T13:51:45.128Z</time></trkpt><trkpt lat="49.2121057" lon="5.6152199"><ele>202.0</ele><time>2026-03-22T13:51:46.127Z</time></trkpt><trkpt lat="49.2120894" lon="5.6150353"><ele>202.0</ele><time>2026-03-22T13:51:47.127Z</time></trkpt><trkpt lat="49.2120718" lon="5.6148492"><ele>202.0</ele><time>2026-03-22T13:51:48.127Z</time></trkpt><trkpt lat="49.2120543" lon="5.6146626"><ele>202.25</ele><time>2026-03-22T13:51:49.127Z</time></trkpt><trkpt lat="49.2120355" lon="5.6144769"><ele>202.5</ele><time>2026-03-22T13:51:50.127Z</time></trkpt><trkpt lat="49.212016" lon="5.6142871"><ele>202.75</ele><time>2026-03-22T13:51:51.128Z</time></trkpt><trkpt lat="49.2119958" lon="5.614098"><ele>203.0</ele><time>2026-03-22T13:51:52.127Z</time></trkpt><trkpt lat="49.2119783" lon="5.6139084"><ele>203.0</ele><time>2026-03-22T13:51:53.127Z</time></trkpt><trkpt lat="49.2119611" lon="5.6137179"><ele>203.0</ele><time>2026-03-22T13:51:54.127Z</time></trkpt><trkpt lat="49.2119437" lon="5.613527"><ele>203.0</ele><time>2026-03-22T13:51:55.127Z</time></trkpt><trkpt lat="49.2119254" lon="5.6133361"><ele>203.0</ele><time>2026-03-22T13:51:56.128Z</time></trkpt><trkpt lat="49.2119076" lon="5.6131457"><ele>203.0</ele><time>2026-03-22T13:51:57.128Z</time></trkpt><trkpt lat="49.2118913" lon="5.6129571"><ele>203.0</ele><time>2026-03-22T13:51:58.127Z</time></trkpt><trkpt lat="49.2118728" lon="5.6127695"><ele>203.0</ele><time>2026-03-22T13:51:59.127Z</time></trkpt><trkpt lat="49.2118545" lon="5.6125843"><ele>203.0</ele><time>2026-03-22T13:52:00.127Z</time></trkpt><trkpt lat="49.2118371" lon="5.6123992"><ele>203.0</ele><time>2026-03-22T13:52:01.127Z</time></trkpt><trkpt lat="49.2118201" lon="5.6122144"><ele>203.0</ele><time>2026-03-22T13:52:02.127Z</time></trkpt><trkpt lat="49.2118032" lon="5.6120289"><ele>203.0</ele><time>2026-03-22T13:52:03.127Z</time></trkpt><trkpt lat="49.2117855" lon="5.6118418"><ele>203.0</ele><time>2026-03-22T13:52:04.127Z</time></trkpt><trkpt lat="49.2117664" lon="5.6116502"><ele>203.25</ele><time>2026-03-22T13:52:05.127Z</time></trkpt><trkpt lat="49.2117456" lon="5.6114555"><ele>203.5</ele><time>2026-03-22T13:52:06.128Z</time></trkpt><trkpt lat="49.2117241" lon="5.6112575"><ele>203.75</ele><time>2026-03-22T13:52:07.127Z</time></trkpt><trkpt lat="49.2117063" lon="5.6110556"><ele>204.0</ele><time>2026-03-22T13:52:08.127Z</time></trkpt><trkpt lat="49.2116881" lon="5.6108524"><ele>204.5</ele><time>2026-03-22T13:52:09.127Z</time></trkpt><trkpt lat="49.2116694" lon="5.6106508"><ele>205.0</ele><time>2026-03-22T13:52:10.127Z</time></trkpt><trkpt lat="49.2116498" lon="5.6104537"><ele>205.5</ele><time>2026-03-22T13:52:11.128Z</time></trkpt><trkpt lat="49.2116294" lon="5.6102639"><ele>206.0</ele><time>2026-03-22T13:52:12.127Z</time></trkpt><trkpt lat="49.2116116" lon="5.6100735"><ele>206.5</ele><time>2026-03-22T13:52:13.127Z</time></trkpt><trkpt lat="49.2115955" lon="5.6098807"><ele>207.0</ele><time>2026-03-22T13:52:14.127Z</time></trkpt><trkpt lat="49.2115812" lon="5.6096896"><ele>207.5</ele><time>2026-03-22T13:52:15.128Z</time></trkpt><trkpt lat="49.2115655" lon="5.6095002"><ele>208.0</ele><time>2026-03-22T13:52:16.127Z</time></trkpt><trkpt lat="49.211548" lon="5.6093131"><ele>208.5</ele><time>2026-03-22T13:52:17.128Z</time></trkpt><trkpt lat="49.2115301" lon="5.6091269"><ele>209.0</ele><time>2026-03-22T13:52:18.127Z</time></trkpt><trkpt lat="49.2115128" lon="5.608943"><ele>209.5</ele><time>2026-03-22T13:52:19.127Z</time></trkpt><trkpt lat="49.211496" lon="5.6087599"><ele>210.0</ele><time>2026-03-22T13:52:20.128Z</time></trkpt><trkpt lat="49.2114795" lon="5.608575"><ele>210.25</ele><time>2026-03-22T13:52:21.127Z</time></trkpt><trkpt lat="49.2114607" lon="5.6083892"><ele>210.5</ele><time>2026-03-22T13:52:22.127Z</time></trkpt><trkpt lat="49.2114432" lon="5.6082021"><ele>210.75</ele><time>2026-03-22T13:52:23.127Z</time></trkpt><trkpt lat="49.2114252" lon="5.6080144"><ele>211.0</ele><time>2026-03-22T13:52:24.127Z</time></trkpt><trkpt lat="49.2114062" lon="5.6078252"><ele>211.0</ele><time>2026-03-22T13:52:25.127Z</time></trkpt><trkpt lat="49.2113881" lon="5.6076346"><ele>211.0</ele><time>2026-03-22T13:52:26.127Z</time></trkpt><trkpt lat="49.211372" lon="5.6074425"><ele>211.0</ele><time>2026-03-22T13:52:27.127Z</time></trkpt><trkpt lat="49.2113556" lon="5.6072479"><ele>211.0</ele><time>2026-03-22T13:52:28.127Z</time></trkpt><trkpt lat="49.2113395" lon="5.6070531"><ele>210.75</ele><time>2026-03-22T13:52:29.127Z</time></trkpt><trkpt lat="49.2113239" lon="5.606858"><ele>210.5</ele><time>2026-03-22T13:52:30.128Z</time></trkpt><trkpt lat="49.2113078" lon="5.6066655"><ele>210.25</ele><time>2026-03-22T13:52:31.127Z</time></trkpt><trkpt lat="49.2112917" lon="5.6064733"><ele>210.0</ele><time>2026-03-22T13:52:32.128Z</time></trkpt><trkpt lat="49.2112737" lon="5.6062825"><ele>210.25</ele><time>2026-03-22T13:52:33.127Z</time></trkpt><trkpt lat="49.2112567" lon="5.6060909"><ele>210.5</ele><time>2026-03-22T13:52:34.127Z</time></trkpt><trkpt lat="49.2112404" lon="5.6058997"><ele>210.75</ele><time>2026-03-22T13:52:35.127Z</time></trkpt><trkpt lat="49.2112227" lon="5.6057079"><ele>211.0</ele><time>2026-03-22T13:52:36.127Z</time></trkpt><trkpt lat="49.2112026" lon="5.6055178"><ele>211.0</ele><time>2026-03-22T13:52:37.128Z</time></trkpt><trkpt lat="49.2111851" lon="5.6053276"><ele>211.0</ele><time>2026-03-22T13:52:38.127Z</time></trkpt><trkpt lat="49.2111676" lon="5.6051378"><ele>211.0</ele><time>2026-03-22T13:52:39.128Z</time></trkpt><trkpt lat="49.2111486" lon="5.6049468"><ele>211.0</ele><time>2026-03-22T13:52:40.127Z</time></trkpt><trkpt lat="49.2111284" lon="5.6047538"><ele>211.0</ele><time>2026-03-22T13:52:41.127Z</time></trkpt><trkpt lat="49.2111073" lon="5.6045608"><ele>211.0</ele><time>2026-03-22T13:52:42.127Z</time></trkpt><trkpt lat="49.2110853" lon="5.604368"><ele>211.0</ele><time>2026-03-22T13:52:43.127Z</time></trkpt><trkpt lat="49.2110653" lon="5.604177"><ele>211.0</ele><time>2026-03-22T13:52:44.127Z</time></trkpt><trkpt lat="49.2110496" lon="5.6039857"><ele>211.0</ele><time>2026-03-22T13:52:45.127Z</time></trkpt><trkpt lat="49.2110321" lon="5.6037926"><ele>211.0</ele><time>2026-03-22T13:52:46.127Z</time></trkpt><trkpt lat="49.2110163" lon="5.6035985"><ele>211.0</ele><time>2026-03-22T13:52:47.128Z</time></trkpt><trkpt lat="49.2110007" lon="5.6034049"><ele>211.0</ele><time>2026-03-22T13:52:48.128Z</time></trkpt><trkpt lat="49.2109833" lon="5.6032133"><ele>211.0</ele><time>2026-03-22T13:52:49.127Z</time></trkpt><trkpt lat="49.2109647" lon="5.6030234"><ele>211.0</ele><time>2026-03-22T13:52:50.127Z</time></trkpt><trkpt lat="49.210946" lon="5.6028352"><ele>211.0</ele><time>2026-03-22T13:52:51.127Z</time></trkpt><trkpt lat="49.2109281" lon="5.6026483"><ele>211.0</ele><time>2026-03-22T13:52:52.128Z</time></trkpt><trkpt lat="49.2109101" lon="5.6024622"><ele>211.0</ele><time>2026-03-22T13:52:53.128Z</time></trkpt><trkpt lat="49.2108926" lon="5.6022769"><ele>211.0</ele><time>2026-03-22T13:52:54.127Z</time></trkpt><trkpt lat="49.2108749" lon="5.6020926"><ele>211.0</ele><time>2026-03-22T13:52:55.127Z</time></trkpt><trkpt lat="49.2108567" lon="5.6019103"><ele>211.0</ele><time>2026-03-22T13:52:56.127Z</time></trkpt><trkpt lat="49.210839" lon="5.6017274"><ele>211.0</ele><time>2026-03-22T13:52:57.127Z</time></trkpt><trkpt lat="49.2108211" lon="5.6015445"><ele>211.0</ele><time>2026-03-22T13:52:58.127Z</time></trkpt><trkpt lat="49.2108021" lon="5.6013615"><ele>211.0</ele><time>2026-03-22T13:52:59.127Z</time></trkpt><trkpt lat="49.2107845" lon="5.6011769"><ele>211.0</ele><time>2026-03-22T13:53:00.127Z</time></trkpt><trkpt lat="49.2107673" lon="5.6009915"><ele>210.75</ele><time>2026-03-22T13:53:01.127Z</time></trkpt><trkpt lat="49.2107487" lon="5.600805"><ele>210.5</ele><time>2026-03-22T13:53:02.127Z</time></trkpt><trkpt lat="49.2107304" lon="5.6006165"><ele>210.25</ele><time>2026-03-22T13:53:03.127Z</time></trkpt><trkpt lat="49.2107138" lon="5.6004263"><ele>210.0</ele><time>2026-03-22T13:53:04.127Z</time></trkpt><trkpt lat="49.2106971" lon="5.600234"><ele>209.5</ele><time>2026-03-22T13:53:05.127Z</time></trkpt><trkpt lat="49.21068" lon="5.6000415"><ele>209.0</ele><time>2026-03-22T13:53:06.127Z</time></trkpt><trkpt lat="49.2106622" lon="5.5998476"><ele>208.5</ele><time>2026-03-22T13:53:07.127Z</time></trkpt><trkpt lat="49.210644" lon="5.5996542"><ele>208.0</ele><time>2026-03-22T13:53:08.127Z</time></trkpt><trkpt lat="49.210625" lon="5.5994605"><ele>208.0</ele><time>2026-03-22T13:53:09.128Z</time></trkpt><trkpt lat="49.2106051" lon="5.599267"><ele>208.0</ele><time>2026-03-22T13:53:10.127Z</time></trkpt><trkpt lat="49.2105855" lon="5.5990746"><ele>208.0</ele><time>2026-03-22T13:53:11.127Z</time></trkpt><trkpt lat="49.210566" lon="5.5988818"><ele>208.0</ele><time>2026-03-22T13:53:12.127Z</time></trkpt><trkpt lat="49.2105485" lon="5.5986902"><ele>207.75</ele><time>2026-03-22T13:53:13.128Z</time></trkpt><trkpt lat="49.2105322" lon="5.5984988"><ele>207.5</ele><time>2026-03-22T13:53:14.127Z</time></trkpt><trkpt lat="49.2105157" lon="5.5983076"><ele>207.25</ele><time>2026-03-22T13:53:15.127Z</time></trkpt><trkpt lat="49.2104993" lon="5.598118"><ele>207.0</ele><time>2026-03-22T13:53:16.127Z</time></trkpt><trkpt lat="49.2104835" lon="5.5979361"><ele>207.39999999999998</ele><time>2026-03-22T13:53:17.127Z</time></trkpt><trkpt lat="49.2104683" lon="5.5977625"><ele>207.79999999999998</ele><time>2026-03-22T13:53:18.127Z</time></trkpt><trkpt lat="49.2104537" lon="5.597595"><ele>208.2</ele><time>2026-03-22T13:53:19.127Z</time></trkpt><trkpt lat="49.210437" lon="5.5974335"><ele>208.6</ele><time>2026-03-22T13:53:20.128Z</time></trkpt><trkpt lat="49.2104215" lon="5.5972733"><ele>209.0</ele><time>2026-03-22T13:53:21.127Z</time></trkpt><trkpt lat="49.2104064" lon="5.5971116"><ele>209.2</ele><time>2026-03-22T13:53:22.127Z</time></trkpt><trkpt lat="49.2103917" lon="5.596951"><ele>209.39999999999998</ele><time>2026-03-22T13:53:23.127Z</time></trkpt><trkpt lat="49.2103774" lon="5.596792"><ele>209.6</ele><time>2026-03-22T13:53:24.127Z</time></trkpt><trkpt lat="49.210363" lon="5.5966342"><ele>209.8</ele><time>2026-03-22T13:53:25.127Z</time></trkpt><trkpt lat="49.2103487" lon="5.5964786"><ele>210.0</ele><time>2026-03-22T13:53:26.127Z</time></trkpt><trkpt lat="49.2103336" lon="5.5963245"><ele>210.0</ele><time>2026-03-22T13:53:27.127Z</time></trkpt><trkpt lat="49.2103175" lon="5.5961703"><ele>210.0</ele><time>2026-03-22T13:53:28.127Z</time></trkpt><trkpt lat="49.2103016" lon="5.5960152"><ele>210.0</ele><time>2026-03-22T13:53:29.127Z</time></trkpt><trkpt lat="49.2102869" lon="5.5958572"><ele>210.0</ele><time>2026-03-22T13:53:30.127Z</time></trkpt><trkpt lat="49.2102718" lon="5.595695"><ele>210.0</ele><time>2026-03-22T13:53:31.127Z</time></trkpt><trkpt lat="49.2102569" lon="5.5955305"><ele>210.0</ele><time>2026-03-22T13:53:32.127Z</time></trkpt><trkpt lat="49.2102423" lon="5.5953691"><ele>210.0</ele><time>2026-03-22T13:53:33.127Z</time></trkpt><trkpt lat="49.2102289" lon="5.5952117"><ele>210.0</ele><time>2026-03-22T13:53:34.127Z</time></trkpt><trkpt lat="49.210215" lon="5.5950576"><ele>210.0</ele><time>2026-03-22T13:53:35.127Z</time></trkpt><trkpt lat="49.2102002" lon="5.5949078"><ele>210.0</ele><time>2026-03-22T13:53:36.127Z</time></trkpt><trkpt lat="49.2101874" lon="5.5947596"><ele>210.0</ele><time>2026-03-22T13:53:37.127Z</time></trkpt><trkpt lat="49.2101758" lon="5.5946146"><ele>210.0</ele><time>2026-03-22T13:53:38.127Z</time></trkpt><trkpt lat="49.2101631" lon="5.5944719"><ele>210.0</ele><time>2026-03-22T13:53:39.127Z</time></trkpt><trkpt lat="49.2101498" lon="5.5943262"><ele>210.0</ele><time>2026-03-22T13:53:40.128Z</time></trkpt><trkpt lat="49.2101357" lon="5.5941738"><ele>210.0</ele><time>2026-03-22T13:53:41.127Z</time></trkpt><trkpt lat="49.2101203" lon="5.594016"><ele>210.0</ele><time>2026-03-22T13:53:42.127Z</time></trkpt><trkpt lat="49.2101053" lon="5.5938579"><ele>210.0</ele><time>2026-03-22T13:53:43.127Z</time></trkpt><trkpt lat="49.210089" lon="5.5936939"><ele>210.0</ele><time>2026-03-22T13:53:44.127Z</time></trkpt><trkpt lat="49.2100747" lon="5.5935272"><ele>210.0</ele><time>2026-03-22T13:53:45.127Z</time></trkpt><trkpt lat="49.2100599" lon="5.5933609"><ele>210.0</ele><time>2026-03-22T13:53:46.127Z</time></trkpt><trkpt lat="49.2100455" lon="5.5931944"><ele>210.0</ele><time>2026-03-22T13:53:47.127Z</time></trkpt><trkpt lat="49.2100314" lon="5.5930275"><ele>210.0</ele><time>2026-03-22T13:53:48.127Z</time></trkpt><trkpt lat="49.2100154" lon="5.5928593"><ele>210.0</ele><time>2026-03-22T13:53:49.127Z</time></trkpt><trkpt lat="49.2100019" lon="5.5926925"><ele>210.0</ele><time>2026-03-22T13:53:50.127Z</time></trkpt><trkpt lat="49.2099853" lon="5.5925249"><ele>210.0</ele><time>2026-03-22T13:53:51.127Z</time></trkpt><trkpt lat="49.209965" lon="5.5923576"><ele>210.25</ele><time>2026-03-22T13:53:52.127Z</time></trkpt><trkpt lat="49.209948" lon="5.5921861"><ele>210.5</ele><time>2026-03-22T13:53:53.127Z</time></trkpt><trkpt lat="49.2099318" lon="5.592012"><ele>210.75</ele><time>2026-03-22T13:53:54.127Z</time></trkpt><trkpt lat="49.2099152" lon="5.5918368"><ele>211.0</ele><time>2026-03-22T13:53:55.127Z</time></trkpt><trkpt lat="49.209899" lon="5.5916611"><ele>211.5</ele><time>2026-03-22T13:53:56.128Z</time></trkpt><trkpt lat="49.2098831" lon="5.5914848"><ele>212.0</ele><time>2026-03-22T13:53:57.127Z</time></trkpt><trkpt lat="49.2098663" lon="5.5913111"><ele>212.5</ele><time>2026-03-22T13:53:58.127Z</time></trkpt><trkpt lat="49.2098505" lon="5.5911427"><ele>213.0</ele><time>2026-03-22T13:53:59.127Z</time></trkpt><trkpt lat="49.2098354" lon="5.590975"><ele>213.4</ele><time>2026-03-22T13:54:00.127Z</time></trkpt><trkpt lat="49.2098199" lon="5.590805"><ele>213.8</ele><time>2026-03-22T13:54:01.127Z</time></trkpt><trkpt lat="49.2098045" lon="5.5906352"><ele>214.2</ele><time>2026-03-22T13:54:02.127Z</time></trkpt><trkpt lat="49.2097893" lon="5.5904653"><ele>214.6</ele><time>2026-03-22T13:54:03.128Z</time></trkpt><trkpt lat="49.2097742" lon="5.5902957"><ele>215.0</ele><time>2026-03-22T13:54:04.127Z</time></trkpt><trkpt lat="49.2097588" lon="5.5901284"><ele>215.0</ele><time>2026-03-22T13:54:05.127Z</time></trkpt><trkpt lat="49.2097435" lon="5.5899613"><ele>215.0</ele><time>2026-03-22T13:54:06.127Z</time></trkpt><trkpt lat="49.209728" lon="5.5897936"><ele>215.0</ele><time>2026-03-22T13:54:07.127Z</time></trkpt><trkpt lat="49.2097117" lon="5.5896231"><ele>215.0</ele><time>2026-03-22T13:54:08.127Z</time></trkpt><trkpt lat="49.2096965" lon="5.5894493"><ele>215.0</ele><time>2026-03-22T13:54:09.128Z</time></trkpt><trkpt lat="49.2096797" lon="5.5892754"><ele>215.0</ele><time>2026-03-22T13:54:10.128Z</time></trkpt><trkpt lat="49.2096616" lon="5.5891021"><ele>215.0</ele><time>2026-03-22T13:54:11.127Z</time></trkpt><trkpt lat="49.2096421" lon="5.5889283"><ele>215.0</ele><time>2026-03-22T13:54:12.127Z</time></trkpt><trkpt lat="49.2096193" lon="5.5887536"><ele>215.0</ele><time>2026-03-22T13:54:13.127Z</time></trkpt><trkpt lat="49.2095931" lon="5.5885798"><ele>215.25</ele><time>2026-03-22T13:54:14.128Z</time></trkpt><trkpt lat="49.2095638" lon="5.5884093"><ele>215.5</ele><time>2026-03-22T13:54:15.127Z</time></trkpt><trkpt lat="49.2095298" lon="5.5882396"><ele>215.75</ele><time>2026-03-22T13:54:16.127Z</time></trkpt><trkpt lat="49.2094954" lon="5.5880674"><ele>216.0</ele><time>2026-03-22T13:54:17.127Z</time></trkpt><trkpt lat="49.2094601" lon="5.5878948"><ele>215.5</ele><time>2026-03-22T13:54:18.127Z</time></trkpt><trkpt lat="49.2094218" lon="5.5877257"><ele>215.0</ele><time>2026-03-22T13:54:19.127Z</time></trkpt><trkpt lat="49.209381" lon="5.5875597"><ele>214.5</ele><time>2026-03-22T13:54:20.127Z</time></trkpt><trkpt lat="49.2093393" lon="5.5873968"><ele>214.0</ele><time>2026-03-22T13:54:21.127Z</time></trkpt><trkpt lat="49.2092967" lon="5.5872344"><ele>214.0</ele><time>2026-03-22T13:54:22.127Z</time></trkpt><trkpt lat="49.2092535" lon="5.5870709"><ele>214.0</ele><time>2026-03-22T13:54:23.127Z</time></trkpt><trkpt lat="49.20921" lon="5.5869083"><ele>214.0</ele><time>2026-03-22T13:54:24.127Z</time></trkpt><trkpt lat="49.2091662" lon="5.5867443"><ele>214.0</ele><time>2026-03-22T13:54:25.127Z</time></trkpt><trkpt lat="49.2091234" lon="5.5865851"><ele>213.79999999999998</ele><time>2026-03-22T13:54:26.128Z</time></trkpt><trkpt lat="49.2090817" lon="5.5864276"><ele>213.59999999999997</ele><time>2026-03-22T13:54:27.127Z</time></trkpt><trkpt lat="49.2090426" lon="5.5862709"><ele>213.4</ele><time>2026-03-22T13:54:28.127Z</time></trkpt><trkpt lat="49.209004" lon="5.5861154"><ele>213.2</ele><time>2026-03-22T13:54:29.127Z</time></trkpt><trkpt lat="49.2089637" lon="5.58596"><ele>213.0</ele><time>2026-03-22T13:54:30.127Z</time></trkpt><trkpt lat="49.2089242" lon="5.5858033"><ele>213.0</ele><time>2026-03-22T13:54:31.127Z</time></trkpt><trkpt lat="49.2088838" lon="5.5856455"><ele>213.0</ele><time>2026-03-22T13:54:32.127Z</time></trkpt><trkpt lat="49.208843" lon="5.5854888"><ele>213.0</ele><time>2026-03-22T13:54:33.127Z</time></trkpt><trkpt lat="49.2088014" lon="5.5853321"><ele>213.0</ele><time>2026-03-22T13:54:34.127Z</time></trkpt><trkpt lat="49.2087582" lon="5.5851729"><ele>213.0</ele><time>2026-03-22T13:54:35.127Z</time></trkpt><trkpt lat="49.2087132" lon="5.5850124"><ele>212.8</ele><time>2026-03-22T13:54:36.127Z</time></trkpt><trkpt lat="49.2086703" lon="5.5848524"><ele>212.60000000000002</ele><time>2026-03-22T13:54:37.127Z</time></trkpt><trkpt lat="49.2086278" lon="5.5846943"><ele>212.39999999999998</ele><time>2026-03-22T13:54:38.127Z</time></trkpt><trkpt lat="49.2085863" lon="5.5845363"><ele>212.2</ele><time>2026-03-22T13:54:39.128Z</time></trkpt><trkpt lat="49.2085444" lon="5.5843788"><ele>212.0</ele><time>2026-03-22T13:54:40.127Z</time></trkpt><trkpt lat="49.2085042" lon="5.5842211"><ele>211.8</ele><time>2026-03-22T13:54:41.127Z</time></trkpt><trkpt lat="49.2084652" lon="5.5840672"><ele>211.6</ele><time>2026-03-22T13:54:42.127Z</time></trkpt><trkpt lat="49.2084276" lon="5.5839148"><ele>211.4</ele><time>2026-03-22T13:54:43.127Z</time></trkpt><trkpt lat="49.20839" lon="5.5837621"><ele>211.20000000000002</ele><time>2026-03-22T13:54:44.127Z</time></trkpt><trkpt lat="49.2083518" lon="5.5836108"><ele>211.0</ele><time>2026-03-22T13:54:45.127Z</time></trkpt><trkpt lat="49.2083134" lon="5.5834599"><ele>211.0</ele><time>2026-03-22T13:54:46.127Z</time></trkpt><trkpt lat="49.2082743" lon="5.5833096"><ele>211.0</ele><time>2026-03-22T13:54:47.127Z</time></trkpt><trkpt lat="49.2082343" lon="5.5831603"><ele>211.0</ele><time>2026-03-22T13:54:48.127Z</time></trkpt><trkpt lat="49.2081948" lon="5.5830103"><ele>211.0</ele><time>2026-03-22T13:54:49.128Z</time></trkpt><trkpt lat="49.208157" lon="5.5828618"><ele>211.0</ele><time>2026-03-22T13:54:50.127Z</time></trkpt><trkpt lat="49.2081206" lon="5.5827138"><ele>211.0</ele><time>2026-03-22T13:54:51.127Z</time></trkpt><trkpt lat="49.2080843" lon="5.582567"><ele>211.0</ele><time>2026-03-22T13:54:52.127Z</time></trkpt><trkpt lat="49.2080464" lon="5.5824226"><ele>211.0</ele><time>2026-03-22T13:54:53.127Z</time></trkpt><trkpt lat="49.2080099" lon="5.5822783"><ele>211.0</ele><time>2026-03-22T13:54:54.127Z</time></trkpt><trkpt lat="49.2079723" lon="5.5821355"><ele>211.0</ele><time>2026-03-22T13:54:55.127Z</time></trkpt><trkpt lat="49.2079347" lon="5.5819932"><ele>211.0</ele><time>2026-03-22T13:54:56.127Z</time></trkpt><trkpt lat="49.2078979" lon="5.5818508"><ele>211.0</ele><time>2026-03-22T13:54:57.127Z</time></trkpt><trkpt lat="49.2078619" lon="5.5817087"><ele>211.0</ele><time>2026-03-22T13:54:58.127Z</time></trkpt><trkpt lat="49.2078269" lon="5.5815655"><ele>211.0</ele><time>2026-03-22T13:54:59.127Z</time></trkpt><trkpt lat="49.2077909" lon="5.5814192"><ele>211.0</ele><time>2026-03-22T13:55:00.127Z</time></trkpt><trkpt lat="49.2077543" lon="5.5812698"><ele>210.8</ele><time>2026-03-22T13:55:01.127Z</time></trkpt><trkpt lat="49.2077161" lon="5.5811193"><ele>210.60000000000002</ele><time>2026-03-22T13:55:02.128Z</time></trkpt><trkpt lat="49.2076764" lon="5.5809694"><ele>210.4</ele><time>2026-03-22T13:55:03.127Z</time></trkpt><trkpt lat="49.2076357" lon="5.5808241"><ele>210.2</ele><time>2026-03-22T13:55:04.127Z</time></trkpt><trkpt lat="49.2075971" lon="5.5806815"><ele>210.0</ele><time>2026-03-22T13:55:05.128Z</time></trkpt><trkpt lat="49.2075588" lon="5.5805364"><ele>210.0</ele><time>2026-03-22T13:55:06.127Z</time></trkpt><trkpt lat="49.2075188" lon="5.5803879"><ele>210.0</ele><time>2026-03-22T13:55:07.127Z</time></trkpt><trkpt lat="49.2074788" lon="5.5802338"><ele>210.0</ele><time>2026-03-22T13:55:08.127Z</time></trkpt><trkpt lat="49.2074379" lon="5.5800777"><ele>210.0</ele><time>2026-03-22T13:55:09.127Z</time></trkpt><trkpt lat="49.2073957" lon="5.5799198"><ele>210.0</ele><time>2026-03-22T13:55:10.127Z</time></trkpt><trkpt lat="49.2073545" lon="5.5797585"><ele>210.0</ele><time>2026-03-22T13:55:11.127Z</time></trkpt><trkpt lat="49.2073143" lon="5.5795949"><ele>210.0</ele><time>2026-03-22T13:55:12.128Z</time></trkpt><trkpt lat="49.2072746" lon="5.5794288"><ele>210.0</ele><time>2026-03-22T13:55:13.127Z</time></trkpt><trkpt lat="49.2072312" lon="5.5792614"><ele>210.0</ele><time>2026-03-22T13:55:14.127Z</time></trkpt><trkpt lat="49.2071875" lon="5.5790916"><ele>210.0</ele><time>2026-03-22T13:55:15.127Z</time></trkpt><trkpt lat="49.2071453" lon="5.5789195"><ele>210.0</ele><time>2026-03-22T13:55:16.127Z</time></trkpt><trkpt lat="49.2071023" lon="5.578749"><ele>210.0</ele><time>2026-03-22T13:55:17.127Z</time></trkpt><trkpt lat="49.2070581" lon="5.5785792"><ele>210.0</ele><time>2026-03-22T13:55:18.127Z</time></trkpt><trkpt lat="49.2070144" lon="5.5784107"><ele>210.5</ele><time>2026-03-22T13:55:19.127Z</time></trkpt><trkpt lat="49.2069715" lon="5.5782407"><ele>211.0</ele><time>2026-03-22T13:55:20.127Z</time></trkpt><trkpt lat="49.2069272" lon="5.5780726"><ele>211.5</ele><time>2026-03-22T13:55:21.128Z</time></trkpt><trkpt lat="49.2068835" lon="5.5779047"><ele>212.0</ele><time>2026-03-22T13:55:22.127Z</time></trkpt><trkpt lat="49.2068416" lon="5.5777363"><ele>212.0</ele><time>2026-03-22T13:55:23.127Z</time></trkpt><trkpt lat="49.2067993" lon="5.5775679"><ele>212.0</ele><time>2026-03-22T13:55:24.127Z</time></trkpt><trkpt lat="49.2067565" lon="5.5773995"><ele>212.0</ele><time>2026-03-22T13:55:25.127Z</time></trkpt><trkpt lat="49.2067142" lon="5.5772303"><ele>212.0</ele><time>2026-03-22T13:55:26.127Z</time></trkpt><trkpt lat="49.2066722" lon="5.5770613"><ele>212.0</ele><time>2026-03-22T13:55:27.127Z</time></trkpt><trkpt lat="49.2066291" lon="5.5768952"><ele>212.0</ele><time>2026-03-22T13:55:28.127Z</time></trkpt><trkpt lat="49.2065871" lon="5.5767325"><ele>212.0</ele><time>2026-03-22T13:55:29.127Z</time></trkpt><trkpt lat="49.2065472" lon="5.5765706"><ele>212.0</ele><time>2026-03-22T13:55:30.127Z</time></trkpt><trkpt lat="49.2065075" lon="5.5764096"><ele>212.0</ele><time>2026-03-22T13:55:31.127Z</time></trkpt><trkpt lat="49.2064674" lon="5.5762506"><ele>212.0</ele><time>2026-03-22T13:55:32.127Z</time></trkpt><trkpt lat="49.2064257" lon="5.5760934"><ele>212.0</ele><time>2026-03-22T13:55:33.127Z</time></trkpt><trkpt lat="49.2063818" lon="5.5759365"><ele>212.0</ele><time>2026-03-22T13:55:34.127Z</time></trkpt><trkpt lat="49.2063387" lon="5.5757765"><ele>212.0</ele><time>2026-03-22T13:55:35.127Z</time></trkpt><trkpt lat="49.2062963" lon="5.5756138"><ele>212.0</ele><time>2026-03-22T13:55:36.127Z</time></trkpt><trkpt lat="49.2062532" lon="5.5754509"><ele>212.0</ele><time>2026-03-22T13:55:37.127Z</time></trkpt><trkpt lat="49.2062116" lon="5.575288"><ele>212.0</ele><time>2026-03-22T13:55:38.128Z</time></trkpt><trkpt lat="49.2061702" lon="5.5751224"><ele>212.0</ele><time>2026-03-22T13:55:39.127Z</time></trkpt><trkpt lat="49.2061276" lon="5.5749553"><ele>211.75</ele><time>2026-03-22T13:55:40.127Z</time></trkpt><trkpt lat="49.2060842" lon="5.5747879"><ele>211.5</ele><time>2026-03-22T13:55:41.127Z</time></trkpt><trkpt lat="49.2060413" lon="5.5746186"><ele>211.25</ele><time>2026-03-22T13:55:42.128Z</time></trkpt><trkpt lat="49.2059978" lon="5.57445"><ele>211.0</ele><time>2026-03-22T13:55:43.127Z</time></trkpt><trkpt lat="49.2059535" lon="5.5742814"><ele>211.0</ele><time>2026-03-22T13:55:44.127Z</time></trkpt><trkpt lat="49.205909" lon="5.5741134"><ele>211.0</ele><time>2026-03-22T13:55:45.127Z</time></trkpt><trkpt lat="49.2058658" lon="5.5739452"><ele>211.0</ele><time>2026-03-22T13:55:46.127Z</time></trkpt><trkpt lat="49.2058238" lon="5.5737763"><ele>211.0</ele><time>2026-03-22T13:55:47.127Z</time></trkpt><trkpt lat="49.2057815" lon="5.5736089"><ele>211.25</ele><time>2026-03-22T13:55:48.127Z</time></trkpt><trkpt lat="49.2057381" lon="5.5734421"><ele>211.5</ele><time>2026-03-22T13:55:49.128Z</time></trkpt><trkpt lat="49.2056934" lon="5.5732734"><ele>211.75</ele><time>2026-03-22T13:55:50.127Z</time></trkpt><trkpt lat="49.2056482" lon="5.5731001"><ele>212.0</ele><time>2026-03-22T13:55:51.127Z</time></trkpt><trkpt lat="49.2056028" lon="5.5729264"><ele>212.25</ele><time>2026-03-22T13:55:52.127Z</time></trkpt><trkpt lat="49.2055588" lon="5.5727539"><ele>212.5</ele><time>2026-03-22T13:55:53.127Z</time></trkpt><trkpt lat="49.2055163" lon="5.5725831"><ele>212.75</ele><time>2026-03-22T13:55:54.128Z</time></trkpt><trkpt lat="49.2054744" lon="5.5724139"><ele>213.0</ele><time>2026-03-22T13:55:55.127Z</time></trkpt><trkpt lat="49.2054317" lon="5.5722471"><ele>213.0</ele><time>2026-03-22T13:55:56.128Z</time></trkpt><trkpt lat="49.2053889" lon="5.5720821"><ele>213.0</ele><time>2026-03-22T13:55:57.127Z</time></trkpt><trkpt lat="49.2053463" lon="5.5719207"><ele>213.0</ele><time>2026-03-22T13:55:58.127Z</time></trkpt><trkpt lat="49.2053029" lon="5.5717594"><ele>213.0</ele><time>2026-03-22T13:55:59.127Z</time></trkpt><trkpt lat="49.2052621" lon="5.5715939"><ele>213.0</ele><time>2026-03-22T13:56:00.127Z</time></trkpt><trkpt lat="49.2052212" lon="5.5714286"><ele>213.0</ele><time>2026-03-22T13:56:01.127Z</time></trkpt><trkpt lat="49.2051798" lon="5.5712632"><ele>213.0</ele><time>2026-03-22T13:56:02.128Z</time></trkpt><trkpt lat="49.2051373" lon="5.5710983"><ele>213.0</ele><time>2026-03-22T13:56:03.127Z</time></trkpt><trkpt lat="49.2050939" lon="5.5709343"><ele>213.75</ele><time>2026-03-22T13:56:04.127Z</time></trkpt><trkpt lat="49.2050494" lon="5.5707665"><ele>214.5</ele><time>2026-03-22T13:56:05.127Z</time></trkpt><trkpt lat="49.2050055" lon="5.5705942"><ele>215.25</ele><time>2026-03-22T13:56:06.127Z</time></trkpt><trkpt lat="49.2049631" lon="5.5704203"><ele>216.0</ele><time>2026-03-22T13:56:07.127Z</time></trkpt><trkpt lat="49.2049215" lon="5.5702459"><ele>216.25</ele><time>2026-03-22T13:56:08.127Z</time></trkpt><trkpt lat="49.2048813" lon="5.5700713"><ele>216.5</ele><time>2026-03-22T13:56:09.127Z</time></trkpt><trkpt lat="49.2048402" lon="5.5698966"><ele>216.75</ele><time>2026-03-22T13:56:10.127Z</time></trkpt><trkpt lat="49.2047978" lon="5.5697226"><ele>217.0</ele><time>2026-03-22T13:56:11.127Z</time></trkpt><trkpt lat="49.2047558" lon="5.5695509"><ele>217.25</ele><time>2026-03-22T13:56:12.127Z</time></trkpt><trkpt lat="49.2047131" lon="5.5693798"><ele>217.5</ele><time>2026-03-22T13:56:13.127Z</time></trkpt><trkpt lat="49.204669" lon="5.5692117"><ele>217.75</ele><time>2026-03-22T13:56:14.127Z</time></trkpt><trkpt lat="49.2046262" lon="5.5690431"><ele>218.0</ele><time>2026-03-22T13:56:15.127Z</time></trkpt><trkpt lat="49.2045818" lon="5.5688742"><ele>218.0</ele><time>2026-03-22T13:56:16.127Z</time></trkpt><trkpt lat="49.2045403" lon="5.568705"><ele>218.0</ele><time>2026-03-22T13:56:17.127Z</time></trkpt><trkpt lat="49.204497" lon="5.568536"><ele>218.0</ele><time>2026-03-22T13:56:18.127Z</time></trkpt><trkpt lat="49.2044532" lon="5.5683675"><ele>218.0</ele><time>2026-03-22T13:56:19.127Z</time></trkpt><trkpt lat="49.2044082" lon="5.568199"><ele>218.0</ele><time>2026-03-22T13:56:20.127Z</time></trkpt><trkpt lat="49.204364" lon="5.5680295"><ele>218.0</ele><time>2026-03-22T13:56:21.127Z</time></trkpt><trkpt lat="49.2043205" lon="5.5678575"><ele>218.0</ele><time>2026-03-22T13:56:22.127Z</time></trkpt><trkpt lat="49.2042774" lon="5.567684"><ele>218.0</ele><time>2026-03-22T13:56:23.127Z</time></trkpt><trkpt lat="49.2042324" lon="5.5675104"><ele>218.25</ele><time>2026-03-22T13:56:24.127Z</time></trkpt><trkpt lat="49.2041864" lon="5.5673373"><ele>218.5</ele><time>2026-03-22T13:56:25.128Z</time></trkpt><trkpt lat="49.2041433" lon="5.5671614"><ele>218.75</ele><time>2026-03-22T13:56:26.127Z</time></trkpt><trkpt lat="49.2040981" lon="5.5669875"><ele>219.0</ele><time>2026-03-22T13:56:27.127Z</time></trkpt><trkpt lat="49.2040507" lon="5.5668114"><ele>219.0</ele><time>2026-03-22T13:56:28.127Z</time></trkpt><trkpt lat="49.2040063" lon="5.5666331"><ele>219.0</ele><time>2026-03-22T13:56:29.127Z</time></trkpt><trkpt lat="49.2039629" lon="5.566455"><ele>219.0</ele><time>2026-03-22T13:56:30.127Z</time></trkpt><trkpt lat="49.2039171" lon="5.5662765"><ele>219.0</ele><time>2026-03-22T13:56:31.127Z</time></trkpt><trkpt lat="49.2038726" lon="5.566099"><ele>219.0</ele><time>2026-03-22T13:56:32.127Z</time></trkpt><trkpt lat="49.2038279" lon="5.5659226"><ele>219.0</ele><time>2026-03-22T13:56:33.127Z</time></trkpt><trkpt lat="49.2037811" lon="5.565748"><ele>219.0</ele><time>2026-03-22T13:56:34.127Z</time></trkpt><trkpt lat="49.2037362" lon="5.5655764"><ele>219.0</ele><time>2026-03-22T13:56:35.127Z</time></trkpt><trkpt lat="49.2036938" lon="5.565409"><ele>219.39999999999998</ele><time>2026-03-22T13:56:36.127Z</time></trkpt><trkpt lat="49.2036501" lon="5.5652465"><ele>219.79999999999998</ele><time>2026-03-22T13:56:37.128Z</time></trkpt><trkpt lat="49.2036105" lon="5.5650862"><ele>220.20000000000002</ele><time>2026-03-22T13:56:38.127Z</time></trkpt><trkpt lat="49.2035765" lon="5.5649305"><ele>220.60000000000002</ele><time>2026-03-22T13:56:39.127Z</time></trkpt><trkpt lat="49.2035444" lon="5.5647822"><ele>221.0</ele><time>2026-03-22T13:56:40.127Z</time></trkpt><trkpt lat="49.2035132" lon="5.5646461"><ele>221.33333333333334</ele><time>2026-03-22T13:56:41.127Z</time></trkpt><trkpt lat="49.2034847" lon="5.5645284"><ele>221.66666666666669</ele><time>2026-03-22T13:56:42.127Z</time></trkpt><trkpt lat="49.2034609" lon="5.564429"><ele>222.0</ele><time>2026-03-22T13:56:43.128Z</time></trkpt><trkpt lat="49.2034281" lon="5.5642905"><ele>222.33333333333331</ele><time>2026-03-22T13:56:45.128Z</time></trkpt><trkpt lat="49.2033991" lon="5.5641883"><ele>222.66666666666666</ele><time>2026-03-22T13:58:45.127Z</time></trkpt><trkpt lat="49.2033401" lon="5.5640503"><ele>223.0</ele><time>2026-03-22T13:58:48.127Z</time></trkpt><trkpt lat="49.2032826" lon="5.5638501"><ele>223.0</ele><time>2026-03-22T13:58:50.127Z</time></trkpt><trkpt lat="49.2032479" lon="5.5637213"><ele>223.0</ele><time>2026-03-22T13:58:51.127Z</time></trkpt><trkpt lat="49.203211" lon="5.5635799"><ele>223.0</ele><time>2026-03-22T13:58:52.127Z</time></trkpt><trkpt lat="49.2031722" lon="5.5634298"><ele>223.0</ele><time>2026-03-22T13:58:53.127Z</time></trkpt><trkpt lat="49.2031328" lon="5.5632727"><ele>223.0</ele><time>2026-03-22T13:58:54.127Z</time></trkpt><trkpt lat="49.2030899" lon="5.5631118"><ele>222.75</ele><time>2026-03-22T13:58:55.127Z</time></trkpt><trkpt lat="49.2030465" lon="5.5629469"><ele>222.5</ele><time>2026-03-22T13:58:56.127Z</time></trkpt><trkpt lat="49.2030046" lon="5.5627796"><ele>222.25</ele><time>2026-03-22T13:58:57.127Z</time></trkpt><trkpt lat="49.2029606" lon="5.5626117"><ele>222.0</ele><time>2026-03-22T13:58:58.127Z</time></trkpt><trkpt lat="49.2029156" lon="5.5624409"><ele>222.0</ele><time>2026-03-22T13:58:59.127Z</time></trkpt><trkpt lat="49.202871" lon="5.5622645"><ele>222.0</ele><time>2026-03-22T13:59:00.127Z</time></trkpt><trkpt lat="49.2028266" lon="5.562084"><ele>222.0</ele><time>2026-03-22T13:59:01.127Z</time></trkpt><trkpt lat="49.2027802" lon="5.5619015"><ele>222.0</ele><time>2026-03-22T13:59:02.128Z</time></trkpt><trkpt lat="49.2027315" lon="5.5617177"><ele>222.0</ele><time>2026-03-22T13:59:03.127Z</time></trkpt><trkpt lat="49.2026825" lon="5.5615329"><ele>222.0</ele><time>2026-03-22T13:59:04.127Z</time></trkpt><trkpt lat="49.2026335" lon="5.5613442"><ele>222.0</ele><time>2026-03-22T13:59:05.127Z</time></trkpt><trkpt lat="49.2025855" lon="5.5611503"><ele>222.0</ele><time>2026-03-22T13:59:06.127Z</time></trkpt><trkpt lat="49.2025382" lon="5.5609542"><ele>222.0</ele><time>2026-03-22T13:59:07.127Z</time></trkpt><trkpt lat="49.2024919" lon="5.5607582"><ele>222.0</ele><time>2026-03-22T13:59:08.127Z</time></trkpt><trkpt lat="49.2024458" lon="5.5605688"><ele>222.0</ele><time>2026-03-22T13:59:09.127Z</time></trkpt><trkpt lat="49.2024018" lon="5.5603871"><ele>222.0</ele><time>2026-03-22T13:59:10.127Z</time></trkpt><trkpt lat="49.2023585" lon="5.560212"><ele>221.5</ele><time>2026-03-22T13:59:11.128Z</time></trkpt><trkpt lat="49.2023148" lon="5.5600454"><ele>221.0</ele><time>2026-03-22T13:59:12.127Z</time></trkpt><trkpt lat="49.2022692" lon="5.5598763"><ele>220.5</ele><time>2026-03-22T13:59:13.127Z</time></trkpt><trkpt lat="49.202222" lon="5.5597053"><ele>220.0</ele><time>2026-03-22T13:59:14.127Z</time></trkpt><trkpt lat="49.2021748" lon="5.5595292"><ele>220.0</ele><time>2026-03-22T13:59:15.127Z</time></trkpt><trkpt lat="49.2021269" lon="5.5593497"><ele>220.0</ele><time>2026-03-22T13:59:16.127Z</time></trkpt><trkpt lat="49.2020802" lon="5.559169"><ele>220.0</ele><time>2026-03-22T13:59:17.127Z</time></trkpt><trkpt lat="49.202035" lon="5.5589876"><ele>220.0</ele><time>2026-03-22T13:59:18.127Z</time></trkpt><trkpt lat="49.2019893" lon="5.5588077"><ele>220.25</ele><time>2026-03-22T13:59:19.128Z</time></trkpt><trkpt lat="49.2019414" lon="5.558628"><ele>220.5</ele><time>2026-03-22T13:59:20.127Z</time></trkpt><trkpt lat="49.2018953" lon="5.5584483"><ele>220.75</ele><time>2026-03-22T13:59:21.127Z</time></trkpt><trkpt lat="49.2018509" lon="5.558268"><ele>221.0</ele><time>2026-03-22T13:59:22.127Z</time></trkpt><trkpt lat="49.2018056" lon="5.5580877"><ele>221.0</ele><time>2026-03-22T13:59:23.128Z</time></trkpt><trkpt lat="49.2017595" lon="5.5579123"><ele>221.0</ele><time>2026-03-22T13:59:24.127Z</time></trkpt><trkpt lat="49.2017148" lon="5.5577418"><ele>221.0</ele><time>2026-03-22T13:59:25.127Z</time></trkpt><trkpt lat="49.2016713" lon="5.5575729"><ele>221.0</ele><time>2026-03-22T13:59:26.127Z</time></trkpt><trkpt lat="49.2016284" lon="5.5574022"><ele>221.25</ele><time>2026-03-22T13:59:27.127Z</time></trkpt><trkpt lat="49.201586" lon="5.5572315"><ele>221.5</ele><time>2026-03-22T13:59:28.127Z</time></trkpt><trkpt lat="49.2015434" lon="5.557061"><ele>221.75</ele><time>2026-03-22T13:59:29.127Z</time></trkpt><trkpt lat="49.2014994" lon="5.5568903"><ele>222.0</ele><time>2026-03-22T13:59:30.127Z</time></trkpt><trkpt lat="49.2014539" lon="5.5567199"><ele>222.5</ele><time>2026-03-22T13:59:31.128Z</time></trkpt><trkpt lat="49.2014094" lon="5.5565497"><ele>223.0</ele><time>2026-03-22T13:59:32.127Z</time></trkpt><trkpt lat="49.2013672" lon="5.556378"><ele>223.5</ele><time>2026-03-22T13:59:33.128Z</time></trkpt><trkpt lat="49.2013243" lon="5.5562079"><ele>224.0</ele><time>2026-03-22T13:59:34.127Z</time></trkpt><trkpt lat="49.2012814" lon="5.5560386"><ele>224.0</ele><time>2026-03-22T13:59:35.127Z</time></trkpt><trkpt lat="49.2012381" lon="5.5558705"><ele>224.0</ele><time>2026-03-22T13:59:36.127Z</time></trkpt><trkpt lat="49.2011955" lon="5.5557026"><ele>224.0</ele><time>2026-03-22T13:59:37.127Z</time></trkpt><trkpt lat="49.2011532" lon="5.5555337"><ele>224.0</ele><time>2026-03-22T13:59:38.127Z</time></trkpt><trkpt lat="49.2011094" lon="5.5553639"><ele>224.0</ele><time>2026-03-22T13:59:39.127Z</time></trkpt><trkpt lat="49.2010638" lon="5.5551936"><ele>224.0</ele><time>2026-03-22T13:59:40.128Z</time></trkpt><trkpt lat="49.2010201" lon="5.5550207"><ele>224.0</ele><time>2026-03-22T13:59:41.127Z</time></trkpt><trkpt lat="49.200977" lon="5.5548459"><ele>224.0</ele><time>2026-03-22T13:59:42.127Z</time></trkpt><trkpt lat="49.2009349" lon="5.5546687"><ele>224.25</ele><time>2026-03-22T13:59:43.127Z</time></trkpt><trkpt lat="49.2008896" lon="5.5544919"><ele>224.5</ele><time>2026-03-22T13:59:44.127Z</time></trkpt><trkpt lat="49.2008427" lon="5.554314"><ele>224.75</ele><time>2026-03-22T13:59:45.127Z</time></trkpt><trkpt lat="49.2007971" lon="5.5541346"><ele>225.0</ele><time>2026-03-22T13:59:46.127Z</time></trkpt><trkpt lat="49.2007528" lon="5.553955"><ele>225.0</ele><time>2026-03-22T13:59:47.127Z</time></trkpt><trkpt lat="49.2007088" lon="5.5537795"><ele>225.0</ele><time>2026-03-22T13:59:48.128Z</time></trkpt><trkpt lat="49.2006639" lon="5.5536061"><ele>225.0</ele><time>2026-03-22T13:59:49.127Z</time></trkpt><trkpt lat="49.200618" lon="5.5534332"><ele>225.0</ele><time>2026-03-22T13:59:50.127Z</time></trkpt><trkpt lat="49.2005733" lon="5.5532627"><ele>225.25</ele><time>2026-03-22T13:59:51.127Z</time></trkpt><trkpt lat="49.2005293" lon="5.553094"><ele>225.5</ele><time>2026-03-22T13:59:52.127Z</time></trkpt><trkpt lat="49.2004856" lon="5.5529252"><ele>225.75</ele><time>2026-03-22T13:59:53.127Z</time></trkpt><trkpt lat="49.2004419" lon="5.5527568"><ele>226.0</ele><time>2026-03-22T13:59:54.127Z</time></trkpt><trkpt lat="49.2003985" lon="5.5525885"><ele>226.25</ele><time>2026-03-22T13:59:55.127Z</time></trkpt><trkpt lat="49.2003552" lon="5.5524189"><ele>226.5</ele><time>2026-03-22T13:59:56.127Z</time></trkpt><trkpt lat="49.2003128" lon="5.5522491"><ele>226.75</ele><time>2026-03-22T13:59:57.127Z</time></trkpt><trkpt lat="49.2002716" lon="5.5520758"><ele>227.0</ele><time>2026-03-22T13:59:58.128Z</time></trkpt><trkpt lat="49.2002299" lon="5.5519013"><ele>227.0</ele><time>2026-03-22T13:59:59.128Z</time></trkpt><trkpt lat="49.2001865" lon="5.5517267"><ele>227.0</ele><time>2026-03-22T14:00:00.127Z</time></trkpt><trkpt lat="49.200141" lon="5.5515523"><ele>227.0</ele><time>2026-03-22T14:00:01.127Z</time></trkpt><trkpt lat="49.2000934" lon="5.5513779"><ele>227.0</ele><time>2026-03-22T14:00:02.127Z</time></trkpt><trkpt lat="49.2000481" lon="5.551201"><ele>227.0</ele><time>2026-03-22T14:00:03.127Z</time></trkpt><trkpt lat="49.2000016" lon="5.5510237"><ele>227.0</ele><time>2026-03-22T14:00:04.127Z</time></trkpt><trkpt lat="49.1999552" lon="5.5508472"><ele>227.0</ele><time>2026-03-22T14:00:05.127Z</time></trkpt><trkpt lat="49.1999087" lon="5.5506717"><ele>227.0</ele><time>2026-03-22T14:00:06.127Z</time></trkpt><trkpt lat="49.1998649" lon="5.550496"><ele>227.0</ele><time>2026-03-22T14:00:07.127Z</time></trkpt><trkpt lat="49.1998205" lon="5.550319"><ele>227.0</ele><time>2026-03-22T14:00:08.127Z</time></trkpt><trkpt lat="49.1997745" lon="5.5501398"><ele>227.0</ele><time>2026-03-22T14:00:09.128Z</time></trkpt><trkpt lat="49.1997271" lon="5.5499603"><ele>227.0</ele><time>2026-03-22T14:00:10.127Z</time></trkpt><trkpt lat="49.1996801" lon="5.5497803"><ele>227.0</ele><time>2026-03-22T14:00:11.127Z</time></trkpt><trkpt lat="49.1996323" lon="5.5495987"><ele>227.0</ele><time>2026-03-22T14:00:12.127Z</time></trkpt><trkpt lat="49.1995843" lon="5.5494136"><ele>227.0</ele><time>2026-03-22T14:00:13.127Z</time></trkpt><trkpt lat="49.1995371" lon="5.5492292"><ele>227.0</ele><time>2026-03-22T14:00:14.127Z</time></trkpt><trkpt lat="49.1994914" lon="5.5490464"><ele>227.5</ele><time>2026-03-22T14:00:15.128Z</time></trkpt><trkpt lat="49.1994458" lon="5.5488651"><ele>228.0</ele><time>2026-03-22T14:00:16.127Z</time></trkpt><trkpt lat="49.1993987" lon="5.5486843"><ele>228.5</ele><time>2026-03-22T14:00:17.127Z</time></trkpt><trkpt lat="49.1993512" lon="5.5485041"><ele>229.0</ele><time>2026-03-22T14:00:18.127Z</time></trkpt><trkpt lat="49.1993049" lon="5.548325"><ele>229.0</ele><time>2026-03-22T14:00:19.127Z</time></trkpt><trkpt lat="49.1992606" lon="5.5481464"><ele>229.0</ele><time>2026-03-22T14:00:20.127Z</time></trkpt><trkpt lat="49.1992154" lon="5.5479695"><ele>229.0</ele><time>2026-03-22T14:00:21.127Z</time></trkpt><trkpt lat="49.1991679" lon="5.5477945"><ele>229.0</ele><time>2026-03-22T14:00:22.127Z</time></trkpt><trkpt lat="49.1991203" lon="5.5476203"><ele>229.0</ele><time>2026-03-22T14:00:23.127Z</time></trkpt><trkpt lat="49.1990732" lon="5.5474462"><ele>229.0</ele><time>2026-03-22T14:00:24.128Z</time></trkpt><trkpt lat="49.1990276" lon="5.5472719"><ele>229.0</ele><time>2026-03-22T14:00:25.127Z</time></trkpt><trkpt lat="49.198985" lon="5.5471004"><ele>229.0</ele><time>2026-03-22T14:00:26.127Z</time></trkpt><trkpt lat="49.1989445" lon="5.5469301"><ele>229.0</ele><time>2026-03-22T14:00:27.127Z</time></trkpt><trkpt lat="49.1989087" lon="5.5467569"><ele>229.0</ele><time>2026-03-22T14:00:28.127Z</time></trkpt><trkpt lat="49.198885" lon="5.5465747"><ele>229.0</ele><time>2026-03-22T14:00:29.127Z</time></trkpt><trkpt lat="49.1988678" lon="5.5463774"><ele>229.0</ele><time>2026-03-22T14:00:30.128Z</time></trkpt><trkpt lat="49.1988443" lon="5.546176"><ele>229.5</ele><time>2026-03-22T14:00:31.127Z</time></trkpt><trkpt lat="49.1988131" lon="5.5459676"><ele>230.0</ele><time>2026-03-22T14:00:32.127Z</time></trkpt><trkpt lat="49.1987851" lon="5.5457638"><ele>230.5</ele><time>2026-03-22T14:00:33.127Z</time></trkpt><trkpt lat="49.1987571" lon="5.5455582"><ele>231.0</ele><time>2026-03-22T14:00:34.127Z</time></trkpt><trkpt lat="49.1987306" lon="5.5453653"><ele>231.20000000000002</ele><time>2026-03-22T14:00:35.127Z</time></trkpt><trkpt lat="49.1987021" lon="5.5451872"><ele>231.40000000000003</ele><time>2026-03-22T14:00:36.127Z</time></trkpt><trkpt lat="49.1986795" lon="5.5450197"><ele>231.6</ele><time>2026-03-22T14:00:37.127Z</time></trkpt><trkpt lat="49.1986547" lon="5.5448597"><ele>231.8</ele><time>2026-03-22T14:00:38.127Z</time></trkpt><trkpt lat="49.1986259" lon="5.5447026"><ele>232.0</ele><time>2026-03-22T14:00:39.127Z</time></trkpt><trkpt lat="49.1985971" lon="5.544546"><ele>232.0</ele><time>2026-03-22T14:00:40.127Z</time></trkpt><trkpt lat="49.1985694" lon="5.5443886"><ele>232.0</ele><time>2026-03-22T14:00:41.128Z</time></trkpt><trkpt lat="49.1985437" lon="5.5442282"><ele>232.0</ele><time>2026-03-22T14:00:42.127Z</time></trkpt><trkpt lat="49.1985213" lon="5.5440656"><ele>232.0</ele><time>2026-03-22T14:00:43.127Z</time></trkpt><trkpt lat="49.1984969" lon="5.5438982"><ele>232.0</ele><time>2026-03-22T14:00:44.127Z</time></trkpt><trkpt lat="49.1984701" lon="5.5437299"><ele>231.8</ele><time>2026-03-22T14:00:45.127Z</time></trkpt><trkpt lat="49.198444" lon="5.5435666"><ele>231.6</ele><time>2026-03-22T14:00:46.127Z</time></trkpt><trkpt lat="49.1984163" lon="5.5434061"><ele>231.40000000000003</ele><time>2026-03-22T14:00:47.128Z</time></trkpt><trkpt lat="49.1983878" lon="5.5432458"><ele>231.20000000000002</ele><time>2026-03-22T14:00:48.127Z</time></trkpt><trkpt lat="49.198356" lon="5.5430877"><ele>231.0</ele><time>2026-03-22T14:00:49.127Z</time></trkpt><trkpt lat="49.1983189" lon="5.5429317"><ele>231.20000000000002</ele><time>2026-03-22T14:00:50.127Z</time></trkpt><trkpt lat="49.1982759" lon="5.5427794"><ele>231.40000000000003</ele><time>2026-03-22T14:00:51.128Z</time></trkpt><trkpt lat="49.198238" lon="5.5426293"><ele>231.6</ele><time>2026-03-22T14:00:52.127Z</time></trkpt><trkpt lat="49.1982166" lon="5.5424709"><ele>231.8</ele><time>2026-03-22T14:00:53.127Z</time></trkpt><trkpt lat="49.1982143" lon="5.5423041"><ele>232.0</ele><time>2026-03-22T14:00:54.127Z</time></trkpt><trkpt lat="49.1982293" lon="5.5421337"><ele>232.0</ele><time>2026-03-22T14:00:55.127Z</time></trkpt><trkpt lat="49.1982521" lon="5.5419655"><ele>232.0</ele><time>2026-03-22T14:00:56.127Z</time></trkpt><trkpt lat="49.1982755" lon="5.5417953"><ele>232.0</ele><time>2026-03-22T14:00:57.127Z</time></trkpt><trkpt lat="49.1982992" lon="5.5416257"><ele>232.0</ele><time>2026-03-22T14:00:58.127Z</time></trkpt><trkpt lat="49.1983222" lon="5.5414555"><ele>232.0</ele><time>2026-03-22T14:00:59.127Z</time></trkpt><trkpt lat="49.198343" lon="5.5412848"><ele>232.0</ele><time>2026-03-22T14:01:00.128Z</time></trkpt><trkpt lat="49.1983573" lon="5.5411142"><ele>232.0</ele><time>2026-03-22T14:01:01.127Z</time></trkpt><trkpt lat="49.1983675" lon="5.5409436"><ele>232.0</ele><time>2026-03-22T14:01:02.127Z</time></trkpt><trkpt lat="49.1983776" lon="5.5407743"><ele>232.0</ele><time>2026-03-22T14:01:03.127Z</time></trkpt><trkpt lat="49.1983889" lon="5.5406035"><ele>231.8</ele><time>2026-03-22T14:01:04.128Z</time></trkpt><trkpt lat="49.1983982" lon="5.5404347"><ele>231.6</ele><time>2026-03-22T14:01:05.127Z</time></trkpt><trkpt lat="49.1984047" lon="5.540269"><ele>231.40000000000003</ele><time>2026-03-22T14:01:06.127Z</time></trkpt><trkpt lat="49.1984086" lon="5.5401087"><ele>231.20000000000002</ele><time>2026-03-22T14:01:07.127Z</time></trkpt><trkpt lat="49.1984116" lon="5.5399621"><ele>231.0</ele><time>2026-03-22T14:01:08.128Z</time></trkpt><trkpt lat="49.1984152" lon="5.5398195"><ele>230.83333333333334</ele><time>2026-03-22T14:01:09.127Z</time></trkpt><trkpt lat="49.1984201" lon="5.5396851"><ele>230.66666666666669</ele><time>2026-03-22T14:01:10.127Z</time></trkpt><trkpt lat="49.1984255" lon="5.5395623"><ele>230.5</ele><time>2026-03-22T14:01:11.128Z</time></trkpt><trkpt lat="49.1984325" lon="5.5394501"><ele>230.33333333333334</ele><time>2026-03-22T14:01:12.127Z</time></trkpt><trkpt lat="49.1984399" lon="5.5393472"><ele>230.16666666666669</ele><time>2026-03-22T14:01:13.127Z</time></trkpt><trkpt lat="49.198445" lon="5.5391924"><ele>230.0</ele><time>2026-03-22T14:01:15.127Z</time></trkpt><trkpt lat="49.1984389" lon="5.5390596"><ele>230.0</ele><time>2026-03-22T14:01:17.127Z</time></trkpt><trkpt lat="49.1984179" lon="5.5389023"><ele>230.0</ele><time>2026-03-22T14:01:19.127Z</time></trkpt><trkpt lat="49.1983896" lon="5.5387076"><ele>230.0</ele><time>2026-03-22T14:01:21.127Z</time></trkpt><trkpt lat="49.1983744" lon="5.5385986"><ele>230.0</ele><time>2026-03-22T14:01:22.127Z</time></trkpt><trkpt lat="49.1983578" lon="5.5384814"><ele>230.0</ele><time>2026-03-22T14:01:23.127Z</time></trkpt><trkpt lat="49.1983405" lon="5.5383594"><ele>229.66666666666669</ele><time>2026-03-22T14:01:24.127Z</time></trkpt><trkpt lat="49.1983209" lon="5.5382342"><ele>229.33333333333334</ele><time>2026-03-22T14:01:25.127Z</time></trkpt><trkpt lat="49.1983027" lon="5.5381053"><ele>229.0</ele><time>2026-03-22T14:01:26.127Z</time></trkpt><trkpt lat="49.1982846" lon="5.5379742"><ele>228.66666666666669</ele><time>2026-03-22T14:01:27.127Z</time></trkpt><trkpt lat="49.198264" lon="5.537845"><ele>228.33333333333334</ele><time>2026-03-22T14:01:28.127Z</time></trkpt><trkpt lat="49.1982433" lon="5.5377157"><ele>228.0</ele><time>2026-03-22T14:01:29.127Z</time></trkpt><trkpt lat="49.1982158" lon="5.5375906"><ele>228.0</ele><time>2026-03-22T14:01:30.127Z</time></trkpt><trkpt lat="49.19819" lon="5.5374635"><ele>228.0</ele><time>2026-03-22T14:01:31.127Z</time></trkpt><trkpt lat="49.1981638" lon="5.5373342"><ele>228.0</ele><time>2026-03-22T14:01:32.127Z</time></trkpt><trkpt lat="49.1981368" lon="5.5371992"><ele>228.0</ele><time>2026-03-22T14:01:33.127Z</time></trkpt><trkpt lat="49.1981051" lon="5.5370615"><ele>228.0</ele><time>2026-03-22T14:01:34.127Z</time></trkpt><trkpt lat="49.198072" lon="5.5369259"><ele>228.16666666666666</ele><time>2026-03-22T14:01:35.127Z</time></trkpt><trkpt lat="49.198039" lon="5.536792"><ele>228.33333333333331</ele><time>2026-03-22T14:01:36.127Z</time></trkpt><trkpt lat="49.1980067" lon="5.5366589"><ele>228.5</ele><time>2026-03-22T14:01:37.127Z</time></trkpt><trkpt lat="49.1979722" lon="5.5365281"><ele>228.66666666666666</ele><time>2026-03-22T14:01:38.128Z</time></trkpt><trkpt lat="49.1979435" lon="5.5364135"><ele>228.83333333333331</ele><time>2026-03-22T14:01:39.127Z</time></trkpt><trkpt lat="49.1979171" lon="5.5363235"><ele>229.0</ele><time>2026-03-22T14:01:40.127Z</time></trkpt><trkpt lat="49.1978657" lon="5.5361596"><ele>229.0</ele><time>2026-03-22T14:01:42.127Z</time></trkpt><trkpt lat="49.197815" lon="5.5359986"><ele>228.99999999999997</ele><time>2026-03-22T14:01:44.127Z</time></trkpt><trkpt lat="49.1977514" lon="5.5358213"><ele>228.99999999999997</ele><time>2026-03-22T14:01:46.127Z</time></trkpt><trkpt lat="49.1977173" lon="5.5357203"><ele>229.0</ele><time>2026-03-22T14:01:47.127Z</time></trkpt><trkpt lat="49.1976801" lon="5.5356134"><ele>229.0</ele><time>2026-03-22T14:01:48.127Z</time></trkpt><trkpt lat="49.1976398" lon="5.5354972"><ele>228.66666666666666</ele><time>2026-03-22T14:01:49.127Z</time></trkpt><trkpt lat="49.1975982" lon="5.5353783"><ele>228.33333333333331</ele><time>2026-03-22T14:01:50.127Z</time></trkpt><trkpt lat="49.1975548" lon="5.5352573"><ele>228.0</ele><time>2026-03-22T14:01:51.127Z</time></trkpt><trkpt lat="49.1975135" lon="5.5351419"><ele>227.66666666666669</ele><time>2026-03-22T14:01:52.127Z</time></trkpt><trkpt lat="49.1974762" lon="5.5350418"><ele>227.33333333333334</ele><time>2026-03-22T14:01:53.127Z</time></trkpt><trkpt lat="49.1974346" lon="5.5349125"><ele>227.0</ele><time>2026-03-22T14:01:55.127Z</time></trkpt><trkpt lat="49.1974023" lon="5.5348279"><ele>227.00000000000003</ele><time>2026-03-22T14:01:59.127Z</time></trkpt><trkpt lat="49.1973704" lon="5.5347396"><ele>227.0</ele><time>2026-03-22T14:02:08.128Z</time></trkpt><trkpt lat="49.1973338" lon="5.5346095"><ele>227.0</ele><time>2026-03-22T14:02:24.127Z</time></trkpt><trkpt lat="49.1972942" lon="5.5344783"><ele>227.0</ele><time>2026-03-22T14:02:26.127Z</time></trkpt><trkpt lat="49.1972616" lon="5.53438"><ele>227.00000000000003</ele><time>2026-03-22T14:02:27.127Z</time></trkpt><trkpt lat="49.1972281" lon="5.5342741"><ele>227.0</ele><time>2026-03-22T14:02:28.127Z</time></trkpt><trkpt lat="49.1971919" lon="5.5341616"><ele>227.00000000000003</ele><time>2026-03-22T14:02:29.127Z</time></trkpt><trkpt lat="49.1971538" lon="5.534046"><ele>227.0</ele><time>2026-03-22T14:02:30.127Z</time></trkpt><trkpt lat="49.197115" lon="5.5339283"><ele>227.0</ele><time>2026-03-22T14:02:31.127Z</time></trkpt><trkpt lat="49.1970754" lon="5.5338069"><ele>227.0</ele><time>2026-03-22T14:02:32.127Z</time></trkpt><trkpt lat="49.1970347" lon="5.5336819"><ele>227.00000000000003</ele><time>2026-03-22T14:02:33.127Z</time></trkpt><trkpt lat="49.1969921" lon="5.5335553"><ele>227.0</ele><time>2026-03-22T14:02:34.127Z</time></trkpt><trkpt lat="49.1969493" lon="5.5334268"><ele>226.83333333333334</ele><time>2026-03-22T14:02:35.127Z</time></trkpt><trkpt lat="49.1969075" lon="5.5332967"><ele>226.66666666666669</ele><time>2026-03-22T14:02:36.127Z</time></trkpt><trkpt lat="49.1968673" lon="5.5331758"><ele>226.5</ele><time>2026-03-22T14:02:37.127Z</time></trkpt><trkpt lat="49.1968247" lon="5.533061"><ele>226.33333333333331</ele><time>2026-03-22T14:02:38.127Z</time></trkpt><trkpt lat="49.1967818" lon="5.5329516"><ele>226.16666666666666</ele><time>2026-03-22T14:02:39.128Z</time></trkpt><trkpt lat="49.1967391" lon="5.5328353"><ele>226.0</ele><time>2026-03-22T14:02:40.127Z</time></trkpt><trkpt lat="49.1966944" lon="5.5327186"><ele>225.8</ele><time>2026-03-22T14:02:41.128Z</time></trkpt><trkpt lat="49.1966507" lon="5.5325978"><ele>225.60000000000002</ele><time>2026-03-22T14:02:42.127Z</time></trkpt><trkpt lat="49.1966067" lon="5.5324716"><ele>225.4</ele><time>2026-03-22T14:02:43.128Z</time></trkpt><trkpt lat="49.1965642" lon="5.5323389"><ele>225.2</ele><time>2026-03-22T14:02:44.127Z</time></trkpt><trkpt lat="49.1965196" lon="5.5322027"><ele>225.0</ele><time>2026-03-22T14:02:45.127Z</time></trkpt><trkpt lat="49.1964727" lon="5.5320653"><ele>225.0</ele><time>2026-03-22T14:02:46.127Z</time></trkpt><trkpt lat="49.1964273" lon="5.5319324"><ele>225.0</ele><time>2026-03-22T14:02:47.127Z</time></trkpt><trkpt lat="49.196385" lon="5.531799"><ele>225.0</ele><time>2026-03-22T14:02:48.127Z</time></trkpt><trkpt lat="49.1963428" lon="5.5316754"><ele>225.0</ele><time>2026-03-22T14:02:49.127Z</time></trkpt><trkpt lat="49.1963032" lon="5.5315569"><ele>225.0</ele><time>2026-03-22T14:02:50.127Z</time></trkpt><trkpt lat="49.1962665" lon="5.531443"><ele>225.0</ele><time>2026-03-22T14:02:51.127Z</time></trkpt><trkpt lat="49.1962435" lon="5.5313369"><ele>225.0</ele><time>2026-03-22T14:02:52.127Z</time></trkpt><trkpt lat="49.1962415" lon="5.5312369"><ele>225.0</ele><time>2026-03-22T14:02:53.127Z</time></trkpt><trkpt lat="49.1962622" lon="5.5310715"><ele>225.0</ele><time>2026-03-22T14:02:55.127Z</time></trkpt><trkpt lat="49.1963218" lon="5.5309147"><ele>225.0</ele><time>2026-03-22T14:02:57.127Z</time></trkpt><trkpt lat="49.1963245" lon="5.5307573"><ele>225.33333333333334</ele><time>2026-03-22T14:02:59.127Z</time></trkpt><trkpt lat="49.1962799" lon="5.5306359"><ele>225.66666666666669</ele><time>2026-03-22T14:03:01.128Z</time></trkpt><trkpt lat="49.1962243" lon="5.5305023"><ele>226.0</ele><time>2026-03-22T14:03:03.127Z</time></trkpt><trkpt lat="49.1961866" lon="5.5304123"><ele>226.33333333333334</ele><time>2026-03-22T14:03:04.127Z</time></trkpt><trkpt lat="49.1961388" lon="5.5303135"><ele>226.66666666666669</ele><time>2026-03-22T14:03:05.127Z</time></trkpt><trkpt lat="49.1960847" lon="5.5302109"><ele>227.0</ele><time>2026-03-22T14:03:06.127Z</time></trkpt><trkpt lat="49.1960312" lon="5.5301041"><ele>227.0</ele><time>2026-03-22T14:03:07.127Z</time></trkpt><trkpt lat="49.1959791" lon="5.5299884"><ele>227.0</ele><time>2026-03-22T14:03:08.127Z</time></trkpt><trkpt lat="49.1959291" lon="5.529865"><ele>227.0</ele><time>2026-03-22T14:03:09.127Z</time></trkpt><trkpt lat="49.1958827" lon="5.5297347"><ele>227.0</ele><time>2026-03-22T14:03:10.127Z</time></trkpt><trkpt lat="49.1958394" lon="5.529597"><ele>227.0</ele><time>2026-03-22T14:03:11.127Z</time></trkpt><trkpt lat="49.195797" lon="5.5294596"><ele>227.0</ele><time>2026-03-22T14:03:12.127Z</time></trkpt><trkpt lat="49.1957557" lon="5.5293211"><ele>227.0</ele><time>2026-03-22T14:03:13.127Z</time></trkpt><trkpt lat="49.1957164" lon="5.5291843"><ele>227.0</ele><time>2026-03-22T14:03:14.127Z</time></trkpt><trkpt lat="49.195678" lon="5.5290477"><ele>227.0</ele><time>2026-03-22T14:03:15.128Z</time></trkpt><trkpt lat="49.1956449" lon="5.5289118"><ele>227.0</ele><time>2026-03-22T14:03:16.127Z</time></trkpt><trkpt lat="49.1956164" lon="5.5287766"><ele>227.16666666666669</ele><time>2026-03-22T14:03:17.127Z</time></trkpt><trkpt lat="49.1955976" lon="5.5286436"><ele>227.33333333333334</ele><time>2026-03-22T14:03:18.128Z</time></trkpt><trkpt lat="49.1955884" lon="5.5285166"><ele>227.5</ele><time>2026-03-22T14:03:19.127Z</time></trkpt><trkpt lat="49.1955834" lon="5.5283902"><ele>227.66666666666669</ele><time>2026-03-22T14:03:20.128Z</time></trkpt><trkpt lat="49.1955769" lon="5.5282703"><ele>227.83333333333334</ele><time>2026-03-22T14:03:21.128Z</time></trkpt><trkpt lat="49.195565" lon="5.5281581"><ele>228.0</ele><time>2026-03-22T14:03:22.127Z</time></trkpt><trkpt lat="49.1955423" lon="5.5280567"><ele>228.0</ele><time>2026-03-22T14:03:23.127Z</time></trkpt><trkpt lat="49.1955161" lon="5.5279625"><ele>228.0</ele><time>2026-03-22T14:03:24.127Z</time></trkpt><trkpt lat="49.1954699" lon="5.5278066"><ele>229.0</ele><time>2026-03-22T14:03:26.127Z</time></trkpt><trkpt lat="49.1954324" lon="5.5276815"><ele>229.0</ele><time>2026-03-22T14:03:28.127Z</time></trkpt><trkpt lat="49.1954059" lon="5.527586"><ele>229.0</ele><time>2026-03-22T14:03:31.127Z</time></trkpt></trkseg><trkseg><trkpt lat="49.1953747" lon="5.5275071"><ele>228.99999999999997</ele><time>2026-03-22T14:17:54.144Z</time></trkpt><trkpt lat="49.1953487" lon="5.527417"><ele>229.0</ele><time>2026-03-22T14:17:56.143Z</time></trkpt><trkpt lat="49.1953135" lon="5.5273217"><ele>229.0</ele><time>2026-03-22T14:17:58.144Z</time></trkpt><trkpt lat="49.1952622" lon="5.5271551"><ele>229.0</ele><time>2026-03-22T14:18:00.144Z</time></trkpt><trkpt lat="49.1952324" lon="5.5270506"><ele>228.99999999999997</ele><time>2026-03-22T14:18:01.143Z</time></trkpt><trkpt lat="49.1952037" lon="5.5269499"><ele>229.0</ele><time>2026-03-22T14:18:02.144Z</time></trkpt><trkpt lat="49.1951654" lon="5.5268481"><ele>228.99999999999997</ele><time>2026-03-22T14:18:03.144Z</time></trkpt><trkpt lat="49.1951315" lon="5.5267413"><ele>229.0</ele><time>2026-03-22T14:18:04.144Z</time></trkpt><trkpt lat="49.1950977" lon="5.5266264"><ele>229.0</ele><time>2026-03-22T14:18:05.144Z</time></trkpt><trkpt lat="49.1950645" lon="5.5265104"><ele>229.0</ele><time>2026-03-22T14:18:06.144Z</time></trkpt><trkpt lat="49.1950267" lon="5.526401"><ele>228.99999999999997</ele><time>2026-03-22T14:18:07.144Z</time></trkpt><trkpt lat="49.1949971" lon="5.5263033"><ele>229.0</ele><time>2026-03-22T14:18:08.143Z</time></trkpt><trkpt lat="49.1949647" lon="5.5262093"><ele>228.99999999999997</ele><time>2026-03-22T14:18:09.143Z</time></trkpt><trkpt lat="49.1949301" lon="5.5261063"><ele>229.0</ele><time>2026-03-22T14:18:10.145Z</time></trkpt><trkpt lat="49.1948957" lon="5.5260008"><ele>229.0</ele><time>2026-03-22T14:18:11.144Z</time></trkpt><trkpt lat="49.1948659" lon="5.5259107"><ele>229.0</ele><time>2026-03-22T14:18:12.144Z</time></trkpt><trkpt lat="49.1948269" lon="5.5257867"><ele>228.99999999999997</ele><time>2026-03-22T14:18:14.123Z</time></trkpt><trkpt lat="49.194784" lon="5.525661"><ele>229.0</ele><time>2026-03-22T14:18:16.123Z</time></trkpt><trkpt lat="49.1947328" lon="5.5255044"><ele>229.28571428571428</ele><time>2026-03-22T14:18:18.121Z</time></trkpt><trkpt lat="49.194701" lon="5.5254109"><ele>229.57142857142858</ele><time>2026-03-22T14:18:19.122Z</time></trkpt><trkpt lat="49.1946676" lon="5.5253108"><ele>229.85714285714286</ele><time>2026-03-22T14:18:20.121Z</time></trkpt><trkpt lat="49.1946355" lon="5.5252027"><ele>230.14285714285714</ele><time>2026-03-22T14:18:21.121Z</time></trkpt><trkpt lat="49.1946037" lon="5.5250978"><ele>230.42857142857144</ele><time>2026-03-22T14:18:22.121Z</time></trkpt><trkpt lat="49.1945707" lon="5.524992"><ele>230.71428571428572</ele><time>2026-03-22T14:18:23.121Z</time></trkpt><trkpt lat="49.1945374" lon="5.5248908"><ele>231.0</ele><time>2026-03-22T14:18:24.121Z</time></trkpt><trkpt lat="49.1945082" lon="5.5247927"><ele>231.0</ele><time>2026-03-22T14:18:25.122Z</time></trkpt><trkpt lat="49.1944572" lon="5.5246302"><ele>231.0</ele><time>2026-03-22T14:18:27.121Z</time></trkpt><trkpt lat="49.1944047" lon="5.524474"><ele>231.0</ele><time>2026-03-22T14:18:29.121Z</time></trkpt><trkpt lat="49.1943466" lon="5.5243216"><ele>231.0</ele><time>2026-03-22T14:18:31.121Z</time></trkpt><trkpt lat="49.1942877" lon="5.5241804"><ele>231.16666666666666</ele><time>2026-03-22T14:18:33.121Z</time></trkpt><trkpt lat="49.1942503" lon="5.5240566"><ele>231.33333333333331</ele><time>2026-03-22T14:18:35.122Z</time></trkpt><trkpt lat="49.1942273" lon="5.5239295"><ele>231.5</ele><time>2026-03-22T14:18:38.122Z</time></trkpt><trkpt lat="49.1941906" lon="5.5238099"><ele>231.66666666666666</ele><time>2026-03-22T14:18:41.121Z</time></trkpt><trkpt lat="49.1941506" lon="5.5236855"><ele>231.83333333333331</ele><time>2026-03-22T14:18:44.121Z</time></trkpt><trkpt lat="49.1941092" lon="5.5235646"><ele>232.0</ele><time>2026-03-22T14:18:46.122Z</time></trkpt><trkpt lat="49.1940568" lon="5.5234042"><ele>232.00000000000003</ele><time>2026-03-22T14:18:48.121Z</time></trkpt><trkpt lat="49.1940254" lon="5.5233129"><ele>232.0</ele><time>2026-03-22T14:18:49.121Z</time></trkpt><trkpt lat="49.1939934" lon="5.5232186"><ele>232.00000000000003</ele><time>2026-03-22T14:18:50.121Z</time></trkpt><trkpt lat="49.1939603" lon="5.5231242"><ele>232.00000000000003</ele><time>2026-03-22T14:18:51.121Z</time></trkpt><trkpt lat="49.1939297" lon="5.5230284"><ele>232.0</ele><time>2026-03-22T14:18:52.121Z</time></trkpt><trkpt lat="49.193901" lon="5.5229334"><ele>232.00000000000003</ele><time>2026-03-22T14:18:53.121Z</time></trkpt><trkpt lat="49.1938682" lon="5.5228372"><ele>232.00000000000003</ele><time>2026-03-22T14:18:54.121Z</time></trkpt><trkpt lat="49.1938348" lon="5.5227396"><ele>232.14285714285717</ele><time>2026-03-22T14:18:55.121Z</time></trkpt><trkpt lat="49.1938038" lon="5.5226436"><ele>232.28571428571428</ele><time>2026-03-22T14:18:56.121Z</time></trkpt><trkpt lat="49.1937706" lon="5.5225424"><ele>232.42857142857144</ele><time>2026-03-22T14:18:57.121Z</time></trkpt><trkpt lat="49.1937338" lon="5.52244"><ele>232.57142857142858</ele><time>2026-03-22T14:18:58.121Z</time></trkpt><trkpt lat="49.1936993" lon="5.522341"><ele>232.71428571428572</ele><time>2026-03-22T14:18:59.121Z</time></trkpt><trkpt lat="49.1936681" lon="5.5222498"><ele>232.85714285714286</ele><time>2026-03-22T14:19:00.121Z</time></trkpt><trkpt lat="49.1936413" lon="5.5221578"><ele>233.0</ele><time>2026-03-22T14:19:01.121Z</time></trkpt><trkpt lat="49.1936124" lon="5.5220654"><ele>233.14285714285717</ele><time>2026-03-22T14:19:02.121Z</time></trkpt><trkpt lat="49.1935813" lon="5.5219796"><ele>233.28571428571428</ele><time>2026-03-22T14:19:03.121Z</time></trkpt><trkpt lat="49.1935496" lon="5.5218932"><ele>233.42857142857144</ele><time>2026-03-22T14:19:04.122Z</time></trkpt><trkpt lat="49.1935212" lon="5.5218058"><ele>233.57142857142858</ele><time>2026-03-22T14:19:05.121Z</time></trkpt><trkpt lat="49.1934897" lon="5.5217169"><ele>233.71428571428572</ele><time>2026-03-22T14:19:06.121Z</time></trkpt><trkpt lat="49.193459" lon="5.5216289"><ele>233.85714285714286</ele><time>2026-03-22T14:19:07.121Z</time></trkpt><trkpt lat="49.1934037" lon="5.5214616"><ele>234.0</ele><time>2026-03-22T14:19:09.121Z</time></trkpt><trkpt lat="49.1933543" lon="5.5213012"><ele>234.0</ele><time>2026-03-22T14:19:11.121Z</time></trkpt><trkpt lat="49.1933077" lon="5.5211736"><ele>233.99999999999997</ele><time>2026-03-22T14:19:13.121Z</time></trkpt><trkpt lat="49.1932617" lon="5.5210296"><ele>233.99999999999997</ele><time>2026-03-22T14:19:15.121Z</time></trkpt><trkpt lat="49.1932152" lon="5.520878"><ele>234.0</ele><time>2026-03-22T14:19:17.121Z</time></trkpt><trkpt lat="49.1931609" lon="5.520725"><ele>234.0</ele><time>2026-03-22T14:19:19.121Z</time></trkpt><trkpt lat="49.1931282" lon="5.5206355"><ele>234.0</ele><time>2026-03-22T14:19:20.121Z</time></trkpt><trkpt lat="49.1930956" lon="5.5205412"><ele>234.00000000000003</ele><time>2026-03-22T14:19:21.121Z</time></trkpt><trkpt lat="49.1930635" lon="5.5204418"><ele>234.0</ele><time>2026-03-22T14:19:22.122Z</time></trkpt><trkpt lat="49.1930228" lon="5.5203445"><ele>234.0</ele><time>2026-03-22T14:19:23.121Z</time></trkpt><trkpt lat="49.1929845" lon="5.5202488"><ele>234.00000000000003</ele><time>2026-03-22T14:19:24.121Z</time></trkpt><trkpt lat="49.1929516" lon="5.52015"><ele>234.0</ele><time>2026-03-22T14:19:25.121Z</time></trkpt><trkpt lat="49.1929224" lon="5.5200583"><ele>234.0</ele><time>2026-03-22T14:19:26.121Z</time></trkpt><trkpt lat="49.192889" lon="5.5199709"><ele>234.0</ele><time>2026-03-22T14:19:27.121Z</time></trkpt><trkpt lat="49.1928597" lon="5.519884"><ele>234.00000000000003</ele><time>2026-03-22T14:19:28.121Z</time></trkpt><trkpt lat="49.1928297" lon="5.5197923"><ele>234.0</ele><time>2026-03-22T14:19:29.121Z</time></trkpt><trkpt lat="49.1928046" lon="5.5196992"><ele>234.0</ele><time>2026-03-22T14:19:30.122Z</time></trkpt><trkpt lat="49.192776" lon="5.5196058"><ele>234.00000000000003</ele><time>2026-03-22T14:19:31.121Z</time></trkpt><trkpt lat="49.1927437" lon="5.5195119"><ele>234.0</ele><time>2026-03-22T14:19:32.121Z</time></trkpt><trkpt lat="49.1927098" lon="5.5194129"><ele>234.0</ele><time>2026-03-22T14:19:33.122Z</time></trkpt><trkpt lat="49.192676" lon="5.5193088"><ele>234.0</ele><time>2026-03-22T14:19:34.122Z</time></trkpt><trkpt lat="49.1926424" lon="5.5192058"><ele>234.00000000000003</ele><time>2026-03-22T14:19:35.121Z</time></trkpt><trkpt lat="49.1926069" lon="5.519108"><ele>234.0</ele><time>2026-03-22T14:19:36.121Z</time></trkpt><trkpt lat="49.192573" lon="5.5190182"><ele>234.0</ele><time>2026-03-22T14:19:37.122Z</time></trkpt><trkpt lat="49.1925439" lon="5.5189294"><ele>234.00000000000003</ele><time>2026-03-22T14:19:38.121Z</time></trkpt><trkpt lat="49.1925156" lon="5.5188427"><ele>234.0</ele><time>2026-03-22T14:19:39.122Z</time></trkpt><trkpt lat="49.1924857" lon="5.5187525"><ele>234.0</ele><time>2026-03-22T14:19:40.121Z</time></trkpt><trkpt lat="49.1924515" lon="5.5186673"><ele>234.0</ele><time>2026-03-22T14:19:41.121Z</time></trkpt><trkpt lat="49.1924195" lon="5.5185803"><ele>234.0</ele><time>2026-03-22T14:19:42.121Z</time></trkpt><trkpt lat="49.1923915" lon="5.5184918"><ele>234.0</ele><time>2026-03-22T14:19:43.121Z</time></trkpt><trkpt lat="49.1923626" lon="5.518405"><ele>234.0</ele><time>2026-03-22T14:19:44.122Z</time></trkpt><trkpt lat="49.1923089" lon="5.5182333"><ele>234.0</ele><time>2026-03-22T14:19:46.121Z</time></trkpt><trkpt lat="49.1922593" lon="5.5180613"><ele>234.0</ele><time>2026-03-22T14:19:48.121Z</time></trkpt><trkpt lat="49.1922312" lon="5.5179741"><ele>234.0</ele><time>2026-03-22T14:19:49.121Z</time></trkpt><trkpt lat="49.1922006" lon="5.5178845"><ele>234.00000000000003</ele><time>2026-03-22T14:19:50.121Z</time></trkpt><trkpt lat="49.1921698" lon="5.517795"><ele>234.0</ele><time>2026-03-22T14:19:51.121Z</time></trkpt><trkpt lat="49.1921402" lon="5.5177067"><ele>234.0</ele><time>2026-03-22T14:19:52.122Z</time></trkpt><trkpt lat="49.1921114" lon="5.5176197"><ele>234.00000000000003</ele><time>2026-03-22T14:19:53.121Z</time></trkpt><trkpt lat="49.192082" lon="5.5175332"><ele>234.0</ele><time>2026-03-22T14:19:54.121Z</time></trkpt><trkpt lat="49.1920249" lon="5.5173695"><ele>234.0</ele><time>2026-03-22T14:19:56.121Z</time></trkpt><trkpt lat="49.1919694" lon="5.5172121"><ele>234.0</ele><time>2026-03-22T14:19:58.121Z</time></trkpt><trkpt lat="49.1919092" lon="5.5170697"><ele>233.99999999999997</ele><time>2026-03-22T14:20:00.121Z</time></trkpt><trkpt lat="49.1918545" lon="5.5169726"><ele>233.99999999999997</ele><time>2026-03-22T14:20:02.121Z</time></trkpt><trkpt lat="49.1918156" lon="5.5168868"><ele>234.0</ele><time>2026-03-22T14:20:18.122Z</time></trkpt><trkpt lat="49.1918017" lon="5.5167369"><ele>234.0</ele><time>2026-03-22T14:20:21.121Z</time></trkpt><trkpt lat="49.1917659" lon="5.5165838"><ele>233.85714285714286</ele><time>2026-03-22T14:20:23.121Z</time></trkpt><trkpt lat="49.1917417" lon="5.5164905"><ele>233.71428571428572</ele><time>2026-03-22T14:20:24.121Z</time></trkpt><trkpt lat="49.1917147" lon="5.5163958"><ele>233.57142857142858</ele><time>2026-03-22T14:20:25.121Z</time></trkpt><trkpt lat="49.1916831" lon="5.5162975"><ele>233.42857142857144</ele><time>2026-03-22T14:20:26.121Z</time></trkpt><trkpt lat="49.1916519" lon="5.5162065"><ele>233.28571428571428</ele><time>2026-03-22T14:20:27.121Z</time></trkpt><trkpt lat="49.1916084" lon="5.5160767"><ele>233.14285714285717</ele><time>2026-03-22T14:20:29.121Z</time></trkpt><trkpt lat="49.1915699" lon="5.5159688"><ele>233.0</ele><time>2026-03-22T14:20:31.121Z</time></trkpt><trkpt lat="49.1915283" lon="5.515839"><ele>233.14285714285717</ele><time>2026-03-22T14:20:33.121Z</time></trkpt><trkpt lat="49.1914782" lon="5.515682"><ele>233.28571428571428</ele><time>2026-03-22T14:20:35.122Z</time></trkpt><trkpt lat="49.1914476" lon="5.5155949"><ele>233.42857142857144</ele><time>2026-03-22T14:20:36.121Z</time></trkpt><trkpt lat="49.1914182" lon="5.5155019"><ele>233.57142857142858</ele><time>2026-03-22T14:20:37.121Z</time></trkpt><trkpt lat="49.191387" lon="5.5154095"><ele>233.71428571428572</ele><time>2026-03-22T14:20:38.121Z</time></trkpt><trkpt lat="49.1913548" lon="5.5153216"><ele>233.85714285714286</ele><time>2026-03-22T14:20:39.121Z</time></trkpt><trkpt lat="49.1913231" lon="5.5152327"><ele>234.0</ele><time>2026-03-22T14:20:40.121Z</time></trkpt><trkpt lat="49.1912884" lon="5.5151369"><ele>234.0</ele><time>2026-03-22T14:20:41.121Z</time></trkpt><trkpt lat="49.1912554" lon="5.515037"><ele>234.0</ele><time>2026-03-22T14:20:42.121Z</time></trkpt><trkpt lat="49.1912188" lon="5.514932"><ele>234.0</ele><time>2026-03-22T14:20:43.121Z</time></trkpt><trkpt lat="49.1911818" lon="5.5148306"><ele>234.0</ele><time>2026-03-22T14:20:44.121Z</time></trkpt><trkpt lat="49.1911458" lon="5.5147336"><ele>234.0</ele><time>2026-03-22T14:20:45.121Z</time></trkpt><trkpt lat="49.1911158" lon="5.5146419"><ele>234.0</ele><time>2026-03-22T14:20:46.122Z</time></trkpt><trkpt lat="49.1910615" lon="5.5144594"><ele>234.0</ele><time>2026-03-22T14:20:48.121Z</time></trkpt><trkpt lat="49.1910311" lon="5.5143534"><ele>234.0</ele><time>2026-03-22T14:20:49.121Z</time></trkpt><trkpt lat="49.1910013" lon="5.514246"><ele>234.0</ele><time>2026-03-22T14:20:50.121Z</time></trkpt><trkpt lat="49.1909738" lon="5.5141363"><ele>234.0</ele><time>2026-03-22T14:20:51.121Z</time></trkpt><trkpt lat="49.190947" lon="5.5140314"><ele>234.0</ele><time>2026-03-22T14:20:52.121Z</time></trkpt><trkpt lat="49.1909219" lon="5.5139333"><ele>234.0</ele><time>2026-03-22T14:20:53.121Z</time></trkpt><trkpt lat="49.1908874" lon="5.5137943"><ele>234.0</ele><time>2026-03-22T14:20:55.121Z</time></trkpt><trkpt lat="49.1908523" lon="5.5136345"><ele>233.99999999999997</ele><time>2026-03-22T14:20:57.121Z</time></trkpt><trkpt lat="49.1908121" lon="5.5134526"><ele>233.99999999999997</ele><time>2026-03-22T14:20:59.121Z</time></trkpt><trkpt lat="49.190789" lon="5.5133534"><ele>234.0</ele><time>2026-03-22T14:21:00.121Z</time></trkpt><trkpt lat="49.1907644" lon="5.5132543"><ele>234.0</ele><time>2026-03-22T14:21:01.121Z</time></trkpt><trkpt lat="49.1907381" lon="5.513144"><ele>234.0</ele><time>2026-03-22T14:21:02.121Z</time></trkpt><trkpt lat="49.1907097" lon="5.5130274"><ele>234.0</ele><time>2026-03-22T14:21:03.121Z</time></trkpt><trkpt lat="49.1906828" lon="5.5129112"><ele>234.0</ele><time>2026-03-22T14:21:04.121Z</time></trkpt><trkpt lat="49.1906561" lon="5.5127951"><ele>234.0</ele><time>2026-03-22T14:21:05.121Z</time></trkpt><trkpt lat="49.1906297" lon="5.5126809"><ele>234.0</ele><time>2026-03-22T14:21:06.121Z</time></trkpt><trkpt lat="49.1906058" lon="5.5125664"><ele>234.0</ele><time>2026-03-22T14:21:07.122Z</time></trkpt><trkpt lat="49.1905848" lon="5.5124474"><ele>234.33333333333334</ele><time>2026-03-22T14:21:08.121Z</time></trkpt><trkpt lat="49.1905594" lon="5.5123307"><ele>234.66666666666669</ele><time>2026-03-22T14:21:09.121Z</time></trkpt><trkpt lat="49.1905285" lon="5.5122166"><ele>235.0</ele><time>2026-03-22T14:21:10.122Z</time></trkpt><trkpt lat="49.1905008" lon="5.512104"><ele>235.33333333333334</ele><time>2026-03-22T14:21:11.121Z</time></trkpt><trkpt lat="49.1904733" lon="5.5119907"><ele>235.66666666666669</ele><time>2026-03-22T14:21:12.121Z</time></trkpt><trkpt lat="49.1904471" lon="5.5118769"><ele>236.0</ele><time>2026-03-22T14:21:13.122Z</time></trkpt><trkpt lat="49.1904155" lon="5.5117708"><ele>236.00000000000003</ele><time>2026-03-22T14:21:14.121Z</time></trkpt><trkpt lat="49.1903816" lon="5.5116697"><ele>236.0</ele><time>2026-03-22T14:21:15.121Z</time></trkpt><trkpt lat="49.1903421" lon="5.5115633"><ele>236.0</ele><time>2026-03-22T14:21:16.121Z</time></trkpt><trkpt lat="49.190297" lon="5.5114586"><ele>236.0</ele><time>2026-03-22T14:21:17.121Z</time></trkpt><trkpt lat="49.1902464" lon="5.5113567"><ele>236.00000000000003</ele><time>2026-03-22T14:21:18.121Z</time></trkpt><trkpt lat="49.1901954" lon="5.511259"><ele>236.0</ele><time>2026-03-22T14:21:19.121Z</time></trkpt><trkpt lat="49.1901449" lon="5.5111649"><ele>235.83333333333334</ele><time>2026-03-22T14:21:20.121Z</time></trkpt><trkpt lat="49.1900933" lon="5.5110726"><ele>235.66666666666669</ele><time>2026-03-22T14:21:21.121Z</time></trkpt><trkpt lat="49.1900406" lon="5.5109818"><ele>235.5</ele><time>2026-03-22T14:21:22.122Z</time></trkpt><trkpt lat="49.1899907" lon="5.5108864"><ele>235.33333333333331</ele><time>2026-03-22T14:21:23.121Z</time></trkpt><trkpt lat="49.1899388" lon="5.5107819"><ele>235.16666666666666</ele><time>2026-03-22T14:21:24.121Z</time></trkpt><trkpt lat="49.1898905" lon="5.5106746"><ele>235.0</ele><time>2026-03-22T14:21:25.121Z</time></trkpt><trkpt lat="49.1898474" lon="5.5105637"><ele>235.83333333333331</ele><time>2026-03-22T14:21:26.121Z</time></trkpt><trkpt lat="49.1898123" lon="5.5104515"><ele>236.66666666666666</ele><time>2026-03-22T14:21:27.121Z</time></trkpt><trkpt lat="49.1897826" lon="5.5103407"><ele>237.5</ele><time>2026-03-22T14:21:28.121Z</time></trkpt><trkpt lat="49.1897523" lon="5.5102242"><ele>238.33333333333331</ele><time>2026-03-22T14:21:29.121Z</time></trkpt><trkpt lat="49.1897233" lon="5.510112"><ele>239.16666666666666</ele><time>2026-03-22T14:21:30.121Z</time></trkpt><trkpt lat="49.1896933" lon="5.5099973"><ele>240.0</ele><time>2026-03-22T14:21:31.121Z</time></trkpt><trkpt lat="49.1896618" lon="5.5098791"><ele>240.0</ele><time>2026-03-22T14:21:32.121Z</time></trkpt><trkpt lat="49.1896311" lon="5.5097593"><ele>240.0</ele><time>2026-03-22T14:21:33.121Z</time></trkpt><trkpt lat="49.1896" lon="5.5096388"><ele>240.0</ele><time>2026-03-22T14:21:34.122Z</time></trkpt><trkpt lat="49.1895689" lon="5.5095183"><ele>240.0</ele><time>2026-03-22T14:21:35.121Z</time></trkpt><trkpt lat="49.1895381" lon="5.5093991"><ele>240.0</ele><time>2026-03-22T14:21:36.121Z</time></trkpt><trkpt lat="49.1895056" lon="5.5092792"><ele>240.0</ele><time>2026-03-22T14:21:37.121Z</time></trkpt><trkpt lat="49.1894741" lon="5.5091591"><ele>239.8</ele><time>2026-03-22T14:21:38.121Z</time></trkpt><trkpt lat="49.1894426" lon="5.5090384"><ele>239.6</ele><time>2026-03-22T14:21:39.121Z</time></trkpt><trkpt lat="49.1894105" lon="5.5089146"><ele>239.39999999999998</ele><time>2026-03-22T14:21:40.122Z</time></trkpt><trkpt lat="49.1893759" lon="5.508781"><ele>239.2</ele><time>2026-03-22T14:21:41.121Z</time></trkpt><trkpt lat="49.1893377" lon="5.508639"><ele>239.0</ele><time>2026-03-22T14:21:42.121Z</time></trkpt><trkpt lat="49.1892966" lon="5.5084842"><ele>239.0</ele><time>2026-03-22T14:21:43.121Z</time></trkpt><trkpt lat="49.1892559" lon="5.5083276"><ele>238.99999999999997</ele><time>2026-03-22T14:21:44.122Z</time></trkpt><trkpt lat="49.1892189" lon="5.5081719"><ele>238.99999999999997</ele><time>2026-03-22T14:21:45.121Z</time></trkpt><trkpt lat="49.1891829" lon="5.5080132"><ele>239.0</ele><time>2026-03-22T14:21:46.121Z</time></trkpt><trkpt lat="49.1891432" lon="5.5078532"><ele>239.0</ele><time>2026-03-22T14:21:47.121Z</time></trkpt><trkpt lat="49.1891066" lon="5.5076972"><ele>239.2</ele><time>2026-03-22T14:21:48.121Z</time></trkpt><trkpt lat="49.1890694" lon="5.5075399"><ele>239.39999999999998</ele><time>2026-03-22T14:21:49.121Z</time></trkpt><trkpt lat="49.1890344" lon="5.5073872"><ele>239.6</ele><time>2026-03-22T14:21:50.121Z</time></trkpt><trkpt lat="49.1890029" lon="5.5072412"><ele>239.8</ele><time>2026-03-22T14:21:51.121Z</time></trkpt><trkpt lat="49.1889739" lon="5.5070949"><ele>240.0</ele><time>2026-03-22T14:21:52.121Z</time></trkpt><trkpt lat="49.1889413" lon="5.5069548"><ele>240.6</ele><time>2026-03-22T14:21:53.121Z</time></trkpt><trkpt lat="49.1889055" lon="5.5068157"><ele>241.2</ele><time>2026-03-22T14:21:54.122Z</time></trkpt><trkpt lat="49.1888691" lon="5.5066774"><ele>241.8</ele><time>2026-03-22T14:21:55.121Z</time></trkpt><trkpt lat="49.1888373" lon="5.5065351"><ele>242.4</ele><time>2026-03-22T14:21:56.121Z</time></trkpt><trkpt lat="49.1888038" lon="5.5063861"><ele>243.0</ele><time>2026-03-22T14:21:57.122Z</time></trkpt><trkpt lat="49.1887651" lon="5.5062356"><ele>243.0</ele><time>2026-03-22T14:21:58.121Z</time></trkpt><trkpt lat="49.1887276" lon="5.5060801"><ele>243.0</ele><time>2026-03-22T14:21:59.121Z</time></trkpt><trkpt lat="49.1886869" lon="5.5059195"><ele>243.0</ele><time>2026-03-22T14:22:00.121Z</time></trkpt><trkpt lat="49.1886409" lon="5.5057654"><ele>243.0</ele><time>2026-03-22T14:22:01.121Z</time></trkpt><trkpt lat="49.1886009" lon="5.5056114"><ele>243.0</ele><time>2026-03-22T14:22:02.121Z</time></trkpt><trkpt lat="49.1885663" lon="5.5054521"><ele>242.25</ele><time>2026-03-22T14:22:03.121Z</time></trkpt><trkpt lat="49.1885299" lon="5.5052886"><ele>241.5</ele><time>2026-03-22T14:22:04.121Z</time></trkpt><trkpt lat="49.18849" lon="5.505125"><ele>240.75</ele><time>2026-03-22T14:22:05.121Z</time></trkpt><trkpt lat="49.188449" lon="5.504963"><ele>240.0</ele><time>2026-03-22T14:22:06.122Z</time></trkpt><trkpt lat="49.1884104" lon="5.5048021"><ele>240.0</ele><time>2026-03-22T14:22:07.121Z</time></trkpt><trkpt lat="49.1883729" lon="5.5046477"><ele>240.0</ele><time>2026-03-22T14:22:08.121Z</time></trkpt><trkpt lat="49.1883391" lon="5.5044969"><ele>240.0</ele><time>2026-03-22T14:22:09.121Z</time></trkpt><trkpt lat="49.1883038" lon="5.5043467"><ele>240.0</ele><time>2026-03-22T14:22:10.122Z</time></trkpt><trkpt lat="49.1882676" lon="5.504204"><ele>240.0</ele><time>2026-03-22T14:22:11.121Z</time></trkpt><trkpt lat="49.1882309" lon="5.5040622"><ele>240.2</ele><time>2026-03-22T14:22:12.121Z</time></trkpt><trkpt lat="49.1881928" lon="5.5039217"><ele>240.4</ele><time>2026-03-22T14:22:13.121Z</time></trkpt><trkpt lat="49.1881522" lon="5.5037806"><ele>240.60000000000002</ele><time>2026-03-22T14:22:14.121Z</time></trkpt><trkpt lat="49.1881077" lon="5.5036474"><ele>240.8</ele><time>2026-03-22T14:22:15.121Z</time></trkpt><trkpt lat="49.1880679" lon="5.5035101"><ele>241.0</ele><time>2026-03-22T14:22:16.121Z</time></trkpt><trkpt lat="49.1880232" lon="5.5033708"><ele>241.20000000000002</ele><time>2026-03-22T14:22:17.121Z</time></trkpt><trkpt lat="49.1879699" lon="5.5032336"><ele>241.40000000000003</ele><time>2026-03-22T14:22:18.121Z</time></trkpt><trkpt lat="49.1879108" lon="5.5031004"><ele>241.6</ele><time>2026-03-22T14:22:19.122Z</time></trkpt><trkpt lat="49.1878536" lon="5.5029711"><ele>241.8</ele><time>2026-03-22T14:22:20.121Z</time></trkpt><trkpt lat="49.1877909" lon="5.5028481"><ele>242.0</ele><time>2026-03-22T14:22:21.121Z</time></trkpt><trkpt lat="49.1877253" lon="5.502731"><ele>242.2</ele><time>2026-03-22T14:22:22.121Z</time></trkpt><trkpt lat="49.1876572" lon="5.5026217"><ele>242.39999999999998</ele><time>2026-03-22T14:22:23.121Z</time></trkpt><trkpt lat="49.1875904" lon="5.5025194"><ele>242.60000000000002</ele><time>2026-03-22T14:22:24.121Z</time></trkpt><trkpt lat="49.1875292" lon="5.5024241"><ele>242.8</ele><time>2026-03-22T14:22:25.121Z</time></trkpt><trkpt lat="49.1874784" lon="5.5023421"><ele>243.0</ele><time>2026-03-22T14:22:26.121Z</time></trkpt><trkpt lat="49.1874128" lon="5.5022344"><ele>243.0</ele><time>2026-03-22T14:22:28.121Z</time></trkpt><trkpt lat="49.1873475" lon="5.5021541"><ele>243.0</ele><time>2026-03-22T14:22:31.121Z</time></trkpt><trkpt lat="49.1872664" lon="5.5021482"><ele>243.0</ele><time>2026-03-22T14:22:33.121Z</time></trkpt><trkpt lat="49.1871395" lon="5.502185"><ele>243.0</ele><time>2026-03-22T14:22:35.121Z</time></trkpt><trkpt lat="49.1870596" lon="5.5022158"><ele>243.0</ele><time>2026-03-22T14:22:36.121Z</time></trkpt><trkpt lat="49.1869707" lon="5.5022552"><ele>243.2</ele><time>2026-03-22T14:22:37.121Z</time></trkpt><trkpt lat="49.1868733" lon="5.5022979"><ele>243.4</ele><time>2026-03-22T14:22:38.121Z</time></trkpt><trkpt lat="49.1867702" lon="5.5023438"><ele>243.59999999999997</ele><time>2026-03-22T14:22:39.121Z</time></trkpt><trkpt lat="49.1866626" lon="5.5023912"><ele>243.79999999999998</ele><time>2026-03-22T14:22:40.122Z</time></trkpt><trkpt lat="49.1865526" lon="5.5024381"><ele>244.0</ele><time>2026-03-22T14:22:41.121Z</time></trkpt><trkpt lat="49.1864433" lon="5.5024854"><ele>244.79999999999998</ele><time>2026-03-22T14:22:42.121Z</time></trkpt><trkpt lat="49.1863348" lon="5.5025343"><ele>245.59999999999997</ele><time>2026-03-22T14:22:43.121Z</time></trkpt><trkpt lat="49.186228" lon="5.5025829"><ele>246.4</ele><time>2026-03-22T14:22:44.121Z</time></trkpt><trkpt lat="49.1861256" lon="5.5026269"><ele>247.2</ele><time>2026-03-22T14:22:45.121Z</time></trkpt><trkpt lat="49.1860267" lon="5.5026726"><ele>248.0</ele><time>2026-03-22T14:22:46.121Z</time></trkpt><trkpt lat="49.1859287" lon="5.5027172"><ele>248.0</ele><time>2026-03-22T14:22:47.121Z</time></trkpt><trkpt lat="49.1858314" lon="5.5027586"><ele>248.0</ele><time>2026-03-22T14:22:48.122Z</time></trkpt><trkpt lat="49.1857369" lon="5.5027996"><ele>248.0</ele><time>2026-03-22T14:22:49.121Z</time></trkpt><trkpt lat="49.1856466" lon="5.5028394"><ele>248.0</ele><time>2026-03-22T14:22:50.122Z</time></trkpt><trkpt lat="49.1855621" lon="5.5028781"><ele>248.0</ele><time>2026-03-22T14:22:51.121Z</time></trkpt><trkpt lat="49.1854867" lon="5.5029157"><ele>248.4</ele><time>2026-03-22T14:22:52.121Z</time></trkpt><trkpt lat="49.1854225" lon="5.5029486"><ele>248.8</ele><time>2026-03-22T14:22:53.121Z</time></trkpt><trkpt lat="49.1853304" lon="5.5029888"><ele>249.2</ele><time>2026-03-22T14:22:55.121Z</time></trkpt><trkpt lat="49.1852598" lon="5.5030035"><ele>249.6</ele><time>2026-03-22T14:22:58.121Z</time></trkpt><trkpt lat="49.1851563" lon="5.5029756"><ele>250.0</ele><time>2026-03-22T14:23:01.121Z</time></trkpt><trkpt lat="49.1850615" lon="5.5028613"><ele>250.0</ele><time>2026-03-22T14:23:03.121Z</time></trkpt><trkpt lat="49.1850214" lon="5.5027564"><ele>250.0</ele><time>2026-03-22T14:23:04.122Z</time></trkpt><trkpt lat="49.1849894" lon="5.5026263"><ele>250.0</ele><time>2026-03-22T14:23:05.121Z</time></trkpt><trkpt lat="49.1849632" lon="5.5024811"><ele>250.0</ele><time>2026-03-22T14:23:06.121Z</time></trkpt><trkpt lat="49.1849381" lon="5.5023234"><ele>250.0</ele><time>2026-03-22T14:23:07.121Z</time></trkpt><trkpt lat="49.1849124" lon="5.502154"><ele>250.25</ele><time>2026-03-22T14:23:08.121Z</time></trkpt><trkpt lat="49.1848867" lon="5.5019711"><ele>250.5</ele><time>2026-03-22T14:23:09.121Z</time></trkpt><trkpt lat="49.1848604" lon="5.5017733"><ele>250.75</ele><time>2026-03-22T14:23:10.121Z</time></trkpt><trkpt lat="49.1848336" lon="5.5015642"><ele>251.0</ele><time>2026-03-22T14:23:11.121Z</time></trkpt><trkpt lat="49.1848066" lon="5.5013547"><ele>251.75</ele><time>2026-03-22T14:23:12.121Z</time></trkpt><trkpt lat="49.1847777" lon="5.5011483"><ele>252.5</ele><time>2026-03-22T14:23:13.122Z</time></trkpt><trkpt lat="49.1847478" lon="5.5009436"><ele>253.25</ele><time>2026-03-22T14:23:14.121Z</time></trkpt><trkpt lat="49.1847167" lon="5.5007383"><ele>254.0</ele><time>2026-03-22T14:23:15.121Z</time></trkpt><trkpt lat="49.1846856" lon="5.5005325"><ele>255.5</ele><time>2026-03-22T14:23:16.122Z</time></trkpt><trkpt lat="49.1846553" lon="5.5003262"><ele>257.0</ele><time>2026-03-22T14:23:17.121Z</time></trkpt><trkpt lat="49.1846258" lon="5.5001204"><ele>258.5</ele><time>2026-03-22T14:23:18.121Z</time></trkpt><trkpt lat="49.184596" lon="5.4999154"><ele>260.0</ele><time>2026-03-22T14:23:19.122Z</time></trkpt><trkpt lat="49.1845659" lon="5.4997108"><ele>261.0</ele><time>2026-03-22T14:23:20.121Z</time></trkpt><trkpt lat="49.1845348" lon="5.4995054"><ele>262.0</ele><time>2026-03-22T14:23:21.121Z</time></trkpt><trkpt lat="49.1845019" lon="5.4992988"><ele>263.0</ele><time>2026-03-22T14:23:22.122Z</time></trkpt><trkpt lat="49.1844672" lon="5.4990914"><ele>264.0</ele><time>2026-03-22T14:23:23.122Z</time></trkpt><trkpt lat="49.1844288" lon="5.4988884"><ele>264.75</ele><time>2026-03-22T14:23:24.121Z</time></trkpt><trkpt lat="49.1843883" lon="5.4986897"><ele>265.5</ele><time>2026-03-22T14:23:25.122Z</time></trkpt><trkpt lat="49.1843462" lon="5.4984932"><ele>266.25</ele><time>2026-03-22T14:23:26.121Z</time></trkpt><trkpt lat="49.1843032" lon="5.4982958"><ele>267.0</ele><time>2026-03-22T14:23:27.121Z</time></trkpt><trkpt lat="49.1842583" lon="5.498097"><ele>267.0</ele><time>2026-03-22T14:23:28.121Z</time></trkpt><trkpt lat="49.1842148" lon="5.4978938"><ele>267.0</ele><time>2026-03-22T14:23:29.121Z</time></trkpt><trkpt lat="49.1841725" lon="5.4976878"><ele>267.0</ele><time>2026-03-22T14:23:30.121Z</time></trkpt><trkpt lat="49.1841305" lon="5.4974791"><ele>267.0</ele><time>2026-03-22T14:23:31.121Z</time></trkpt><trkpt lat="49.1840884" lon="5.4972685"><ele>266.75</ele><time>2026-03-22T14:23:32.121Z</time></trkpt><trkpt lat="49.1840451" lon="5.4970578"><ele>266.5</ele><time>2026-03-22T14:23:33.121Z</time></trkpt><trkpt lat="49.1840012" lon="5.4968493"><ele>266.25</ele><time>2026-03-22T14:23:34.121Z</time></trkpt><trkpt lat="49.1839582" lon="5.4966469"><ele>266.0</ele><time>2026-03-22T14:23:35.121Z</time></trkpt><trkpt lat="49.1839164" lon="5.4964489"><ele>266.0</ele><time>2026-03-22T14:23:36.121Z</time></trkpt><trkpt lat="49.1838762" lon="5.4962564"><ele>266.0</ele><time>2026-03-22T14:23:37.121Z</time></trkpt><trkpt lat="49.1838388" lon="5.4960741"><ele>266.0</ele><time>2026-03-22T14:23:38.121Z</time></trkpt><trkpt lat="49.1838067" lon="5.4959093"><ele>266.0</ele><time>2026-03-22T14:23:39.121Z</time></trkpt><trkpt lat="49.1837855" lon="5.4957618"><ele>266.0</ele><time>2026-03-22T14:23:40.121Z</time></trkpt><trkpt lat="49.183784" lon="5.4956307"><ele>266.0</ele><time>2026-03-22T14:23:41.121Z</time></trkpt><trkpt lat="49.1837936" lon="5.4955046"><ele>266.0</ele><time>2026-03-22T14:23:42.121Z</time></trkpt><trkpt lat="49.1838005" lon="5.4953779"><ele>266.0</ele><time>2026-03-22T14:23:43.121Z</time></trkpt><trkpt lat="49.1837964" lon="5.4952299"><ele>266.0</ele><time>2026-03-22T14:23:44.122Z</time></trkpt><trkpt lat="49.1837827" lon="5.4950642"><ele>266.75</ele><time>2026-03-22T14:23:45.121Z</time></trkpt><trkpt lat="49.1837782" lon="5.4948934"><ele>267.5</ele><time>2026-03-22T14:23:46.121Z</time></trkpt><trkpt lat="49.1837826" lon="5.4947134"><ele>268.25</ele><time>2026-03-22T14:23:47.121Z</time></trkpt><trkpt lat="49.1837982" lon="5.4945363"><ele>269.0</ele><time>2026-03-22T14:23:48.121Z</time></trkpt><trkpt lat="49.1838222" lon="5.4943723"><ele>270.0</ele><time>2026-03-22T14:23:49.121Z</time></trkpt><trkpt lat="49.1838524" lon="5.4942262"><ele>271.0</ele><time>2026-03-22T14:23:50.121Z</time></trkpt><trkpt lat="49.183883" lon="5.494099"><ele>272.0</ele><time>2026-03-22T14:23:51.122Z</time></trkpt><trkpt lat="49.1839059" lon="5.4939872"><ele>273.0</ele><time>2026-03-22T14:23:52.121Z</time></trkpt><trkpt lat="49.1839363" lon="5.4938966"><ele>274.0</ele><time>2026-03-22T14:23:53.121Z</time></trkpt><trkpt lat="49.1839807" lon="5.4937709"><ele>275.0</ele><time>2026-03-22T14:23:55.121Z</time></trkpt><trkpt lat="49.1839513" lon="5.493676"><ele>275.83333333333337</ele><time>2026-03-22T14:26:22.121Z</time></trkpt><trkpt lat="49.1839838" lon="5.4935838"><ele>276.6666666666667</ele><time>2026-03-22T14:26:29.121Z</time></trkpt><trkpt lat="49.1840244" lon="5.4935065"><ele>277.5</ele><time>2026-03-22T14:26:32.121Z</time></trkpt><trkpt lat="49.1840467" lon="5.4933845"><ele>278.3333333333333</ele><time>2026-03-22T14:26:35.121Z</time></trkpt><trkpt lat="49.1840435" lon="5.493284"><ele>279.16666666666663</ele><time>2026-03-22T14:26:43.121Z</time></trkpt><trkpt lat="49.1840408" lon="5.4931243"><ele>280.0</ele><time>2026-03-22T14:26:46.122Z</time></trkpt><trkpt lat="49.1840367" lon="5.4929631"><ele>281.4</ele><time>2026-03-22T14:26:48.121Z</time></trkpt><trkpt lat="49.1840277" lon="5.4927938"><ele>282.8</ele><time>2026-03-22T14:26:50.121Z</time></trkpt><trkpt lat="49.1840156" lon="5.4926304"><ele>284.2</ele><time>2026-03-22T14:26:52.122Z</time></trkpt><trkpt lat="49.1840057" lon="5.4924764"><ele>285.6</ele><time>2026-03-22T14:26:54.121Z</time></trkpt><trkpt lat="49.1839968" lon="5.4922837"><ele>287.0</ele><time>2026-03-22T14:26:56.121Z</time></trkpt><trkpt lat="49.1839923" lon="5.4921678"><ele>287.33333333333337</ele><time>2026-03-22T14:26:57.121Z</time></trkpt><trkpt lat="49.1839876" lon="5.4920455"><ele>287.6666666666667</ele><time>2026-03-22T14:26:58.121Z</time></trkpt><trkpt lat="49.1839829" lon="5.4919182"><ele>288.0</ele><time>2026-03-22T14:26:59.121Z</time></trkpt><trkpt lat="49.1839739" lon="5.4917905"><ele>288.3333333333333</ele><time>2026-03-22T14:27:00.122Z</time></trkpt><trkpt lat="49.1839688" lon="5.4916585"><ele>288.66666666666663</ele><time>2026-03-22T14:27:01.121Z</time></trkpt><trkpt lat="49.1839632" lon="5.4915296"><ele>289.0</ele><time>2026-03-22T14:27:02.121Z</time></trkpt><trkpt lat="49.1839603" lon="5.4914007"><ele>289.0</ele><time>2026-03-22T14:27:03.121Z</time></trkpt><trkpt lat="49.1839551" lon="5.4912728"><ele>289.0</ele><time>2026-03-22T14:27:04.121Z</time></trkpt><trkpt lat="49.1839492" lon="5.4911364"><ele>289.0</ele><time>2026-03-22T14:27:05.121Z</time></trkpt><trkpt lat="49.1839436" lon="5.4909929"><ele>289.0</ele><time>2026-03-22T14:27:06.121Z</time></trkpt><trkpt lat="49.1839365" lon="5.4908446"><ele>289.0</ele><time>2026-03-22T14:27:07.121Z</time></trkpt><trkpt lat="49.1839309" lon="5.4906959"><ele>289.2</ele><time>2026-03-22T14:27:08.122Z</time></trkpt><trkpt lat="49.1839247" lon="5.4905423"><ele>289.4</ele><time>2026-03-22T14:27:09.121Z</time></trkpt><trkpt lat="49.1839176" lon="5.490387"><ele>289.6</ele><time>2026-03-22T14:27:10.121Z</time></trkpt><trkpt lat="49.1839102" lon="5.4902305"><ele>289.8</ele><time>2026-03-22T14:27:11.122Z</time></trkpt><trkpt lat="49.1839037" lon="5.4900786"><ele>290.0</ele><time>2026-03-22T14:27:12.121Z</time></trkpt><trkpt lat="49.1838967" lon="5.4899291"><ele>290.0</ele><time>2026-03-22T14:27:13.121Z</time></trkpt><trkpt lat="49.1838879" lon="5.4897785"><ele>290.0</ele><time>2026-03-22T14:27:14.122Z</time></trkpt><trkpt lat="49.1838807" lon="5.4896285"><ele>290.0</ele><time>2026-03-22T14:27:15.121Z</time></trkpt><trkpt lat="49.1838747" lon="5.4894739"><ele>290.0</ele><time>2026-03-22T14:27:16.121Z</time></trkpt><trkpt lat="49.1838665" lon="5.4893181"><ele>290.0</ele><time>2026-03-22T14:27:17.121Z</time></trkpt><trkpt lat="49.1838577" lon="5.4891595"><ele>290.0</ele><time>2026-03-22T14:27:18.121Z</time></trkpt><trkpt lat="49.183849" lon="5.4889988"><ele>290.0</ele><time>2026-03-22T14:27:19.121Z</time></trkpt><trkpt lat="49.1838399" lon="5.4888386"><ele>290.0</ele><time>2026-03-22T14:27:20.121Z</time></trkpt><trkpt lat="49.1838292" lon="5.4886808"><ele>290.0</ele><time>2026-03-22T14:27:21.121Z</time></trkpt><trkpt lat="49.1838168" lon="5.4885261"><ele>290.0</ele><time>2026-03-22T14:27:22.121Z</time></trkpt><trkpt lat="49.1838052" lon="5.4883717"><ele>289.6</ele><time>2026-03-22T14:27:23.121Z</time></trkpt><trkpt lat="49.1837911" lon="5.488218"><ele>289.2</ele><time>2026-03-22T14:27:24.121Z</time></trkpt><trkpt lat="49.1837751" lon="5.4880663"><ele>288.8</ele><time>2026-03-22T14:27:25.121Z</time></trkpt><trkpt lat="49.1837594" lon="5.4879157"><ele>288.4</ele><time>2026-03-22T14:27:26.121Z</time></trkpt><trkpt lat="49.1837425" lon="5.4877668"><ele>288.0</ele><time>2026-03-22T14:27:27.121Z</time></trkpt><trkpt lat="49.1837231" lon="5.4876193"><ele>287.6</ele><time>2026-03-22T14:27:28.121Z</time></trkpt><trkpt lat="49.1837" lon="5.4874669"><ele>287.20000000000005</ele><time>2026-03-22T14:27:29.121Z</time></trkpt><trkpt lat="49.1836747" lon="5.4873107"><ele>286.8</ele><time>2026-03-22T14:27:30.121Z</time></trkpt><trkpt lat="49.1836479" lon="5.4871579"><ele>286.40000000000003</ele><time>2026-03-22T14:27:31.122Z</time></trkpt><trkpt lat="49.1836232" lon="5.4870137"><ele>286.0</ele><time>2026-03-22T14:27:32.121Z</time></trkpt><trkpt lat="49.1836" lon="5.4868766"><ele>285.6</ele><time>2026-03-22T14:27:33.121Z</time></trkpt><trkpt lat="49.1835751" lon="5.4867369"><ele>285.20000000000005</ele><time>2026-03-22T14:27:34.121Z</time></trkpt><trkpt lat="49.1835475" lon="5.4865935"><ele>284.79999999999995</ele><time>2026-03-22T14:27:35.121Z</time></trkpt><trkpt lat="49.1835214" lon="5.4864556"><ele>284.4</ele><time>2026-03-22T14:27:36.121Z</time></trkpt><trkpt lat="49.1834927" lon="5.4863132"><ele>284.0</ele><time>2026-03-22T14:27:37.121Z</time></trkpt><trkpt lat="49.1834671" lon="5.4861691"><ele>282.8</ele><time>2026-03-22T14:27:38.121Z</time></trkpt><trkpt lat="49.1834407" lon="5.486025"><ele>281.59999999999997</ele><time>2026-03-22T14:27:39.121Z</time></trkpt><trkpt lat="49.1834112" lon="5.4858776"><ele>280.4</ele><time>2026-03-22T14:27:40.121Z</time></trkpt><trkpt lat="49.1833809" lon="5.4857285"><ele>279.2</ele><time>2026-03-22T14:27:41.121Z</time></trkpt><trkpt lat="49.1833505" lon="5.4855767"><ele>278.0</ele><time>2026-03-22T14:27:42.121Z</time></trkpt><trkpt lat="49.1833216" lon="5.4854225"><ele>277.8</ele><time>2026-03-22T14:27:43.122Z</time></trkpt><trkpt lat="49.1832958" lon="5.4852711"><ele>277.6</ele><time>2026-03-22T14:27:44.121Z</time></trkpt><trkpt lat="49.183269" lon="5.4851188"><ele>277.4</ele><time>2026-03-22T14:27:45.121Z</time></trkpt><trkpt lat="49.1832433" lon="5.4849692"><ele>277.2</ele><time>2026-03-22T14:27:46.121Z</time></trkpt><trkpt lat="49.1832199" lon="5.4848195"><ele>277.0</ele><time>2026-03-22T14:27:47.121Z</time></trkpt><trkpt lat="49.183197" lon="5.4846669"><ele>284.8</ele><time>2026-03-22T14:27:48.122Z</time></trkpt><trkpt lat="49.1831757" lon="5.4845126"><ele>292.6</ele><time>2026-03-22T14:27:49.121Z</time></trkpt><trkpt lat="49.183155" lon="5.4843592"><ele>300.40000000000003</ele><time>2026-03-22T14:27:50.121Z</time></trkpt><trkpt lat="49.1831386" lon="5.4842034"><ele>308.2</ele><time>2026-03-22T14:27:51.121Z</time></trkpt><trkpt lat="49.1831257" lon="5.4840477"><ele>316.0</ele><time>2026-03-22T14:27:52.122Z</time></trkpt><trkpt lat="49.1831127" lon="5.4838884"><ele>316.0</ele><time>2026-03-22T14:27:53.121Z</time></trkpt><trkpt lat="49.183102" lon="5.4837275"><ele>316.0</ele><time>2026-03-22T14:27:54.121Z</time></trkpt><trkpt lat="49.1830932" lon="5.4835642"><ele>316.0</ele><time>2026-03-22T14:27:55.121Z</time></trkpt><trkpt lat="49.1830867" lon="5.4833996"><ele>316.0</ele><time>2026-03-22T14:27:56.121Z</time></trkpt><trkpt lat="49.1830833" lon="5.4832343"><ele>316.0</ele><time>2026-03-22T14:27:57.121Z</time></trkpt><trkpt lat="49.1830806" lon="5.4830686"><ele>315.8</ele><time>2026-03-22T14:27:58.121Z</time></trkpt><trkpt lat="49.1830797" lon="5.4829054"><ele>315.6</ele><time>2026-03-22T14:27:59.121Z</time></trkpt><trkpt lat="49.1830791" lon="5.4827452"><ele>315.4</ele><time>2026-03-22T14:28:00.121Z</time></trkpt><trkpt lat="49.1830844" lon="5.4825872"><ele>315.2</ele><time>2026-03-22T14:28:01.121Z</time></trkpt><trkpt lat="49.1830916" lon="5.4824289"><ele>315.0</ele><time>2026-03-22T14:28:02.121Z</time></trkpt><trkpt lat="49.1831004" lon="5.4822668"><ele>315.0</ele><time>2026-03-22T14:28:03.121Z</time></trkpt><trkpt lat="49.1831094" lon="5.4821016"><ele>315.0</ele><time>2026-03-22T14:28:04.121Z</time></trkpt><trkpt lat="49.1831228" lon="5.4819345"><ele>315.0</ele><time>2026-03-22T14:28:05.122Z</time></trkpt><trkpt lat="49.1831388" lon="5.481768"><ele>315.0</ele><time>2026-03-22T14:28:06.121Z</time></trkpt><trkpt lat="49.1831556" lon="5.4816001"><ele>315.0</ele><time>2026-03-22T14:28:07.121Z</time></trkpt><trkpt lat="49.1831709" lon="5.4814345"><ele>308.8</ele><time>2026-03-22T14:28:08.121Z</time></trkpt><trkpt lat="49.183193" lon="5.4812773"><ele>302.6</ele><time>2026-03-22T14:28:09.121Z</time></trkpt><trkpt lat="49.1832162" lon="5.4811179"><ele>296.4</ele><time>2026-03-22T14:28:10.121Z</time></trkpt><trkpt lat="49.1832416" lon="5.4809633"><ele>290.2</ele><time>2026-03-22T14:28:11.121Z</time></trkpt><trkpt lat="49.1832683" lon="5.4808085"><ele>284.0</ele><time>2026-03-22T14:28:12.121Z</time></trkpt><trkpt lat="49.1832962" lon="5.4806562"><ele>284.0</ele><time>2026-03-22T14:28:13.121Z</time></trkpt><trkpt lat="49.183329" lon="5.4805036"><ele>284.0</ele><time>2026-03-22T14:28:14.122Z</time></trkpt><trkpt lat="49.1833622" lon="5.4803556"><ele>284.0</ele><time>2026-03-22T14:28:15.121Z</time></trkpt><trkpt lat="49.183396" lon="5.4802083"><ele>284.0</ele><time>2026-03-22T14:28:16.121Z</time></trkpt><trkpt lat="49.1834295" lon="5.4800596"><ele>284.0</ele><time>2026-03-22T14:28:17.122Z</time></trkpt><trkpt lat="49.1834668" lon="5.4799127"><ele>285.8</ele><time>2026-03-22T14:28:18.121Z</time></trkpt><trkpt lat="49.183506" lon="5.4797658"><ele>287.59999999999997</ele><time>2026-03-22T14:28:19.121Z</time></trkpt><trkpt lat="49.1835445" lon="5.4796187"><ele>289.4</ele><time>2026-03-22T14:28:20.122Z</time></trkpt><trkpt lat="49.1835835" lon="5.4794709"><ele>291.2</ele><time>2026-03-22T14:28:21.121Z</time></trkpt><trkpt lat="49.1836249" lon="5.4793217"><ele>293.0</ele><time>2026-03-22T14:28:22.121Z</time></trkpt><trkpt lat="49.1836663" lon="5.4791712"><ele>294.2</ele><time>2026-03-22T14:28:23.121Z</time></trkpt><trkpt lat="49.1837058" lon="5.4790187"><ele>295.4</ele><time>2026-03-22T14:28:24.121Z</time></trkpt><trkpt lat="49.1837477" lon="5.4788675"><ele>296.59999999999997</ele><time>2026-03-22T14:28:25.121Z</time></trkpt><trkpt lat="49.1837889" lon="5.4787173"><ele>297.8</ele><time>2026-03-22T14:28:26.122Z</time></trkpt><trkpt lat="49.1838273" lon="5.4785626"><ele>299.0</ele><time>2026-03-22T14:28:27.121Z</time></trkpt><trkpt lat="49.1838686" lon="5.4784128"><ele>297.4</ele><time>2026-03-22T14:28:28.121Z</time></trkpt><trkpt lat="49.1839086" lon="5.4782622"><ele>295.79999999999995</ele><time>2026-03-22T14:28:29.121Z</time></trkpt><trkpt lat="49.1839472" lon="5.4781162"><ele>294.20000000000005</ele><time>2026-03-22T14:28:30.122Z</time></trkpt><trkpt lat="49.1839868" lon="5.4779721"><ele>292.6</ele><time>2026-03-22T14:28:31.121Z</time></trkpt><trkpt lat="49.1840258" lon="5.4778268"><ele>291.0</ele><time>2026-03-22T14:28:32.121Z</time></trkpt><trkpt lat="49.1840637" lon="5.4776818"><ele>291.0</ele><time>2026-03-22T14:28:33.122Z</time></trkpt><trkpt lat="49.1841029" lon="5.4775376"><ele>291.0</ele><time>2026-03-22T14:28:34.121Z</time></trkpt><trkpt lat="49.1841402" lon="5.4773962"><ele>291.0</ele><time>2026-03-22T14:28:35.121Z</time></trkpt><trkpt lat="49.1841798" lon="5.4772501"><ele>291.0</ele><time>2026-03-22T14:28:36.121Z</time></trkpt><trkpt lat="49.1842202" lon="5.4771014"><ele>291.0</ele><time>2026-03-22T14:28:37.121Z</time></trkpt><trkpt lat="49.1842611" lon="5.4769517"><ele>293.2</ele><time>2026-03-22T14:28:38.121Z</time></trkpt><trkpt lat="49.1842999" lon="5.4768048"><ele>295.40000000000003</ele><time>2026-03-22T14:28:39.121Z</time></trkpt><trkpt lat="49.1843386" lon="5.4766604"><ele>297.6</ele><time>2026-03-22T14:28:40.121Z</time></trkpt><trkpt lat="49.1843786" lon="5.476517"><ele>299.8</ele><time>2026-03-22T14:28:41.121Z</time></trkpt><trkpt lat="49.1844168" lon="5.4763752"><ele>302.0</ele><time>2026-03-22T14:28:42.121Z</time></trkpt><trkpt lat="49.1844517" lon="5.476235"><ele>304.4</ele><time>2026-03-22T14:28:43.121Z</time></trkpt><trkpt lat="49.1844895" lon="5.4760954"><ele>306.79999999999995</ele><time>2026-03-22T14:28:44.121Z</time></trkpt><trkpt lat="49.1845273" lon="5.4759538"><ele>309.2</ele><time>2026-03-22T14:28:45.121Z</time></trkpt><trkpt lat="49.1845651" lon="5.4758151"><ele>311.59999999999997</ele><time>2026-03-22T14:28:46.121Z</time></trkpt><trkpt lat="49.1846041" lon="5.4756745"><ele>314.0</ele><time>2026-03-22T14:28:47.121Z</time></trkpt><trkpt lat="49.1846404" lon="5.4755362"><ele>315.6</ele><time>2026-03-22T14:28:48.122Z</time></trkpt><trkpt lat="49.1846776" lon="5.4753992"><ele>317.2</ele><time>2026-03-22T14:28:49.121Z</time></trkpt><trkpt lat="49.1847143" lon="5.4752628"><ele>318.8</ele><time>2026-03-22T14:28:50.121Z</time></trkpt><trkpt lat="49.1847506" lon="5.4751246"><ele>320.40000000000003</ele><time>2026-03-22T14:28:51.121Z</time></trkpt><trkpt lat="49.1847892" lon="5.4749826"><ele>322.0</ele><time>2026-03-22T14:28:52.121Z</time></trkpt><trkpt lat="49.1848291" lon="5.4748417"><ele>316.8</ele><time>2026-03-22T14:28:53.121Z</time></trkpt><trkpt lat="49.1848694" lon="5.4747017"><ele>311.6</ele><time>2026-03-22T14:28:54.121Z</time></trkpt><trkpt lat="49.1849136" lon="5.4745611"><ele>306.40000000000003</ele><time>2026-03-22T14:28:55.121Z</time></trkpt><trkpt lat="49.18496" lon="5.4744217"><ele>301.20000000000005</ele><time>2026-03-22T14:28:56.121Z</time></trkpt><trkpt lat="49.1850086" lon="5.4742836"><ele>296.0</ele><time>2026-03-22T14:28:57.121Z</time></trkpt><trkpt lat="49.1850577" lon="5.474149"><ele>296.0</ele><time>2026-03-22T14:28:58.121Z</time></trkpt><trkpt lat="49.1851103" lon="5.4740146"><ele>296.0</ele><time>2026-03-22T14:28:59.122Z</time></trkpt><trkpt lat="49.1851614" lon="5.473879"><ele>296.0</ele><time>2026-03-22T14:29:00.121Z</time></trkpt><trkpt lat="49.1852129" lon="5.4737468"><ele>296.0</ele><time>2026-03-22T14:29:01.122Z</time></trkpt><trkpt lat="49.1852668" lon="5.4736172"><ele>296.0</ele><time>2026-03-22T14:29:02.121Z</time></trkpt><trkpt lat="49.1853221" lon="5.4734909"><ele>298.40000000000003</ele><time>2026-03-22T14:29:03.121Z</time></trkpt><trkpt lat="49.1853796" lon="5.4733672"><ele>300.8</ele><time>2026-03-22T14:29:04.121Z</time></trkpt><trkpt lat="49.1854399" lon="5.4732409"><ele>303.20000000000005</ele><time>2026-03-22T14:29:05.121Z</time></trkpt><trkpt lat="49.1855001" lon="5.4731148"><ele>305.6</ele><time>2026-03-22T14:29:06.121Z</time></trkpt><trkpt lat="49.1855643" lon="5.4729919"><ele>308.0</ele><time>2026-03-22T14:29:07.121Z</time></trkpt><trkpt lat="49.1856288" lon="5.4728724"><ele>304.6</ele><time>2026-03-22T14:29:08.121Z</time></trkpt><trkpt lat="49.185694" lon="5.4727577"><ele>301.20000000000005</ele><time>2026-03-22T14:29:09.121Z</time></trkpt><trkpt lat="49.1857584" lon="5.4726422"><ele>297.8</ele><time>2026-03-22T14:29:10.121Z</time></trkpt><trkpt lat="49.1858235" lon="5.47253"><ele>294.40000000000003</ele><time>2026-03-22T14:29:11.121Z</time></trkpt><trkpt lat="49.1858886" lon="5.4724205"><ele>291.0</ele><time>2026-03-22T14:29:12.121Z</time></trkpt><trkpt lat="49.185955" lon="5.4723132"><ele>291.0</ele><time>2026-03-22T14:29:13.121Z</time></trkpt><trkpt lat="49.1860203" lon="5.4722071"><ele>291.0</ele><time>2026-03-22T14:29:14.121Z</time></trkpt><trkpt lat="49.186083" lon="5.4720974"><ele>291.0</ele><time>2026-03-22T14:29:15.121Z</time></trkpt><trkpt lat="49.1861513" lon="5.4719891"><ele>291.0</ele><time>2026-03-22T14:29:16.121Z</time></trkpt><trkpt lat="49.1862186" lon="5.4718779"><ele>291.0</ele><time>2026-03-22T14:29:17.122Z</time></trkpt><trkpt lat="49.1862827" lon="5.4717642"><ele>291.40000000000003</ele><time>2026-03-22T14:29:18.121Z</time></trkpt><trkpt lat="49.1863453" lon="5.4716495"><ele>291.8</ele><time>2026-03-22T14:29:19.121Z</time></trkpt><trkpt lat="49.1864036" lon="5.4715356"><ele>292.20000000000005</ele><time>2026-03-22T14:29:20.121Z</time></trkpt><trkpt lat="49.1864634" lon="5.4714196"><ele>292.6</ele><time>2026-03-22T14:29:21.121Z</time></trkpt><trkpt lat="49.1865238" lon="5.4713019"><ele>293.0</ele><time>2026-03-22T14:29:22.121Z</time></trkpt><trkpt lat="49.1865865" lon="5.4711852"><ele>294.0</ele><time>2026-03-22T14:29:23.121Z</time></trkpt><trkpt lat="49.1866502" lon="5.4710691"><ele>295.0</ele><time>2026-03-22T14:29:24.121Z</time></trkpt><trkpt lat="49.1867127" lon="5.4709482"><ele>296.0</ele><time>2026-03-22T14:29:25.121Z</time></trkpt><trkpt lat="49.1867732" lon="5.4708223"><ele>297.0</ele><time>2026-03-22T14:29:26.121Z</time></trkpt><trkpt lat="49.186834" lon="5.4706989"><ele>298.0</ele><time>2026-03-22T14:29:27.121Z</time></trkpt><trkpt lat="49.1868934" lon="5.4705739"><ele>298.0</ele><time>2026-03-22T14:29:28.121Z</time></trkpt><trkpt lat="49.1869494" lon="5.4704443"><ele>298.0</ele><time>2026-03-22T14:29:29.122Z</time></trkpt><trkpt lat="49.1870045" lon="5.4703139"><ele>298.0</ele><time>2026-03-22T14:29:30.121Z</time></trkpt><trkpt lat="49.187059" lon="5.4701802"><ele>298.0</ele><time>2026-03-22T14:29:31.121Z</time></trkpt><trkpt lat="49.1871149" lon="5.4700449"><ele>298.0</ele><time>2026-03-22T14:29:32.121Z</time></trkpt><trkpt lat="49.1871704" lon="5.4699078"><ele>298.6</ele><time>2026-03-22T14:29:33.121Z</time></trkpt><trkpt lat="49.1872256" lon="5.4697747"><ele>299.20000000000005</ele><time>2026-03-22T14:29:34.121Z</time></trkpt><trkpt lat="49.1872752" lon="5.4696419"><ele>299.8</ele><time>2026-03-22T14:29:35.121Z</time></trkpt><trkpt lat="49.1873187" lon="5.4695025"><ele>300.40000000000003</ele><time>2026-03-22T14:29:36.122Z</time></trkpt><trkpt lat="49.1873615" lon="5.469364"><ele>301.0</ele><time>2026-03-22T14:29:37.121Z</time></trkpt><trkpt lat="49.1874002" lon="5.4692293"><ele>301.0</ele><time>2026-03-22T14:29:38.121Z</time></trkpt><trkpt lat="49.1874358" lon="5.4690958"><ele>301.0</ele><time>2026-03-22T14:29:39.121Z</time></trkpt><trkpt lat="49.1874682" lon="5.4689621"><ele>301.0</ele><time>2026-03-22T14:29:40.122Z</time></trkpt><trkpt lat="49.1874978" lon="5.468831"><ele>301.0</ele><time>2026-03-22T14:29:41.121Z</time></trkpt><trkpt lat="49.1875245" lon="5.4686961"><ele>301.0</ele><time>2026-03-22T14:29:42.121Z</time></trkpt><trkpt lat="49.1875494" lon="5.4685641"><ele>302.0</ele><time>2026-03-22T14:29:43.121Z</time></trkpt><trkpt lat="49.1875723" lon="5.4684293"><ele>303.0</ele><time>2026-03-22T14:29:44.121Z</time></trkpt><trkpt lat="49.1875929" lon="5.4682922"><ele>304.0</ele><time>2026-03-22T14:29:45.121Z</time></trkpt><trkpt lat="49.1876135" lon="5.4681518"><ele>305.0</ele><time>2026-03-22T14:29:46.121Z</time></trkpt><trkpt lat="49.1876354" lon="5.4680107"><ele>306.0</ele><time>2026-03-22T14:29:47.122Z</time></trkpt><trkpt lat="49.1876512" lon="5.4678699"><ele>306.5</ele><time>2026-03-22T14:29:48.121Z</time></trkpt><trkpt lat="49.1876647" lon="5.4677321"><ele>307.0</ele><time>2026-03-22T14:29:49.121Z</time></trkpt><trkpt lat="49.1876768" lon="5.4675967"><ele>307.5</ele><time>2026-03-22T14:29:50.122Z</time></trkpt><trkpt lat="49.1876861" lon="5.4674602"><ele>308.0</ele><time>2026-03-22T14:29:51.121Z</time></trkpt><trkpt lat="49.1876902" lon="5.4673252"><ele>308.5</ele><time>2026-03-22T14:29:52.121Z</time></trkpt><trkpt lat="49.1876964" lon="5.4671923"><ele>309.0</ele><time>2026-03-22T14:29:53.122Z</time></trkpt><trkpt lat="49.1877009" lon="5.4670592"><ele>309.3333333333333</ele><time>2026-03-22T14:29:54.121Z</time></trkpt><trkpt lat="49.1877018" lon="5.4669263"><ele>309.6666666666667</ele><time>2026-03-22T14:29:55.121Z</time></trkpt><trkpt lat="49.1877017" lon="5.4667978"><ele>310.0</ele><time>2026-03-22T14:29:56.122Z</time></trkpt><trkpt lat="49.1877008" lon="5.4666765"><ele>310.33333333333337</ele><time>2026-03-22T14:29:57.121Z</time></trkpt><trkpt lat="49.1876987" lon="5.4665614"><ele>310.6666666666667</ele><time>2026-03-22T14:29:58.121Z</time></trkpt><trkpt lat="49.187697" lon="5.4664519"><ele>311.0</ele><time>2026-03-22T14:29:59.121Z</time></trkpt><trkpt lat="49.1876951" lon="5.4663436"><ele>311.4285714285714</ele><time>2026-03-22T14:30:00.121Z</time></trkpt><trkpt lat="49.187693" lon="5.4662349"><ele>311.8571428571429</ele><time>2026-03-22T14:30:01.121Z</time></trkpt><trkpt lat="49.187687" lon="5.4661254"><ele>312.2857142857143</ele><time>2026-03-22T14:30:02.121Z</time></trkpt><trkpt lat="49.1876748" lon="5.4660278"><ele>312.71428571428567</ele><time>2026-03-22T14:30:03.121Z</time></trkpt><trkpt lat="49.1876548" lon="5.465876"><ele>313.1428571428571</ele><time>2026-03-22T14:30:05.122Z</time></trkpt><trkpt lat="49.1876497" lon="5.4657707"><ele>313.57142857142856</ele><time>2026-03-22T14:30:08.121Z</time></trkpt><trkpt lat="49.1876424" lon="5.4656723"><ele>314.0</ele><time>2026-03-22T14:30:11.121Z</time></trkpt><trkpt lat="49.1876268" lon="5.4655538"><ele>314.59999999999997</ele><time>2026-03-22T14:30:13.121Z</time></trkpt><trkpt lat="49.1876095" lon="5.4654106"><ele>315.2</ele><time>2026-03-22T14:30:15.121Z</time></trkpt><trkpt lat="49.187588" lon="5.4652523"><ele>315.79999999999995</ele><time>2026-03-22T14:30:17.122Z</time></trkpt><trkpt lat="49.1875664" lon="5.4651135"><ele>316.4</ele><time>2026-03-22T14:30:19.121Z</time></trkpt><trkpt lat="49.1875504" lon="5.4649926"><ele>317.0</ele><time>2026-03-22T14:30:21.121Z</time></trkpt><trkpt lat="49.1875323" lon="5.4648679"><ele>317.0</ele><time>2026-03-22T14:30:23.121Z</time></trkpt><trkpt lat="49.1875074" lon="5.4647136"><ele>317.0</ele><time>2026-03-22T14:30:25.122Z</time></trkpt><trkpt lat="49.1874772" lon="5.4645371"><ele>317.0</ele><time>2026-03-22T14:30:27.121Z</time></trkpt><trkpt lat="49.1874568" lon="5.4644363"><ele>317.0</ele><time>2026-03-22T14:30:28.121Z</time></trkpt><trkpt lat="49.1874351" lon="5.4643284"><ele>317.0</ele><time>2026-03-22T14:30:29.121Z</time></trkpt><trkpt lat="49.1874152" lon="5.4642292"><ele>317.0</ele><time>2026-03-22T14:30:30.121Z</time></trkpt><trkpt lat="49.187394" lon="5.4641366"><ele>319.0</ele><time>2026-03-22T14:30:31.121Z</time></trkpt><trkpt lat="49.187354" lon="5.4639592"><ele>321.0</ele><time>2026-03-22T14:30:33.121Z</time></trkpt><trkpt lat="49.187317" lon="5.4637917"><ele>323.0</ele><time>2026-03-22T14:30:35.122Z</time></trkpt><trkpt lat="49.1872814" lon="5.4636228"><ele>325.0</ele><time>2026-03-22T14:30:37.121Z</time></trkpt><trkpt lat="49.1872486" lon="5.4634593"><ele>328.3333333333333</ele><time>2026-03-22T14:30:39.121Z</time></trkpt><trkpt lat="49.1872127" lon="5.4632837"><ele>331.66666666666663</ele><time>2026-03-22T14:30:41.121Z</time></trkpt><trkpt lat="49.1871885" lon="5.463184"><ele>335.0</ele><time>2026-03-22T14:30:42.121Z</time></trkpt><trkpt lat="49.1871598" lon="5.4630706"><ele>338.3333333333333</ele><time>2026-03-22T14:30:43.121Z</time></trkpt><trkpt lat="49.1871325" lon="5.4629589"><ele>341.6666666666667</ele><time>2026-03-22T14:30:44.121Z</time></trkpt><trkpt lat="49.1871054" lon="5.4628526"><ele>345.0</ele><time>2026-03-22T14:30:45.121Z</time></trkpt><trkpt lat="49.1870782" lon="5.4627563"><ele>346.3333333333333</ele><time>2026-03-22T14:30:46.122Z</time></trkpt><trkpt lat="49.1870562" lon="5.4626653"><ele>347.66666666666663</ele><time>2026-03-22T14:30:47.121Z</time></trkpt><trkpt lat="49.1870139" lon="5.4625019"><ele>349.0</ele><time>2026-03-22T14:30:49.121Z</time></trkpt><trkpt lat="49.1803131" lon="5.452811"><ele>309.0</ele><time>2026-03-22T14:32:50.119Z</time></trkpt></trkseg><trkseg><trkpt lat="49.1802618" lon="5.4526824"><ele>309.0</ele><time>2026-03-22T14:42:53.14Z</time></trkpt><trkpt lat="49.1801964" lon="5.4525594"><ele>309.0</ele><time>2026-03-22T14:42:55.139Z</time></trkpt><trkpt lat="49.1801473" lon="5.4524827"><ele>309.0</ele><time>2026-03-22T14:42:56.141Z</time></trkpt><trkpt lat="49.1800968" lon="5.452404"><ele>309.0</ele><time>2026-03-22T14:42:57.14Z</time></trkpt><trkpt lat="49.180036" lon="5.452316"><ele>309.0</ele><time>2026-03-22T14:42:58.14Z</time></trkpt><trkpt lat="49.1799733" lon="5.4522282"><ele>309.0</ele><time>2026-03-22T14:42:59.139Z</time></trkpt><trkpt lat="49.1799102" lon="5.4521399"><ele>308.3333333333333</ele><time>2026-03-22T14:43:00.14Z</time></trkpt><trkpt lat="49.1798468" lon="5.4520492"><ele>307.6666666666667</ele><time>2026-03-22T14:43:01.139Z</time></trkpt><trkpt lat="49.1797808" lon="5.4519621"><ele>307.0</ele><time>2026-03-22T14:43:02.14Z</time></trkpt><trkpt lat="49.1797298" lon="5.4518823"><ele>306.33333333333337</ele><time>2026-03-22T14:43:03.119Z</time></trkpt><trkpt lat="49.1796837" lon="5.4518066"><ele>305.6666666666667</ele><time>2026-03-22T14:43:04.119Z</time></trkpt><trkpt lat="49.1796336" lon="5.4517234"><ele>305.0</ele><time>2026-03-22T14:43:05.119Z</time></trkpt><trkpt lat="49.1795808" lon="5.4516412"><ele>305.0</ele><time>2026-03-22T14:43:06.118Z</time></trkpt><trkpt lat="49.1795322" lon="5.451566"><ele>305.0</ele><time>2026-03-22T14:43:07.118Z</time></trkpt><trkpt lat="49.1794843" lon="5.4514918"><ele>305.0</ele><time>2026-03-22T14:43:08.12Z</time></trkpt><trkpt lat="49.1793988" lon="5.4513543"><ele>305.0</ele><time>2026-03-22T14:43:10.12Z</time></trkpt><trkpt lat="49.1793181" lon="5.451209"><ele>305.0</ele><time>2026-03-22T14:43:12.12Z</time></trkpt><trkpt lat="49.1792759" lon="5.4511324"><ele>305.6666666666667</ele><time>2026-03-22T14:43:13.12Z</time></trkpt><trkpt lat="49.1792283" lon="5.4510603"><ele>306.33333333333337</ele><time>2026-03-22T14:43:14.12Z</time></trkpt><trkpt lat="49.1791842" lon="5.4509897"><ele>307.0</ele><time>2026-03-22T14:43:15.12Z</time></trkpt><trkpt lat="49.1791416" lon="5.450917"><ele>307.6666666666667</ele><time>2026-03-22T14:43:16.121Z</time></trkpt><trkpt lat="49.1790596" lon="5.4507725"><ele>308.3333333333333</ele><time>2026-03-22T14:43:18.12Z</time></trkpt><trkpt lat="49.1789798" lon="5.4506257"><ele>309.0</ele><time>2026-03-22T14:43:20.12Z</time></trkpt><trkpt lat="49.178903" lon="5.4504792"><ele>307.42857142857144</ele><time>2026-03-22T14:43:22.12Z</time></trkpt><trkpt lat="49.1788293" lon="5.4503241"><ele>305.8571428571429</ele><time>2026-03-22T14:43:24.12Z</time></trkpt><trkpt lat="49.17879" lon="5.4502458"><ele>304.2857142857143</ele><time>2026-03-22T14:43:25.12Z</time></trkpt><trkpt lat="49.1787522" lon="5.4501667"><ele>302.7142857142857</ele><time>2026-03-22T14:43:26.12Z</time></trkpt><trkpt lat="49.178715" lon="5.4500863"><ele>301.1428571428571</ele><time>2026-03-22T14:43:27.12Z</time></trkpt><trkpt lat="49.1786783" lon="5.4500063"><ele>299.57142857142856</ele><time>2026-03-22T14:43:28.12Z</time></trkpt><trkpt lat="49.1786409" lon="5.4499263"><ele>298.0</ele><time>2026-03-22T14:43:29.12Z</time></trkpt><trkpt lat="49.1786036" lon="5.4498433"><ele>298.0</ele><time>2026-03-22T14:43:30.12Z</time></trkpt><trkpt lat="49.1785682" lon="5.4497548"><ele>298.0</ele><time>2026-03-22T14:43:31.12Z</time></trkpt><trkpt lat="49.1785315" lon="5.4496662"><ele>298.0</ele><time>2026-03-22T14:43:32.12Z</time></trkpt><trkpt lat="49.1784955" lon="5.4495779"><ele>298.0</ele><time>2026-03-22T14:43:33.12Z</time></trkpt><trkpt lat="49.1784579" lon="5.449488"><ele>298.0</ele><time>2026-03-22T14:43:34.12Z</time></trkpt><trkpt lat="49.1784201" lon="5.4493994"><ele>298.0</ele><time>2026-03-22T14:43:35.12Z</time></trkpt><trkpt lat="49.1783777" lon="5.4493243"><ele>298.0</ele><time>2026-03-22T14:43:36.12Z</time></trkpt><trkpt lat="49.1782768" lon="5.449216"><ele>297.4</ele><time>2026-03-22T14:43:38.12Z</time></trkpt><trkpt lat="49.1782142" lon="5.449171"><ele>296.8</ele><time>2026-03-22T14:43:39.12Z</time></trkpt><trkpt lat="49.178091" lon="5.4489533"><ele>296.2</ele><time>2026-03-22T14:44:02.139Z</time></trkpt><trkpt lat="49.1780679" lon="5.4488629"><ele>295.6</ele><time>2026-03-22T14:44:04.139Z</time></trkpt><trkpt lat="49.1780361" lon="5.4487441"><ele>295.0</ele><time>2026-03-22T14:44:07.14Z</time></trkpt><trkpt lat="49.1779989" lon="5.4486493"><ele>295.0</ele><time>2026-03-22T14:44:12.14Z</time></trkpt><trkpt lat="49.1779629" lon="5.448533"><ele>295.0</ele><time>2026-03-22T14:44:56.14Z</time></trkpt><trkpt lat="49.1779575" lon="5.4483295"><ele>295.0</ele><time>2026-03-22T14:44:58.14Z</time></trkpt><trkpt lat="49.1779516" lon="5.4482214"><ele>295.0</ele><time>2026-03-22T14:44:59.141Z</time></trkpt><trkpt lat="49.1779178" lon="5.4481302"><ele>295.0</ele><time>2026-03-22T14:45:00.14Z</time></trkpt><trkpt lat="49.1778591" lon="5.4479787"><ele>293.8</ele><time>2026-03-22T14:45:01.14Z</time></trkpt><trkpt lat="49.1777737" lon="5.4478096"><ele>292.6</ele><time>2026-03-22T14:45:02.14Z</time></trkpt><trkpt lat="49.1777359" lon="5.4476913"><ele>291.4</ele><time>2026-03-22T14:45:03.14Z</time></trkpt><trkpt lat="49.1776819" lon="5.4475484"><ele>290.2</ele><time>2026-03-22T14:45:04.14Z</time></trkpt><trkpt lat="49.1776333" lon="5.4474127"><ele>289.0</ele><time>2026-03-22T14:45:05.14Z</time></trkpt><trkpt lat="49.1775782" lon="5.4472892"><ele>289.0</ele><time>2026-03-22T14:45:06.139Z</time></trkpt><trkpt lat="49.1775184" lon="5.4471585"><ele>289.0</ele><time>2026-03-22T14:45:07.141Z</time></trkpt><trkpt lat="49.1774653" lon="5.4470263"><ele>289.0</ele><time>2026-03-22T14:45:08.14Z</time></trkpt><trkpt lat="49.1774159" lon="5.4468985"><ele>289.0</ele><time>2026-03-22T14:45:09.14Z</time></trkpt><trkpt lat="49.1773692" lon="5.446759"><ele>289.0</ele><time>2026-03-22T14:45:10.14Z</time></trkpt><trkpt lat="49.1773492" lon="5.4466238"><ele>288.59999999999997</ele><time>2026-03-22T14:45:11.14Z</time></trkpt><trkpt lat="49.1773147" lon="5.4464851"><ele>288.2</ele><time>2026-03-22T14:45:12.14Z</time></trkpt><trkpt lat="49.1772861" lon="5.4463187"><ele>287.79999999999995</ele><time>2026-03-22T14:45:13.141Z</time></trkpt><trkpt lat="49.1772448" lon="5.4461748"><ele>287.4</ele><time>2026-03-22T14:45:14.139Z</time></trkpt><trkpt lat="49.177199" lon="5.4460304"><ele>287.0</ele><time>2026-03-22T14:45:15.14Z</time></trkpt><trkpt lat="49.1771522" lon="5.4458767"><ele>287.0</ele><time>2026-03-22T14:45:16.141Z</time></trkpt><trkpt lat="49.1770938" lon="5.445726"><ele>287.0</ele><time>2026-03-22T14:45:17.14Z</time></trkpt><trkpt lat="49.1770422" lon="5.4455728"><ele>287.0</ele><time>2026-03-22T14:45:18.141Z</time></trkpt><trkpt lat="49.1769939" lon="5.4454256"><ele>287.0</ele><time>2026-03-22T14:45:19.14Z</time></trkpt><trkpt lat="49.1769508" lon="5.44527"><ele>287.0</ele><time>2026-03-22T14:45:20.14Z</time></trkpt><trkpt lat="49.1769081" lon="5.4451338"><ele>286.0</ele><time>2026-03-22T14:45:21.14Z</time></trkpt><trkpt lat="49.1768573" lon="5.4449846"><ele>285.0</ele><time>2026-03-22T14:45:22.14Z</time></trkpt><trkpt lat="49.176816" lon="5.4448431"><ele>284.0</ele><time>2026-03-22T14:45:23.14Z</time></trkpt><trkpt lat="49.1767647" lon="5.4447046"><ele>283.0</ele><time>2026-03-22T14:45:24.14Z</time></trkpt><trkpt lat="49.1767005" lon="5.4445605"><ele>282.0</ele><time>2026-03-22T14:45:25.139Z</time></trkpt><trkpt lat="49.1766476" lon="5.4444256"><ele>281.4</ele><time>2026-03-22T14:45:26.139Z</time></trkpt><trkpt lat="49.176613" lon="5.4442925"><ele>280.79999999999995</ele><time>2026-03-22T14:45:27.14Z</time></trkpt><trkpt lat="49.1765887" lon="5.4441526"><ele>280.2</ele><time>2026-03-22T14:45:28.14Z</time></trkpt><trkpt lat="49.176556" lon="5.44401"><ele>279.59999999999997</ele><time>2026-03-22T14:45:29.14Z</time></trkpt><trkpt lat="49.1765235" lon="5.4438772"><ele>279.0</ele><time>2026-03-22T14:45:30.14Z</time></trkpt><trkpt lat="49.1764813" lon="5.4437485"><ele>278.8333333333333</ele><time>2026-03-22T14:45:31.139Z</time></trkpt><trkpt lat="49.1764391" lon="5.443622"><ele>278.6666666666667</ele><time>2026-03-22T14:45:32.14Z</time></trkpt><trkpt lat="49.1764089" lon="5.4435141"><ele>278.5</ele><time>2026-03-22T14:45:33.141Z</time></trkpt><trkpt lat="49.1763832" lon="5.4434243"><ele>278.33333333333337</ele><time>2026-03-22T14:45:34.14Z</time></trkpt><trkpt lat="49.1763451" lon="5.4432927"><ele>278.1666666666667</ele><time>2026-03-22T14:45:36.14Z</time></trkpt><trkpt lat="49.1763059" lon="5.4431879"><ele>278.0</ele><time>2026-03-22T14:45:46.14Z</time></trkpt><trkpt lat="49.1762822" lon="5.4430617"><ele>277.25</ele><time>2026-03-22T14:45:48.139Z</time></trkpt><trkpt lat="49.1762494" lon="5.4429187"><ele>276.5</ele><time>2026-03-22T14:45:49.139Z</time></trkpt><trkpt lat="49.176179" lon="5.4427497"><ele>275.75</ele><time>2026-03-22T14:45:50.14Z</time></trkpt><trkpt lat="49.1761373" lon="5.4425923"><ele>275.0</ele><time>2026-03-22T14:45:51.14Z</time></trkpt><trkpt lat="49.1760879" lon="5.4424366"><ele>275.0</ele><time>2026-03-22T14:45:52.14Z</time></trkpt><trkpt lat="49.1760429" lon="5.4422893"><ele>275.0</ele><time>2026-03-22T14:45:53.14Z</time></trkpt><trkpt lat="49.1759944" lon="5.4421459"><ele>275.0</ele><time>2026-03-22T14:45:54.139Z</time></trkpt><trkpt lat="49.1759461" lon="5.4420097"><ele>275.0</ele><time>2026-03-22T14:45:55.139Z</time></trkpt><trkpt lat="49.1758978" lon="5.441876"><ele>275.0</ele><time>2026-03-22T14:45:56.139Z</time></trkpt><trkpt lat="49.1758515" lon="5.4417462"><ele>274.4</ele><time>2026-03-22T14:45:57.139Z</time></trkpt><trkpt lat="49.1758027" lon="5.4416276"><ele>273.8</ele><time>2026-03-22T14:45:58.14Z</time></trkpt><trkpt lat="49.175746" lon="5.4415101"><ele>273.2</ele><time>2026-03-22T14:45:59.139Z</time></trkpt><trkpt lat="49.1756937" lon="5.4413938"><ele>272.6</ele><time>2026-03-22T14:46:00.14Z</time></trkpt><trkpt lat="49.1756395" lon="5.4412774"><ele>272.0</ele><time>2026-03-22T14:46:01.14Z</time></trkpt><trkpt lat="49.1755769" lon="5.4411579"><ele>271.0</ele><time>2026-03-22T14:46:02.139Z</time></trkpt><trkpt lat="49.1755274" lon="5.4410562"><ele>270.0</ele><time>2026-03-22T14:46:03.139Z</time></trkpt><trkpt lat="49.1754598" lon="5.4409449"><ele>269.0</ele><time>2026-03-22T14:46:04.14Z</time></trkpt><trkpt lat="49.1753903" lon="5.4408545"><ele>268.0</ele><time>2026-03-22T14:46:05.14Z</time></trkpt><trkpt lat="49.1752987" lon="5.4407634"><ele>267.0</ele><time>2026-03-22T14:46:06.14Z</time></trkpt><trkpt lat="49.1752098" lon="5.4406907"><ele>267.0</ele><time>2026-03-22T14:46:07.14Z</time></trkpt><trkpt lat="49.1751263" lon="5.4406014"><ele>267.0</ele><time>2026-03-22T14:46:08.141Z</time></trkpt><trkpt lat="49.175051" lon="5.4404958"><ele>267.0</ele><time>2026-03-22T14:46:09.139Z</time></trkpt><trkpt lat="49.1749789" lon="5.440377"><ele>267.0</ele><time>2026-03-22T14:46:10.139Z</time></trkpt><trkpt lat="49.174909" lon="5.4402456"><ele>267.0</ele><time>2026-03-22T14:46:11.14Z</time></trkpt><trkpt lat="49.174847" lon="5.4401306"><ele>264.6</ele><time>2026-03-22T14:46:12.14Z</time></trkpt><trkpt lat="49.1747781" lon="5.4400345"><ele>262.2</ele><time>2026-03-22T14:46:13.14Z</time></trkpt><trkpt lat="49.1747359" lon="5.4399427"><ele>259.8</ele><time>2026-03-22T14:46:14.14Z</time></trkpt><trkpt lat="49.1746888" lon="5.439855"><ele>257.4</ele><time>2026-03-22T14:46:15.14Z</time></trkpt><trkpt lat="49.1745965" lon="5.4396874"><ele>255.0</ele><time>2026-03-22T14:46:17.141Z</time></trkpt><trkpt lat="49.1745481" lon="5.439587"><ele>255.0</ele><time>2026-03-22T14:46:18.139Z</time></trkpt><trkpt lat="49.1744981" lon="5.4395035"><ele>255.0</ele><time>2026-03-22T14:46:19.139Z</time></trkpt><trkpt lat="49.1744372" lon="5.4393925"><ele>255.0</ele><time>2026-03-22T14:46:20.14Z</time></trkpt><trkpt lat="49.1743904" lon="5.4393005"><ele>255.0</ele><time>2026-03-22T14:46:21.14Z</time></trkpt><trkpt lat="49.1743417" lon="5.4391976"><ele>255.0</ele><time>2026-03-22T14:46:22.14Z</time></trkpt><trkpt lat="49.1742988" lon="5.439097"><ele>255.0</ele><time>2026-03-22T14:46:23.14Z</time></trkpt><trkpt lat="49.1742553" lon="5.4389974"><ele>255.0</ele><time>2026-03-22T14:46:24.139Z</time></trkpt><trkpt lat="49.1742021" lon="5.4388955"><ele>255.0</ele><time>2026-03-22T14:46:25.14Z</time></trkpt><trkpt lat="49.1741428" lon="5.4388073"><ele>255.0</ele><time>2026-03-22T14:46:26.14Z</time></trkpt><trkpt lat="49.174073" lon="5.4387212"><ele>255.0</ele><time>2026-03-22T14:46:27.14Z</time></trkpt><trkpt lat="49.1740109" lon="5.4386392"><ele>255.0</ele><time>2026-03-22T14:46:28.139Z</time></trkpt><trkpt lat="49.1739521" lon="5.4385645"><ele>255.0</ele><time>2026-03-22T14:46:29.14Z</time></trkpt><trkpt lat="49.1738862" lon="5.4384982"><ele>255.4</ele><time>2026-03-22T14:46:30.139Z</time></trkpt><trkpt lat="49.1738126" lon="5.4384443"><ele>255.8</ele><time>2026-03-22T14:46:31.139Z</time></trkpt><trkpt lat="49.1737341" lon="5.4383838"><ele>256.2</ele><time>2026-03-22T14:46:32.141Z</time></trkpt><trkpt lat="49.1736501" lon="5.4383103"><ele>256.6</ele><time>2026-03-22T14:46:33.14Z</time></trkpt><trkpt lat="49.1735695" lon="5.4382658"><ele>257.0</ele><time>2026-03-22T14:46:34.14Z</time></trkpt><trkpt lat="49.173471" lon="5.4382436"><ele>257.0</ele><time>2026-03-22T14:46:35.14Z</time></trkpt><trkpt lat="49.1733713" lon="5.4382364"><ele>257.0</ele><time>2026-03-22T14:46:37.14Z</time></trkpt><trkpt lat="49.1732691" lon="5.4381738"><ele>257.0</ele><time>2026-03-22T14:46:39.14Z</time></trkpt><trkpt lat="49.1731966" lon="5.4381199"><ele>257.0</ele><time>2026-03-22T14:46:41.14Z</time></trkpt><trkpt lat="49.1731636" lon="5.4380193"><ele>257.0</ele><time>2026-03-22T14:46:44.14Z</time></trkpt><trkpt lat="49.1731067" lon="5.4379297"><ele>257.0</ele><time>2026-03-22T14:46:46.139Z</time></trkpt><trkpt lat="49.1730486" lon="5.4377548"><ele>256.4</ele><time>2026-03-22T14:46:48.14Z</time></trkpt><trkpt lat="49.1730041" lon="5.437651"><ele>255.79999999999998</ele><time>2026-03-22T14:46:49.14Z</time></trkpt><trkpt lat="49.1729575" lon="5.4375358"><ele>255.2</ele><time>2026-03-22T14:46:50.14Z</time></trkpt><trkpt lat="49.1729037" lon="5.4374085"><ele>254.6</ele><time>2026-03-22T14:46:51.14Z</time></trkpt><trkpt lat="49.1728493" lon="5.4372707"><ele>254.0</ele><time>2026-03-22T14:46:52.14Z</time></trkpt><trkpt lat="49.1727948" lon="5.4371263"><ele>256.5</ele><time>2026-03-22T14:46:53.139Z</time></trkpt><trkpt lat="49.1727426" lon="5.436984"><ele>259.0</ele><time>2026-03-22T14:46:54.139Z</time></trkpt><trkpt lat="49.1726791" lon="5.4368481"><ele>261.5</ele><time>2026-03-22T14:46:55.141Z</time></trkpt><trkpt lat="49.1726012" lon="5.4367157"><ele>264.0</ele><time>2026-03-22T14:46:56.14Z</time></trkpt><trkpt lat="49.1725163" lon="5.4365827"><ele>264.0</ele><time>2026-03-22T14:46:57.14Z</time></trkpt><trkpt lat="49.1724326" lon="5.4364457"><ele>264.0</ele><time>2026-03-22T14:46:58.14Z</time></trkpt><trkpt lat="49.1723461" lon="5.4363086"><ele>264.0</ele><time>2026-03-22T14:46:59.141Z</time></trkpt><trkpt lat="49.1722662" lon="5.43617"><ele>264.0</ele><time>2026-03-22T14:47:00.139Z</time></trkpt><trkpt lat="49.1721875" lon="5.436032"><ele>261.25</ele><time>2026-03-22T14:47:01.141Z</time></trkpt><trkpt lat="49.1721086" lon="5.4358878"><ele>258.5</ele><time>2026-03-22T14:47:02.139Z</time></trkpt><trkpt lat="49.172032" lon="5.4357506"><ele>255.75</ele><time>2026-03-22T14:47:03.139Z</time></trkpt><trkpt lat="49.171959" lon="5.4356271"><ele>253.0</ele><time>2026-03-22T14:47:04.141Z</time></trkpt><trkpt lat="49.1718968" lon="5.4355031"><ele>253.83333333333331</ele><time>2026-03-22T14:47:05.14Z</time></trkpt><trkpt lat="49.1718537" lon="5.4353716"><ele>254.66666666666666</ele><time>2026-03-22T14:47:06.139Z</time></trkpt><trkpt lat="49.1718116" lon="5.4352427"><ele>255.5</ele><time>2026-03-22T14:47:07.139Z</time></trkpt><trkpt lat="49.1717707" lon="5.4351442"><ele>256.3333333333333</ele><time>2026-03-22T14:47:08.14Z</time></trkpt><trkpt lat="49.1717358" lon="5.4350544"><ele>257.1666666666667</ele><time>2026-03-22T14:47:09.141Z</time></trkpt><trkpt lat="49.1717027" lon="5.4349708"><ele>258.0</ele><time>2026-03-22T14:47:10.14Z</time></trkpt><trkpt lat="49.1716447" lon="5.4348319"><ele>258.0</ele><time>2026-03-22T14:47:12.14Z</time></trkpt><trkpt lat="49.1715779" lon="5.4346629"><ele>258.0</ele><time>2026-03-22T14:47:14.14Z</time></trkpt><trkpt lat="49.1715424" lon="5.434579"><ele>258.0</ele><time>2026-03-22T14:47:15.14Z</time></trkpt><trkpt lat="49.1714873" lon="5.4344374"><ele>258.0</ele><time>2026-03-22T14:47:17.14Z</time></trkpt><trkpt lat="49.1714279" lon="5.4342911"><ele>258.0</ele><time>2026-03-22T14:47:19.139Z</time></trkpt><trkpt lat="49.1713671" lon="5.4341477"><ele>257.1666666666667</ele><time>2026-03-22T14:47:21.14Z</time></trkpt><trkpt lat="49.1713281" lon="5.4340652"><ele>256.3333333333333</ele><time>2026-03-22T14:47:22.139Z</time></trkpt><trkpt lat="49.1712674" lon="5.4339191"><ele>255.5</ele><time>2026-03-22T14:47:24.139Z</time></trkpt><trkpt lat="49.1712043" lon="5.4337542"><ele>254.66666666666666</ele><time>2026-03-22T14:47:26.14Z</time></trkpt><trkpt lat="49.1711686" lon="5.433665"><ele>253.83333333333331</ele><time>2026-03-22T14:47:27.139Z</time></trkpt><trkpt lat="49.1711335" lon="5.4335614"><ele>253.0</ele><time>2026-03-22T14:47:28.14Z</time></trkpt><trkpt lat="49.171094" lon="5.4334404"><ele>252.99999999999997</ele><time>2026-03-22T14:47:29.141Z</time></trkpt><trkpt lat="49.1710535" lon="5.4333302"><ele>253.0</ele><time>2026-03-22T14:47:30.14Z</time></trkpt><trkpt lat="49.1710087" lon="5.4332253"><ele>253.0</ele><time>2026-03-22T14:47:31.14Z</time></trkpt><trkpt lat="49.1709759" lon="5.4331159"><ele>253.0</ele><time>2026-03-22T14:47:32.14Z</time></trkpt><trkpt lat="49.1709317" lon="5.4330048"><ele>252.99999999999997</ele><time>2026-03-22T14:47:33.139Z</time></trkpt><trkpt lat="49.1708876" lon="5.4328923"><ele>253.0</ele><time>2026-03-22T14:47:34.14Z</time></trkpt><trkpt lat="49.1708477" lon="5.4327826"><ele>254.2</ele><time>2026-03-22T14:47:35.14Z</time></trkpt><trkpt lat="49.1707997" lon="5.4326681"><ele>255.4</ele><time>2026-03-22T14:47:36.141Z</time></trkpt><trkpt lat="49.1707579" lon="5.4325458"><ele>256.59999999999997</ele><time>2026-03-22T14:47:37.14Z</time></trkpt><trkpt lat="49.1707122" lon="5.4324296"><ele>257.8</ele><time>2026-03-22T14:47:38.14Z</time></trkpt><trkpt lat="49.1706631" lon="5.4323106"><ele>259.0</ele><time>2026-03-22T14:47:39.14Z</time></trkpt><trkpt lat="49.1706147" lon="5.4321886"><ele>257.5</ele><time>2026-03-22T14:47:40.14Z</time></trkpt><trkpt lat="49.1705659" lon="5.4320698"><ele>256.0</ele><time>2026-03-22T14:47:41.14Z</time></trkpt><trkpt lat="49.1705168" lon="5.4319518"><ele>254.5</ele><time>2026-03-22T14:47:42.14Z</time></trkpt><trkpt lat="49.1704708" lon="5.4318368"><ele>253.0</ele><time>2026-03-22T14:47:43.14Z</time></trkpt><trkpt lat="49.170427" lon="5.4317217"><ele>251.49999999999997</ele><time>2026-03-22T14:47:44.139Z</time></trkpt><trkpt lat="49.170383" lon="5.4316"><ele>250.0</ele><time>2026-03-22T14:47:45.14Z</time></trkpt><trkpt lat="49.170337" lon="5.4314841"><ele>249.99999999999997</ele><time>2026-03-22T14:47:46.14Z</time></trkpt><trkpt lat="49.1702917" lon="5.4313704"><ele>250.0</ele><time>2026-03-22T14:47:47.139Z</time></trkpt><trkpt lat="49.1702444" lon="5.4312575"><ele>250.0</ele><time>2026-03-22T14:47:48.14Z</time></trkpt><trkpt lat="49.1701977" lon="5.4311378"><ele>250.0</ele><time>2026-03-22T14:47:49.14Z</time></trkpt><trkpt lat="49.1701518" lon="5.4310229"><ele>249.99999999999997</ele><time>2026-03-22T14:47:50.14Z</time></trkpt><trkpt lat="49.1701039" lon="5.4309062"><ele>250.0</ele><time>2026-03-22T14:47:51.139Z</time></trkpt><trkpt lat="49.1700529" lon="5.4307927"><ele>250.66666666666666</ele><time>2026-03-22T14:47:52.139Z</time></trkpt><trkpt lat="49.1700096" lon="5.4306817"><ele>251.33333333333331</ele><time>2026-03-22T14:47:53.141Z</time></trkpt><trkpt lat="49.1699694" lon="5.4305767"><ele>252.0</ele><time>2026-03-22T14:47:54.14Z</time></trkpt><trkpt lat="49.1699319" lon="5.4304706"><ele>252.66666666666669</ele><time>2026-03-22T14:47:55.14Z</time></trkpt><trkpt lat="49.1698988" lon="5.4303707"><ele>253.33333333333334</ele><time>2026-03-22T14:47:56.139Z</time></trkpt><trkpt lat="49.1698683" lon="5.4302626"><ele>254.0</ele><time>2026-03-22T14:47:57.14Z</time></trkpt><trkpt lat="49.1698332" lon="5.430154"><ele>253.33333333333334</ele><time>2026-03-22T14:47:58.139Z</time></trkpt><trkpt lat="49.1697942" lon="5.4300547"><ele>252.66666666666669</ele><time>2026-03-22T14:47:59.14Z</time></trkpt><trkpt lat="49.1697607" lon="5.429959"><ele>252.0</ele><time>2026-03-22T14:48:00.14Z</time></trkpt><trkpt lat="49.1697289" lon="5.4298696"><ele>251.33333333333331</ele><time>2026-03-22T14:48:01.14Z</time></trkpt><trkpt lat="49.1696682" lon="5.4297188"><ele>250.66666666666666</ele><time>2026-03-22T14:48:03.14Z</time></trkpt><trkpt lat="49.1696215" lon="5.4295676"><ele>250.0</ele><time>2026-03-22T14:48:05.139Z</time></trkpt><trkpt lat="49.169571" lon="5.4294221"><ele>250.0</ele><time>2026-03-22T14:48:07.14Z</time></trkpt><trkpt lat="49.1695191" lon="5.4292784"><ele>250.0</ele><time>2026-03-22T14:48:09.14Z</time></trkpt><trkpt lat="49.1694611" lon="5.4291074"><ele>250.0</ele><time>2026-03-22T14:48:11.14Z</time></trkpt><trkpt lat="49.1694241" lon="5.4290123"><ele>250.0</ele><time>2026-03-22T14:48:12.14Z</time></trkpt><trkpt lat="49.1693879" lon="5.4289063"><ele>250.0</ele><time>2026-03-22T14:48:13.14Z</time></trkpt><trkpt lat="49.1693478" lon="5.4287961"><ele>251.0</ele><time>2026-03-22T14:48:14.139Z</time></trkpt><trkpt lat="49.1693029" lon="5.4286819"><ele>252.0</ele><time>2026-03-22T14:48:15.139Z</time></trkpt><trkpt lat="49.1692557" lon="5.4285631"><ele>253.0</ele><time>2026-03-22T14:48:16.14Z</time></trkpt><trkpt lat="49.1692084" lon="5.428439"><ele>254.0</ele><time>2026-03-22T14:48:17.139Z</time></trkpt><trkpt lat="49.1691619" lon="5.428317"><ele>255.0</ele><time>2026-03-22T14:48:18.14Z</time></trkpt><trkpt lat="49.1691156" lon="5.4281927"><ele>255.0</ele><time>2026-03-22T14:48:19.14Z</time></trkpt><trkpt lat="49.1690686" lon="5.4280666"><ele>255.0</ele><time>2026-03-22T14:48:20.14Z</time></trkpt><trkpt lat="49.1690226" lon="5.4279392"><ele>255.0</ele><time>2026-03-22T14:48:21.139Z</time></trkpt><trkpt lat="49.1689773" lon="5.4278123"><ele>255.0</ele><time>2026-03-22T14:48:22.139Z</time></trkpt><trkpt lat="49.1689376" lon="5.4276905"><ele>255.0</ele><time>2026-03-22T14:48:23.14Z</time></trkpt><trkpt lat="49.1688941" lon="5.4275695"><ele>254.83333333333334</ele><time>2026-03-22T14:48:24.14Z</time></trkpt><trkpt lat="49.1688505" lon="5.4274482"><ele>254.66666666666669</ele><time>2026-03-22T14:48:25.14Z</time></trkpt><trkpt lat="49.168807" lon="5.4273321"><ele>254.5</ele><time>2026-03-22T14:48:26.14Z</time></trkpt><trkpt lat="49.1687637" lon="5.4272167"><ele>254.33333333333334</ele><time>2026-03-22T14:48:27.139Z</time></trkpt><trkpt lat="49.1687222" lon="5.4271051"><ele>254.16666666666669</ele><time>2026-03-22T14:48:28.14Z</time></trkpt><trkpt lat="49.1686848" lon="5.4269933"><ele>254.0</ele><time>2026-03-22T14:48:29.14Z</time></trkpt><trkpt lat="49.1686488" lon="5.4268798"><ele>254.00000000000003</ele><time>2026-03-22T14:48:30.139Z</time></trkpt><trkpt lat="49.1686117" lon="5.4267672"><ele>254.0</ele><time>2026-03-22T14:48:31.139Z</time></trkpt><trkpt lat="49.1685798" lon="5.4266573"><ele>254.0</ele><time>2026-03-22T14:48:32.14Z</time></trkpt><trkpt lat="49.1685414" lon="5.426552"><ele>254.0</ele><time>2026-03-22T14:48:33.14Z</time></trkpt><trkpt lat="49.1684988" lon="5.4264547"><ele>254.00000000000003</ele><time>2026-03-22T14:48:34.139Z</time></trkpt><trkpt lat="49.1684509" lon="5.4263628"><ele>254.0</ele><time>2026-03-22T14:48:35.14Z</time></trkpt><trkpt lat="49.1684019" lon="5.4262794"><ele>253.85714285714286</ele><time>2026-03-22T14:48:36.139Z</time></trkpt><trkpt lat="49.1683565" lon="5.4262075"><ele>253.71428571428572</ele><time>2026-03-22T14:48:37.14Z</time></trkpt><trkpt lat="49.1683109" lon="5.4261362"><ele>253.57142857142858</ele><time>2026-03-22T14:48:38.139Z</time></trkpt><trkpt lat="49.1682675" lon="5.4260598"><ele>253.42857142857144</ele><time>2026-03-22T14:48:39.14Z</time></trkpt><trkpt lat="49.1682273" lon="5.4259804"><ele>253.28571428571428</ele><time>2026-03-22T14:48:40.139Z</time></trkpt><trkpt lat="49.1681837" lon="5.4259026"><ele>253.14285714285717</ele><time>2026-03-22T14:48:41.139Z</time></trkpt><trkpt lat="49.1681424" lon="5.4258191"><ele>253.00000000000003</ele><time>2026-03-22T14:48:42.139Z</time></trkpt><trkpt lat="49.168101" lon="5.4257349"><ele>252.5714285714286</ele><time>2026-03-22T14:48:43.14Z</time></trkpt><trkpt lat="49.1680651" lon="5.4256455"><ele>252.14285714285717</ele><time>2026-03-22T14:48:44.139Z</time></trkpt><trkpt lat="49.1680286" lon="5.4255559"><ele>251.71428571428572</ele><time>2026-03-22T14:48:45.14Z</time></trkpt><trkpt lat="49.1679917" lon="5.4254632"><ele>251.2857142857143</ele><time>2026-03-22T14:48:46.139Z</time></trkpt><trkpt lat="49.1679587" lon="5.4253647"><ele>250.8571428571429</ele><time>2026-03-22T14:48:47.139Z</time></trkpt><trkpt lat="49.1679197" lon="5.4252682"><ele>250.42857142857142</ele><time>2026-03-22T14:48:48.14Z</time></trkpt><trkpt lat="49.1678819" lon="5.4251677"><ele>250.0</ele><time>2026-03-22T14:48:49.139Z</time></trkpt><trkpt lat="49.1678435" lon="5.4250586"><ele>249.8</ele><time>2026-03-22T14:48:50.139Z</time></trkpt><trkpt lat="49.1678052" lon="5.4249427"><ele>249.6</ele><time>2026-03-22T14:48:51.14Z</time></trkpt><trkpt lat="49.167768" lon="5.42484"><ele>249.39999999999998</ele><time>2026-03-22T14:48:52.141Z</time></trkpt><trkpt lat="49.1677306" lon="5.4247475"><ele>249.2</ele><time>2026-03-22T14:48:53.14Z</time></trkpt><trkpt lat="49.1676968" lon="5.4245739"><ele>249.0</ele><time>2026-03-22T14:48:55.139Z</time></trkpt><trkpt lat="49.1677605" lon="5.4244214"><ele>249.0</ele><time>2026-03-22T14:48:57.14Z</time></trkpt><trkpt lat="49.167818" lon="5.4243587"><ele>249.0</ele><time>2026-03-22T14:48:59.139Z</time></trkpt><trkpt lat="49.167877" lon="5.424306"><ele>249.0</ele><time>2026-03-22T14:49:03.139Z</time></trkpt><trkpt lat="49.1679782" lon="5.4242371"><ele>249.0</ele><time>2026-03-22T14:49:05.139Z</time></trkpt><trkpt lat="49.1680435" lon="5.4241995"><ele>249.0</ele><time>2026-03-22T14:49:06.14Z</time></trkpt><trkpt lat="49.1681038" lon="5.4241689"><ele>249.0</ele><time>2026-03-22T14:49:07.14Z</time></trkpt><trkpt lat="49.1681962" lon="5.4241398"><ele>249.0</ele><time>2026-03-22T14:49:09.14Z</time></trkpt><trkpt lat="49.1682651" lon="5.4241623"><ele>249.0</ele><time>2026-03-22T14:49:52.14Z</time></trkpt><trkpt lat="49.1683008" lon="5.4242795"><ele>249.0</ele><time>2026-03-22T14:49:54.139Z</time></trkpt><trkpt lat="49.1683011" lon="5.4243815"><ele>249.0</ele><time>2026-03-22T14:49:55.139Z</time></trkpt><trkpt lat="49.1682967" lon="5.4244971"><ele>249.0</ele><time>2026-03-22T14:49:56.138Z</time></trkpt><trkpt lat="49.1682961" lon="5.4246211"><ele>249.0</ele><time>2026-03-22T14:49:57.139Z</time></trkpt><trkpt lat="49.1683146" lon="5.4247469"><ele>249.6</ele><time>2026-03-22T14:49:58.139Z</time></trkpt><trkpt lat="49.1683437" lon="5.4248745"><ele>250.2</ele><time>2026-03-22T14:49:59.138Z</time></trkpt><trkpt lat="49.1683833" lon="5.4249946"><ele>250.79999999999998</ele><time>2026-03-22T14:50:00.139Z</time></trkpt><trkpt lat="49.1684232" lon="5.4251157"><ele>251.39999999999998</ele><time>2026-03-22T14:50:01.139Z</time></trkpt><trkpt lat="49.168462" lon="5.4252475"><ele>252.0</ele><time>2026-03-22T14:50:02.139Z</time></trkpt><trkpt lat="49.1685028" lon="5.4253779"><ele>252.2</ele><time>2026-03-22T14:50:03.139Z</time></trkpt><trkpt lat="49.1685447" lon="5.4255108"><ele>252.39999999999998</ele><time>2026-03-22T14:50:04.139Z</time></trkpt><trkpt lat="49.1685838" lon="5.4256525"><ele>252.60000000000002</ele><time>2026-03-22T14:50:05.138Z</time></trkpt><trkpt lat="49.1686258" lon="5.4257926"><ele>252.8</ele><time>2026-03-22T14:50:06.138Z</time></trkpt><trkpt lat="49.1686658" lon="5.4259298"><ele>253.0</ele><time>2026-03-22T14:50:07.139Z</time></trkpt><trkpt lat="49.1687004" lon="5.4260552"><ele>252.99999999999997</ele><time>2026-03-22T14:50:08.138Z</time></trkpt><trkpt lat="49.1687393" lon="5.4261668"><ele>253.0</ele><time>2026-03-22T14:50:09.138Z</time></trkpt><trkpt lat="49.1687945" lon="5.4262573"><ele>253.0</ele><time>2026-03-22T14:50:10.139Z</time></trkpt><trkpt lat="49.1688691" lon="5.4263346"><ele>253.0</ele><time>2026-03-22T14:50:11.139Z</time></trkpt><trkpt lat="49.1689492" lon="5.4264082"><ele>252.99999999999997</ele><time>2026-03-22T14:50:12.139Z</time></trkpt><trkpt lat="49.169019" lon="5.4264827"><ele>253.0</ele><time>2026-03-22T14:50:13.14Z</time></trkpt><trkpt lat="49.1690858" lon="5.4265713"><ele>254.60000000000002</ele><time>2026-03-22T14:50:14.138Z</time></trkpt><trkpt lat="49.1691571" lon="5.4266622"><ele>256.20000000000005</ele><time>2026-03-22T14:50:15.138Z</time></trkpt><trkpt lat="49.1692375" lon="5.4267262"><ele>257.8</ele><time>2026-03-22T14:50:16.138Z</time></trkpt><trkpt lat="49.1693264" lon="5.4267629"><ele>259.40000000000003</ele><time>2026-03-22T14:50:17.138Z</time></trkpt><trkpt lat="49.1694197" lon="5.4267787"><ele>261.0</ele><time>2026-03-22T14:50:18.138Z</time></trkpt><trkpt lat="49.1695175" lon="5.4267722"><ele>261.0</ele><time>2026-03-22T14:50:19.138Z</time></trkpt><trkpt lat="49.1696188" lon="5.4267463"><ele>261.0</ele><time>2026-03-22T14:50:20.138Z</time></trkpt><trkpt lat="49.1697159" lon="5.4267137"><ele>261.0</ele><time>2026-03-22T14:50:21.138Z</time></trkpt><trkpt lat="49.1698155" lon="5.4266793"><ele>261.0</ele><time>2026-03-22T14:50:22.138Z</time></trkpt><trkpt lat="49.1699151" lon="5.4266336"><ele>261.0</ele><time>2026-03-22T14:50:23.139Z</time></trkpt><trkpt lat="49.170014" lon="5.426589"><ele>262.40000000000003</ele><time>2026-03-22T14:50:24.139Z</time></trkpt><trkpt lat="49.1701163" lon="5.426547"><ele>263.8</ele><time>2026-03-22T14:50:25.138Z</time></trkpt><trkpt lat="49.1702195" lon="5.426499"><ele>265.20000000000005</ele><time>2026-03-22T14:50:26.14Z</time></trkpt><trkpt lat="49.1703195" lon="5.4264477"><ele>266.6</ele><time>2026-03-22T14:50:27.138Z</time></trkpt><trkpt lat="49.1704192" lon="5.426405"><ele>268.0</ele><time>2026-03-22T14:50:28.139Z</time></trkpt><trkpt lat="49.1705172" lon="5.4263536"><ele>268.2</ele><time>2026-03-22T14:50:29.139Z</time></trkpt><trkpt lat="49.170616" lon="5.4263055"><ele>268.4</ele><time>2026-03-22T14:50:30.138Z</time></trkpt><trkpt lat="49.1707115" lon="5.4262554"><ele>268.59999999999997</ele><time>2026-03-22T14:50:31.138Z</time></trkpt><trkpt lat="49.1708034" lon="5.4261948"><ele>268.8</ele><time>2026-03-22T14:50:32.14Z</time></trkpt><trkpt lat="49.1708938" lon="5.4261308"><ele>269.0</ele><time>2026-03-22T14:50:33.139Z</time></trkpt><trkpt lat="49.1709866" lon="5.4260731"><ele>270.59999999999997</ele><time>2026-03-22T14:50:34.138Z</time></trkpt><trkpt lat="49.1710804" lon="5.426011"><ele>272.2</ele><time>2026-03-22T14:50:35.139Z</time></trkpt><trkpt lat="49.1711743" lon="5.4259524"><ele>273.79999999999995</ele><time>2026-03-22T14:50:36.139Z</time></trkpt><trkpt lat="49.1712655" lon="5.4258985"><ele>275.4</ele><time>2026-03-22T14:50:37.139Z</time></trkpt><trkpt lat="49.1713554" lon="5.4258408"><ele>277.0</ele><time>2026-03-22T14:50:38.139Z</time></trkpt><trkpt lat="49.1714434" lon="5.4257764"><ele>279.0</ele><time>2026-03-22T14:50:39.139Z</time></trkpt><trkpt lat="49.1715314" lon="5.4257241"><ele>281.0</ele><time>2026-03-22T14:50:40.14Z</time></trkpt><trkpt lat="49.1716137" lon="5.425662"><ele>283.0</ele><time>2026-03-22T14:50:41.139Z</time></trkpt><trkpt lat="49.171693" lon="5.4256103"><ele>285.0</ele><time>2026-03-22T14:50:42.139Z</time></trkpt><trkpt lat="49.1717755" lon="5.42556"><ele>287.0</ele><time>2026-03-22T14:50:43.14Z</time></trkpt><trkpt lat="49.1718611" lon="5.4255269"><ele>289.0</ele><time>2026-03-22T14:50:44.139Z</time></trkpt><trkpt lat="49.1719479" lon="5.4254713"><ele>289.16666666666663</ele><time>2026-03-22T14:50:45.14Z</time></trkpt><trkpt lat="49.1720308" lon="5.4254325"><ele>289.3333333333333</ele><time>2026-03-22T14:50:46.139Z</time></trkpt><trkpt lat="49.1721095" lon="5.4253821"><ele>289.5</ele><time>2026-03-22T14:50:47.139Z</time></trkpt><trkpt lat="49.1721932" lon="5.4253412"><ele>289.6666666666667</ele><time>2026-03-22T14:50:48.138Z</time></trkpt><trkpt lat="49.172278" lon="5.4252904"><ele>289.83333333333337</ele><time>2026-03-22T14:50:49.138Z</time></trkpt><trkpt lat="49.1723649" lon="5.4252484"><ele>290.0</ele><time>2026-03-22T14:50:50.138Z</time></trkpt><trkpt lat="49.1724513" lon="5.4252099"><ele>291.6666666666667</ele><time>2026-03-22T14:50:51.139Z</time></trkpt><trkpt lat="49.1725306" lon="5.4251701"><ele>293.33333333333337</ele><time>2026-03-22T14:50:52.139Z</time></trkpt><trkpt lat="49.1726089" lon="5.4251233"><ele>295.0</ele><time>2026-03-22T14:50:53.139Z</time></trkpt><trkpt lat="49.1726838" lon="5.4250739"><ele>296.6666666666667</ele><time>2026-03-22T14:50:54.139Z</time></trkpt><trkpt lat="49.1727501" lon="5.4250228"><ele>298.3333333333333</ele><time>2026-03-22T14:50:55.138Z</time></trkpt><trkpt lat="49.1728103" lon="5.4249614"><ele>300.0</ele><time>2026-03-22T14:50:56.139Z</time></trkpt><trkpt lat="49.1728638" lon="5.4248932"><ele>300.0</ele><time>2026-03-22T14:50:57.138Z</time></trkpt><trkpt lat="49.1729153" lon="5.4248295"><ele>300.0</ele><time>2026-03-22T14:50:58.138Z</time></trkpt><trkpt lat="49.1729658" lon="5.4247688"><ele>300.0</ele><time>2026-03-22T14:50:59.139Z</time></trkpt><trkpt lat="49.1730659" lon="5.42466"><ele>300.0</ele><time>2026-03-22T14:51:01.139Z</time></trkpt><trkpt lat="49.173132" lon="5.4245934"><ele>300.0</ele><time>2026-03-22T14:51:03.138Z</time></trkpt><trkpt lat="49.1732132" lon="5.4245787"><ele>300.0</ele><time>2026-03-22T14:51:06.139Z</time></trkpt><trkpt lat="49.1733045" lon="5.4245848"><ele>300.3333333333333</ele><time>2026-03-22T14:51:09.139Z</time></trkpt><trkpt lat="49.173373" lon="5.4245886"><ele>300.6666666666667</ele><time>2026-03-22T14:51:11.138Z</time></trkpt><trkpt lat="49.1734427" lon="5.4245931"><ele>301.0</ele><time>2026-03-22T14:51:13.139Z</time></trkpt><trkpt lat="49.1735176" lon="5.4245979"><ele>301.33333333333337</ele><time>2026-03-22T14:51:15.138Z</time></trkpt><trkpt lat="49.1736104" lon="5.4246121"><ele>301.6666666666667</ele><time>2026-03-22T14:51:17.139Z</time></trkpt><trkpt lat="49.1737454" lon="5.4246237"><ele>302.0</ele><time>2026-03-22T14:51:19.139Z</time></trkpt><trkpt lat="49.173823" lon="5.424626"><ele>302.00000000000006</ele><time>2026-03-22T14:51:20.138Z</time></trkpt><trkpt lat="49.1739034" lon="5.4246245"><ele>302.0</ele><time>2026-03-22T14:51:21.139Z</time></trkpt><trkpt lat="49.1739821" lon="5.4246251"><ele>302.0</ele><time>2026-03-22T14:51:22.139Z</time></trkpt><trkpt lat="49.1740458" lon="5.4246278"><ele>302.0</ele><time>2026-03-22T14:51:23.139Z</time></trkpt><trkpt lat="49.1741231" lon="5.4246128"><ele>302.0</ele><time>2026-03-22T14:51:25.138Z</time></trkpt><trkpt lat="49.1741799" lon="5.4245571"><ele>302.00000000000006</ele><time>2026-03-22T14:51:30.138Z</time></trkpt><trkpt lat="49.174257" lon="5.4245798"><ele>302.0</ele><time>2026-03-22T14:51:33.138Z</time></trkpt><trkpt lat="49.1743441" lon="5.4245842"><ele>302.83333333333337</ele><time>2026-03-22T14:51:35.139Z</time></trkpt><trkpt lat="49.1744096" lon="5.4245871"><ele>303.6666666666667</ele><time>2026-03-22T14:51:36.138Z</time></trkpt><trkpt lat="49.1744887" lon="5.4245925"><ele>304.5</ele><time>2026-03-22T14:51:37.139Z</time></trkpt><trkpt lat="49.1745762" lon="5.4245811"><ele>305.3333333333333</ele><time>2026-03-22T14:51:38.14Z</time></trkpt><trkpt lat="49.1746658" lon="5.4245338"><ele>306.16666666666663</ele><time>2026-03-22T14:51:39.139Z</time></trkpt><trkpt lat="49.1747426" lon="5.42446"><ele>307.0</ele><time>2026-03-22T14:51:40.138Z</time></trkpt><trkpt lat="49.174808" lon="5.4243538"><ele>309.0</ele><time>2026-03-22T14:51:41.139Z</time></trkpt><trkpt lat="49.1748556" lon="5.4242397"><ele>311.0</ele><time>2026-03-22T14:51:42.138Z</time></trkpt><trkpt lat="49.1749058" lon="5.4241167"><ele>313.0</ele><time>2026-03-22T14:51:43.14Z</time></trkpt><trkpt lat="49.174957" lon="5.4239897"><ele>315.0</ele><time>2026-03-22T14:51:44.14Z</time></trkpt><trkpt lat="49.1750086" lon="5.4238675"><ele>317.0</ele><time>2026-03-22T14:51:45.139Z</time></trkpt><trkpt lat="49.1750529" lon="5.4237472"><ele>317.0</ele><time>2026-03-22T14:51:46.138Z</time></trkpt><trkpt lat="49.17509" lon="5.4236455"><ele>317.0</ele><time>2026-03-22T14:51:47.139Z</time></trkpt><trkpt lat="49.1751463" lon="5.4234921"><ele>317.0</ele><time>2026-03-22T14:51:49.139Z</time></trkpt><trkpt lat="49.1752042" lon="5.4234175"><ele>317.0</ele><time>2026-03-22T14:51:51.139Z</time></trkpt><trkpt lat="49.1752675" lon="5.423499"><ele>317.0</ele><time>2026-03-22T14:51:54.139Z</time></trkpt><trkpt lat="49.1752981" lon="5.4236307"><ele>317.0</ele><time>2026-03-22T14:51:56.138Z</time></trkpt><trkpt lat="49.1753191" lon="5.4237308"><ele>317.6</ele><time>2026-03-22T14:51:57.139Z</time></trkpt><trkpt lat="49.1753437" lon="5.4238534"><ele>318.2</ele><time>2026-03-22T14:51:58.139Z</time></trkpt><trkpt lat="49.1753708" lon="5.4239928"><ele>318.8</ele><time>2026-03-22T14:51:59.138Z</time></trkpt><trkpt lat="49.1754008" lon="5.4241502"><ele>319.4</ele><time>2026-03-22T14:52:00.14Z</time></trkpt><trkpt lat="49.1754304" lon="5.4243166"><ele>320.0</ele><time>2026-03-22T14:52:01.138Z</time></trkpt><trkpt lat="49.1754635" lon="5.4244918"><ele>320.2</ele><time>2026-03-22T14:52:02.139Z</time></trkpt><trkpt lat="49.1754945" lon="5.4246677"><ele>320.4</ele><time>2026-03-22T14:52:03.139Z</time></trkpt><trkpt lat="49.1755181" lon="5.4248285"><ele>320.6</ele><time>2026-03-22T14:52:04.139Z</time></trkpt><trkpt lat="49.1755379" lon="5.4249851"><ele>320.8</ele><time>2026-03-22T14:52:05.138Z</time></trkpt><trkpt lat="49.1755645" lon="5.4251223"><ele>321.0</ele><time>2026-03-22T14:52:06.139Z</time></trkpt><trkpt lat="49.1755869" lon="5.4252486"><ele>321.0</ele><time>2026-03-22T14:52:07.138Z</time></trkpt><trkpt lat="49.1756092" lon="5.4253606"><ele>321.0</ele><time>2026-03-22T14:52:08.139Z</time></trkpt><trkpt lat="49.1756639" lon="5.4254868"><ele>321.0</ele><time>2026-03-22T14:52:10.139Z</time></trkpt><trkpt lat="49.1757539" lon="5.425455"><ele>321.0</ele><time>2026-03-22T14:52:13.139Z</time></trkpt><trkpt lat="49.1757445" lon="5.4253537"><ele>321.0</ele><time>2026-03-22T14:52:35.139Z</time></trkpt><trkpt lat="49.17576" lon="5.4252003"><ele>321.0</ele><time>2026-03-22T14:52:38.139Z</time></trkpt><trkpt lat="49.1757748" lon="5.4250965"><ele>322.71428571428567</ele><time>2026-03-22T14:52:39.139Z</time></trkpt><trkpt lat="49.175788" lon="5.4249927"><ele>324.42857142857144</ele><time>2026-03-22T14:52:40.138Z</time></trkpt><trkpt lat="49.175807" lon="5.4248825"><ele>326.1428571428571</ele><time>2026-03-22T14:52:41.139Z</time></trkpt><trkpt lat="49.1758224" lon="5.4247696"><ele>327.85714285714283</ele><time>2026-03-22T14:52:42.138Z</time></trkpt><trkpt lat="49.1758423" lon="5.4246568"><ele>329.57142857142856</ele><time>2026-03-22T14:52:43.138Z</time></trkpt><trkpt lat="49.1758605" lon="5.4245448"><ele>331.2857142857143</ele><time>2026-03-22T14:52:44.138Z</time></trkpt><trkpt lat="49.1758802" lon="5.4244298"><ele>333.0</ele><time>2026-03-22T14:52:45.138Z</time></trkpt><trkpt lat="49.175901" lon="5.4243259"><ele>333.25</ele><time>2026-03-22T14:52:46.139Z</time></trkpt><trkpt lat="49.1759272" lon="5.4241404"><ele>333.5</ele><time>2026-03-22T14:52:48.116Z</time></trkpt><trkpt lat="49.1759452" lon="5.4239673"><ele>333.75</ele><time>2026-03-22T14:52:50.12Z</time></trkpt><trkpt lat="49.1759498" lon="5.4238005"><ele>334.0</ele><time>2026-03-22T14:52:52.119Z</time></trkpt><trkpt lat="49.1759528" lon="5.4236353"><ele>333.6</ele><time>2026-03-22T14:52:54.119Z</time></trkpt><trkpt lat="49.1759543" lon="5.4234728"><ele>333.2</ele><time>2026-03-22T14:52:56.12Z</time></trkpt><trkpt lat="49.1759575" lon="5.423304"><ele>332.8</ele><time>2026-03-22T14:52:58.119Z</time></trkpt><trkpt lat="49.1759615" lon="5.4231275"><ele>332.40000000000003</ele><time>2026-03-22T14:53:00.119Z</time></trkpt><trkpt lat="49.1759584" lon="5.4229496"><ele>332.0</ele><time>2026-03-22T14:53:02.119Z</time></trkpt><trkpt lat="49.1759596" lon="5.4227731"><ele>331.5</ele><time>2026-03-22T14:53:04.119Z</time></trkpt><trkpt lat="49.1759697" lon="5.4226059"><ele>331.0</ele><time>2026-03-22T14:53:06.119Z</time></trkpt><trkpt lat="49.1759802" lon="5.4224286"><ele>330.5</ele><time>2026-03-22T14:53:08.119Z</time></trkpt><trkpt lat="49.1759822" lon="5.4223315"><ele>330.0</ele><time>2026-03-22T14:53:09.119Z</time></trkpt><trkpt lat="49.175982" lon="5.4222215"><ele>329.5</ele><time>2026-03-22T14:53:10.119Z</time></trkpt><trkpt lat="49.1759851" lon="5.4221038"><ele>329.0</ele><time>2026-03-22T14:53:11.119Z</time></trkpt><trkpt lat="49.1759837" lon="5.4219737"><ele>328.4</ele><time>2026-03-22T14:53:12.119Z</time></trkpt><trkpt lat="49.1759829" lon="5.4218399"><ele>327.79999999999995</ele><time>2026-03-22T14:53:13.119Z</time></trkpt><trkpt lat="49.1759838" lon="5.4217018"><ele>327.20000000000005</ele><time>2026-03-22T14:53:14.119Z</time></trkpt><trkpt lat="49.175983" lon="5.421562"><ele>326.6</ele><time>2026-03-22T14:53:15.119Z</time></trkpt><trkpt lat="49.1759778" lon="5.4214183"><ele>326.0</ele><time>2026-03-22T14:53:16.119Z</time></trkpt><trkpt lat="49.1759714" lon="5.4212714"><ele>326.0</ele><time>2026-03-22T14:53:17.119Z</time></trkpt><trkpt lat="49.1759661" lon="5.4211261"><ele>326.0</ele><time>2026-03-22T14:53:18.119Z</time></trkpt><trkpt lat="49.1759626" lon="5.4209839"><ele>326.0</ele><time>2026-03-22T14:53:19.119Z</time></trkpt><trkpt lat="49.1759586" lon="5.4208546"><ele>326.0</ele><time>2026-03-22T14:53:20.119Z</time></trkpt><trkpt lat="49.1759534" lon="5.4207554"><ele>326.0</ele><time>2026-03-22T14:53:21.119Z</time></trkpt><trkpt lat="49.1759408" lon="5.4205642"><ele>326.33333333333337</ele><time>2026-03-22T14:53:23.12Z</time></trkpt><trkpt lat="49.1759356" lon="5.4204414"><ele>326.6666666666667</ele><time>2026-03-22T14:53:24.119Z</time></trkpt><trkpt lat="49.1759243" lon="5.4203155"><ele>327.0</ele><time>2026-03-22T14:53:25.119Z</time></trkpt><trkpt lat="49.175911" lon="5.4201886"><ele>327.3333333333333</ele><time>2026-03-22T14:53:26.12Z</time></trkpt><trkpt lat="49.1758912" lon="5.4200664"><ele>327.66666666666663</ele><time>2026-03-22T14:53:27.119Z</time></trkpt><trkpt lat="49.1758719" lon="5.4199557"><ele>328.0</ele><time>2026-03-22T14:53:28.119Z</time></trkpt><trkpt lat="49.1758568" lon="5.4198492"><ele>328.0</ele><time>2026-03-22T14:53:29.119Z</time></trkpt><trkpt lat="49.1758354" lon="5.4197428"><ele>328.0</ele><time>2026-03-22T14:53:30.12Z</time></trkpt><trkpt lat="49.1758096" lon="5.4196418"><ele>328.0</ele><time>2026-03-22T14:53:31.119Z</time></trkpt><trkpt lat="49.1757759" lon="5.4195308"><ele>328.0</ele><time>2026-03-22T14:53:32.119Z</time></trkpt><trkpt lat="49.1757454" lon="5.4194136"><ele>328.0</ele><time>2026-03-22T14:53:33.119Z</time></trkpt><trkpt lat="49.1757098" lon="5.4192869"><ele>328.0</ele><time>2026-03-22T14:53:34.119Z</time></trkpt><trkpt lat="49.175674" lon="5.4191553"><ele>328.2</ele><time>2026-03-22T14:53:35.119Z</time></trkpt><trkpt lat="49.1756379" lon="5.4190173"><ele>328.4</ele><time>2026-03-22T14:53:36.119Z</time></trkpt><trkpt lat="49.1756011" lon="5.4188756"><ele>328.59999999999997</ele><time>2026-03-22T14:53:37.119Z</time></trkpt><trkpt lat="49.1755608" lon="5.4187298"><ele>328.79999999999995</ele><time>2026-03-22T14:53:38.119Z</time></trkpt><trkpt lat="49.1755243" lon="5.418574"><ele>329.0</ele><time>2026-03-22T14:53:39.12Z</time></trkpt><trkpt lat="49.1754845" lon="5.4184169"><ele>329.0</ele><time>2026-03-22T14:53:40.119Z</time></trkpt><trkpt lat="49.1754413" lon="5.4182646"><ele>329.0</ele><time>2026-03-22T14:53:41.119Z</time></trkpt><trkpt lat="49.1753942" lon="5.4181107"><ele>329.0</ele><time>2026-03-22T14:53:42.119Z</time></trkpt><trkpt lat="49.1753458" lon="5.4179573"><ele>329.0</ele><time>2026-03-22T14:53:43.12Z</time></trkpt><trkpt lat="49.1752991" lon="5.4178005"><ele>329.0</ele><time>2026-03-22T14:53:44.119Z</time></trkpt><trkpt lat="49.1752538" lon="5.4176424"><ele>330.0</ele><time>2026-03-22T14:53:45.119Z</time></trkpt><trkpt lat="49.1752138" lon="5.4174894"><ele>331.0</ele><time>2026-03-22T14:53:46.119Z</time></trkpt><trkpt lat="49.175181" lon="5.4173543"><ele>332.0</ele><time>2026-03-22T14:53:47.119Z</time></trkpt><trkpt lat="49.1751552" lon="5.417241"><ele>333.0</ele><time>2026-03-22T14:53:48.119Z</time></trkpt><trkpt lat="49.1751165" lon="5.4170945"><ele>334.0</ele><time>2026-03-22T14:53:50.12Z</time></trkpt><trkpt lat="49.175116" lon="5.4172128"><ele>334.0</ele><time>2026-03-22T14:54:21.119Z</time></trkpt><trkpt lat="49.1751636" lon="5.4173997"><ele>334.0</ele><time>2026-03-22T14:54:23.119Z</time></trkpt><trkpt lat="49.1751933" lon="5.4175079"><ele>334.0</ele><time>2026-03-22T14:54:24.119Z</time></trkpt><trkpt lat="49.1752261" lon="5.4176189"><ele>334.0</ele><time>2026-03-22T14:54:25.119Z</time></trkpt><trkpt lat="49.1752587" lon="5.4177382"><ele>334.0</ele><time>2026-03-22T14:54:26.119Z</time></trkpt><trkpt lat="49.1752947" lon="5.4178616"><ele>333.16666666666663</ele><time>2026-03-22T14:54:27.119Z</time></trkpt><trkpt lat="49.1753302" lon="5.4179874"><ele>332.3333333333333</ele><time>2026-03-22T14:54:28.119Z</time></trkpt><trkpt lat="49.1753678" lon="5.4181134"><ele>331.5</ele><time>2026-03-22T14:54:29.119Z</time></trkpt><trkpt lat="49.1754057" lon="5.4182391"><ele>330.6666666666667</ele><time>2026-03-22T14:54:30.12Z</time></trkpt><trkpt lat="49.1754407" lon="5.4183622"><ele>329.83333333333337</ele><time>2026-03-22T14:54:31.119Z</time></trkpt><trkpt lat="49.1754698" lon="5.4184715"><ele>329.0</ele><time>2026-03-22T14:54:32.119Z</time></trkpt><trkpt lat="49.1754958" lon="5.4185672"><ele>329.0</ele><time>2026-03-22T14:54:33.119Z</time></trkpt><trkpt lat="49.1755228" lon="5.41866"><ele>329.0</ele><time>2026-03-22T14:54:34.12Z</time></trkpt><trkpt lat="49.1755527" lon="5.4187643"><ele>329.0</ele><time>2026-03-22T14:54:35.119Z</time></trkpt><trkpt lat="49.175582" lon="5.4188811"><ele>329.0</ele><time>2026-03-22T14:54:36.119Z</time></trkpt><trkpt lat="49.1756121" lon="5.4189941"><ele>329.0</ele><time>2026-03-22T14:54:37.119Z</time></trkpt><trkpt lat="49.175637" lon="5.4190949"><ele>329.0</ele><time>2026-03-22T14:54:38.119Z</time></trkpt><trkpt lat="49.1756753" lon="5.4192329"><ele>327.83333333333337</ele><time>2026-03-22T14:54:40.119Z</time></trkpt><trkpt lat="49.1756059" lon="5.4192785"><ele>326.6666666666667</ele><time>2026-03-22T14:54:47.12Z</time></trkpt><trkpt lat="49.1755484" lon="5.4192217"><ele>325.5</ele><time>2026-03-22T14:54:49.119Z</time></trkpt><trkpt lat="49.1754877" lon="5.4191309"><ele>324.3333333333333</ele><time>2026-03-22T14:54:51.119Z</time></trkpt><trkpt lat="49.1754221" lon="5.4190205"><ele>323.16666666666663</ele><time>2026-03-22T14:54:53.119Z</time></trkpt><trkpt lat="49.1753529" lon="5.4189078"><ele>322.0</ele><time>2026-03-22T14:54:55.119Z</time></trkpt><trkpt lat="49.1753004" lon="5.4188399"><ele>323.40000000000003</ele><time>2026-03-22T14:54:57.119Z</time></trkpt><trkpt lat="49.1752328" lon="5.4187455"><ele>324.8</ele><time>2026-03-22T14:55:00.119Z</time></trkpt><trkpt lat="49.1751851" lon="5.4186605"><ele>326.2</ele><time>2026-03-22T14:55:02.119Z</time></trkpt><trkpt lat="49.1751189" lon="5.4185463"><ele>327.6</ele><time>2026-03-22T14:55:04.119Z</time></trkpt><trkpt lat="49.1750446" lon="5.4184226"><ele>329.0</ele><time>2026-03-22T14:55:06.12Z</time></trkpt><trkpt lat="49.1749646" lon="5.4182751"><ele>329.0</ele><time>2026-03-22T14:55:08.119Z</time></trkpt><trkpt lat="49.1749223" lon="5.4182003"><ele>329.0</ele><time>2026-03-22T14:55:09.119Z</time></trkpt><trkpt lat="49.1748827" lon="5.4181247"><ele>329.0</ele><time>2026-03-22T14:55:10.12Z</time></trkpt><trkpt lat="49.1748089" lon="5.4179794"><ele>329.0</ele><time>2026-03-22T14:55:12.119Z</time></trkpt><trkpt lat="49.1747593" lon="5.417821"><ele>329.0</ele><time>2026-03-22T14:55:14.119Z</time></trkpt><trkpt lat="49.1747029" lon="5.4176767"><ele>329.0</ele><time>2026-03-22T14:55:16.119Z</time></trkpt><trkpt lat="49.1746507" lon="5.4175296"><ele>329.0</ele><time>2026-03-22T14:55:18.119Z</time></trkpt><trkpt lat="49.1746126" lon="5.4173736"><ele>329.0</ele><time>2026-03-22T14:55:20.12Z</time></trkpt><trkpt lat="49.174559" lon="5.417216"><ele>329.0</ele><time>2026-03-22T14:55:22.119Z</time></trkpt><trkpt lat="49.1745295" lon="5.417129"><ele>329.0</ele><time>2026-03-22T14:55:23.119Z</time></trkpt><trkpt lat="49.1744995" lon="5.4170393"><ele>329.0</ele><time>2026-03-22T14:55:24.119Z</time></trkpt><trkpt lat="49.1744667" lon="5.4169414"><ele>329.0</ele><time>2026-03-22T14:55:25.119Z</time></trkpt><trkpt lat="49.1744342" lon="5.4168447"><ele>329.0</ele><time>2026-03-22T14:55:26.119Z</time></trkpt><trkpt lat="49.1744038" lon="5.4167447"><ele>329.0</ele><time>2026-03-22T14:55:27.119Z</time></trkpt><trkpt lat="49.1743676" lon="5.4166458"><ele>329.0</ele><time>2026-03-22T14:55:28.119Z</time></trkpt><trkpt lat="49.1743306" lon="5.416546"><ele>329.0</ele><time>2026-03-22T14:55:29.119Z</time></trkpt><trkpt lat="49.1742934" lon="5.4164466"><ele>329.0</ele><time>2026-03-22T14:55:30.119Z</time></trkpt><trkpt lat="49.1742654" lon="5.4163525"><ele>329.6</ele><time>2026-03-22T14:55:31.119Z</time></trkpt><trkpt lat="49.1742186" lon="5.4161983"><ele>330.2</ele><time>2026-03-22T14:55:33.119Z</time></trkpt><trkpt lat="49.1741702" lon="5.4160844"><ele>330.8</ele><time>2026-03-22T14:55:35.119Z</time></trkpt><trkpt lat="49.1741351" lon="5.4159724"><ele>331.40000000000003</ele><time>2026-03-22T14:55:37.119Z</time></trkpt><trkpt lat="49.1741201" lon="5.4158431"><ele>332.0</ele><time>2026-03-22T14:55:39.119Z</time></trkpt><trkpt lat="49.1741187" lon="5.4156922"><ele>332.0</ele><time>2026-03-22T14:55:41.119Z</time></trkpt><trkpt lat="49.1741201" lon="5.4155357"><ele>332.0</ele><time>2026-03-22T14:55:43.119Z</time></trkpt><trkpt lat="49.1741288" lon="5.4153607"><ele>332.0</ele><time>2026-03-22T14:55:45.119Z</time></trkpt><trkpt lat="49.1741367" lon="5.4151649"><ele>332.0</ele><time>2026-03-22T14:55:47.119Z</time></trkpt><trkpt lat="49.1741363" lon="5.4150592"><ele>332.0</ele><time>2026-03-22T14:55:48.119Z</time></trkpt><trkpt lat="49.1741369" lon="5.4149515"><ele>332.2857142857143</ele><time>2026-03-22T14:55:49.119Z</time></trkpt><trkpt lat="49.1741359" lon="5.4148368"><ele>332.5714285714286</ele><time>2026-03-22T14:55:50.119Z</time></trkpt><trkpt lat="49.1741355" lon="5.4147175"><ele>332.8571428571429</ele><time>2026-03-22T14:55:51.119Z</time></trkpt><trkpt lat="49.1741383" lon="5.4146064"><ele>333.1428571428571</ele><time>2026-03-22T14:55:52.119Z</time></trkpt><trkpt lat="49.1741397" lon="5.4144912"><ele>333.42857142857144</ele><time>2026-03-22T14:55:53.12Z</time></trkpt><trkpt lat="49.1741389" lon="5.4143807"><ele>333.7142857142857</ele><time>2026-03-22T14:55:54.119Z</time></trkpt><trkpt lat="49.1741435" lon="5.4142729"><ele>334.0</ele><time>2026-03-22T14:55:55.119Z</time></trkpt><trkpt lat="49.1741457" lon="5.4141729"><ele>334.0</ele><time>2026-03-22T14:55:56.119Z</time></trkpt><trkpt lat="49.1741499" lon="5.4139847"><ele>334.0</ele><time>2026-03-22T14:55:58.119Z</time></trkpt><trkpt lat="49.1741532" lon="5.4137955"><ele>334.0</ele><time>2026-03-22T14:56:00.12Z</time></trkpt><trkpt lat="49.1741541" lon="5.4136939"><ele>334.0</ele><time>2026-03-22T14:56:01.119Z</time></trkpt><trkpt lat="49.1741552" lon="5.4135875"><ele>334.0</ele><time>2026-03-22T14:56:02.12Z</time></trkpt><trkpt lat="49.1741604" lon="5.413483"><ele>334.0</ele><time>2026-03-22T14:56:03.119Z</time></trkpt><trkpt lat="49.1741651" lon="5.4133783"><ele>334.0</ele><time>2026-03-22T14:56:04.119Z</time></trkpt><trkpt lat="49.1741714" lon="5.4132729"><ele>334.0</ele><time>2026-03-22T14:56:05.12Z</time></trkpt><trkpt lat="49.1741768" lon="5.4131696"><ele>334.0</ele><time>2026-03-22T14:56:06.12Z</time></trkpt><trkpt lat="49.1741813" lon="5.4130687"><ele>334.0</ele><time>2026-03-22T14:56:07.119Z</time></trkpt><trkpt lat="49.1741875" lon="5.4129682"><ele>334.0</ele><time>2026-03-22T14:56:08.119Z</time></trkpt><trkpt lat="49.1741951" lon="5.4128653"><ele>334.0</ele><time>2026-03-22T14:56:09.119Z</time></trkpt><trkpt lat="49.1742049" lon="5.4127602"><ele>333.42857142857144</ele><time>2026-03-22T14:56:10.119Z</time></trkpt><trkpt lat="49.1742191" lon="5.4126478"><ele>332.8571428571429</ele><time>2026-03-22T14:56:11.119Z</time></trkpt><trkpt lat="49.1742368" lon="5.4125394"><ele>332.28571428571433</ele><time>2026-03-22T14:56:12.119Z</time></trkpt><trkpt lat="49.1742559" lon="5.4124357"><ele>331.7142857142857</ele><time>2026-03-22T14:56:13.119Z</time></trkpt><trkpt lat="49.1742736" lon="5.4123378"><ele>331.14285714285717</ele><time>2026-03-22T14:56:14.12Z</time></trkpt><trkpt lat="49.1742914" lon="5.4122409"><ele>330.5714285714286</ele><time>2026-03-22T14:56:15.119Z</time></trkpt><trkpt lat="49.17431" lon="5.4121455"><ele>330.0</ele><time>2026-03-22T14:56:16.119Z</time></trkpt><trkpt lat="49.1743261" lon="5.4120505"><ele>324.0</ele><time>2026-03-22T14:56:17.119Z</time></trkpt><trkpt lat="49.174343" lon="5.411957"><ele>324.0</ele><time>2026-03-22T14:56:18.119Z</time></trkpt><trkpt lat="49.1743794" lon="5.4117851"><ele>324.0</ele><time>2026-03-22T14:56:20.119Z</time></trkpt><trkpt lat="49.1744059" lon="5.4116527"><ele>324.0</ele><time>2026-03-22T14:56:22.12Z</time></trkpt><trkpt lat="49.1744202" lon="5.411541"><ele>324.0</ele><time>2026-03-22T14:56:25.119Z</time></trkpt></trkseg><trkseg><trkpt lat="49.1744049" lon="5.4116716"><ele>324.0</ele><time>2026-03-22T15:12:24.136Z</time></trkpt><trkpt lat="49.1744498" lon="5.4115931"><ele>324.0</ele><time>2026-03-22T15:14:04.137Z</time></trkpt><trkpt lat="49.1745127" lon="5.4115338"><ele>324.0</ele><time>2026-03-22T15:14:21.137Z</time></trkpt><trkpt lat="49.1745746" lon="5.4115724"><ele>324.0</ele><time>2026-03-22T15:14:24.137Z</time></trkpt><trkpt lat="49.1746158" lon="5.4114655"><ele>324.0</ele><time>2026-03-22T15:14:28.136Z</time></trkpt><trkpt lat="49.1746139" lon="5.4113504"><ele>324.0</ele><time>2026-03-22T15:14:30.136Z</time></trkpt><trkpt lat="49.1746273" lon="5.4112127"><ele>322.59999999999997</ele><time>2026-03-22T15:14:32.138Z</time></trkpt><trkpt lat="49.1746532" lon="5.411084"><ele>321.2</ele><time>2026-03-22T15:14:34.136Z</time></trkpt><trkpt lat="49.1746987" lon="5.4109687"><ele>319.79999999999995</ele><time>2026-03-22T15:14:36.137Z</time></trkpt><trkpt lat="49.1747631" lon="5.410816"><ele>318.4</ele><time>2026-03-22T15:14:38.137Z</time></trkpt><trkpt lat="49.1748159" lon="5.4106916"><ele>317.0</ele><time>2026-03-22T15:14:40.136Z</time></trkpt><trkpt lat="49.1748447" lon="5.4105895"><ele>317.0</ele><time>2026-03-22T15:14:43.138Z</time></trkpt><trkpt lat="49.1748159" lon="5.4106783"><ele>317.0</ele><time>2026-03-22T15:15:03.137Z</time></trkpt><trkpt lat="49.1747421" lon="5.4108139"><ele>317.0</ele><time>2026-03-22T15:15:05.136Z</time></trkpt><trkpt lat="49.1746981" lon="5.4109145"><ele>317.0</ele><time>2026-03-22T15:15:06.137Z</time></trkpt><trkpt lat="49.1746523" lon="5.4110333"><ele>317.0</ele><time>2026-03-22T15:15:07.137Z</time></trkpt><trkpt lat="49.1746167" lon="5.4111299"><ele>317.0</ele><time>2026-03-22T15:15:08.136Z</time></trkpt><trkpt lat="49.174582" lon="5.4112169"><ele>317.0</ele><time>2026-03-22T15:15:09.138Z</time></trkpt><trkpt lat="49.1745415" lon="5.4113099"><ele>317.0</ele><time>2026-03-22T15:15:10.136Z</time></trkpt><trkpt lat="49.1745117" lon="5.4114002"><ele>317.0</ele><time>2026-03-22T15:15:11.137Z</time></trkpt><trkpt lat="49.1744751" lon="5.4114899"><ele>317.0</ele><time>2026-03-22T15:15:13.138Z</time></trkpt><trkpt lat="49.1744361" lon="5.4115672"><ele>317.0</ele><time>2026-03-22T15:15:42.137Z</time></trkpt><trkpt lat="49.1744132" lon="5.4116873"><ele>317.0</ele><time>2026-03-22T15:16:10.137Z</time></trkpt><trkpt lat="49.1744414" lon="5.4115569"><ele>317.0</ele><time>2026-03-22T15:16:44.136Z</time></trkpt><trkpt lat="49.1745048" lon="5.4115259"><ele>317.0</ele><time>2026-03-22T15:16:50.135Z</time></trkpt><trkpt lat="49.1745801" lon="5.4115482"><ele>317.0</ele><time>2026-03-22T15:16:53.136Z</time></trkpt><trkpt lat="49.1746384" lon="5.4116226"><ele>317.0</ele><time>2026-03-22T15:16:56.135Z</time></trkpt><trkpt lat="49.1747024" lon="5.4115587"><ele>317.0</ele><time>2026-03-22T15:17:00.136Z</time></trkpt><trkpt lat="49.1747431" lon="5.4114789"><ele>317.0</ele><time>2026-03-22T15:17:03.135Z</time></trkpt><trkpt lat="49.1747537" lon="5.4113774"><ele>317.0</ele><time>2026-03-22T15:17:07.136Z</time></trkpt><trkpt lat="49.1747643" lon="5.4112667"><ele>317.0</ele><time>2026-03-22T15:17:12.135Z</time></trkpt><trkpt lat="49.1747146" lon="5.4112051"><ele>317.0</ele><time>2026-03-22T15:17:25.136Z</time></trkpt><trkpt lat="49.1746623" lon="5.4112818"><ele>317.0</ele><time>2026-03-22T15:17:30.136Z</time></trkpt><trkpt lat="49.1745895" lon="5.4112733"><ele>317.0</ele><time>2026-03-22T15:17:52.136Z</time></trkpt><trkpt lat="49.1746204" lon="5.4111538"><ele>317.0</ele><time>2026-03-22T15:18:10.135Z</time></trkpt><trkpt lat="49.1746457" lon="5.4110587"><ele>317.0</ele><time>2026-03-22T15:18:13.136Z</time></trkpt><trkpt lat="49.1746708" lon="5.4109691"><ele>317.0</ele><time>2026-03-22T15:18:20.136Z</time></trkpt><trkpt lat="49.1746967" lon="5.4108656"><ele>317.0</ele><time>2026-03-22T15:18:27.136Z</time></trkpt><trkpt lat="49.1747438" lon="5.4107949"><ele>317.0</ele><time>2026-03-22T15:18:32.136Z</time></trkpt><trkpt lat="49.1747968" lon="5.4107342"><ele>317.0</ele><time>2026-03-22T15:18:36.136Z</time></trkpt><trkpt lat="49.1748445" lon="5.4106406"><ele>317.0</ele><time>2026-03-22T15:18:40.136Z</time></trkpt><trkpt lat="49.1748873" lon="5.4105426"><ele>317.0</ele><time>2026-03-22T15:18:44.135Z</time></trkpt><trkpt lat="49.1749199" lon="5.4104517"><ele>317.0</ele><time>2026-03-22T15:18:47.137Z</time></trkpt><trkpt lat="49.1748742" lon="5.4105284"><ele>317.0</ele><time>2026-03-22T15:24:11.136Z</time></trkpt><trkpt lat="49.1748358" lon="5.4106174"><ele>317.0</ele><time>2026-03-22T15:24:14.137Z</time></trkpt><trkpt lat="49.1747955" lon="5.4106983"><ele>317.0</ele><time>2026-03-22T15:24:17.136Z</time></trkpt><trkpt lat="49.1747489" lon="5.4108038"><ele>317.0</ele><time>2026-03-22T15:24:20.136Z</time></trkpt><trkpt lat="49.1746965" lon="5.4109354"><ele>317.0</ele><time>2026-03-22T15:24:23.135Z</time></trkpt><trkpt lat="49.1746539" lon="5.4110322"><ele>317.0</ele><time>2026-03-22T15:24:25.136Z</time></trkpt><trkpt lat="49.1746175" lon="5.4111383"><ele>317.0</ele><time>2026-03-22T15:24:28.136Z</time></trkpt><trkpt lat="49.1745905" lon="5.4112278"><ele>317.0</ele><time>2026-03-22T15:24:41.136Z</time></trkpt><trkpt lat="49.1745428" lon="5.4113391"><ele>318.1666666666667</ele><time>2026-03-22T15:24:47.136Z</time></trkpt><trkpt lat="49.1745002" lon="5.4114427"><ele>319.33333333333337</ele><time>2026-03-22T15:24:50.136Z</time></trkpt><trkpt lat="49.1744631" lon="5.4115273"><ele>320.5</ele><time>2026-03-22T15:24:53.136Z</time></trkpt><trkpt lat="49.174422" lon="5.4116245"><ele>321.6666666666667</ele><time>2026-03-22T15:24:56.137Z</time></trkpt><trkpt lat="49.1743895" lon="5.4117201"><ele>322.8333333333333</ele><time>2026-03-22T15:25:08.136Z</time></trkpt><trkpt lat="49.1743587" lon="5.4118417"><ele>324.0</ele><time>2026-03-22T15:25:10.135Z</time></trkpt><trkpt lat="49.1743245" lon="5.4120218"><ele>325.0</ele><time>2026-03-22T15:25:12.136Z</time></trkpt><trkpt lat="49.1742893" lon="5.4122211"><ele>326.0</ele><time>2026-03-22T15:25:14.136Z</time></trkpt><trkpt lat="49.1742696" lon="5.4123232"><ele>327.0</ele><time>2026-03-22T15:25:15.136Z</time></trkpt><trkpt lat="49.1742462" lon="5.4124348"><ele>328.0</ele><time>2026-03-22T15:25:16.137Z</time></trkpt><trkpt lat="49.1742265" lon="5.4125503"><ele>329.0</ele><time>2026-03-22T15:25:17.136Z</time></trkpt><trkpt lat="49.174209" lon="5.4126705"><ele>330.0</ele><time>2026-03-22T15:25:18.114Z</time></trkpt><trkpt lat="49.1741939" lon="5.4127865"><ele>330.00000000000006</ele><time>2026-03-22T15:25:19.116Z</time></trkpt><trkpt lat="49.1741823" lon="5.4129037"><ele>330.0</ele><time>2026-03-22T15:25:20.114Z</time></trkpt><trkpt lat="49.1741767" lon="5.4130174"><ele>330.0</ele><time>2026-03-22T15:25:21.118Z</time></trkpt><trkpt lat="49.1741691" lon="5.4131306"><ele>330.0</ele><time>2026-03-22T15:25:22.116Z</time></trkpt><trkpt lat="49.1741614" lon="5.4132412"><ele>330.0</ele><time>2026-03-22T15:25:23.113Z</time></trkpt><trkpt lat="49.1741538" lon="5.4133546"><ele>330.00000000000006</ele><time>2026-03-22T15:25:24.113Z</time></trkpt><trkpt lat="49.1741474" lon="5.4134684"><ele>330.0</ele><time>2026-03-22T15:25:25.113Z</time></trkpt><trkpt lat="49.1741423" lon="5.4135813"><ele>330.5714285714286</ele><time>2026-03-22T15:25:26.113Z</time></trkpt><trkpt lat="49.1741379" lon="5.4136936"><ele>331.14285714285717</ele><time>2026-03-22T15:25:27.113Z</time></trkpt><trkpt lat="49.1741364" lon="5.4138032"><ele>331.7142857142857</ele><time>2026-03-22T15:25:28.113Z</time></trkpt><trkpt lat="49.1741334" lon="5.4139106"><ele>332.28571428571433</ele><time>2026-03-22T15:25:29.113Z</time></trkpt><trkpt lat="49.1741292" lon="5.4140184"><ele>332.8571428571429</ele><time>2026-03-22T15:25:30.113Z</time></trkpt><trkpt lat="49.1741219" lon="5.4141298"><ele>333.42857142857144</ele><time>2026-03-22T15:25:31.113Z</time></trkpt><trkpt lat="49.1741189" lon="5.414248"><ele>334.0</ele><time>2026-03-22T15:25:32.113Z</time></trkpt><trkpt lat="49.1741144" lon="5.4143633"><ele>334.0</ele><time>2026-03-22T15:25:33.114Z</time></trkpt><trkpt lat="49.1741112" lon="5.4144834"><ele>334.0</ele><time>2026-03-22T15:25:34.113Z</time></trkpt><trkpt lat="49.1741058" lon="5.4146068"><ele>334.0</ele><time>2026-03-22T15:25:35.114Z</time></trkpt><trkpt lat="49.1741042" lon="5.4147287"><ele>334.0</ele><time>2026-03-22T15:25:36.113Z</time></trkpt><trkpt lat="49.1741079" lon="5.4148472"><ele>334.0</ele><time>2026-03-22T15:25:37.113Z</time></trkpt><trkpt lat="49.1741177" lon="5.4149706"><ele>334.0</ele><time>2026-03-22T15:25:38.114Z</time></trkpt><trkpt lat="49.1741272" lon="5.4150827"><ele>334.16666666666663</ele><time>2026-03-22T15:25:39.113Z</time></trkpt><trkpt lat="49.1741309" lon="5.4151942"><ele>334.3333333333333</ele><time>2026-03-22T15:25:40.113Z</time></trkpt><trkpt lat="49.1741332" lon="5.415305"><ele>334.5</ele><time>2026-03-22T15:25:41.113Z</time></trkpt><trkpt lat="49.1741282" lon="5.4154135"><ele>334.6666666666667</ele><time>2026-03-22T15:25:42.113Z</time></trkpt><trkpt lat="49.1741241" lon="5.4155193"><ele>334.83333333333337</ele><time>2026-03-22T15:25:43.113Z</time></trkpt><trkpt lat="49.1741203" lon="5.4156264"><ele>335.0</ele><time>2026-03-22T15:25:44.113Z</time></trkpt><trkpt lat="49.1741074" lon="5.4158096"><ele>334.4</ele><time>2026-03-22T15:25:46.113Z</time></trkpt><trkpt lat="49.1741238" lon="5.4159744"><ele>333.8</ele><time>2026-03-22T15:25:48.113Z</time></trkpt><trkpt lat="49.1741667" lon="5.4161061"><ele>333.20000000000005</ele><time>2026-03-22T15:25:50.113Z</time></trkpt><trkpt lat="49.1742142" lon="5.4162233"><ele>332.6</ele><time>2026-03-22T15:25:52.113Z</time></trkpt><trkpt lat="49.1742518" lon="5.4163462"><ele>332.0</ele><time>2026-03-22T15:25:54.113Z</time></trkpt><trkpt lat="49.1742848" lon="5.4164802"><ele>331.5</ele><time>2026-03-22T15:25:56.113Z</time></trkpt><trkpt lat="49.174339" lon="5.4166305"><ele>331.0</ele><time>2026-03-22T15:25:58.113Z</time></trkpt><trkpt lat="49.1743991" lon="5.4167972"><ele>330.5</ele><time>2026-03-22T15:26:00.114Z</time></trkpt><trkpt lat="49.1744261" lon="5.4168857"><ele>330.0</ele><time>2026-03-22T15:26:01.113Z</time></trkpt><trkpt lat="49.1744578" lon="5.4169794"><ele>329.5</ele><time>2026-03-22T15:26:02.113Z</time></trkpt><trkpt lat="49.1744935" lon="5.4170807"><ele>329.0</ele><time>2026-03-22T15:26:03.113Z</time></trkpt><trkpt lat="49.1745293" lon="5.4171801"><ele>328.2857142857143</ele><time>2026-03-22T15:26:04.113Z</time></trkpt><trkpt lat="49.1745617" lon="5.417277"><ele>327.57142857142856</ele><time>2026-03-22T15:26:05.113Z</time></trkpt><trkpt lat="49.1745918" lon="5.4173704"><ele>326.8571428571429</ele><time>2026-03-22T15:26:06.113Z</time></trkpt><trkpt lat="49.1746216" lon="5.4174558"><ele>326.1428571428571</ele><time>2026-03-22T15:26:07.114Z</time></trkpt><trkpt lat="49.1746538" lon="5.4175464"><ele>325.42857142857144</ele><time>2026-03-22T15:26:08.114Z</time></trkpt><trkpt lat="49.174687" lon="5.4176321"><ele>324.7142857142857</ele><time>2026-03-22T15:26:09.113Z</time></trkpt><trkpt lat="49.1747177" lon="5.41772"><ele>324.0</ele><time>2026-03-22T15:26:10.113Z</time></trkpt><trkpt lat="49.1747492" lon="5.4178064"><ele>324.0</ele><time>2026-03-22T15:26:11.113Z</time></trkpt><trkpt lat="49.1747754" lon="5.4178992"><ele>324.0</ele><time>2026-03-22T15:26:12.113Z</time></trkpt><trkpt lat="49.1748072" lon="5.4179962"><ele>324.0</ele><time>2026-03-22T15:26:13.113Z</time></trkpt><trkpt lat="49.1748829" lon="5.4181435"><ele>324.0</ele><time>2026-03-22T15:26:15.114Z</time></trkpt><trkpt lat="49.1749254" lon="5.4182232"><ele>324.0</ele><time>2026-03-22T15:26:16.113Z</time></trkpt><trkpt lat="49.174968" lon="5.4182992"><ele>324.0</ele><time>2026-03-22T15:26:17.113Z</time></trkpt><trkpt lat="49.175012" lon="5.4183781"><ele>323.6666666666667</ele><time>2026-03-22T15:26:18.113Z</time></trkpt><trkpt lat="49.1750531" lon="5.4184525"><ele>323.3333333333333</ele><time>2026-03-22T15:26:19.113Z</time></trkpt><trkpt lat="49.1751317" lon="5.4185741"><ele>323.0</ele><time>2026-03-22T15:26:21.113Z</time></trkpt><trkpt lat="49.1752007" lon="5.4186915"><ele>322.66666666666663</ele><time>2026-03-22T15:26:23.113Z</time></trkpt><trkpt lat="49.1752543" lon="5.4187668"><ele>322.3333333333333</ele><time>2026-03-22T15:26:25.113Z</time></trkpt><trkpt lat="49.1753119" lon="5.418834"><ele>322.0</ele><time>2026-03-22T15:26:27.113Z</time></trkpt><trkpt lat="49.1753912" lon="5.4189583"><ele>322.0</ele><time>2026-03-22T15:26:29.113Z</time></trkpt><trkpt lat="49.1754331" lon="5.4190304"><ele>322.0</ele><time>2026-03-22T15:26:30.113Z</time></trkpt><trkpt lat="49.1755128" lon="5.4191583"><ele>322.0</ele><time>2026-03-22T15:26:32.113Z</time></trkpt><trkpt lat="49.1755882" lon="5.4192461"><ele>322.0</ele><time>2026-03-22T15:26:34.113Z</time></trkpt><trkpt lat="49.17566" lon="5.4193087"><ele>322.0</ele><time>2026-03-22T15:26:36.114Z</time></trkpt><trkpt lat="49.1757172" lon="5.4194215"><ele>322.0</ele><time>2026-03-22T15:26:38.113Z</time></trkpt><trkpt lat="49.1757651" lon="5.4195723"><ele>323.20000000000005</ele><time>2026-03-22T15:26:40.113Z</time></trkpt><trkpt lat="49.1758056" lon="5.4197315"><ele>324.4</ele><time>2026-03-22T15:26:42.113Z</time></trkpt><trkpt lat="49.1758429" lon="5.4199158"><ele>325.6</ele><time>2026-03-22T15:26:44.113Z</time></trkpt><trkpt lat="49.1758629" lon="5.4200163"><ele>326.79999999999995</ele><time>2026-03-22T15:26:45.113Z</time></trkpt><trkpt lat="49.1758797" lon="5.4201229"><ele>328.0</ele><time>2026-03-22T15:26:46.113Z</time></trkpt><trkpt lat="49.1758955" lon="5.4202349"><ele>328.0</ele><time>2026-03-22T15:26:47.113Z</time></trkpt><trkpt lat="49.1759061" lon="5.4203429"><ele>328.0</ele><time>2026-03-22T15:26:48.113Z</time></trkpt><trkpt lat="49.1759149" lon="5.4204508"><ele>328.0</ele><time>2026-03-22T15:26:49.114Z</time></trkpt><trkpt lat="49.1759219" lon="5.4205555"><ele>328.0</ele><time>2026-03-22T15:26:50.113Z</time></trkpt><trkpt lat="49.1759275" lon="5.4207346"><ele>328.0</ele><time>2026-03-22T15:26:52.113Z</time></trkpt><trkpt lat="49.1759374" lon="5.4208931"><ele>328.0</ele><time>2026-03-22T15:26:54.113Z</time></trkpt><trkpt lat="49.1759437" lon="5.4210774"><ele>327.66666666666663</ele><time>2026-03-22T15:26:56.113Z</time></trkpt><trkpt lat="49.1759474" lon="5.4211804"><ele>327.3333333333333</ele><time>2026-03-22T15:26:57.113Z</time></trkpt><trkpt lat="49.1759504" lon="5.4212938"><ele>327.0</ele><time>2026-03-22T15:26:58.113Z</time></trkpt><trkpt lat="49.1759551" lon="5.4214153"><ele>326.6666666666667</ele><time>2026-03-22T15:26:59.113Z</time></trkpt><trkpt lat="49.1759579" lon="5.4215489"><ele>326.33333333333337</ele><time>2026-03-22T15:27:00.114Z</time></trkpt><trkpt lat="49.175959" lon="5.4216886"><ele>326.0</ele><time>2026-03-22T15:27:01.113Z</time></trkpt><trkpt lat="49.1759601" lon="5.4218251"><ele>326.0</ele><time>2026-03-22T15:27:02.113Z</time></trkpt><trkpt lat="49.1759619" lon="5.4219638"><ele>326.0</ele><time>2026-03-22T15:27:03.113Z</time></trkpt><trkpt lat="49.1759636" lon="5.422103"><ele>326.0</ele><time>2026-03-22T15:27:04.113Z</time></trkpt><trkpt lat="49.1759602" lon="5.4222395"><ele>326.0</ele><time>2026-03-22T15:27:05.113Z</time></trkpt><trkpt lat="49.1759573" lon="5.4223693"><ele>326.0</ele><time>2026-03-22T15:27:06.113Z</time></trkpt><trkpt lat="49.1759561" lon="5.4224974"><ele>326.0</ele><time>2026-03-22T15:27:07.113Z</time></trkpt><trkpt lat="49.1759548" lon="5.4226245"><ele>326.5</ele><time>2026-03-22T15:27:08.113Z</time></trkpt><trkpt lat="49.175951" lon="5.4227485"><ele>327.0</ele><time>2026-03-22T15:27:09.114Z</time></trkpt><trkpt lat="49.1759459" lon="5.422873"><ele>327.5</ele><time>2026-03-22T15:27:10.113Z</time></trkpt><trkpt lat="49.1759427" lon="5.4230037"><ele>328.0</ele><time>2026-03-22T15:27:11.113Z</time></trkpt><trkpt lat="49.1759432" lon="5.4231385"><ele>328.5</ele><time>2026-03-22T15:27:12.113Z</time></trkpt><trkpt lat="49.1759434" lon="5.4232743"><ele>329.0</ele><time>2026-03-22T15:27:13.113Z</time></trkpt><trkpt lat="49.1759403" lon="5.4234111"><ele>329.5</ele><time>2026-03-22T15:27:14.113Z</time></trkpt><trkpt lat="49.1759375" lon="5.4235418"><ele>330.0</ele><time>2026-03-22T15:27:15.113Z</time></trkpt><trkpt lat="49.1759327" lon="5.4236717"><ele>330.5</ele><time>2026-03-22T15:27:16.113Z</time></trkpt><trkpt lat="49.1759271" lon="5.4237983"><ele>331.0</ele><time>2026-03-22T15:27:17.114Z</time></trkpt><trkpt lat="49.1759194" lon="5.4239222"><ele>331.5</ele><time>2026-03-22T15:27:18.113Z</time></trkpt><trkpt lat="49.1759059" lon="5.4240484"><ele>332.0</ele><time>2026-03-22T15:27:19.113Z</time></trkpt><trkpt lat="49.1758871" lon="5.4241741"><ele>332.1666666666667</ele><time>2026-03-22T15:27:20.113Z</time></trkpt><trkpt lat="49.1758668" lon="5.4243012"><ele>332.33333333333337</ele><time>2026-03-22T15:27:21.113Z</time></trkpt><trkpt lat="49.1758466" lon="5.4244299"><ele>332.5</ele><time>2026-03-22T15:27:22.113Z</time></trkpt><trkpt lat="49.1758286" lon="5.4245615"><ele>332.6666666666667</ele><time>2026-03-22T15:27:23.113Z</time></trkpt><trkpt lat="49.1758099" lon="5.4246891"><ele>332.8333333333333</ele><time>2026-03-22T15:27:24.113Z</time></trkpt><trkpt lat="49.1757963" lon="5.4248138"><ele>333.0</ele><time>2026-03-22T15:27:25.113Z</time></trkpt><trkpt lat="49.1757839" lon="5.4249286"><ele>333.0</ele><time>2026-03-22T15:27:26.113Z</time></trkpt><trkpt lat="49.1757725" lon="5.4250365"><ele>333.0</ele><time>2026-03-22T15:27:27.113Z</time></trkpt><trkpt lat="49.1757508" lon="5.4251291"><ele>333.0</ele><time>2026-03-22T15:27:28.113Z</time></trkpt><trkpt lat="49.1757342" lon="5.4252944"><ele>333.0</ele><time>2026-03-22T15:27:30.113Z</time></trkpt><trkpt lat="49.175713" lon="5.4254205"><ele>333.0</ele><time>2026-03-22T15:27:32.114Z</time></trkpt><trkpt lat="49.1756438" lon="5.425422"><ele>333.0</ele><time>2026-03-22T15:27:35.113Z</time></trkpt><trkpt lat="49.1756238" lon="5.425317"><ele>331.0</ele><time>2026-03-22T15:27:37.113Z</time></trkpt><trkpt lat="49.1756018" lon="5.4251869"><ele>329.0</ele><time>2026-03-22T15:27:39.113Z</time></trkpt><trkpt lat="49.175587" lon="5.425093"><ele>327.0</ele><time>2026-03-22T15:27:40.113Z</time></trkpt><trkpt lat="49.1755667" lon="5.4249751"><ele>325.0</ele><time>2026-03-22T15:27:41.113Z</time></trkpt><trkpt lat="49.1755425" lon="5.4248434"><ele>323.0</ele><time>2026-03-22T15:27:42.114Z</time></trkpt><trkpt lat="49.1755152" lon="5.4247"><ele>321.0</ele><time>2026-03-22T15:27:43.113Z</time></trkpt><trkpt lat="49.175488" lon="5.4245472"><ele>320.8</ele><time>2026-03-22T15:27:44.113Z</time></trkpt><trkpt lat="49.1754595" lon="5.4243962"><ele>320.6</ele><time>2026-03-22T15:27:45.114Z</time></trkpt><trkpt lat="49.1754315" lon="5.424247"><ele>320.4</ele><time>2026-03-22T15:27:46.113Z</time></trkpt><trkpt lat="49.1754058" lon="5.4241047"><ele>320.2</ele><time>2026-03-22T15:27:47.113Z</time></trkpt><trkpt lat="49.1753801" lon="5.4239673"><ele>320.0</ele><time>2026-03-22T15:27:48.114Z</time></trkpt><trkpt lat="49.1753557" lon="5.4238371"><ele>319.5</ele><time>2026-03-22T15:27:49.114Z</time></trkpt><trkpt lat="49.175334" lon="5.423714"><ele>319.0</ele><time>2026-03-22T15:27:50.114Z</time></trkpt><trkpt lat="49.1753103" lon="5.4236026"><ele>318.5</ele><time>2026-03-22T15:27:51.113Z</time></trkpt><trkpt lat="49.1752876" lon="5.4235067"><ele>318.0</ele><time>2026-03-22T15:27:52.113Z</time></trkpt><trkpt lat="49.17523" lon="5.4233843"><ele>317.5</ele><time>2026-03-22T15:27:54.113Z</time></trkpt><trkpt lat="49.1751662" lon="5.4233307"><ele>317.0</ele><time>2026-03-22T15:27:57.113Z</time></trkpt><trkpt lat="49.1751231" lon="5.423439"><ele>317.0</ele><time>2026-03-22T15:28:07.113Z</time></trkpt><trkpt lat="49.1750755" lon="5.4236131"><ele>317.0</ele><time>2026-03-22T15:28:09.113Z</time></trkpt><trkpt lat="49.1750346" lon="5.4237356"><ele>317.0</ele><time>2026-03-22T15:28:10.113Z</time></trkpt><trkpt lat="49.1749828" lon="5.4238868"><ele>317.0</ele><time>2026-03-22T15:28:11.113Z</time></trkpt><trkpt lat="49.1749207" lon="5.4240462"><ele>317.0</ele><time>2026-03-22T15:28:12.113Z</time></trkpt><trkpt lat="49.1748516" lon="5.4242095"><ele>315.0</ele><time>2026-03-22T15:28:13.113Z</time></trkpt><trkpt lat="49.1747843" lon="5.4243611"><ele>313.0</ele><time>2026-03-22T15:28:14.113Z</time></trkpt><trkpt lat="49.1746978" lon="5.4244711"><ele>311.0</ele><time>2026-03-22T15:28:15.114Z</time></trkpt><trkpt lat="49.1746081" lon="5.4245416"><ele>309.0</ele><time>2026-03-22T15:28:16.113Z</time></trkpt><trkpt lat="49.1745065" lon="5.4245637"><ele>307.0</ele><time>2026-03-22T15:28:17.113Z</time></trkpt><trkpt lat="49.174399" lon="5.4245627"><ele>307.0</ele><time>2026-03-22T15:28:18.113Z</time></trkpt><trkpt lat="49.1742938" lon="5.4245661"><ele>307.0</ele><time>2026-03-22T15:28:19.113Z</time></trkpt><trkpt lat="49.1741921" lon="5.4245776"><ele>307.0</ele><time>2026-03-22T15:28:20.113Z</time></trkpt><trkpt lat="49.174094" lon="5.4245861"><ele>307.0</ele><time>2026-03-22T15:28:21.113Z</time></trkpt><trkpt lat="49.1739969" lon="5.4245904"><ele>307.0</ele><time>2026-03-22T15:28:22.114Z</time></trkpt><trkpt lat="49.1738982" lon="5.4245924"><ele>306.0</ele><time>2026-03-22T15:28:23.113Z</time></trkpt><trkpt lat="49.1738046" lon="5.424588"><ele>305.0</ele><time>2026-03-22T15:28:24.113Z</time></trkpt><trkpt lat="49.1737078" lon="5.4245842"><ele>304.0</ele><time>2026-03-22T15:28:25.113Z</time></trkpt><trkpt lat="49.1736071" lon="5.4245753"><ele>303.0</ele><time>2026-03-22T15:28:26.113Z</time></trkpt><trkpt lat="49.1735079" lon="5.4245655"><ele>302.0</ele><time>2026-03-22T15:28:27.113Z</time></trkpt><trkpt lat="49.1734093" lon="5.4245581"><ele>302.0</ele><time>2026-03-22T15:28:28.113Z</time></trkpt><trkpt lat="49.1733192" lon="5.4245582"><ele>302.0</ele><time>2026-03-22T15:28:29.113Z</time></trkpt><trkpt lat="49.1732387" lon="5.4245638"><ele>302.0</ele><time>2026-03-22T15:28:30.113Z</time></trkpt><trkpt lat="49.1731674" lon="5.424575"><ele>302.0</ele><time>2026-03-22T15:28:31.113Z</time></trkpt><trkpt lat="49.1731055" lon="5.4246061"><ele>302.0</ele><time>2026-03-22T15:28:32.113Z</time></trkpt><trkpt lat="49.1730485" lon="5.4246509"><ele>302.0</ele><time>2026-03-22T15:28:33.113Z</time></trkpt><trkpt lat="49.1729461" lon="5.4247565"><ele>301.6666666666667</ele><time>2026-03-22T15:28:35.113Z</time></trkpt><trkpt lat="49.1728521" lon="5.4248802"><ele>301.33333333333337</ele><time>2026-03-22T15:28:37.113Z</time></trkpt><trkpt lat="49.1728039" lon="5.4249433"><ele>301.0</ele><time>2026-03-22T15:28:38.113Z</time></trkpt><trkpt lat="49.172747" lon="5.4250001"><ele>300.6666666666667</ele><time>2026-03-22T15:28:39.113Z</time></trkpt><trkpt lat="49.1726775" lon="5.425055"><ele>300.3333333333333</ele><time>2026-03-22T15:28:40.113Z</time></trkpt><trkpt lat="49.1725941" lon="5.4251072"><ele>300.0</ele><time>2026-03-22T15:28:41.113Z</time></trkpt><trkpt lat="49.172502" lon="5.4251574"><ele>300.0</ele><time>2026-03-22T15:28:42.113Z</time></trkpt><trkpt lat="49.1724068" lon="5.4252088"><ele>300.0</ele><time>2026-03-22T15:28:43.113Z</time></trkpt><trkpt lat="49.1723109" lon="5.425256"><ele>300.0</ele><time>2026-03-22T15:28:44.113Z</time></trkpt><trkpt lat="49.1722191" lon="5.4253027"><ele>300.0</ele><time>2026-03-22T15:28:45.113Z</time></trkpt><trkpt lat="49.1721266" lon="5.425351"><ele>300.0</ele><time>2026-03-22T15:28:46.113Z</time></trkpt><trkpt lat="49.1720346" lon="5.425403"><ele>298.0</ele><time>2026-03-22T15:28:47.113Z</time></trkpt><trkpt lat="49.1719348" lon="5.4254546"><ele>296.0</ele><time>2026-03-22T15:28:48.113Z</time></trkpt><trkpt lat="49.1718358" lon="5.4255079"><ele>294.0</ele><time>2026-03-22T15:28:49.113Z</time></trkpt><trkpt lat="49.1717353" lon="5.4255607"><ele>292.0</ele><time>2026-03-22T15:28:50.113Z</time></trkpt><trkpt lat="49.171645" lon="5.4256182"><ele>290.0</ele><time>2026-03-22T15:28:51.113Z</time></trkpt><trkpt lat="49.1715728" lon="5.4256617"><ele>287.83333333333337</ele><time>2026-03-22T15:28:52.113Z</time></trkpt><trkpt lat="49.1715071" lon="5.4256977"><ele>285.6666666666667</ele><time>2026-03-22T15:28:53.113Z</time></trkpt><trkpt lat="49.1714406" lon="5.4257452"><ele>283.5</ele><time>2026-03-22T15:28:54.113Z</time></trkpt><trkpt lat="49.1713617" lon="5.4257932"><ele>281.3333333333333</ele><time>2026-03-22T15:28:55.113Z</time></trkpt><trkpt lat="49.1712698" lon="5.4258516"><ele>279.16666666666663</ele><time>2026-03-22T15:28:56.113Z</time></trkpt><trkpt lat="49.1711662" lon="5.4259182"><ele>277.0</ele><time>2026-03-22T15:28:57.113Z</time></trkpt><trkpt lat="49.1710614" lon="5.4259888"><ele>277.0</ele><time>2026-03-22T15:28:58.113Z</time></trkpt><trkpt lat="49.1709577" lon="5.4260564"><ele>277.0</ele><time>2026-03-22T15:28:59.113Z</time></trkpt><trkpt lat="49.1708586" lon="5.426119"><ele>277.0</ele><time>2026-03-22T15:29:00.113Z</time></trkpt><trkpt lat="49.1707647" lon="5.4261814"><ele>277.0</ele><time>2026-03-22T15:29:01.113Z</time></trkpt><trkpt lat="49.1706701" lon="5.4262323"><ele>277.0</ele><time>2026-03-22T15:29:02.113Z</time></trkpt><trkpt lat="49.1705731" lon="5.4262827"><ele>274.75</ele><time>2026-03-22T15:29:03.113Z</time></trkpt><trkpt lat="49.1704671" lon="5.4263385"><ele>272.5</ele><time>2026-03-22T15:29:04.114Z</time></trkpt><trkpt lat="49.1703566" lon="5.426394"><ele>270.25</ele><time>2026-03-22T15:29:05.113Z</time></trkpt><trkpt lat="49.1702463" lon="5.4264497"><ele>268.0</ele><time>2026-03-22T15:29:06.113Z</time></trkpt><trkpt lat="49.1701357" lon="5.4264983"><ele>268.0</ele><time>2026-03-22T15:29:07.113Z</time></trkpt><trkpt lat="49.1700278" lon="5.4265503"><ele>268.0</ele><time>2026-03-22T15:29:08.113Z</time></trkpt><trkpt lat="49.1699257" lon="5.4265928"><ele>268.0</ele><time>2026-03-22T15:29:09.113Z</time></trkpt><trkpt lat="49.1698306" lon="5.4266374"><ele>268.0</ele><time>2026-03-22T15:29:10.113Z</time></trkpt><trkpt lat="49.1697357" lon="5.4266746"><ele>268.0</ele><time>2026-03-22T15:29:11.113Z</time></trkpt><trkpt lat="49.1696398" lon="5.4267078"><ele>266.6</ele><time>2026-03-22T15:29:12.113Z</time></trkpt><trkpt lat="49.1695454" lon="5.4267344"><ele>265.20000000000005</ele><time>2026-03-22T15:29:13.113Z</time></trkpt><trkpt lat="49.1694519" lon="5.4267431"><ele>263.8</ele><time>2026-03-22T15:29:14.113Z</time></trkpt><trkpt lat="49.1693618" lon="5.4267394"><ele>262.40000000000003</ele><time>2026-03-22T15:29:15.113Z</time></trkpt><trkpt lat="49.169278" lon="5.4267159"><ele>261.0</ele><time>2026-03-22T15:29:16.113Z</time></trkpt><trkpt lat="49.1692016" lon="5.4266602"><ele>261.0</ele><time>2026-03-22T15:29:17.113Z</time></trkpt><trkpt lat="49.1691261" lon="5.426579"><ele>261.0</ele><time>2026-03-22T15:29:18.113Z</time></trkpt><trkpt lat="49.1690598" lon="5.4264887"><ele>261.0</ele><time>2026-03-22T15:29:19.113Z</time></trkpt><trkpt lat="49.1689855" lon="5.4264086"><ele>261.0</ele><time>2026-03-22T15:29:20.113Z</time></trkpt><trkpt lat="49.1689055" lon="5.426338"><ele>261.0</ele><time>2026-03-22T15:29:21.113Z</time></trkpt><trkpt lat="49.1688274" lon="5.4262577"><ele>259.40000000000003</ele><time>2026-03-22T15:29:22.113Z</time></trkpt><trkpt lat="49.1687572" lon="5.4261619"><ele>257.8</ele><time>2026-03-22T15:29:23.113Z</time></trkpt><trkpt lat="49.1687001" lon="5.4260469"><ele>256.20000000000005</ele><time>2026-03-22T15:29:24.114Z</time></trkpt><trkpt lat="49.1686601" lon="5.425917"><ele>254.60000000000002</ele><time>2026-03-22T15:29:25.114Z</time></trkpt><trkpt lat="49.1686227" lon="5.4257779"><ele>253.0</ele><time>2026-03-22T15:29:26.113Z</time></trkpt><trkpt lat="49.1685825" lon="5.425641"><ele>252.99999999999997</ele><time>2026-03-22T15:29:27.113Z</time></trkpt><trkpt lat="49.1685377" lon="5.4255108"><ele>253.0</ele><time>2026-03-22T15:29:28.113Z</time></trkpt><trkpt lat="49.168496" lon="5.4253815"><ele>253.0</ele><time>2026-03-22T15:29:29.114Z</time></trkpt><trkpt lat="49.1684591" lon="5.425262"><ele>253.0</ele><time>2026-03-22T15:29:30.113Z</time></trkpt><trkpt lat="49.1684259" lon="5.4251525"><ele>252.99999999999997</ele><time>2026-03-22T15:29:31.113Z</time></trkpt><trkpt lat="49.1683971" lon="5.4250562"><ele>253.0</ele><time>2026-03-22T15:29:32.113Z</time></trkpt><trkpt lat="49.1683525" lon="5.4248874"><ele>252.8</ele><time>2026-03-22T15:29:34.113Z</time></trkpt><trkpt lat="49.1683117" lon="5.4247031"><ele>252.60000000000002</ele><time>2026-03-22T15:29:36.113Z</time></trkpt><trkpt lat="49.1683009" lon="5.4245995"><ele>252.39999999999998</ele><time>2026-03-22T15:29:37.113Z</time></trkpt><trkpt lat="49.1682965" lon="5.4244898"><ele>252.2</ele><time>2026-03-22T15:29:38.113Z</time></trkpt><trkpt lat="49.1683005" lon="5.4243826"><ele>252.0</ele><time>2026-03-22T15:29:39.113Z</time></trkpt><trkpt lat="49.1682992" lon="5.4242076"><ele>251.5</ele><time>2026-03-22T15:29:41.114Z</time></trkpt><trkpt lat="49.1682749" lon="5.4241136"><ele>251.0</ele><time>2026-03-22T15:29:43.113Z</time></trkpt><trkpt lat="49.1682027" lon="5.4240662"><ele>250.5</ele><time>2026-03-22T15:29:50.113Z</time></trkpt><trkpt lat="49.1681101" lon="5.424121"><ele>250.0</ele><time>2026-03-22T15:29:52.113Z</time></trkpt><trkpt lat="49.1680286" lon="5.4241709"><ele>249.5</ele><time>2026-03-22T15:29:53.113Z</time></trkpt><trkpt lat="49.167934" lon="5.4242339"><ele>249.0</ele><time>2026-03-22T15:29:54.113Z</time></trkpt><trkpt lat="49.1678509" lon="5.4242844"><ele>249.0</ele><time>2026-03-22T15:29:55.113Z</time></trkpt><trkpt lat="49.1677803" lon="5.4243264"><ele>248.99999999999997</ele><time>2026-03-22T15:29:56.113Z</time></trkpt><trkpt lat="49.1676895" lon="5.4243925"><ele>248.99999999999997</ele><time>2026-03-22T15:29:58.113Z</time></trkpt><trkpt lat="49.1676402" lon="5.4244819"><ele>249.0</ele><time>2026-03-22T15:30:00.113Z</time></trkpt><trkpt lat="49.1676405" lon="5.4246255"><ele>249.0</ele><time>2026-03-22T15:30:02.113Z</time></trkpt><trkpt lat="49.1676964" lon="5.4247994"><ele>249.0</ele><time>2026-03-22T15:30:04.113Z</time></trkpt><trkpt lat="49.1677336" lon="5.4248994"><ele>249.0</ele><time>2026-03-22T15:30:05.113Z</time></trkpt><trkpt lat="49.1677725" lon="5.4250073"><ele>249.0</ele><time>2026-03-22T15:30:06.113Z</time></trkpt><trkpt lat="49.1678155" lon="5.4251252"><ele>249.0</ele><time>2026-03-22T15:30:07.113Z</time></trkpt><trkpt lat="49.1678596" lon="5.4252459"><ele>249.0</ele><time>2026-03-22T15:30:08.113Z</time></trkpt><trkpt lat="49.1678984" lon="5.4253469"><ele>249.0</ele><time>2026-03-22T15:30:09.114Z</time></trkpt><trkpt lat="49.1679323" lon="5.4254322"><ele>249.16666666666666</ele><time>2026-03-22T15:30:10.113Z</time></trkpt><trkpt lat="49.1679978" lon="5.4255941"><ele>249.33333333333331</ele><time>2026-03-22T15:30:12.114Z</time></trkpt><trkpt lat="49.1680363" lon="5.4256868"><ele>249.5</ele><time>2026-03-22T15:30:13.113Z</time></trkpt><trkpt lat="49.1680784" lon="5.4257798"><ele>249.66666666666666</ele><time>2026-03-22T15:30:14.114Z</time></trkpt><trkpt lat="49.1681262" lon="5.425874"><ele>249.83333333333331</ele><time>2026-03-22T15:30:15.113Z</time></trkpt><trkpt lat="49.1681759" lon="5.4259659"><ele>250.0</ele><time>2026-03-22T15:30:16.113Z</time></trkpt><trkpt lat="49.1682267" lon="5.4260554"><ele>250.49999999999997</ele><time>2026-03-22T15:30:17.113Z</time></trkpt><trkpt lat="49.1682809" lon="5.4261438"><ele>251.0</ele><time>2026-03-22T15:30:18.113Z</time></trkpt><trkpt lat="49.1683414" lon="5.4262326"><ele>251.5</ele><time>2026-03-22T15:30:19.113Z</time></trkpt><trkpt lat="49.1684022" lon="5.4263255"><ele>252.0</ele><time>2026-03-22T15:30:20.113Z</time></trkpt><trkpt lat="49.1684618" lon="5.4264272"><ele>252.49999999999997</ele><time>2026-03-22T15:30:21.113Z</time></trkpt><trkpt lat="49.1685138" lon="5.4265432"><ele>253.0</ele><time>2026-03-22T15:30:22.113Z</time></trkpt><trkpt lat="49.1685588" lon="5.4266714"><ele>253.2</ele><time>2026-03-22T15:30:23.113Z</time></trkpt><trkpt lat="49.1686022" lon="5.426811"><ele>253.4</ele><time>2026-03-22T15:30:24.113Z</time></trkpt><trkpt lat="49.1686462" lon="5.4269577"><ele>253.59999999999997</ele><time>2026-03-22T15:30:25.113Z</time></trkpt><trkpt lat="49.1686948" lon="5.4271077"><ele>253.79999999999998</ele><time>2026-03-22T15:30:26.113Z</time></trkpt><trkpt lat="49.1687486" lon="5.4272606"><ele>254.0</ele><time>2026-03-22T15:30:27.113Z</time></trkpt><trkpt lat="49.1688032" lon="5.4274068"><ele>254.2</ele><time>2026-03-22T15:30:28.114Z</time></trkpt><trkpt lat="49.1688582" lon="5.4275556"><ele>254.39999999999998</ele><time>2026-03-22T15:30:29.113Z</time></trkpt><trkpt lat="49.1689122" lon="5.4277044"><ele>254.6</ele><time>2026-03-22T15:30:30.113Z</time></trkpt><trkpt lat="49.1689657" lon="5.4278559"><ele>254.8</ele><time>2026-03-22T15:30:31.113Z</time></trkpt><trkpt lat="49.1690185" lon="5.4280091"><ele>255.0</ele><time>2026-03-22T15:30:32.113Z</time></trkpt><trkpt lat="49.1690755" lon="5.4281578"><ele>255.0</ele><time>2026-03-22T15:30:33.113Z</time></trkpt><trkpt lat="49.1691321" lon="5.4283084"><ele>255.0</ele><time>2026-03-22T15:30:34.113Z</time></trkpt><trkpt lat="49.1691886" lon="5.4284526"><ele>255.0</ele><time>2026-03-22T15:30:35.113Z</time></trkpt><trkpt lat="49.1692424" lon="5.4285945"><ele>255.0</ele><time>2026-03-22T15:30:36.113Z</time></trkpt><trkpt lat="49.1692937" lon="5.4287283"><ele>255.0</ele><time>2026-03-22T15:30:37.113Z</time></trkpt><trkpt lat="49.1693399" lon="5.4288544"><ele>254.16666666666666</ele><time>2026-03-22T15:30:38.113Z</time></trkpt><trkpt lat="49.169382" lon="5.4289747"><ele>253.33333333333331</ele><time>2026-03-22T15:30:39.113Z</time></trkpt><trkpt lat="49.1694232" lon="5.4290885"><ele>252.5</ele><time>2026-03-22T15:30:40.113Z</time></trkpt><trkpt lat="49.1694628" lon="5.4291949"><ele>251.66666666666666</ele><time>2026-03-22T15:30:41.113Z</time></trkpt><trkpt lat="49.1695006" lon="5.4293007"><ele>250.83333333333331</ele><time>2026-03-22T15:30:42.113Z</time></trkpt><trkpt lat="49.169537" lon="5.4294051"><ele>250.0</ele><time>2026-03-22T15:30:43.114Z</time></trkpt><trkpt lat="49.1695741" lon="5.4295041"><ele>250.0</ele><time>2026-03-22T15:30:44.113Z</time></trkpt><trkpt lat="49.1696094" lon="5.4296024"><ele>250.0</ele><time>2026-03-22T15:30:45.113Z</time></trkpt><trkpt lat="49.1696449" lon="5.4297002"><ele>250.0</ele><time>2026-03-22T15:30:46.113Z</time></trkpt><trkpt lat="49.1696787" lon="5.4297944"><ele>250.0</ele><time>2026-03-22T15:30:47.113Z</time></trkpt><trkpt lat="49.1697121" lon="5.4298869"><ele>250.0</ele><time>2026-03-22T15:30:48.113Z</time></trkpt><trkpt lat="49.1697466" lon="5.4299788"><ele>250.0</ele><time>2026-03-22T15:30:49.113Z</time></trkpt><trkpt lat="49.169781" lon="5.4300753"><ele>250.0</ele><time>2026-03-22T15:30:50.113Z</time></trkpt><trkpt lat="49.169816" lon="5.4301762"><ele>250.66666666666666</ele><time>2026-03-22T15:30:51.113Z</time></trkpt><trkpt lat="49.1698529" lon="5.4302802"><ele>251.33333333333331</ele><time>2026-03-22T15:30:52.113Z</time></trkpt><trkpt lat="49.1698883" lon="5.4303791"><ele>252.0</ele><time>2026-03-22T15:30:53.113Z</time></trkpt><trkpt lat="49.1699247" lon="5.4304741"><ele>252.66666666666669</ele><time>2026-03-22T15:30:54.113Z</time></trkpt><trkpt lat="49.1699623" lon="5.4305717"><ele>253.33333333333334</ele><time>2026-03-22T15:30:55.113Z</time></trkpt><trkpt lat="49.1699966" lon="5.4306773"><ele>254.0</ele><time>2026-03-22T15:30:56.113Z</time></trkpt><trkpt lat="49.1700359" lon="5.4307804"><ele>254.00000000000003</ele><time>2026-03-22T15:30:57.113Z</time></trkpt><trkpt lat="49.1700812" lon="5.4308841"><ele>254.0</ele><time>2026-03-22T15:30:58.113Z</time></trkpt><trkpt lat="49.1701261" lon="5.4309883"><ele>254.0</ele><time>2026-03-22T15:30:59.113Z</time></trkpt><trkpt lat="49.1701689" lon="5.4310975"><ele>254.0</ele><time>2026-03-22T15:31:00.114Z</time></trkpt><trkpt lat="49.1702108" lon="5.4312096"><ele>254.00000000000003</ele><time>2026-03-22T15:31:01.113Z</time></trkpt><trkpt lat="49.1702556" lon="5.4313221"><ele>254.0</ele><time>2026-03-22T15:31:02.113Z</time></trkpt><trkpt lat="49.1703008" lon="5.4314342"><ele>253.33333333333334</ele><time>2026-03-22T15:31:03.113Z</time></trkpt><trkpt lat="49.1703423" lon="5.431546"><ele>252.66666666666669</ele><time>2026-03-22T15:31:04.113Z</time></trkpt><trkpt lat="49.170383" lon="5.4316579"><ele>252.0</ele><time>2026-03-22T15:31:05.113Z</time></trkpt><trkpt lat="49.1704243" lon="5.4317681"><ele>251.33333333333331</ele><time>2026-03-22T15:31:06.113Z</time></trkpt><trkpt lat="49.1704655" lon="5.4318798"><ele>250.66666666666666</ele><time>2026-03-22T15:31:07.113Z</time></trkpt><trkpt lat="49.1705067" lon="5.4319915"><ele>250.0</ele><time>2026-03-22T15:31:08.113Z</time></trkpt><trkpt lat="49.1705496" lon="5.4321017"><ele>249.33333333333331</ele><time>2026-03-22T15:31:09.113Z</time></trkpt><trkpt lat="49.1705918" lon="5.4322108"><ele>248.66666666666666</ele><time>2026-03-22T15:31:10.113Z</time></trkpt><trkpt lat="49.170633" lon="5.4323203"><ele>248.0</ele><time>2026-03-22T15:31:11.113Z</time></trkpt><trkpt lat="49.170674" lon="5.4324292"><ele>247.33333333333331</ele><time>2026-03-22T15:31:12.113Z</time></trkpt><trkpt lat="49.1707173" lon="5.4325425"><ele>246.66666666666666</ele><time>2026-03-22T15:31:13.113Z</time></trkpt><trkpt lat="49.1707609" lon="5.4326566"><ele>246.0</ele><time>2026-03-22T15:31:14.113Z</time></trkpt><trkpt lat="49.1708038" lon="5.4327714"><ele>247.16666666666666</ele><time>2026-03-22T15:31:15.114Z</time></trkpt><trkpt lat="49.1708483" lon="5.4328844"><ele>248.33333333333331</ele><time>2026-03-22T15:31:16.113Z</time></trkpt><trkpt lat="49.1708879" lon="5.4329863"><ele>249.5</ele><time>2026-03-22T15:31:17.114Z</time></trkpt><trkpt lat="49.1709195" lon="5.4330715"><ele>250.66666666666666</ele><time>2026-03-22T15:31:18.113Z</time></trkpt><trkpt lat="49.1709727" lon="5.4332081"><ele>251.83333333333331</ele><time>2026-03-22T15:31:20.113Z</time></trkpt><trkpt lat="49.171028" lon="5.4333458"><ele>253.0</ele><time>2026-03-22T15:31:22.113Z</time></trkpt><trkpt lat="49.1710831" lon="5.4335106"><ele>253.00000000000003</ele><time>2026-03-22T15:31:24.113Z</time></trkpt><trkpt lat="49.1711163" lon="5.4336019"><ele>253.0</ele><time>2026-03-22T15:31:25.113Z</time></trkpt><trkpt lat="49.1711503" lon="5.4336879"><ele>253.00000000000003</ele><time>2026-03-22T15:31:26.113Z</time></trkpt><trkpt lat="49.1711839" lon="5.4337713"><ele>253.00000000000003</ele><time>2026-03-22T15:31:27.113Z</time></trkpt><trkpt lat="49.171219" lon="5.433863"><ele>253.0</ele><time>2026-03-22T15:31:28.113Z</time></trkpt><trkpt lat="49.1712546" lon="5.4339512"><ele>253.00000000000003</ele><time>2026-03-22T15:31:29.113Z</time></trkpt><trkpt lat="49.1712895" lon="5.4340427"><ele>253.00000000000003</ele><time>2026-03-22T15:31:30.113Z</time></trkpt><trkpt lat="49.1713298" lon="5.4341361"><ele>252.2</ele><time>2026-03-22T15:31:31.113Z</time></trkpt><trkpt lat="49.171365" lon="5.4342229"><ele>251.4</ele><time>2026-03-22T15:31:32.114Z</time></trkpt><trkpt lat="49.1714281" lon="5.4343754"><ele>250.59999999999997</ele><time>2026-03-22T15:31:34.113Z</time></trkpt><trkpt lat="49.1714929" lon="5.434528"><ele>249.79999999999998</ele><time>2026-03-22T15:31:36.113Z</time></trkpt><trkpt lat="49.1715622" lon="5.4346913"><ele>249.0</ele><time>2026-03-22T15:31:38.113Z</time></trkpt><trkpt lat="49.171596" lon="5.4347814"><ele>251.25</ele><time>2026-03-22T15:31:39.113Z</time></trkpt><trkpt lat="49.1716538" lon="5.4349326"><ele>253.5</ele><time>2026-03-22T15:31:41.114Z</time></trkpt><trkpt lat="49.1717091" lon="5.4350728"><ele>255.75</ele><time>2026-03-22T15:31:43.113Z</time></trkpt><trkpt lat="49.1717647" lon="5.4352159"><ele>258.0</ele><time>2026-03-22T15:31:45.113Z</time></trkpt><trkpt lat="49.171827" lon="5.4353931"><ele>257.1666666666667</ele><time>2026-03-22T15:31:47.113Z</time></trkpt><trkpt lat="49.1718655" lon="5.4354935"><ele>256.3333333333333</ele><time>2026-03-22T15:31:48.113Z</time></trkpt><trkpt lat="49.1719147" lon="5.4355971"><ele>255.5</ele><time>2026-03-22T15:31:49.113Z</time></trkpt><trkpt lat="49.1719682" lon="5.4356991"><ele>254.66666666666666</ele><time>2026-03-22T15:31:50.113Z</time></trkpt><trkpt lat="49.1720187" lon="5.4357994"><ele>253.83333333333331</ele><time>2026-03-22T15:31:51.113Z</time></trkpt><trkpt lat="49.172066" lon="5.4358944"><ele>253.0</ele><time>2026-03-22T15:31:52.113Z</time></trkpt><trkpt lat="49.1721122" lon="5.4359822"><ele>252.99999999999997</ele><time>2026-03-22T15:31:53.113Z</time></trkpt><trkpt lat="49.1721536" lon="5.4360609"><ele>253.0</ele><time>2026-03-22T15:31:54.113Z</time></trkpt><trkpt lat="49.1722029" lon="5.4361615"><ele>253.0</ele><time>2026-03-22T15:31:56.114Z</time></trkpt><trkpt lat="49.1722526" lon="5.4362464"><ele>253.0</ele><time>2026-03-22T15:32:36.113Z</time></trkpt><trkpt lat="49.1723042" lon="5.4363256"><ele>252.99999999999997</ele><time>2026-03-22T15:32:38.113Z</time></trkpt><trkpt lat="49.1723961" lon="5.4364619"><ele>253.0</ele><time>2026-03-22T15:32:40.113Z</time></trkpt><trkpt lat="49.1724504" lon="5.4365475"><ele>253.16666666666666</ele><time>2026-03-22T15:32:41.113Z</time></trkpt><trkpt lat="49.1725071" lon="5.436644"><ele>253.33333333333331</ele><time>2026-03-22T15:32:42.113Z</time></trkpt><trkpt lat="49.1725673" lon="5.4367427"><ele>253.5</ele><time>2026-03-22T15:32:43.113Z</time></trkpt><trkpt lat="49.172625" lon="5.4368452"><ele>253.66666666666669</ele><time>2026-03-22T15:32:44.113Z</time></trkpt><trkpt lat="49.1726787" lon="5.4369534"><ele>253.83333333333334</ele><time>2026-03-22T15:32:45.114Z</time></trkpt><trkpt lat="49.1727262" lon="5.4370708"><ele>254.0</ele><time>2026-03-22T15:32:46.113Z</time></trkpt><trkpt lat="49.1727731" lon="5.4371932"><ele>254.00000000000003</ele><time>2026-03-22T15:32:47.113Z</time></trkpt><trkpt lat="49.1728225" lon="5.4373153"><ele>254.0</ele><time>2026-03-22T15:32:48.113Z</time></trkpt><trkpt lat="49.1728732" lon="5.4374371"><ele>254.0</ele><time>2026-03-22T15:32:49.113Z</time></trkpt><trkpt lat="49.1729217" lon="5.4375568"><ele>254.0</ele><time>2026-03-22T15:32:50.113Z</time></trkpt><trkpt lat="49.1729646" lon="5.4376656"><ele>254.00000000000003</ele><time>2026-03-22T15:32:51.113Z</time></trkpt><trkpt lat="49.1730003" lon="5.4377608"><ele>254.0</ele><time>2026-03-22T15:32:52.113Z</time></trkpt><trkpt lat="49.1730599" lon="5.43791"><ele>253.66666666666669</ele><time>2026-03-22T15:32:54.113Z</time></trkpt><trkpt lat="49.1731013" lon="5.4379898"><ele>253.33333333333334</ele><time>2026-03-22T15:32:56.113Z</time></trkpt><trkpt lat="49.1731421" lon="5.4380654"><ele>253.0</ele><time>2026-03-22T15:32:59.113Z</time></trkpt><trkpt lat="49.173202" lon="5.4381703"><ele>252.66666666666669</ele><time>2026-03-22T15:33:04.113Z</time></trkpt><trkpt lat="49.1732828" lon="5.4382329"><ele>252.33333333333334</ele><time>2026-03-22T15:33:06.114Z</time></trkpt><trkpt lat="49.1733875" lon="5.4382546"><ele>252.0</ele><time>2026-03-22T15:33:08.113Z</time></trkpt><trkpt lat="49.1735266" lon="5.43827"><ele>252.83333333333334</ele><time>2026-03-22T15:33:10.113Z</time></trkpt><trkpt lat="49.1736002" lon="5.4383103"><ele>253.66666666666669</ele><time>2026-03-22T15:33:11.113Z</time></trkpt><trkpt lat="49.1736766" lon="5.4383579"><ele>254.5</ele><time>2026-03-22T15:33:12.113Z</time></trkpt><trkpt lat="49.173753" lon="5.4383999"><ele>255.33333333333334</ele><time>2026-03-22T15:33:13.113Z</time></trkpt><trkpt lat="49.1738226" lon="5.4384492"><ele>256.1666666666667</ele><time>2026-03-22T15:33:14.114Z</time></trkpt><trkpt lat="49.1738968" lon="5.4385218"><ele>257.0</ele><time>2026-03-22T15:33:15.113Z</time></trkpt><trkpt lat="49.1739669" lon="5.4385994"><ele>256.6</ele><time>2026-03-22T15:33:16.114Z</time></trkpt><trkpt lat="49.1740644" lon="5.4387026"><ele>256.2</ele><time>2026-03-22T15:33:17.113Z</time></trkpt><trkpt lat="49.1741317" lon="5.4387935"><ele>255.8</ele><time>2026-03-22T15:33:18.113Z</time></trkpt><trkpt lat="49.1741867" lon="5.4388938"><ele>255.4</ele><time>2026-03-22T15:33:19.113Z</time></trkpt><trkpt lat="49.1742655" lon="5.4390647"><ele>255.0</ele><time>2026-03-22T15:33:20.114Z</time></trkpt><trkpt lat="49.1743188" lon="5.4391931"><ele>255.0</ele><time>2026-03-22T15:33:21.113Z</time></trkpt><trkpt lat="49.1743728" lon="5.4393197"><ele>255.0</ele><time>2026-03-22T15:33:22.114Z</time></trkpt><trkpt lat="49.1744348" lon="5.4394308"><ele>255.0</ele><time>2026-03-22T15:33:23.113Z</time></trkpt><trkpt lat="49.1744991" lon="5.4395346"><ele>255.0</ele><time>2026-03-22T15:33:24.113Z</time></trkpt><trkpt lat="49.1745533" lon="5.4396396"><ele>255.0</ele><time>2026-03-22T15:33:25.114Z</time></trkpt><trkpt lat="49.1746029" lon="5.4397354"><ele>255.0</ele><time>2026-03-22T15:33:26.114Z</time></trkpt><trkpt lat="49.1746467" lon="5.4398159"><ele>255.0</ele><time>2026-03-22T15:33:27.113Z</time></trkpt><trkpt lat="49.1747011" lon="5.4399313"><ele>255.0</ele><time>2026-03-22T15:33:29.114Z</time></trkpt><trkpt lat="49.1747247" lon="5.4400265"><ele>255.0</ele><time>2026-03-22T15:33:36.113Z</time></trkpt><trkpt lat="49.1747531" lon="5.4401223"><ele>255.0</ele><time>2026-03-22T15:33:38.113Z</time></trkpt><trkpt lat="49.1747993" lon="5.4403143"><ele>255.0</ele><time>2026-03-22T15:33:40.113Z</time></trkpt><trkpt lat="49.1748319" lon="5.44043"><ele>257.4</ele><time>2026-03-22T15:33:41.113Z</time></trkpt><trkpt lat="49.174889" lon="5.4405434"><ele>259.8</ele><time>2026-03-22T15:33:42.114Z</time></trkpt><trkpt lat="49.1749468" lon="5.4406505"><ele>262.2</ele><time>2026-03-22T15:33:43.113Z</time></trkpt><trkpt lat="49.1750475" lon="5.4407238"><ele>264.6</ele><time>2026-03-22T15:33:44.113Z</time></trkpt><trkpt lat="49.1751381" lon="5.4407964"><ele>267.0</ele><time>2026-03-22T15:33:45.113Z</time></trkpt><trkpt lat="49.1752367" lon="5.4408928"><ele>267.0</ele><time>2026-03-22T15:33:46.113Z</time></trkpt><trkpt lat="49.1753024" lon="5.4409821"><ele>267.0</ele><time>2026-03-22T15:33:47.113Z</time></trkpt><trkpt lat="49.1753583" lon="5.4410743"><ele>267.0</ele><time>2026-03-22T15:33:48.113Z</time></trkpt><trkpt lat="49.1754596" lon="5.4412087"><ele>267.0</ele><time>2026-03-22T15:33:49.113Z</time></trkpt><trkpt lat="49.1755279" lon="5.4413176"><ele>267.0</ele><time>2026-03-22T15:33:50.113Z</time></trkpt><trkpt lat="49.1755886" lon="5.4414382"><ele>268.0</ele><time>2026-03-22T15:33:51.113Z</time></trkpt><trkpt lat="49.1756623" lon="5.4415533"><ele>269.0</ele><time>2026-03-22T15:33:52.113Z</time></trkpt><trkpt lat="49.1757308" lon="5.441673"><ele>270.0</ele><time>2026-03-22T15:33:53.114Z</time></trkpt><trkpt lat="49.1757936" lon="5.4417913"><ele>271.0</ele><time>2026-03-22T15:33:54.113Z</time></trkpt><trkpt lat="49.1758518" lon="5.4419248"><ele>272.0</ele><time>2026-03-22T15:33:55.113Z</time></trkpt><trkpt lat="49.1759062" lon="5.4420719"><ele>272.75</ele><time>2026-03-22T15:33:56.113Z</time></trkpt><trkpt lat="49.1759563" lon="5.4422174"><ele>273.5</ele><time>2026-03-22T15:33:57.113Z</time></trkpt><trkpt lat="49.1760062" lon="5.4423778"><ele>274.25</ele><time>2026-03-22T15:33:58.113Z</time></trkpt><trkpt lat="49.1760549" lon="5.4425383"><ele>275.0</ele><time>2026-03-22T15:33:59.113Z</time></trkpt><trkpt lat="49.1760967" lon="5.4427043"><ele>275.0</ele><time>2026-03-22T15:34:00.113Z</time></trkpt><trkpt lat="49.1761403" lon="5.4428671"><ele>275.0</ele><time>2026-03-22T15:34:01.113Z</time></trkpt><trkpt lat="49.1761888" lon="5.4430263"><ele>275.0</ele><time>2026-03-22T15:34:02.114Z</time></trkpt><trkpt lat="49.1762341" lon="5.4431747"><ele>275.0</ele><time>2026-03-22T15:34:03.113Z</time></trkpt><trkpt lat="49.1762802" lon="5.4433258"><ele>275.0</ele><time>2026-03-22T15:34:04.113Z</time></trkpt><trkpt lat="49.1763364" lon="5.443487"><ele>275.75</ele><time>2026-03-22T15:34:05.114Z</time></trkpt><trkpt lat="49.1763846" lon="5.443661"><ele>276.5</ele><time>2026-03-22T15:34:06.113Z</time></trkpt><trkpt lat="49.1764302" lon="5.4438286"><ele>277.25</ele><time>2026-03-22T15:34:07.113Z</time></trkpt><trkpt lat="49.1764807" lon="5.4439902"><ele>278.0</ele><time>2026-03-22T15:34:08.113Z</time></trkpt><trkpt lat="49.1765216" lon="5.4441479"><ele>278.25</ele><time>2026-03-22T15:34:09.113Z</time></trkpt><trkpt lat="49.1765748" lon="5.4443074"><ele>278.5</ele><time>2026-03-22T15:34:10.113Z</time></trkpt><trkpt lat="49.1766183" lon="5.4444682"><ele>278.75</ele><time>2026-03-22T15:34:11.113Z</time></trkpt><trkpt lat="49.1766699" lon="5.4446153"><ele>279.0</ele><time>2026-03-22T15:34:12.113Z</time></trkpt><trkpt lat="49.176727" lon="5.4447738"><ele>279.59999999999997</ele><time>2026-03-22T15:34:13.113Z</time></trkpt><trkpt lat="49.1767769" lon="5.4449296"><ele>280.2</ele><time>2026-03-22T15:34:14.113Z</time></trkpt><trkpt lat="49.1768255" lon="5.4450808"><ele>280.79999999999995</ele><time>2026-03-22T15:34:15.113Z</time></trkpt><trkpt lat="49.176873" lon="5.4452354"><ele>281.4</ele><time>2026-03-22T15:34:16.114Z</time></trkpt><trkpt lat="49.1769157" lon="5.4453894"><ele>282.0</ele><time>2026-03-22T15:34:17.113Z</time></trkpt><trkpt lat="49.1769808" lon="5.4455626"><ele>283.25</ele><time>2026-03-22T15:34:18.113Z</time></trkpt><trkpt lat="49.177036" lon="5.445723"><ele>284.5</ele><time>2026-03-22T15:34:19.113Z</time></trkpt><trkpt lat="49.1770913" lon="5.4458853"><ele>285.75</ele><time>2026-03-22T15:34:20.114Z</time></trkpt><trkpt lat="49.1771443" lon="5.4460466"><ele>287.0</ele><time>2026-03-22T15:34:21.113Z</time></trkpt><trkpt lat="49.1771922" lon="5.4461988"><ele>287.0</ele><time>2026-03-22T15:34:22.113Z</time></trkpt><trkpt lat="49.1772389" lon="5.4463561"><ele>287.0</ele><time>2026-03-22T15:34:23.113Z</time></trkpt><trkpt lat="49.1772826" lon="5.4465281"><ele>287.0</ele><time>2026-03-22T15:34:24.113Z</time></trkpt><trkpt lat="49.1773279" lon="5.4467001"><ele>287.0</ele><time>2026-03-22T15:34:25.114Z</time></trkpt><trkpt lat="49.1773802" lon="5.4468711"><ele>287.0</ele><time>2026-03-22T15:34:26.113Z</time></trkpt><trkpt lat="49.1774307" lon="5.4470344"><ele>287.0</ele><time>2026-03-22T15:34:27.113Z</time></trkpt><trkpt lat="49.1774826" lon="5.4471787"><ele>287.0</ele><time>2026-03-22T15:34:28.113Z</time></trkpt><trkpt lat="49.1775364" lon="5.4473375"><ele>287.0</ele><time>2026-03-22T15:34:29.113Z</time></trkpt><trkpt lat="49.1775943" lon="5.4474898"><ele>287.5</ele><time>2026-03-22T15:34:30.113Z</time></trkpt><trkpt lat="49.1776422" lon="5.4476429"><ele>288.0</ele><time>2026-03-22T15:34:31.114Z</time></trkpt><trkpt lat="49.1776916" lon="5.447803"><ele>288.5</ele><time>2026-03-22T15:34:32.113Z</time></trkpt><trkpt lat="49.1777473" lon="5.4479511"><ele>289.0</ele><time>2026-03-22T15:34:33.114Z</time></trkpt><trkpt lat="49.1777989" lon="5.4481132"><ele>290.2</ele><time>2026-03-22T15:34:34.113Z</time></trkpt><trkpt lat="49.1778595" lon="5.4482541"><ele>291.4</ele><time>2026-03-22T15:34:35.114Z</time></trkpt><trkpt lat="49.1779016" lon="5.4483814"><ele>292.6</ele><time>2026-03-22T15:34:36.113Z</time></trkpt><trkpt lat="49.1779455" lon="5.4485157"><ele>293.8</ele><time>2026-03-22T15:34:37.113Z</time></trkpt><trkpt lat="49.1779897" lon="5.4486655"><ele>295.0</ele><time>2026-03-22T15:34:38.113Z</time></trkpt><trkpt lat="49.1780258" lon="5.4488075"><ele>294.4</ele><time>2026-03-22T15:34:39.113Z</time></trkpt><trkpt lat="49.1780658" lon="5.4489507"><ele>293.8</ele><time>2026-03-22T15:34:40.113Z</time></trkpt><trkpt lat="49.1781048" lon="5.4490839"><ele>293.2</ele><time>2026-03-22T15:34:41.113Z</time></trkpt><trkpt lat="49.1781448" lon="5.4492087"><ele>292.6</ele><time>2026-03-22T15:34:42.113Z</time></trkpt><trkpt lat="49.1781867" lon="5.4493282"><ele>292.0</ele><time>2026-03-22T15:34:43.113Z</time></trkpt><trkpt lat="49.1782403" lon="5.4494684"><ele>292.0</ele><time>2026-03-22T15:34:45.113Z</time></trkpt><trkpt lat="49.1782487" lon="5.4495815"><ele>292.0</ele><time>2026-03-22T15:34:48.113Z</time></trkpt><trkpt lat="49.1782255" lon="5.4494547"><ele>292.0</ele><time>2026-03-22T15:35:00.113Z</time></trkpt><trkpt lat="49.1782145" lon="5.4493329"><ele>292.0</ele><time>2026-03-22T15:35:02.113Z</time></trkpt><trkpt lat="49.1782512" lon="5.4492331"><ele>292.0</ele><time>2026-03-22T15:35:04.113Z</time></trkpt><trkpt lat="49.1783151" lon="5.4492713"><ele>292.0</ele><time>2026-03-22T15:35:12.113Z</time></trkpt><trkpt lat="49.1783609" lon="5.4493398"><ele>292.0</ele><time>2026-03-22T15:36:32.133Z</time></trkpt><trkpt lat="49.1784076" lon="5.4494494"><ele>292.0</ele><time>2026-03-22T15:36:35.133Z</time></trkpt><trkpt lat="49.178452" lon="5.4495511"><ele>292.0</ele><time>2026-03-22T15:36:37.133Z</time></trkpt><trkpt lat="49.1785007" lon="5.4496617"><ele>292.0</ele><time>2026-03-22T15:36:39.133Z</time></trkpt><trkpt lat="49.1785497" lon="5.4497764"><ele>292.0</ele><time>2026-03-22T15:36:41.133Z</time></trkpt><trkpt lat="49.1786076" lon="5.4498934"><ele>292.0</ele><time>2026-03-22T15:36:43.134Z</time></trkpt><trkpt lat="49.1786668" lon="5.4500207"><ele>293.5</ele><time>2026-03-22T15:36:45.132Z</time></trkpt><trkpt lat="49.1787309" lon="5.4501525"><ele>295.0</ele><time>2026-03-22T15:36:47.132Z</time></trkpt><trkpt lat="49.1788038" lon="5.450293"><ele>296.5</ele><time>2026-03-22T15:36:49.132Z</time></trkpt><trkpt lat="49.1788751" lon="5.4504298"><ele>298.0</ele><time>2026-03-22T15:36:51.132Z</time></trkpt><trkpt lat="49.1789526" lon="5.4505691"><ele>297.8333333333333</ele><time>2026-03-22T15:36:53.133Z</time></trkpt><trkpt lat="49.1790301" lon="5.4507087"><ele>297.66666666666663</ele><time>2026-03-22T15:36:55.133Z</time></trkpt><trkpt lat="49.1790659" lon="5.4507932"><ele>297.5</ele><time>2026-03-22T15:36:56.134Z</time></trkpt><trkpt lat="49.1791139" lon="5.4508566"><ele>297.3333333333333</ele><time>2026-03-22T15:36:57.134Z</time></trkpt><trkpt lat="49.1791555" lon="5.4509295"><ele>297.1666666666667</ele><time>2026-03-22T15:36:58.133Z</time></trkpt><trkpt lat="49.1792007" lon="5.4510093"><ele>297.0</ele><time>2026-03-22T15:36:59.133Z</time></trkpt><trkpt lat="49.1792489" lon="5.4510847"><ele>297.0</ele><time>2026-03-22T15:37:00.134Z</time></trkpt><trkpt lat="49.179293" lon="5.4511561"><ele>297.0</ele><time>2026-03-22T15:37:01.134Z</time></trkpt><trkpt lat="49.1793473" lon="5.4512345"><ele>297.0</ele><time>2026-03-22T15:37:02.134Z</time></trkpt><trkpt lat="49.1794004" lon="5.4513169"><ele>297.0</ele><time>2026-03-22T15:37:03.133Z</time></trkpt><trkpt lat="49.179454" lon="5.4513967"><ele>297.0</ele><time>2026-03-22T15:37:04.134Z</time></trkpt><trkpt lat="49.1795091" lon="5.451483"><ele>297.0</ele><time>2026-03-22T15:37:05.133Z</time></trkpt><trkpt lat="49.1795669" lon="5.4515622"><ele>297.0</ele><time>2026-03-22T15:37:06.134Z</time></trkpt><trkpt lat="49.1796213" lon="5.4516464"><ele>298.3333333333333</ele><time>2026-03-22T15:37:07.134Z</time></trkpt><trkpt lat="49.1796807" lon="5.4517331"><ele>299.6666666666667</ele><time>2026-03-22T15:37:08.134Z</time></trkpt><trkpt lat="49.1797389" lon="5.4518276"><ele>301.0</ele><time>2026-03-22T15:37:09.134Z</time></trkpt><trkpt lat="49.1798042" lon="5.4519213"><ele>302.33333333333337</ele><time>2026-03-22T15:37:10.134Z</time></trkpt><trkpt lat="49.179874" lon="5.452025"><ele>303.6666666666667</ele><time>2026-03-22T15:37:11.133Z</time></trkpt><trkpt lat="49.1799428" lon="5.45212"><ele>305.0</ele><time>2026-03-22T15:37:12.134Z</time></trkpt><trkpt lat="49.180006" lon="5.4522156"><ele>305.6666666666667</ele><time>2026-03-22T15:37:13.133Z</time></trkpt><trkpt lat="49.1800628" lon="5.4523097"><ele>306.33333333333337</ele><time>2026-03-22T15:37:14.132Z</time></trkpt><trkpt lat="49.180126" lon="5.4524003"><ele>307.0</ele><time>2026-03-22T15:37:15.133Z</time></trkpt><trkpt lat="49.1801799" lon="5.4524909"><ele>307.6666666666667</ele><time>2026-03-22T15:37:16.135Z</time></trkpt><trkpt lat="49.1802313" lon="5.4525817"><ele>308.3333333333333</ele><time>2026-03-22T15:37:17.132Z</time></trkpt><trkpt lat="49.1802755" lon="5.4526646"><ele>309.0</ele><time>2026-03-22T15:37:18.133Z</time></trkpt><trkpt lat="49.1803205" lon="5.4527469"><ele>309.0</ele><time>2026-03-22T15:37:19.133Z</time></trkpt><trkpt lat="49.1804051" lon="5.452887"><ele>309.0</ele><time>2026-03-22T15:37:21.133Z</time></trkpt><trkpt lat="49.1804745" lon="5.4530169"><ele>309.0</ele><time>2026-03-22T15:37:23.133Z</time></trkpt><trkpt lat="49.1805471" lon="5.453138"><ele>309.0</ele><time>2026-03-22T15:37:25.134Z</time></trkpt><trkpt lat="49.1876112" lon="5.4654248"><ele>310.0</ele><time>2026-03-22T15:39:26.133Z</time></trkpt><trkpt lat="49.1876369" lon="5.4655544"><ele>311.0</ele><time>2026-03-22T15:39:27.133Z</time></trkpt><trkpt lat="49.1876446" lon="5.4656617"><ele>312.0</ele><time>2026-03-22T15:39:28.134Z</time></trkpt><trkpt lat="49.1876608" lon="5.4658269"><ele>313.0</ele><time>2026-03-22T15:39:30.133Z</time></trkpt><trkpt lat="49.18767" lon="5.4659514"><ele>314.0</ele><time>2026-03-22T15:42:50.133Z</time></trkpt><trkpt lat="49.1876855" lon="5.4661124"><ele>313.99999999999994</ele><time>2026-03-22T15:42:53.133Z</time></trkpt><trkpt lat="49.1876877" lon="5.4662119"><ele>314.0</ele><time>2026-03-22T15:42:54.133Z</time></trkpt><trkpt lat="49.1876941" lon="5.466314"><ele>314.0</ele><time>2026-03-22T15:42:55.133Z</time></trkpt><trkpt lat="49.1876961" lon="5.4664254"><ele>314.0</ele><time>2026-03-22T15:42:56.133Z</time></trkpt><trkpt lat="49.1876976" lon="5.4665394"><ele>314.0</ele><time>2026-03-22T15:42:57.133Z</time></trkpt><trkpt lat="49.1876967" lon="5.4666555"><ele>313.99999999999994</ele><time>2026-03-22T15:42:58.133Z</time></trkpt><trkpt lat="49.1876964" lon="5.4667764"><ele>314.0</ele><time>2026-03-22T15:42:59.133Z</time></trkpt><trkpt lat="49.1876929" lon="5.4669017"><ele>313.5</ele><time>2026-03-22T15:43:00.132Z</time></trkpt><trkpt lat="49.1876949" lon="5.4670301"><ele>313.0</ele><time>2026-03-22T15:43:01.132Z</time></trkpt><trkpt lat="49.1877" lon="5.4671411"><ele>312.5</ele><time>2026-03-22T15:43:02.113Z</time></trkpt><trkpt lat="49.1876934" lon="5.4673068"><ele>312.0</ele><time>2026-03-22T15:43:04.111Z</time></trkpt><trkpt lat="49.1876855" lon="5.467411"><ele>311.5</ele><time>2026-03-22T15:43:08.111Z</time></trkpt><trkpt lat="49.1876773" lon="5.4675734"><ele>311.0</ele><time>2026-03-22T15:43:12.11Z</time></trkpt><trkpt lat="49.1876652" lon="5.467771"><ele>310.6</ele><time>2026-03-22T15:43:14.11Z</time></trkpt><trkpt lat="49.1876568" lon="5.4678848"><ele>310.20000000000005</ele><time>2026-03-22T15:43:15.11Z</time></trkpt><trkpt lat="49.1876439" lon="5.4680091"><ele>309.79999999999995</ele><time>2026-03-22T15:43:16.11Z</time></trkpt><trkpt lat="49.1876244" lon="5.4681461"><ele>309.4</ele><time>2026-03-22T15:43:17.11Z</time></trkpt><trkpt lat="49.1875996" lon="5.4682936"><ele>309.0</ele><time>2026-03-22T15:43:18.111Z</time></trkpt><trkpt lat="49.1875745" lon="5.4684518"><ele>308.4</ele><time>2026-03-22T15:43:19.11Z</time></trkpt><trkpt lat="49.1875477" lon="5.468608"><ele>307.79999999999995</ele><time>2026-03-22T15:43:20.11Z</time></trkpt><trkpt lat="49.1875191" lon="5.468761"><ele>307.20000000000005</ele><time>2026-03-22T15:43:21.111Z</time></trkpt><trkpt lat="49.1874886" lon="5.4689101"><ele>306.6</ele><time>2026-03-22T15:43:22.11Z</time></trkpt><trkpt lat="49.1874527" lon="5.4690579"><ele>306.0</ele><time>2026-03-22T15:43:23.11Z</time></trkpt><trkpt lat="49.1874129" lon="5.469208"><ele>306.8</ele><time>2026-03-22T15:43:24.11Z</time></trkpt><trkpt lat="49.1873694" lon="5.4693605"><ele>307.6</ele><time>2026-03-22T15:43:25.11Z</time></trkpt><trkpt lat="49.1873226" lon="5.4695112"><ele>308.4</ele><time>2026-03-22T15:43:26.11Z</time></trkpt><trkpt lat="49.1872706" lon="5.4696607"><ele>309.2</ele><time>2026-03-22T15:43:27.11Z</time></trkpt><trkpt lat="49.1872189" lon="5.4698072"><ele>310.0</ele><time>2026-03-22T15:43:28.11Z</time></trkpt><trkpt lat="49.1871632" lon="5.4699526"><ele>310.0</ele><time>2026-03-22T15:43:29.11Z</time></trkpt><trkpt lat="49.1871026" lon="5.4700984"><ele>310.0</ele><time>2026-03-22T15:43:30.11Z</time></trkpt><trkpt lat="49.1870391" lon="5.4702451"><ele>310.0</ele><time>2026-03-22T15:43:31.11Z</time></trkpt><trkpt lat="49.1869768" lon="5.4703946"><ele>310.0</ele><time>2026-03-22T15:43:32.11Z</time></trkpt><trkpt lat="49.186913" lon="5.4705413"><ele>307.6</ele><time>2026-03-22T15:43:33.11Z</time></trkpt><trkpt lat="49.186847" lon="5.4706775"><ele>305.2</ele><time>2026-03-22T15:43:34.111Z</time></trkpt><trkpt lat="49.1867831" lon="5.4708134"><ele>302.8</ele><time>2026-03-22T15:43:35.11Z</time></trkpt><trkpt lat="49.1867178" lon="5.4709452"><ele>300.4</ele><time>2026-03-22T15:43:36.11Z</time></trkpt><trkpt lat="49.1866554" lon="5.4710742"><ele>298.0</ele><time>2026-03-22T15:43:37.11Z</time></trkpt><trkpt lat="49.1865931" lon="5.4711985"><ele>298.8</ele><time>2026-03-22T15:43:38.11Z</time></trkpt><trkpt lat="49.1865292" lon="5.4713228"><ele>299.6</ele><time>2026-03-22T15:43:39.11Z</time></trkpt><trkpt lat="49.1864661" lon="5.4714453"><ele>300.4</ele><time>2026-03-22T15:43:40.11Z</time></trkpt><trkpt lat="49.1864005" lon="5.4715678"><ele>301.2</ele><time>2026-03-22T15:43:41.11Z</time></trkpt><trkpt lat="49.1863361" lon="5.4716883"><ele>302.0</ele><time>2026-03-22T15:43:42.111Z</time></trkpt><trkpt lat="49.1862727" lon="5.4718038"><ele>302.0</ele><time>2026-03-22T15:43:43.11Z</time></trkpt><trkpt lat="49.1862093" lon="5.4719155"><ele>302.0</ele><time>2026-03-22T15:43:44.11Z</time></trkpt><trkpt lat="49.1861452" lon="5.4720246"><ele>302.0</ele><time>2026-03-22T15:43:45.11Z</time></trkpt><trkpt lat="49.1860814" lon="5.4721322"><ele>302.0</ele><time>2026-03-22T15:43:46.11Z</time></trkpt><trkpt lat="49.186017" lon="5.4722374"><ele>302.0</ele><time>2026-03-22T15:43:47.11Z</time></trkpt><trkpt lat="49.1859529" lon="5.472341"><ele>299.8</ele><time>2026-03-22T15:43:48.11Z</time></trkpt><trkpt lat="49.1858882" lon="5.472448"><ele>297.6</ele><time>2026-03-22T15:43:49.11Z</time></trkpt><trkpt lat="49.1858236" lon="5.4725574"><ele>295.40000000000003</ele><time>2026-03-22T15:43:50.11Z</time></trkpt><trkpt lat="49.1857601" lon="5.4726678"><ele>293.2</ele><time>2026-03-22T15:43:51.11Z</time></trkpt><trkpt lat="49.1856962" lon="5.4727779"><ele>291.0</ele><time>2026-03-22T15:43:52.11Z</time></trkpt><trkpt lat="49.1856303" lon="5.4728953"><ele>294.40000000000003</ele><time>2026-03-22T15:43:53.11Z</time></trkpt><trkpt lat="49.1855658" lon="5.4730155"><ele>297.8</ele><time>2026-03-22T15:43:54.11Z</time></trkpt><trkpt lat="49.1855028" lon="5.4731377"><ele>301.20000000000005</ele><time>2026-03-22T15:43:55.11Z</time></trkpt><trkpt lat="49.1854423" lon="5.4732611"><ele>304.6</ele><time>2026-03-22T15:43:56.11Z</time></trkpt><trkpt lat="49.1853837" lon="5.4733856"><ele>308.0</ele><time>2026-03-22T15:43:57.11Z</time></trkpt><trkpt lat="49.1853258" lon="5.4735139"><ele>308.0</ele><time>2026-03-22T15:43:58.11Z</time></trkpt><trkpt lat="49.1852695" lon="5.4736465"><ele>308.0</ele><time>2026-03-22T15:43:59.11Z</time></trkpt><trkpt lat="49.1852148" lon="5.4737803"><ele>308.0</ele><time>2026-03-22T15:44:00.11Z</time></trkpt><trkpt lat="49.1851636" lon="5.4739142"><ele>308.0</ele><time>2026-03-22T15:44:01.11Z</time></trkpt><trkpt lat="49.1851129" lon="5.4740442"><ele>308.0</ele><time>2026-03-22T15:44:02.11Z</time></trkpt><trkpt lat="49.1850635" lon="5.4741748"><ele>305.6</ele><time>2026-03-22T15:44:03.11Z</time></trkpt><trkpt lat="49.1850134" lon="5.4743093"><ele>303.20000000000005</ele><time>2026-03-22T15:44:04.11Z</time></trkpt><trkpt lat="49.1849643" lon="5.4744485"><ele>300.8</ele><time>2026-03-22T15:44:05.11Z</time></trkpt><trkpt lat="49.1849194" lon="5.4745875"><ele>298.40000000000003</ele><time>2026-03-22T15:44:06.11Z</time></trkpt><trkpt lat="49.1848761" lon="5.4747272"><ele>296.0</ele><time>2026-03-22T15:44:07.11Z</time></trkpt><trkpt lat="49.1848353" lon="5.4748664"><ele>299.6</ele><time>2026-03-22T15:44:08.11Z</time></trkpt><trkpt lat="49.1847966" lon="5.4750043"><ele>303.20000000000005</ele><time>2026-03-22T15:44:09.11Z</time></trkpt><trkpt lat="49.1847597" lon="5.4751426"><ele>306.79999999999995</ele><time>2026-03-22T15:44:10.11Z</time></trkpt><trkpt lat="49.1847204" lon="5.475286"><ele>310.4</ele><time>2026-03-22T15:44:11.11Z</time></trkpt><trkpt lat="49.1846815" lon="5.4754305"><ele>314.0</ele><time>2026-03-22T15:44:12.11Z</time></trkpt><trkpt lat="49.1846454" lon="5.4755746"><ele>314.0</ele><time>2026-03-22T15:44:13.11Z</time></trkpt><trkpt lat="49.1846071" lon="5.4757175"><ele>314.0</ele><time>2026-03-22T15:44:14.11Z</time></trkpt><trkpt lat="49.1845691" lon="5.4758547"><ele>314.0</ele><time>2026-03-22T15:44:15.11Z</time></trkpt><trkpt lat="49.1845314" lon="5.4759897"><ele>314.0</ele><time>2026-03-22T15:44:16.11Z</time></trkpt><trkpt lat="49.1844968" lon="5.4761205"><ele>314.0</ele><time>2026-03-22T15:44:17.11Z</time></trkpt><trkpt lat="49.1844624" lon="5.4762494"><ele>312.0</ele><time>2026-03-22T15:44:18.11Z</time></trkpt><trkpt lat="49.1844289" lon="5.4763721"><ele>310.0</ele><time>2026-03-22T15:44:19.11Z</time></trkpt><trkpt lat="49.1843978" lon="5.4764928"><ele>308.0</ele><time>2026-03-22T15:44:20.11Z</time></trkpt><trkpt lat="49.1843662" lon="5.4766105"><ele>306.0</ele><time>2026-03-22T15:44:21.11Z</time></trkpt><trkpt lat="49.1843347" lon="5.4767257"><ele>304.0</ele><time>2026-03-22T15:44:22.11Z</time></trkpt><trkpt lat="49.1843051" lon="5.4768387"><ele>302.0</ele><time>2026-03-22T15:44:23.11Z</time></trkpt><trkpt lat="49.184275" lon="5.4769524"><ele>302.0</ele><time>2026-03-22T15:44:24.11Z</time></trkpt><trkpt lat="49.1842434" lon="5.4770707"><ele>302.0</ele><time>2026-03-22T15:44:25.11Z</time></trkpt><trkpt lat="49.1842134" lon="5.4771922"><ele>302.0</ele><time>2026-03-22T15:44:26.11Z</time></trkpt><trkpt lat="49.1841826" lon="5.4773158"><ele>302.0</ele><time>2026-03-22T15:44:27.11Z</time></trkpt><trkpt lat="49.1841472" lon="5.4774427"><ele>302.0</ele><time>2026-03-22T15:44:28.11Z</time></trkpt><trkpt lat="49.1841125" lon="5.4775693"><ele>302.0</ele><time>2026-03-22T15:44:29.11Z</time></trkpt><trkpt lat="49.1840779" lon="5.477693"><ele>303.5</ele><time>2026-03-22T15:44:30.11Z</time></trkpt><trkpt lat="49.1840454" lon="5.477816"><ele>305.0</ele><time>2026-03-22T15:44:31.11Z</time></trkpt><trkpt lat="49.1840116" lon="5.4779382"><ele>306.5</ele><time>2026-03-22T15:44:32.11Z</time></trkpt><trkpt lat="49.1839807" lon="5.4780575"><ele>308.0</ele><time>2026-03-22T15:44:33.11Z</time></trkpt><trkpt lat="49.1839484" lon="5.478174"><ele>309.5</ele><time>2026-03-22T15:44:34.11Z</time></trkpt><trkpt lat="49.1839179" lon="5.4782888"><ele>311.0</ele><time>2026-03-22T15:44:35.11Z</time></trkpt><trkpt lat="49.1838883" lon="5.4784006"><ele>311.0</ele><time>2026-03-22T15:44:36.11Z</time></trkpt><trkpt lat="49.1838604" lon="5.4785094"><ele>311.0</ele><time>2026-03-22T15:44:37.11Z</time></trkpt><trkpt lat="49.1838316" lon="5.4786168"><ele>311.0</ele><time>2026-03-22T15:44:38.11Z</time></trkpt><trkpt lat="49.1838023" lon="5.4787237"><ele>311.0</ele><time>2026-03-22T15:44:39.11Z</time></trkpt><trkpt lat="49.1837749" lon="5.4788334"><ele>311.0</ele><time>2026-03-22T15:44:40.11Z</time></trkpt><trkpt lat="49.1837449" lon="5.4789436"><ele>311.0</ele><time>2026-03-22T15:44:41.11Z</time></trkpt><trkpt lat="49.1837145" lon="5.4790563"><ele>309.0</ele><time>2026-03-22T15:44:42.11Z</time></trkpt><trkpt lat="49.1836848" lon="5.4791681"><ele>307.0</ele><time>2026-03-22T15:44:43.111Z</time></trkpt><trkpt lat="49.1836543" lon="5.4792813"><ele>305.0</ele><time>2026-03-22T15:44:44.11Z</time></trkpt><trkpt lat="49.1836245" lon="5.4793935"><ele>303.0</ele><time>2026-03-22T15:44:45.111Z</time></trkpt><trkpt lat="49.183594" lon="5.4795043"><ele>301.0</ele><time>2026-03-22T15:44:46.11Z</time></trkpt><trkpt lat="49.183564" lon="5.4796152"><ele>299.0</ele><time>2026-03-22T15:44:47.11Z</time></trkpt><trkpt lat="49.1835321" lon="5.4797263"><ele>298.0</ele><time>2026-03-22T15:44:48.11Z</time></trkpt><trkpt lat="49.1835026" lon="5.4798393"><ele>297.0</ele><time>2026-03-22T15:44:49.11Z</time></trkpt><trkpt lat="49.1834748" lon="5.4799531"><ele>296.0</ele><time>2026-03-22T15:44:50.111Z</time></trkpt><trkpt lat="49.1834469" lon="5.4800673"><ele>295.0</ele><time>2026-03-22T15:44:51.11Z</time></trkpt><trkpt lat="49.1834193" lon="5.4801831"><ele>294.0</ele><time>2026-03-22T15:44:52.11Z</time></trkpt><trkpt lat="49.1833912" lon="5.4802967"><ele>293.0</ele><time>2026-03-22T15:44:53.11Z</time></trkpt><trkpt lat="49.1833656" lon="5.4804135"><ele>291.2</ele><time>2026-03-22T15:44:54.11Z</time></trkpt><trkpt lat="49.1833422" lon="5.4805412"><ele>289.4</ele><time>2026-03-22T15:44:55.11Z</time></trkpt><trkpt lat="49.1833155" lon="5.4806819"><ele>287.59999999999997</ele><time>2026-03-22T15:44:56.11Z</time></trkpt><trkpt lat="49.1832869" lon="5.4808309"><ele>285.8</ele><time>2026-03-22T15:44:57.11Z</time></trkpt><trkpt lat="49.1832576" lon="5.4809892"><ele>284.0</ele><time>2026-03-22T15:44:58.111Z</time></trkpt><trkpt lat="49.1832313" lon="5.4811491"><ele>282.4</ele><time>2026-03-22T15:44:59.11Z</time></trkpt><trkpt lat="49.183207" lon="5.4813108"><ele>280.79999999999995</ele><time>2026-03-22T15:45:00.11Z</time></trkpt><trkpt lat="49.1831869" lon="5.4814709"><ele>279.20000000000005</ele><time>2026-03-22T15:45:01.11Z</time></trkpt><trkpt lat="49.183168" lon="5.4816355"><ele>277.6</ele><time>2026-03-22T15:45:02.11Z</time></trkpt><trkpt lat="49.1831522" lon="5.4818021"><ele>276.0</ele><time>2026-03-22T15:45:03.11Z</time></trkpt><trkpt lat="49.1831395" lon="5.4819715"><ele>283.8</ele><time>2026-03-22T15:45:04.11Z</time></trkpt><trkpt lat="49.1831283" lon="5.48214"><ele>291.6</ele><time>2026-03-22T15:45:05.111Z</time></trkpt><trkpt lat="49.1831187" lon="5.4823069"><ele>299.4</ele><time>2026-03-22T15:45:06.11Z</time></trkpt><trkpt lat="49.183108" lon="5.4824763"><ele>307.2</ele><time>2026-03-22T15:45:07.11Z</time></trkpt><trkpt lat="49.1831003" lon="5.4826456"><ele>315.0</ele><time>2026-03-22T15:45:08.11Z</time></trkpt><trkpt lat="49.1830966" lon="5.4828138"><ele>315.2</ele><time>2026-03-22T15:45:09.11Z</time></trkpt><trkpt lat="49.1830976" lon="5.482979"><ele>315.4</ele><time>2026-03-22T15:45:10.11Z</time></trkpt><trkpt lat="49.1830984" lon="5.4831435"><ele>315.6</ele><time>2026-03-22T15:45:11.11Z</time></trkpt><trkpt lat="49.1831011" lon="5.4833052"><ele>315.8</ele><time>2026-03-22T15:45:12.11Z</time></trkpt><trkpt lat="49.1831068" lon="5.4834666"><ele>316.0</ele><time>2026-03-22T15:45:13.11Z</time></trkpt><trkpt lat="49.183115" lon="5.4836257"><ele>316.0</ele><time>2026-03-22T15:45:14.11Z</time></trkpt><trkpt lat="49.1831234" lon="5.4837851"><ele>316.0</ele><time>2026-03-22T15:45:15.11Z</time></trkpt><trkpt lat="49.1831351" lon="5.4839432"><ele>316.0</ele><time>2026-03-22T15:45:16.11Z</time></trkpt><trkpt lat="49.1831479" lon="5.4841007"><ele>316.0</ele><time>2026-03-22T15:45:17.111Z</time></trkpt><trkpt lat="49.1831637" lon="5.4842613"><ele>316.0</ele><time>2026-03-22T15:45:18.11Z</time></trkpt><trkpt lat="49.1831808" lon="5.4844213"><ele>308.2</ele><time>2026-03-22T15:45:19.111Z</time></trkpt><trkpt lat="49.1832015" lon="5.4845791"><ele>300.40000000000003</ele><time>2026-03-22T15:45:20.11Z</time></trkpt><trkpt lat="49.1832249" lon="5.4847379"><ele>292.6</ele><time>2026-03-22T15:45:21.11Z</time></trkpt><trkpt lat="49.1832502" lon="5.4848974"><ele>284.8</ele><time>2026-03-22T15:45:22.11Z</time></trkpt><trkpt lat="49.1832758" lon="5.4850536"><ele>277.0</ele><time>2026-03-22T15:45:23.11Z</time></trkpt><trkpt lat="49.1833036" lon="5.4852086"><ele>277.0</ele><time>2026-03-22T15:45:24.11Z</time></trkpt><trkpt lat="49.1833318" lon="5.4853599"><ele>277.0</ele><time>2026-03-22T15:45:25.111Z</time></trkpt><trkpt lat="49.1833591" lon="5.485509"><ele>277.0</ele><time>2026-03-22T15:45:26.111Z</time></trkpt><trkpt lat="49.1833855" lon="5.4856518"><ele>277.0</ele><time>2026-03-22T15:45:27.111Z</time></trkpt><trkpt lat="49.1834127" lon="5.485792"><ele>277.0</ele><time>2026-03-22T15:45:28.11Z</time></trkpt><trkpt lat="49.183439" lon="5.4859301"><ele>277.2</ele><time>2026-03-22T15:45:29.11Z</time></trkpt><trkpt lat="49.1834652" lon="5.4860664"><ele>277.4</ele><time>2026-03-22T15:45:30.11Z</time></trkpt><trkpt lat="49.183494" lon="5.4862035"><ele>277.6</ele><time>2026-03-22T15:45:31.11Z</time></trkpt><trkpt lat="49.1835213" lon="5.4863439"><ele>277.8</ele><time>2026-03-22T15:45:32.11Z</time></trkpt><trkpt lat="49.1835474" lon="5.4864841"><ele>278.0</ele><time>2026-03-22T15:45:33.11Z</time></trkpt><trkpt lat="49.1835745" lon="5.4866261"><ele>279.2</ele><time>2026-03-22T15:45:34.11Z</time></trkpt><trkpt lat="49.1836028" lon="5.4867693"><ele>280.4</ele><time>2026-03-22T15:45:35.11Z</time></trkpt><trkpt lat="49.1836278" lon="5.4869084"><ele>281.59999999999997</ele><time>2026-03-22T15:45:36.11Z</time></trkpt><trkpt lat="49.183651" lon="5.4870437"><ele>282.8</ele><time>2026-03-22T15:45:37.11Z</time></trkpt><trkpt lat="49.1836726" lon="5.4871788"><ele>284.0</ele><time>2026-03-22T15:45:38.11Z</time></trkpt><trkpt lat="49.1836927" lon="5.4873111"><ele>284.4</ele><time>2026-03-22T15:45:39.111Z</time></trkpt><trkpt lat="49.1837127" lon="5.4874469"><ele>284.79999999999995</ele><time>2026-03-22T15:45:40.11Z</time></trkpt><trkpt lat="49.1837342" lon="5.4875839"><ele>285.20000000000005</ele><time>2026-03-22T15:45:41.11Z</time></trkpt><trkpt lat="49.1837542" lon="5.4877201"><ele>285.6</ele><time>2026-03-22T15:45:42.11Z</time></trkpt><trkpt lat="49.1837698" lon="5.4878618"><ele>286.0</ele><time>2026-03-22T15:45:43.11Z</time></trkpt><trkpt lat="49.1837842" lon="5.4879993"><ele>286.3333333333333</ele><time>2026-03-22T15:45:44.11Z</time></trkpt><trkpt lat="49.1837999" lon="5.4881366"><ele>286.66666666666663</ele><time>2026-03-22T15:45:45.11Z</time></trkpt><trkpt lat="49.183814" lon="5.4882702"><ele>287.0</ele><time>2026-03-22T15:45:46.11Z</time></trkpt><trkpt lat="49.1838256" lon="5.4884023"><ele>287.3333333333333</ele><time>2026-03-22T15:45:47.11Z</time></trkpt><trkpt lat="49.1838357" lon="5.4885331"><ele>287.6666666666667</ele><time>2026-03-22T15:45:48.111Z</time></trkpt><trkpt lat="49.1838448" lon="5.4886644"><ele>288.0</ele><time>2026-03-22T15:45:49.11Z</time></trkpt><trkpt lat="49.1838542" lon="5.4887945"><ele>288.3333333333333</ele><time>2026-03-22T15:45:50.111Z</time></trkpt><trkpt lat="49.1838622" lon="5.4889258"><ele>288.6666666666667</ele><time>2026-03-22T15:45:51.11Z</time></trkpt><trkpt lat="49.1838696" lon="5.4890575"><ele>289.0</ele><time>2026-03-22T15:45:52.11Z</time></trkpt><trkpt lat="49.1838769" lon="5.4891932"><ele>289.33333333333337</ele><time>2026-03-22T15:45:53.11Z</time></trkpt><trkpt lat="49.183883" lon="5.4893304"><ele>289.6666666666667</ele><time>2026-03-22T15:45:54.11Z</time></trkpt><trkpt lat="49.1838892" lon="5.4894685"><ele>290.0</ele><time>2026-03-22T15:45:55.11Z</time></trkpt><trkpt lat="49.1838981" lon="5.4896042"><ele>290.1666666666667</ele><time>2026-03-22T15:45:56.11Z</time></trkpt><trkpt lat="49.1839048" lon="5.4897389"><ele>290.33333333333337</ele><time>2026-03-22T15:45:57.11Z</time></trkpt><trkpt lat="49.1839113" lon="5.4898728"><ele>290.5</ele><time>2026-03-22T15:45:58.11Z</time></trkpt><trkpt lat="49.1839169" lon="5.4900067"><ele>290.6666666666667</ele><time>2026-03-22T15:45:59.11Z</time></trkpt><trkpt lat="49.1839213" lon="5.4901401"><ele>290.8333333333333</ele><time>2026-03-22T15:46:00.11Z</time></trkpt><trkpt lat="49.183928" lon="5.4902792"><ele>291.0</ele><time>2026-03-22T15:46:01.11Z</time></trkpt><trkpt lat="49.1839336" lon="5.4904172"><ele>290.8</ele><time>2026-03-22T15:46:02.11Z</time></trkpt><trkpt lat="49.1839401" lon="5.4905578"><ele>290.6</ele><time>2026-03-22T15:46:03.11Z</time></trkpt><trkpt lat="49.1839484" lon="5.4907021"><ele>290.4</ele><time>2026-03-22T15:46:04.11Z</time></trkpt><trkpt lat="49.1839553" lon="5.4908478"><ele>290.2</ele><time>2026-03-22T15:46:05.111Z</time></trkpt><trkpt lat="49.1839613" lon="5.4909972"><ele>290.0</ele><time>2026-03-22T15:46:06.11Z</time></trkpt><trkpt lat="49.183968" lon="5.4911443"><ele>289.83333333333337</ele><time>2026-03-22T15:46:07.11Z</time></trkpt><trkpt lat="49.1839727" lon="5.4912886"><ele>289.6666666666667</ele><time>2026-03-22T15:46:08.11Z</time></trkpt><trkpt lat="49.183977" lon="5.4914271"><ele>289.5</ele><time>2026-03-22T15:46:09.11Z</time></trkpt><trkpt lat="49.1839841" lon="5.4915596"><ele>289.3333333333333</ele><time>2026-03-22T15:46:10.11Z</time></trkpt><trkpt lat="49.1839895" lon="5.4916872"><ele>289.16666666666663</ele><time>2026-03-22T15:46:11.11Z</time></trkpt><trkpt lat="49.1839947" lon="5.4918097"><ele>289.0</ele><time>2026-03-22T15:46:12.11Z</time></trkpt><trkpt lat="49.183999" lon="5.491929"><ele>289.0</ele><time>2026-03-22T15:46:13.11Z</time></trkpt><trkpt lat="49.1840047" lon="5.4920471"><ele>289.0</ele><time>2026-03-22T15:46:14.11Z</time></trkpt><trkpt lat="49.184009" lon="5.492164"><ele>289.0</ele><time>2026-03-22T15:46:15.11Z</time></trkpt><trkpt lat="49.1840147" lon="5.4922811"><ele>289.0</ele><time>2026-03-22T15:46:16.11Z</time></trkpt><trkpt lat="49.1840194" lon="5.4924036"><ele>289.0</ele><time>2026-03-22T15:46:17.111Z</time></trkpt><trkpt lat="49.184026" lon="5.4925266"><ele>289.0</ele><time>2026-03-22T15:46:18.11Z</time></trkpt><trkpt lat="49.1840321" lon="5.4926507"><ele>284.5</ele><time>2026-03-22T15:46:19.11Z</time></trkpt><trkpt lat="49.1840391" lon="5.4927748"><ele>280.0</ele><time>2026-03-22T15:46:20.11Z</time></trkpt><trkpt lat="49.184048" lon="5.4928987"><ele>275.5</ele><time>2026-03-22T15:46:21.111Z</time></trkpt><trkpt lat="49.1840554" lon="5.4930174"><ele>271.0</ele><time>2026-03-22T15:46:22.11Z</time></trkpt><trkpt lat="49.1840616" lon="5.4931316"><ele>266.5</ele><time>2026-03-22T15:46:23.11Z</time></trkpt><trkpt lat="49.1840646" lon="5.4932363"><ele>262.0</ele><time>2026-03-22T15:46:24.111Z</time></trkpt><trkpt lat="49.1840581" lon="5.4934084"><ele>261.8333333333333</ele><time>2026-03-22T15:46:26.11Z</time></trkpt><trkpt lat="49.1840162" lon="5.4935001"><ele>261.66666666666663</ele><time>2026-03-22T15:46:28.11Z</time></trkpt><trkpt lat="49.1839661" lon="5.4935847"><ele>261.5</ele><time>2026-03-22T15:46:31.111Z</time></trkpt><trkpt lat="49.1839554" lon="5.4936828"><ele>261.3333333333333</ele><time>2026-03-22T15:46:36.111Z</time></trkpt><trkpt lat="49.1839633" lon="5.4937882"><ele>261.1666666666667</ele><time>2026-03-22T15:46:42.11Z</time></trkpt><trkpt lat="49.1839197" lon="5.4939"><ele>261.0</ele><time>2026-03-22T15:47:00.11Z</time></trkpt><trkpt lat="49.1838817" lon="5.4940189"><ele>262.6</ele><time>2026-03-22T15:47:02.11Z</time></trkpt><trkpt lat="49.183838" lon="5.4941981"><ele>264.20000000000005</ele><time>2026-03-22T15:47:04.11Z</time></trkpt><trkpt lat="49.1838148" lon="5.4943205"><ele>265.79999999999995</ele><time>2026-03-22T15:47:05.11Z</time></trkpt><trkpt lat="49.1837967" lon="5.4944552"><ele>267.4</ele><time>2026-03-22T15:47:06.11Z</time></trkpt><trkpt lat="49.183781" lon="5.4945914"><ele>269.0</ele><time>2026-03-22T15:47:07.11Z</time></trkpt><trkpt lat="49.1837734" lon="5.4947223"><ele>269.0</ele><time>2026-03-22T15:47:08.11Z</time></trkpt><trkpt lat="49.1837721" lon="5.4948608"><ele>269.0</ele><time>2026-03-22T15:47:09.11Z</time></trkpt><trkpt lat="49.1837772" lon="5.4949897"><ele>269.0</ele><time>2026-03-22T15:47:10.11Z</time></trkpt><trkpt lat="49.1837898" lon="5.4951123"><ele>269.0</ele><time>2026-03-22T15:47:11.11Z</time></trkpt><trkpt lat="49.1838052" lon="5.4952244"><ele>269.0</ele><time>2026-03-22T15:47:12.11Z</time></trkpt><trkpt lat="49.1838101" lon="5.495326"><ele>269.0</ele><time>2026-03-22T15:47:13.11Z</time></trkpt><trkpt lat="49.1837799" lon="5.4954502"><ele>268.4</ele><time>2026-03-22T15:47:15.11Z</time></trkpt><trkpt lat="49.1837165" lon="5.4955585"><ele>267.79999999999995</ele><time>2026-03-22T15:47:20.11Z</time></trkpt><trkpt lat="49.1837065" lon="5.4957494"><ele>267.20000000000005</ele><time>2026-03-22T15:47:22.11Z</time></trkpt><trkpt lat="49.1837203" lon="5.4958772"><ele>266.6</ele><time>2026-03-22T15:47:23.11Z</time></trkpt><trkpt lat="49.1837452" lon="5.496017"><ele>266.0</ele><time>2026-03-22T15:47:24.11Z</time></trkpt><trkpt lat="49.1837769" lon="5.4961681"><ele>265.5</ele><time>2026-03-22T15:47:25.11Z</time></trkpt><trkpt lat="49.1838123" lon="5.4963299"><ele>265.0</ele><time>2026-03-22T15:47:26.11Z</time></trkpt><trkpt lat="49.1838494" lon="5.496499"><ele>264.5</ele><time>2026-03-22T15:47:27.11Z</time></trkpt><trkpt lat="49.1838852" lon="5.4966709"><ele>264.0</ele><time>2026-03-22T15:47:28.11Z</time></trkpt><trkpt lat="49.1839219" lon="5.4968431"><ele>264.0</ele><time>2026-03-22T15:47:29.11Z</time></trkpt><trkpt lat="49.1839581" lon="5.4970165"><ele>264.0</ele><time>2026-03-22T15:47:30.11Z</time></trkpt><trkpt lat="49.1839937" lon="5.497191"><ele>264.0</ele><time>2026-03-22T15:47:31.11Z</time></trkpt><trkpt lat="49.1840282" lon="5.4973679"><ele>264.0</ele><time>2026-03-22T15:47:32.11Z</time></trkpt><trkpt lat="49.1840632" lon="5.4975436"><ele>264.75</ele><time>2026-03-22T15:47:33.11Z</time></trkpt><trkpt lat="49.1840982" lon="5.497718"><ele>265.5</ele><time>2026-03-22T15:47:34.11Z</time></trkpt><trkpt lat="49.1841319" lon="5.4978909"><ele>266.25</ele><time>2026-03-22T15:47:35.111Z</time></trkpt><trkpt lat="49.1841657" lon="5.4980626"><ele>267.0</ele><time>2026-03-22T15:47:36.11Z</time></trkpt><trkpt lat="49.1842003" lon="5.4982336"><ele>267.0</ele><time>2026-03-22T15:47:37.11Z</time></trkpt><trkpt lat="49.1842365" lon="5.4984034"><ele>267.0</ele><time>2026-03-22T15:47:38.11Z</time></trkpt><trkpt lat="49.1842728" lon="5.4985732"><ele>267.0</ele><time>2026-03-22T15:47:39.11Z</time></trkpt><trkpt lat="49.1843097" lon="5.4987444"><ele>267.0</ele><time>2026-03-22T15:47:40.11Z</time></trkpt><trkpt lat="49.1843461" lon="5.4989184"><ele>266.25</ele><time>2026-03-22T15:47:41.11Z</time></trkpt><trkpt lat="49.1843799" lon="5.4990975"><ele>265.5</ele><time>2026-03-22T15:47:42.11Z</time></trkpt><trkpt lat="49.1844145" lon="5.4992802"><ele>264.75</ele><time>2026-03-22T15:47:43.11Z</time></trkpt><trkpt lat="49.184448" lon="5.4994659"><ele>264.0</ele><time>2026-03-22T15:47:44.11Z</time></trkpt><trkpt lat="49.1844795" lon="5.4996566"><ele>263.0</ele><time>2026-03-22T15:47:45.11Z</time></trkpt><trkpt lat="49.1845095" lon="5.4998476"><ele>262.0</ele><time>2026-03-22T15:47:46.11Z</time></trkpt><trkpt lat="49.1845392" lon="5.500038"><ele>261.0</ele><time>2026-03-22T15:47:47.11Z</time></trkpt><trkpt lat="49.1845687" lon="5.5002257"><ele>260.0</ele><time>2026-03-22T15:47:48.11Z</time></trkpt><trkpt lat="49.184597" lon="5.5004123"><ele>258.5</ele><time>2026-03-22T15:47:49.11Z</time></trkpt><trkpt lat="49.1846234" lon="5.5005973"><ele>257.0</ele><time>2026-03-22T15:47:50.111Z</time></trkpt><trkpt lat="49.1846503" lon="5.5007811"><ele>255.5</ele><time>2026-03-22T15:47:51.111Z</time></trkpt><trkpt lat="49.1846779" lon="5.5009635"><ele>254.0</ele><time>2026-03-22T15:47:52.11Z</time></trkpt><trkpt lat="49.1847051" lon="5.5011453"><ele>252.75</ele><time>2026-03-22T15:47:53.11Z</time></trkpt><trkpt lat="49.1847325" lon="5.5013256"><ele>251.5</ele><time>2026-03-22T15:47:54.11Z</time></trkpt><trkpt lat="49.1847594" lon="5.5015035"><ele>250.25</ele><time>2026-03-22T15:47:55.11Z</time></trkpt><trkpt lat="49.1847869" lon="5.5016787"><ele>249.0</ele><time>2026-03-22T15:47:56.11Z</time></trkpt><trkpt lat="49.1848141" lon="5.5018488"><ele>249.0</ele><time>2026-03-22T15:47:57.11Z</time></trkpt><trkpt lat="49.1848421" lon="5.5020153"><ele>248.99999999999997</ele><time>2026-03-22T15:47:58.11Z</time></trkpt><trkpt lat="49.1848677" lon="5.5021752"><ele>248.99999999999997</ele><time>2026-03-22T15:47:59.11Z</time></trkpt><trkpt lat="49.1848916" lon="5.5023307"><ele>249.0</ele><time>2026-03-22T15:48:00.11Z</time></trkpt><trkpt lat="49.1849125" lon="5.5024792"><ele>249.0</ele><time>2026-03-22T15:48:01.11Z</time></trkpt><trkpt lat="49.1849271" lon="5.5026194"><ele>249.2</ele><time>2026-03-22T15:48:02.11Z</time></trkpt><trkpt lat="49.1849372" lon="5.502748"><ele>249.39999999999998</ele><time>2026-03-22T15:48:03.11Z</time></trkpt><trkpt lat="49.1849387" lon="5.5028631"><ele>249.6</ele><time>2026-03-22T15:48:04.11Z</time></trkpt><trkpt lat="49.1849295" lon="5.5029652"><ele>249.8</ele><time>2026-03-22T15:48:05.11Z</time></trkpt><trkpt lat="49.184861" lon="5.5031"><ele>250.0</ele><time>2026-03-22T15:48:07.11Z</time></trkpt><trkpt lat="49.1847446" lon="5.5031208"><ele>249.33333333333331</ele><time>2026-03-22T15:48:09.11Z</time></trkpt><trkpt lat="49.1846823" lon="5.5031029"><ele>248.66666666666666</ele><time>2026-03-22T15:48:10.11Z</time></trkpt><trkpt lat="49.1846136" lon="5.5030824"><ele>248.0</ele><time>2026-03-22T15:48:11.11Z</time></trkpt><trkpt lat="49.1845393" lon="5.5030581"><ele>247.33333333333331</ele><time>2026-03-22T15:48:12.11Z</time></trkpt><trkpt lat="49.1844574" lon="5.5030323"><ele>246.66666666666666</ele><time>2026-03-22T15:48:13.111Z</time></trkpt><trkpt lat="49.1843698" lon="5.5030111"><ele>246.0</ele><time>2026-03-22T15:48:14.11Z</time></trkpt><trkpt lat="49.1842791" lon="5.5029869"><ele>246.0</ele><time>2026-03-22T15:48:15.11Z</time></trkpt><trkpt lat="49.1841875" lon="5.5029614"><ele>246.00000000000003</ele><time>2026-03-22T15:48:16.11Z</time></trkpt><trkpt lat="49.1840924" lon="5.5029449"><ele>246.00000000000003</ele><time>2026-03-22T15:48:17.11Z</time></trkpt><trkpt lat="49.1839972" lon="5.5029321"><ele>246.0</ele><time>2026-03-22T15:48:18.111Z</time></trkpt><trkpt lat="49.1838999" lon="5.5029179"><ele>246.0</ele><time>2026-03-22T15:48:19.11Z</time></trkpt><trkpt lat="49.1838034" lon="5.502908"><ele>245.5</ele><time>2026-03-22T15:48:20.11Z</time></trkpt><trkpt lat="49.1837081" lon="5.5028979"><ele>245.0</ele><time>2026-03-22T15:48:21.11Z</time></trkpt><trkpt lat="49.1836168" lon="5.5028806"><ele>244.5</ele><time>2026-03-22T15:48:22.11Z</time></trkpt><trkpt lat="49.1835324" lon="5.5028498"><ele>244.0</ele><time>2026-03-22T15:48:23.11Z</time></trkpt><trkpt lat="49.1834622" lon="5.5028086"><ele>243.5</ele><time>2026-03-22T15:48:24.11Z</time></trkpt><trkpt lat="49.1833963" lon="5.5027643"><ele>243.0</ele><time>2026-03-22T15:48:25.11Z</time></trkpt><trkpt lat="49.1833319" lon="5.5027398"><ele>243.0</ele><time>2026-03-22T15:48:26.11Z</time></trkpt><trkpt lat="49.183266" lon="5.502748"><ele>243.0</ele><time>2026-03-22T15:48:27.11Z</time></trkpt><trkpt lat="49.183208" lon="5.5027865"><ele>243.0</ele><time>2026-03-22T15:48:28.11Z</time></trkpt><trkpt lat="49.1831698" lon="5.5028774"><ele>243.0</ele><time>2026-03-22T15:48:29.11Z</time></trkpt><trkpt lat="49.1831161" lon="5.5029858"><ele>243.0</ele><time>2026-03-22T15:48:30.11Z</time></trkpt><trkpt lat="49.1830677" lon="5.5031272"><ele>243.0</ele><time>2026-03-22T15:48:31.11Z</time></trkpt><trkpt lat="49.183033" lon="5.5032962"><ele>242.5</ele><time>2026-03-22T15:48:32.11Z</time></trkpt><trkpt lat="49.1830018" lon="5.5034842"><ele>242.0</ele><time>2026-03-22T15:48:33.11Z</time></trkpt><trkpt lat="49.1829714" lon="5.5036854"><ele>241.5</ele><time>2026-03-22T15:48:34.11Z</time></trkpt><trkpt lat="49.1829408" lon="5.5038866"><ele>241.0</ele><time>2026-03-22T15:48:35.11Z</time></trkpt><trkpt lat="49.1829102" lon="5.5040852"><ele>240.5</ele><time>2026-03-22T15:48:36.11Z</time></trkpt><trkpt lat="49.1828803" lon="5.504286"><ele>240.0</ele><time>2026-03-22T15:48:37.11Z</time></trkpt><trkpt lat="49.1828589" lon="5.5044847"><ele>239.5</ele><time>2026-03-22T15:48:38.111Z</time></trkpt><trkpt lat="49.1828476" lon="5.5046825"><ele>239.0</ele><time>2026-03-22T15:48:39.11Z</time></trkpt><trkpt lat="49.1828424" lon="5.5048759"><ele>239.0</ele><time>2026-03-22T15:48:40.11Z</time></trkpt><trkpt lat="49.1828376" lon="5.505064"><ele>239.0</ele><time>2026-03-22T15:48:41.11Z</time></trkpt><trkpt lat="49.1828282" lon="5.5052453"><ele>239.0</ele><time>2026-03-22T15:48:42.11Z</time></trkpt><trkpt lat="49.182804" lon="5.5054037"><ele>239.0</ele><time>2026-03-22T15:48:43.11Z</time></trkpt><trkpt lat="49.1827577" lon="5.5055444"><ele>238.75</ele><time>2026-03-22T15:48:44.11Z</time></trkpt><trkpt lat="49.1826901" lon="5.505624"><ele>238.5</ele><time>2026-03-22T15:48:45.11Z</time></trkpt><trkpt lat="49.1826104" lon="5.5056695"><ele>238.25</ele><time>2026-03-22T15:48:46.11Z</time></trkpt><trkpt lat="49.1824703" lon="5.5058001"><ele>238.0</ele><time>2026-03-22T15:48:47.11Z</time></trkpt><trkpt lat="49.1823624" lon="5.5058646"><ele>238.0</ele><time>2026-03-22T15:48:48.11Z</time></trkpt><trkpt lat="49.1822501" lon="5.5059275"><ele>238.0</ele><time>2026-03-22T15:48:49.111Z</time></trkpt><trkpt lat="49.1821361" lon="5.5059974"><ele>238.0</ele><time>2026-03-22T15:48:50.11Z</time></trkpt><trkpt lat="49.1820234" lon="5.5060725"><ele>238.0</ele><time>2026-03-22T15:48:51.11Z</time></trkpt><trkpt lat="49.1819172" lon="5.5061562"><ele>238.0</ele><time>2026-03-22T15:48:52.11Z</time></trkpt><trkpt lat="49.1818185" lon="5.5062583"><ele>238.0</ele><time>2026-03-22T15:48:53.11Z</time></trkpt><trkpt lat="49.1817327" lon="5.5063933"><ele>238.0</ele><time>2026-03-22T15:48:54.11Z</time></trkpt><trkpt lat="49.181668" lon="5.5065679"><ele>238.0</ele><time>2026-03-22T15:48:55.111Z</time></trkpt><trkpt lat="49.1816592" lon="5.506732"><ele>238.0</ele><time>2026-03-22T15:48:56.11Z</time></trkpt><trkpt lat="49.1816286" lon="5.5069206"><ele>238.0</ele><time>2026-03-22T15:48:57.11Z</time></trkpt><trkpt lat="49.1815962" lon="5.5071043"><ele>238.0</ele><time>2026-03-22T15:48:58.11Z</time></trkpt><trkpt lat="49.1815621" lon="5.5072831"><ele>238.0</ele><time>2026-03-22T15:48:59.11Z</time></trkpt><trkpt lat="49.1815214" lon="5.5074593"><ele>238.75</ele><time>2026-03-22T15:49:00.11Z</time></trkpt><trkpt lat="49.1814748" lon="5.5076322"><ele>239.5</ele><time>2026-03-22T15:49:01.11Z</time></trkpt><trkpt lat="49.1814212" lon="5.5077971"><ele>240.25</ele><time>2026-03-22T15:49:02.11Z</time></trkpt><trkpt lat="49.1813621" lon="5.5079547"><ele>241.0</ele><time>2026-03-22T15:49:03.11Z</time></trkpt><trkpt lat="49.1812997" lon="5.508106"><ele>241.0</ele><time>2026-03-22T15:49:04.11Z</time></trkpt><trkpt lat="49.1812343" lon="5.5082482"><ele>241.00000000000003</ele><time>2026-03-22T15:49:05.11Z</time></trkpt><trkpt lat="49.1811638" lon="5.5083818"><ele>241.00000000000003</ele><time>2026-03-22T15:49:06.111Z</time></trkpt><trkpt lat="49.1810938" lon="5.5085055"><ele>241.0</ele><time>2026-03-22T15:49:07.111Z</time></trkpt><trkpt lat="49.1810248" lon="5.5086156"><ele>241.0</ele><time>2026-03-22T15:49:08.11Z</time></trkpt><trkpt lat="49.1809639" lon="5.5087378"><ele>241.20000000000002</ele><time>2026-03-22T15:49:09.11Z</time></trkpt><trkpt lat="49.1809235" lon="5.5088895"><ele>241.40000000000003</ele><time>2026-03-22T15:49:10.11Z</time></trkpt><trkpt lat="49.1809022" lon="5.5090646"><ele>241.6</ele><time>2026-03-22T15:49:11.111Z</time></trkpt><trkpt lat="49.1809297" lon="5.5091972"><ele>241.8</ele><time>2026-03-22T15:49:12.11Z</time></trkpt><trkpt lat="49.1809322" lon="5.5093733"><ele>242.0</ele><time>2026-03-22T15:49:13.11Z</time></trkpt><trkpt lat="49.1809342" lon="5.5095573"><ele>241.75</ele><time>2026-03-22T15:49:14.111Z</time></trkpt><trkpt lat="49.1809389" lon="5.5097452"><ele>241.5</ele><time>2026-03-22T15:49:15.11Z</time></trkpt><trkpt lat="49.180942" lon="5.5099359"><ele>241.25</ele><time>2026-03-22T15:49:16.11Z</time></trkpt><trkpt lat="49.1809453" lon="5.5101282"><ele>241.0</ele><time>2026-03-22T15:49:17.111Z</time></trkpt><trkpt lat="49.1809469" lon="5.5103238"><ele>240.5</ele><time>2026-03-22T15:49:18.11Z</time></trkpt><trkpt lat="49.1809485" lon="5.5105208"><ele>240.0</ele><time>2026-03-22T15:49:19.111Z</time></trkpt><trkpt lat="49.1809483" lon="5.5107204"><ele>239.5</ele><time>2026-03-22T15:49:20.11Z</time></trkpt><trkpt lat="49.180947" lon="5.5109234"><ele>239.0</ele><time>2026-03-22T15:49:21.11Z</time></trkpt><trkpt lat="49.1809465" lon="5.5111257"><ele>238.5</ele><time>2026-03-22T15:49:22.11Z</time></trkpt><trkpt lat="49.1809463" lon="5.5113252"><ele>238.0</ele><time>2026-03-22T15:49:23.11Z</time></trkpt><trkpt lat="49.1809461" lon="5.5115259"><ele>237.5</ele><time>2026-03-22T15:49:24.11Z</time></trkpt><trkpt lat="49.1809485" lon="5.5117256"><ele>237.0</ele><time>2026-03-22T15:49:25.11Z</time></trkpt><trkpt lat="49.1809512" lon="5.511925"><ele>236.5</ele><time>2026-03-22T15:49:26.11Z</time></trkpt><trkpt lat="49.1809531" lon="5.5121235"><ele>236.0</ele><time>2026-03-22T15:49:27.11Z</time></trkpt><trkpt lat="49.1809555" lon="5.5123194"><ele>235.5</ele><time>2026-03-22T15:49:28.11Z</time></trkpt><trkpt lat="49.1809597" lon="5.5125134"><ele>235.0</ele><time>2026-03-22T15:49:29.11Z</time></trkpt><trkpt lat="49.1809616" lon="5.5127006"><ele>235.0</ele><time>2026-03-22T15:49:30.11Z</time></trkpt><trkpt lat="49.1809636" lon="5.5128846"><ele>235.0</ele><time>2026-03-22T15:49:31.11Z</time></trkpt><trkpt lat="49.1809671" lon="5.5130672"><ele>235.0</ele><time>2026-03-22T15:49:32.11Z</time></trkpt><trkpt lat="49.1809713" lon="5.5132475"><ele>235.0</ele><time>2026-03-22T15:49:33.11Z</time></trkpt><trkpt lat="49.1809718" lon="5.5134297"><ele>234.75</ele><time>2026-03-22T15:49:34.11Z</time></trkpt><trkpt lat="49.1809737" lon="5.5136127"><ele>234.5</ele><time>2026-03-22T15:49:35.11Z</time></trkpt><trkpt lat="49.1809775" lon="5.5137949"><ele>234.25</ele><time>2026-03-22T15:49:36.11Z</time></trkpt><trkpt lat="49.1809791" lon="5.5139725"><ele>234.0</ele><time>2026-03-22T15:49:37.11Z</time></trkpt><trkpt lat="49.1809807" lon="5.5141477"><ele>233.79999999999998</ele><time>2026-03-22T15:49:38.11Z</time></trkpt><trkpt lat="49.1809826" lon="5.5143192"><ele>233.59999999999997</ele><time>2026-03-22T15:49:39.11Z</time></trkpt><trkpt lat="49.1809832" lon="5.5144887"><ele>233.4</ele><time>2026-03-22T15:49:40.11Z</time></trkpt><trkpt lat="49.1809829" lon="5.5146556"><ele>233.2</ele><time>2026-03-22T15:49:41.111Z</time></trkpt><trkpt lat="49.1809839" lon="5.5148205"><ele>233.0</ele><time>2026-03-22T15:49:42.11Z</time></trkpt><trkpt lat="49.1809874" lon="5.5149842"><ele>232.60000000000002</ele><time>2026-03-22T15:49:43.11Z</time></trkpt><trkpt lat="49.1809904" lon="5.5151472"><ele>232.20000000000002</ele><time>2026-03-22T15:49:44.11Z</time></trkpt><trkpt lat="49.1809944" lon="5.5153112"><ele>231.8</ele><time>2026-03-22T15:49:45.11Z</time></trkpt><trkpt lat="49.1809965" lon="5.5154761"><ele>231.4</ele><time>2026-03-22T15:49:46.11Z</time></trkpt><trkpt lat="49.1809992" lon="5.515643"><ele>231.0</ele><time>2026-03-22T15:49:47.11Z</time></trkpt><trkpt lat="49.1810019" lon="5.5158065"><ele>231.0</ele><time>2026-03-22T15:49:48.111Z</time></trkpt><trkpt lat="49.1810037" lon="5.5159676"><ele>231.00000000000003</ele><time>2026-03-22T15:49:49.11Z</time></trkpt><trkpt lat="49.1810055" lon="5.5161292"><ele>231.00000000000003</ele><time>2026-03-22T15:49:50.11Z</time></trkpt><trkpt lat="49.1810032" lon="5.5162884"><ele>231.0</ele><time>2026-03-22T15:49:51.11Z</time></trkpt><trkpt lat="49.1809973" lon="5.5164542"><ele>231.0</ele><time>2026-03-22T15:49:52.11Z</time></trkpt><trkpt lat="49.1809897" lon="5.5166229"><ele>231.20000000000002</ele><time>2026-03-22T15:49:53.11Z</time></trkpt><trkpt lat="49.1809796" lon="5.5167902"><ele>231.40000000000003</ele><time>2026-03-22T15:49:54.11Z</time></trkpt><trkpt lat="49.1809702" lon="5.5169545"><ele>231.6</ele><time>2026-03-22T15:49:55.11Z</time></trkpt><trkpt lat="49.1809617" lon="5.5171166"><ele>231.8</ele><time>2026-03-22T15:49:56.11Z</time></trkpt><trkpt lat="49.1809521" lon="5.5172743"><ele>232.0</ele><time>2026-03-22T15:49:57.11Z</time></trkpt><trkpt lat="49.1809415" lon="5.5174306"><ele>232.33333333333331</ele><time>2026-03-22T15:49:58.11Z</time></trkpt><trkpt lat="49.1809314" lon="5.517578"><ele>232.66666666666666</ele><time>2026-03-22T15:49:59.11Z</time></trkpt><trkpt lat="49.1809236" lon="5.5177095"><ele>233.0</ele><time>2026-03-22T15:50:00.11Z</time></trkpt><trkpt lat="49.1809182" lon="5.5178267"><ele>233.33333333333331</ele><time>2026-03-22T15:50:01.11Z</time></trkpt><trkpt lat="49.1809129" lon="5.5179283"><ele>233.66666666666666</ele><time>2026-03-22T15:50:02.11Z</time></trkpt><trkpt lat="49.1809046" lon="5.5180909"><ele>234.0</ele><time>2026-03-22T15:50:04.11Z</time></trkpt><trkpt lat="49.1808984" lon="5.5181913"><ele>234.5</ele><time>2026-03-22T15:50:06.11Z</time></trkpt><trkpt lat="49.1809058" lon="5.5182957"><ele>235.0</ele><time>2026-03-22T15:50:15.111Z</time></trkpt><trkpt lat="49.1809294" lon="5.5184262"><ele>235.5</ele><time>2026-03-22T15:50:18.11Z</time></trkpt><trkpt lat="49.1809178" lon="5.5185299"><ele>236.0</ele><time>2026-03-22T15:50:20.11Z</time></trkpt><trkpt lat="49.180859" lon="5.518593"><ele>236.5</ele><time>2026-03-22T15:50:22.11Z</time></trkpt><trkpt lat="49.1807482" lon="5.5186788"><ele>237.0</ele><time>2026-03-22T15:50:24.11Z</time></trkpt><trkpt lat="49.1806682" lon="5.518785"><ele>235.6</ele><time>2026-03-22T15:50:26.111Z</time></trkpt><trkpt lat="49.1806215" lon="5.5189837"><ele>234.2</ele><time>2026-03-22T15:50:28.11Z</time></trkpt><trkpt lat="49.1806022" lon="5.5190981"><ele>232.8</ele><time>2026-03-22T15:50:29.11Z</time></trkpt><trkpt lat="49.1805915" lon="5.519226"><ele>231.4</ele><time>2026-03-22T15:50:30.11Z</time></trkpt><trkpt lat="49.1805815" lon="5.5193589"><ele>230.0</ele><time>2026-03-22T15:50:31.11Z</time></trkpt><trkpt lat="49.180569" lon="5.5195003"><ele>230.00000000000003</ele><time>2026-03-22T15:50:32.11Z</time></trkpt><trkpt lat="49.1805566" lon="5.5196404"><ele>230.0</ele><time>2026-03-22T15:50:33.11Z</time></trkpt><trkpt lat="49.1805438" lon="5.5197785"><ele>230.0</ele><time>2026-03-22T15:50:34.11Z</time></trkpt><trkpt lat="49.1805329" lon="5.5199151"><ele>230.0</ele><time>2026-03-22T15:50:35.11Z</time></trkpt><trkpt lat="49.1805235" lon="5.5200497"><ele>230.00000000000003</ele><time>2026-03-22T15:50:36.11Z</time></trkpt><trkpt lat="49.1805154" lon="5.5201818"><ele>230.0</ele><time>2026-03-22T15:50:37.11Z</time></trkpt><trkpt lat="49.1805093" lon="5.5203118"><ele>230.00000000000003</ele><time>2026-03-22T15:50:38.11Z</time></trkpt><trkpt lat="49.1805107" lon="5.5204281"><ele>230.0</ele><time>2026-03-22T15:50:39.11Z</time></trkpt><trkpt lat="49.180538" lon="5.5205448"><ele>230.0</ele><time>2026-03-22T15:50:40.11Z</time></trkpt><trkpt lat="49.1805735" lon="5.5206669"><ele>230.0</ele><time>2026-03-22T15:50:41.111Z</time></trkpt><trkpt lat="49.1806101" lon="5.5207879"><ele>230.00000000000003</ele><time>2026-03-22T15:50:42.11Z</time></trkpt><trkpt lat="49.1806501" lon="5.5208982"><ele>230.0</ele><time>2026-03-22T15:50:43.11Z</time></trkpt><trkpt lat="49.1806913" lon="5.5210108"><ele>231.1428571428571</ele><time>2026-03-22T15:50:44.11Z</time></trkpt><trkpt lat="49.18073" lon="5.5211203"><ele>232.28571428571428</ele><time>2026-03-22T15:50:45.11Z</time></trkpt><trkpt lat="49.1807649" lon="5.5212264"><ele>233.42857142857142</ele><time>2026-03-22T15:50:46.11Z</time></trkpt><trkpt lat="49.1808038" lon="5.5213274"><ele>234.57142857142856</ele><time>2026-03-22T15:50:47.111Z</time></trkpt><trkpt lat="49.1808406" lon="5.5214223"><ele>235.71428571428572</ele><time>2026-03-22T15:50:48.11Z</time></trkpt><trkpt lat="49.1808766" lon="5.5215167"><ele>236.85714285714286</ele><time>2026-03-22T15:50:49.11Z</time></trkpt><trkpt lat="49.1809113" lon="5.5216032"><ele>238.0</ele><time>2026-03-22T15:50:50.111Z</time></trkpt><trkpt lat="49.1809468" lon="5.5216959"><ele>237.99999999999997</ele><time>2026-03-22T15:50:51.11Z</time></trkpt><trkpt lat="49.1810019" lon="5.5218791"><ele>238.0</ele><time>2026-03-22T15:50:53.11Z</time></trkpt><trkpt lat="49.1810426" lon="5.5219903"><ele>238.0</ele><time>2026-03-22T15:50:55.11Z</time></trkpt><trkpt lat="49.1810756" lon="5.5220805"><ele>238.0</ele><time>2026-03-22T15:50:57.11Z</time></trkpt><trkpt lat="49.1811016" lon="5.5221727"><ele>237.99999999999997</ele><time>2026-03-22T15:50:59.11Z</time></trkpt><trkpt lat="49.1811469" lon="5.5223023"><ele>238.0</ele><time>2026-03-22T15:51:01.11Z</time></trkpt><trkpt lat="49.1811941" lon="5.5224465"><ele>237.4</ele><time>2026-03-22T15:51:03.11Z</time></trkpt><trkpt lat="49.1812408" lon="5.5225716"><ele>236.8</ele><time>2026-03-22T15:51:05.111Z</time></trkpt><trkpt lat="49.1812957" lon="5.5227137"><ele>236.2</ele><time>2026-03-22T15:51:07.111Z</time></trkpt><trkpt lat="49.1813572" lon="5.5228623"><ele>235.6</ele><time>2026-03-22T15:51:09.111Z</time></trkpt><trkpt lat="49.1814061" lon="5.5230076"><ele>235.0</ele><time>2026-03-22T15:51:11.11Z</time></trkpt><trkpt lat="49.1814363" lon="5.5231348"><ele>234.7142857142857</ele><time>2026-03-22T15:51:13.11Z</time></trkpt><trkpt lat="49.1814724" lon="5.5232365"><ele>234.4285714285714</ele><time>2026-03-22T15:51:16.11Z</time></trkpt><trkpt lat="49.1815063" lon="5.5233355"><ele>234.14285714285714</ele><time>2026-03-22T15:51:19.11Z</time></trkpt><trkpt lat="49.1815346" lon="5.5234374"><ele>233.85714285714283</ele><time>2026-03-22T15:51:23.11Z</time></trkpt><trkpt lat="49.181569" lon="5.5235302"><ele>233.57142857142856</ele><time>2026-03-22T15:51:26.11Z</time></trkpt><trkpt lat="49.1816123" lon="5.523614"><ele>233.28571428571428</ele><time>2026-03-22T15:51:29.11Z</time></trkpt><trkpt lat="49.1816616" lon="5.5236995"><ele>233.0</ele><time>2026-03-22T15:51:36.11Z</time></trkpt><trkpt lat="49.1816859" lon="5.5238085"><ele>234.14285714285717</ele><time>2026-03-22T15:51:41.11Z</time></trkpt><trkpt lat="49.1817147" lon="5.5239044"><ele>235.28571428571428</ele><time>2026-03-22T15:51:44.11Z</time></trkpt><trkpt lat="49.1817495" lon="5.5239907"><ele>236.42857142857144</ele><time>2026-03-22T15:52:06.11Z</time></trkpt><trkpt lat="49.1817845" lon="5.5240773"><ele>237.57142857142858</ele><time>2026-03-22T15:52:09.11Z</time></trkpt><trkpt lat="49.1818161" lon="5.524167"><ele>238.71428571428572</ele><time>2026-03-22T15:52:12.11Z</time></trkpt><trkpt lat="49.1818561" lon="5.5242785"><ele>239.85714285714286</ele><time>2026-03-22T15:52:15.11Z</time></trkpt><trkpt lat="49.1818971" lon="5.5243916"><ele>241.0</ele><time>2026-03-22T15:52:18.111Z</time></trkpt><trkpt lat="49.1819389" lon="5.5244875"><ele>240.83333333333331</ele><time>2026-03-22T15:52:21.11Z</time></trkpt><trkpt lat="49.1819701" lon="5.5245986"><ele>240.66666666666666</ele><time>2026-03-22T15:52:24.11Z</time></trkpt><trkpt lat="49.1820121" lon="5.5247067"><ele>240.5</ele><time>2026-03-22T15:52:27.111Z</time></trkpt><trkpt lat="49.1820516" lon="5.5248196"><ele>240.33333333333331</ele><time>2026-03-22T15:52:30.11Z</time></trkpt><trkpt lat="49.182086" lon="5.524926"><ele>240.16666666666666</ele><time>2026-03-22T15:52:33.11Z</time></trkpt><trkpt lat="49.182121" lon="5.5250103"><ele>240.0</ele><time>2026-03-22T15:52:37.11Z</time></trkpt><trkpt lat="49.1821718" lon="5.5251369"><ele>240.0</ele><time>2026-03-22T15:52:41.11Z</time></trkpt><trkpt lat="49.1822244" lon="5.5252768"><ele>240.0</ele><time>2026-03-22T15:52:43.11Z</time></trkpt><trkpt lat="49.1822701" lon="5.5254176"><ele>240.0</ele><time>2026-03-22T15:52:45.111Z</time></trkpt><trkpt lat="49.1823146" lon="5.5255383"><ele>240.0</ele><time>2026-03-22T15:52:47.111Z</time></trkpt><trkpt lat="49.1823557" lon="5.5256437"><ele>240.0</ele><time>2026-03-22T15:52:49.11Z</time></trkpt><trkpt lat="49.1823949" lon="5.5257528"><ele>240.0</ele><time>2026-03-22T15:52:51.111Z</time></trkpt><trkpt lat="49.182426" lon="5.5258461"><ele>240.0</ele><time>2026-03-22T15:52:53.11Z</time></trkpt><trkpt lat="49.182457" lon="5.525959"><ele>240.0</ele><time>2026-03-22T15:52:55.11Z</time></trkpt><trkpt lat="49.1824978" lon="5.5260906"><ele>240.0</ele><time>2026-03-22T15:52:57.11Z</time></trkpt><trkpt lat="49.1825485" lon="5.5262149"><ele>240.0</ele><time>2026-03-22T15:52:59.11Z</time></trkpt><trkpt lat="49.1825882" lon="5.5263295"><ele>240.0</ele><time>2026-03-22T15:53:01.11Z</time></trkpt><trkpt lat="49.1826259" lon="5.5264213"><ele>240.0</ele><time>2026-03-22T15:53:03.11Z</time></trkpt><trkpt lat="49.1826572" lon="5.5265122"><ele>240.0</ele><time>2026-03-22T15:53:06.11Z</time></trkpt><trkpt lat="49.1827036" lon="5.5266228"><ele>240.0</ele><time>2026-03-22T15:53:09.11Z</time></trkpt><trkpt lat="49.1827479" lon="5.5267441"><ele>240.0</ele><time>2026-03-22T15:53:12.11Z</time></trkpt><trkpt lat="49.1827846" lon="5.5268379"><ele>240.0</ele><time>2026-03-22T15:53:15.11Z</time></trkpt><trkpt lat="49.1828002" lon="5.5269481"><ele>240.0</ele><time>2026-03-22T15:54:22.11Z</time></trkpt><trkpt lat="49.1827808" lon="5.5268191"><ele>240.0</ele><time>2026-03-22T15:54:50.11Z</time></trkpt><trkpt lat="49.1827433" lon="5.5267094"><ele>240.0</ele><time>2026-03-22T15:54:53.11Z</time></trkpt><trkpt lat="49.182708" lon="5.5266158"><ele>240.0</ele><time>2026-03-22T15:54:56.11Z</time></trkpt><trkpt lat="49.1826706" lon="5.5265254"><ele>240.0</ele><time>2026-03-22T15:55:20.11Z</time></trkpt><trkpt lat="49.1827059" lon="5.5266382"><ele>240.0</ele><time>2026-03-22T15:56:27.11Z</time></trkpt><trkpt lat="49.1827422" lon="5.5267359"><ele>240.0</ele><time>2026-03-22T15:56:31.111Z</time></trkpt><trkpt lat="49.1827643" lon="5.5268268"><ele>240.0</ele><time>2026-03-22T15:56:40.111Z</time></trkpt><trkpt lat="49.182801" lon="5.52695"><ele>240.0</ele><time>2026-03-22T15:56:44.11Z</time></trkpt><trkpt lat="49.1828335" lon="5.5270405"><ele>240.0</ele><time>2026-03-22T15:56:46.11Z</time></trkpt><trkpt lat="49.1828701" lon="5.5271579"><ele>240.0</ele><time>2026-03-22T15:56:49.11Z</time></trkpt><trkpt lat="49.1829092" lon="5.5272361"><ele>240.0</ele><time>2026-03-22T15:56:51.111Z</time></trkpt><trkpt lat="49.18295" lon="5.5273223"><ele>240.0</ele><time>2026-03-22T15:56:53.11Z</time></trkpt><trkpt lat="49.1829876" lon="5.5274332"><ele>240.0</ele><time>2026-03-22T15:56:55.11Z</time></trkpt><trkpt lat="49.1830446" lon="5.5275958"><ele>239.83333333333334</ele><time>2026-03-22T15:56:57.11Z</time></trkpt><trkpt lat="49.1830809" lon="5.5276933"><ele>239.66666666666669</ele><time>2026-03-22T15:56:58.11Z</time></trkpt><trkpt lat="49.1831209" lon="5.5277943"><ele>239.5</ele><time>2026-03-22T15:56:59.11Z</time></trkpt><trkpt lat="49.1831663" lon="5.5279111"><ele>239.33333333333334</ele><time>2026-03-22T15:57:00.11Z</time></trkpt><trkpt lat="49.183208" lon="5.5280355"><ele>239.16666666666669</ele><time>2026-03-22T15:57:01.11Z</time></trkpt><trkpt lat="49.1832505" lon="5.5281713"><ele>239.0</ele><time>2026-03-22T15:57:02.11Z</time></trkpt><trkpt lat="49.1832972" lon="5.5283052"><ele>238.6</ele><time>2026-03-22T15:57:03.11Z</time></trkpt><trkpt lat="49.1833454" lon="5.5284172"><ele>238.2</ele><time>2026-03-22T15:57:04.11Z</time></trkpt><trkpt lat="49.1833891" lon="5.5285313"><ele>237.79999999999998</ele><time>2026-03-22T15:57:05.11Z</time></trkpt><trkpt lat="49.1834331" lon="5.5286534"><ele>237.39999999999998</ele><time>2026-03-22T15:57:06.111Z</time></trkpt><trkpt lat="49.1834772" lon="5.5287801"><ele>237.0</ele><time>2026-03-22T15:57:07.11Z</time></trkpt><trkpt lat="49.1835202" lon="5.5289149"><ele>237.0</ele><time>2026-03-22T15:57:08.11Z</time></trkpt><trkpt lat="49.1835649" lon="5.5290466"><ele>237.0</ele><time>2026-03-22T15:57:09.11Z</time></trkpt><trkpt lat="49.1836126" lon="5.5291786"><ele>237.0</ele><time>2026-03-22T15:57:10.11Z</time></trkpt><trkpt lat="49.1836643" lon="5.5293078"><ele>237.0</ele><time>2026-03-22T15:57:11.11Z</time></trkpt><trkpt lat="49.1837123" lon="5.5294308"><ele>237.0</ele><time>2026-03-22T15:57:12.11Z</time></trkpt><trkpt lat="49.1837575" lon="5.5295478"><ele>237.5</ele><time>2026-03-22T15:57:13.11Z</time></trkpt><trkpt lat="49.1838023" lon="5.5296594"><ele>238.0</ele><time>2026-03-22T15:57:14.11Z</time></trkpt><trkpt lat="49.1838437" lon="5.5297681"><ele>238.5</ele><time>2026-03-22T15:57:15.111Z</time></trkpt><trkpt lat="49.183885" lon="5.5298845"><ele>239.0</ele><time>2026-03-22T15:57:16.11Z</time></trkpt><trkpt lat="49.1839224" lon="5.5300024"><ele>239.5</ele><time>2026-03-22T15:57:17.11Z</time></trkpt><trkpt lat="49.1839624" lon="5.5301144"><ele>240.0</ele><time>2026-03-22T15:57:18.11Z</time></trkpt><trkpt lat="49.1840091" lon="5.5302311"><ele>239.6</ele><time>2026-03-22T15:57:19.111Z</time></trkpt><trkpt lat="49.184056" lon="5.5303621"><ele>239.2</ele><time>2026-03-22T15:57:20.11Z</time></trkpt><trkpt lat="49.1841032" lon="5.5304995"><ele>238.8</ele><time>2026-03-22T15:57:21.11Z</time></trkpt><trkpt lat="49.1841532" lon="5.5306348"><ele>238.4</ele><time>2026-03-22T15:57:22.11Z</time></trkpt><trkpt lat="49.1842048" lon="5.5307706"><ele>238.0</ele><time>2026-03-22T15:57:23.11Z</time></trkpt><trkpt lat="49.1842545" lon="5.5309039"><ele>238.0</ele><time>2026-03-22T15:57:24.11Z</time></trkpt><trkpt lat="49.1843019" lon="5.5310326"><ele>238.0</ele><time>2026-03-22T15:57:25.11Z</time></trkpt><trkpt lat="49.184345" lon="5.5311565"><ele>238.0</ele><time>2026-03-22T15:57:26.11Z</time></trkpt><trkpt lat="49.1843878" lon="5.5312776"><ele>238.0</ele><time>2026-03-22T15:57:27.111Z</time></trkpt><trkpt lat="49.1844316" lon="5.5313933"><ele>238.0</ele><time>2026-03-22T15:57:28.11Z</time></trkpt><trkpt lat="49.1844756" lon="5.5315084"><ele>238.0</ele><time>2026-03-22T15:57:29.11Z</time></trkpt><trkpt lat="49.1845239" lon="5.5316299"><ele>238.0</ele><time>2026-03-22T15:57:30.11Z</time></trkpt><trkpt lat="49.1845738" lon="5.5317554"><ele>238.0</ele><time>2026-03-22T15:57:31.111Z</time></trkpt><trkpt lat="49.1846238" lon="5.5318866"><ele>238.0</ele><time>2026-03-22T15:57:32.11Z</time></trkpt><trkpt lat="49.1846734" lon="5.5320199"><ele>238.0</ele><time>2026-03-22T15:57:33.11Z</time></trkpt><trkpt lat="49.1847206" lon="5.5321524"><ele>238.0</ele><time>2026-03-22T15:57:34.11Z</time></trkpt><trkpt lat="49.1847685" lon="5.5322876"><ele>238.0</ele><time>2026-03-22T15:57:35.11Z</time></trkpt><trkpt lat="49.184818" lon="5.5324228"><ele>238.0</ele><time>2026-03-22T15:57:36.11Z</time></trkpt><trkpt lat="49.1848694" lon="5.5325611"><ele>238.0</ele><time>2026-03-22T15:57:37.11Z</time></trkpt><trkpt lat="49.1849237" lon="5.5327023"><ele>238.0</ele><time>2026-03-22T15:57:38.11Z</time></trkpt><trkpt lat="49.1849784" lon="5.5328445"><ele>237.4</ele><time>2026-03-22T15:57:39.11Z</time></trkpt><trkpt lat="49.1850322" lon="5.5329903"><ele>236.8</ele><time>2026-03-22T15:57:40.11Z</time></trkpt><trkpt lat="49.1850876" lon="5.5331418"><ele>236.2</ele><time>2026-03-22T15:57:41.11Z</time></trkpt><trkpt lat="49.1851442" lon="5.5332909"><ele>235.6</ele><time>2026-03-22T15:57:42.11Z</time></trkpt><trkpt lat="49.1852" lon="5.5334398"><ele>235.0</ele><time>2026-03-22T15:57:43.11Z</time></trkpt><trkpt lat="49.1852555" lon="5.5335883"><ele>234.0</ele><time>2026-03-22T15:57:44.111Z</time></trkpt><trkpt lat="49.1853106" lon="5.5337405"><ele>233.0</ele><time>2026-03-22T15:57:45.11Z</time></trkpt><trkpt lat="49.1853672" lon="5.5338945"><ele>232.0</ele><time>2026-03-22T15:57:46.11Z</time></trkpt><trkpt lat="49.1854246" lon="5.534048"><ele>231.0</ele><time>2026-03-22T15:57:47.11Z</time></trkpt><trkpt lat="49.185482" lon="5.5342041"><ele>231.0</ele><time>2026-03-22T15:57:48.11Z</time></trkpt><trkpt lat="49.1855385" lon="5.5343608"><ele>231.0</ele><time>2026-03-22T15:57:49.111Z</time></trkpt><trkpt lat="49.1855963" lon="5.5345208"><ele>231.0</ele><time>2026-03-22T15:57:50.11Z</time></trkpt><trkpt lat="49.1856548" lon="5.5346792"><ele>231.0</ele><time>2026-03-22T15:57:51.11Z</time></trkpt><trkpt lat="49.1857157" lon="5.5348423"><ele>230.0</ele><time>2026-03-22T15:57:52.11Z</time></trkpt><trkpt lat="49.1857796" lon="5.5350071"><ele>229.0</ele><time>2026-03-22T15:57:53.11Z</time></trkpt><trkpt lat="49.1858391" lon="5.5351709"><ele>228.0</ele><time>2026-03-22T15:57:54.11Z</time></trkpt><trkpt lat="49.1858964" lon="5.5353292"><ele>227.0</ele><time>2026-03-22T15:57:55.11Z</time></trkpt><trkpt lat="49.1859522" lon="5.5354851"><ele>226.8</ele><time>2026-03-22T15:57:56.11Z</time></trkpt><trkpt lat="49.1860068" lon="5.5356308"><ele>226.6</ele><time>2026-03-22T15:57:57.11Z</time></trkpt><trkpt lat="49.186059" lon="5.5357667"><ele>226.40000000000003</ele><time>2026-03-22T15:57:58.11Z</time></trkpt><trkpt lat="49.1861079" lon="5.5358951"><ele>226.20000000000002</ele><time>2026-03-22T15:57:59.111Z</time></trkpt><trkpt lat="49.1861542" lon="5.5360202"><ele>226.0</ele><time>2026-03-22T15:58:00.11Z</time></trkpt><trkpt lat="49.1861967" lon="5.5361408"><ele>225.83333333333331</ele><time>2026-03-22T15:58:01.11Z</time></trkpt><trkpt lat="49.1862391" lon="5.53626"><ele>225.66666666666666</ele><time>2026-03-22T15:58:02.11Z</time></trkpt><trkpt lat="49.1862802" lon="5.536377"><ele>225.5</ele><time>2026-03-22T15:58:03.11Z</time></trkpt><trkpt lat="49.1863228" lon="5.5364919"><ele>225.33333333333331</ele><time>2026-03-22T15:58:04.11Z</time></trkpt><trkpt lat="49.1863657" lon="5.5366074"><ele>225.16666666666666</ele><time>2026-03-22T15:58:05.11Z</time></trkpt><trkpt lat="49.1864096" lon="5.5367236"><ele>225.0</ele><time>2026-03-22T15:58:06.11Z</time></trkpt><trkpt lat="49.1864548" lon="5.5368406"><ele>225.0</ele><time>2026-03-22T15:58:07.11Z</time></trkpt><trkpt lat="49.186499" lon="5.5369575"><ele>225.0</ele><time>2026-03-22T15:58:08.11Z</time></trkpt><trkpt lat="49.186542" lon="5.537074"><ele>225.0</ele><time>2026-03-22T15:58:09.11Z</time></trkpt><trkpt lat="49.1865848" lon="5.5371844"><ele>225.0</ele><time>2026-03-22T15:58:10.11Z</time></trkpt><trkpt lat="49.1866243" lon="5.537283"><ele>225.0</ele><time>2026-03-22T15:58:11.11Z</time></trkpt><trkpt lat="49.1866583" lon="5.5373716"><ele>225.0</ele><time>2026-03-22T15:58:12.11Z</time></trkpt><trkpt lat="49.1867093" lon="5.5375204"><ele>225.0</ele><time>2026-03-22T15:58:14.11Z</time></trkpt><trkpt lat="49.1867556" lon="5.5376688"><ele>225.0</ele><time>2026-03-22T15:58:16.11Z</time></trkpt><trkpt lat="49.1867887" lon="5.5377996"><ele>225.0</ele><time>2026-03-22T15:58:18.11Z</time></trkpt><trkpt lat="49.1867973" lon="5.537909"><ele>225.0</ele><time>2026-03-22T15:58:32.11Z</time></trkpt><trkpt lat="49.186729" lon="5.5379325"><ele>225.0</ele><time>2026-03-22T15:58:35.11Z</time></trkpt><trkpt lat="49.1866422" lon="5.5379024"><ele>225.0</ele><time>2026-03-22T15:58:37.11Z</time></trkpt><trkpt lat="49.1865197" lon="5.5378561"><ele>224.83333333333334</ele><time>2026-03-22T15:58:39.11Z</time></trkpt><trkpt lat="49.1864499" lon="5.5378315"><ele>224.66666666666669</ele><time>2026-03-22T15:58:40.11Z</time></trkpt><trkpt lat="49.1863774" lon="5.5378081"><ele>224.5</ele><time>2026-03-22T15:58:41.11Z</time></trkpt><trkpt lat="49.1863033" lon="5.5377853"><ele>224.33333333333334</ele><time>2026-03-22T15:58:42.11Z</time></trkpt><trkpt lat="49.1862277" lon="5.5377593"><ele>224.16666666666669</ele><time>2026-03-22T15:58:43.11Z</time></trkpt><trkpt lat="49.1861518" lon="5.5377325"><ele>224.0</ele><time>2026-03-22T15:58:44.11Z</time></trkpt><trkpt lat="49.1860793" lon="5.5377107"><ele>224.00000000000003</ele><time>2026-03-22T15:58:45.11Z</time></trkpt><trkpt lat="49.1860168" lon="5.5376919"><ele>224.0</ele><time>2026-03-22T15:58:46.11Z</time></trkpt><trkpt lat="49.1859191" lon="5.5376604"><ele>224.0</ele><time>2026-03-22T15:58:48.11Z</time></trkpt><trkpt lat="49.1858259" lon="5.5376252"><ele>224.0</ele><time>2026-03-22T15:58:50.11Z</time></trkpt><trkpt lat="49.1857242" lon="5.537589"><ele>224.00000000000003</ele><time>2026-03-22T15:58:52.11Z</time></trkpt><trkpt lat="49.1856615" lon="5.5375663"><ele>224.0</ele><time>2026-03-22T15:58:53.11Z</time></trkpt><trkpt lat="49.185587" lon="5.5375387"><ele>223.66666666666669</ele><time>2026-03-22T15:58:54.11Z</time></trkpt><trkpt lat="49.1855081" lon="5.5375094"><ele>223.33333333333334</ele><time>2026-03-22T15:58:55.11Z</time></trkpt><trkpt lat="49.1854282" lon="5.5374821"><ele>223.0</ele><time>2026-03-22T15:58:56.11Z</time></trkpt><trkpt lat="49.1853492" lon="5.5374567"><ele>222.66666666666669</ele><time>2026-03-22T15:58:57.11Z</time></trkpt><trkpt lat="49.1852711" lon="5.5374393"><ele>222.33333333333334</ele><time>2026-03-22T15:58:58.11Z</time></trkpt><trkpt lat="49.1851955" lon="5.5374322"><ele>222.0</ele><time>2026-03-22T15:58:59.11Z</time></trkpt><trkpt lat="49.1851237" lon="5.5374383"><ele>222.0</ele><time>2026-03-22T15:59:00.11Z</time></trkpt><trkpt lat="49.1850576" lon="5.5374597"><ele>222.0</ele><time>2026-03-22T15:59:01.11Z</time></trkpt><trkpt lat="49.1849649" lon="5.5375327"><ele>222.0</ele><time>2026-03-22T15:59:03.11Z</time></trkpt><trkpt lat="49.1848894" lon="5.5376034"><ele>222.0</ele><time>2026-03-22T15:59:05.11Z</time></trkpt><trkpt lat="49.184804" lon="5.5377165"><ele>222.0</ele><time>2026-03-22T15:59:07.111Z</time></trkpt><trkpt lat="49.1847216" lon="5.5378475"><ele>222.0</ele><time>2026-03-22T15:59:09.11Z</time></trkpt><trkpt lat="49.18465" lon="5.5379591"><ele>222.0</ele><time>2026-03-22T15:59:11.11Z</time></trkpt><trkpt lat="49.1846096" lon="5.5380399"><ele>222.0</ele><time>2026-03-22T15:59:13.11Z</time></trkpt><trkpt lat="49.1846719" lon="5.5380172"><ele>222.0</ele><time>2026-03-22T15:59:26.11Z</time></trkpt><trkpt lat="49.1847184" lon="5.5379427"><ele>222.0</ele><time>2026-03-22T15:59:28.111Z</time></trkpt><trkpt lat="49.1847974" lon="5.5378042"><ele>222.0</ele><time>2026-03-22T15:59:30.11Z</time></trkpt><trkpt lat="49.184855" lon="5.5377091"><ele>222.0</ele><time>2026-03-22T15:59:31.11Z</time></trkpt><trkpt lat="49.1849237" lon="5.5376133"><ele>222.0</ele><time>2026-03-22T15:59:32.11Z</time></trkpt><trkpt lat="49.1850022" lon="5.5375314"><ele>222.0</ele><time>2026-03-22T15:59:33.11Z</time></trkpt><trkpt lat="49.1850916" lon="5.5374814"><ele>222.0</ele><time>2026-03-22T15:59:34.11Z</time></trkpt><trkpt lat="49.1851906" lon="5.5374637"><ele>222.0</ele><time>2026-03-22T15:59:35.11Z</time></trkpt><trkpt lat="49.1852929" lon="5.5374768"><ele>222.0</ele><time>2026-03-22T15:59:36.111Z</time></trkpt><trkpt lat="49.1853991" lon="5.5375077"><ele>222.0</ele><time>2026-03-22T15:59:37.11Z</time></trkpt><trkpt lat="49.185511" lon="5.5375486"><ele>222.0</ele><time>2026-03-22T15:59:38.111Z</time></trkpt><trkpt lat="49.1856293" lon="5.5375934"><ele>222.0</ele><time>2026-03-22T15:59:39.11Z</time></trkpt><trkpt lat="49.185752" lon="5.5376409"><ele>222.5</ele><time>2026-03-22T15:59:40.111Z</time></trkpt><trkpt lat="49.1858754" lon="5.5376869"><ele>223.0</ele><time>2026-03-22T15:59:41.11Z</time></trkpt><trkpt lat="49.1859975" lon="5.5377268"><ele>223.5</ele><time>2026-03-22T15:59:42.11Z</time></trkpt><trkpt lat="49.1861151" lon="5.5377655"><ele>224.0</ele><time>2026-03-22T15:59:43.11Z</time></trkpt><trkpt lat="49.1862244" lon="5.5377982"><ele>224.0</ele><time>2026-03-22T15:59:44.11Z</time></trkpt><trkpt lat="49.186326" lon="5.5378311"><ele>223.99999999999997</ele><time>2026-03-22T15:59:45.111Z</time></trkpt><trkpt lat="49.1864202" lon="5.5378593"><ele>223.99999999999997</ele><time>2026-03-22T15:59:46.11Z</time></trkpt><trkpt lat="49.1865088" lon="5.537887"><ele>224.0</ele><time>2026-03-22T15:59:47.11Z</time></trkpt><trkpt lat="49.1865925" lon="5.5379144"><ele>224.0</ele><time>2026-03-22T15:59:48.11Z</time></trkpt><trkpt lat="49.1866731" lon="5.5379425"><ele>224.00000000000003</ele><time>2026-03-22T15:59:49.11Z</time></trkpt><trkpt lat="49.1867482" lon="5.5379633"><ele>224.0</ele><time>2026-03-22T15:59:50.11Z</time></trkpt><trkpt lat="49.1868136" lon="5.5379845"><ele>224.0</ele><time>2026-03-22T15:59:51.11Z</time></trkpt><trkpt lat="49.1869198" lon="5.5380189"><ele>224.0</ele><time>2026-03-22T15:59:53.11Z</time></trkpt><trkpt lat="49.1870291" lon="5.5380491"><ele>224.00000000000003</ele><time>2026-03-22T15:59:55.11Z</time></trkpt><trkpt lat="49.1870921" lon="5.5380685"><ele>224.0</ele><time>2026-03-22T15:59:56.11Z</time></trkpt><trkpt lat="49.187156" lon="5.5380889"><ele>224.00000000000003</ele><time>2026-03-22T15:59:57.11Z</time></trkpt><trkpt lat="49.1872194" lon="5.5381097"><ele>224.0</ele><time>2026-03-22T15:59:58.11Z</time></trkpt><trkpt lat="49.1873238" lon="5.5381532"><ele>224.0</ele><time>2026-03-22T16:00:00.11Z</time></trkpt><trkpt lat="49.1873943" lon="5.5381958"><ele>224.0</ele><time>2026-03-22T16:00:02.11Z</time></trkpt><trkpt lat="49.1874608" lon="5.5382507"><ele>224.00000000000003</ele><time>2026-03-22T16:00:05.11Z</time></trkpt><trkpt lat="49.1875215" lon="5.5383111"><ele>224.0</ele><time>2026-03-22T16:00:08.11Z</time></trkpt><trkpt lat="49.1874953" lon="5.5382028"><ele>224.00000000000003</ele><time>2026-03-22T16:00:13.11Z</time></trkpt><trkpt lat="49.187404" lon="5.5381519"><ele>224.0</ele><time>2026-03-22T16:00:15.11Z</time></trkpt><trkpt lat="49.1872782" lon="5.5380881"><ele>224.0</ele><time>2026-03-22T16:00:17.11Z</time></trkpt><trkpt lat="49.1872085" lon="5.5380616"><ele>224.0</ele><time>2026-03-22T16:00:18.11Z</time></trkpt><trkpt lat="49.1871376" lon="5.5380385"><ele>224.00000000000003</ele><time>2026-03-22T16:00:19.11Z</time></trkpt><trkpt lat="49.1870702" lon="5.5380192"><ele>224.0</ele><time>2026-03-22T16:00:20.11Z</time></trkpt><trkpt lat="49.1870073" lon="5.538001"><ele>224.00000000000003</ele><time>2026-03-22T16:00:21.11Z</time></trkpt><trkpt lat="49.1868975" lon="5.5379639"><ele>224.0</ele><time>2026-03-22T16:00:23.11Z</time></trkpt><trkpt lat="49.1868078" lon="5.537924"><ele>224.0</ele><time>2026-03-22T16:00:25.11Z</time></trkpt><trkpt lat="49.1867416" lon="5.5379004"><ele>224.0</ele><time>2026-03-22T16:00:27.11Z</time></trkpt><trkpt lat="49.1867908" lon="5.5379795"><ele>224.00000000000003</ele><time>2026-03-22T16:00:47.11Z</time></trkpt><trkpt lat="49.1868924" lon="5.5380069"><ele>224.0</ele><time>2026-03-22T16:00:49.11Z</time></trkpt><trkpt lat="49.187015" lon="5.5380433"><ele>224.0</ele><time>2026-03-22T16:00:51.11Z</time></trkpt><trkpt lat="49.1870838" lon="5.5380642"><ele>224.0</ele><time>2026-03-22T16:00:52.11Z</time></trkpt><trkpt lat="49.1871538" lon="5.5380869"><ele>224.0</ele><time>2026-03-22T16:00:53.11Z</time></trkpt><trkpt lat="49.1872233" lon="5.5381114"><ele>224.0</ele><time>2026-03-22T16:00:54.11Z</time></trkpt><trkpt lat="49.1872944" lon="5.5381425"><ele>224.0</ele><time>2026-03-22T16:00:55.11Z</time></trkpt><trkpt lat="49.187368" lon="5.538181"><ele>224.0</ele><time>2026-03-22T16:00:56.11Z</time></trkpt><trkpt lat="49.1874424" lon="5.5382285"><ele>224.0</ele><time>2026-03-22T16:00:57.11Z</time></trkpt><trkpt lat="49.1875193" lon="5.5382848"><ele>223.0</ele><time>2026-03-22T16:00:58.11Z</time></trkpt><trkpt lat="49.1875992" lon="5.5383511"><ele>221.99999999999997</ele><time>2026-03-22T16:00:59.11Z</time></trkpt><trkpt lat="49.1876823" lon="5.5384244"><ele>220.99999999999997</ele><time>2026-03-22T16:01:00.11Z</time></trkpt><trkpt lat="49.1877671" lon="5.5384979"><ele>220.0</ele><time>2026-03-22T16:01:01.11Z</time></trkpt><trkpt lat="49.1878554" lon="5.5385691"><ele>219.0</ele><time>2026-03-22T16:01:02.11Z</time></trkpt><trkpt lat="49.1879494" lon="5.5386273"><ele>219.0</ele><time>2026-03-22T16:01:03.11Z</time></trkpt><trkpt lat="49.1880485" lon="5.538667"><ele>218.99999999999997</ele><time>2026-03-22T16:01:04.11Z</time></trkpt><trkpt lat="49.1881507" lon="5.538687"><ele>218.99999999999997</ele><time>2026-03-22T16:01:05.111Z</time></trkpt><trkpt lat="49.188257" lon="5.538689"><ele>219.0</ele><time>2026-03-22T16:01:06.11Z</time></trkpt><trkpt lat="49.1883645" lon="5.5386748"><ele>219.0</ele><time>2026-03-22T16:01:07.11Z</time></trkpt><trkpt lat="49.1884718" lon="5.5386542"><ele>218.6</ele><time>2026-03-22T16:01:08.11Z</time></trkpt><trkpt lat="49.1885785" lon="5.5386295"><ele>218.2</ele><time>2026-03-22T16:01:09.11Z</time></trkpt><trkpt lat="49.1886839" lon="5.5386079"><ele>217.79999999999998</ele><time>2026-03-22T16:01:10.11Z</time></trkpt><trkpt lat="49.1887873" lon="5.5386009"><ele>217.39999999999998</ele><time>2026-03-22T16:01:11.111Z</time></trkpt><trkpt lat="49.1888888" lon="5.538621"><ele>217.0</ele><time>2026-03-22T16:01:12.11Z</time></trkpt><trkpt lat="49.188987" lon="5.5386724"><ele>217.0</ele><time>2026-03-22T16:01:13.11Z</time></trkpt><trkpt lat="49.1890778" lon="5.5387514"><ele>217.0</ele><time>2026-03-22T16:01:14.11Z</time></trkpt><trkpt lat="49.1891635" lon="5.5388539"><ele>217.0</ele><time>2026-03-22T16:01:15.11Z</time></trkpt><trkpt lat="49.1892456" lon="5.5389638"><ele>217.0</ele><time>2026-03-22T16:01:16.11Z</time></trkpt><trkpt lat="49.1893309" lon="5.5390626"><ele>217.0</ele><time>2026-03-22T16:01:17.11Z</time></trkpt><trkpt lat="49.1894256" lon="5.5391396"><ele>217.0</ele><time>2026-03-22T16:01:18.11Z</time></trkpt><trkpt lat="49.1895256" lon="5.5391979"><ele>217.0</ele><time>2026-03-22T16:01:19.11Z</time></trkpt><trkpt lat="49.1896287" lon="5.5392425"><ele>217.0</ele><time>2026-03-22T16:01:20.11Z</time></trkpt><trkpt lat="49.1897335" lon="5.5392739"><ele>217.0</ele><time>2026-03-22T16:01:21.11Z</time></trkpt><trkpt lat="49.1898401" lon="5.5392977"><ele>217.0</ele><time>2026-03-22T16:01:22.11Z</time></trkpt><trkpt lat="49.1899466" lon="5.5393141"><ele>217.39999999999998</ele><time>2026-03-22T16:01:23.111Z</time></trkpt><trkpt lat="49.1900535" lon="5.5393176"><ele>217.79999999999998</ele><time>2026-03-22T16:01:24.11Z</time></trkpt><trkpt lat="49.190158" lon="5.539312"><ele>218.2</ele><time>2026-03-22T16:01:25.11Z</time></trkpt><trkpt lat="49.1902593" lon="5.5392989"><ele>218.6</ele><time>2026-03-22T16:01:26.11Z</time></trkpt><trkpt lat="49.1903595" lon="5.5392785"><ele>219.0</ele><time>2026-03-22T16:01:27.11Z</time></trkpt><trkpt lat="49.1904585" lon="5.5392521"><ele>219.0</ele><time>2026-03-22T16:01:28.11Z</time></trkpt><trkpt lat="49.190556" lon="5.5392216"><ele>218.99999999999997</ele><time>2026-03-22T16:01:29.11Z</time></trkpt><trkpt lat="49.1906522" lon="5.5391887"><ele>218.99999999999997</ele><time>2026-03-22T16:01:30.11Z</time></trkpt><trkpt lat="49.1907464" lon="5.5391616"><ele>219.0</ele><time>2026-03-22T16:01:31.111Z</time></trkpt><trkpt lat="49.1908386" lon="5.5391475"><ele>219.0</ele><time>2026-03-22T16:01:32.111Z</time></trkpt><trkpt lat="49.1909283" lon="5.5391576"><ele>219.0</ele><time>2026-03-22T16:01:33.11Z</time></trkpt><trkpt lat="49.1910103" lon="5.5392009"><ele>219.0</ele><time>2026-03-22T16:01:34.11Z</time></trkpt><trkpt lat="49.1910838" lon="5.5392724"><ele>219.0</ele><time>2026-03-22T16:01:35.11Z</time></trkpt><trkpt lat="49.191145" lon="5.5393693"><ele>219.0</ele><time>2026-03-22T16:01:36.11Z</time></trkpt><trkpt lat="49.1911814" lon="5.5394896"><ele>219.0</ele><time>2026-03-22T16:01:37.111Z</time></trkpt><trkpt lat="49.1911998" lon="5.5396255"><ele>219.0</ele><time>2026-03-22T16:01:38.11Z</time></trkpt><trkpt lat="49.1912131" lon="5.5397719"><ele>219.0</ele><time>2026-03-22T16:01:39.11Z</time></trkpt><trkpt lat="49.1912273" lon="5.53992"><ele>218.99999999999997</ele><time>2026-03-22T16:01:40.11Z</time></trkpt><trkpt lat="49.1912441" lon="5.5400684"><ele>218.99999999999997</ele><time>2026-03-22T16:01:41.11Z</time></trkpt><trkpt lat="49.1912662" lon="5.5402196"><ele>219.0</ele><time>2026-03-22T16:01:42.11Z</time></trkpt><trkpt lat="49.1912967" lon="5.5403653"><ele>219.0</ele><time>2026-03-22T16:01:43.11Z</time></trkpt><trkpt lat="49.1913293" lon="5.5405102"><ele>219.39999999999998</ele><time>2026-03-22T16:01:44.111Z</time></trkpt><trkpt lat="49.1913643" lon="5.5406562"><ele>219.79999999999998</ele><time>2026-03-22T16:01:45.11Z</time></trkpt><trkpt lat="49.191407" lon="5.540795"><ele>220.20000000000002</ele><time>2026-03-22T16:01:46.11Z</time></trkpt><trkpt lat="49.1914534" lon="5.5409259"><ele>220.60000000000002</ele><time>2026-03-22T16:01:47.111Z</time></trkpt><trkpt lat="49.1915066" lon="5.5410433"><ele>221.0</ele><time>2026-03-22T16:01:48.11Z</time></trkpt><trkpt lat="49.1915672" lon="5.5411495"><ele>222.66666666666669</ele><time>2026-03-22T16:01:49.11Z</time></trkpt><trkpt lat="49.1916336" lon="5.5412423"><ele>224.33333333333334</ele><time>2026-03-22T16:01:50.11Z</time></trkpt><trkpt lat="49.1917071" lon="5.5413176"><ele>226.0</ele><time>2026-03-22T16:01:51.111Z</time></trkpt><trkpt lat="49.1917844" lon="5.5413813"><ele>227.66666666666669</ele><time>2026-03-22T16:01:52.11Z</time></trkpt><trkpt lat="49.1918655" lon="5.541437"><ele>229.33333333333334</ele><time>2026-03-22T16:01:53.11Z</time></trkpt><trkpt lat="49.191951" lon="5.5414857"><ele>231.0</ele><time>2026-03-22T16:01:54.111Z</time></trkpt><trkpt lat="49.1920398" lon="5.5415259"><ele>231.0</ele><time>2026-03-22T16:01:55.11Z</time></trkpt><trkpt lat="49.1921319" lon="5.5415544"><ele>231.00000000000003</ele><time>2026-03-22T16:01:56.11Z</time></trkpt><trkpt lat="49.1922309" lon="5.5415768"><ele>231.00000000000003</ele><time>2026-03-22T16:01:57.11Z</time></trkpt><trkpt lat="49.1923346" lon="5.5415898"><ele>231.0</ele><time>2026-03-22T16:01:58.11Z</time></trkpt><trkpt lat="49.1924378" lon="5.5415936"><ele>231.0</ele><time>2026-03-22T16:01:59.11Z</time></trkpt><trkpt lat="49.1925395" lon="5.5415932"><ele>229.4</ele><time>2026-03-22T16:02:00.11Z</time></trkpt><trkpt lat="49.1926432" lon="5.54159"><ele>227.8</ele><time>2026-03-22T16:02:01.11Z</time></trkpt><trkpt lat="49.192748" lon="5.54158"><ele>226.20000000000002</ele><time>2026-03-22T16:02:02.11Z</time></trkpt><trkpt lat="49.192853" lon="5.5415544"><ele>224.60000000000002</ele><time>2026-03-22T16:02:03.11Z</time></trkpt><trkpt lat="49.1929575" lon="5.5415176"><ele>223.0</ele><time>2026-03-22T16:02:04.11Z</time></trkpt><trkpt lat="49.1930608" lon="5.5414725"><ele>223.0</ele><time>2026-03-22T16:02:05.11Z</time></trkpt><trkpt lat="49.1931619" lon="5.5414258"><ele>223.0</ele><time>2026-03-22T16:02:06.11Z</time></trkpt><trkpt lat="49.1932624" lon="5.5413805"><ele>223.0</ele><time>2026-03-22T16:02:07.111Z</time></trkpt><trkpt lat="49.1933636" lon="5.5413374"><ele>223.0</ele><time>2026-03-22T16:02:08.11Z</time></trkpt><trkpt lat="49.1934632" lon="5.5413008"><ele>223.0</ele><time>2026-03-22T16:02:09.11Z</time></trkpt><trkpt lat="49.1935634" lon="5.5412726"><ele>222.60000000000002</ele><time>2026-03-22T16:02:10.11Z</time></trkpt><trkpt lat="49.1936638" lon="5.5412566"><ele>222.20000000000002</ele><time>2026-03-22T16:02:11.11Z</time></trkpt><trkpt lat="49.1937633" lon="5.5412478"><ele>221.8</ele><time>2026-03-22T16:02:12.11Z</time></trkpt><trkpt lat="49.1938617" lon="5.5412426"><ele>221.4</ele><time>2026-03-22T16:02:13.111Z</time></trkpt><trkpt lat="49.1939601" lon="5.5412377"><ele>221.0</ele><time>2026-03-22T16:02:14.11Z</time></trkpt><trkpt lat="49.194057" lon="5.5412247"><ele>220.8</ele><time>2026-03-22T16:02:15.111Z</time></trkpt><trkpt lat="49.1941492" lon="5.541195"><ele>220.60000000000002</ele><time>2026-03-22T16:02:16.11Z</time></trkpt><trkpt lat="49.1942382" lon="5.541152"><ele>220.4</ele><time>2026-03-22T16:02:17.11Z</time></trkpt><trkpt lat="49.1943261" lon="5.5410945"><ele>220.2</ele><time>2026-03-22T16:02:18.11Z</time></trkpt><trkpt lat="49.1944126" lon="5.5410203"><ele>220.0</ele><time>2026-03-22T16:02:19.11Z</time></trkpt><trkpt lat="49.1944971" lon="5.5409379"><ele>220.0</ele><time>2026-03-22T16:02:20.111Z</time></trkpt><trkpt lat="49.1945818" lon="5.5408509"><ele>220.0</ele><time>2026-03-22T16:02:21.11Z</time></trkpt><trkpt lat="49.1946685" lon="5.5407614"><ele>220.0</ele><time>2026-03-22T16:02:22.11Z</time></trkpt><trkpt lat="49.1947553" lon="5.5406751"><ele>220.0</ele><time>2026-03-22T16:02:23.11Z</time></trkpt><trkpt lat="49.1948435" lon="5.540593"><ele>220.0</ele><time>2026-03-22T16:02:24.11Z</time></trkpt><trkpt lat="49.1949343" lon="5.5405155"><ele>220.8</ele><time>2026-03-22T16:02:25.111Z</time></trkpt><trkpt lat="49.1950263" lon="5.5404427"><ele>221.6</ele><time>2026-03-22T16:02:26.11Z</time></trkpt><trkpt lat="49.1951188" lon="5.5403709"><ele>222.39999999999998</ele><time>2026-03-22T16:02:27.11Z</time></trkpt><trkpt lat="49.1952121" lon="5.5403037"><ele>223.2</ele><time>2026-03-22T16:02:28.11Z</time></trkpt><trkpt lat="49.1953074" lon="5.5402429"><ele>224.0</ele><time>2026-03-22T16:02:29.11Z</time></trkpt><trkpt lat="49.195404" lon="5.5401878"><ele>224.0</ele><time>2026-03-22T16:02:30.11Z</time></trkpt><trkpt lat="49.1955012" lon="5.5401351"><ele>223.99999999999997</ele><time>2026-03-22T16:02:31.11Z</time></trkpt><trkpt lat="49.1955993" lon="5.5400884"><ele>223.99999999999997</ele><time>2026-03-22T16:02:32.111Z</time></trkpt><trkpt lat="49.1956943" lon="5.5400433"><ele>224.0</ele><time>2026-03-22T16:02:33.11Z</time></trkpt><trkpt lat="49.1957867" lon="5.5400014"><ele>224.0</ele><time>2026-03-22T16:02:34.11Z</time></trkpt><trkpt lat="49.1958805" lon="5.5399601"><ele>224.6</ele><time>2026-03-22T16:02:35.11Z</time></trkpt><trkpt lat="49.1959729" lon="5.5399195"><ele>225.2</ele><time>2026-03-22T16:02:36.11Z</time></trkpt><trkpt lat="49.1960629" lon="5.5398769"><ele>225.79999999999998</ele><time>2026-03-22T16:02:37.11Z</time></trkpt><trkpt lat="49.1961531" lon="5.5398326"><ele>226.39999999999998</ele><time>2026-03-22T16:02:38.111Z</time></trkpt><trkpt lat="49.1962423" lon="5.5397897"><ele>227.0</ele><time>2026-03-22T16:02:39.11Z</time></trkpt><trkpt lat="49.1963365" lon="5.5397519"><ele>227.00000000000003</ele><time>2026-03-22T16:02:40.11Z</time></trkpt><trkpt lat="49.196431" lon="5.5397162"><ele>227.0</ele><time>2026-03-22T16:02:41.11Z</time></trkpt><trkpt lat="49.1965252" lon="5.5396842"><ele>227.0</ele><time>2026-03-22T16:02:42.111Z</time></trkpt><trkpt lat="49.1966176" lon="5.5396569"><ele>227.0</ele><time>2026-03-22T16:02:43.11Z</time></trkpt><trkpt lat="49.1967" lon="5.5396355"><ele>227.00000000000003</ele><time>2026-03-22T16:02:44.11Z</time></trkpt><trkpt lat="49.1967637" lon="5.5396437"><ele>227.0</ele><time>2026-03-22T16:02:45.11Z</time></trkpt><trkpt lat="49.1968255" lon="5.5396964"><ele>227.16666666666669</ele><time>2026-03-22T16:02:47.11Z</time></trkpt><trkpt lat="49.1968963" lon="5.5396109"><ele>227.33333333333334</ele><time>2026-03-22T16:02:50.11Z</time></trkpt><trkpt lat="49.196999" lon="5.5395539"><ele>227.5</ele><time>2026-03-22T16:02:52.11Z</time></trkpt><trkpt lat="49.1970718" lon="5.5395318"><ele>227.66666666666669</ele><time>2026-03-22T16:02:53.11Z</time></trkpt><trkpt lat="49.1971452" lon="5.5395142"><ele>227.83333333333334</ele><time>2026-03-22T16:02:54.11Z</time></trkpt><trkpt lat="49.1972129" lon="5.5395067"><ele>228.0</ele><time>2026-03-22T16:02:55.11Z</time></trkpt><trkpt lat="49.1972975" lon="5.5395324"><ele>228.60000000000002</ele><time>2026-03-22T16:02:57.11Z</time></trkpt><trkpt lat="49.1973475" lon="5.5396332"><ele>229.20000000000002</ele><time>2026-03-22T16:03:00.11Z</time></trkpt><trkpt lat="49.1973599" lon="5.5398069"><ele>229.8</ele><time>2026-03-22T16:03:02.11Z</time></trkpt><trkpt lat="49.1973642" lon="5.5399258"><ele>230.4</ele><time>2026-03-22T16:03:03.11Z</time></trkpt><trkpt lat="49.1973702" lon="5.5400587"><ele>231.0</ele><time>2026-03-22T16:03:04.11Z</time></trkpt><trkpt lat="49.1973768" lon="5.5402041"><ele>231.0</ele><time>2026-03-22T16:03:05.11Z</time></trkpt><trkpt lat="49.197384" lon="5.5403515"><ele>231.00000000000003</ele><time>2026-03-22T16:03:06.11Z</time></trkpt><trkpt lat="49.1973929" lon="5.5404979"><ele>231.00000000000003</ele><time>2026-03-22T16:03:07.11Z</time></trkpt><trkpt lat="49.1974032" lon="5.5406443"><ele>231.0</ele><time>2026-03-22T16:03:08.111Z</time></trkpt><trkpt lat="49.1974089" lon="5.540789"><ele>231.0</ele><time>2026-03-22T16:03:09.11Z</time></trkpt><trkpt lat="49.1974023" lon="5.5409335"><ele>231.0</ele><time>2026-03-22T16:03:10.11Z</time></trkpt><trkpt lat="49.1973918" lon="5.5410622"><ele>231.00000000000003</ele><time>2026-03-22T16:03:11.11Z</time></trkpt><trkpt lat="49.1973887" lon="5.5411742"><ele>231.00000000000003</ele><time>2026-03-22T16:03:12.11Z</time></trkpt><trkpt lat="49.1973989" lon="5.5413401"><ele>231.0</ele><time>2026-03-22T16:03:14.11Z</time></trkpt><trkpt lat="49.1974146" lon="5.5414757"><ele>231.0</ele><time>2026-03-22T16:03:16.11Z</time></trkpt><trkpt lat="49.197424" lon="5.5416247"><ele>231.0</ele><time>2026-03-22T16:03:18.11Z</time></trkpt><trkpt lat="49.1974434" lon="5.541813"><ele>231.00000000000003</ele><time>2026-03-22T16:03:20.111Z</time></trkpt><trkpt lat="49.1974631" lon="5.5419339"><ele>231.00000000000003</ele><time>2026-03-22T16:03:21.11Z</time></trkpt><trkpt lat="49.1974894" lon="5.5420772"><ele>231.0</ele><time>2026-03-22T16:03:22.11Z</time></trkpt><trkpt lat="49.197522" lon="5.5422348"><ele>231.0</ele><time>2026-03-22T16:03:23.11Z</time></trkpt><trkpt lat="49.1975608" lon="5.5424014"><ele>231.0</ele><time>2026-03-22T16:03:24.11Z</time></trkpt><trkpt lat="49.1975984" lon="5.5425638"><ele>231.0</ele><time>2026-03-22T16:03:25.11Z</time></trkpt><trkpt lat="49.1976357" lon="5.5427102"><ele>231.0</ele><time>2026-03-22T16:03:26.11Z</time></trkpt><trkpt lat="49.1976717" lon="5.5428324"><ele>231.0</ele><time>2026-03-22T16:03:27.11Z</time></trkpt><trkpt lat="49.1976927" lon="5.5429391"><ele>231.0</ele><time>2026-03-22T16:03:28.11Z</time></trkpt><trkpt lat="49.1976933" lon="5.5430383"><ele>231.0</ele><time>2026-03-22T16:03:29.11Z</time></trkpt><trkpt lat="49.1976185" lon="5.5431906"><ele>231.0</ele><time>2026-03-22T16:03:31.11Z</time></trkpt><trkpt lat="49.1975494" lon="5.5432415"><ele>231.00000000000003</ele><time>2026-03-22T16:03:32.11Z</time></trkpt><trkpt lat="49.1974655" lon="5.5432972"><ele>231.00000000000003</ele><time>2026-03-22T16:03:33.11Z</time></trkpt><trkpt lat="49.1973718" lon="5.5433614"><ele>231.0</ele><time>2026-03-22T16:03:34.111Z</time></trkpt><trkpt lat="49.1972704" lon="5.5434352"><ele>231.0</ele><time>2026-03-22T16:03:35.11Z</time></trkpt><trkpt lat="49.1971624" lon="5.5435124"><ele>230.25</ele><time>2026-03-22T16:03:36.11Z</time></trkpt><trkpt lat="49.1970481" lon="5.5435942"><ele>229.5</ele><time>2026-03-22T16:03:37.11Z</time></trkpt><trkpt lat="49.1969317" lon="5.5436791"><ele>228.75</ele><time>2026-03-22T16:03:38.111Z</time></trkpt><trkpt lat="49.196817" lon="5.5437636"><ele>228.0</ele><time>2026-03-22T16:03:39.11Z</time></trkpt><trkpt lat="49.1967029" lon="5.5438481"><ele>227.75</ele><time>2026-03-22T16:03:40.11Z</time></trkpt><trkpt lat="49.1965898" lon="5.5439316"><ele>227.5</ele><time>2026-03-22T16:03:41.11Z</time></trkpt><trkpt lat="49.1964773" lon="5.544016"><ele>227.25</ele><time>2026-03-22T16:03:42.111Z</time></trkpt><trkpt lat="49.1963674" lon="5.5440981"><ele>227.0</ele><time>2026-03-22T16:03:43.11Z</time></trkpt><trkpt lat="49.1962591" lon="5.544177"><ele>226.5</ele><time>2026-03-22T16:03:44.11Z</time></trkpt><trkpt lat="49.1961549" lon="5.5442596"><ele>226.0</ele><time>2026-03-22T16:03:45.11Z</time></trkpt><trkpt lat="49.1960472" lon="5.5443405"><ele>225.5</ele><time>2026-03-22T16:03:46.11Z</time></trkpt><trkpt lat="49.1959402" lon="5.5444153"><ele>225.0</ele><time>2026-03-22T16:03:47.11Z</time></trkpt><trkpt lat="49.1958342" lon="5.5444928"><ele>225.5</ele><time>2026-03-22T16:03:48.11Z</time></trkpt><trkpt lat="49.1957291" lon="5.5445819"><ele>226.0</ele><time>2026-03-22T16:03:49.11Z</time></trkpt><trkpt lat="49.1956214" lon="5.5446648"><ele>226.5</ele><time>2026-03-22T16:03:50.11Z</time></trkpt><trkpt lat="49.1955107" lon="5.5447428"><ele>227.0</ele><time>2026-03-22T16:03:51.11Z</time></trkpt><trkpt lat="49.1954004" lon="5.5448202"><ele>227.0</ele><time>2026-03-22T16:03:52.11Z</time></trkpt><trkpt lat="49.1952944" lon="5.5448965"><ele>227.0</ele><time>2026-03-22T16:03:53.11Z</time></trkpt><trkpt lat="49.1951895" lon="5.5449761"><ele>227.0</ele><time>2026-03-22T16:03:54.11Z</time></trkpt><trkpt lat="49.1950845" lon="5.5450542"><ele>227.0</ele><time>2026-03-22T16:03:55.11Z</time></trkpt><trkpt lat="49.1949834" lon="5.5451337"><ele>227.0</ele><time>2026-03-22T16:03:56.11Z</time></trkpt><trkpt lat="49.194884" lon="5.5452051"><ele>227.0</ele><time>2026-03-22T16:03:57.11Z</time></trkpt><trkpt lat="49.1947956" lon="5.5452675"><ele>227.0</ele><time>2026-03-22T16:03:58.11Z</time></trkpt><trkpt lat="49.1947168" lon="5.5453306"><ele>227.0</ele><time>2026-03-22T16:03:59.11Z</time></trkpt><trkpt lat="49.1946549" lon="5.5454143"><ele>227.0</ele><time>2026-03-22T16:04:00.11Z</time></trkpt><trkpt lat="49.1946132" lon="5.5455271"><ele>227.0</ele><time>2026-03-22T16:04:01.111Z</time></trkpt><trkpt lat="49.1945902" lon="5.5456597"><ele>227.0</ele><time>2026-03-22T16:04:02.11Z</time></trkpt><trkpt lat="49.1945746" lon="5.5457974"><ele>227.0</ele><time>2026-03-22T16:04:03.11Z</time></trkpt><trkpt lat="49.1945577" lon="5.5459417"><ele>227.0</ele><time>2026-03-22T16:04:04.11Z</time></trkpt><trkpt lat="49.1945404" lon="5.5460869"><ele>227.0</ele><time>2026-03-22T16:04:05.11Z</time></trkpt><trkpt lat="49.1945226" lon="5.5462352"><ele>227.0</ele><time>2026-03-22T16:04:06.111Z</time></trkpt><trkpt lat="49.1945061" lon="5.5463796"><ele>227.0</ele><time>2026-03-22T16:04:07.111Z</time></trkpt><trkpt lat="49.194489" lon="5.5465272"><ele>227.0</ele><time>2026-03-22T16:04:08.11Z</time></trkpt><trkpt lat="49.1944706" lon="5.5466722"><ele>227.0</ele><time>2026-03-22T16:04:09.11Z</time></trkpt><trkpt lat="49.1944512" lon="5.5468234"><ele>227.0</ele><time>2026-03-22T16:04:10.11Z</time></trkpt><trkpt lat="49.1944359" lon="5.5469712"><ele>227.2</ele><time>2026-03-22T16:04:11.111Z</time></trkpt><trkpt lat="49.1944228" lon="5.547112"><ele>227.39999999999998</ele><time>2026-03-22T16:04:12.11Z</time></trkpt><trkpt lat="49.1944084" lon="5.5472487"><ele>227.60000000000002</ele><time>2026-03-22T16:04:13.11Z</time></trkpt><trkpt lat="49.1943956" lon="5.5473875"><ele>227.8</ele><time>2026-03-22T16:04:14.11Z</time></trkpt><trkpt lat="49.19438" lon="5.5475357"><ele>228.0</ele><time>2026-03-22T16:04:15.11Z</time></trkpt><trkpt lat="49.1943682" lon="5.5476868"><ele>228.0</ele><time>2026-03-22T16:04:16.11Z</time></trkpt><trkpt lat="49.1943583" lon="5.5478396"><ele>228.0</ele><time>2026-03-22T16:04:17.11Z</time></trkpt><trkpt lat="49.194346" lon="5.5479947"><ele>228.0</ele><time>2026-03-22T16:04:18.11Z</time></trkpt><trkpt lat="49.1943344" lon="5.5481521"><ele>228.0</ele><time>2026-03-22T16:04:19.11Z</time></trkpt><trkpt lat="49.1943256" lon="5.5483116"><ele>228.0</ele><time>2026-03-22T16:04:20.111Z</time></trkpt><trkpt lat="49.1943207" lon="5.5484672"><ele>228.0</ele><time>2026-03-22T16:04:21.11Z</time></trkpt><trkpt lat="49.1943149" lon="5.5486211"><ele>228.0</ele><time>2026-03-22T16:04:22.11Z</time></trkpt><trkpt lat="49.1943072" lon="5.5487736"><ele>228.0</ele><time>2026-03-22T16:04:23.11Z</time></trkpt><trkpt lat="49.1943004" lon="5.5489289"><ele>228.0</ele><time>2026-03-22T16:04:24.111Z</time></trkpt><trkpt lat="49.1942963" lon="5.5490857"><ele>228.0</ele><time>2026-03-22T16:04:25.11Z</time></trkpt><trkpt lat="49.1942941" lon="5.5492419"><ele>227.8</ele><time>2026-03-22T16:04:26.11Z</time></trkpt><trkpt lat="49.194294" lon="5.5493964"><ele>227.60000000000002</ele><time>2026-03-22T16:04:27.11Z</time></trkpt><trkpt lat="49.1942941" lon="5.5495493"><ele>227.39999999999998</ele><time>2026-03-22T16:04:28.11Z</time></trkpt><trkpt lat="49.1942944" lon="5.5497044"><ele>227.2</ele><time>2026-03-22T16:04:29.11Z</time></trkpt><trkpt lat="49.1942968" lon="5.549861"><ele>227.0</ele><time>2026-03-22T16:04:30.11Z</time></trkpt><trkpt lat="49.1943019" lon="5.5500169"><ele>227.0</ele><time>2026-03-22T16:04:31.11Z</time></trkpt><trkpt lat="49.1943069" lon="5.5501758"><ele>227.0</ele><time>2026-03-22T16:04:32.11Z</time></trkpt><trkpt lat="49.1943121" lon="5.5503375"><ele>227.0</ele><time>2026-03-22T16:04:33.11Z</time></trkpt><trkpt lat="49.1943182" lon="5.5504984"><ele>227.0</ele><time>2026-03-22T16:04:34.111Z</time></trkpt><trkpt lat="49.1943219" lon="5.5506586"><ele>227.0</ele><time>2026-03-22T16:04:35.11Z</time></trkpt><trkpt lat="49.1943244" lon="5.5508114"><ele>227.0</ele><time>2026-03-22T16:04:36.11Z</time></trkpt><trkpt lat="49.1943249" lon="5.5509581"><ele>227.0</ele><time>2026-03-22T16:04:37.11Z</time></trkpt><trkpt lat="49.1943241" lon="5.5511033"><ele>227.0</ele><time>2026-03-22T16:04:38.11Z</time></trkpt><trkpt lat="49.1943231" lon="5.5512485"><ele>227.0</ele><time>2026-03-22T16:04:39.11Z</time></trkpt><trkpt lat="49.1943216" lon="5.5513942"><ele>227.0</ele><time>2026-03-22T16:04:40.11Z</time></trkpt><trkpt lat="49.1943213" lon="5.5515388"><ele>227.0</ele><time>2026-03-22T16:04:41.11Z</time></trkpt><trkpt lat="49.1943236" lon="5.5516799"><ele>227.0</ele><time>2026-03-22T16:04:42.11Z</time></trkpt><trkpt lat="49.1943265" lon="5.5518189"><ele>227.0</ele><time>2026-03-22T16:04:43.11Z</time></trkpt><trkpt lat="49.1943306" lon="5.5519563"><ele>227.0</ele><time>2026-03-22T16:04:44.111Z</time></trkpt><trkpt lat="49.1943358" lon="5.5520965"><ele>227.0</ele><time>2026-03-22T16:04:45.11Z</time></trkpt><trkpt lat="49.1943407" lon="5.5522362"><ele>227.0</ele><time>2026-03-22T16:04:46.11Z</time></trkpt><trkpt lat="49.1943457" lon="5.552376"><ele>227.0</ele><time>2026-03-22T16:04:47.11Z</time></trkpt><trkpt lat="49.1943506" lon="5.5525158"><ele>227.0</ele><time>2026-03-22T16:04:48.111Z</time></trkpt><trkpt lat="49.1943561" lon="5.5526571"><ele>227.0</ele><time>2026-03-22T16:04:49.11Z</time></trkpt><trkpt lat="49.1943616" lon="5.5527984"><ele>227.0</ele><time>2026-03-22T16:04:50.11Z</time></trkpt><trkpt lat="49.1943679" lon="5.5529403"><ele>227.0</ele><time>2026-03-22T16:04:51.11Z</time></trkpt><trkpt lat="49.1943749" lon="5.5530801"><ele>227.0</ele><time>2026-03-22T16:04:52.11Z</time></trkpt><trkpt lat="49.1943821" lon="5.5532214"><ele>227.0</ele><time>2026-03-22T16:04:53.11Z</time></trkpt><trkpt lat="49.1943884" lon="5.5533637"><ele>227.0</ele><time>2026-03-22T16:04:54.11Z</time></trkpt><trkpt lat="49.1943964" lon="5.5535078"><ele>227.0</ele><time>2026-03-22T16:04:55.11Z</time></trkpt><trkpt lat="49.1944059" lon="5.5536513"><ele>227.2</ele><time>2026-03-22T16:04:56.11Z</time></trkpt><trkpt lat="49.1944134" lon="5.5537999"><ele>227.39999999999998</ele><time>2026-03-22T16:04:57.11Z</time></trkpt><trkpt lat="49.1944173" lon="5.5539445"><ele>227.60000000000002</ele><time>2026-03-22T16:04:58.11Z</time></trkpt><trkpt lat="49.1944188" lon="5.5540848"><ele>227.8</ele><time>2026-03-22T16:04:59.11Z</time></trkpt><trkpt lat="49.1944199" lon="5.5542243"><ele>228.0</ele><time>2026-03-22T16:05:00.11Z</time></trkpt><trkpt lat="49.1944212" lon="5.5543663"><ele>228.0</ele><time>2026-03-22T16:05:01.11Z</time></trkpt><trkpt lat="49.19442" lon="5.5545089"><ele>228.0</ele><time>2026-03-22T16:05:02.11Z</time></trkpt><trkpt lat="49.1944137" lon="5.5546501"><ele>228.0</ele><time>2026-03-22T16:05:03.11Z</time></trkpt><trkpt lat="49.1944017" lon="5.5547903"><ele>228.0</ele><time>2026-03-22T16:05:04.11Z</time></trkpt><trkpt lat="49.1943872" lon="5.5549315"><ele>228.0</ele><time>2026-03-22T16:05:05.111Z</time></trkpt><trkpt lat="49.194371" lon="5.555073"><ele>227.83333333333334</ele><time>2026-03-22T16:05:06.11Z</time></trkpt><trkpt lat="49.1943545" lon="5.5552122"><ele>227.66666666666669</ele><time>2026-03-22T16:05:07.11Z</time></trkpt><trkpt lat="49.1943391" lon="5.5553478"><ele>227.5</ele><time>2026-03-22T16:05:08.11Z</time></trkpt><trkpt lat="49.1943233" lon="5.555481"><ele>227.33333333333334</ele><time>2026-03-22T16:05:09.11Z</time></trkpt><trkpt lat="49.1943062" lon="5.5556142"><ele>227.16666666666669</ele><time>2026-03-22T16:05:10.11Z</time></trkpt><trkpt lat="49.1942907" lon="5.5557481"><ele>227.0</ele><time>2026-03-22T16:05:11.111Z</time></trkpt><trkpt lat="49.1942752" lon="5.5558825"><ele>227.00000000000003</ele><time>2026-03-22T16:05:12.11Z</time></trkpt><trkpt lat="49.1942597" lon="5.5560153"><ele>227.0</ele><time>2026-03-22T16:05:13.11Z</time></trkpt><trkpt lat="49.1942435" lon="5.5561487"><ele>227.0</ele><time>2026-03-22T16:05:14.11Z</time></trkpt><trkpt lat="49.1942281" lon="5.5562805"><ele>227.0</ele><time>2026-03-22T16:05:15.11Z</time></trkpt><trkpt lat="49.1942132" lon="5.5564134"><ele>227.00000000000003</ele><time>2026-03-22T16:05:16.11Z</time></trkpt><trkpt lat="49.1941979" lon="5.5565443"><ele>227.0</ele><time>2026-03-22T16:05:17.11Z</time></trkpt><trkpt lat="49.1941813" lon="5.5566749"><ele>226.83333333333334</ele><time>2026-03-22T16:05:18.11Z</time></trkpt><trkpt lat="49.1941635" lon="5.5568087"><ele>226.66666666666669</ele><time>2026-03-22T16:05:19.11Z</time></trkpt><trkpt lat="49.1941467" lon="5.5569423"><ele>226.5</ele><time>2026-03-22T16:05:20.11Z</time></trkpt><trkpt lat="49.1941308" lon="5.5570732"><ele>226.33333333333331</ele><time>2026-03-22T16:05:21.11Z</time></trkpt><trkpt lat="49.1941152" lon="5.5572029"><ele>226.16666666666666</ele><time>2026-03-22T16:05:22.11Z</time></trkpt><trkpt lat="49.1940995" lon="5.5573354"><ele>226.0</ele><time>2026-03-22T16:05:23.11Z</time></trkpt><trkpt lat="49.1940825" lon="5.5574679"><ele>225.99999999999997</ele><time>2026-03-22T16:05:24.111Z</time></trkpt><trkpt lat="49.1940667" lon="5.5575975"><ele>226.0</ele><time>2026-03-22T16:05:25.11Z</time></trkpt><trkpt lat="49.1940551" lon="5.5577224"><ele>226.0</ele><time>2026-03-22T16:05:26.11Z</time></trkpt><trkpt lat="49.1940464" lon="5.5578404"><ele>226.0</ele><time>2026-03-22T16:05:27.11Z</time></trkpt><trkpt lat="49.1940416" lon="5.5579527"><ele>225.99999999999997</ele><time>2026-03-22T16:05:28.11Z</time></trkpt><trkpt lat="49.1940382" lon="5.5580575"><ele>226.0</ele><time>2026-03-22T16:05:29.11Z</time></trkpt><trkpt lat="49.1940342" lon="5.5581577"><ele>226.0</ele><time>2026-03-22T16:05:30.11Z</time></trkpt><trkpt lat="49.1940267" lon="5.5583398"><ele>226.00000000000003</ele><time>2026-03-22T16:05:32.11Z</time></trkpt><trkpt lat="49.1940158" lon="5.5585129"><ele>226.00000000000003</ele><time>2026-03-22T16:05:34.11Z</time></trkpt><trkpt lat="49.1939846" lon="5.5586861"><ele>226.0</ele><time>2026-03-22T16:05:36.111Z</time></trkpt><trkpt lat="49.1939679" lon="5.5587827"><ele>226.0</ele><time>2026-03-22T16:05:37.11Z</time></trkpt><trkpt lat="49.1939542" lon="5.5588858"><ele>226.0</ele><time>2026-03-22T16:05:38.11Z</time></trkpt><trkpt lat="49.1939465" lon="5.5589949"><ele>226.0</ele><time>2026-03-22T16:05:39.11Z</time></trkpt><trkpt lat="49.1939454" lon="5.5591074"><ele>226.0</ele><time>2026-03-22T16:05:40.11Z</time></trkpt><trkpt lat="49.1939486" lon="5.5592224"><ele>226.0</ele><time>2026-03-22T16:05:41.11Z</time></trkpt><trkpt lat="49.1939531" lon="5.5593378"><ele>226.0</ele><time>2026-03-22T16:05:42.11Z</time></trkpt><trkpt lat="49.1939575" lon="5.5594516"><ele>226.0</ele><time>2026-03-22T16:05:43.11Z</time></trkpt><trkpt lat="49.1939632" lon="5.5595662"><ele>226.0</ele><time>2026-03-22T16:05:44.11Z</time></trkpt><trkpt lat="49.1939666" lon="5.5596805"><ele>225.99999999999997</ele><time>2026-03-22T16:05:45.11Z</time></trkpt><trkpt lat="49.1939688" lon="5.5597945"><ele>226.0</ele><time>2026-03-22T16:05:46.11Z</time></trkpt><trkpt lat="49.1939699" lon="5.5599087"><ele>226.0</ele><time>2026-03-22T16:05:47.11Z</time></trkpt><trkpt lat="49.1939679" lon="5.5600227"><ele>226.0</ele><time>2026-03-22T16:05:48.11Z</time></trkpt><trkpt lat="49.1939645" lon="5.5601366"><ele>225.99999999999997</ele><time>2026-03-22T16:05:49.11Z</time></trkpt><trkpt lat="49.1939574" lon="5.5602529"><ele>226.0</ele><time>2026-03-22T16:05:50.111Z</time></trkpt><trkpt lat="49.193948" lon="5.5603693"><ele>225.85714285714286</ele><time>2026-03-22T16:05:51.11Z</time></trkpt><trkpt lat="49.193936" lon="5.5604835"><ele>225.71428571428572</ele><time>2026-03-22T16:05:52.11Z</time></trkpt><trkpt lat="49.1939232" lon="5.5605944"><ele>225.57142857142858</ele><time>2026-03-22T16:05:53.111Z</time></trkpt><trkpt lat="49.1939091" lon="5.5607045"><ele>225.42857142857144</ele><time>2026-03-22T16:05:54.11Z</time></trkpt><trkpt lat="49.1938972" lon="5.5608165"><ele>225.28571428571428</ele><time>2026-03-22T16:05:55.11Z</time></trkpt><trkpt lat="49.1938855" lon="5.5609293"><ele>225.14285714285717</ele><time>2026-03-22T16:05:56.11Z</time></trkpt><trkpt lat="49.1938769" lon="5.5610431"><ele>225.00000000000003</ele><time>2026-03-22T16:05:57.111Z</time></trkpt><trkpt lat="49.1938713" lon="5.5611566"><ele>225.14285714285717</ele><time>2026-03-22T16:05:58.11Z</time></trkpt><trkpt lat="49.1938661" lon="5.5612683"><ele>225.28571428571428</ele><time>2026-03-22T16:05:59.11Z</time></trkpt><trkpt lat="49.1938621" lon="5.5613782"><ele>225.42857142857144</ele><time>2026-03-22T16:06:00.11Z</time></trkpt><trkpt lat="49.1938588" lon="5.5614862"><ele>225.57142857142858</ele><time>2026-03-22T16:06:01.11Z</time></trkpt><trkpt lat="49.1938555" lon="5.5615928"><ele>225.71428571428572</ele><time>2026-03-22T16:06:02.11Z</time></trkpt><trkpt lat="49.1938533" lon="5.5616979"><ele>225.85714285714286</ele><time>2026-03-22T16:06:03.11Z</time></trkpt><trkpt lat="49.1938534" lon="5.5618013"><ele>226.0</ele><time>2026-03-22T16:06:04.11Z</time></trkpt><trkpt lat="49.1938531" lon="5.5619035"><ele>226.0</ele><time>2026-03-22T16:06:05.11Z</time></trkpt><trkpt lat="49.1938505" lon="5.5620052"><ele>226.0</ele><time>2026-03-22T16:06:06.11Z</time></trkpt><trkpt lat="49.193844" lon="5.5621085"><ele>226.0</ele><time>2026-03-22T16:06:07.111Z</time></trkpt><trkpt lat="49.1938351" lon="5.5622117"><ele>226.0</ele><time>2026-03-22T16:06:08.11Z</time></trkpt><trkpt lat="49.1938255" lon="5.5623169"><ele>226.0</ele><time>2026-03-22T16:06:09.11Z</time></trkpt><trkpt lat="49.193817" lon="5.562429"><ele>226.0</ele><time>2026-03-22T16:06:10.11Z</time></trkpt><trkpt lat="49.1938128" lon="5.5625443"><ele>226.0</ele><time>2026-03-22T16:06:11.11Z</time></trkpt><trkpt lat="49.1938125" lon="5.5626674"><ele>225.8</ele><time>2026-03-22T16:06:12.11Z</time></trkpt><trkpt lat="49.193813" lon="5.5627997"><ele>225.60000000000002</ele><time>2026-03-22T16:06:13.11Z</time></trkpt><trkpt lat="49.1938112" lon="5.5629382"><ele>225.4</ele><time>2026-03-22T16:06:14.11Z</time></trkpt><trkpt lat="49.1938076" lon="5.5630825"><ele>225.2</ele><time>2026-03-22T16:06:15.11Z</time></trkpt><trkpt lat="49.1938059" lon="5.5632329"><ele>225.0</ele><time>2026-03-22T16:06:16.11Z</time></trkpt><trkpt lat="49.1938051" lon="5.5633872"><ele>225.0</ele><time>2026-03-22T16:06:17.11Z</time></trkpt><trkpt lat="49.1938034" lon="5.5635436"><ele>225.0</ele><time>2026-03-22T16:06:18.11Z</time></trkpt><trkpt lat="49.1938011" lon="5.5637005"><ele>225.0</ele><time>2026-03-22T16:06:19.11Z</time></trkpt><trkpt lat="49.1937992" lon="5.5638554"><ele>225.0</ele><time>2026-03-22T16:06:20.111Z</time></trkpt><trkpt lat="49.1937978" lon="5.5640103"><ele>225.0</ele><time>2026-03-22T16:06:21.11Z</time></trkpt><trkpt lat="49.1937966" lon="5.564165"><ele>224.8</ele><time>2026-03-22T16:06:22.11Z</time></trkpt><trkpt lat="49.1937967" lon="5.5643186"><ele>224.6</ele><time>2026-03-22T16:06:23.11Z</time></trkpt><trkpt lat="49.1937943" lon="5.5644673"><ele>224.39999999999998</ele><time>2026-03-22T16:06:24.11Z</time></trkpt><trkpt lat="49.1937923" lon="5.5646177"><ele>224.2</ele><time>2026-03-22T16:06:25.11Z</time></trkpt><trkpt lat="49.1937899" lon="5.5647683"><ele>224.0</ele><time>2026-03-22T16:06:26.11Z</time></trkpt><trkpt lat="49.1937863" lon="5.5649214"><ele>224.0</ele><time>2026-03-22T16:06:27.11Z</time></trkpt><trkpt lat="49.1937835" lon="5.56508"><ele>223.99999999999997</ele><time>2026-03-22T16:06:28.11Z</time></trkpt><trkpt lat="49.1937811" lon="5.5652353"><ele>223.99999999999997</ele><time>2026-03-22T16:06:29.111Z</time></trkpt><trkpt lat="49.1937772" lon="5.5653918"><ele>224.0</ele><time>2026-03-22T16:06:30.11Z</time></trkpt><trkpt lat="49.1937767" lon="5.5655476"><ele>224.0</ele><time>2026-03-22T16:06:31.11Z</time></trkpt><trkpt lat="49.1937824" lon="5.5657037"><ele>223.79999999999998</ele><time>2026-03-22T16:06:32.11Z</time></trkpt><trkpt lat="49.1937942" lon="5.5658554"><ele>223.59999999999997</ele><time>2026-03-22T16:06:33.11Z</time></trkpt><trkpt lat="49.1938078" lon="5.5660067"><ele>223.4</ele><time>2026-03-22T16:06:34.11Z</time></trkpt><trkpt lat="49.1938225" lon="5.5661607"><ele>223.2</ele><time>2026-03-22T16:06:35.11Z</time></trkpt><trkpt lat="49.193839" lon="5.5663129"><ele>223.0</ele><time>2026-03-22T16:06:36.11Z</time></trkpt><trkpt lat="49.1938559" lon="5.5664659"><ele>223.0</ele><time>2026-03-22T16:06:37.111Z</time></trkpt><trkpt lat="49.1938717" lon="5.5666178"><ele>223.0</ele><time>2026-03-22T16:06:38.11Z</time></trkpt><trkpt lat="49.193887" lon="5.5667665"><ele>223.0</ele><time>2026-03-22T16:06:39.111Z</time></trkpt><trkpt lat="49.1939017" lon="5.5669109"><ele>223.0</ele><time>2026-03-22T16:06:40.11Z</time></trkpt><trkpt lat="49.1939158" lon="5.5670545"><ele>223.0</ele><time>2026-03-22T16:06:41.11Z</time></trkpt><trkpt lat="49.1939297" lon="5.5672001"><ele>223.0</ele><time>2026-03-22T16:06:42.111Z</time></trkpt><trkpt lat="49.193945" lon="5.5673454"><ele>223.0</ele><time>2026-03-22T16:06:43.11Z</time></trkpt><trkpt lat="49.1939599" lon="5.5674903"><ele>223.0</ele><time>2026-03-22T16:06:44.11Z</time></trkpt><trkpt lat="49.1939745" lon="5.5676362"><ele>223.0</ele><time>2026-03-22T16:06:45.11Z</time></trkpt><trkpt lat="49.1939894" lon="5.5677846"><ele>223.0</ele><time>2026-03-22T16:06:46.11Z</time></trkpt><trkpt lat="49.194005" lon="5.5679323"><ele>223.0</ele><time>2026-03-22T16:06:47.11Z</time></trkpt><trkpt lat="49.1940202" lon="5.5680787"><ele>223.0</ele><time>2026-03-22T16:06:48.11Z</time></trkpt><trkpt lat="49.1940344" lon="5.5682273"><ele>223.0</ele><time>2026-03-22T16:06:49.11Z</time></trkpt><trkpt lat="49.194049" lon="5.5683775"><ele>223.0</ele><time>2026-03-22T16:06:50.11Z</time></trkpt><trkpt lat="49.194064" lon="5.5685271"><ele>223.0</ele><time>2026-03-22T16:06:51.11Z</time></trkpt><trkpt lat="49.1940786" lon="5.5686752"><ele>222.8</ele><time>2026-03-22T16:06:52.11Z</time></trkpt><trkpt lat="49.1940922" lon="5.5688224"><ele>222.60000000000002</ele><time>2026-03-22T16:06:53.111Z</time></trkpt><trkpt lat="49.1941059" lon="5.5689707"><ele>222.39999999999998</ele><time>2026-03-22T16:06:54.11Z</time></trkpt><trkpt lat="49.1941212" lon="5.569121"><ele>222.2</ele><time>2026-03-22T16:06:55.11Z</time></trkpt><trkpt lat="49.1941367" lon="5.56927"><ele>222.0</ele><time>2026-03-22T16:06:56.11Z</time></trkpt><trkpt lat="49.1941508" lon="5.5694174"><ele>222.0</ele><time>2026-03-22T16:06:57.11Z</time></trkpt><trkpt lat="49.1941627" lon="5.5695675"><ele>222.0</ele><time>2026-03-22T16:06:58.11Z</time></trkpt><trkpt lat="49.1941762" lon="5.5697151"><ele>222.0</ele><time>2026-03-22T16:06:59.11Z</time></trkpt><trkpt lat="49.1941918" lon="5.5698619"><ele>222.0</ele><time>2026-03-22T16:07:00.11Z</time></trkpt><trkpt lat="49.1942075" lon="5.5700055"><ele>222.0</ele><time>2026-03-22T16:07:01.11Z</time></trkpt><trkpt lat="49.1942216" lon="5.5701453"><ele>222.0</ele><time>2026-03-22T16:07:02.111Z</time></trkpt><trkpt lat="49.1942337" lon="5.5702791"><ele>222.0</ele><time>2026-03-22T16:07:03.11Z</time></trkpt><trkpt lat="49.1942467" lon="5.5704097"><ele>222.0</ele><time>2026-03-22T16:07:04.111Z</time></trkpt><trkpt lat="49.1942656" lon="5.5705357"><ele>222.0</ele><time>2026-03-22T16:07:05.11Z</time></trkpt><trkpt lat="49.1942978" lon="5.5706522"><ele>222.0</ele><time>2026-03-22T16:07:06.11Z</time></trkpt><trkpt lat="49.1943414" lon="5.5707647"><ele>222.0</ele><time>2026-03-22T16:07:07.111Z</time></trkpt><trkpt lat="49.1943856" lon="5.570873"><ele>222.0</ele><time>2026-03-22T16:07:08.111Z</time></trkpt><trkpt lat="49.1944329" lon="5.5709834"><ele>222.0</ele><time>2026-03-22T16:07:09.11Z</time></trkpt><trkpt lat="49.1944811" lon="5.5710918"><ele>222.0</ele><time>2026-03-22T16:07:10.11Z</time></trkpt><trkpt lat="49.1945325" lon="5.5711981"><ele>222.0</ele><time>2026-03-22T16:07:11.11Z</time></trkpt><trkpt lat="49.1945872" lon="5.5712892"><ele>222.0</ele><time>2026-03-22T16:07:12.11Z</time></trkpt><trkpt lat="49.1946344" lon="5.5713746"><ele>222.0</ele><time>2026-03-22T16:07:13.11Z</time></trkpt><trkpt lat="49.1946752" lon="5.5714799"><ele>221.8</ele><time>2026-03-22T16:07:14.11Z</time></trkpt><trkpt lat="49.1947238" lon="5.5715868"><ele>221.6</ele><time>2026-03-22T16:07:15.11Z</time></trkpt><trkpt lat="49.1947774" lon="5.5716988"><ele>221.40000000000003</ele><time>2026-03-22T16:07:16.11Z</time></trkpt><trkpt lat="49.194833" lon="5.5718149"><ele>221.20000000000002</ele><time>2026-03-22T16:07:17.11Z</time></trkpt><trkpt lat="49.1948931" lon="5.571935"><ele>221.0</ele><time>2026-03-22T16:07:18.11Z</time></trkpt><trkpt lat="49.1949538" lon="5.5720537"><ele>221.0</ele><time>2026-03-22T16:07:19.11Z</time></trkpt><trkpt lat="49.1950101" lon="5.5721675"><ele>221.00000000000003</ele><time>2026-03-22T16:07:20.11Z</time></trkpt><trkpt lat="49.1950655" lon="5.5722802"><ele>221.00000000000003</ele><time>2026-03-22T16:07:21.11Z</time></trkpt><trkpt lat="49.1951205" lon="5.5723898"><ele>221.0</ele><time>2026-03-22T16:07:22.11Z</time></trkpt><trkpt lat="49.195178" lon="5.5724998"><ele>221.0</ele><time>2026-03-22T16:07:23.11Z</time></trkpt><trkpt lat="49.19523" lon="5.5726162"><ele>221.00000000000003</ele><time>2026-03-22T16:07:24.11Z</time></trkpt><trkpt lat="49.1952822" lon="5.5727297"><ele>221.0</ele><time>2026-03-22T16:07:25.11Z</time></trkpt><trkpt lat="49.1953336" lon="5.5728398"><ele>221.0</ele><time>2026-03-22T16:07:26.11Z</time></trkpt><trkpt lat="49.1953809" lon="5.5729441"><ele>221.0</ele><time>2026-03-22T16:07:27.111Z</time></trkpt><trkpt lat="49.1954302" lon="5.573048"><ele>221.00000000000003</ele><time>2026-03-22T16:07:28.11Z</time></trkpt><trkpt lat="49.1954802" lon="5.573149"><ele>221.0</ele><time>2026-03-22T16:07:29.11Z</time></trkpt><trkpt lat="49.1955294" lon="5.5732536"><ele>220.83333333333334</ele><time>2026-03-22T16:07:30.111Z</time></trkpt><trkpt lat="49.1955759" lon="5.5733607"><ele>220.66666666666669</ele><time>2026-03-22T16:07:31.111Z</time></trkpt><trkpt lat="49.1956223" lon="5.5734716"><ele>220.5</ele><time>2026-03-22T16:07:32.11Z</time></trkpt><trkpt lat="49.195668" lon="5.573584"><ele>220.33333333333331</ele><time>2026-03-22T16:07:33.11Z</time></trkpt><trkpt lat="49.1957134" lon="5.5736919"><ele>220.16666666666666</ele><time>2026-03-22T16:07:34.11Z</time></trkpt><trkpt lat="49.1957576" lon="5.5737955"><ele>220.0</ele><time>2026-03-22T16:07:35.11Z</time></trkpt><trkpt lat="49.1957993" lon="5.5738969"><ele>219.99999999999997</ele><time>2026-03-22T16:07:36.11Z</time></trkpt><trkpt lat="49.1958418" lon="5.5739999"><ele>220.0</ele><time>2026-03-22T16:07:37.111Z</time></trkpt><trkpt lat="49.1958833" lon="5.5741011"><ele>220.0</ele><time>2026-03-22T16:07:38.11Z</time></trkpt><trkpt lat="49.1959253" lon="5.5742068"><ele>220.0</ele><time>2026-03-22T16:07:39.11Z</time></trkpt><trkpt lat="49.1959652" lon="5.5743146"><ele>219.99999999999997</ele><time>2026-03-22T16:07:40.11Z</time></trkpt><trkpt lat="49.1960059" lon="5.5744228"><ele>220.0</ele><time>2026-03-22T16:07:41.11Z</time></trkpt><trkpt lat="49.1960454" lon="5.574532"><ele>219.99999999999997</ele><time>2026-03-22T16:07:42.11Z</time></trkpt><trkpt lat="49.1960813" lon="5.5746407"><ele>220.0</ele><time>2026-03-22T16:07:43.11Z</time></trkpt><trkpt lat="49.1961172" lon="5.574747"><ele>220.0</ele><time>2026-03-22T16:07:44.11Z</time></trkpt><trkpt lat="49.1961536" lon="5.5748502"><ele>220.0</ele><time>2026-03-22T16:07:45.111Z</time></trkpt><trkpt lat="49.1961902" lon="5.5749527"><ele>219.99999999999997</ele><time>2026-03-22T16:07:46.11Z</time></trkpt><trkpt lat="49.1962264" lon="5.575055"><ele>220.0</ele><time>2026-03-22T16:07:47.11Z</time></trkpt><trkpt lat="49.1962628" lon="5.5751585"><ele>219.99999999999997</ele><time>2026-03-22T16:07:48.11Z</time></trkpt><trkpt lat="49.196298" lon="5.5752596"><ele>220.0</ele><time>2026-03-22T16:07:49.11Z</time></trkpt><trkpt lat="49.1963331" lon="5.5753566"><ele>220.0</ele><time>2026-03-22T16:07:50.11Z</time></trkpt><trkpt lat="49.1963646" lon="5.5754509"><ele>220.0</ele><time>2026-03-22T16:07:51.111Z</time></trkpt><trkpt lat="49.1963962" lon="5.5755487"><ele>220.0</ele><time>2026-03-22T16:07:52.11Z</time></trkpt><trkpt lat="49.1964273" lon="5.575646"><ele>219.99999999999997</ele><time>2026-03-22T16:07:53.11Z</time></trkpt><trkpt lat="49.1964597" lon="5.575745"><ele>220.0</ele><time>2026-03-22T16:07:54.11Z</time></trkpt><trkpt lat="49.1964921" lon="5.5758431"><ele>219.57142857142856</ele><time>2026-03-22T16:07:55.11Z</time></trkpt><trkpt lat="49.1965235" lon="5.5759424"><ele>219.14285714285714</ele><time>2026-03-22T16:07:56.11Z</time></trkpt><trkpt lat="49.1965511" lon="5.5760407"><ele>218.71428571428572</ele><time>2026-03-22T16:07:57.11Z</time></trkpt><trkpt lat="49.1965746" lon="5.5761363"><ele>218.28571428571428</ele><time>2026-03-22T16:07:58.11Z</time></trkpt><trkpt lat="49.196597" lon="5.576229"><ele>217.85714285714286</ele><time>2026-03-22T16:07:59.11Z</time></trkpt><trkpt lat="49.1966177" lon="5.5763224"><ele>217.42857142857142</ele><time>2026-03-22T16:08:00.11Z</time></trkpt><trkpt lat="49.1966385" lon="5.5764154"><ele>217.0</ele><time>2026-03-22T16:08:01.11Z</time></trkpt><trkpt lat="49.1966529" lon="5.5765099"><ele>216.99999999999997</ele><time>2026-03-22T16:08:02.11Z</time></trkpt><trkpt lat="49.1966675" lon="5.5766049"><ele>217.0</ele><time>2026-03-22T16:08:03.111Z</time></trkpt><trkpt lat="49.1966844" lon="5.5767013"><ele>217.0</ele><time>2026-03-22T16:08:04.11Z</time></trkpt><trkpt lat="49.1967026" lon="5.5767966"><ele>217.0</ele><time>2026-03-22T16:08:05.11Z</time></trkpt><trkpt lat="49.1967335" lon="5.5769788"><ele>216.99999999999997</ele><time>2026-03-22T16:08:07.11Z</time></trkpt><trkpt lat="49.1967563" lon="5.5771579"><ele>217.0</ele><time>2026-03-22T16:08:09.11Z</time></trkpt><trkpt lat="49.1967793" lon="5.5773272"><ele>217.0</ele><time>2026-03-22T16:08:11.11Z</time></trkpt><trkpt lat="49.1968054" lon="5.5775059"><ele>217.0</ele><time>2026-03-22T16:08:13.11Z</time></trkpt><trkpt lat="49.1968304" lon="5.5776859"><ele>217.0</ele><time>2026-03-22T16:08:15.11Z</time></trkpt><trkpt lat="49.1968574" lon="5.5778654"><ele>217.0</ele><time>2026-03-22T16:08:17.11Z</time></trkpt><trkpt lat="49.1968806" lon="5.5780541"><ele>216.85714285714286</ele><time>2026-03-22T16:08:19.11Z</time></trkpt><trkpt lat="49.1968926" lon="5.5781511"><ele>216.71428571428572</ele><time>2026-03-22T16:08:20.111Z</time></trkpt><trkpt lat="49.1969044" lon="5.5782491"><ele>216.57142857142856</ele><time>2026-03-22T16:08:21.11Z</time></trkpt><trkpt lat="49.1969174" lon="5.5783485"><ele>216.42857142857144</ele><time>2026-03-22T16:08:22.11Z</time></trkpt><trkpt lat="49.1969294" lon="5.5784484"><ele>216.28571428571428</ele><time>2026-03-22T16:08:23.11Z</time></trkpt><trkpt lat="49.1969414" lon="5.5785507"><ele>216.14285714285714</ele><time>2026-03-22T16:08:24.11Z</time></trkpt><trkpt lat="49.1969529" lon="5.5786538"><ele>216.0</ele><time>2026-03-22T16:08:25.11Z</time></trkpt><trkpt lat="49.196966" lon="5.5787554"><ele>215.66666666666666</ele><time>2026-03-22T16:08:26.11Z</time></trkpt><trkpt lat="49.1969787" lon="5.5788587"><ele>215.33333333333331</ele><time>2026-03-22T16:08:27.11Z</time></trkpt><trkpt lat="49.1969905" lon="5.5789612"><ele>215.0</ele><time>2026-03-22T16:08:28.11Z</time></trkpt><trkpt lat="49.1970021" lon="5.5790662"><ele>214.66666666666666</ele><time>2026-03-22T16:08:29.11Z</time></trkpt><trkpt lat="49.1970159" lon="5.5791706"><ele>214.33333333333331</ele><time>2026-03-22T16:08:30.11Z</time></trkpt><trkpt lat="49.1970277" lon="5.5792707"><ele>214.0</ele><time>2026-03-22T16:08:31.111Z</time></trkpt><trkpt lat="49.1970434" lon="5.5794381"><ele>214.00000000000003</ele><time>2026-03-22T16:08:33.11Z</time></trkpt><trkpt lat="49.1970585" lon="5.579545"><ele>214.0</ele><time>2026-03-22T16:08:35.11Z</time></trkpt><trkpt lat="49.1970686" lon="5.5796421"><ele>214.0</ele><time>2026-03-22T16:08:37.111Z</time></trkpt><trkpt lat="49.1970162" lon="5.5797233"><ele>214.0</ele><time>2026-03-22T16:08:50.11Z</time></trkpt><trkpt lat="49.1970116" lon="5.5798242"><ele>214.0</ele><time>2026-03-22T16:08:54.11Z</time></trkpt><trkpt lat="49.1970571" lon="5.5797549"><ele>214.00000000000003</ele><time>2026-03-22T16:09:18.11Z</time></trkpt><trkpt lat="49.1970643" lon="5.5796575"><ele>214.0</ele><time>2026-03-22T16:09:20.11Z</time></trkpt><trkpt lat="49.1970518" lon="5.5795079"><ele>213.99999999999997</ele><time>2026-03-22T16:09:22.11Z</time></trkpt><trkpt lat="49.1970299" lon="5.5793117"><ele>214.0</ele><time>2026-03-22T16:09:24.11Z</time></trkpt><trkpt lat="49.1970179" lon="5.5791994"><ele>214.0</ele><time>2026-03-22T16:09:25.11Z</time></trkpt><trkpt lat="49.1970078" lon="5.5790801"><ele>214.0</ele><time>2026-03-22T16:09:26.11Z</time></trkpt><trkpt lat="49.1969992" lon="5.5789595"><ele>213.99999999999997</ele><time>2026-03-22T16:09:27.11Z</time></trkpt><trkpt lat="49.1969874" lon="5.5788325"><ele>214.0</ele><time>2026-03-22T16:09:28.11Z</time></trkpt><trkpt lat="49.1969743" lon="5.5787086"><ele>214.33333333333331</ele><time>2026-03-22T16:09:29.11Z</time></trkpt><trkpt lat="49.1969587" lon="5.5785833"><ele>214.66666666666666</ele><time>2026-03-22T16:09:30.11Z</time></trkpt><trkpt lat="49.1969433" lon="5.5784634"><ele>215.0</ele><time>2026-03-22T16:09:31.11Z</time></trkpt><trkpt lat="49.1969284" lon="5.5783471"><ele>215.33333333333331</ele><time>2026-03-22T16:09:32.111Z</time></trkpt><trkpt lat="49.1969133" lon="5.5782312"><ele>215.66666666666666</ele><time>2026-03-22T16:09:33.11Z</time></trkpt><trkpt lat="49.1968977" lon="5.5781177"><ele>216.0</ele><time>2026-03-22T16:09:34.11Z</time></trkpt><trkpt lat="49.1968807" lon="5.5779985"><ele>216.0</ele><time>2026-03-22T16:09:35.111Z</time></trkpt><trkpt lat="49.1968645" lon="5.5778821"><ele>216.0</ele><time>2026-03-22T16:09:36.111Z</time></trkpt><trkpt lat="49.1968476" lon="5.5777635"><ele>216.0</ele><time>2026-03-22T16:09:37.11Z</time></trkpt><trkpt lat="49.1968323" lon="5.577646"><ele>216.0</ele><time>2026-03-22T16:09:38.11Z</time></trkpt><trkpt lat="49.1968173" lon="5.5775259"><ele>216.0</ele><time>2026-03-22T16:09:39.11Z</time></trkpt><trkpt lat="49.1968009" lon="5.5774062"><ele>216.0</ele><time>2026-03-22T16:09:40.11Z</time></trkpt><trkpt lat="49.1967843" lon="5.5772852"><ele>216.16666666666666</ele><time>2026-03-22T16:09:41.11Z</time></trkpt><trkpt lat="49.1967653" lon="5.5771708"><ele>216.33333333333331</ele><time>2026-03-22T16:09:42.11Z</time></trkpt><trkpt lat="49.1967462" lon="5.5770583"><ele>216.5</ele><time>2026-03-22T16:09:43.11Z</time></trkpt><trkpt lat="49.1967318" lon="5.5769459"><ele>216.66666666666666</ele><time>2026-03-22T16:09:44.11Z</time></trkpt><trkpt lat="49.1967185" lon="5.5768363"><ele>216.83333333333331</ele><time>2026-03-22T16:09:45.11Z</time></trkpt><trkpt lat="49.1967017" lon="5.576724"><ele>217.0</ele><time>2026-03-22T16:09:46.11Z</time></trkpt><trkpt lat="49.1966832" lon="5.5766087"><ele>216.99999999999997</ele><time>2026-03-22T16:09:47.11Z</time></trkpt><trkpt lat="49.1966643" lon="5.5764965"><ele>217.0</ele><time>2026-03-22T16:09:48.11Z</time></trkpt><trkpt lat="49.1966433" lon="5.5763866"><ele>217.0</ele><time>2026-03-22T16:09:49.11Z</time></trkpt><trkpt lat="49.1966214" lon="5.5762772"><ele>217.0</ele><time>2026-03-22T16:09:50.111Z</time></trkpt><trkpt lat="49.1965965" lon="5.5761642"><ele>216.99999999999997</ele><time>2026-03-22T16:09:51.111Z</time></trkpt><trkpt lat="49.1965687" lon="5.5760515"><ele>217.0</ele><time>2026-03-22T16:09:52.11Z</time></trkpt><trkpt lat="49.1965388" lon="5.5759469"><ele>216.83333333333331</ele><time>2026-03-22T16:09:53.11Z</time></trkpt><trkpt lat="49.196506" lon="5.5758374"><ele>216.66666666666666</ele><time>2026-03-22T16:09:54.11Z</time></trkpt><trkpt lat="49.1964705" lon="5.5757238"><ele>216.5</ele><time>2026-03-22T16:09:55.11Z</time></trkpt><trkpt lat="49.1964326" lon="5.5756042"><ele>216.33333333333331</ele><time>2026-03-22T16:09:56.11Z</time></trkpt><trkpt lat="49.1963946" lon="5.5754851"><ele>216.16666666666666</ele><time>2026-03-22T16:09:57.11Z</time></trkpt><trkpt lat="49.1963557" lon="5.5753667"><ele>216.0</ele><time>2026-03-22T16:09:58.11Z</time></trkpt><trkpt lat="49.1963137" lon="5.5752469"><ele>216.66666666666666</ele><time>2026-03-22T16:09:59.11Z</time></trkpt><trkpt lat="49.1962719" lon="5.5751323"><ele>217.33333333333331</ele><time>2026-03-22T16:10:00.111Z</time></trkpt><trkpt lat="49.1962309" lon="5.575022"><ele>218.0</ele><time>2026-03-22T16:10:01.11Z</time></trkpt><trkpt lat="49.1961898" lon="5.574915"><ele>218.66666666666666</ele><time>2026-03-22T16:10:02.11Z</time></trkpt><trkpt lat="49.1961514" lon="5.5748037"><ele>219.33333333333331</ele><time>2026-03-22T16:10:03.11Z</time></trkpt><trkpt lat="49.1961128" lon="5.5746927"><ele>220.0</ele><time>2026-03-22T16:10:04.111Z</time></trkpt><trkpt lat="49.1960726" lon="5.574583"><ele>219.99999999999997</ele><time>2026-03-22T16:10:05.111Z</time></trkpt><trkpt lat="49.1960342" lon="5.5744769"><ele>220.0</ele><time>2026-03-22T16:10:06.11Z</time></trkpt><trkpt lat="49.1959957" lon="5.5743711"><ele>220.0</ele><time>2026-03-22T16:10:07.11Z</time></trkpt><trkpt lat="49.195958" lon="5.5742655"><ele>220.0</ele><time>2026-03-22T16:10:08.11Z</time></trkpt><trkpt lat="49.1959194" lon="5.5741616"><ele>219.99999999999997</ele><time>2026-03-22T16:10:09.111Z</time></trkpt><trkpt lat="49.1958794" lon="5.5740581"><ele>220.0</ele><time>2026-03-22T16:10:10.11Z</time></trkpt><trkpt lat="49.1958405" lon="5.5739592"><ele>219.99999999999997</ele><time>2026-03-22T16:10:11.11Z</time></trkpt><trkpt lat="49.1958016" lon="5.5738572"><ele>220.0</ele><time>2026-03-22T16:10:12.11Z</time></trkpt><trkpt lat="49.1957616" lon="5.5737574"><ele>220.0</ele><time>2026-03-22T16:10:13.11Z</time></trkpt><trkpt lat="49.1957208" lon="5.5736576"><ele>220.0</ele><time>2026-03-22T16:10:14.11Z</time></trkpt><trkpt lat="49.1956785" lon="5.5735579"><ele>219.99999999999997</ele><time>2026-03-22T16:10:15.11Z</time></trkpt><trkpt lat="49.1956339" lon="5.5734574"><ele>220.0</ele><time>2026-03-22T16:10:16.11Z</time></trkpt><trkpt lat="49.1955894" lon="5.5733555"><ele>219.99999999999997</ele><time>2026-03-22T16:10:17.11Z</time></trkpt><trkpt lat="49.1955411" lon="5.5732531"><ele>220.0</ele><time>2026-03-22T16:10:18.11Z</time></trkpt><trkpt lat="49.195494" lon="5.5731497"><ele>220.0</ele><time>2026-03-22T16:10:19.11Z</time></trkpt><trkpt lat="49.1954435" lon="5.5730408"><ele>220.0</ele><time>2026-03-22T16:10:20.11Z</time></trkpt><trkpt lat="49.1953922" lon="5.5729328"><ele>219.99999999999997</ele><time>2026-03-22T16:10:21.11Z</time></trkpt><trkpt lat="49.1953445" lon="5.572827"><ele>220.0</ele><time>2026-03-22T16:10:22.11Z</time></trkpt><trkpt lat="49.1952965" lon="5.572722"><ele>220.16666666666666</ele><time>2026-03-22T16:10:23.11Z</time></trkpt><trkpt lat="49.1952486" lon="5.5726174"><ele>220.33333333333331</ele><time>2026-03-22T16:10:24.11Z</time></trkpt><trkpt lat="49.1951996" lon="5.5725148"><ele>220.5</ele><time>2026-03-22T16:10:25.11Z</time></trkpt><trkpt lat="49.1951483" lon="5.5724136"><ele>220.66666666666669</ele><time>2026-03-22T16:10:26.111Z</time></trkpt><trkpt lat="49.1950974" lon="5.5723134"><ele>220.83333333333334</ele><time>2026-03-22T16:10:27.11Z</time></trkpt><trkpt lat="49.1950459" lon="5.5722116"><ele>221.0</ele><time>2026-03-22T16:10:28.111Z</time></trkpt><trkpt lat="49.1949926" lon="5.5721022"><ele>220.8</ele><time>2026-03-22T16:10:29.11Z</time></trkpt><trkpt lat="49.1949399" lon="5.571993"><ele>220.60000000000002</ele><time>2026-03-22T16:10:30.11Z</time></trkpt><trkpt lat="49.1948859" lon="5.5718833"><ele>220.4</ele><time>2026-03-22T16:10:31.11Z</time></trkpt><trkpt lat="49.194828" lon="5.5717654"><ele>220.2</ele><time>2026-03-22T16:10:32.11Z</time></trkpt><trkpt lat="49.1947697" lon="5.5716449"><ele>220.0</ele><time>2026-03-22T16:10:33.11Z</time></trkpt><trkpt lat="49.1947109" lon="5.571525"><ele>220.0</ele><time>2026-03-22T16:10:34.11Z</time></trkpt><trkpt lat="49.194654" lon="5.5714031"><ele>220.0</ele><time>2026-03-22T16:10:35.11Z</time></trkpt><trkpt lat="49.1945995" lon="5.5712865"><ele>220.0</ele><time>2026-03-22T16:10:36.11Z</time></trkpt><trkpt lat="49.1945448" lon="5.571176"><ele>220.0</ele><time>2026-03-22T16:10:37.111Z</time></trkpt><trkpt lat="49.1944913" lon="5.5710657"><ele>220.0</ele><time>2026-03-22T16:10:38.11Z</time></trkpt><trkpt lat="49.1944473" lon="5.5709651"><ele>220.28571428571428</ele><time>2026-03-22T16:10:39.11Z</time></trkpt><trkpt lat="49.1944056" lon="5.5708696"><ele>220.57142857142856</ele><time>2026-03-22T16:10:40.11Z</time></trkpt><trkpt lat="49.1943566" lon="5.5707927"><ele>220.85714285714283</ele><time>2026-03-22T16:10:41.11Z</time></trkpt><trkpt lat="49.1942961" lon="5.5707485"><ele>221.14285714285714</ele><time>2026-03-22T16:10:42.11Z</time></trkpt><trkpt lat="49.1942316" lon="5.5707489"><ele>221.42857142857144</ele><time>2026-03-22T16:10:43.11Z</time></trkpt><trkpt lat="49.1941651" lon="5.5707869"><ele>221.7142857142857</ele><time>2026-03-22T16:10:44.11Z</time></trkpt><trkpt lat="49.1940865" lon="5.5708287"><ele>222.0</ele><time>2026-03-22T16:10:45.11Z</time></trkpt><trkpt lat="49.1939938" lon="5.5708612"><ele>222.0</ele><time>2026-03-22T16:10:46.11Z</time></trkpt><trkpt lat="49.193893" lon="5.5708897"><ele>222.0</ele><time>2026-03-22T16:10:47.111Z</time></trkpt><trkpt lat="49.1937894" lon="5.570925"><ele>222.0</ele><time>2026-03-22T16:10:48.111Z</time></trkpt><trkpt lat="49.1936863" lon="5.5709616"><ele>222.0</ele><time>2026-03-22T16:10:49.11Z</time></trkpt><trkpt lat="49.1935826" lon="5.5709994"><ele>222.0</ele><time>2026-03-22T16:10:50.11Z</time></trkpt><trkpt lat="49.1934783" lon="5.5710365"><ele>222.0</ele><time>2026-03-22T16:10:51.11Z</time></trkpt><trkpt lat="49.1933723" lon="5.5710737"><ele>222.0</ele><time>2026-03-22T16:10:52.11Z</time></trkpt><trkpt lat="49.1932656" lon="5.5711075"><ele>222.0</ele><time>2026-03-22T16:10:53.11Z</time></trkpt><trkpt lat="49.1931577" lon="5.5711431"><ele>222.0</ele><time>2026-03-22T16:10:54.11Z</time></trkpt><trkpt lat="49.1930507" lon="5.5711812"><ele>222.0</ele><time>2026-03-22T16:10:55.11Z</time></trkpt><trkpt lat="49.1929431" lon="5.571223"><ele>222.0</ele><time>2026-03-22T16:10:56.11Z</time></trkpt><trkpt lat="49.1928377" lon="5.571263"><ele>222.0</ele><time>2026-03-22T16:10:57.11Z</time></trkpt><trkpt lat="49.1927305" lon="5.5713033"><ele>222.0</ele><time>2026-03-22T16:10:58.11Z</time></trkpt><trkpt lat="49.1926231" lon="5.571343"><ele>222.0</ele><time>2026-03-22T16:10:59.111Z</time></trkpt><trkpt lat="49.1925146" lon="5.5713794"><ele>222.0</ele><time>2026-03-22T16:11:00.11Z</time></trkpt><trkpt lat="49.1924065" lon="5.5714176"><ele>222.2</ele><time>2026-03-22T16:11:01.11Z</time></trkpt><trkpt lat="49.1922987" lon="5.5714577"><ele>222.39999999999998</ele><time>2026-03-22T16:11:02.11Z</time></trkpt><trkpt lat="49.1921894" lon="5.571499"><ele>222.60000000000002</ele><time>2026-03-22T16:11:03.11Z</time></trkpt><trkpt lat="49.1920813" lon="5.5715417"><ele>222.8</ele><time>2026-03-22T16:11:04.111Z</time></trkpt><trkpt lat="49.1919736" lon="5.5715833"><ele>223.0</ele><time>2026-03-22T16:11:05.11Z</time></trkpt><trkpt lat="49.1918649" lon="5.5716258"><ele>223.0</ele><time>2026-03-22T16:11:06.11Z</time></trkpt><trkpt lat="49.1917583" lon="5.5716682"><ele>223.0</ele><time>2026-03-22T16:11:07.11Z</time></trkpt><trkpt lat="49.1916545" lon="5.5717088"><ele>223.0</ele><time>2026-03-22T16:11:08.11Z</time></trkpt><trkpt lat="49.1915543" lon="5.5717499"><ele>223.0</ele><time>2026-03-22T16:11:09.111Z</time></trkpt><trkpt lat="49.1914578" lon="5.5717873"><ele>223.0</ele><time>2026-03-22T16:11:10.11Z</time></trkpt><trkpt lat="49.1913671" lon="5.5718201"><ele>223.16666666666666</ele><time>2026-03-22T16:11:11.11Z</time></trkpt><trkpt lat="49.1912868" lon="5.5718481"><ele>223.33333333333331</ele><time>2026-03-22T16:11:12.11Z</time></trkpt><trkpt lat="49.1912126" lon="5.5718718"><ele>223.5</ele><time>2026-03-22T16:11:13.11Z</time></trkpt><trkpt lat="49.1911432" lon="5.5719031"><ele>223.66666666666669</ele><time>2026-03-22T16:11:14.11Z</time></trkpt><trkpt lat="49.1910877" lon="5.5719613"><ele>223.83333333333334</ele><time>2026-03-22T16:11:15.11Z</time></trkpt><trkpt lat="49.191058" lon="5.5721388"><ele>224.0</ele><time>2026-03-22T16:11:17.11Z</time></trkpt><trkpt lat="49.191072" lon="5.572244"><ele>224.57142857142856</ele><time>2026-03-22T16:11:18.11Z</time></trkpt><trkpt lat="49.1910916" lon="5.5723519"><ele>225.14285714285714</ele><time>2026-03-22T16:11:19.11Z</time></trkpt><trkpt lat="49.1911097" lon="5.572465"><ele>225.71428571428572</ele><time>2026-03-22T16:11:20.11Z</time></trkpt><trkpt lat="49.1911283" lon="5.5725788"><ele>226.28571428571428</ele><time>2026-03-22T16:11:21.11Z</time></trkpt><trkpt lat="49.1911483" lon="5.5726741"><ele>226.85714285714283</ele><time>2026-03-22T16:11:22.11Z</time></trkpt><trkpt lat="49.1911541" lon="5.5727751"><ele>227.42857142857142</ele><time>2026-03-22T16:11:24.11Z</time></trkpt><trkpt lat="49.1910813" lon="5.5728352"><ele>228.0</ele><time>2026-03-22T16:11:27.11Z</time></trkpt><trkpt lat="49.1910052" lon="5.5728836"><ele>228.60000000000002</ele><time>2026-03-22T16:11:29.11Z</time></trkpt><trkpt lat="49.1909297" lon="5.5729511"><ele>229.20000000000002</ele><time>2026-03-22T16:11:31.11Z</time></trkpt><trkpt lat="49.1908475" lon="5.5730242"><ele>229.8</ele><time>2026-03-22T16:11:33.11Z</time></trkpt><trkpt lat="49.1907544" lon="5.573078"><ele>230.4</ele><time>2026-03-22T16:11:35.11Z</time></trkpt><trkpt lat="49.1906664" lon="5.5731294"><ele>231.0</ele><time>2026-03-22T16:11:37.11Z</time></trkpt><trkpt lat="49.1905873" lon="5.573193"><ele>231.0</ele><time>2026-03-22T16:11:39.11Z</time></trkpt><trkpt lat="49.1905277" lon="5.5732434"><ele>231.0</ele><time>2026-03-22T16:11:41.11Z</time></trkpt><trkpt lat="49.1904591" lon="5.573296"><ele>231.0</ele><time>2026-03-22T16:11:44.11Z</time></trkpt><trkpt lat="49.1905261" lon="5.5732396"><ele>231.0</ele><time>2026-03-22T16:12:07.11Z</time></trkpt><trkpt lat="49.1905892" lon="5.5732216"><ele>231.0</ele><time>2026-03-22T16:12:09.11Z</time></trkpt><trkpt lat="49.1906667" lon="5.573165"><ele>231.0</ele><time>2026-03-22T16:12:11.11Z</time></trkpt><trkpt lat="49.1907386" lon="5.573103"><ele>231.0</ele><time>2026-03-22T16:12:13.111Z</time></trkpt><trkpt lat="49.1908077" lon="5.5730575"><ele>231.0</ele><time>2026-03-22T16:12:15.11Z</time></trkpt><trkpt lat="49.1908859" lon="5.5730115"><ele>231.0</ele><time>2026-03-22T16:12:17.11Z</time></trkpt><trkpt lat="49.1909711" lon="5.5729333"><ele>231.0</ele><time>2026-03-22T16:12:19.111Z</time></trkpt><trkpt lat="49.1910516" lon="5.5728708"><ele>231.0</ele><time>2026-03-22T16:12:21.11Z</time></trkpt><trkpt lat="49.1911192" lon="5.5728277"><ele>231.0</ele><time>2026-03-22T16:12:23.111Z</time></trkpt><trkpt lat="49.1911736" lon="5.5729187"><ele>231.0</ele><time>2026-03-22T16:12:26.11Z</time></trkpt><trkpt lat="49.1911979" lon="5.5730105"><ele>231.0</ele><time>2026-03-22T16:12:28.11Z</time></trkpt><trkpt lat="49.1912275" lon="5.5731218"><ele>231.0</ele><time>2026-03-22T16:12:30.11Z</time></trkpt><trkpt lat="49.1912806" lon="5.573274"><ele>231.0</ele><time>2026-03-22T16:12:32.11Z</time></trkpt><trkpt lat="49.191317" lon="5.5733683"><ele>231.0</ele><time>2026-03-22T16:12:33.11Z</time></trkpt><trkpt lat="49.1913546" lon="5.5734731"><ele>231.0</ele><time>2026-03-22T16:12:34.11Z</time></trkpt><trkpt lat="49.1913934" lon="5.5735838"><ele>231.5</ele><time>2026-03-22T16:12:35.11Z</time></trkpt><trkpt lat="49.19143" lon="5.5737031"><ele>232.0</ele><time>2026-03-22T16:12:36.11Z</time></trkpt><trkpt lat="49.1914602" lon="5.5738277"><ele>232.5</ele><time>2026-03-22T16:12:37.11Z</time></trkpt><trkpt lat="49.1914897" lon="5.5739577"><ele>233.0</ele><time>2026-03-22T16:12:38.11Z</time></trkpt><trkpt lat="49.1915197" lon="5.5740802"><ele>233.5</ele><time>2026-03-22T16:12:39.11Z</time></trkpt><trkpt lat="49.1915486" lon="5.574203"><ele>234.0</ele><time>2026-03-22T16:12:40.111Z</time></trkpt><trkpt lat="49.1915772" lon="5.5743291"><ele>232.83333333333334</ele><time>2026-03-22T16:12:41.11Z</time></trkpt><trkpt lat="49.1916038" lon="5.574456"><ele>231.66666666666669</ele><time>2026-03-22T16:12:42.11Z</time></trkpt><trkpt lat="49.1916304" lon="5.574584"><ele>230.5</ele><time>2026-03-22T16:12:43.11Z</time></trkpt><trkpt lat="49.1916584" lon="5.5747116"><ele>229.33333333333334</ele><time>2026-03-22T16:12:44.11Z</time></trkpt><trkpt lat="49.1916874" lon="5.5748362"><ele>228.16666666666669</ele><time>2026-03-22T16:12:45.11Z</time></trkpt><trkpt lat="49.191712" lon="5.5749569"><ele>227.0</ele><time>2026-03-22T16:12:46.11Z</time></trkpt><trkpt lat="49.191733" lon="5.5750791"><ele>227.00000000000003</ele><time>2026-03-22T16:12:47.111Z</time></trkpt><trkpt lat="49.1917513" lon="5.5752028"><ele>227.0</ele><time>2026-03-22T16:12:48.11Z</time></trkpt><trkpt lat="49.1917695" lon="5.5753257"><ele>227.0</ele><time>2026-03-22T16:12:49.11Z</time></trkpt><trkpt lat="49.1917919" lon="5.5754456"><ele>227.0</ele><time>2026-03-22T16:12:50.11Z</time></trkpt><trkpt lat="49.1918153" lon="5.5755623"><ele>227.00000000000003</ele><time>2026-03-22T16:12:51.11Z</time></trkpt><trkpt lat="49.1918407" lon="5.5756717"><ele>227.0</ele><time>2026-03-22T16:12:52.11Z</time></trkpt><trkpt lat="49.1918662" lon="5.5757706"><ele>227.16666666666669</ele><time>2026-03-22T16:12:53.11Z</time></trkpt><trkpt lat="49.1918926" lon="5.5758623"><ele>227.33333333333334</ele><time>2026-03-22T16:12:54.11Z</time></trkpt><trkpt lat="49.1919159" lon="5.5759549"><ele>227.5</ele><time>2026-03-22T16:12:55.11Z</time></trkpt><trkpt lat="49.1919396" lon="5.5760456"><ele>227.66666666666669</ele><time>2026-03-22T16:12:56.11Z</time></trkpt><trkpt lat="49.1919453" lon="5.5762131"><ele>227.83333333333334</ele><time>2026-03-22T16:12:58.11Z</time></trkpt><trkpt lat="49.1918664" lon="5.576337"><ele>228.0</ele><time>2026-03-22T16:13:00.11Z</time></trkpt><trkpt lat="49.191804" lon="5.5763829"><ele>228.0</ele><time>2026-03-22T16:13:01.11Z</time></trkpt><trkpt lat="49.1917349" lon="5.5764331"><ele>228.0</ele><time>2026-03-22T16:13:02.11Z</time></trkpt><trkpt lat="49.1916546" lon="5.5764799"><ele>228.0</ele><time>2026-03-22T16:13:03.11Z</time></trkpt><trkpt lat="49.1915707" lon="5.5765331"><ele>228.0</ele><time>2026-03-22T16:13:04.11Z</time></trkpt><trkpt lat="49.191489" lon="5.5765924"><ele>228.0</ele><time>2026-03-22T16:13:05.11Z</time></trkpt><trkpt lat="49.1914043" lon="5.5766517"><ele>228.0</ele><time>2026-03-22T16:13:06.11Z</time></trkpt><trkpt lat="49.1913199" lon="5.5767156"><ele>229.2</ele><time>2026-03-22T16:13:07.11Z</time></trkpt><trkpt lat="49.1912334" lon="5.5767831"><ele>230.4</ele><time>2026-03-22T16:13:08.11Z</time></trkpt><trkpt lat="49.1911477" lon="5.5768421"><ele>231.59999999999997</ele><time>2026-03-22T16:13:09.11Z</time></trkpt><trkpt lat="49.1910607" lon="5.5769009"><ele>232.79999999999998</ele><time>2026-03-22T16:13:10.11Z</time></trkpt><trkpt lat="49.1909791" lon="5.5769604"><ele>234.0</ele><time>2026-03-22T16:13:11.11Z</time></trkpt><trkpt lat="49.1909028" lon="5.577019"><ele>234.0</ele><time>2026-03-22T16:13:12.11Z</time></trkpt><trkpt lat="49.1908259" lon="5.577075"><ele>234.0</ele><time>2026-03-22T16:13:13.11Z</time></trkpt><trkpt lat="49.1907436" lon="5.5771276"><ele>234.0</ele><time>2026-03-22T16:13:14.11Z</time></trkpt><trkpt lat="49.1906633" lon="5.5771804"><ele>234.0</ele><time>2026-03-22T16:13:15.11Z</time></trkpt><trkpt lat="49.1905825" lon="5.5772318"><ele>234.0</ele><time>2026-03-22T16:13:16.11Z</time></trkpt><trkpt lat="49.1904993" lon="5.5772858"><ele>234.0</ele><time>2026-03-22T16:13:17.11Z</time></trkpt><trkpt lat="49.190415" lon="5.5773446"><ele>234.0</ele><time>2026-03-22T16:13:18.11Z</time></trkpt><trkpt lat="49.1903266" lon="5.5774014"><ele>234.0</ele><time>2026-03-22T16:13:19.11Z</time></trkpt><trkpt lat="49.1902407" lon="5.5774569"><ele>234.0</ele><time>2026-03-22T16:13:20.11Z</time></trkpt><trkpt lat="49.190158" lon="5.5775091"><ele>234.0</ele><time>2026-03-22T16:13:21.111Z</time></trkpt><trkpt lat="49.1900811" lon="5.5775709"><ele>234.0</ele><time>2026-03-22T16:13:22.11Z</time></trkpt><trkpt lat="49.1900134" lon="5.5776409"><ele>234.0</ele><time>2026-03-22T16:13:23.111Z</time></trkpt><trkpt lat="49.1899602" lon="5.5777028"><ele>234.0</ele><time>2026-03-22T16:13:24.11Z</time></trkpt><trkpt lat="49.1899729" lon="5.5778319"><ele>233.99999999999997</ele><time>2026-03-22T16:13:27.11Z</time></trkpt><trkpt lat="49.1900274" lon="5.57797"><ele>233.99999999999997</ele><time>2026-03-22T16:13:29.11Z</time></trkpt><trkpt lat="49.1900726" lon="5.5781054"><ele>234.0</ele><time>2026-03-22T16:13:31.111Z</time></trkpt><trkpt lat="49.190123" lon="5.5782663"><ele>234.0</ele><time>2026-03-22T16:13:33.11Z</time></trkpt><trkpt lat="49.190181" lon="5.5784272"><ele>234.0</ele><time>2026-03-22T16:13:35.11Z</time></trkpt><trkpt lat="49.1902398" lon="5.5785851"><ele>233.99999999999997</ele><time>2026-03-22T16:13:37.111Z</time></trkpt><trkpt lat="49.1902949" lon="5.5787293"><ele>233.99999999999997</ele><time>2026-03-22T16:13:39.11Z</time></trkpt><trkpt lat="49.1903352" lon="5.5788729"><ele>234.0</ele><time>2026-03-22T16:13:41.11Z</time></trkpt><trkpt lat="49.1903729" lon="5.5789962"><ele>234.0</ele><time>2026-03-22T16:13:43.11Z</time></trkpt><trkpt lat="49.1904025" lon="5.5790859"><ele>234.16666666666666</ele><time>2026-03-22T16:13:45.11Z</time></trkpt><trkpt lat="49.1904419" lon="5.5791841"><ele>234.33333333333331</ele><time>2026-03-22T16:13:48.11Z</time></trkpt><trkpt lat="49.1904905" lon="5.5792993"><ele>234.5</ele><time>2026-03-22T16:13:51.111Z</time></trkpt><trkpt lat="49.1905285" lon="5.5793825"><ele>234.66666666666666</ele><time>2026-03-22T16:13:53.11Z</time></trkpt><trkpt lat="49.1905819" lon="5.5794838"><ele>234.83333333333331</ele><time>2026-03-22T16:13:56.11Z</time></trkpt><trkpt lat="49.1906442" lon="5.5795114"><ele>235.0</ele><time>2026-03-22T16:13:58.11Z</time></trkpt><trkpt lat="49.1906919" lon="5.5796143"><ele>234.99999999999997</ele><time>2026-03-22T16:14:01.11Z</time></trkpt><trkpt lat="49.190783" lon="5.5795973"><ele>235.0</ele><time>2026-03-22T16:14:04.11Z</time></trkpt><trkpt lat="49.1908434" lon="5.5794821"><ele>235.0</ele><time>2026-03-22T16:14:07.11Z</time></trkpt><trkpt lat="49.1908723" lon="5.579395"><ele>235.0</ele><time>2026-03-22T16:14:09.11Z</time></trkpt><trkpt lat="49.1909291" lon="5.5793482"><ele>234.99999999999997</ele><time>2026-03-22T16:14:11.11Z</time></trkpt><trkpt lat="49.1910203" lon="5.5793081"><ele>235.0</ele><time>2026-03-22T16:14:14.11Z</time></trkpt><trkpt lat="49.1910957" lon="5.579254"><ele>235.28571428571428</ele><time>2026-03-22T16:14:16.11Z</time></trkpt><trkpt lat="49.1911657" lon="5.5791999"><ele>235.57142857142856</ele><time>2026-03-22T16:14:18.11Z</time></trkpt><trkpt lat="49.1912212" lon="5.5791273"><ele>235.85714285714283</ele><time>2026-03-22T16:14:20.11Z</time></trkpt><trkpt lat="49.1912422" lon="5.5790359"><ele>236.1428571428571</ele><time>2026-03-22T16:14:23.11Z</time></trkpt><trkpt lat="49.1912917" lon="5.5789509"><ele>236.42857142857142</ele><time>2026-03-22T16:14:27.111Z</time></trkpt><trkpt lat="49.191327" lon="5.5788662"><ele>236.71428571428567</ele><time>2026-03-22T16:14:29.11Z</time></trkpt><trkpt lat="49.191356" lon="5.5787753"><ele>236.99999999999997</ele><time>2026-03-22T16:14:31.11Z</time></trkpt><trkpt lat="49.1913926" lon="5.5786538"><ele>237.0</ele><time>2026-03-22T16:14:34.11Z</time></trkpt><trkpt lat="49.1914645" lon="5.5786506"><ele>237.0</ele><time>2026-03-22T16:14:38.11Z</time></trkpt><trkpt lat="49.1914862" lon="5.578747"><ele>237.0</ele><time>2026-03-22T16:14:41.11Z</time></trkpt><trkpt lat="49.1915004" lon="5.5788582"><ele>237.0</ele><time>2026-03-22T16:14:44.11Z</time></trkpt><trkpt lat="49.191539" lon="5.578981"><ele>237.0</ele><time>2026-03-22T16:14:47.11Z</time></trkpt><trkpt lat="49.1915708" lon="5.579105"><ele>237.0</ele><time>2026-03-22T16:14:50.11Z</time></trkpt><trkpt lat="49.191615" lon="5.579198"><ele>236.66666666666666</ele><time>2026-03-22T16:14:53.11Z</time></trkpt><trkpt lat="49.1916435" lon="5.5793023"><ele>236.33333333333331</ele><time>2026-03-22T16:14:56.11Z</time></trkpt><trkpt lat="49.1916524" lon="5.5793978"><ele>236.0</ele><time>2026-03-22T16:14:58.11Z</time></trkpt><trkpt lat="49.1916131" lon="5.5794764"><ele>235.66666666666666</ele><time>2026-03-22T16:15:01.11Z</time></trkpt><trkpt lat="49.1915411" lon="5.5795077"><ele>235.33333333333331</ele><time>2026-03-22T16:15:03.11Z</time></trkpt><trkpt lat="49.1914653" lon="5.5795642"><ele>235.0</ele><time>2026-03-22T16:15:05.11Z</time></trkpt><trkpt lat="49.1913725" lon="5.5796346"><ele>235.0</ele><time>2026-03-22T16:15:07.11Z</time></trkpt><trkpt lat="49.1912935" lon="5.5797144"><ele>235.0</ele><time>2026-03-22T16:15:09.111Z</time></trkpt><trkpt lat="49.1911876" lon="5.579797"><ele>235.0</ele><time>2026-03-22T16:15:11.11Z</time></trkpt><trkpt lat="49.1910881" lon="5.579858"><ele>235.0</ele><time>2026-03-22T16:15:13.11Z</time></trkpt><trkpt lat="49.1910032" lon="5.5799141"><ele>235.0</ele><time>2026-03-22T16:15:15.11Z</time></trkpt><trkpt lat="49.1909266" lon="5.5799666"><ele>234.99999999999997</ele><time>2026-03-22T16:15:17.11Z</time></trkpt><trkpt lat="49.1908581" lon="5.5800114"><ele>235.0</ele><time>2026-03-22T16:15:19.11Z</time></trkpt><trkpt lat="49.1907988" lon="5.5800576"><ele>235.0</ele><time>2026-03-22T16:15:21.11Z</time></trkpt><trkpt lat="49.1907241" lon="5.5801337"><ele>235.0</ele><time>2026-03-22T16:15:24.11Z</time></trkpt><trkpt lat="49.190643" lon="5.5801896"><ele>234.99999999999997</ele><time>2026-03-22T16:15:27.11Z</time></trkpt><trkpt lat="49.1905783" lon="5.5802436"><ele>235.0</ele><time>2026-03-22T16:15:29.11Z</time></trkpt><trkpt lat="49.1904937" lon="5.5803048"><ele>234.66666666666666</ele><time>2026-03-22T16:15:32.11Z</time></trkpt><trkpt lat="49.1904257" lon="5.5803404"><ele>234.33333333333331</ele><time>2026-03-22T16:15:34.11Z</time></trkpt><trkpt lat="49.1903757" lon="5.5803993"><ele>234.0</ele><time>2026-03-22T16:15:36.11Z</time></trkpt><trkpt lat="49.190292" lon="5.580443"><ele>233.66666666666669</ele><time>2026-03-22T16:15:39.11Z</time></trkpt><trkpt lat="49.1903195" lon="5.5805621"><ele>233.33333333333334</ele><time>2026-03-22T16:15:44.11Z</time></trkpt><trkpt lat="49.1903877" lon="5.5806286"><ele>233.0</ele><time>2026-03-22T16:15:46.11Z</time></trkpt><trkpt lat="49.1904724" lon="5.5806761"><ele>233.4</ele><time>2026-03-22T16:15:48.11Z</time></trkpt><trkpt lat="49.1905605" lon="5.5807081"><ele>233.8</ele><time>2026-03-22T16:15:50.11Z</time></trkpt><trkpt lat="49.190657" lon="5.5807361"><ele>234.2</ele><time>2026-03-22T16:15:52.111Z</time></trkpt><trkpt lat="49.1907492" lon="5.5807559"><ele>234.6</ele><time>2026-03-22T16:15:55.11Z</time></trkpt><trkpt lat="49.1908309" lon="5.5807861"><ele>235.0</ele><time>2026-03-22T16:15:57.11Z</time></trkpt><trkpt lat="49.1908989" lon="5.5808854"><ele>235.0</ele><time>2026-03-22T16:15:59.11Z</time></trkpt><trkpt lat="49.1909709" lon="5.5810206"><ele>235.0</ele><time>2026-03-22T16:16:01.11Z</time></trkpt><trkpt lat="49.191043" lon="5.5811161"><ele>235.0</ele><time>2026-03-22T16:16:03.11Z</time></trkpt><trkpt lat="49.1911057" lon="5.5812248"><ele>235.0</ele><time>2026-03-22T16:16:05.11Z</time></trkpt><trkpt lat="49.1911565" lon="5.5813356"><ele>235.0</ele><time>2026-03-22T16:16:07.11Z</time></trkpt><trkpt lat="49.1911965" lon="5.581428"><ele>235.0</ele><time>2026-03-22T16:16:09.11Z</time></trkpt><trkpt lat="49.1912407" lon="5.5815256"><ele>234.99999999999997</ele><time>2026-03-22T16:16:13.111Z</time></trkpt><trkpt lat="49.191194" lon="5.5814333"><ele>235.0</ele><time>2026-03-22T16:16:44.111Z</time></trkpt><trkpt lat="49.1911582" lon="5.5813368"><ele>235.0</ele><time>2026-03-22T16:16:48.11Z</time></trkpt><trkpt lat="49.191127" lon="5.5812285"><ele>234.99999999999997</ele><time>2026-03-22T16:17:02.11Z</time></trkpt><trkpt lat="49.1910846" lon="5.5811452"><ele>235.0</ele><time>2026-03-22T16:17:04.11Z</time></trkpt><trkpt lat="49.1910272" lon="5.5810706"><ele>235.0</ele><time>2026-03-22T16:17:06.11Z</time></trkpt><trkpt lat="49.1909674" lon="5.5809606"><ele>234.99999999999997</ele><time>2026-03-22T16:17:08.11Z</time></trkpt><trkpt lat="49.1909092" lon="5.580848"><ele>235.0</ele><time>2026-03-22T16:17:10.11Z</time></trkpt><trkpt lat="49.1908246" lon="5.5808073"><ele>235.0</ele><time>2026-03-22T16:17:12.11Z</time></trkpt><trkpt lat="49.1907381" lon="5.5807688"><ele>235.0</ele><time>2026-03-22T16:17:14.11Z</time></trkpt><trkpt lat="49.1906637" lon="5.5807502"><ele>234.99999999999997</ele><time>2026-03-22T16:17:16.11Z</time></trkpt><trkpt lat="49.1905741" lon="5.5807324"><ele>235.0</ele><time>2026-03-22T16:17:18.11Z</time></trkpt><trkpt lat="49.1904856" lon="5.5807007"><ele>234.66666666666666</ele><time>2026-03-22T16:17:20.11Z</time></trkpt><trkpt lat="49.1904083" lon="5.5806707"><ele>234.33333333333331</ele><time>2026-03-22T16:17:22.11Z</time></trkpt><trkpt lat="49.1903388" lon="5.580621"><ele>234.0</ele><time>2026-03-22T16:17:24.111Z</time></trkpt><trkpt lat="49.1902841" lon="5.5805401"><ele>233.66666666666669</ele><time>2026-03-22T16:17:26.111Z</time></trkpt><trkpt lat="49.1902417" lon="5.5804665"><ele>233.33333333333334</ele><time>2026-03-22T16:17:28.11Z</time></trkpt><trkpt lat="49.1901722" lon="5.5803707"><ele>233.0</ele><time>2026-03-22T16:17:30.11Z</time></trkpt><trkpt lat="49.1901157" lon="5.5802691"><ele>233.0</ele><time>2026-03-22T16:17:32.11Z</time></trkpt><trkpt lat="49.1900544" lon="5.5801363"><ele>233.0</ele><time>2026-03-22T16:17:34.111Z</time></trkpt><trkpt lat="49.1900183" lon="5.5800038"><ele>233.0</ele><time>2026-03-22T16:17:36.11Z</time></trkpt><trkpt lat="49.1899783" lon="5.5798493"><ele>233.0</ele><time>2026-03-22T16:17:38.11Z</time></trkpt><trkpt lat="49.1899441" lon="5.5797142"><ele>233.0</ele><time>2026-03-22T16:17:40.11Z</time></trkpt><trkpt lat="49.1899049" lon="5.5795932"><ele>233.33333333333334</ele><time>2026-03-22T16:17:42.11Z</time></trkpt><trkpt lat="49.1898562" lon="5.5794832"><ele>233.66666666666669</ele><time>2026-03-22T16:17:44.11Z</time></trkpt><trkpt lat="49.1898128" lon="5.5793865"><ele>234.0</ele><time>2026-03-22T16:17:46.11Z</time></trkpt><trkpt lat="49.1897527" lon="5.5792952"><ele>234.33333333333331</ele><time>2026-03-22T16:17:48.111Z</time></trkpt><trkpt lat="49.1896703" lon="5.5792085"><ele>234.66666666666666</ele><time>2026-03-22T16:17:50.11Z</time></trkpt><trkpt lat="49.1896092" lon="5.5791041"><ele>235.0</ele><time>2026-03-22T16:17:52.11Z</time></trkpt><trkpt lat="49.1895411" lon="5.578992"><ele>234.0</ele><time>2026-03-22T16:17:54.11Z</time></trkpt><trkpt lat="49.1894636" lon="5.5788829"><ele>233.0</ele><time>2026-03-22T16:17:56.11Z</time></trkpt><trkpt lat="49.1893753" lon="5.5788054"><ele>232.0</ele><time>2026-03-22T16:17:58.11Z</time></trkpt><trkpt lat="49.1893124" lon="5.5787061"><ele>231.0</ele><time>2026-03-22T16:18:00.11Z</time></trkpt><trkpt lat="49.1892727" lon="5.5785903"><ele>230.0</ele><time>2026-03-22T16:18:02.11Z</time></trkpt><trkpt lat="49.189224" lon="5.5784812"><ele>230.0</ele><time>2026-03-22T16:18:04.11Z</time></trkpt><trkpt lat="49.1891352" lon="5.5784219"><ele>230.0</ele><time>2026-03-22T16:18:06.11Z</time></trkpt><trkpt lat="49.1890336" lon="5.5784764"><ele>230.0</ele><time>2026-03-22T16:18:08.11Z</time></trkpt><trkpt lat="49.1889467" lon="5.5785144"><ele>230.0</ele><time>2026-03-22T16:18:10.11Z</time></trkpt><trkpt lat="49.1888632" lon="5.5785557"><ele>230.0</ele><time>2026-03-22T16:18:28.11Z</time></trkpt><trkpt lat="49.1887817" lon="5.5786457"><ele>229.8</ele><time>2026-03-22T16:18:30.11Z</time></trkpt><trkpt lat="49.1886936" lon="5.5787382"><ele>229.6</ele><time>2026-03-22T16:18:32.11Z</time></trkpt><trkpt lat="49.18863" lon="5.5788185"><ele>229.39999999999998</ele><time>2026-03-22T16:18:34.11Z</time></trkpt><trkpt lat="49.1886203" lon="5.5787169"><ele>229.2</ele><time>2026-03-22T16:18:39.11Z</time></trkpt><trkpt lat="49.1886911" lon="5.5786888"><ele>229.0</ele><time>2026-03-22T16:18:41.11Z</time></trkpt><trkpt lat="49.1888108" lon="5.5786279"><ele>228.99999999999997</ele><time>2026-03-22T16:18:43.11Z</time></trkpt><trkpt lat="49.1888933" lon="5.5785401"><ele>229.0</ele><time>2026-03-22T16:18:45.11Z</time></trkpt><trkpt lat="49.1888791" lon="5.5784325"><ele>229.0</ele><time>2026-03-22T16:18:47.11Z</time></trkpt><trkpt lat="49.1888332" lon="5.5783319"><ele>229.0</ele><time>2026-03-22T16:18:49.11Z</time></trkpt><trkpt lat="49.188758" lon="5.5782106"><ele>228.99999999999997</ele><time>2026-03-22T16:18:51.111Z</time></trkpt><trkpt lat="49.188707" lon="5.5781313"><ele>229.0</ele><time>2026-03-22T16:18:53.11Z</time></trkpt><trkpt lat="49.1886718" lon="5.5780425"><ele>228.99999999999997</ele><time>2026-03-22T16:18:55.11Z</time></trkpt><trkpt lat="49.1886407" lon="5.5779576"><ele>229.0</ele><time>2026-03-22T16:18:57.11Z</time></trkpt><trkpt lat="49.188605" lon="5.5778358"><ele>229.0</ele><time>2026-03-22T16:18:59.111Z</time></trkpt><trkpt lat="49.1885593" lon="5.5777261"><ele>229.0</ele><time>2026-03-22T16:19:01.11Z</time></trkpt><trkpt lat="49.188522" lon="5.5776151"><ele>228.99999999999997</ele><time>2026-03-22T16:19:03.11Z</time></trkpt><trkpt lat="49.1884768" lon="5.5775013"><ele>229.0</ele><time>2026-03-22T16:19:05.11Z</time></trkpt><trkpt lat="49.1884382" lon="5.5773961"><ele>229.33333333333331</ele><time>2026-03-22T16:19:07.11Z</time></trkpt><trkpt lat="49.1883903" lon="5.5773039"><ele>229.66666666666666</ele><time>2026-03-22T16:19:09.11Z</time></trkpt><trkpt lat="49.1883224" lon="5.5773136"><ele>230.0</ele><time>2026-03-22T16:19:11.11Z</time></trkpt><trkpt lat="49.1882412" lon="5.5773637"><ele>230.33333333333331</ele><time>2026-03-22T16:19:13.11Z</time></trkpt><trkpt lat="49.1881644" lon="5.5774355"><ele>230.66666666666666</ele><time>2026-03-22T16:19:15.11Z</time></trkpt><trkpt lat="49.188087" lon="5.5774923"><ele>231.0</ele><time>2026-03-22T16:19:17.11Z</time></trkpt><trkpt lat="49.1880224" lon="5.577546"><ele>230.42857142857144</ele><time>2026-03-22T16:19:19.11Z</time></trkpt><trkpt lat="49.1879621" lon="5.5775961"><ele>229.85714285714286</ele><time>2026-03-22T16:19:21.11Z</time></trkpt><trkpt lat="49.1878957" lon="5.5776412"><ele>229.28571428571428</ele><time>2026-03-22T16:19:24.11Z</time></trkpt><trkpt lat="49.1878297" lon="5.5776732"><ele>228.71428571428572</ele><time>2026-03-22T16:19:28.11Z</time></trkpt><trkpt lat="49.1877632" lon="5.5777171"><ele>228.14285714285717</ele><time>2026-03-22T16:19:31.11Z</time></trkpt><trkpt lat="49.1876892" lon="5.5776487"><ele>227.57142857142858</ele><time>2026-03-22T16:19:35.11Z</time></trkpt><trkpt lat="49.1876258" lon="5.5776511"><ele>227.0</ele><time>2026-03-22T16:19:38.11Z</time></trkpt><trkpt lat="49.1875753" lon="5.577558"><ele>227.00000000000003</ele><time>2026-03-22T16:19:42.11Z</time></trkpt><trkpt lat="49.1875276" lon="5.5774666"><ele>227.0</ele><time>2026-03-22T16:19:45.11Z</time></trkpt><trkpt lat="49.1874932" lon="5.5773408"><ele>227.0</ele><time>2026-03-22T16:19:48.111Z</time></trkpt><trkpt lat="49.1874406" lon="5.5772837"><ele>227.0</ele><time>2026-03-22T16:19:50.11Z</time></trkpt><trkpt lat="49.1873687" lon="5.5771966"><ele>227.00000000000003</ele><time>2026-03-22T16:19:53.11Z</time></trkpt><trkpt lat="49.1873194" lon="5.5770918"><ele>227.0</ele><time>2026-03-22T16:19:55.11Z</time></trkpt><trkpt lat="49.1872951" lon="5.5769859"><ele>226.85714285714286</ele><time>2026-03-22T16:19:58.11Z</time></trkpt><trkpt lat="49.1872726" lon="5.576881"><ele>226.71428571428572</ele><time>2026-03-22T16:20:01.11Z</time></trkpt><trkpt lat="49.1873443" lon="5.5768286"><ele>226.57142857142858</ele><time>2026-03-22T16:20:04.11Z</time></trkpt><trkpt lat="49.1873669" lon="5.5767268"><ele>226.42857142857144</ele><time>2026-03-22T16:20:07.11Z</time></trkpt><trkpt lat="49.1873569" lon="5.5766227"><ele>226.28571428571428</ele><time>2026-03-22T16:20:09.11Z</time></trkpt><trkpt lat="49.1873484" lon="5.576524"><ele>226.14285714285717</ele><time>2026-03-22T16:20:11.11Z</time></trkpt><trkpt lat="49.187365" lon="5.5763899"><ele>226.0</ele><time>2026-03-22T16:20:14.11Z</time></trkpt><trkpt lat="49.1873982" lon="5.5762871"><ele>225.99999999999997</ele><time>2026-03-22T16:20:17.11Z</time></trkpt><trkpt lat="49.1874637" lon="5.5762163"><ele>226.0</ele><time>2026-03-22T16:20:28.11Z</time></trkpt><trkpt lat="49.1875011" lon="5.576132"><ele>226.0</ele><time>2026-03-22T16:20:31.11Z</time></trkpt><trkpt lat="49.1874881" lon="5.5762566"><ele>226.0</ele><time>2026-03-22T16:21:43.13Z</time></trkpt><trkpt lat="49.1875168" lon="5.5761689"><ele>225.99999999999997</ele><time>2026-03-22T16:22:15.13Z</time></trkpt><trkpt lat="49.1875844" lon="5.576129"><ele>226.0</ele><time>2026-03-22T16:24:23.128Z</time></trkpt><trkpt lat="49.1876717" lon="5.5762156"><ele>225.99999999999997</ele><time>2026-03-22T16:24:27.129Z</time></trkpt><trkpt lat="49.1877386" lon="5.5762526"><ele>226.0</ele><time>2026-03-22T16:24:29.129Z</time></trkpt><trkpt lat="49.187799" lon="5.5762832"><ele>226.0</ele><time>2026-03-22T16:24:31.13Z</time></trkpt><trkpt lat="49.1878818" lon="5.5762473"><ele>226.0</ele><time>2026-03-22T16:24:34.129Z</time></trkpt><trkpt lat="49.1879462" lon="5.5762313"><ele>225.99999999999997</ele><time>2026-03-22T16:24:36.129Z</time></trkpt><trkpt lat="49.1880293" lon="5.5762896"><ele>226.0</ele><time>2026-03-22T16:24:39.129Z</time></trkpt><trkpt lat="49.1880831" lon="5.5763819"><ele>226.0</ele><time>2026-03-22T16:24:41.129Z</time></trkpt><trkpt lat="49.1881368" lon="5.5764326"><ele>226.0</ele><time>2026-03-22T16:24:43.129Z</time></trkpt><trkpt lat="49.1882051" lon="5.5764544"><ele>226.0</ele><time>2026-03-22T16:24:45.129Z</time></trkpt><trkpt lat="49.1882737" lon="5.5764635"><ele>226.0</ele><time>2026-03-22T16:24:46.13Z</time></trkpt><trkpt lat="49.188357" lon="5.5764519"><ele>226.0</ele><time>2026-03-22T16:24:48.129Z</time></trkpt><trkpt lat="49.1884323" lon="5.5764056"><ele>226.0</ele><time>2026-03-22T16:24:50.128Z</time></trkpt><trkpt lat="49.1884756" lon="5.5763289"><ele>226.0</ele><time>2026-03-22T16:24:52.129Z</time></trkpt><trkpt lat="49.1884468" lon="5.5762153"><ele>226.8</ele><time>2026-03-22T16:24:54.129Z</time></trkpt><trkpt lat="49.1884071" lon="5.5760902"><ele>227.60000000000002</ele><time>2026-03-22T16:24:56.13Z</time></trkpt><trkpt lat="49.1883635" lon="5.57594"><ele>228.4</ele><time>2026-03-22T16:24:58.129Z</time></trkpt><trkpt lat="49.1883225" lon="5.5757919"><ele>229.2</ele><time>2026-03-22T16:25:00.13Z</time></trkpt><trkpt lat="49.1882729" lon="5.5756437"><ele>230.0</ele><time>2026-03-22T16:25:02.13Z</time></trkpt><trkpt lat="49.1882279" lon="5.5754521"><ele>230.00000000000003</ele><time>2026-03-22T16:25:04.13Z</time></trkpt><trkpt lat="49.1881927" lon="5.5753709"><ele>230.0</ele><time>2026-03-22T16:25:05.13Z</time></trkpt><trkpt lat="49.1881713" lon="5.5752737"><ele>230.0</ele><time>2026-03-22T16:25:06.13Z</time></trkpt><trkpt lat="49.1881068" lon="5.5751132"><ele>230.0</ele><time>2026-03-22T16:25:08.128Z</time></trkpt><trkpt lat="49.1880809" lon="5.5750223"><ele>230.00000000000003</ele><time>2026-03-22T16:25:09.13Z</time></trkpt><trkpt lat="49.1880539" lon="5.574933"><ele>230.0</ele><time>2026-03-22T16:25:10.129Z</time></trkpt><trkpt lat="49.1880089" lon="5.5748373"><ele>229.16666666666669</ele><time>2026-03-22T16:25:11.13Z</time></trkpt><trkpt lat="49.1879874" lon="5.5747248"><ele>228.33333333333334</ele><time>2026-03-22T16:25:12.13Z</time></trkpt><trkpt lat="49.1879535" lon="5.5746187"><ele>227.5</ele><time>2026-03-22T16:25:13.129Z</time></trkpt><trkpt lat="49.1879155" lon="5.5744991"><ele>226.66666666666669</ele><time>2026-03-22T16:25:14.129Z</time></trkpt><trkpt lat="49.1878884" lon="5.5743933"><ele>225.83333333333334</ele><time>2026-03-22T16:25:15.129Z</time></trkpt><trkpt lat="49.1878603" lon="5.5743"><ele>225.0</ele><time>2026-03-22T16:25:16.13Z</time></trkpt><trkpt lat="49.1878132" lon="5.5741266"><ele>224.66666666666666</ele><time>2026-03-22T16:25:18.13Z</time></trkpt><trkpt lat="49.1877595" lon="5.5740086"><ele>224.33333333333331</ele><time>2026-03-22T16:25:20.13Z</time></trkpt><trkpt lat="49.1877377" lon="5.5739151"><ele>224.0</ele><time>2026-03-22T16:25:22.129Z</time></trkpt><trkpt lat="49.1877415" lon="5.573818"><ele>223.66666666666666</ele><time>2026-03-22T16:25:27.129Z</time></trkpt><trkpt lat="49.1876926" lon="5.5738943"><ele>223.33333333333331</ele><time>2026-03-22T16:25:47.131Z</time></trkpt><trkpt lat="49.1877382" lon="5.5740249"><ele>223.0</ele><time>2026-03-22T16:25:49.128Z</time></trkpt><trkpt lat="49.1878289" lon="5.5741771"><ele>223.0</ele><time>2026-03-22T16:25:51.129Z</time></trkpt><trkpt lat="49.18786" lon="5.5742804"><ele>223.0</ele><time>2026-03-22T16:25:52.129Z</time></trkpt><trkpt lat="49.1878937" lon="5.5743888"><ele>223.0</ele><time>2026-03-22T16:25:53.129Z</time></trkpt><trkpt lat="49.1879346" lon="5.5745205"><ele>223.0</ele><time>2026-03-22T16:25:54.13Z</time></trkpt><trkpt lat="49.1879924" lon="5.574681"><ele>223.0</ele><time>2026-03-22T16:25:55.13Z</time></trkpt><trkpt lat="49.188037" lon="5.5748079"><ele>223.33333333333331</ele><time>2026-03-22T16:25:56.129Z</time></trkpt><trkpt lat="49.188072" lon="5.5749225"><ele>223.66666666666666</ele><time>2026-03-22T16:25:57.129Z</time></trkpt><trkpt lat="49.1880965" lon="5.5750483"><ele>224.0</ele><time>2026-03-22T16:25:58.129Z</time></trkpt><trkpt lat="49.188146" lon="5.5751781"><ele>224.33333333333331</ele><time>2026-03-22T16:25:59.128Z</time></trkpt><trkpt lat="49.188185" lon="5.5752897"><ele>224.66666666666666</ele><time>2026-03-22T16:26:00.13Z</time></trkpt><trkpt lat="49.1882178" lon="5.5754048"><ele>225.0</ele><time>2026-03-22T16:26:01.129Z</time></trkpt><trkpt lat="49.188249" lon="5.5755231"><ele>225.71428571428575</ele><time>2026-03-22T16:26:02.131Z</time></trkpt><trkpt lat="49.188287" lon="5.5756212"><ele>226.42857142857144</ele><time>2026-03-22T16:26:03.13Z</time></trkpt><trkpt lat="49.188314" lon="5.5757212"><ele>227.14285714285714</ele><time>2026-03-22T16:26:04.129Z</time></trkpt><trkpt lat="49.1883479" lon="5.5758065"><ele>227.85714285714286</ele><time>2026-03-22T16:26:05.13Z</time></trkpt><trkpt lat="49.188396" lon="5.5759123"><ele>228.57142857142856</ele><time>2026-03-22T16:26:06.13Z</time></trkpt><trkpt lat="49.1884226" lon="5.5760229"><ele>229.28571428571425</ele><time>2026-03-22T16:26:07.129Z</time></trkpt><trkpt lat="49.1884579" lon="5.5761196"><ele>229.99999999999997</ele><time>2026-03-22T16:26:08.13Z</time></trkpt><trkpt lat="49.1885012" lon="5.5762648"><ele>230.16666666666669</ele><time>2026-03-22T16:26:10.129Z</time></trkpt><trkpt lat="49.1885447" lon="5.5763971"><ele>230.33333333333334</ele><time>2026-03-22T16:26:12.13Z</time></trkpt><trkpt lat="49.1886057" lon="5.5765757"><ele>230.5</ele><time>2026-03-22T16:26:14.129Z</time></trkpt><trkpt lat="49.1886366" lon="5.5766789"><ele>230.66666666666669</ele><time>2026-03-22T16:26:15.13Z</time></trkpt><trkpt lat="49.188663" lon="5.5767789"><ele>230.83333333333334</ele><time>2026-03-22T16:26:16.129Z</time></trkpt><trkpt lat="49.188689" lon="5.5768838"><ele>231.0</ele><time>2026-03-22T16:26:17.129Z</time></trkpt><trkpt lat="49.1887177" lon="5.5769992"><ele>231.0</ele><time>2026-03-22T16:26:18.129Z</time></trkpt><trkpt lat="49.1887517" lon="5.5770932"><ele>231.0</ele><time>2026-03-22T16:26:19.129Z</time></trkpt><trkpt lat="49.1887975" lon="5.5772336"><ele>231.0</ele><time>2026-03-22T16:26:21.129Z</time></trkpt><trkpt lat="49.1888445" lon="5.5773395"><ele>231.0</ele><time>2026-03-22T16:26:23.129Z</time></trkpt><trkpt lat="49.1888898" lon="5.5774108"><ele>231.0</ele><time>2026-03-22T16:26:24.129Z</time></trkpt><trkpt lat="49.1889319" lon="5.5775484"><ele>231.0</ele><time>2026-03-22T16:26:26.129Z</time></trkpt><trkpt lat="49.1889743" lon="5.5777165"><ele>231.20000000000002</ele><time>2026-03-22T16:26:28.131Z</time></trkpt><trkpt lat="49.1890294" lon="5.5778314"><ele>231.40000000000003</ele><time>2026-03-22T16:26:30.129Z</time></trkpt><trkpt lat="49.1890632" lon="5.5779889"><ele>231.6</ele><time>2026-03-22T16:26:32.13Z</time></trkpt><trkpt lat="49.1891198" lon="5.5781692"><ele>231.8</ele><time>2026-03-22T16:26:34.129Z</time></trkpt><trkpt lat="49.1891607" lon="5.5782506"><ele>232.0</ele><time>2026-03-22T16:26:36.128Z</time></trkpt><trkpt lat="49.189258" lon="5.5782553"><ele>231.6</ele><time>2026-03-22T16:26:38.13Z</time></trkpt><trkpt lat="49.1893551" lon="5.5781787"><ele>231.2</ele><time>2026-03-22T16:26:40.13Z</time></trkpt><trkpt lat="49.1894821" lon="5.5781202"><ele>230.8</ele><time>2026-03-22T16:26:42.129Z</time></trkpt><trkpt lat="49.1895408" lon="5.5780758"><ele>230.4</ele><time>2026-03-22T16:26:43.129Z</time></trkpt><trkpt lat="49.1896171" lon="5.5780613"><ele>230.0</ele><time>2026-03-22T16:26:44.129Z</time></trkpt><trkpt lat="49.1896853" lon="5.578019"><ele>229.99999999999997</ele><time>2026-03-22T16:26:45.13Z</time></trkpt><trkpt lat="49.1897541" lon="5.5779736"><ele>230.0</ele><time>2026-03-22T16:26:46.128Z</time></trkpt><trkpt lat="49.1898186" lon="5.577918"><ele>229.99999999999997</ele><time>2026-03-22T16:26:47.13Z</time></trkpt><trkpt lat="49.1898833" lon="5.5778546"><ele>229.99999999999997</ele><time>2026-03-22T16:26:48.128Z</time></trkpt><trkpt lat="49.1899311" lon="5.577785"><ele>230.0</ele><time>2026-03-22T16:26:49.128Z</time></trkpt><trkpt lat="49.1899751" lon="5.5776999"><ele>229.99999999999997</ele><time>2026-03-22T16:26:50.13Z</time></trkpt><trkpt lat="49.1900364" lon="5.5776394"><ele>229.99999999999997</ele><time>2026-03-22T16:26:51.128Z</time></trkpt><trkpt lat="49.1901044" lon="5.5775845"><ele>230.8</ele><time>2026-03-22T16:26:52.129Z</time></trkpt><trkpt lat="49.1901808" lon="5.5775337"><ele>231.6</ele><time>2026-03-22T16:26:53.129Z</time></trkpt><trkpt lat="49.1902511" lon="5.5774796"><ele>232.39999999999998</ele><time>2026-03-22T16:26:54.129Z</time></trkpt><trkpt lat="49.1903311" lon="5.5774047"><ele>233.2</ele><time>2026-03-22T16:26:55.129Z</time></trkpt><trkpt lat="49.1904243" lon="5.5773481"><ele>234.0</ele><time>2026-03-22T16:26:56.129Z</time></trkpt><trkpt lat="49.1905281" lon="5.577312"><ele>234.0</ele><time>2026-03-22T16:26:57.129Z</time></trkpt><trkpt lat="49.1906142" lon="5.5772597"><ele>233.99999999999997</ele><time>2026-03-22T16:26:58.129Z</time></trkpt><trkpt lat="49.1906998" lon="5.5772023"><ele>233.99999999999997</ele><time>2026-03-22T16:26:59.129Z</time></trkpt><trkpt lat="49.1908042" lon="5.5771647"><ele>234.0</ele><time>2026-03-22T16:27:00.129Z</time></trkpt><trkpt lat="49.1908907" lon="5.5771061"><ele>234.0</ele><time>2026-03-22T16:27:01.128Z</time></trkpt><trkpt lat="49.1909773" lon="5.5770372"><ele>234.0</ele><time>2026-03-22T16:27:02.129Z</time></trkpt><trkpt lat="49.191071" lon="5.576974"><ele>233.99999999999997</ele><time>2026-03-22T16:27:03.13Z</time></trkpt><trkpt lat="49.191145" lon="5.576895"><ele>233.99999999999997</ele><time>2026-03-22T16:27:04.129Z</time></trkpt><trkpt lat="49.1912263" lon="5.5768455"><ele>234.0</ele><time>2026-03-22T16:27:05.128Z</time></trkpt><trkpt lat="49.1913054" lon="5.5767841"><ele>234.0</ele><time>2026-03-22T16:27:06.129Z</time></trkpt><trkpt lat="49.1913742" lon="5.5767071"><ele>234.0</ele><time>2026-03-22T16:27:07.13Z</time></trkpt><trkpt lat="49.1914448" lon="5.5766367"><ele>234.0</ele><time>2026-03-22T16:27:08.13Z</time></trkpt><trkpt lat="49.1915548" lon="5.5765734"><ele>234.0</ele><time>2026-03-22T16:27:10.128Z</time></trkpt><trkpt lat="49.1916103" lon="5.5765274"><ele>234.0</ele><time>2026-03-22T16:27:11.13Z</time></trkpt><trkpt lat="49.1916802" lon="5.5764654"><ele>234.0</ele><time>2026-03-22T16:27:12.128Z</time></trkpt><trkpt lat="49.1917475" lon="5.5764275"><ele>234.0</ele><time>2026-03-22T16:27:13.129Z</time></trkpt><trkpt lat="49.1918543" lon="5.576342"><ele>233.0</ele><time>2026-03-22T16:27:15.13Z</time></trkpt><trkpt lat="49.1919557" lon="5.5762355"><ele>231.99999999999997</ele><time>2026-03-22T16:27:17.13Z</time></trkpt><trkpt lat="49.191953" lon="5.5760761"><ele>230.99999999999997</ele><time>2026-03-22T16:27:19.129Z</time></trkpt><trkpt lat="49.1919154" lon="5.5758892"><ele>230.0</ele><time>2026-03-22T16:27:21.129Z</time></trkpt><trkpt lat="49.1918943" lon="5.5757984"><ele>229.0</ele><time>2026-03-22T16:27:22.13Z</time></trkpt><trkpt lat="49.1918689" lon="5.5756981"><ele>228.99999999999997</ele><time>2026-03-22T16:27:23.129Z</time></trkpt><trkpt lat="49.1918543" lon="5.5755925"><ele>229.0</ele><time>2026-03-22T16:27:24.13Z</time></trkpt><trkpt lat="49.1918288" lon="5.5754768"><ele>229.0</ele><time>2026-03-22T16:27:25.129Z</time></trkpt><trkpt lat="49.1918077" lon="5.5753654"><ele>229.0</ele><time>2026-03-22T16:27:26.129Z</time></trkpt><trkpt lat="49.1917919" lon="5.5752494"><ele>228.99999999999997</ele><time>2026-03-22T16:27:27.129Z</time></trkpt><trkpt lat="49.1917768" lon="5.5751317"><ele>229.0</ele><time>2026-03-22T16:27:28.129Z</time></trkpt><trkpt lat="49.191752" lon="5.5750057"><ele>228.6</ele><time>2026-03-22T16:27:29.129Z</time></trkpt><trkpt lat="49.1917296" lon="5.574876"><ele>228.2</ele><time>2026-03-22T16:27:30.129Z</time></trkpt><trkpt lat="49.1917016" lon="5.5747516"><ele>227.79999999999998</ele><time>2026-03-22T16:27:31.13Z</time></trkpt><trkpt lat="49.1916749" lon="5.5746138"><ele>227.39999999999998</ele><time>2026-03-22T16:27:32.13Z</time></trkpt><trkpt lat="49.1916501" lon="5.5744645"><ele>227.0</ele><time>2026-03-22T16:27:33.129Z</time></trkpt><trkpt lat="49.1916297" lon="5.574312"><ele>226.66666666666669</ele><time>2026-03-22T16:27:34.128Z</time></trkpt><trkpt lat="49.1915959" lon="5.5741792"><ele>226.33333333333334</ele><time>2026-03-22T16:27:35.129Z</time></trkpt><trkpt lat="49.1915563" lon="5.574061"><ele>226.0</ele><time>2026-03-22T16:27:36.128Z</time></trkpt><trkpt lat="49.1915286" lon="5.5739426"><ele>225.66666666666669</ele><time>2026-03-22T16:27:37.129Z</time></trkpt><trkpt lat="49.1914935" lon="5.5738256"><ele>225.33333333333334</ele><time>2026-03-22T16:27:38.13Z</time></trkpt><trkpt lat="49.1914651" lon="5.5736926"><ele>225.0</ele><time>2026-03-22T16:27:39.129Z</time></trkpt><trkpt lat="49.1914305" lon="5.5735703"><ele>226.2</ele><time>2026-03-22T16:27:40.129Z</time></trkpt><trkpt lat="49.1913813" lon="5.5734409"><ele>227.4</ele><time>2026-03-22T16:27:41.129Z</time></trkpt><trkpt lat="49.1913189" lon="5.5733009"><ele>228.60000000000002</ele><time>2026-03-22T16:27:42.13Z</time></trkpt><trkpt lat="49.191268" lon="5.5731665"><ele>229.8</ele><time>2026-03-22T16:27:43.129Z</time></trkpt><trkpt lat="49.191233" lon="5.5730377"><ele>231.0</ele><time>2026-03-22T16:27:44.13Z</time></trkpt><trkpt lat="49.1912102" lon="5.5729141"><ele>230.5</ele><time>2026-03-22T16:27:45.128Z</time></trkpt><trkpt lat="49.1911891" lon="5.5727864"><ele>230.0</ele><time>2026-03-22T16:27:46.129Z</time></trkpt><trkpt lat="49.1911703" lon="5.5726536"><ele>229.5</ele><time>2026-03-22T16:27:47.129Z</time></trkpt><trkpt lat="49.1911463" lon="5.57252"><ele>229.0</ele><time>2026-03-22T16:27:48.13Z</time></trkpt><trkpt lat="49.1911203" lon="5.5723844"><ele>228.5</ele><time>2026-03-22T16:27:49.13Z</time></trkpt><trkpt lat="49.1910975" lon="5.5722752"><ele>228.0</ele><time>2026-03-22T16:27:50.129Z</time></trkpt><trkpt lat="49.1910848" lon="5.5721713"><ele>228.0</ele><time>2026-03-22T16:27:51.129Z</time></trkpt><trkpt lat="49.1910717" lon="5.5720158"><ele>227.99999999999997</ele><time>2026-03-22T16:27:53.129Z</time></trkpt><trkpt lat="49.1910929" lon="5.5719232"><ele>228.0</ele><time>2026-03-22T16:27:55.128Z</time></trkpt><trkpt lat="49.1910233" lon="5.5719181"><ele>228.0</ele><time>2026-03-22T16:30:00.129Z</time></trkpt><trkpt lat="49.1910799" lon="5.5719853"><ele>227.99999999999997</ele><time>2026-03-22T16:32:57.128Z</time></trkpt><trkpt lat="49.1910918" lon="5.5718868"><ele>228.0</ele><time>2026-03-22T16:39:22.129Z</time></trkpt><trkpt lat="49.1910828" lon="5.5719992"><ele>228.0</ele><time>2026-03-22T16:45:37.129Z</time></trkpt><trkpt lat="49.1910793" lon="5.5721432"><ele>228.0</ele><time>2026-03-22T16:45:40.128Z</time></trkpt><trkpt lat="49.1910948" lon="5.5722793"><ele>228.0</ele><time>2026-03-22T16:45:43.129Z</time></trkpt><trkpt lat="49.1911092" lon="5.5723794"><ele>228.0</ele><time>2026-03-22T16:45:45.128Z</time></trkpt><trkpt lat="49.1911365" lon="5.5725458"><ele>228.0</ele><time>2026-03-22T16:45:47.128Z</time></trkpt><trkpt lat="49.1911521" lon="5.5726462"><ele>228.0</ele><time>2026-03-22T16:45:48.13Z</time></trkpt><trkpt lat="49.1911672" lon="5.5727511"><ele>228.0</ele><time>2026-03-22T16:45:49.129Z</time></trkpt><trkpt lat="49.1911828" lon="5.5728493"><ele>228.5</ele><time>2026-03-22T16:45:50.128Z</time></trkpt><trkpt lat="49.1912026" lon="5.5729539"><ele>229.0</ele><time>2026-03-22T16:45:51.13Z</time></trkpt><trkpt lat="49.1912286" lon="5.5730628"><ele>229.5</ele><time>2026-03-22T16:45:52.129Z</time></trkpt><trkpt lat="49.1912604" lon="5.573167"><ele>230.0</ele><time>2026-03-22T16:45:53.129Z</time></trkpt><trkpt lat="49.1912977" lon="5.5732734"><ele>230.5</ele><time>2026-03-22T16:45:54.129Z</time></trkpt><trkpt lat="49.1913419" lon="5.5733741"><ele>231.0</ele><time>2026-03-22T16:45:55.129Z</time></trkpt><trkpt lat="49.1913869" lon="5.57348"><ele>231.0</ele><time>2026-03-22T16:45:56.128Z</time></trkpt><trkpt lat="49.1914234" lon="5.5735901"><ele>231.0</ele><time>2026-03-22T16:45:57.129Z</time></trkpt><trkpt lat="49.1914552" lon="5.573699"><ele>231.0</ele><time>2026-03-22T16:45:58.129Z</time></trkpt><trkpt lat="49.1914819" lon="5.5738098"><ele>231.0</ele><time>2026-03-22T16:45:59.129Z</time></trkpt><trkpt lat="49.1915004" lon="5.5739219"><ele>231.0</ele><time>2026-03-22T16:46:00.129Z</time></trkpt><trkpt lat="49.1915275" lon="5.5740351"><ele>231.0</ele><time>2026-03-22T16:46:01.129Z</time></trkpt><trkpt lat="49.1915622" lon="5.5741509"><ele>230.20000000000002</ele><time>2026-03-22T16:46:02.129Z</time></trkpt><trkpt lat="49.1915886" lon="5.5742896"><ele>229.40000000000003</ele><time>2026-03-22T16:46:03.128Z</time></trkpt><trkpt lat="49.1916208" lon="5.5744212"><ele>228.6</ele><time>2026-03-22T16:46:04.13Z</time></trkpt><trkpt lat="49.1916511" lon="5.5745606"><ele>227.8</ele><time>2026-03-22T16:46:05.129Z</time></trkpt><trkpt lat="49.1916785" lon="5.5747016"><ele>227.0</ele><time>2026-03-22T16:46:06.13Z</time></trkpt><trkpt lat="49.1917127" lon="5.5748385"><ele>227.00000000000003</ele><time>2026-03-22T16:46:07.128Z</time></trkpt><trkpt lat="49.1917348" lon="5.5749669"><ele>227.0</ele><time>2026-03-22T16:46:08.128Z</time></trkpt><trkpt lat="49.1917612" lon="5.5750925"><ele>227.0</ele><time>2026-03-22T16:46:09.128Z</time></trkpt><trkpt lat="49.1917793" lon="5.575219"><ele>227.0</ele><time>2026-03-22T16:46:10.129Z</time></trkpt><trkpt lat="49.1918008" lon="5.5753388"><ele>227.00000000000003</ele><time>2026-03-22T16:46:11.128Z</time></trkpt><trkpt lat="49.1918241" lon="5.5754597"><ele>227.0</ele><time>2026-03-22T16:46:12.128Z</time></trkpt><trkpt lat="49.1918486" lon="5.5755754"><ele>227.16666666666669</ele><time>2026-03-22T16:46:13.129Z</time></trkpt><trkpt lat="49.1918763" lon="5.5756862"><ele>227.33333333333334</ele><time>2026-03-22T16:46:14.128Z</time></trkpt><trkpt lat="49.1919039" lon="5.5757891"><ele>227.5</ele><time>2026-03-22T16:46:15.127Z</time></trkpt><trkpt lat="49.191928" lon="5.575886"><ele>227.66666666666669</ele><time>2026-03-22T16:46:16.128Z</time></trkpt><trkpt lat="49.1919536" lon="5.5759859"><ele>227.83333333333334</ele><time>2026-03-22T16:46:17.128Z</time></trkpt><trkpt lat="49.1919707" lon="5.5760821"><ele>228.0</ele><time>2026-03-22T16:46:18.128Z</time></trkpt><trkpt lat="49.1919579" lon="5.5762513"><ele>228.0</ele><time>2026-03-22T16:46:20.128Z</time></trkpt><trkpt lat="49.1918646" lon="5.576367"><ele>228.0</ele><time>2026-03-22T16:46:22.127Z</time></trkpt><trkpt lat="49.1917963" lon="5.576412"><ele>228.0</ele><time>2026-03-22T16:46:23.128Z</time></trkpt><trkpt lat="49.1917248" lon="5.5764669"><ele>228.0</ele><time>2026-03-22T16:46:24.128Z</time></trkpt><trkpt lat="49.1916589" lon="5.5765076"><ele>228.0</ele><time>2026-03-22T16:46:25.128Z</time></trkpt><trkpt lat="49.19159" lon="5.5765619"><ele>228.0</ele><time>2026-03-22T16:46:26.128Z</time></trkpt><trkpt lat="49.1915298" lon="5.576598"><ele>228.85714285714283</ele><time>2026-03-22T16:46:27.129Z</time></trkpt><trkpt lat="49.1914648" lon="5.5766386"><ele>229.7142857142857</ele><time>2026-03-22T16:46:28.128Z</time></trkpt><trkpt lat="49.1914056" lon="5.5766837"><ele>230.57142857142856</ele><time>2026-03-22T16:46:29.128Z</time></trkpt><trkpt lat="49.1913395" lon="5.5767293"><ele>231.42857142857144</ele><time>2026-03-22T16:46:30.127Z</time></trkpt><trkpt lat="49.1912689" lon="5.5767734"><ele>232.2857142857143</ele><time>2026-03-22T16:46:31.127Z</time></trkpt><trkpt lat="49.1911951" lon="5.5768219"><ele>233.14285714285717</ele><time>2026-03-22T16:46:32.128Z</time></trkpt><trkpt lat="49.1911242" lon="5.5768875"><ele>234.0</ele><time>2026-03-22T16:46:33.128Z</time></trkpt><trkpt lat="49.1910491" lon="5.5769431"><ele>234.0</ele><time>2026-03-22T16:46:34.128Z</time></trkpt><trkpt lat="49.1909721" lon="5.5770058"><ele>234.0</ele><time>2026-03-22T16:46:35.128Z</time></trkpt><trkpt lat="49.1909009" lon="5.5770614"><ele>234.0</ele><time>2026-03-22T16:46:36.128Z</time></trkpt><trkpt lat="49.1908238" lon="5.5771164"><ele>234.0</ele><time>2026-03-22T16:46:37.128Z</time></trkpt><trkpt lat="49.1907396" lon="5.5771747"><ele>234.0</ele><time>2026-03-22T16:46:38.128Z</time></trkpt><trkpt lat="49.1906557" lon="5.5772289"><ele>234.0</ele><time>2026-03-22T16:46:39.127Z</time></trkpt><trkpt lat="49.1905723" lon="5.5773021"><ele>234.0</ele><time>2026-03-22T16:46:40.129Z</time></trkpt><trkpt lat="49.1904864" lon="5.5773574"><ele>233.99999999999997</ele><time>2026-03-22T16:46:41.129Z</time></trkpt><trkpt lat="49.1904017" lon="5.5774074"><ele>233.99999999999997</ele><time>2026-03-22T16:46:42.128Z</time></trkpt><trkpt lat="49.1903111" lon="5.5774642"><ele>234.0</ele><time>2026-03-22T16:46:43.128Z</time></trkpt><trkpt lat="49.190232" lon="5.5775086"><ele>234.0</ele><time>2026-03-22T16:46:44.128Z</time></trkpt><trkpt lat="49.1901494" lon="5.5775602"><ele>234.0</ele><time>2026-03-22T16:46:45.128Z</time></trkpt><trkpt lat="49.1900879" lon="5.5776091"><ele>234.0</ele><time>2026-03-22T16:46:46.128Z</time></trkpt><trkpt lat="49.1900152" lon="5.5776878"><ele>234.0</ele><time>2026-03-22T16:46:47.128Z</time></trkpt><trkpt lat="49.1899518" lon="5.5777345"><ele>234.0</ele><time>2026-03-22T16:46:48.128Z</time></trkpt><trkpt lat="49.189886" lon="5.5777994"><ele>234.0</ele><time>2026-03-22T16:46:49.128Z</time></trkpt><trkpt lat="49.1898222" lon="5.5778458"><ele>234.0</ele><time>2026-03-22T16:46:50.128Z</time></trkpt><trkpt lat="49.1897562" lon="5.5778979"><ele>233.33333333333334</ele><time>2026-03-22T16:46:51.128Z</time></trkpt><trkpt lat="49.1896979" lon="5.5779502"><ele>232.66666666666669</ele><time>2026-03-22T16:46:52.128Z</time></trkpt><trkpt lat="49.189634" lon="5.5779909"><ele>232.0</ele><time>2026-03-22T16:46:53.128Z</time></trkpt><trkpt lat="49.1895691" lon="5.5780386"><ele>231.33333333333334</ele><time>2026-03-22T16:46:54.128Z</time></trkpt><trkpt lat="49.1894625" lon="5.5781077"><ele>230.66666666666669</ele><time>2026-03-22T16:46:56.128Z</time></trkpt><trkpt lat="49.1893545" lon="5.578196"><ele>230.0</ele><time>2026-03-22T16:46:58.128Z</time></trkpt><trkpt lat="49.1892964" lon="5.5782406"><ele>230.00000000000003</ele><time>2026-03-22T16:46:59.128Z</time></trkpt><trkpt lat="49.1892398" lon="5.5782893"><ele>230.0</ele><time>2026-03-22T16:47:00.128Z</time></trkpt><trkpt lat="49.1891829" lon="5.5783337"><ele>230.0</ele><time>2026-03-22T16:47:01.129Z</time></trkpt><trkpt lat="49.1891179" lon="5.5783869"><ele>230.0</ele><time>2026-03-22T16:47:02.128Z</time></trkpt><trkpt lat="49.1890468" lon="5.5784175"><ele>230.00000000000003</ele><time>2026-03-22T16:47:03.127Z</time></trkpt><trkpt lat="49.1889378" lon="5.5785086"><ele>230.0</ele><time>2026-03-22T16:47:05.129Z</time></trkpt><trkpt lat="49.1888277" lon="5.5786054"><ele>229.8</ele><time>2026-03-22T16:47:07.128Z</time></trkpt><trkpt lat="49.188723" lon="5.5786803"><ele>229.6</ele><time>2026-03-22T16:47:09.128Z</time></trkpt><trkpt lat="49.1886273" lon="5.578733"><ele>229.39999999999998</ele><time>2026-03-22T16:47:11.129Z</time></trkpt><trkpt lat="49.1887114" lon="5.5787477"><ele>229.2</ele><time>2026-03-22T16:47:58.128Z</time></trkpt><trkpt lat="49.188775" lon="5.57865"><ele>229.0</ele><time>2026-03-22T16:48:00.128Z</time></trkpt><trkpt lat="49.1888907" lon="5.5785727"><ele>229.0</ele><time>2026-03-22T16:48:02.128Z</time></trkpt><trkpt lat="49.1889718" lon="5.5785224"><ele>228.99999999999997</ele><time>2026-03-22T16:48:03.128Z</time></trkpt><trkpt lat="49.1890492" lon="5.5784668"><ele>228.99999999999997</ele><time>2026-03-22T16:48:04.127Z</time></trkpt><trkpt lat="49.1891365" lon="5.5784043"><ele>229.0</ele><time>2026-03-22T16:48:05.128Z</time></trkpt><trkpt lat="49.1892316" lon="5.5783288"><ele>229.0</ele><time>2026-03-22T16:48:06.128Z</time></trkpt><trkpt lat="49.1893144" lon="5.578261"><ele>229.16666666666666</ele><time>2026-03-22T16:48:07.128Z</time></trkpt><trkpt lat="49.1893985" lon="5.5781818"><ele>229.33333333333331</ele><time>2026-03-22T16:48:08.127Z</time></trkpt><trkpt lat="49.1894857" lon="5.5781207"><ele>229.5</ele><time>2026-03-22T16:48:09.128Z</time></trkpt><trkpt lat="49.1895494" lon="5.5780549"><ele>229.66666666666669</ele><time>2026-03-22T16:48:10.128Z</time></trkpt><trkpt lat="49.1896093" lon="5.5780216"><ele>229.83333333333334</ele><time>2026-03-22T16:48:11.127Z</time></trkpt><trkpt lat="49.1896632" lon="5.5779601"><ele>230.0</ele><time>2026-03-22T16:48:12.128Z</time></trkpt><trkpt lat="49.1897247" lon="5.5779081"><ele>230.0</ele><time>2026-03-22T16:48:13.128Z</time></trkpt><trkpt lat="49.1897925" lon="5.5778522"><ele>230.0</ele><time>2026-03-22T16:48:14.129Z</time></trkpt><trkpt lat="49.1898721" lon="5.5777851"><ele>230.0</ele><time>2026-03-22T16:48:15.128Z</time></trkpt><trkpt lat="49.1899495" lon="5.5777101"><ele>230.0</ele><time>2026-03-22T16:48:16.128Z</time></trkpt><trkpt lat="49.1900436" lon="5.5776541"><ele>230.0</ele><time>2026-03-22T16:48:17.128Z</time></trkpt><trkpt lat="49.1901244" lon="5.5775808"><ele>231.0</ele><time>2026-03-22T16:48:18.129Z</time></trkpt><trkpt lat="49.1902202" lon="5.5775167"><ele>232.0</ele><time>2026-03-22T16:48:19.128Z</time></trkpt><trkpt lat="49.190349" lon="5.5774838"><ele>233.0</ele><time>2026-03-22T16:48:20.127Z</time></trkpt><trkpt lat="49.1904506" lon="5.5774192"><ele>234.0</ele><time>2026-03-22T16:48:21.128Z</time></trkpt><trkpt lat="49.1905759" lon="5.5773654"><ele>234.0</ele><time>2026-03-22T16:48:22.127Z</time></trkpt><trkpt lat="49.1906662" lon="5.5772734"><ele>234.0</ele><time>2026-03-22T16:48:23.128Z</time></trkpt><trkpt lat="49.190766" lon="5.5771954"><ele>234.0</ele><time>2026-03-22T16:48:24.128Z</time></trkpt><trkpt lat="49.1908681" lon="5.5771091"><ele>234.0</ele><time>2026-03-22T16:48:25.127Z</time></trkpt><trkpt lat="49.1909803" lon="5.5770497"><ele>234.0</ele><time>2026-03-22T16:48:26.128Z</time></trkpt><trkpt lat="49.1910806" lon="5.5769864"><ele>233.99999999999997</ele><time>2026-03-22T16:48:27.128Z</time></trkpt><trkpt lat="49.1911849" lon="5.5769405"><ele>233.99999999999997</ele><time>2026-03-22T16:48:28.127Z</time></trkpt><trkpt lat="49.1912932" lon="5.5768698"><ele>234.0</ele><time>2026-03-22T16:48:29.129Z</time></trkpt><trkpt lat="49.1913768" lon="5.5767809"><ele>234.0</ele><time>2026-03-22T16:48:30.128Z</time></trkpt><trkpt lat="49.1914549" lon="5.5767189"><ele>233.0</ele><time>2026-03-22T16:48:31.128Z</time></trkpt><trkpt lat="49.1915341" lon="5.5766375"><ele>232.0</ele><time>2026-03-22T16:48:32.128Z</time></trkpt><trkpt lat="49.1916128" lon="5.576583"><ele>231.0</ele><time>2026-03-22T16:48:33.128Z</time></trkpt><trkpt lat="49.1916839" lon="5.5765237"><ele>230.0</ele><time>2026-03-22T16:48:34.128Z</time></trkpt><trkpt lat="49.1917594" lon="5.5764828"><ele>229.0</ele><time>2026-03-22T16:48:35.128Z</time></trkpt><trkpt lat="49.1918198" lon="5.5764215"><ele>228.0</ele><time>2026-03-22T16:48:36.129Z</time></trkpt><trkpt lat="49.1918783" lon="5.5763716"><ele>228.0</ele><time>2026-03-22T16:48:37.128Z</time></trkpt><trkpt lat="49.191938" lon="5.5763166"><ele>228.0</ele><time>2026-03-22T16:48:38.128Z</time></trkpt><trkpt lat="49.1919641" lon="5.5762271"><ele>228.0</ele><time>2026-03-22T16:48:39.128Z</time></trkpt><trkpt lat="49.1919606" lon="5.5760368"><ele>228.0</ele><time>2026-03-22T16:48:41.128Z</time></trkpt><trkpt lat="49.1919175" lon="5.5759179"><ele>228.0</ele><time>2026-03-22T16:48:42.128Z</time></trkpt><trkpt lat="49.191896" lon="5.5758084"><ele>228.0</ele><time>2026-03-22T16:48:43.128Z</time></trkpt><trkpt lat="49.1918642" lon="5.5756926"><ele>228.2</ele><time>2026-03-22T16:48:44.129Z</time></trkpt><trkpt lat="49.1918307" lon="5.575562"><ele>228.4</ele><time>2026-03-22T16:48:45.127Z</time></trkpt><trkpt lat="49.1917966" lon="5.5754192"><ele>228.59999999999997</ele><time>2026-03-22T16:48:46.128Z</time></trkpt><trkpt lat="49.1917704" lon="5.5752786"><ele>228.79999999999998</ele><time>2026-03-22T16:48:47.128Z</time></trkpt><trkpt lat="49.1917508" lon="5.5751061"><ele>229.0</ele><time>2026-03-22T16:48:48.128Z</time></trkpt><trkpt lat="49.1917199" lon="5.574953"><ele>228.6</ele><time>2026-03-22T16:48:49.128Z</time></trkpt><trkpt lat="49.1916914" lon="5.5747935"><ele>228.2</ele><time>2026-03-22T16:48:50.129Z</time></trkpt><trkpt lat="49.1916631" lon="5.5746362"><ele>227.79999999999998</ele><time>2026-03-22T16:48:51.128Z</time></trkpt><trkpt lat="49.1916239" lon="5.5744863"><ele>227.39999999999998</ele><time>2026-03-22T16:48:52.127Z</time></trkpt><trkpt lat="49.1915878" lon="5.5743441"><ele>227.0</ele><time>2026-03-22T16:48:53.128Z</time></trkpt><trkpt lat="49.1915515" lon="5.5741875"><ele>226.6</ele><time>2026-03-22T16:48:54.127Z</time></trkpt><trkpt lat="49.1915139" lon="5.5740528"><ele>226.2</ele><time>2026-03-22T16:48:55.127Z</time></trkpt><trkpt lat="49.1914662" lon="5.5739122"><ele>225.8</ele><time>2026-03-22T16:48:56.128Z</time></trkpt><trkpt lat="49.1914252" lon="5.5737425"><ele>225.4</ele><time>2026-03-22T16:48:57.128Z</time></trkpt><trkpt lat="49.1913801" lon="5.5735887"><ele>225.0</ele><time>2026-03-22T16:48:58.128Z</time></trkpt><trkpt lat="49.1913409" lon="5.5734413"><ele>225.6</ele><time>2026-03-22T16:48:59.128Z</time></trkpt><trkpt lat="49.1912994" lon="5.5732936"><ele>226.2</ele><time>2026-03-22T16:49:00.127Z</time></trkpt><trkpt lat="49.1912532" lon="5.5731496"><ele>226.8</ele><time>2026-03-22T16:49:01.127Z</time></trkpt><trkpt lat="49.1912267" lon="5.5729999"><ele>227.4</ele><time>2026-03-22T16:49:02.128Z</time></trkpt><trkpt lat="49.1911927" lon="5.5728502"><ele>228.0</ele><time>2026-03-22T16:49:03.127Z</time></trkpt><trkpt lat="49.191146" lon="5.5726958"><ele>228.0</ele><time>2026-03-22T16:49:04.128Z</time></trkpt><trkpt lat="49.1911193" lon="5.5725412"><ele>228.0</ele><time>2026-03-22T16:49:05.128Z</time></trkpt><trkpt lat="49.1910973" lon="5.5723776"><ele>228.0</ele><time>2026-03-22T16:49:06.128Z</time></trkpt><trkpt lat="49.1910803" lon="5.5722307"><ele>228.0</ele><time>2026-03-22T16:49:07.128Z</time></trkpt><trkpt lat="49.1910681" lon="5.57212"><ele>228.0</ele><time>2026-03-22T16:49:08.128Z</time></trkpt><trkpt lat="49.1910593" lon="5.5720224"><ele>228.0</ele><time>2026-03-22T16:49:09.129Z</time></trkpt><trkpt lat="49.1911476" lon="5.5719219"><ele>227.33333333333334</ele><time>2026-03-22T16:49:11.129Z</time></trkpt><trkpt lat="49.1912128" lon="5.5718982"><ele>226.66666666666669</ele><time>2026-03-22T16:49:12.127Z</time></trkpt><trkpt lat="49.1912868" lon="5.571873"><ele>226.0</ele><time>2026-03-22T16:49:13.128Z</time></trkpt><trkpt lat="49.1913729" lon="5.5718454"><ele>225.33333333333334</ele><time>2026-03-22T16:49:14.129Z</time></trkpt><trkpt lat="49.1914712" lon="5.5718145"><ele>224.66666666666669</ele><time>2026-03-22T16:49:15.127Z</time></trkpt><trkpt lat="49.1915681" lon="5.5717742"><ele>224.0</ele><time>2026-03-22T16:49:16.128Z</time></trkpt><trkpt lat="49.1916732" lon="5.5717292"><ele>223.75</ele><time>2026-03-22T16:49:17.128Z</time></trkpt><trkpt lat="49.1917827" lon="5.5716847"><ele>223.5</ele><time>2026-03-22T16:49:18.128Z</time></trkpt><trkpt lat="49.1919008" lon="5.571647"><ele>223.25</ele><time>2026-03-22T16:49:19.129Z</time></trkpt><trkpt lat="49.1920213" lon="5.5716037"><ele>223.0</ele><time>2026-03-22T16:49:20.127Z</time></trkpt><trkpt lat="49.1921451" lon="5.5715572"><ele>223.0</ele><time>2026-03-22T16:49:21.128Z</time></trkpt><trkpt lat="49.1922607" lon="5.5715048"><ele>223.0</ele><time>2026-03-22T16:49:22.128Z</time></trkpt><trkpt lat="49.1923806" lon="5.571462"><ele>223.0</ele><time>2026-03-22T16:49:23.128Z</time></trkpt><trkpt lat="49.1925007" lon="5.5714303"><ele>223.0</ele><time>2026-03-22T16:49:24.128Z</time></trkpt><trkpt lat="49.1926183" lon="5.5713873"><ele>222.75</ele><time>2026-03-22T16:49:25.128Z</time></trkpt><trkpt lat="49.1927378" lon="5.571346"><ele>222.5</ele><time>2026-03-22T16:49:26.127Z</time></trkpt><trkpt lat="49.1928552" lon="5.5713058"><ele>222.25</ele><time>2026-03-22T16:49:27.128Z</time></trkpt><trkpt lat="49.192972" lon="5.5712596"><ele>222.0</ele><time>2026-03-22T16:49:28.128Z</time></trkpt><trkpt lat="49.1930887" lon="5.5712206"><ele>222.0</ele><time>2026-03-22T16:49:29.128Z</time></trkpt><trkpt lat="49.1932039" lon="5.5711771"><ele>222.0</ele><time>2026-03-22T16:49:30.127Z</time></trkpt><trkpt lat="49.1933173" lon="5.5711383"><ele>222.0</ele><time>2026-03-22T16:49:31.128Z</time></trkpt><trkpt lat="49.1934297" lon="5.5710929"><ele>222.0</ele><time>2026-03-22T16:49:32.128Z</time></trkpt><trkpt lat="49.1935425" lon="5.5710486"><ele>222.0</ele><time>2026-03-22T16:49:33.13Z</time></trkpt><trkpt lat="49.1936563" lon="5.5710077"><ele>222.0</ele><time>2026-03-22T16:49:34.129Z</time></trkpt><trkpt lat="49.1937717" lon="5.5709678"><ele>222.0</ele><time>2026-03-22T16:49:35.127Z</time></trkpt><trkpt lat="49.1938872" lon="5.570935"><ele>222.0</ele><time>2026-03-22T16:49:36.127Z</time></trkpt><trkpt lat="49.1940004" lon="5.5708956"><ele>222.0</ele><time>2026-03-22T16:49:37.129Z</time></trkpt><trkpt lat="49.1940946" lon="5.5708485"><ele>222.0</ele><time>2026-03-22T16:49:38.128Z</time></trkpt><trkpt lat="49.1941776" lon="5.5708212"><ele>222.0</ele><time>2026-03-22T16:49:39.128Z</time></trkpt><trkpt lat="49.1942454" lon="5.5707759"><ele>222.0</ele><time>2026-03-22T16:49:40.128Z</time></trkpt><trkpt lat="49.1942796" lon="5.5706888"><ele>222.0</ele><time>2026-03-22T16:49:41.128Z</time></trkpt><trkpt lat="49.1942811" lon="5.5705863"><ele>222.0</ele><time>2026-03-22T16:49:42.128Z</time></trkpt><trkpt lat="49.1942761" lon="5.5704741"><ele>222.0</ele><time>2026-03-22T16:49:43.127Z</time></trkpt><trkpt lat="49.1942628" lon="5.5703524"><ele>222.0</ele><time>2026-03-22T16:49:44.127Z</time></trkpt><trkpt lat="49.1942502" lon="5.5702213"><ele>222.0</ele><time>2026-03-22T16:49:45.128Z</time></trkpt><trkpt lat="49.1942385" lon="5.5700856"><ele>222.0</ele><time>2026-03-22T16:49:46.127Z</time></trkpt><trkpt lat="49.1942238" lon="5.5699378"><ele>222.0</ele><time>2026-03-22T16:49:47.128Z</time></trkpt><trkpt lat="49.1942084" lon="5.5697928"><ele>222.0</ele><time>2026-03-22T16:49:48.127Z</time></trkpt><trkpt lat="49.1941916" lon="5.5696357"><ele>222.0</ele><time>2026-03-22T16:49:49.128Z</time></trkpt><trkpt lat="49.1941758" lon="5.5694682"><ele>222.0</ele><time>2026-03-22T16:49:50.127Z</time></trkpt><trkpt lat="49.1941607" lon="5.5692957"><ele>222.0</ele><time>2026-03-22T16:49:51.128Z</time></trkpt><trkpt lat="49.1941432" lon="5.5691223"><ele>222.0</ele><time>2026-03-22T16:49:52.128Z</time></trkpt><trkpt lat="49.1941259" lon="5.5689446"><ele>222.0</ele><time>2026-03-22T16:49:53.13Z</time></trkpt><trkpt lat="49.194112" lon="5.5687687"><ele>222.0</ele><time>2026-03-22T16:49:54.128Z</time></trkpt><trkpt lat="49.1940955" lon="5.5685895"><ele>222.0</ele><time>2026-03-22T16:49:55.129Z</time></trkpt><trkpt lat="49.1940786" lon="5.5684075"><ele>222.0</ele><time>2026-03-22T16:49:56.127Z</time></trkpt><trkpt lat="49.1940641" lon="5.5682226"><ele>222.0</ele><time>2026-03-22T16:49:57.128Z</time></trkpt><trkpt lat="49.1940524" lon="5.5680366"><ele>222.0</ele><time>2026-03-22T16:49:58.128Z</time></trkpt><trkpt lat="49.1940353" lon="5.5678487"><ele>222.0</ele><time>2026-03-22T16:49:59.127Z</time></trkpt><trkpt lat="49.1940138" lon="5.5676584"><ele>222.0</ele><time>2026-03-22T16:50:00.127Z</time></trkpt><trkpt lat="49.1939935" lon="5.5674713"><ele>222.25</ele><time>2026-03-22T16:50:01.128Z</time></trkpt><trkpt lat="49.1939742" lon="5.567284"><ele>222.5</ele><time>2026-03-22T16:50:02.129Z</time></trkpt><trkpt lat="49.1939543" lon="5.5671007"><ele>222.75</ele><time>2026-03-22T16:50:03.128Z</time></trkpt><trkpt lat="49.1939345" lon="5.5669237"><ele>223.0</ele><time>2026-03-22T16:50:04.129Z</time></trkpt><trkpt lat="49.1939134" lon="5.5667437"><ele>223.0</ele><time>2026-03-22T16:50:05.128Z</time></trkpt><trkpt lat="49.1938966" lon="5.5665651"><ele>223.0</ele><time>2026-03-22T16:50:06.129Z</time></trkpt><trkpt lat="49.1938796" lon="5.5663881"><ele>223.0</ele><time>2026-03-22T16:50:07.127Z</time></trkpt><trkpt lat="49.1938608" lon="5.566213"><ele>223.0</ele><time>2026-03-22T16:50:08.128Z</time></trkpt><trkpt lat="49.1938454" lon="5.5660386"><ele>223.0</ele><time>2026-03-22T16:50:09.128Z</time></trkpt><trkpt lat="49.193832" lon="5.565866"><ele>223.0</ele><time>2026-03-22T16:50:10.129Z</time></trkpt><trkpt lat="49.1938195" lon="5.5657032"><ele>223.0</ele><time>2026-03-22T16:50:11.128Z</time></trkpt><trkpt lat="49.1938113" lon="5.5655371"><ele>223.0</ele><time>2026-03-22T16:50:12.128Z</time></trkpt><trkpt lat="49.1938127" lon="5.5653729"><ele>223.0</ele><time>2026-03-22T16:50:13.128Z</time></trkpt><trkpt lat="49.1938167" lon="5.5652017"><ele>223.2</ele><time>2026-03-22T16:50:14.129Z</time></trkpt><trkpt lat="49.1938221" lon="5.5650355"><ele>223.4</ele><time>2026-03-22T16:50:15.129Z</time></trkpt><trkpt lat="49.1938225" lon="5.5648662"><ele>223.59999999999997</ele><time>2026-03-22T16:50:16.128Z</time></trkpt><trkpt lat="49.1938204" lon="5.5647068"><ele>223.79999999999998</ele><time>2026-03-22T16:50:17.129Z</time></trkpt><trkpt lat="49.1938243" lon="5.5645388"><ele>224.0</ele><time>2026-03-22T16:50:18.128Z</time></trkpt><trkpt lat="49.1938277" lon="5.5643901"><ele>224.0</ele><time>2026-03-22T16:50:19.128Z</time></trkpt><trkpt lat="49.1938321" lon="5.5642431"><ele>223.99999999999997</ele><time>2026-03-22T16:50:20.128Z</time></trkpt><trkpt lat="49.1938317" lon="5.5641018"><ele>223.99999999999997</ele><time>2026-03-22T16:50:21.128Z</time></trkpt><trkpt lat="49.193831" lon="5.5639667"><ele>224.0</ele><time>2026-03-22T16:50:22.129Z</time></trkpt><trkpt lat="49.1938323" lon="5.5638361"><ele>224.0</ele><time>2026-03-22T16:50:23.128Z</time></trkpt><trkpt lat="49.1938334" lon="5.563702"><ele>224.16666666666669</ele><time>2026-03-22T16:50:24.13Z</time></trkpt><trkpt lat="49.1938355" lon="5.5635712"><ele>224.33333333333334</ele><time>2026-03-22T16:50:25.13Z</time></trkpt><trkpt lat="49.1938385" lon="5.5634408"><ele>224.5</ele><time>2026-03-22T16:50:26.129Z</time></trkpt><trkpt lat="49.1938383" lon="5.5633118"><ele>224.66666666666669</ele><time>2026-03-22T16:50:27.128Z</time></trkpt><trkpt lat="49.1938386" lon="5.5631837"><ele>224.83333333333334</ele><time>2026-03-22T16:50:28.13Z</time></trkpt><trkpt lat="49.1938402" lon="5.5630679"><ele>225.0</ele><time>2026-03-22T16:50:29.129Z</time></trkpt><trkpt lat="49.1938375" lon="5.562959"><ele>225.00000000000003</ele><time>2026-03-22T16:50:30.128Z</time></trkpt><trkpt lat="49.1938419" lon="5.5628451"><ele>225.0</ele><time>2026-03-22T16:50:31.128Z</time></trkpt><trkpt lat="49.1938529" lon="5.5627347"><ele>225.00000000000003</ele><time>2026-03-22T16:50:32.129Z</time></trkpt><trkpt lat="49.1938451" lon="5.5626321"><ele>225.00000000000003</ele><time>2026-03-22T16:50:33.128Z</time></trkpt><trkpt lat="49.1938537" lon="5.5625298"><ele>225.0</ele><time>2026-03-22T16:50:34.128Z</time></trkpt><trkpt lat="49.1938522" lon="5.5624235"><ele>225.00000000000003</ele><time>2026-03-22T16:50:35.128Z</time></trkpt><trkpt lat="49.1938587" lon="5.5623072"><ele>225.00000000000003</ele><time>2026-03-22T16:50:36.129Z</time></trkpt><trkpt lat="49.1938653" lon="5.5621903"><ele>225.00000000000003</ele><time>2026-03-22T16:50:37.128Z</time></trkpt><trkpt lat="49.1938717" lon="5.5620783"><ele>225.0</ele><time>2026-03-22T16:50:38.128Z</time></trkpt><trkpt lat="49.1938734" lon="5.5619684"><ele>225.00000000000003</ele><time>2026-03-22T16:50:39.128Z</time></trkpt><trkpt lat="49.1938717" lon="5.5618531"><ele>225.00000000000003</ele><time>2026-03-22T16:50:40.129Z</time></trkpt><trkpt lat="49.1938748" lon="5.5617504"><ele>225.0</ele><time>2026-03-22T16:50:41.128Z</time></trkpt><trkpt lat="49.1938747" lon="5.5616342"><ele>225.00000000000003</ele><time>2026-03-22T16:50:42.128Z</time></trkpt><trkpt lat="49.1938785" lon="5.5615244"><ele>225.00000000000003</ele><time>2026-03-22T16:50:43.129Z</time></trkpt><trkpt lat="49.1938824" lon="5.561416"><ele>225.0</ele><time>2026-03-22T16:50:44.128Z</time></trkpt><trkpt lat="49.1938892" lon="5.5613017"><ele>225.0</ele><time>2026-03-22T16:50:45.128Z</time></trkpt><trkpt lat="49.1938985" lon="5.5611934"><ele>225.0</ele><time>2026-03-22T16:50:46.128Z</time></trkpt><trkpt lat="49.1939071" lon="5.5610665"><ele>225.0</ele><time>2026-03-22T16:50:47.129Z</time></trkpt><trkpt lat="49.1939145" lon="5.5609375"><ele>225.0</ele><time>2026-03-22T16:50:48.128Z</time></trkpt><trkpt lat="49.1939234" lon="5.5608096"><ele>225.0</ele><time>2026-03-22T16:50:49.127Z</time></trkpt><trkpt lat="49.1939358" lon="5.5606913"><ele>225.0</ele><time>2026-03-22T16:50:50.128Z</time></trkpt><trkpt lat="49.1939478" lon="5.5605756"><ele>225.0</ele><time>2026-03-22T16:50:51.127Z</time></trkpt><trkpt lat="49.1939615" lon="5.5604801"><ele>225.0</ele><time>2026-03-22T16:50:52.128Z</time></trkpt><trkpt lat="49.1939799" lon="5.5603649"><ele>225.0</ele><time>2026-03-22T16:50:54.128Z</time></trkpt><trkpt lat="49.1939678" lon="5.5602516"><ele>225.0</ele><time>2026-03-22T16:51:12.129Z</time></trkpt><trkpt lat="49.1939793" lon="5.560117"><ele>225.0</ele><time>2026-03-22T16:51:14.136Z</time></trkpt><trkpt lat="49.1939903" lon="5.559941"><ele>225.16666666666666</ele><time>2026-03-22T16:51:16.128Z</time></trkpt><trkpt lat="49.1939911" lon="5.5598265"><ele>225.33333333333331</ele><time>2026-03-22T16:51:17.13Z</time></trkpt><trkpt lat="49.1939915" lon="5.5596975"><ele>225.5</ele><time>2026-03-22T16:51:18.129Z</time></trkpt><trkpt lat="49.1939859" lon="5.5595621"><ele>225.66666666666666</ele><time>2026-03-22T16:51:19.129Z</time></trkpt><trkpt lat="49.1939802" lon="5.5594189"><ele>225.83333333333331</ele><time>2026-03-22T16:51:20.13Z</time></trkpt><trkpt lat="49.1939746" lon="5.5592756"><ele>226.0</ele><time>2026-03-22T16:51:21.128Z</time></trkpt><trkpt lat="49.1939733" lon="5.5591224"><ele>225.99999999999997</ele><time>2026-03-22T16:51:22.127Z</time></trkpt><trkpt lat="49.1939722" lon="5.5589765"><ele>226.0</ele><time>2026-03-22T16:51:23.128Z</time></trkpt><trkpt lat="49.193974" lon="5.5588497"><ele>226.0</ele><time>2026-03-22T16:51:24.127Z</time></trkpt><trkpt lat="49.1939903" lon="5.5587182"><ele>226.0</ele><time>2026-03-22T16:51:25.128Z</time></trkpt><trkpt lat="49.1940306" lon="5.5586052"><ele>225.99999999999997</ele><time>2026-03-22T16:51:26.129Z</time></trkpt><trkpt lat="49.1940901" lon="5.5585316"><ele>226.0</ele><time>2026-03-22T16:51:27.128Z</time></trkpt><trkpt lat="49.194155" lon="5.5584996"><ele>226.16666666666666</ele><time>2026-03-22T16:51:28.128Z</time></trkpt><trkpt lat="49.1942285" lon="5.5584886"><ele>226.33333333333331</ele><time>2026-03-22T16:51:29.128Z</time></trkpt><trkpt lat="49.1943159" lon="5.5584841"><ele>226.5</ele><time>2026-03-22T16:51:30.128Z</time></trkpt><trkpt lat="49.1944072" lon="5.5584841"><ele>226.66666666666669</ele><time>2026-03-22T16:51:31.128Z</time></trkpt><trkpt lat="49.1944996" lon="5.5585007"><ele>226.83333333333334</ele><time>2026-03-22T16:51:32.128Z</time></trkpt><trkpt lat="49.1945962" lon="5.5585023"><ele>227.0</ele><time>2026-03-22T16:51:33.129Z</time></trkpt><trkpt lat="49.1946904" lon="5.5584988"><ele>227.0</ele><time>2026-03-22T16:51:34.128Z</time></trkpt><trkpt lat="49.1947922" lon="5.5585041"><ele>227.0</ele><time>2026-03-22T16:51:35.128Z</time></trkpt><trkpt lat="49.1948919" lon="5.5585094"><ele>227.0</ele><time>2026-03-22T16:51:36.131Z</time></trkpt><trkpt lat="49.1949951" lon="5.5585143"><ele>227.0</ele><time>2026-03-22T16:51:37.127Z</time></trkpt><trkpt lat="49.1951002" lon="5.5585096"><ele>227.0</ele><time>2026-03-22T16:51:38.129Z</time></trkpt><trkpt lat="49.1952003" lon="5.5585025"><ele>226.8</ele><time>2026-03-22T16:51:39.128Z</time></trkpt><trkpt lat="49.1952982" lon="5.5584935"><ele>226.6</ele><time>2026-03-22T16:51:40.129Z</time></trkpt><trkpt lat="49.195397" lon="5.5584896"><ele>226.40000000000003</ele><time>2026-03-22T16:51:41.13Z</time></trkpt><trkpt lat="49.1954925" lon="5.5584822"><ele>226.20000000000002</ele><time>2026-03-22T16:51:42.127Z</time></trkpt><trkpt lat="49.1955967" lon="5.5584675"><ele>226.0</ele><time>2026-03-22T16:51:43.128Z</time></trkpt><trkpt lat="49.1956866" lon="5.5584645"><ele>224.99999999999997</ele><time>2026-03-22T16:51:44.128Z</time></trkpt><trkpt lat="49.1957708" lon="5.558448"><ele>224.0</ele><time>2026-03-22T16:51:45.129Z</time></trkpt><trkpt lat="49.1958588" lon="5.558444"><ele>223.0</ele><time>2026-03-22T16:51:46.128Z</time></trkpt><trkpt lat="49.1959388" lon="5.5584576"><ele>222.0</ele><time>2026-03-22T16:51:47.128Z</time></trkpt><trkpt lat="49.1960128" lon="5.5584515"><ele>220.99999999999997</ele><time>2026-03-22T16:51:48.128Z</time></trkpt><trkpt lat="49.196087" lon="5.5584425"><ele>220.0</ele><time>2026-03-22T16:51:49.127Z</time></trkpt><trkpt lat="49.1961607" lon="5.5584273"><ele>219.99999999999997</ele><time>2026-03-22T16:51:50.129Z</time></trkpt><trkpt lat="49.1962348" lon="5.5584146"><ele>220.0</ele><time>2026-03-22T16:51:51.128Z</time></trkpt><trkpt lat="49.1963028" lon="5.5583944"><ele>220.0</ele><time>2026-03-22T16:51:52.128Z</time></trkpt><trkpt lat="49.1963734" lon="5.5583688"><ele>220.0</ele><time>2026-03-22T16:51:53.127Z</time></trkpt><trkpt lat="49.1964385" lon="5.5583361"><ele>220.0</ele><time>2026-03-22T16:51:54.13Z</time></trkpt><trkpt lat="49.1965012" lon="5.5582955"><ele>219.99999999999997</ele><time>2026-03-22T16:51:55.128Z</time></trkpt><trkpt lat="49.1965632" lon="5.5582616"><ele>220.0</ele><time>2026-03-22T16:51:56.128Z</time></trkpt><trkpt lat="49.1966256" lon="5.5582342"><ele>218.75</ele><time>2026-03-22T16:51:57.128Z</time></trkpt><trkpt lat="49.1967382" lon="5.5581844"><ele>217.5</ele><time>2026-03-22T16:51:59.128Z</time></trkpt><trkpt lat="49.1968507" lon="5.5581396"><ele>216.25</ele><time>2026-03-22T16:52:01.129Z</time></trkpt><trkpt lat="49.1969571" lon="5.5580841"><ele>215.0</ele><time>2026-03-22T16:52:03.129Z</time></trkpt><trkpt lat="49.1970605" lon="5.5580489"><ele>215.00000000000003</ele><time>2026-03-22T16:52:05.128Z</time></trkpt><trkpt lat="49.1971712" lon="5.5580213"><ele>215.0</ele><time>2026-03-22T16:52:07.13Z</time></trkpt><trkpt lat="49.1972922" lon="5.5579854"><ele>215.0</ele><time>2026-03-22T16:52:09.128Z</time></trkpt><trkpt lat="49.1973579" lon="5.5579728"><ele>215.0</ele><time>2026-03-22T16:52:10.129Z</time></trkpt><trkpt lat="49.1974231" lon="5.5579575"><ele>215.00000000000003</ele><time>2026-03-22T16:52:11.128Z</time></trkpt><trkpt lat="49.1974929" lon="5.5579406"><ele>215.0</ele><time>2026-03-22T16:52:12.129Z</time></trkpt><trkpt lat="49.1975586" lon="5.557928"><ele>215.16666666666669</ele><time>2026-03-22T16:52:13.128Z</time></trkpt><trkpt lat="49.197623" lon="5.5579119"><ele>215.33333333333334</ele><time>2026-03-22T16:52:14.128Z</time></trkpt><trkpt lat="49.1976853" lon="5.5578969"><ele>215.5</ele><time>2026-03-22T16:52:15.128Z</time></trkpt><trkpt lat="49.1978074" lon="5.5578705"><ele>215.66666666666669</ele><time>2026-03-22T16:52:17.128Z</time></trkpt><trkpt lat="49.1978725" lon="5.557855"><ele>215.83333333333334</ele><time>2026-03-22T16:52:18.128Z</time></trkpt><trkpt lat="49.1979345" lon="5.5578346"><ele>216.0</ele><time>2026-03-22T16:52:19.128Z</time></trkpt><trkpt lat="49.1980503" lon="5.5578094"><ele>216.0</ele><time>2026-03-22T16:52:21.128Z</time></trkpt><trkpt lat="49.1981637" lon="5.5577809"><ele>216.00000000000003</ele><time>2026-03-22T16:52:23.128Z</time></trkpt><trkpt lat="49.198274" lon="5.5577585"><ele>216.00000000000003</ele><time>2026-03-22T16:52:25.13Z</time></trkpt><trkpt lat="49.1983857" lon="5.5577397"><ele>216.0</ele><time>2026-03-22T16:52:27.128Z</time></trkpt><trkpt lat="49.1984881" lon="5.5577192"><ele>216.0</ele><time>2026-03-22T16:52:29.128Z</time></trkpt><trkpt lat="49.1986098" lon="5.5576831"><ele>216.66666666666666</ele><time>2026-03-22T16:52:31.129Z</time></trkpt><trkpt lat="49.1986729" lon="5.5576656"><ele>217.33333333333331</ele><time>2026-03-22T16:52:32.128Z</time></trkpt><trkpt lat="49.1987385" lon="5.5576472"><ele>218.0</ele><time>2026-03-22T16:52:33.128Z</time></trkpt><trkpt lat="49.1988084" lon="5.5576276"><ele>218.66666666666666</ele><time>2026-03-22T16:52:34.128Z</time></trkpt><trkpt lat="49.1988832" lon="5.557612"><ele>219.33333333333331</ele><time>2026-03-22T16:52:35.127Z</time></trkpt><trkpt lat="49.1989686" lon="5.5575901"><ele>220.0</ele><time>2026-03-22T16:52:36.129Z</time></trkpt><trkpt lat="49.1990553" lon="5.5575647"><ele>220.8</ele><time>2026-03-22T16:52:37.128Z</time></trkpt><trkpt lat="49.1991451" lon="5.5575298"><ele>221.6</ele><time>2026-03-22T16:52:38.128Z</time></trkpt><trkpt lat="49.1992352" lon="5.5574916"><ele>222.39999999999998</ele><time>2026-03-22T16:52:39.128Z</time></trkpt><trkpt lat="49.1993303" lon="5.5574502"><ele>223.2</ele><time>2026-03-22T16:52:40.128Z</time></trkpt><trkpt lat="49.1994234" lon="5.5574036"><ele>224.0</ele><time>2026-03-22T16:52:41.129Z</time></trkpt><trkpt lat="49.1995186" lon="5.5573646"><ele>224.0</ele><time>2026-03-22T16:52:42.128Z</time></trkpt><trkpt lat="49.199609" lon="5.5573227"><ele>223.99999999999997</ele><time>2026-03-22T16:52:43.129Z</time></trkpt><trkpt lat="49.1996973" lon="5.5572787"><ele>223.99999999999997</ele><time>2026-03-22T16:52:44.129Z</time></trkpt><trkpt lat="49.1997837" lon="5.5572307"><ele>224.0</ele><time>2026-03-22T16:52:45.128Z</time></trkpt><trkpt lat="49.1998623" lon="5.5571737"><ele>224.0</ele><time>2026-03-22T16:52:46.129Z</time></trkpt><trkpt lat="49.1999449" lon="5.5571255"><ele>224.16666666666669</ele><time>2026-03-22T16:52:47.129Z</time></trkpt><trkpt lat="49.2000291" lon="5.5570775"><ele>224.33333333333334</ele><time>2026-03-22T16:52:48.128Z</time></trkpt><trkpt lat="49.2001098" lon="5.5570237"><ele>224.5</ele><time>2026-03-22T16:52:49.127Z</time></trkpt><trkpt lat="49.2001799" lon="5.5569739"><ele>224.66666666666669</ele><time>2026-03-22T16:52:50.128Z</time></trkpt><trkpt lat="49.2002397" lon="5.5569305"><ele>224.83333333333334</ele><time>2026-03-22T16:52:51.129Z</time></trkpt><trkpt lat="49.2003356" lon="5.5568512"><ele>225.0</ele><time>2026-03-22T16:52:53.129Z</time></trkpt><trkpt lat="49.2004208" lon="5.5567953"><ele>225.0</ele><time>2026-03-22T16:52:55.13Z</time></trkpt><trkpt lat="49.2005001" lon="5.5568093"><ele>225.0</ele><time>2026-03-22T16:52:57.129Z</time></trkpt><trkpt lat="49.2005425" lon="5.5568858"><ele>225.0</ele><time>2026-03-22T16:52:59.127Z</time></trkpt><trkpt lat="49.2005825" lon="5.5570227"><ele>225.0</ele><time>2026-03-22T16:53:29.128Z</time></trkpt><trkpt lat="49.2006496" lon="5.5571962"><ele>225.0</ele><time>2026-03-22T16:53:31.129Z</time></trkpt><trkpt lat="49.2006866" lon="5.5573017"><ele>224.75</ele><time>2026-03-22T16:53:32.129Z</time></trkpt><trkpt lat="49.2007401" lon="5.5574363"><ele>224.5</ele><time>2026-03-22T16:53:33.128Z</time></trkpt><trkpt lat="49.2007955" lon="5.5575908"><ele>224.25</ele><time>2026-03-22T16:53:34.127Z</time></trkpt><trkpt lat="49.2008336" lon="5.5577621"><ele>224.0</ele><time>2026-03-22T16:53:35.129Z</time></trkpt><trkpt lat="49.2008666" lon="5.5579344"><ele>223.5</ele><time>2026-03-22T16:53:36.128Z</time></trkpt><trkpt lat="49.2008997" lon="5.558094"><ele>223.0</ele><time>2026-03-22T16:53:37.13Z</time></trkpt><trkpt lat="49.2009385" lon="5.5582606"><ele>222.5</ele><time>2026-03-22T16:53:38.129Z</time></trkpt><trkpt lat="49.2009788" lon="5.5584281"><ele>222.0</ele><time>2026-03-22T16:53:39.127Z</time></trkpt><trkpt lat="49.2010149" lon="5.5585914"><ele>221.6</ele><time>2026-03-22T16:53:40.128Z</time></trkpt><trkpt lat="49.201061" lon="5.5587521"><ele>221.2</ele><time>2026-03-22T16:53:41.128Z</time></trkpt><trkpt lat="49.2011027" lon="5.558903"><ele>220.8</ele><time>2026-03-22T16:53:42.129Z</time></trkpt><trkpt lat="49.2011387" lon="5.5590668"><ele>220.4</ele><time>2026-03-22T16:53:43.129Z</time></trkpt><trkpt lat="49.20118" lon="5.5592198"><ele>220.0</ele><time>2026-03-22T16:53:44.128Z</time></trkpt><trkpt lat="49.2012237" lon="5.5593811"><ele>219.8</ele><time>2026-03-22T16:53:45.129Z</time></trkpt><trkpt lat="49.2012583" lon="5.5595425"><ele>219.6</ele><time>2026-03-22T16:53:46.128Z</time></trkpt><trkpt lat="49.2013023" lon="5.5597135"><ele>219.39999999999998</ele><time>2026-03-22T16:53:47.128Z</time></trkpt><trkpt lat="49.201336" lon="5.5598764"><ele>219.2</ele><time>2026-03-22T16:53:48.127Z</time></trkpt><trkpt lat="49.2013652" lon="5.560026"><ele>219.0</ele><time>2026-03-22T16:53:49.128Z</time></trkpt><trkpt lat="49.2014166" lon="5.5601781"><ele>219.0</ele><time>2026-03-22T16:53:50.128Z</time></trkpt><trkpt lat="49.2014584" lon="5.5603222"><ele>218.99999999999997</ele><time>2026-03-22T16:53:51.128Z</time></trkpt><trkpt lat="49.2014893" lon="5.5604312"><ele>218.99999999999997</ele><time>2026-03-22T16:53:52.129Z</time></trkpt><trkpt lat="49.2015315" lon="5.5605726"><ele>219.0</ele><time>2026-03-22T16:53:54.128Z</time></trkpt><trkpt lat="49.2015677" lon="5.5607144"><ele>219.0</ele><time>2026-03-22T16:53:56.129Z</time></trkpt><trkpt lat="49.2016125" lon="5.5608709"><ele>219.0</ele><time>2026-03-22T16:53:58.128Z</time></trkpt><trkpt lat="49.2016342" lon="5.5609814"><ele>218.99999999999997</ele><time>2026-03-22T16:53:59.129Z</time></trkpt><trkpt lat="49.2016608" lon="5.5611087"><ele>218.99999999999997</ele><time>2026-03-22T16:54:00.129Z</time></trkpt><trkpt lat="49.2017185" lon="5.5612403"><ele>219.0</ele><time>2026-03-22T16:54:01.129Z</time></trkpt><trkpt lat="49.2017549" lon="5.5613847"><ele>219.0</ele><time>2026-03-22T16:54:02.128Z</time></trkpt><trkpt lat="49.2017932" lon="5.5615394"><ele>218.79999999999998</ele><time>2026-03-22T16:54:03.128Z</time></trkpt><trkpt lat="49.2018293" lon="5.5616915"><ele>218.59999999999997</ele><time>2026-03-22T16:54:04.128Z</time></trkpt><trkpt lat="49.2018601" lon="5.5618545"><ele>218.4</ele><time>2026-03-22T16:54:05.128Z</time></trkpt><trkpt lat="49.2019017" lon="5.5620089"><ele>218.2</ele><time>2026-03-22T16:54:06.129Z</time></trkpt><trkpt lat="49.2019511" lon="5.562163"><ele>218.0</ele><time>2026-03-22T16:54:07.13Z</time></trkpt><trkpt lat="49.2019892" lon="5.5623268"><ele>218.0</ele><time>2026-03-22T16:54:08.13Z</time></trkpt><trkpt lat="49.2020357" lon="5.5624841"><ele>218.0</ele><time>2026-03-22T16:54:09.129Z</time></trkpt><trkpt lat="49.2020782" lon="5.5626498"><ele>218.0</ele><time>2026-03-22T16:54:10.128Z</time></trkpt><trkpt lat="49.2021198" lon="5.5628047"><ele>218.0</ele><time>2026-03-22T16:54:11.129Z</time></trkpt><trkpt lat="49.2021583" lon="5.5629885"><ele>217.60000000000002</ele><time>2026-03-22T16:54:12.129Z</time></trkpt><trkpt lat="49.2021976" lon="5.563139"><ele>217.20000000000002</ele><time>2026-03-22T16:54:13.128Z</time></trkpt><trkpt lat="49.2022356" lon="5.5632899"><ele>216.8</ele><time>2026-03-22T16:54:14.129Z</time></trkpt><trkpt lat="49.2022821" lon="5.5634323"><ele>216.4</ele><time>2026-03-22T16:54:15.129Z</time></trkpt><trkpt lat="49.2023089" lon="5.5635673"><ele>216.0</ele><time>2026-03-22T16:54:16.129Z</time></trkpt><trkpt lat="49.2023379" lon="5.5636859"><ele>216.5</ele><time>2026-03-22T16:54:17.129Z</time></trkpt><trkpt lat="49.2023724" lon="5.5637926"><ele>217.0</ele><time>2026-03-22T16:54:18.128Z</time></trkpt><trkpt lat="49.2023987" lon="5.5639007"><ele>217.5</ele><time>2026-03-22T16:54:19.129Z</time></trkpt><trkpt lat="49.202426" lon="5.5640106"><ele>218.0</ele><time>2026-03-22T16:54:20.128Z</time></trkpt><trkpt lat="49.2024569" lon="5.5641334"><ele>218.5</ele><time>2026-03-22T16:54:21.129Z</time></trkpt><trkpt lat="49.2024859" lon="5.5642522"><ele>219.0</ele><time>2026-03-22T16:54:22.127Z</time></trkpt><trkpt lat="49.2025183" lon="5.56437"><ele>219.0</ele><time>2026-03-22T16:54:23.129Z</time></trkpt><trkpt lat="49.202552" lon="5.5644879"><ele>219.0</ele><time>2026-03-22T16:54:24.128Z</time></trkpt><trkpt lat="49.2025987" lon="5.5645884"><ele>219.0</ele><time>2026-03-22T16:54:25.128Z</time></trkpt><trkpt lat="49.2026309" lon="5.5646994"><ele>219.0</ele><time>2026-03-22T16:54:26.129Z</time></trkpt><trkpt lat="49.202654" lon="5.5648069"><ele>219.0</ele><time>2026-03-22T16:54:27.129Z</time></trkpt><trkpt lat="49.2026834" lon="5.5649124"><ele>219.0</ele><time>2026-03-22T16:54:28.128Z</time></trkpt><trkpt lat="49.202714" lon="5.5650172"><ele>218.71428571428572</ele><time>2026-03-22T16:54:29.128Z</time></trkpt><trkpt lat="49.2027414" lon="5.5651267"><ele>218.42857142857142</ele><time>2026-03-22T16:54:30.129Z</time></trkpt><trkpt lat="49.202769" lon="5.5652391"><ele>218.14285714285714</ele><time>2026-03-22T16:54:31.128Z</time></trkpt><trkpt lat="49.202787" lon="5.565341"><ele>217.85714285714286</ele><time>2026-03-22T16:54:32.129Z</time></trkpt><trkpt lat="49.2028112" lon="5.5654413"><ele>217.57142857142856</ele><time>2026-03-22T16:54:33.127Z</time></trkpt><trkpt lat="49.2028355" lon="5.5655354"><ele>217.28571428571428</ele><time>2026-03-22T16:54:34.128Z</time></trkpt><trkpt lat="49.2028655" lon="5.5656405"><ele>217.0</ele><time>2026-03-22T16:54:35.128Z</time></trkpt><trkpt lat="49.2028854" lon="5.5657474"><ele>216.99999999999997</ele><time>2026-03-22T16:54:36.128Z</time></trkpt><trkpt lat="49.2029168" lon="5.5658525"><ele>217.0</ele><time>2026-03-22T16:54:37.129Z</time></trkpt><trkpt lat="49.2029417" lon="5.5659577"><ele>217.0</ele><time>2026-03-22T16:54:38.129Z</time></trkpt><trkpt lat="49.2029688" lon="5.5660726"><ele>217.0</ele><time>2026-03-22T16:54:39.129Z</time></trkpt><trkpt lat="49.2029932" lon="5.5661873"><ele>216.99999999999997</ele><time>2026-03-22T16:54:40.128Z</time></trkpt><trkpt lat="49.2030181" lon="5.5663021"><ele>217.0</ele><time>2026-03-22T16:54:41.128Z</time></trkpt><trkpt lat="49.2030539" lon="5.5664146"><ele>217.0</ele><time>2026-03-22T16:54:42.128Z</time></trkpt><trkpt lat="49.203083" lon="5.5665366"><ele>217.0</ele><time>2026-03-22T16:54:43.13Z</time></trkpt><trkpt lat="49.2031149" lon="5.5666809"><ele>217.0</ele><time>2026-03-22T16:54:44.129Z</time></trkpt><trkpt lat="49.2031491" lon="5.5668021"><ele>217.0</ele><time>2026-03-22T16:54:45.129Z</time></trkpt><trkpt lat="49.2031852" lon="5.5669394"><ele>217.0</ele><time>2026-03-22T16:54:46.129Z</time></trkpt><trkpt lat="49.2032186" lon="5.5670766"><ele>217.0</ele><time>2026-03-22T16:54:47.129Z</time></trkpt><trkpt lat="49.2032558" lon="5.5672131"><ele>217.0</ele><time>2026-03-22T16:54:48.129Z</time></trkpt><trkpt lat="49.2032928" lon="5.5673508"><ele>217.0</ele><time>2026-03-22T16:54:49.128Z</time></trkpt><trkpt lat="49.203328" lon="5.56749"><ele>217.0</ele><time>2026-03-22T16:54:50.128Z</time></trkpt><trkpt lat="49.2033583" lon="5.5676249"><ele>217.0</ele><time>2026-03-22T16:54:51.128Z</time></trkpt><trkpt lat="49.2033907" lon="5.5677556"><ele>216.83333333333331</ele><time>2026-03-22T16:54:52.127Z</time></trkpt><trkpt lat="49.2034214" lon="5.5678875"><ele>216.66666666666666</ele><time>2026-03-22T16:54:53.129Z</time></trkpt><trkpt lat="49.2034444" lon="5.5680185"><ele>216.5</ele><time>2026-03-22T16:54:54.128Z</time></trkpt><trkpt lat="49.2034756" lon="5.5681348"><ele>216.33333333333331</ele><time>2026-03-22T16:54:55.129Z</time></trkpt><trkpt lat="49.2035084" lon="5.5682598"><ele>216.16666666666666</ele><time>2026-03-22T16:54:56.129Z</time></trkpt><trkpt lat="49.2035371" lon="5.5683809"><ele>216.0</ele><time>2026-03-22T16:54:57.128Z</time></trkpt><trkpt lat="49.2035616" lon="5.5684971"><ele>216.0</ele><time>2026-03-22T16:54:58.129Z</time></trkpt><trkpt lat="49.2035846" lon="5.5686063"><ele>216.0</ele><time>2026-03-22T16:54:59.129Z</time></trkpt><trkpt lat="49.2036077" lon="5.5687244"><ele>216.0</ele><time>2026-03-22T16:55:00.128Z</time></trkpt><trkpt lat="49.2036382" lon="5.5688406"><ele>216.0</ele><time>2026-03-22T16:55:01.129Z</time></trkpt><trkpt lat="49.2036729" lon="5.5689606"><ele>216.0</ele><time>2026-03-22T16:55:02.129Z</time></trkpt><trkpt lat="49.2037058" lon="5.5690873"><ele>216.0</ele><time>2026-03-22T16:55:03.128Z</time></trkpt><trkpt lat="49.2037401" lon="5.5692055"><ele>216.0</ele><time>2026-03-22T16:55:04.127Z</time></trkpt><trkpt lat="49.2037721" lon="5.5693286"><ele>216.0</ele><time>2026-03-22T16:55:05.129Z</time></trkpt><trkpt lat="49.203799" lon="5.5694569"><ele>216.0</ele><time>2026-03-22T16:55:06.129Z</time></trkpt><trkpt lat="49.2038255" lon="5.5695804"><ele>216.0</ele><time>2026-03-22T16:55:07.129Z</time></trkpt><trkpt lat="49.2038521" lon="5.5697129"><ele>216.0</ele><time>2026-03-22T16:55:08.13Z</time></trkpt><trkpt lat="49.2038783" lon="5.5698365"><ele>216.0</ele><time>2026-03-22T16:55:09.129Z</time></trkpt><trkpt lat="49.2039062" lon="5.5699619"><ele>216.0</ele><time>2026-03-22T16:55:10.129Z</time></trkpt><trkpt lat="49.2039302" lon="5.5700928"><ele>216.0</ele><time>2026-03-22T16:55:11.128Z</time></trkpt><trkpt lat="49.2039595" lon="5.5702144"><ele>216.0</ele><time>2026-03-22T16:55:12.129Z</time></trkpt><trkpt lat="49.2039892" lon="5.5703368"><ele>216.0</ele><time>2026-03-22T16:55:13.128Z</time></trkpt><trkpt lat="49.2040138" lon="5.5704634"><ele>216.0</ele><time>2026-03-22T16:55:14.129Z</time></trkpt><trkpt lat="49.2040373" lon="5.570589"><ele>216.0</ele><time>2026-03-22T16:55:15.13Z</time></trkpt><trkpt lat="49.2040584" lon="5.5707174"><ele>216.0</ele><time>2026-03-22T16:55:16.128Z</time></trkpt><trkpt lat="49.2040749" lon="5.5708539"><ele>216.0</ele><time>2026-03-22T16:55:17.128Z</time></trkpt><trkpt lat="49.2040959" lon="5.5709835"><ele>216.0</ele><time>2026-03-22T16:55:18.128Z</time></trkpt><trkpt lat="49.2041217" lon="5.5711133"><ele>216.0</ele><time>2026-03-22T16:55:19.128Z</time></trkpt><trkpt lat="49.204145" lon="5.5712465"><ele>216.0</ele><time>2026-03-22T16:55:20.129Z</time></trkpt><trkpt lat="49.2041688" lon="5.5713751"><ele>216.0</ele><time>2026-03-22T16:55:21.129Z</time></trkpt><trkpt lat="49.2041918" lon="5.5714978"><ele>215.66666666666666</ele><time>2026-03-22T16:55:22.128Z</time></trkpt><trkpt lat="49.2042139" lon="5.5716269"><ele>215.33333333333331</ele><time>2026-03-22T16:55:23.128Z</time></trkpt><trkpt lat="49.2042328" lon="5.5717403"><ele>215.0</ele><time>2026-03-22T16:55:24.129Z</time></trkpt><trkpt lat="49.2042636" lon="5.5718657"><ele>214.66666666666666</ele><time>2026-03-22T16:55:25.129Z</time></trkpt><trkpt lat="49.2042902" lon="5.5719727"><ele>214.33333333333331</ele><time>2026-03-22T16:55:26.128Z</time></trkpt><trkpt lat="49.2043063" lon="5.5720749"><ele>214.0</ele><time>2026-03-22T16:55:27.128Z</time></trkpt><trkpt lat="49.2043249" lon="5.5721697"><ele>213.99999999999997</ele><time>2026-03-22T16:55:28.128Z</time></trkpt><trkpt lat="49.2043412" lon="5.5722725"><ele>214.0</ele><time>2026-03-22T16:55:29.129Z</time></trkpt><trkpt lat="49.2043593" lon="5.5723672"><ele>214.0</ele><time>2026-03-22T16:55:30.129Z</time></trkpt><trkpt lat="49.204386" lon="5.5724584"><ele>214.0</ele><time>2026-03-22T16:55:31.129Z</time></trkpt><trkpt lat="49.2044236" lon="5.5726293"><ele>213.99999999999997</ele><time>2026-03-22T16:55:33.129Z</time></trkpt><trkpt lat="49.2044397" lon="5.5727226"><ele>214.0</ele><time>2026-03-22T16:55:34.128Z</time></trkpt><trkpt lat="49.2044604" lon="5.5728261"><ele>213.85714285714286</ele><time>2026-03-22T16:55:35.128Z</time></trkpt><trkpt lat="49.204475" lon="5.5729238"><ele>213.71428571428572</ele><time>2026-03-22T16:55:36.128Z</time></trkpt><trkpt lat="49.2044985" lon="5.5730331"><ele>213.57142857142856</ele><time>2026-03-22T16:55:37.129Z</time></trkpt><trkpt lat="49.2045196" lon="5.573132"><ele>213.42857142857144</ele><time>2026-03-22T16:55:38.128Z</time></trkpt><trkpt lat="49.2045435" lon="5.573238"><ele>213.28571428571428</ele><time>2026-03-22T16:55:39.129Z</time></trkpt><trkpt lat="49.2045652" lon="5.5733467"><ele>213.14285714285714</ele><time>2026-03-22T16:55:40.127Z</time></trkpt><trkpt lat="49.2045827" lon="5.5734536"><ele>213.0</ele><time>2026-03-22T16:55:41.129Z</time></trkpt><trkpt lat="49.2045995" lon="5.5735669"><ele>212.99999999999997</ele><time>2026-03-22T16:55:42.128Z</time></trkpt><trkpt lat="49.2046206" lon="5.5736749"><ele>213.0</ele><time>2026-03-22T16:55:43.127Z</time></trkpt><trkpt lat="49.204641" lon="5.5737854"><ele>213.0</ele><time>2026-03-22T16:55:44.129Z</time></trkpt><trkpt lat="49.2046696" lon="5.5738926"><ele>213.0</ele><time>2026-03-22T16:55:45.129Z</time></trkpt><trkpt lat="49.2046942" lon="5.5739992"><ele>213.0</ele><time>2026-03-22T16:55:46.128Z</time></trkpt><trkpt lat="49.2047194" lon="5.5741004"><ele>212.99999999999997</ele><time>2026-03-22T16:55:47.129Z</time></trkpt><trkpt lat="49.2047444" lon="5.5742035"><ele>213.0</ele><time>2026-03-22T16:55:48.129Z</time></trkpt><trkpt lat="49.2047679" lon="5.5743083"><ele>212.99999999999997</ele><time>2026-03-22T16:55:49.128Z</time></trkpt><trkpt lat="49.2047854" lon="5.5744141"><ele>213.0</ele><time>2026-03-22T16:55:50.128Z</time></trkpt><trkpt lat="49.2048063" lon="5.5745184"><ele>213.0</ele><time>2026-03-22T16:55:51.128Z</time></trkpt><trkpt lat="49.2048231" lon="5.5746234"><ele>213.0</ele><time>2026-03-22T16:55:52.128Z</time></trkpt><trkpt lat="49.2048412" lon="5.5747245"><ele>213.0</ele><time>2026-03-22T16:55:53.128Z</time></trkpt><trkpt lat="49.2048631" lon="5.5748358"><ele>212.99999999999997</ele><time>2026-03-22T16:55:54.127Z</time></trkpt><trkpt lat="49.204887" lon="5.5749419"><ele>213.0</ele><time>2026-03-22T16:55:55.129Z</time></trkpt><trkpt lat="49.2049089" lon="5.5750485"><ele>212.7142857142857</ele><time>2026-03-22T16:55:56.128Z</time></trkpt><trkpt lat="49.2049281" lon="5.5751572"><ele>212.42857142857142</ele><time>2026-03-22T16:55:57.129Z</time></trkpt><trkpt lat="49.2049438" lon="5.5752627"><ele>212.14285714285714</ele><time>2026-03-22T16:55:58.129Z</time></trkpt><trkpt lat="49.204964" lon="5.5753721"><ele>211.85714285714283</ele><time>2026-03-22T16:55:59.129Z</time></trkpt><trkpt lat="49.2049821" lon="5.5754727"><ele>211.57142857142858</ele><time>2026-03-22T16:56:00.129Z</time></trkpt><trkpt lat="49.2050038" lon="5.5755708"><ele>211.28571428571428</ele><time>2026-03-22T16:56:01.129Z</time></trkpt><trkpt lat="49.2050229" lon="5.5756639"><ele>211.0</ele><time>2026-03-22T16:56:02.128Z</time></trkpt><trkpt lat="49.205046" lon="5.5758312"><ele>210.83333333333331</ele><time>2026-03-22T16:56:04.129Z</time></trkpt><trkpt lat="49.2050776" lon="5.5759446"><ele>210.66666666666666</ele><time>2026-03-22T16:56:06.128Z</time></trkpt><trkpt lat="49.2050966" lon="5.5760578"><ele>210.5</ele><time>2026-03-22T16:56:08.128Z</time></trkpt><trkpt lat="49.2051455" lon="5.576186"><ele>210.33333333333331</ele><time>2026-03-22T16:56:11.128Z</time></trkpt><trkpt lat="49.2051767" lon="5.5762829"><ele>210.16666666666666</ele><time>2026-03-22T16:56:13.13Z</time></trkpt><trkpt lat="49.2051865" lon="5.5764074"><ele>210.0</ele><time>2026-03-22T16:56:15.127Z</time></trkpt><trkpt lat="49.2052138" lon="5.5765316"><ele>210.0</ele><time>2026-03-22T16:56:17.127Z</time></trkpt><trkpt lat="49.2052496" lon="5.5766738"><ele>210.0</ele><time>2026-03-22T16:56:19.128Z</time></trkpt><trkpt lat="49.2052916" lon="5.5768562"><ele>210.0</ele><time>2026-03-22T16:56:21.128Z</time></trkpt><trkpt lat="49.2053131" lon="5.5769674"><ele>210.0</ele><time>2026-03-22T16:56:22.129Z</time></trkpt><trkpt lat="49.2053311" lon="5.5770899"><ele>210.0</ele><time>2026-03-22T16:56:23.128Z</time></trkpt><trkpt lat="49.2053494" lon="5.5771872"><ele>210.16666666666666</ele><time>2026-03-22T16:56:24.129Z</time></trkpt><trkpt lat="49.2053672" lon="5.5772865"><ele>210.33333333333331</ele><time>2026-03-22T16:56:25.129Z</time></trkpt><trkpt lat="49.2054017" lon="5.5774766"><ele>210.5</ele><time>2026-03-22T16:56:27.128Z</time></trkpt><trkpt lat="49.205427" lon="5.5775821"><ele>210.66666666666666</ele><time>2026-03-22T16:56:28.129Z</time></trkpt><trkpt lat="49.2054528" lon="5.5776923"><ele>210.83333333333331</ele><time>2026-03-22T16:56:29.128Z</time></trkpt><trkpt lat="49.2054704" lon="5.5778087"><ele>211.0</ele><time>2026-03-22T16:56:30.129Z</time></trkpt><trkpt lat="49.2054958" lon="5.5779151"><ele>211.0</ele><time>2026-03-22T16:56:31.13Z</time></trkpt><trkpt lat="49.2055286" lon="5.5780971"><ele>211.0</ele><time>2026-03-22T16:56:33.128Z</time></trkpt><trkpt lat="49.2055668" lon="5.5782941"><ele>211.0</ele><time>2026-03-22T16:56:35.129Z</time></trkpt><trkpt lat="49.2055864" lon="5.5783878"><ele>211.0</ele><time>2026-03-22T16:56:36.129Z</time></trkpt><trkpt lat="49.2056144" lon="5.5784814"><ele>211.0</ele><time>2026-03-22T16:56:37.129Z</time></trkpt><trkpt lat="49.205635" lon="5.5785861"><ele>210.99999999999997</ele><time>2026-03-22T16:56:38.129Z</time></trkpt><trkpt lat="49.2056594" lon="5.5786937"><ele>211.0</ele><time>2026-03-22T16:56:39.128Z</time></trkpt><trkpt lat="49.2056713" lon="5.5788069"><ele>211.0</ele><time>2026-03-22T16:56:40.128Z</time></trkpt><trkpt lat="49.2056897" lon="5.5789033"><ele>211.0</ele><time>2026-03-22T16:56:41.127Z</time></trkpt><trkpt lat="49.2057211" lon="5.5790663"><ele>210.99999999999997</ele><time>2026-03-22T16:56:43.128Z</time></trkpt><trkpt lat="49.205733" lon="5.5791854"><ele>211.0</ele><time>2026-03-22T16:56:45.128Z</time></trkpt><trkpt lat="49.2057592" lon="5.5793021"><ele>211.0</ele><time>2026-03-22T16:56:48.129Z</time></trkpt><trkpt lat="49.2057792" lon="5.579395"><ele>211.0</ele><time>2026-03-22T16:56:50.128Z</time></trkpt><trkpt lat="49.2058035" lon="5.5794991"><ele>211.0</ele><time>2026-03-22T16:56:57.128Z</time></trkpt><trkpt lat="49.2058323" lon="5.5796288"><ele>211.0</ele><time>2026-03-22T16:56:59.128Z</time></trkpt><trkpt lat="49.2058451" lon="5.5797252"><ele>211.0</ele><time>2026-03-22T16:57:00.128Z</time></trkpt><trkpt lat="49.2058632" lon="5.5798269"><ele>211.0</ele><time>2026-03-22T16:57:01.128Z</time></trkpt><trkpt lat="49.2058885" lon="5.5799343"><ele>211.0</ele><time>2026-03-22T16:57:02.129Z</time></trkpt><trkpt lat="49.2059164" lon="5.5800542"><ele>211.16666666666666</ele><time>2026-03-22T16:57:03.129Z</time></trkpt><trkpt lat="49.2059428" lon="5.5801748"><ele>211.33333333333331</ele><time>2026-03-22T16:57:04.129Z</time></trkpt><trkpt lat="49.2059729" lon="5.5803018"><ele>211.5</ele><time>2026-03-22T16:57:05.129Z</time></trkpt><trkpt lat="49.2059973" lon="5.580432"><ele>211.66666666666669</ele><time>2026-03-22T16:57:06.129Z</time></trkpt><trkpt lat="49.2060271" lon="5.5805561"><ele>211.83333333333334</ele><time>2026-03-22T16:57:07.128Z</time></trkpt><trkpt lat="49.2060519" lon="5.5806818"><ele>212.0</ele><time>2026-03-22T16:57:08.128Z</time></trkpt><trkpt lat="49.2060808" lon="5.5808042"><ele>212.33333333333334</ele><time>2026-03-22T16:57:09.129Z</time></trkpt><trkpt lat="49.2061084" lon="5.5809247"><ele>212.66666666666669</ele><time>2026-03-22T16:57:10.129Z</time></trkpt><trkpt lat="49.206141" lon="5.5810343"><ele>213.0</ele><time>2026-03-22T16:57:11.129Z</time></trkpt><trkpt lat="49.2061614" lon="5.5811379"><ele>213.33333333333331</ele><time>2026-03-22T16:57:12.128Z</time></trkpt><trkpt lat="49.2061894" lon="5.5812317"><ele>213.66666666666666</ele><time>2026-03-22T16:57:13.127Z</time></trkpt><trkpt lat="49.2062158" lon="5.5813317"><ele>214.0</ele><time>2026-03-22T16:57:14.128Z</time></trkpt><trkpt lat="49.2062548" lon="5.5815103"><ele>214.2</ele><time>2026-03-22T16:57:16.128Z</time></trkpt><trkpt lat="49.206292" lon="5.5816606"><ele>214.39999999999998</ele><time>2026-03-22T16:57:18.129Z</time></trkpt><trkpt lat="49.2063213" lon="5.581793"><ele>214.6</ele><time>2026-03-22T16:57:20.128Z</time></trkpt><trkpt lat="49.2063452" lon="5.58192"><ele>214.8</ele><time>2026-03-22T16:57:22.129Z</time></trkpt><trkpt lat="49.2063764" lon="5.5820523"><ele>215.0</ele><time>2026-03-22T16:57:24.128Z</time></trkpt><trkpt lat="49.206403" lon="5.5821805"><ele>214.8</ele><time>2026-03-22T16:57:26.128Z</time></trkpt><trkpt lat="49.2064317" lon="5.5823107"><ele>214.6</ele><time>2026-03-22T16:57:28.128Z</time></trkpt><trkpt lat="49.2064672" lon="5.5824399"><ele>214.39999999999998</ele><time>2026-03-22T16:57:30.129Z</time></trkpt><trkpt lat="49.2065069" lon="5.5825748"><ele>214.2</ele><time>2026-03-22T16:57:32.128Z</time></trkpt><trkpt lat="49.2065309" lon="5.5827044"><ele>214.0</ele><time>2026-03-22T16:57:34.128Z</time></trkpt><trkpt lat="49.2065569" lon="5.5828396"><ele>214.0</ele><time>2026-03-22T16:57:36.129Z</time></trkpt><trkpt lat="49.206579" lon="5.5829929"><ele>213.99999999999997</ele><time>2026-03-22T16:57:38.127Z</time></trkpt><trkpt lat="49.2066118" lon="5.5831331"><ele>213.99999999999997</ele><time>2026-03-22T16:57:40.129Z</time></trkpt><trkpt lat="49.2066362" lon="5.5832721"><ele>214.0</ele><time>2026-03-22T16:57:42.127Z</time></trkpt><trkpt lat="49.2066745" lon="5.5834204"><ele>214.0</ele><time>2026-03-22T16:57:44.128Z</time></trkpt><trkpt lat="49.2067061" lon="5.5835185"><ele>214.00000000000003</ele><time>2026-03-22T16:57:45.128Z</time></trkpt><trkpt lat="49.2067268" lon="5.583612"><ele>214.0</ele><time>2026-03-22T16:57:46.13Z</time></trkpt><trkpt lat="49.2067543" lon="5.5837269"><ele>214.0</ele><time>2026-03-22T16:57:47.129Z</time></trkpt><trkpt lat="49.2067702" lon="5.5838387"><ele>214.0</ele><time>2026-03-22T16:57:48.129Z</time></trkpt><trkpt lat="49.2067972" lon="5.5839367"><ele>214.0</ele><time>2026-03-22T16:57:49.129Z</time></trkpt><trkpt lat="49.206828" lon="5.5840458"><ele>214.00000000000003</ele><time>2026-03-22T16:57:50.128Z</time></trkpt><trkpt lat="49.2068472" lon="5.5841401"><ele>214.0</ele><time>2026-03-22T16:57:51.129Z</time></trkpt><trkpt lat="49.2068692" lon="5.5842629"><ele>213.99999999999997</ele><time>2026-03-22T16:57:53.13Z</time></trkpt><trkpt lat="49.2069227" lon="5.5843302"><ele>214.0</ele><time>2026-03-22T16:58:00.129Z</time></trkpt><trkpt lat="49.2070029" lon="5.5843172"><ele>214.0</ele><time>2026-03-22T16:58:03.129Z</time></trkpt><trkpt lat="49.2070626" lon="5.5842789"><ele>214.0</ele><time>2026-03-22T16:58:10.128Z</time></trkpt><trkpt lat="49.2071161" lon="5.5842279"><ele>213.99999999999997</ele><time>2026-03-22T16:58:34.128Z</time></trkpt><trkpt lat="49.2071866" lon="5.5841785"><ele>214.0</ele><time>2026-03-22T16:58:36.128Z</time></trkpt><trkpt lat="49.2073129" lon="5.5841085"><ele>214.2</ele><time>2026-03-22T16:58:38.128Z</time></trkpt><trkpt lat="49.2073904" lon="5.5840675"><ele>214.39999999999998</ele><time>2026-03-22T16:58:39.129Z</time></trkpt><trkpt lat="49.2074772" lon="5.5840274"><ele>214.6</ele><time>2026-03-22T16:58:40.128Z</time></trkpt><trkpt lat="49.2075625" lon="5.5839808"><ele>214.8</ele><time>2026-03-22T16:58:41.128Z</time></trkpt><trkpt lat="49.2076511" lon="5.5839514"><ele>215.0</ele><time>2026-03-22T16:58:42.127Z</time></trkpt><trkpt lat="49.2077432" lon="5.5838939"><ele>215.0</ele><time>2026-03-22T16:58:43.129Z</time></trkpt><trkpt lat="49.2078401" lon="5.5838418"><ele>215.0</ele><time>2026-03-22T16:58:44.129Z</time></trkpt><trkpt lat="49.2079257" lon="5.5837957"><ele>215.0</ele><time>2026-03-22T16:58:45.127Z</time></trkpt><trkpt lat="49.2080063" lon="5.5837488"><ele>215.0</ele><time>2026-03-22T16:58:46.129Z</time></trkpt><trkpt lat="49.2080744" lon="5.5837059"><ele>215.0</ele><time>2026-03-22T16:58:47.129Z</time></trkpt><trkpt lat="49.2081786" lon="5.583646"><ele>214.33333333333334</ele><time>2026-03-22T16:58:49.129Z</time></trkpt><trkpt lat="49.2082674" lon="5.5836221"><ele>213.66666666666669</ele><time>2026-03-22T16:58:55.128Z</time></trkpt><trkpt lat="49.2083171" lon="5.5836922"><ele>213.0</ele><time>2026-03-22T16:58:57.13Z</time></trkpt><trkpt lat="49.2083615" lon="5.5837973"><ele>212.33333333333331</ele><time>2026-03-22T16:58:58.129Z</time></trkpt><trkpt lat="49.2083925" lon="5.5839131"><ele>211.66666666666666</ele><time>2026-03-22T16:58:59.129Z</time></trkpt><trkpt lat="49.2084261" lon="5.5840437"><ele>211.0</ele><time>2026-03-22T16:59:00.128Z</time></trkpt><trkpt lat="49.2084611" lon="5.5841828"><ele>211.0</ele><time>2026-03-22T16:59:01.129Z</time></trkpt><trkpt lat="49.2085069" lon="5.5843402"><ele>211.0</ele><time>2026-03-22T16:59:02.13Z</time></trkpt><trkpt lat="49.2085508" lon="5.5845079"><ele>211.0</ele><time>2026-03-22T16:59:03.129Z</time></trkpt><trkpt lat="49.2085965" lon="5.5846909"><ele>211.0</ele><time>2026-03-22T16:59:04.128Z</time></trkpt><trkpt lat="49.2086457" lon="5.5848785"><ele>211.25</ele><time>2026-03-22T16:59:05.129Z</time></trkpt><trkpt lat="49.2086961" lon="5.58507"><ele>211.5</ele><time>2026-03-22T16:59:06.128Z</time></trkpt><trkpt lat="49.2087466" lon="5.5852692"><ele>211.75</ele><time>2026-03-22T16:59:07.128Z</time></trkpt><trkpt lat="49.2087978" lon="5.5854629"><ele>212.0</ele><time>2026-03-22T16:59:08.129Z</time></trkpt><trkpt lat="49.208848" lon="5.5856475"><ele>212.0</ele><time>2026-03-22T16:59:09.128Z</time></trkpt><trkpt lat="49.2089005" lon="5.5858335"><ele>212.0</ele><time>2026-03-22T16:59:10.127Z</time></trkpt><trkpt lat="49.2089512" lon="5.5860196"><ele>212.0</ele><time>2026-03-22T16:59:11.128Z</time></trkpt><trkpt lat="49.2090008" lon="5.5862083"><ele>212.0</ele><time>2026-03-22T16:59:12.127Z</time></trkpt><trkpt lat="49.2090488" lon="5.5863908"><ele>212.0</ele><time>2026-03-22T16:59:13.128Z</time></trkpt><trkpt lat="49.2090937" lon="5.5865773"><ele>212.0</ele><time>2026-03-22T16:59:14.128Z</time></trkpt><trkpt lat="49.2091419" lon="5.5867509"><ele>212.0</ele><time>2026-03-22T16:59:15.129Z</time></trkpt><trkpt lat="49.2091882" lon="5.5869213"><ele>212.0</ele><time>2026-03-22T16:59:16.129Z</time></trkpt><trkpt lat="49.2092314" lon="5.587093"><ele>212.5</ele><time>2026-03-22T16:59:17.129Z</time></trkpt><trkpt lat="49.2092799" lon="5.5872676"><ele>213.0</ele><time>2026-03-22T16:59:18.129Z</time></trkpt><trkpt lat="49.2093238" lon="5.5874386"><ele>213.5</ele><time>2026-03-22T16:59:19.13Z</time></trkpt><trkpt lat="49.2093685" lon="5.5876152"><ele>214.0</ele><time>2026-03-22T16:59:20.128Z</time></trkpt><trkpt lat="49.2094095" lon="5.5877857"><ele>214.5</ele><time>2026-03-22T16:59:21.128Z</time></trkpt><trkpt lat="49.209449" lon="5.5879614"><ele>215.0</ele><time>2026-03-22T16:59:22.128Z</time></trkpt><trkpt lat="49.2094869" lon="5.588141"><ele>215.5</ele><time>2026-03-22T16:59:23.128Z</time></trkpt><trkpt lat="49.2095193" lon="5.5883278"><ele>216.0</ele><time>2026-03-22T16:59:24.127Z</time></trkpt><trkpt lat="49.2095533" lon="5.5885081"><ele>215.75</ele><time>2026-03-22T16:59:25.127Z</time></trkpt><trkpt lat="49.2095816" lon="5.5886953"><ele>215.5</ele><time>2026-03-22T16:59:26.128Z</time></trkpt><trkpt lat="49.2096051" lon="5.5888811"><ele>215.25</ele><time>2026-03-22T16:59:27.128Z</time></trkpt><trkpt lat="49.20963" lon="5.5890741"><ele>215.0</ele><time>2026-03-22T16:59:28.128Z</time></trkpt><trkpt lat="49.209655" lon="5.5892653"><ele>215.0</ele><time>2026-03-22T16:59:29.128Z</time></trkpt><trkpt lat="49.2096751" lon="5.5894624"><ele>215.0</ele><time>2026-03-22T16:59:30.128Z</time></trkpt><trkpt lat="49.2096932" lon="5.5896572"><ele>215.0</ele><time>2026-03-22T16:59:31.128Z</time></trkpt><trkpt lat="49.2097121" lon="5.5898553"><ele>215.0</ele><time>2026-03-22T16:59:32.127Z</time></trkpt><trkpt lat="49.2097284" lon="5.5900547"><ele>215.0</ele><time>2026-03-22T16:59:33.129Z</time></trkpt><trkpt lat="49.209744" lon="5.5902602"><ele>215.0</ele><time>2026-03-22T16:59:34.129Z</time></trkpt><trkpt lat="49.2097594" lon="5.5904495"><ele>215.0</ele><time>2026-03-22T16:59:35.128Z</time></trkpt><trkpt lat="49.2097735" lon="5.5906361"><ele>215.0</ele><time>2026-03-22T16:59:36.129Z</time></trkpt><trkpt lat="49.209786" lon="5.5908254"><ele>214.5</ele><time>2026-03-22T16:59:37.129Z</time></trkpt><trkpt lat="49.2097998" lon="5.5910122"><ele>214.0</ele><time>2026-03-22T16:59:38.129Z</time></trkpt><trkpt lat="49.2098185" lon="5.5912057"><ele>213.5</ele><time>2026-03-22T16:59:39.129Z</time></trkpt><trkpt lat="49.2098327" lon="5.5914041"><ele>213.0</ele><time>2026-03-22T16:59:40.129Z</time></trkpt><trkpt lat="49.2098451" lon="5.5915972"><ele>213.0</ele><time>2026-03-22T16:59:41.129Z</time></trkpt><trkpt lat="49.2098576" lon="5.5917881"><ele>213.0</ele><time>2026-03-22T16:59:42.129Z</time></trkpt><trkpt lat="49.2098761" lon="5.5919798"><ele>213.0</ele><time>2026-03-22T16:59:43.128Z</time></trkpt><trkpt lat="49.209894" lon="5.5921711"><ele>213.0</ele><time>2026-03-22T16:59:44.128Z</time></trkpt><trkpt lat="49.2099085" lon="5.5923523"><ele>212.5</ele><time>2026-03-22T16:59:45.129Z</time></trkpt><trkpt lat="49.2099281" lon="5.5925375"><ele>212.0</ele><time>2026-03-22T16:59:46.129Z</time></trkpt><trkpt lat="49.2099469" lon="5.5927238"><ele>211.5</ele><time>2026-03-22T16:59:47.129Z</time></trkpt><trkpt lat="49.2099663" lon="5.59291"><ele>211.0</ele><time>2026-03-22T16:59:48.128Z</time></trkpt><trkpt lat="49.2099861" lon="5.5931033"><ele>210.75</ele><time>2026-03-22T16:59:49.128Z</time></trkpt><trkpt lat="49.2100045" lon="5.5932899"><ele>210.5</ele><time>2026-03-22T16:59:50.128Z</time></trkpt><trkpt lat="49.2100229" lon="5.5934746"><ele>210.25</ele><time>2026-03-22T16:59:51.128Z</time></trkpt><trkpt lat="49.2100404" lon="5.5936593"><ele>210.0</ele><time>2026-03-22T16:59:52.128Z</time></trkpt><trkpt lat="49.2100585" lon="5.5938437"><ele>210.0</ele><time>2026-03-22T16:59:53.129Z</time></trkpt><trkpt lat="49.2100744" lon="5.5940298"><ele>210.0</ele><time>2026-03-22T16:59:54.128Z</time></trkpt><trkpt lat="49.2100891" lon="5.594218"><ele>210.0</ele><time>2026-03-22T16:59:55.128Z</time></trkpt><trkpt lat="49.2101096" lon="5.5944008"><ele>210.0</ele><time>2026-03-22T16:59:56.128Z</time></trkpt><trkpt lat="49.2101276" lon="5.5945772"><ele>209.75</ele><time>2026-03-22T16:59:57.128Z</time></trkpt><trkpt lat="49.2101466" lon="5.59476"><ele>209.5</ele><time>2026-03-22T16:59:58.129Z</time></trkpt><trkpt lat="49.2101626" lon="5.5949401"><ele>209.25</ele><time>2026-03-22T16:59:59.128Z</time></trkpt><trkpt lat="49.2101759" lon="5.5951203"><ele>209.0</ele><time>2026-03-22T17:00:00.129Z</time></trkpt><trkpt lat="49.2101925" lon="5.5953045"><ele>209.25</ele><time>2026-03-22T17:00:01.13Z</time></trkpt><trkpt lat="49.2102095" lon="5.5954876"><ele>209.5</ele><time>2026-03-22T17:00:02.13Z</time></trkpt><trkpt lat="49.2102344" lon="5.5956752"><ele>209.75</ele><time>2026-03-22T17:00:03.127Z</time></trkpt><trkpt lat="49.2102464" lon="5.5958664"><ele>210.0</ele><time>2026-03-22T17:00:04.129Z</time></trkpt><trkpt lat="49.2102669" lon="5.5960553"><ele>210.0</ele><time>2026-03-22T17:00:05.129Z</time></trkpt><trkpt lat="49.2102852" lon="5.596241"><ele>210.0</ele><time>2026-03-22T17:00:06.129Z</time></trkpt><trkpt lat="49.2103062" lon="5.5964331"><ele>210.0</ele><time>2026-03-22T17:00:07.129Z</time></trkpt><trkpt lat="49.2103219" lon="5.5966295"><ele>210.0</ele><time>2026-03-22T17:00:08.129Z</time></trkpt><trkpt lat="49.2103403" lon="5.5968227"><ele>209.75</ele><time>2026-03-22T17:00:09.128Z</time></trkpt><trkpt lat="49.2103549" lon="5.5970111"><ele>209.5</ele><time>2026-03-22T17:00:10.128Z</time></trkpt><trkpt lat="49.2103691" lon="5.5971871"><ele>209.25</ele><time>2026-03-22T17:00:11.129Z</time></trkpt><trkpt lat="49.2103852" lon="5.5973677"><ele>209.0</ele><time>2026-03-22T17:00:12.13Z</time></trkpt><trkpt lat="49.2104032" lon="5.597549"><ele>209.0</ele><time>2026-03-22T17:00:13.129Z</time></trkpt><trkpt lat="49.2104232" lon="5.5977316"><ele>209.0</ele><time>2026-03-22T17:00:14.129Z</time></trkpt><trkpt lat="49.2104409" lon="5.5979183"><ele>209.0</ele><time>2026-03-22T17:00:15.129Z</time></trkpt><trkpt lat="49.2104614" lon="5.5981042"><ele>209.0</ele><time>2026-03-22T17:00:16.128Z</time></trkpt><trkpt lat="49.2104805" lon="5.5982928"><ele>208.75</ele><time>2026-03-22T17:00:17.128Z</time></trkpt><trkpt lat="49.2105012" lon="5.5984833"><ele>208.5</ele><time>2026-03-22T17:00:18.128Z</time></trkpt><trkpt lat="49.2105223" lon="5.5986669"><ele>208.25</ele><time>2026-03-22T17:00:19.128Z</time></trkpt><trkpt lat="49.2105372" lon="5.5988492"><ele>208.0</ele><time>2026-03-22T17:00:20.128Z</time></trkpt><trkpt lat="49.2105527" lon="5.5990279"><ele>208.0</ele><time>2026-03-22T17:00:21.13Z</time></trkpt><trkpt lat="49.2105699" lon="5.5992183"><ele>208.0</ele><time>2026-03-22T17:00:22.128Z</time></trkpt><trkpt lat="49.2105891" lon="5.5994038"><ele>208.0</ele><time>2026-03-22T17:00:23.129Z</time></trkpt><trkpt lat="49.2106052" lon="5.5995858"><ele>208.0</ele><time>2026-03-22T17:00:24.129Z</time></trkpt><trkpt lat="49.2106245" lon="5.5997653"><ele>208.0</ele><time>2026-03-22T17:00:25.128Z</time></trkpt><trkpt lat="49.2106434" lon="5.599949"><ele>208.0</ele><time>2026-03-22T17:00:26.129Z</time></trkpt><trkpt lat="49.2106627" lon="5.6001326"><ele>208.0</ele><time>2026-03-22T17:00:27.129Z</time></trkpt><trkpt lat="49.2106692" lon="5.6003218"><ele>208.0</ele><time>2026-03-22T17:00:28.129Z</time></trkpt><trkpt lat="49.2106776" lon="5.6005119"><ele>208.5</ele><time>2026-03-22T17:00:29.129Z</time></trkpt><trkpt lat="49.2106928" lon="5.6006952"><ele>209.0</ele><time>2026-03-22T17:00:30.13Z</time></trkpt><trkpt lat="49.2107095" lon="5.6008698"><ele>209.5</ele><time>2026-03-22T17:00:31.128Z</time></trkpt><trkpt lat="49.2107259" lon="5.6010459"><ele>210.0</ele><time>2026-03-22T17:00:32.129Z</time></trkpt><trkpt lat="49.2107415" lon="5.6012018"><ele>210.0</ele><time>2026-03-22T17:00:33.129Z</time></trkpt><trkpt lat="49.210756" lon="5.6013691"><ele>210.0</ele><time>2026-03-22T17:00:34.129Z</time></trkpt><trkpt lat="49.2107762" lon="5.6015294"><ele>210.0</ele><time>2026-03-22T17:00:35.129Z</time></trkpt><trkpt lat="49.2107914" lon="5.6016916"><ele>210.0</ele><time>2026-03-22T17:00:36.129Z</time></trkpt><trkpt lat="49.2108067" lon="5.6018561"><ele>210.0</ele><time>2026-03-22T17:00:37.128Z</time></trkpt><trkpt lat="49.2108237" lon="5.602023"><ele>210.0</ele><time>2026-03-22T17:00:38.128Z</time></trkpt><trkpt lat="49.2108404" lon="5.602188"><ele>210.0</ele><time>2026-03-22T17:00:39.128Z</time></trkpt><trkpt lat="49.2108531" lon="5.6023531"><ele>210.0</ele><time>2026-03-22T17:00:40.128Z</time></trkpt><trkpt lat="49.2108652" lon="5.6025163"><ele>210.0</ele><time>2026-03-22T17:00:41.128Z</time></trkpt><trkpt lat="49.210879" lon="5.6026783"><ele>210.0</ele><time>2026-03-22T17:00:42.129Z</time></trkpt><trkpt lat="49.2108935" lon="5.6028358"><ele>210.2</ele><time>2026-03-22T17:00:43.129Z</time></trkpt><trkpt lat="49.2109102" lon="5.602993"><ele>210.4</ele><time>2026-03-22T17:00:44.129Z</time></trkpt><trkpt lat="49.2109264" lon="5.6031544"><ele>210.60000000000002</ele><time>2026-03-22T17:00:45.13Z</time></trkpt><trkpt lat="49.2109425" lon="5.6033235"><ele>210.8</ele><time>2026-03-22T17:00:46.129Z</time></trkpt><trkpt lat="49.2109582" lon="5.6034928"><ele>211.0</ele><time>2026-03-22T17:00:47.129Z</time></trkpt><trkpt lat="49.2109769" lon="5.6036619"><ele>211.5</ele><time>2026-03-22T17:00:48.129Z</time></trkpt><trkpt lat="49.2109913" lon="5.6038325"><ele>212.0</ele><time>2026-03-22T17:00:49.128Z</time></trkpt><trkpt lat="49.2110036" lon="5.6040103"><ele>212.5</ele><time>2026-03-22T17:00:50.129Z</time></trkpt><trkpt lat="49.2110162" lon="5.6041825"><ele>213.0</ele><time>2026-03-22T17:00:51.128Z</time></trkpt><trkpt lat="49.2110388" lon="5.6043549"><ele>212.5</ele><time>2026-03-22T17:00:52.129Z</time></trkpt><trkpt lat="49.211057" lon="5.6045303"><ele>212.0</ele><time>2026-03-22T17:00:53.129Z</time></trkpt><trkpt lat="49.2110777" lon="5.6047086"><ele>211.5</ele><time>2026-03-22T17:00:54.128Z</time></trkpt><trkpt lat="49.2110964" lon="5.604893"><ele>211.0</ele><time>2026-03-22T17:00:55.128Z</time></trkpt><trkpt lat="49.2111146" lon="5.6050727"><ele>211.0</ele><time>2026-03-22T17:00:56.129Z</time></trkpt><trkpt lat="49.2111305" lon="5.6052501"><ele>211.0</ele><time>2026-03-22T17:00:57.129Z</time></trkpt><trkpt lat="49.2111484" lon="5.605423"><ele>211.0</ele><time>2026-03-22T17:00:58.129Z</time></trkpt><trkpt lat="49.2111656" lon="5.6055961"><ele>211.0</ele><time>2026-03-22T17:00:59.129Z</time></trkpt><trkpt lat="49.2111856" lon="5.6057728"><ele>211.0</ele><time>2026-03-22T17:01:00.129Z</time></trkpt><trkpt lat="49.211195" lon="5.6059544"><ele>211.0</ele><time>2026-03-22T17:01:01.129Z</time></trkpt><trkpt lat="49.2112169" lon="5.6061356"><ele>211.0</ele><time>2026-03-22T17:01:02.129Z</time></trkpt><trkpt lat="49.2112366" lon="5.6063134"><ele>211.0</ele><time>2026-03-22T17:01:03.129Z</time></trkpt><trkpt lat="49.2112535" lon="5.6064982"><ele>211.0</ele><time>2026-03-22T17:01:04.128Z</time></trkpt><trkpt lat="49.2112692" lon="5.6066883"><ele>211.0</ele><time>2026-03-22T17:01:05.128Z</time></trkpt><trkpt lat="49.2112846" lon="5.6068804"><ele>211.0</ele><time>2026-03-22T17:01:06.128Z</time></trkpt><trkpt lat="49.211301" lon="5.6070741"><ele>211.0</ele><time>2026-03-22T17:01:07.129Z</time></trkpt><trkpt lat="49.2113165" lon="5.6072734"><ele>211.0</ele><time>2026-03-22T17:01:08.129Z</time></trkpt><trkpt lat="49.2113352" lon="5.6074689"><ele>211.0</ele><time>2026-03-22T17:01:09.128Z</time></trkpt><trkpt lat="49.2113523" lon="5.6076662"><ele>211.0</ele><time>2026-03-22T17:01:10.129Z</time></trkpt><trkpt lat="49.2113685" lon="5.6078581"><ele>211.0</ele><time>2026-03-22T17:01:11.128Z</time></trkpt><trkpt lat="49.2113876" lon="5.6080396"><ele>211.0</ele><time>2026-03-22T17:01:12.128Z</time></trkpt><trkpt lat="49.2114071" lon="5.6082189"><ele>211.0</ele><time>2026-03-22T17:01:13.129Z</time></trkpt><trkpt lat="49.2114262" lon="5.6083964"><ele>211.0</ele><time>2026-03-22T17:01:14.128Z</time></trkpt><trkpt lat="49.2114435" lon="5.6085726"><ele>211.0</ele><time>2026-03-22T17:01:15.128Z</time></trkpt><trkpt lat="49.2114641" lon="5.6087499"><ele>210.75</ele><time>2026-03-22T17:01:16.128Z</time></trkpt><trkpt lat="49.2114805" lon="5.6089348"><ele>210.5</ele><time>2026-03-22T17:01:17.129Z</time></trkpt><trkpt lat="49.2114929" lon="5.6091154"><ele>210.25</ele><time>2026-03-22T17:01:18.129Z</time></trkpt><trkpt lat="49.2115096" lon="5.6092996"><ele>210.0</ele><time>2026-03-22T17:01:19.129Z</time></trkpt><trkpt lat="49.2115222" lon="5.6094852"><ele>209.5</ele><time>2026-03-22T17:01:20.129Z</time></trkpt><trkpt lat="49.2115422" lon="5.6096645"><ele>209.0</ele><time>2026-03-22T17:01:21.13Z</time></trkpt><trkpt lat="49.2115586" lon="5.609838"><ele>208.5</ele><time>2026-03-22T17:01:22.129Z</time></trkpt><trkpt lat="49.2115724" lon="5.6100102"><ele>208.0</ele><time>2026-03-22T17:01:23.128Z</time></trkpt><trkpt lat="49.2115884" lon="5.6101774"><ele>207.60000000000002</ele><time>2026-03-22T17:01:24.128Z</time></trkpt><trkpt lat="49.2116133" lon="5.6103417"><ele>207.20000000000002</ele><time>2026-03-22T17:01:25.128Z</time></trkpt><trkpt lat="49.2116225" lon="5.6105085"><ele>206.8</ele><time>2026-03-22T17:01:26.13Z</time></trkpt><trkpt lat="49.2116381" lon="5.6106737"><ele>206.4</ele><time>2026-03-22T17:01:27.129Z</time></trkpt><trkpt lat="49.2116588" lon="5.6108374"><ele>206.0</ele><time>2026-03-22T17:01:28.129Z</time></trkpt><trkpt lat="49.2116722" lon="5.6110036"><ele>205.60000000000002</ele><time>2026-03-22T17:01:29.128Z</time></trkpt><trkpt lat="49.2116882" lon="5.6111675"><ele>205.2</ele><time>2026-03-22T17:01:30.128Z</time></trkpt><trkpt lat="49.2117027" lon="5.6113349"><ele>204.8</ele><time>2026-03-22T17:01:31.129Z</time></trkpt><trkpt lat="49.211718" lon="5.611496"><ele>204.39999999999998</ele><time>2026-03-22T17:01:32.129Z</time></trkpt><trkpt lat="49.2117362" lon="5.6116565"><ele>204.0</ele><time>2026-03-22T17:01:33.129Z</time></trkpt><trkpt lat="49.211751" lon="5.6118192"><ele>204.0</ele><time>2026-03-22T17:01:34.129Z</time></trkpt><trkpt lat="49.2117677" lon="5.6119822"><ele>204.0</ele><time>2026-03-22T17:01:35.13Z</time></trkpt><trkpt lat="49.2117796" lon="5.6121446"><ele>204.0</ele><time>2026-03-22T17:01:36.128Z</time></trkpt><trkpt lat="49.2117903" lon="5.612309"><ele>204.0</ele><time>2026-03-22T17:01:37.127Z</time></trkpt><trkpt lat="49.2118058" lon="5.6124685"><ele>204.0</ele><time>2026-03-22T17:01:38.128Z</time></trkpt><trkpt lat="49.2118225" lon="5.6126319"><ele>203.75</ele><time>2026-03-22T17:01:39.128Z</time></trkpt><trkpt lat="49.2118365" lon="5.6128"><ele>203.5</ele><time>2026-03-22T17:01:40.129Z</time></trkpt><trkpt lat="49.2118548" lon="5.6129709"><ele>203.25</ele><time>2026-03-22T17:01:41.128Z</time></trkpt><trkpt lat="49.2118695" lon="5.6131432"><ele>203.0</ele><time>2026-03-22T17:01:42.128Z</time></trkpt><trkpt lat="49.2118784" lon="5.6133179"><ele>203.0</ele><time>2026-03-22T17:01:43.129Z</time></trkpt><trkpt lat="49.2118986" lon="5.6134915"><ele>203.0</ele><time>2026-03-22T17:01:44.128Z</time></trkpt><trkpt lat="49.2119152" lon="5.6136668"><ele>203.0</ele><time>2026-03-22T17:01:45.129Z</time></trkpt><trkpt lat="49.2119313" lon="5.6138397"><ele>203.0</ele><time>2026-03-22T17:01:46.128Z</time></trkpt><trkpt lat="49.2119485" lon="5.6140046"><ele>203.0</ele><time>2026-03-22T17:01:47.128Z</time></trkpt><trkpt lat="49.2119665" lon="5.6141884"><ele>203.0</ele><time>2026-03-22T17:01:48.128Z</time></trkpt><trkpt lat="49.2119895" lon="5.6143717"><ele>203.0</ele><time>2026-03-22T17:01:49.128Z</time></trkpt><trkpt lat="49.2120073" lon="5.6145659"><ele>203.0</ele><time>2026-03-22T17:01:50.128Z</time></trkpt><trkpt lat="49.2120246" lon="5.6147575"><ele>202.75</ele><time>2026-03-22T17:01:51.128Z</time></trkpt><trkpt lat="49.2120391" lon="5.6149455"><ele>202.5</ele><time>2026-03-22T17:01:52.129Z</time></trkpt><trkpt lat="49.2120565" lon="5.615148"><ele>202.25</ele><time>2026-03-22T17:01:53.128Z</time></trkpt><trkpt lat="49.2120805" lon="5.6153483"><ele>202.0</ele><time>2026-03-22T17:01:54.128Z</time></trkpt><trkpt lat="49.2120996" lon="5.6155409"><ele>202.0</ele><time>2026-03-22T17:01:55.129Z</time></trkpt><trkpt lat="49.2121169" lon="5.6157263"><ele>202.0</ele><time>2026-03-22T17:01:56.129Z</time></trkpt><trkpt lat="49.2121352" lon="5.6159123"><ele>202.0</ele><time>2026-03-22T17:01:57.129Z</time></trkpt><trkpt lat="49.2121493" lon="5.6160999"><ele>202.0</ele><time>2026-03-22T17:01:58.128Z</time></trkpt><trkpt lat="49.2121646" lon="5.6162756"><ele>201.75</ele><time>2026-03-22T17:01:59.128Z</time></trkpt><trkpt lat="49.212185" lon="5.6164599"><ele>201.5</ele><time>2026-03-22T17:02:00.128Z</time></trkpt><trkpt lat="49.2122034" lon="5.6166338"><ele>201.25</ele><time>2026-03-22T17:02:01.128Z</time></trkpt><trkpt lat="49.2122194" lon="5.6168122"><ele>201.0</ele><time>2026-03-22T17:02:02.128Z</time></trkpt><trkpt lat="49.2122333" lon="5.6169852"><ele>200.75</ele><time>2026-03-22T17:02:03.128Z</time></trkpt><trkpt lat="49.2122476" lon="5.6171617"><ele>200.5</ele><time>2026-03-22T17:02:04.128Z</time></trkpt><trkpt lat="49.2122613" lon="5.6173315"><ele>200.25</ele><time>2026-03-22T17:02:05.128Z</time></trkpt><trkpt lat="49.2122785" lon="5.617502"><ele>200.0</ele><time>2026-03-22T17:02:06.13Z</time></trkpt><trkpt lat="49.2122946" lon="5.6176695"><ele>200.4</ele><time>2026-03-22T17:02:07.129Z</time></trkpt><trkpt lat="49.2123089" lon="5.6178362"><ele>200.8</ele><time>2026-03-22T17:02:08.128Z</time></trkpt><trkpt lat="49.2123249" lon="5.6180013"><ele>201.2</ele><time>2026-03-22T17:02:09.128Z</time></trkpt><trkpt lat="49.2123399" lon="5.6181695"><ele>201.6</ele><time>2026-03-22T17:02:10.129Z</time></trkpt><trkpt lat="49.2123505" lon="5.6183309"><ele>202.0</ele><time>2026-03-22T17:02:11.129Z</time></trkpt><trkpt lat="49.2123628" lon="5.6184918"><ele>203.0</ele><time>2026-03-22T17:02:12.129Z</time></trkpt><trkpt lat="49.2123775" lon="5.6186552"><ele>204.0</ele><time>2026-03-22T17:02:13.129Z</time></trkpt><trkpt lat="49.2123926" lon="5.6188166"><ele>205.0</ele><time>2026-03-22T17:02:14.129Z</time></trkpt><trkpt lat="49.2124086" lon="5.6189719"><ele>206.0</ele><time>2026-03-22T17:02:15.129Z</time></trkpt><trkpt lat="49.2124245" lon="5.6191245"><ele>207.0</ele><time>2026-03-22T17:02:16.129Z</time></trkpt><trkpt lat="49.2124433" lon="5.6192708"><ele>207.0</ele><time>2026-03-22T17:02:17.129Z</time></trkpt><trkpt lat="49.2124557" lon="5.6194143"><ele>207.0</ele><time>2026-03-22T17:02:18.129Z</time></trkpt><trkpt lat="49.2124657" lon="5.6195647"><ele>207.0</ele><time>2026-03-22T17:02:19.128Z</time></trkpt><trkpt lat="49.212483" lon="5.619718"><ele>207.0</ele><time>2026-03-22T17:02:20.129Z</time></trkpt><trkpt lat="49.2124971" lon="5.619859"><ele>207.0</ele><time>2026-03-22T17:02:21.129Z</time></trkpt><trkpt lat="49.2125141" lon="5.6200029"><ele>207.0</ele><time>2026-03-22T17:02:22.128Z</time></trkpt><trkpt lat="49.2125301" lon="5.6201386"><ele>207.0</ele><time>2026-03-22T17:02:23.129Z</time></trkpt><trkpt lat="49.2125436" lon="5.6202797"><ele>207.0</ele><time>2026-03-22T17:02:24.128Z</time></trkpt><trkpt lat="49.2125574" lon="5.6204185"><ele>207.0</ele><time>2026-03-22T17:02:25.128Z</time></trkpt><trkpt lat="49.2125723" lon="5.6205577"><ele>207.0</ele><time>2026-03-22T17:02:26.129Z</time></trkpt><trkpt lat="49.2125814" lon="5.6206963"><ele>207.0</ele><time>2026-03-22T17:02:27.129Z</time></trkpt><trkpt lat="49.2125938" lon="5.6208266"><ele>207.0</ele><time>2026-03-22T17:02:28.128Z</time></trkpt><trkpt lat="49.2126054" lon="5.6209663"><ele>207.0</ele><time>2026-03-22T17:02:29.129Z</time></trkpt><trkpt lat="49.2126211" lon="5.6211103"><ele>207.0</ele><time>2026-03-22T17:02:30.13Z</time></trkpt><trkpt lat="49.2126313" lon="5.621249"><ele>207.0</ele><time>2026-03-22T17:02:31.129Z</time></trkpt><trkpt lat="49.2126475" lon="5.6213865"><ele>206.83333333333334</ele><time>2026-03-22T17:02:32.128Z</time></trkpt><trkpt lat="49.2126638" lon="5.6215243"><ele>206.66666666666669</ele><time>2026-03-22T17:02:33.129Z</time></trkpt><trkpt lat="49.2126786" lon="5.6216609"><ele>206.5</ele><time>2026-03-22T17:02:34.13Z</time></trkpt><trkpt lat="49.2126915" lon="5.6217972"><ele>206.33333333333334</ele><time>2026-03-22T17:02:35.129Z</time></trkpt><trkpt lat="49.2126999" lon="5.6219287"><ele>206.16666666666669</ele><time>2026-03-22T17:02:36.129Z</time></trkpt><trkpt lat="49.2127133" lon="5.6220636"><ele>206.0</ele><time>2026-03-22T17:02:37.129Z</time></trkpt><trkpt lat="49.2127269" lon="5.6222025"><ele>205.8</ele><time>2026-03-22T17:02:38.129Z</time></trkpt><trkpt lat="49.2127395" lon="5.6223422"><ele>205.60000000000002</ele><time>2026-03-22T17:02:39.129Z</time></trkpt><trkpt lat="49.2127527" lon="5.6224824"><ele>205.4</ele><time>2026-03-22T17:02:40.129Z</time></trkpt><trkpt lat="49.2127648" lon="5.6226202"><ele>205.2</ele><time>2026-03-22T17:02:41.129Z</time></trkpt><trkpt lat="49.2127789" lon="5.6227577"><ele>205.0</ele><time>2026-03-22T17:02:42.129Z</time></trkpt><trkpt lat="49.2127961" lon="5.622894"><ele>204.6</ele><time>2026-03-22T17:02:43.129Z</time></trkpt><trkpt lat="49.2128096" lon="5.6230297"><ele>204.2</ele><time>2026-03-22T17:02:44.13Z</time></trkpt><trkpt lat="49.2128246" lon="5.6231643"><ele>203.8</ele><time>2026-03-22T17:02:45.129Z</time></trkpt><trkpt lat="49.2128375" lon="5.6233023"><ele>203.4</ele><time>2026-03-22T17:02:46.129Z</time></trkpt><trkpt lat="49.2128504" lon="5.6234404"><ele>203.0</ele><time>2026-03-22T17:02:47.128Z</time></trkpt><trkpt lat="49.2128589" lon="5.6235791"><ele>202.8</ele><time>2026-03-22T17:02:48.128Z</time></trkpt><trkpt lat="49.212869" lon="5.6237158"><ele>202.60000000000002</ele><time>2026-03-22T17:02:49.128Z</time></trkpt><trkpt lat="49.2128804" lon="5.6238552"><ele>202.39999999999998</ele><time>2026-03-22T17:02:50.128Z</time></trkpt><trkpt lat="49.212896" lon="5.6239932"><ele>202.2</ele><time>2026-03-22T17:02:51.129Z</time></trkpt><trkpt lat="49.2129066" lon="5.6241269"><ele>202.0</ele><time>2026-03-22T17:02:52.129Z</time></trkpt><trkpt lat="49.2129184" lon="5.6242632"><ele>201.99999999999997</ele><time>2026-03-22T17:02:53.129Z</time></trkpt><trkpt lat="49.2129322" lon="5.624402"><ele>202.0</ele><time>2026-03-22T17:02:54.129Z</time></trkpt><trkpt lat="49.2129459" lon="5.6245337"><ele>202.0</ele><time>2026-03-22T17:02:55.129Z</time></trkpt><trkpt lat="49.2129603" lon="5.6246707"><ele>202.0</ele><time>2026-03-22T17:02:56.129Z</time></trkpt><trkpt lat="49.2129739" lon="5.6248049"><ele>201.99999999999997</ele><time>2026-03-22T17:02:57.129Z</time></trkpt><trkpt lat="49.2129885" lon="5.6249383"><ele>202.0</ele><time>2026-03-22T17:02:58.128Z</time></trkpt><trkpt lat="49.2130017" lon="5.6250689"><ele>202.16666666666666</ele><time>2026-03-22T17:02:59.128Z</time></trkpt><trkpt lat="49.2130162" lon="5.6251939"><ele>202.33333333333331</ele><time>2026-03-22T17:03:00.129Z</time></trkpt><trkpt lat="49.2130251" lon="5.6253226"><ele>202.5</ele><time>2026-03-22T17:03:01.129Z</time></trkpt><trkpt lat="49.2130348" lon="5.6254406"><ele>202.66666666666669</ele><time>2026-03-22T17:03:02.129Z</time></trkpt><trkpt lat="49.213048" lon="5.6255654"><ele>202.83333333333334</ele><time>2026-03-22T17:03:03.129Z</time></trkpt><trkpt lat="49.2130622" lon="5.6256851"><ele>203.0</ele><time>2026-03-22T17:03:04.129Z</time></trkpt><trkpt lat="49.213071" lon="5.6258126"><ele>203.00000000000003</ele><time>2026-03-22T17:03:05.128Z</time></trkpt><trkpt lat="49.2130818" lon="5.6259409"><ele>203.0</ele><time>2026-03-22T17:03:06.129Z</time></trkpt><trkpt lat="49.2130952" lon="5.62607"><ele>203.0</ele><time>2026-03-22T17:03:07.129Z</time></trkpt><trkpt lat="49.2131079" lon="5.6261986"><ele>203.0</ele><time>2026-03-22T17:03:08.13Z</time></trkpt><trkpt lat="49.2131153" lon="5.6263303"><ele>203.00000000000003</ele><time>2026-03-22T17:03:09.129Z</time></trkpt><trkpt lat="49.2131219" lon="5.6264567"><ele>203.0</ele><time>2026-03-22T17:03:10.129Z</time></trkpt><trkpt lat="49.2131336" lon="5.6265885"><ele>203.0</ele><time>2026-03-22T17:03:11.129Z</time></trkpt><trkpt lat="49.213148" lon="5.6267217"><ele>203.0</ele><time>2026-03-22T17:03:12.129Z</time></trkpt><trkpt lat="49.2131615" lon="5.626857"><ele>203.0</ele><time>2026-03-22T17:03:13.129Z</time></trkpt><trkpt lat="49.2131765" lon="5.6269974"><ele>203.0</ele><time>2026-03-22T17:03:14.129Z</time></trkpt><trkpt lat="49.2131926" lon="5.6271487"><ele>203.0</ele><time>2026-03-22T17:03:15.129Z</time></trkpt><trkpt lat="49.2132059" lon="5.6273085"><ele>203.0</ele><time>2026-03-22T17:03:16.128Z</time></trkpt><trkpt lat="49.2132224" lon="5.6274589"><ele>203.0</ele><time>2026-03-22T17:03:17.128Z</time></trkpt><trkpt lat="49.2132385" lon="5.627607"><ele>203.0</ele><time>2026-03-22T17:03:18.128Z</time></trkpt><trkpt lat="49.213256" lon="5.6277548"><ele>203.0</ele><time>2026-03-22T17:03:19.129Z</time></trkpt><trkpt lat="49.2132724" lon="5.6279037"><ele>203.0</ele><time>2026-03-22T17:03:20.129Z</time></trkpt><trkpt lat="49.2132936" lon="5.6280493"><ele>203.0</ele><time>2026-03-22T17:03:21.129Z</time></trkpt><trkpt lat="49.2133075" lon="5.628193"><ele>203.0</ele><time>2026-03-22T17:03:22.13Z</time></trkpt><trkpt lat="49.2133194" lon="5.6283367"><ele>203.0</ele><time>2026-03-22T17:03:23.129Z</time></trkpt><trkpt lat="49.2133339" lon="5.6284805"><ele>203.0</ele><time>2026-03-22T17:03:24.128Z</time></trkpt><trkpt lat="49.2133458" lon="5.6286209"><ele>203.0</ele><time>2026-03-22T17:03:25.128Z</time></trkpt><trkpt lat="49.2133556" lon="5.6287531"><ele>202.8</ele><time>2026-03-22T17:03:26.129Z</time></trkpt><trkpt lat="49.213369" lon="5.6288942"><ele>202.60000000000002</ele><time>2026-03-22T17:03:27.128Z</time></trkpt><trkpt lat="49.2133828" lon="5.6290321"><ele>202.39999999999998</ele><time>2026-03-22T17:03:28.129Z</time></trkpt><trkpt lat="49.2133939" lon="5.6291689"><ele>202.2</ele><time>2026-03-22T17:03:29.129Z</time></trkpt><trkpt lat="49.2134089" lon="5.6293048"><ele>202.0</ele><time>2026-03-22T17:03:30.129Z</time></trkpt><trkpt lat="49.2134282" lon="5.6294527"><ele>202.0</ele><time>2026-03-22T17:03:31.129Z</time></trkpt><trkpt lat="49.213445" lon="5.6296095"><ele>202.0</ele><time>2026-03-22T17:03:32.128Z</time></trkpt><trkpt lat="49.2134596" lon="5.6297731"><ele>202.0</ele><time>2026-03-22T17:03:33.129Z</time></trkpt><trkpt lat="49.2134793" lon="5.6299534"><ele>202.0</ele><time>2026-03-22T17:03:34.128Z</time></trkpt><trkpt lat="49.2134946" lon="5.6301195"><ele>202.0</ele><time>2026-03-22T17:03:35.129Z</time></trkpt><trkpt lat="49.2135128" lon="5.6302834"><ele>201.8</ele><time>2026-03-22T17:03:36.128Z</time></trkpt><trkpt lat="49.2135281" lon="5.6304366"><ele>201.6</ele><time>2026-03-22T17:03:37.129Z</time></trkpt><trkpt lat="49.2135366" lon="5.6306005"><ele>201.4</ele><time>2026-03-22T17:03:38.129Z</time></trkpt><trkpt lat="49.2135491" lon="5.6307652"><ele>201.20000000000002</ele><time>2026-03-22T17:03:39.137Z</time></trkpt><trkpt lat="49.2135603" lon="5.6309288"><ele>201.0</ele><time>2026-03-22T17:03:40.128Z</time></trkpt><trkpt lat="49.2135746" lon="5.6310861"><ele>200.8</ele><time>2026-03-22T17:03:41.129Z</time></trkpt><trkpt lat="49.2135883" lon="5.6312422"><ele>200.60000000000002</ele><time>2026-03-22T17:03:42.129Z</time></trkpt><trkpt lat="49.213591" lon="5.6313904"><ele>200.4</ele><time>2026-03-22T17:03:43.128Z</time></trkpt><trkpt lat="49.2135838" lon="5.6315299"><ele>200.2</ele><time>2026-03-22T17:03:44.129Z</time></trkpt><trkpt lat="49.2135646" lon="5.6316725"><ele>200.0</ele><time>2026-03-22T17:03:45.129Z</time></trkpt><trkpt lat="49.2135351" lon="5.6318027"><ele>200.00000000000003</ele><time>2026-03-22T17:03:46.129Z</time></trkpt><trkpt lat="49.2135016" lon="5.6319248"><ele>200.0</ele><time>2026-03-22T17:03:47.129Z</time></trkpt><trkpt lat="49.213454" lon="5.6320314"><ele>200.0</ele><time>2026-03-22T17:03:48.129Z</time></trkpt><trkpt lat="49.2134079" lon="5.6321356"><ele>200.0</ele><time>2026-03-22T17:03:49.13Z</time></trkpt><trkpt lat="49.2133543" lon="5.6322357"><ele>200.00000000000003</ele><time>2026-03-22T17:03:50.128Z</time></trkpt><trkpt lat="49.2133023" lon="5.6323423"><ele>200.0</ele><time>2026-03-22T17:03:51.13Z</time></trkpt><trkpt lat="49.2132437" lon="5.6324566"><ele>200.4</ele><time>2026-03-22T17:03:52.129Z</time></trkpt><trkpt lat="49.2131945" lon="5.6325688"><ele>200.8</ele><time>2026-03-22T17:03:53.128Z</time></trkpt><trkpt lat="49.2131514" lon="5.6326931"><ele>201.2</ele><time>2026-03-22T17:03:54.128Z</time></trkpt><trkpt lat="49.2131119" lon="5.6328163"><ele>201.6</ele><time>2026-03-22T17:03:55.129Z</time></trkpt><trkpt lat="49.2130837" lon="5.6329512"><ele>202.0</ele><time>2026-03-22T17:03:56.129Z</time></trkpt><trkpt lat="49.2130692" lon="5.6330863"><ele>202.39999999999998</ele><time>2026-03-22T17:03:57.129Z</time></trkpt><trkpt lat="49.2130763" lon="5.6332268"><ele>202.79999999999998</ele><time>2026-03-22T17:03:58.13Z</time></trkpt><trkpt lat="49.2130845" lon="5.6333716"><ele>203.2</ele><time>2026-03-22T17:03:59.129Z</time></trkpt><trkpt lat="49.2131091" lon="5.6335086"><ele>203.6</ele><time>2026-03-22T17:04:00.129Z</time></trkpt><trkpt lat="49.2131379" lon="5.6336414"><ele>204.0</ele><time>2026-03-22T17:04:01.129Z</time></trkpt><trkpt lat="49.2131638" lon="5.6337733"><ele>204.66666666666666</ele><time>2026-03-22T17:04:02.129Z</time></trkpt><trkpt lat="49.2131945" lon="5.6338949"><ele>205.33333333333331</ele><time>2026-03-22T17:04:03.129Z</time></trkpt><trkpt lat="49.2132205" lon="5.6340139"><ele>206.0</ele><time>2026-03-22T17:04:04.129Z</time></trkpt><trkpt lat="49.2132443" lon="5.6341317"><ele>206.66666666666666</ele><time>2026-03-22T17:04:05.128Z</time></trkpt><trkpt lat="49.2132707" lon="5.6342452"><ele>207.33333333333331</ele><time>2026-03-22T17:04:06.128Z</time></trkpt><trkpt lat="49.2132954" lon="5.6343369"><ele>208.0</ele><time>2026-03-22T17:04:07.129Z</time></trkpt><trkpt lat="49.2133215" lon="5.6344338"><ele>208.0</ele><time>2026-03-22T17:04:08.129Z</time></trkpt><trkpt lat="49.2133451" lon="5.6345265"><ele>208.0</ele><time>2026-03-22T17:04:09.129Z</time></trkpt><trkpt lat="49.2133713" lon="5.634711"><ele>208.0</ele><time>2026-03-22T17:04:11.129Z</time></trkpt><trkpt lat="49.2134111" lon="5.634915"><ele>208.0</ele><time>2026-03-22T17:04:13.128Z</time></trkpt><trkpt lat="49.2134287" lon="5.6350388"><ele>208.0</ele><time>2026-03-22T17:04:14.129Z</time></trkpt><trkpt lat="49.2134494" lon="5.6351711"><ele>207.99999999999997</ele><time>2026-03-22T17:04:15.129Z</time></trkpt><trkpt lat="49.2134721" lon="5.6353035"><ele>208.0</ele><time>2026-03-22T17:04:16.129Z</time></trkpt><trkpt lat="49.213493" lon="5.6354382"><ele>208.0</ele><time>2026-03-22T17:04:17.129Z</time></trkpt><trkpt lat="49.2135118" lon="5.6355678"><ele>208.0</ele><time>2026-03-22T17:04:18.129Z</time></trkpt><trkpt lat="49.2135327" lon="5.6356975"><ele>207.99999999999997</ele><time>2026-03-22T17:04:19.129Z</time></trkpt><trkpt lat="49.2135479" lon="5.6358172"><ele>208.0</ele><time>2026-03-22T17:04:20.129Z</time></trkpt><trkpt lat="49.2135629" lon="5.6359417"><ele>208.4</ele><time>2026-03-22T17:04:21.128Z</time></trkpt><trkpt lat="49.2135866" lon="5.6360691"><ele>208.8</ele><time>2026-03-22T17:04:22.129Z</time></trkpt><trkpt lat="49.2136145" lon="5.6362046"><ele>209.2</ele><time>2026-03-22T17:04:23.129Z</time></trkpt><trkpt lat="49.2136434" lon="5.6363407"><ele>209.6</ele><time>2026-03-22T17:04:24.13Z</time></trkpt><trkpt lat="49.2136763" lon="5.636482"><ele>210.0</ele><time>2026-03-22T17:04:25.129Z</time></trkpt><trkpt lat="49.213706" lon="5.6366175"><ele>210.0</ele><time>2026-03-22T17:04:26.13Z</time></trkpt><trkpt lat="49.213728" lon="5.6367569"><ele>210.0</ele><time>2026-03-22T17:04:27.129Z</time></trkpt><trkpt lat="49.2137664" lon="5.6368974"><ele>210.0</ele><time>2026-03-22T17:04:28.128Z</time></trkpt><trkpt lat="49.2137983" lon="5.6370422"><ele>210.0</ele><time>2026-03-22T17:04:29.13Z</time></trkpt><trkpt lat="49.2138296" lon="5.6371821"><ele>210.0</ele><time>2026-03-22T17:04:30.129Z</time></trkpt><trkpt lat="49.2138565" lon="5.6373254"><ele>210.0</ele><time>2026-03-22T17:04:31.13Z</time></trkpt><trkpt lat="49.2138892" lon="5.6374759"><ele>210.0</ele><time>2026-03-22T17:04:32.13Z</time></trkpt><trkpt lat="49.2139255" lon="5.637615"><ele>210.0</ele><time>2026-03-22T17:04:33.129Z</time></trkpt><trkpt lat="49.2139524" lon="5.6377498"><ele>210.0</ele><time>2026-03-22T17:04:34.131Z</time></trkpt><trkpt lat="49.2139768" lon="5.6378872"><ele>210.0</ele><time>2026-03-22T17:04:35.129Z</time></trkpt><trkpt lat="49.2140093" lon="5.6380226"><ele>210.16666666666666</ele><time>2026-03-22T17:04:36.129Z</time></trkpt><trkpt lat="49.214041" lon="5.6381563"><ele>210.33333333333331</ele><time>2026-03-22T17:04:37.129Z</time></trkpt><trkpt lat="49.2140763" lon="5.6382869"><ele>210.5</ele><time>2026-03-22T17:04:38.128Z</time></trkpt><trkpt lat="49.2141162" lon="5.6384052"><ele>210.66666666666666</ele><time>2026-03-22T17:04:39.13Z</time></trkpt><trkpt lat="49.2141462" lon="5.6385116"><ele>210.83333333333331</ele><time>2026-03-22T17:04:40.129Z</time></trkpt><trkpt lat="49.2141746" lon="5.6386081"><ele>211.0</ele><time>2026-03-22T17:04:41.128Z</time></trkpt><trkpt lat="49.2142037" lon="5.6386961"><ele>211.16666666666666</ele><time>2026-03-22T17:04:42.13Z</time></trkpt><trkpt lat="49.2142491" lon="5.6388725"><ele>211.33333333333331</ele><time>2026-03-22T17:04:44.129Z</time></trkpt><trkpt lat="49.2142689" lon="5.6389717"><ele>211.5</ele><time>2026-03-22T17:04:45.129Z</time></trkpt><trkpt lat="49.2142988" lon="5.6390799"><ele>211.66666666666669</ele><time>2026-03-22T17:04:46.129Z</time></trkpt><trkpt lat="49.2143233" lon="5.6391863"><ele>211.83333333333334</ele><time>2026-03-22T17:04:47.129Z</time></trkpt><trkpt lat="49.2143552" lon="5.6392976"><ele>212.0</ele><time>2026-03-22T17:04:48.129Z</time></trkpt><trkpt lat="49.2143912" lon="5.6394098"><ele>212.00000000000003</ele><time>2026-03-22T17:04:49.13Z</time></trkpt><trkpt lat="49.2144357" lon="5.6395136"><ele>212.0</ele><time>2026-03-22T17:04:50.13Z</time></trkpt><trkpt lat="49.2144762" lon="5.6396182"><ele>212.0</ele><time>2026-03-22T17:04:51.13Z</time></trkpt><trkpt lat="49.2145231" lon="5.639721"><ele>212.0</ele><time>2026-03-22T17:04:52.129Z</time></trkpt><trkpt lat="49.2145802" lon="5.6398139"><ele>212.00000000000003</ele><time>2026-03-22T17:04:53.129Z</time></trkpt><trkpt lat="49.2146412" lon="5.6399081"><ele>212.0</ele><time>2026-03-22T17:04:54.128Z</time></trkpt><trkpt lat="49.2147088" lon="5.639989"><ele>212.0</ele><time>2026-03-22T17:04:55.129Z</time></trkpt><trkpt lat="49.2147763" lon="5.6400744"><ele>212.0</ele><time>2026-03-22T17:04:56.129Z</time></trkpt><trkpt lat="49.2148449" lon="5.6401647"><ele>212.0</ele><time>2026-03-22T17:04:57.13Z</time></trkpt><trkpt lat="49.2149145" lon="5.6402635"><ele>212.0</ele><time>2026-03-22T17:04:58.13Z</time></trkpt><trkpt lat="49.2149847" lon="5.6403653"><ele>212.0</ele><time>2026-03-22T17:04:59.129Z</time></trkpt><trkpt lat="49.2150548" lon="5.6404634"><ele>211.8</ele><time>2026-03-22T17:05:00.129Z</time></trkpt><trkpt lat="49.2151261" lon="5.6405611"><ele>211.6</ele><time>2026-03-22T17:05:01.129Z</time></trkpt><trkpt lat="49.2151948" lon="5.640655"><ele>211.4</ele><time>2026-03-22T17:05:02.129Z</time></trkpt><trkpt lat="49.2152669" lon="5.6407405"><ele>211.20000000000002</ele><time>2026-03-22T17:05:03.129Z</time></trkpt><trkpt lat="49.2153445" lon="5.640835"><ele>211.0</ele><time>2026-03-22T17:05:04.129Z</time></trkpt><trkpt lat="49.2154186" lon="5.6409333"><ele>211.0</ele><time>2026-03-22T17:05:05.129Z</time></trkpt><trkpt lat="49.2154917" lon="5.6410387"><ele>211.0</ele><time>2026-03-22T17:05:06.128Z</time></trkpt><trkpt lat="49.2155667" lon="5.6411408"><ele>211.0</ele><time>2026-03-22T17:05:07.13Z</time></trkpt><trkpt lat="49.2156387" lon="5.6412376"><ele>211.0</ele><time>2026-03-22T17:05:08.129Z</time></trkpt><trkpt lat="49.2157082" lon="5.6413307"><ele>211.0</ele><time>2026-03-22T17:05:09.129Z</time></trkpt><trkpt lat="49.2157742" lon="5.6414201"><ele>211.0</ele><time>2026-03-22T17:05:10.129Z</time></trkpt><trkpt lat="49.2158422" lon="5.6415106"><ele>211.0</ele><time>2026-03-22T17:05:11.129Z</time></trkpt><trkpt lat="49.2159138" lon="5.6415937"><ele>211.0</ele><time>2026-03-22T17:05:12.129Z</time></trkpt><trkpt lat="49.2159823" lon="5.6416814"><ele>211.0</ele><time>2026-03-22T17:05:13.129Z</time></trkpt><trkpt lat="49.2160508" lon="5.6417732"><ele>211.0</ele><time>2026-03-22T17:05:14.128Z</time></trkpt><trkpt lat="49.2161251" lon="5.6418604"><ele>211.0</ele><time>2026-03-22T17:05:15.129Z</time></trkpt><trkpt lat="49.2162017" lon="5.6419598"><ele>211.0</ele><time>2026-03-22T17:05:16.128Z</time></trkpt><trkpt lat="49.216282" lon="5.6420698"><ele>211.0</ele><time>2026-03-22T17:05:17.129Z</time></trkpt><trkpt lat="49.2163652" lon="5.6421799"><ele>211.0</ele><time>2026-03-22T17:05:18.128Z</time></trkpt><trkpt lat="49.2164419" lon="5.6422803"><ele>211.0</ele><time>2026-03-22T17:05:19.13Z</time></trkpt><trkpt lat="49.2165186" lon="5.6423747"><ele>211.60000000000002</ele><time>2026-03-22T17:05:20.129Z</time></trkpt><trkpt lat="49.2165943" lon="5.6424739"><ele>212.2</ele><time>2026-03-22T17:05:21.129Z</time></trkpt><trkpt lat="49.216669" lon="5.6425794"><ele>212.79999999999998</ele><time>2026-03-22T17:05:22.129Z</time></trkpt><trkpt lat="49.2167407" lon="5.6426868"><ele>213.39999999999998</ele><time>2026-03-22T17:05:23.129Z</time></trkpt><trkpt lat="49.2168225" lon="5.6427818"><ele>214.0</ele><time>2026-03-22T17:05:24.129Z</time></trkpt><trkpt lat="49.2169013" lon="5.642886"><ele>214.39999999999998</ele><time>2026-03-22T17:05:25.129Z</time></trkpt><trkpt lat="49.2169775" lon="5.6429939"><ele>214.79999999999998</ele><time>2026-03-22T17:05:26.129Z</time></trkpt><trkpt lat="49.2170514" lon="5.6431015"><ele>215.20000000000002</ele><time>2026-03-22T17:05:27.13Z</time></trkpt><trkpt lat="49.2171317" lon="5.6432173"><ele>215.60000000000002</ele><time>2026-03-22T17:05:28.13Z</time></trkpt><trkpt lat="49.2172161" lon="5.6433213"><ele>216.0</ele><time>2026-03-22T17:05:29.129Z</time></trkpt><trkpt lat="49.2172942" lon="5.6434229"><ele>216.0</ele><time>2026-03-22T17:05:30.129Z</time></trkpt><trkpt lat="49.2173727" lon="5.6435251"><ele>216.00000000000003</ele><time>2026-03-22T17:05:31.13Z</time></trkpt><trkpt lat="49.2174486" lon="5.64362"><ele>216.00000000000003</ele><time>2026-03-22T17:05:32.129Z</time></trkpt><trkpt lat="49.2175262" lon="5.6437181"><ele>216.0</ele><time>2026-03-22T17:05:33.129Z</time></trkpt><trkpt lat="49.2176058" lon="5.6438229"><ele>216.0</ele><time>2026-03-22T17:05:34.129Z</time></trkpt><trkpt lat="49.2176852" lon="5.6439244"><ele>216.20000000000002</ele><time>2026-03-22T17:05:35.129Z</time></trkpt><trkpt lat="49.2177659" lon="5.6440333"><ele>216.40000000000003</ele><time>2026-03-22T17:05:36.129Z</time></trkpt><trkpt lat="49.2178465" lon="5.6441406"><ele>216.6</ele><time>2026-03-22T17:05:37.13Z</time></trkpt><trkpt lat="49.217926" lon="5.6442484"><ele>216.8</ele><time>2026-03-22T17:05:38.129Z</time></trkpt><trkpt lat="49.2180027" lon="5.6443482"><ele>217.0</ele><time>2026-03-22T17:05:39.128Z</time></trkpt><trkpt lat="49.2180827" lon="5.6444559"><ele>217.39999999999998</ele><time>2026-03-22T17:05:40.129Z</time></trkpt><trkpt lat="49.2181614" lon="5.6445584"><ele>217.79999999999998</ele><time>2026-03-22T17:05:41.128Z</time></trkpt><trkpt lat="49.2182386" lon="5.6446584"><ele>218.2</ele><time>2026-03-22T17:05:42.129Z</time></trkpt><trkpt lat="49.218315" lon="5.6447578"><ele>218.6</ele><time>2026-03-22T17:05:43.128Z</time></trkpt><trkpt lat="49.2183901" lon="5.6448585"><ele>219.0</ele><time>2026-03-22T17:05:44.13Z</time></trkpt><trkpt lat="49.2184662" lon="5.6449526"><ele>219.0</ele><time>2026-03-22T17:05:45.129Z</time></trkpt><trkpt lat="49.2185428" lon="5.6450541"><ele>218.99999999999997</ele><time>2026-03-22T17:05:46.129Z</time></trkpt><trkpt lat="49.218618" lon="5.6451519"><ele>218.99999999999997</ele><time>2026-03-22T17:05:47.129Z</time></trkpt><trkpt lat="49.2186906" lon="5.6452503"><ele>219.0</ele><time>2026-03-22T17:05:48.13Z</time></trkpt><trkpt lat="49.2187644" lon="5.6453475"><ele>219.0</ele><time>2026-03-22T17:05:49.128Z</time></trkpt><trkpt lat="49.2188426" lon="5.6454478"><ele>219.0</ele><time>2026-03-22T17:05:50.129Z</time></trkpt><trkpt lat="49.2189152" lon="5.6455477"><ele>218.99999999999997</ele><time>2026-03-22T17:05:51.129Z</time></trkpt><trkpt lat="49.2189897" lon="5.645643"><ele>218.99999999999997</ele><time>2026-03-22T17:05:52.129Z</time></trkpt><trkpt lat="49.2190637" lon="5.6457409"><ele>219.0</ele><time>2026-03-22T17:05:53.129Z</time></trkpt><trkpt lat="49.2191359" lon="5.6458388"><ele>219.0</ele><time>2026-03-22T17:05:54.129Z</time></trkpt><trkpt lat="49.2192098" lon="5.6459359"><ele>219.39999999999998</ele><time>2026-03-22T17:05:55.129Z</time></trkpt><trkpt lat="49.2192847" lon="5.6460322"><ele>219.79999999999998</ele><time>2026-03-22T17:05:56.129Z</time></trkpt><trkpt lat="49.2193631" lon="5.6461234"><ele>220.20000000000002</ele><time>2026-03-22T17:05:57.13Z</time></trkpt><trkpt lat="49.2194407" lon="5.6462271"><ele>220.60000000000002</ele><time>2026-03-22T17:05:58.129Z</time></trkpt><trkpt lat="49.2195171" lon="5.6463282"><ele>221.0</ele><time>2026-03-22T17:05:59.129Z</time></trkpt><trkpt lat="49.2195946" lon="5.6464263"><ele>221.0</ele><time>2026-03-22T17:06:00.128Z</time></trkpt><trkpt lat="49.2196696" lon="5.6465263"><ele>221.00000000000003</ele><time>2026-03-22T17:06:01.129Z</time></trkpt><trkpt lat="49.2197438" lon="5.6466278"><ele>221.00000000000003</ele><time>2026-03-22T17:06:02.13Z</time></trkpt><trkpt lat="49.2198178" lon="5.6467246"><ele>221.0</ele><time>2026-03-22T17:06:03.13Z</time></trkpt><trkpt lat="49.219891" lon="5.6468188"><ele>221.0</ele><time>2026-03-22T17:06:04.131Z</time></trkpt><trkpt lat="49.2199657" lon="5.6469168"><ele>221.0</ele><time>2026-03-22T17:06:05.128Z</time></trkpt><trkpt lat="49.2200405" lon="5.6470263"><ele>221.00000000000003</ele><time>2026-03-22T17:06:06.129Z</time></trkpt><trkpt lat="49.2201135" lon="5.6471261"><ele>221.00000000000003</ele><time>2026-03-22T17:06:07.128Z</time></trkpt><trkpt lat="49.2201848" lon="5.6472223"><ele>221.0</ele><time>2026-03-22T17:06:08.129Z</time></trkpt><trkpt lat="49.2202539" lon="5.6473181"><ele>221.0</ele><time>2026-03-22T17:06:09.128Z</time></trkpt><trkpt lat="49.2203198" lon="5.6474116"><ele>221.00000000000003</ele><time>2026-03-22T17:06:10.13Z</time></trkpt><trkpt lat="49.2203751" lon="5.6475074"><ele>221.0</ele><time>2026-03-22T17:06:11.129Z</time></trkpt><trkpt lat="49.220419" lon="5.6476113"><ele>221.0</ele><time>2026-03-22T17:06:12.129Z</time></trkpt><trkpt lat="49.2204477" lon="5.6477269"><ele>221.0</ele><time>2026-03-22T17:06:13.129Z</time></trkpt><trkpt lat="49.2204746" lon="5.6478318"><ele>221.00000000000003</ele><time>2026-03-22T17:06:14.129Z</time></trkpt><trkpt lat="49.2205136" lon="5.6479254"><ele>221.0</ele><time>2026-03-22T17:06:15.128Z</time></trkpt><trkpt lat="49.2205681" lon="5.6480019"><ele>221.00000000000003</ele><time>2026-03-22T17:06:16.13Z</time></trkpt><trkpt lat="49.2206361" lon="5.6480479"><ele>221.0</ele><time>2026-03-22T17:06:17.128Z</time></trkpt><trkpt lat="49.2207099" lon="5.6480787"><ele>221.0</ele><time>2026-03-22T17:06:18.129Z</time></trkpt><trkpt lat="49.220788" lon="5.6481073"><ele>221.0</ele><time>2026-03-22T17:06:19.129Z</time></trkpt><trkpt lat="49.2208677" lon="5.6481641"><ele>221.00000000000003</ele><time>2026-03-22T17:06:20.13Z</time></trkpt><trkpt lat="49.2209467" lon="5.6482235"><ele>221.0</ele><time>2026-03-22T17:06:21.129Z</time></trkpt><trkpt lat="49.221022" lon="5.6483248"><ele>221.20000000000002</ele><time>2026-03-22T17:06:22.129Z</time></trkpt><trkpt lat="49.221099" lon="5.6484179"><ele>221.40000000000003</ele><time>2026-03-22T17:06:23.13Z</time></trkpt><trkpt lat="49.2211767" lon="5.6485174"><ele>221.6</ele><time>2026-03-22T17:06:24.129Z</time></trkpt><trkpt lat="49.2212589" lon="5.6486124"><ele>221.8</ele><time>2026-03-22T17:06:25.13Z</time></trkpt><trkpt lat="49.2213391" lon="5.6487138"><ele>222.0</ele><time>2026-03-22T17:06:26.128Z</time></trkpt><trkpt lat="49.22142" lon="5.648815"><ele>222.16666666666666</ele><time>2026-03-22T17:06:27.128Z</time></trkpt><trkpt lat="49.2214944" lon="5.6489111"><ele>222.33333333333331</ele><time>2026-03-22T17:06:28.129Z</time></trkpt><trkpt lat="49.2215679" lon="5.649001"><ele>222.5</ele><time>2026-03-22T17:06:29.129Z</time></trkpt><trkpt lat="49.2216347" lon="5.6490924"><ele>222.66666666666666</ele><time>2026-03-22T17:06:30.129Z</time></trkpt><trkpt lat="49.2216898" lon="5.6491902"><ele>222.83333333333331</ele><time>2026-03-22T17:06:31.129Z</time></trkpt><trkpt lat="49.22174" lon="5.6492932"><ele>223.0</ele><time>2026-03-22T17:06:32.129Z</time></trkpt><trkpt lat="49.2217759" lon="5.6494142"><ele>223.0</ele><time>2026-03-22T17:06:33.129Z</time></trkpt><trkpt lat="49.2218339" lon="5.649532"><ele>223.0</ele><time>2026-03-22T17:06:34.128Z</time></trkpt><trkpt lat="49.2219184" lon="5.6496385"><ele>223.0</ele><time>2026-03-22T17:06:35.129Z</time></trkpt><trkpt lat="49.2220045" lon="5.6497667"><ele>223.0</ele><time>2026-03-22T17:06:36.13Z</time></trkpt><trkpt lat="49.2220985" lon="5.6498995"><ele>223.0</ele><time>2026-03-22T17:06:37.129Z</time></trkpt><trkpt lat="49.2221955" lon="5.6500301"><ele>223.0</ele><time>2026-03-22T17:06:38.129Z</time></trkpt><trkpt lat="49.2222883" lon="5.6501505"><ele>223.0</ele><time>2026-03-22T17:06:39.13Z</time></trkpt><trkpt lat="49.2223776" lon="5.6502705"><ele>223.0</ele><time>2026-03-22T17:06:40.129Z</time></trkpt><trkpt lat="49.2224618" lon="5.6503779"><ele>223.4</ele><time>2026-03-22T17:06:41.129Z</time></trkpt><trkpt lat="49.2225454" lon="5.6504851"><ele>223.8</ele><time>2026-03-22T17:06:42.131Z</time></trkpt><trkpt lat="49.2226206" lon="5.6505878"><ele>224.2</ele><time>2026-03-22T17:06:43.128Z</time></trkpt><trkpt lat="49.2226996" lon="5.6506882"><ele>224.6</ele><time>2026-03-22T17:06:44.128Z</time></trkpt><trkpt lat="49.2227792" lon="5.6507939"><ele>225.0</ele><time>2026-03-22T17:06:45.129Z</time></trkpt><trkpt lat="49.2228622" lon="5.6508942"><ele>225.0</ele><time>2026-03-22T17:06:46.128Z</time></trkpt><trkpt lat="49.2229401" lon="5.651006"><ele>225.0</ele><time>2026-03-22T17:06:47.129Z</time></trkpt><trkpt lat="49.2230232" lon="5.6511148"><ele>225.0</ele><time>2026-03-22T17:06:48.13Z</time></trkpt><trkpt lat="49.2231023" lon="5.6512183"><ele>225.0</ele><time>2026-03-22T17:06:49.129Z</time></trkpt><trkpt lat="49.2231814" lon="5.6513243"><ele>225.0</ele><time>2026-03-22T17:06:50.131Z</time></trkpt><trkpt lat="49.2232595" lon="5.6514277"><ele>225.0</ele><time>2026-03-22T17:06:51.129Z</time></trkpt><trkpt lat="49.2233396" lon="5.6515334"><ele>225.0</ele><time>2026-03-22T17:06:52.13Z</time></trkpt><trkpt lat="49.2234171" lon="5.6516365"><ele>225.0</ele><time>2026-03-22T17:06:53.128Z</time></trkpt><trkpt lat="49.2234942" lon="5.651736"><ele>225.0</ele><time>2026-03-22T17:06:54.129Z</time></trkpt><trkpt lat="49.2235666" lon="5.6518355"><ele>225.0</ele><time>2026-03-22T17:06:55.129Z</time></trkpt><trkpt lat="49.2236378" lon="5.6519295"><ele>225.0</ele><time>2026-03-22T17:06:56.129Z</time></trkpt><trkpt lat="49.2237113" lon="5.652027"><ele>225.0</ele><time>2026-03-22T17:06:57.129Z</time></trkpt><trkpt lat="49.2237836" lon="5.6521184"><ele>225.0</ele><time>2026-03-22T17:06:58.129Z</time></trkpt><trkpt lat="49.2238516" lon="5.6522118"><ele>225.0</ele><time>2026-03-22T17:06:59.129Z</time></trkpt><trkpt lat="49.2239241" lon="5.6523079"><ele>225.0</ele><time>2026-03-22T17:07:00.129Z</time></trkpt><trkpt lat="49.2239905" lon="5.6524029"><ele>225.16666666666666</ele><time>2026-03-22T17:07:01.129Z</time></trkpt><trkpt lat="49.2240632" lon="5.6524986"><ele>225.33333333333331</ele><time>2026-03-22T17:07:02.13Z</time></trkpt><trkpt lat="49.2241307" lon="5.6525875"><ele>225.5</ele><time>2026-03-22T17:07:03.129Z</time></trkpt><trkpt lat="49.2241977" lon="5.6526765"><ele>225.66666666666666</ele><time>2026-03-22T17:07:04.129Z</time></trkpt><trkpt lat="49.2242655" lon="5.6527641"><ele>225.83333333333331</ele><time>2026-03-22T17:07:05.13Z</time></trkpt><trkpt lat="49.2243274" lon="5.652856"><ele>226.0</ele><time>2026-03-22T17:07:06.13Z</time></trkpt><trkpt lat="49.2243951" lon="5.6529446"><ele>225.66666666666666</ele><time>2026-03-22T17:07:07.129Z</time></trkpt><trkpt lat="49.2244623" lon="5.6530356"><ele>225.33333333333331</ele><time>2026-03-22T17:07:08.129Z</time></trkpt><trkpt lat="49.2245291" lon="5.65312"><ele>225.0</ele><time>2026-03-22T17:07:09.129Z</time></trkpt><trkpt lat="49.2245941" lon="5.6532038"><ele>224.66666666666669</ele><time>2026-03-22T17:07:10.13Z</time></trkpt><trkpt lat="49.2246597" lon="5.6532912"><ele>224.33333333333334</ele><time>2026-03-22T17:07:11.129Z</time></trkpt><trkpt lat="49.2247255" lon="5.6533767"><ele>224.0</ele><time>2026-03-22T17:07:12.13Z</time></trkpt><trkpt lat="49.2247913" lon="5.6534663"><ele>224.2</ele><time>2026-03-22T17:07:13.13Z</time></trkpt><trkpt lat="49.224859" lon="5.6535558"><ele>224.39999999999998</ele><time>2026-03-22T17:07:14.13Z</time></trkpt><trkpt lat="49.2249272" lon="5.6536449"><ele>224.6</ele><time>2026-03-22T17:07:15.13Z</time></trkpt><trkpt lat="49.2249948" lon="5.6537367"><ele>224.8</ele><time>2026-03-22T17:07:16.13Z</time></trkpt><trkpt lat="49.2250668" lon="5.6538287"><ele>225.0</ele><time>2026-03-22T17:07:17.129Z</time></trkpt><trkpt lat="49.2251383" lon="5.6539219"><ele>225.2</ele><time>2026-03-22T17:07:18.129Z</time></trkpt><trkpt lat="49.225208" lon="5.6540107"><ele>225.4</ele><time>2026-03-22T17:07:19.13Z</time></trkpt><trkpt lat="49.2252769" lon="5.6541025"><ele>225.60000000000002</ele><time>2026-03-22T17:07:20.129Z</time></trkpt><trkpt lat="49.2253468" lon="5.6541972"><ele>225.8</ele><time>2026-03-22T17:07:21.128Z</time></trkpt><trkpt lat="49.2254195" lon="5.6542898"><ele>226.0</ele><time>2026-03-22T17:07:22.131Z</time></trkpt><trkpt lat="49.2254916" lon="5.6543793"><ele>225.99999999999997</ele><time>2026-03-22T17:07:23.129Z</time></trkpt><trkpt lat="49.2255598" lon="5.6544685"><ele>226.0</ele><time>2026-03-22T17:07:24.128Z</time></trkpt><trkpt lat="49.2256316" lon="5.6545612"><ele>226.0</ele><time>2026-03-22T17:07:25.129Z</time></trkpt><trkpt lat="49.2256978" lon="5.6546517"><ele>226.0</ele><time>2026-03-22T17:07:26.129Z</time></trkpt><trkpt lat="49.2257578" lon="5.6547306"><ele>225.99999999999997</ele><time>2026-03-22T17:07:27.129Z</time></trkpt><trkpt lat="49.2258221" lon="5.6548059"><ele>226.0</ele><time>2026-03-22T17:07:28.129Z</time></trkpt><trkpt lat="49.2258902" lon="5.6548855"><ele>225.99999999999997</ele><time>2026-03-22T17:07:29.13Z</time></trkpt><trkpt lat="49.2259535" lon="5.6549744"><ele>226.0</ele><time>2026-03-22T17:07:30.129Z</time></trkpt><trkpt lat="49.226017" lon="5.6550555"><ele>226.0</ele><time>2026-03-22T17:07:31.13Z</time></trkpt><trkpt lat="49.2260749" lon="5.6551414"><ele>226.0</ele><time>2026-03-22T17:07:32.129Z</time></trkpt><trkpt lat="49.2261377" lon="5.65522"><ele>225.99999999999997</ele><time>2026-03-22T17:07:33.13Z</time></trkpt><trkpt lat="49.2262014" lon="5.6552957"><ele>226.0</ele><time>2026-03-22T17:07:34.129Z</time></trkpt><trkpt lat="49.2262643" lon="5.6553727"><ele>225.99999999999997</ele><time>2026-03-22T17:07:35.129Z</time></trkpt><trkpt lat="49.2263272" lon="5.6554482"><ele>226.0</ele><time>2026-03-22T17:07:36.13Z</time></trkpt><trkpt lat="49.2263878" lon="5.6555236"><ele>226.0</ele><time>2026-03-22T17:07:37.129Z</time></trkpt><trkpt lat="49.226448" lon="5.6556071"><ele>226.0</ele><time>2026-03-22T17:07:38.129Z</time></trkpt><trkpt lat="49.2265125" lon="5.6556898"><ele>225.99999999999997</ele><time>2026-03-22T17:07:39.13Z</time></trkpt><trkpt lat="49.2265632" lon="5.6557612"><ele>226.0</ele><time>2026-03-22T17:07:40.128Z</time></trkpt><trkpt lat="49.2266194" lon="5.6558371"><ele>225.99999999999997</ele><time>2026-03-22T17:07:41.129Z</time></trkpt><trkpt lat="49.2266774" lon="5.6559114"><ele>226.0</ele><time>2026-03-22T17:07:42.13Z</time></trkpt><trkpt lat="49.2267357" lon="5.6559932"><ele>226.0</ele><time>2026-03-22T17:07:43.129Z</time></trkpt><trkpt lat="49.226796" lon="5.656078"><ele>226.0</ele><time>2026-03-22T17:07:44.131Z</time></trkpt><trkpt lat="49.2268524" lon="5.6561741"><ele>225.99999999999997</ele><time>2026-03-22T17:07:45.129Z</time></trkpt><trkpt lat="49.2269179" lon="5.6562601"><ele>226.0</ele><time>2026-03-22T17:07:46.129Z</time></trkpt><trkpt lat="49.2269747" lon="5.6563552"><ele>226.16666666666666</ele><time>2026-03-22T17:07:47.13Z</time></trkpt><trkpt lat="49.2270313" lon="5.6564571"><ele>226.33333333333331</ele><time>2026-03-22T17:07:48.13Z</time></trkpt><trkpt lat="49.2270931" lon="5.6565442"><ele>226.5</ele><time>2026-03-22T17:07:49.13Z</time></trkpt><trkpt lat="49.2271598" lon="5.6566267"><ele>226.66666666666669</ele><time>2026-03-22T17:07:50.129Z</time></trkpt><trkpt lat="49.2272257" lon="5.6566983"><ele>226.83333333333334</ele><time>2026-03-22T17:07:51.13Z</time></trkpt><trkpt lat="49.2272939" lon="5.6567798"><ele>227.0</ele><time>2026-03-22T17:07:52.13Z</time></trkpt><trkpt lat="49.2273692" lon="5.6568605"><ele>227.0</ele><time>2026-03-22T17:07:53.129Z</time></trkpt><trkpt lat="49.2274431" lon="5.6569473"><ele>227.0</ele><time>2026-03-22T17:07:54.13Z</time></trkpt><trkpt lat="49.2275185" lon="5.6570373"><ele>227.0</ele><time>2026-03-22T17:07:55.129Z</time></trkpt><trkpt lat="49.2275949" lon="5.6571233"><ele>227.0</ele><time>2026-03-22T17:07:56.129Z</time></trkpt><trkpt lat="49.2276697" lon="5.6572032"><ele>227.0</ele><time>2026-03-22T17:07:57.131Z</time></trkpt><trkpt lat="49.2277535" lon="5.65727"><ele>227.0</ele><time>2026-03-22T17:07:58.128Z</time></trkpt><trkpt lat="49.2278353" lon="5.6573396"><ele>227.0</ele><time>2026-03-22T17:07:59.128Z</time></trkpt><trkpt lat="49.2279193" lon="5.6573994"><ele>227.0</ele><time>2026-03-22T17:08:00.13Z</time></trkpt><trkpt lat="49.228004" lon="5.6574605"><ele>227.0</ele><time>2026-03-22T17:08:01.128Z</time></trkpt><trkpt lat="49.2280895" lon="5.657515"><ele>227.0</ele><time>2026-03-22T17:08:02.13Z</time></trkpt><trkpt lat="49.228173" lon="5.6575611"><ele>227.00000000000003</ele><time>2026-03-22T17:08:03.129Z</time></trkpt><trkpt lat="49.2282538" lon="5.6576159"><ele>227.0</ele><time>2026-03-22T17:08:04.13Z</time></trkpt><trkpt lat="49.2283372" lon="5.6576717"><ele>227.0</ele><time>2026-03-22T17:08:05.131Z</time></trkpt><trkpt lat="49.2284187" lon="5.6577249"><ele>227.0</ele><time>2026-03-22T17:08:06.129Z</time></trkpt><trkpt lat="49.2284998" lon="5.6577739"><ele>227.00000000000003</ele><time>2026-03-22T17:08:07.128Z</time></trkpt><trkpt lat="49.2285803" lon="5.6578307"><ele>227.0</ele><time>2026-03-22T17:08:08.129Z</time></trkpt><trkpt lat="49.228664" lon="5.6578774"><ele>227.00000000000003</ele><time>2026-03-22T17:08:09.129Z</time></trkpt><trkpt lat="49.2287438" lon="5.6579296"><ele>227.0</ele><time>2026-03-22T17:08:10.129Z</time></trkpt><trkpt lat="49.2288249" lon="5.657978"><ele>227.0</ele><time>2026-03-22T17:08:11.129Z</time></trkpt><trkpt lat="49.2289034" lon="5.6580315"><ele>227.0</ele><time>2026-03-22T17:08:12.13Z</time></trkpt><trkpt lat="49.2289801" lon="5.6580809"><ele>227.00000000000003</ele><time>2026-03-22T17:08:13.128Z</time></trkpt><trkpt lat="49.2290582" lon="5.6581393"><ele>227.0</ele><time>2026-03-22T17:08:14.129Z</time></trkpt><trkpt lat="49.229136" lon="5.658197"><ele>227.16666666666669</ele><time>2026-03-22T17:08:15.129Z</time></trkpt><trkpt lat="49.2292144" lon="5.6582489"><ele>227.33333333333334</ele><time>2026-03-22T17:08:16.129Z</time></trkpt><trkpt lat="49.229296" lon="5.6582894"><ele>227.5</ele><time>2026-03-22T17:08:17.129Z</time></trkpt><trkpt lat="49.22937" lon="5.6583405"><ele>227.66666666666669</ele><time>2026-03-22T17:08:18.129Z</time></trkpt><trkpt lat="49.2294417" lon="5.6583831"><ele>227.83333333333334</ele><time>2026-03-22T17:08:19.129Z</time></trkpt><trkpt lat="49.2295453" lon="5.6584545"><ele>228.0</ele><time>2026-03-22T17:08:21.129Z</time></trkpt><trkpt lat="49.229607" lon="5.6584929"><ele>228.0</ele><time>2026-03-22T17:08:24.13Z</time></trkpt><trkpt lat="49.2296763" lon="5.658548"><ele>228.0</ele><time>2026-03-22T17:08:35.128Z</time></trkpt><trkpt lat="49.2297446" lon="5.6585902"><ele>228.0</ele><time>2026-03-22T17:08:37.129Z</time></trkpt><trkpt lat="49.2298243" lon="5.6586321"><ele>228.0</ele><time>2026-03-22T17:08:39.129Z</time></trkpt><trkpt lat="49.2299358" lon="5.6586972"><ele>228.0</ele><time>2026-03-22T17:08:41.129Z</time></trkpt><trkpt lat="49.2300048" lon="5.6587825"><ele>228.0</ele><time>2026-03-22T17:08:42.129Z</time></trkpt><trkpt lat="49.2300839" lon="5.658831"><ele>228.0</ele><time>2026-03-22T17:08:43.13Z</time></trkpt><trkpt lat="49.2301669" lon="5.6588763"><ele>228.0</ele><time>2026-03-22T17:08:44.128Z</time></trkpt><trkpt lat="49.230253" lon="5.6589319"><ele>228.0</ele><time>2026-03-22T17:08:45.13Z</time></trkpt><trkpt lat="49.2303354" lon="5.658984"><ele>228.0</ele><time>2026-03-22T17:08:46.128Z</time></trkpt><trkpt lat="49.2304232" lon="5.659044"><ele>228.0</ele><time>2026-03-22T17:08:47.13Z</time></trkpt><trkpt lat="49.2305081" lon="5.659104"><ele>228.0</ele><time>2026-03-22T17:08:48.13Z</time></trkpt><trkpt lat="49.230595" lon="5.6591634"><ele>228.0</ele><time>2026-03-22T17:08:49.129Z</time></trkpt><trkpt lat="49.2306825" lon="5.6592238"><ele>228.0</ele><time>2026-03-22T17:08:50.13Z</time></trkpt><trkpt lat="49.2307706" lon="5.6592853"><ele>228.0</ele><time>2026-03-22T17:08:51.128Z</time></trkpt><trkpt lat="49.2308586" lon="5.6593417"><ele>228.0</ele><time>2026-03-22T17:08:52.13Z</time></trkpt><trkpt lat="49.2309439" lon="5.6593952"><ele>228.0</ele><time>2026-03-22T17:08:53.129Z</time></trkpt><trkpt lat="49.2310293" lon="5.6594515"><ele>228.0</ele><time>2026-03-22T17:08:54.13Z</time></trkpt><trkpt lat="49.2311148" lon="5.6594969"><ele>228.0</ele><time>2026-03-22T17:08:55.129Z</time></trkpt><trkpt lat="49.231198" lon="5.6595556"><ele>228.0</ele><time>2026-03-22T17:08:56.13Z</time></trkpt><trkpt lat="49.2312808" lon="5.659607"><ele>228.0</ele><time>2026-03-22T17:08:57.129Z</time></trkpt><trkpt lat="49.2313655" lon="5.6596627"><ele>228.0</ele><time>2026-03-22T17:08:58.129Z</time></trkpt><trkpt lat="49.2314502" lon="5.6597174"><ele>228.0</ele><time>2026-03-22T17:08:59.13Z</time></trkpt><trkpt lat="49.2315357" lon="5.6597758"><ele>228.0</ele><time>2026-03-22T17:09:00.13Z</time></trkpt><trkpt lat="49.2316187" lon="5.6598303"><ele>228.0</ele><time>2026-03-22T17:09:01.129Z</time></trkpt><trkpt lat="49.2317015" lon="5.6598789"><ele>228.0</ele><time>2026-03-22T17:09:02.129Z</time></trkpt><trkpt lat="49.2317852" lon="5.659936"><ele>227.8</ele><time>2026-03-22T17:09:03.129Z</time></trkpt><trkpt lat="49.2318714" lon="5.6599845"><ele>227.60000000000002</ele><time>2026-03-22T17:09:04.129Z</time></trkpt><trkpt lat="49.2319551" lon="5.6600355"><ele>227.39999999999998</ele><time>2026-03-22T17:09:05.129Z</time></trkpt><trkpt lat="49.2320434" lon="5.6600914"><ele>227.2</ele><time>2026-03-22T17:09:06.129Z</time></trkpt><trkpt lat="49.23213" lon="5.6601546"><ele>227.0</ele><time>2026-03-22T17:09:07.13Z</time></trkpt><trkpt lat="49.2322193" lon="5.6602069"><ele>227.0</ele><time>2026-03-22T17:09:08.129Z</time></trkpt><trkpt lat="49.2323067" lon="5.6602661"><ele>227.0</ele><time>2026-03-22T17:09:09.13Z</time></trkpt><trkpt lat="49.232389" lon="5.6603292"><ele>227.0</ele><time>2026-03-22T17:09:10.13Z</time></trkpt><trkpt lat="49.2324775" lon="5.6603913"><ele>227.0</ele><time>2026-03-22T17:09:11.129Z</time></trkpt><trkpt lat="49.2325631" lon="5.6604437"><ele>227.0</ele><time>2026-03-22T17:09:12.129Z</time></trkpt><trkpt lat="49.232651" lon="5.660496"><ele>227.0</ele><time>2026-03-22T17:09:13.129Z</time></trkpt><trkpt lat="49.2327358" lon="5.6605505"><ele>227.0</ele><time>2026-03-22T17:09:14.13Z</time></trkpt><trkpt lat="49.2328182" lon="5.6606089"><ele>227.0</ele><time>2026-03-22T17:09:15.129Z</time></trkpt><trkpt lat="49.2329014" lon="5.6606597"><ele>227.0</ele><time>2026-03-22T17:09:16.129Z</time></trkpt><trkpt lat="49.2329865" lon="5.6607184"><ele>227.0</ele><time>2026-03-22T17:09:17.129Z</time></trkpt><trkpt lat="49.2330743" lon="5.6607743"><ele>226.6</ele><time>2026-03-22T17:09:18.13Z</time></trkpt><trkpt lat="49.2331618" lon="5.6608398"><ele>226.2</ele><time>2026-03-22T17:09:19.129Z</time></trkpt><trkpt lat="49.2332518" lon="5.660897"><ele>225.8</ele><time>2026-03-22T17:09:20.128Z</time></trkpt><trkpt lat="49.233336" lon="5.6609562"><ele>225.4</ele><time>2026-03-22T17:09:21.129Z</time></trkpt><trkpt lat="49.2334194" lon="5.6610118"><ele>225.0</ele><time>2026-03-22T17:09:22.129Z</time></trkpt><trkpt lat="49.2335017" lon="5.6610647"><ele>225.4</ele><time>2026-03-22T17:09:23.131Z</time></trkpt><trkpt lat="49.233586" lon="5.6611235"><ele>225.8</ele><time>2026-03-22T17:09:24.129Z</time></trkpt><trkpt lat="49.2336687" lon="5.6611773"><ele>226.2</ele><time>2026-03-22T17:09:25.13Z</time></trkpt><trkpt lat="49.2337515" lon="5.6612348"><ele>226.6</ele><time>2026-03-22T17:09:26.129Z</time></trkpt><trkpt lat="49.233835" lon="5.6612864"><ele>227.0</ele><time>2026-03-22T17:09:27.128Z</time></trkpt><trkpt lat="49.2339213" lon="5.6613383"><ele>226.66666666666669</ele><time>2026-03-22T17:09:28.131Z</time></trkpt><trkpt lat="49.234006" lon="5.6613954"><ele>226.33333333333334</ele><time>2026-03-22T17:09:29.129Z</time></trkpt><trkpt lat="49.2340867" lon="5.661452"><ele>226.0</ele><time>2026-03-22T17:09:30.13Z</time></trkpt><trkpt lat="49.2341672" lon="5.6614992"><ele>225.66666666666669</ele><time>2026-03-22T17:09:31.131Z</time></trkpt><trkpt lat="49.2342486" lon="5.6615455"><ele>225.33333333333334</ele><time>2026-03-22T17:09:32.13Z</time></trkpt><trkpt lat="49.2343256" lon="5.6616019"><ele>225.0</ele><time>2026-03-22T17:09:33.129Z</time></trkpt><trkpt lat="49.2344047" lon="5.6616503"><ele>225.0</ele><time>2026-03-22T17:09:34.13Z</time></trkpt><trkpt lat="49.234483" lon="5.6617054"><ele>225.0</ele><time>2026-03-22T17:09:35.13Z</time></trkpt><trkpt lat="49.2345584" lon="5.6617626"><ele>225.0</ele><time>2026-03-22T17:09:36.129Z</time></trkpt><trkpt lat="49.2346392" lon="5.6618189"><ele>225.0</ele><time>2026-03-22T17:09:37.128Z</time></trkpt><trkpt lat="49.2347146" lon="5.6618687"><ele>225.0</ele><time>2026-03-22T17:09:38.129Z</time></trkpt><trkpt lat="49.2347885" lon="5.6619189"><ele>225.0</ele><time>2026-03-22T17:09:39.129Z</time></trkpt><trkpt lat="49.2348685" lon="5.6619661"><ele>225.2</ele><time>2026-03-22T17:09:40.13Z</time></trkpt><trkpt lat="49.2349518" lon="5.6620193"><ele>225.4</ele><time>2026-03-22T17:09:41.129Z</time></trkpt><trkpt lat="49.2350356" lon="5.6620763"><ele>225.60000000000002</ele><time>2026-03-22T17:09:42.13Z</time></trkpt><trkpt lat="49.2351187" lon="5.6621283"><ele>225.8</ele><time>2026-03-22T17:09:43.129Z</time></trkpt><trkpt lat="49.2352031" lon="5.6621806"><ele>226.0</ele><time>2026-03-22T17:09:44.129Z</time></trkpt><trkpt lat="49.2352874" lon="5.6622361"><ele>226.0</ele><time>2026-03-22T17:09:45.128Z</time></trkpt><trkpt lat="49.2353674" lon="5.6622915"><ele>226.00000000000003</ele><time>2026-03-22T17:09:46.129Z</time></trkpt><trkpt lat="49.2354346" lon="5.6623319"><ele>226.00000000000003</ele><time>2026-03-22T17:09:47.13Z</time></trkpt><trkpt lat="49.2355332" lon="5.662395"><ele>226.0</ele><time>2026-03-22T17:09:49.128Z</time></trkpt><trkpt lat="49.2356336" lon="5.662396"><ele>226.0</ele><time>2026-03-22T17:09:51.13Z</time></trkpt><trkpt lat="49.2357527" lon="5.662419"><ele>226.0</ele><time>2026-03-22T17:09:53.13Z</time></trkpt><trkpt lat="49.2358282" lon="5.6624687"><ele>226.00000000000003</ele><time>2026-03-22T17:09:54.129Z</time></trkpt><trkpt lat="49.2359113" lon="5.6625218"><ele>226.00000000000003</ele><time>2026-03-22T17:09:55.13Z</time></trkpt><trkpt lat="49.2360047" lon="5.6625791"><ele>226.0</ele><time>2026-03-22T17:09:56.129Z</time></trkpt><trkpt lat="49.2361027" lon="5.6626434"><ele>226.0</ele><time>2026-03-22T17:09:57.129Z</time></trkpt><trkpt lat="49.2362048" lon="5.6627073"><ele>226.0</ele><time>2026-03-22T17:09:58.13Z</time></trkpt><trkpt lat="49.23631" lon="5.6627682"><ele>226.0</ele><time>2026-03-22T17:09:59.129Z</time></trkpt><trkpt lat="49.2364186" lon="5.6628404"><ele>226.0</ele><time>2026-03-22T17:10:00.13Z</time></trkpt><trkpt lat="49.2365284" lon="5.662906"><ele>226.0</ele><time>2026-03-22T17:10:01.129Z</time></trkpt><trkpt lat="49.2366375" lon="5.6629788"><ele>226.0</ele><time>2026-03-22T17:10:02.129Z</time></trkpt><trkpt lat="49.2367455" lon="5.6630466"><ele>226.0</ele><time>2026-03-22T17:10:03.129Z</time></trkpt><trkpt lat="49.2368538" lon="5.6631268"><ele>226.0</ele><time>2026-03-22T17:10:04.129Z</time></trkpt><trkpt lat="49.2369609" lon="5.6631942"><ele>226.0</ele><time>2026-03-22T17:10:05.129Z</time></trkpt><trkpt lat="49.2370675" lon="5.6632663"><ele>226.0</ele><time>2026-03-22T17:10:06.13Z</time></trkpt><trkpt lat="49.2371818" lon="5.6633368"><ele>226.0</ele><time>2026-03-22T17:10:07.13Z</time></trkpt><trkpt lat="49.2372961" lon="5.6634092"><ele>226.0</ele><time>2026-03-22T17:10:08.13Z</time></trkpt><trkpt lat="49.2374135" lon="5.6634843"><ele>226.0</ele><time>2026-03-22T17:10:09.128Z</time></trkpt><trkpt lat="49.237531" lon="5.6635576"><ele>226.5</ele><time>2026-03-22T17:10:10.13Z</time></trkpt><trkpt lat="49.2376492" lon="5.6636356"><ele>227.0</ele><time>2026-03-22T17:10:11.129Z</time></trkpt><trkpt lat="49.2377671" lon="5.6637152"><ele>227.5</ele><time>2026-03-22T17:10:12.13Z</time></trkpt><trkpt lat="49.237885" lon="5.6637966"><ele>228.0</ele><time>2026-03-22T17:10:13.129Z</time></trkpt><trkpt lat="49.2380038" lon="5.6638607"><ele>228.0</ele><time>2026-03-22T17:10:14.13Z</time></trkpt><trkpt lat="49.238119" lon="5.6639371"><ele>228.0</ele><time>2026-03-22T17:10:15.129Z</time></trkpt><trkpt lat="49.2382342" lon="5.6640165"><ele>228.0</ele><time>2026-03-22T17:10:16.129Z</time></trkpt><trkpt lat="49.2383478" lon="5.6640965"><ele>228.0</ele><time>2026-03-22T17:10:17.13Z</time></trkpt><trkpt lat="49.2384623" lon="5.6641712"><ele>228.0</ele><time>2026-03-22T17:10:18.129Z</time></trkpt><trkpt lat="49.238574" lon="5.6642409"><ele>228.0</ele><time>2026-03-22T17:10:19.13Z</time></trkpt><trkpt lat="49.2386818" lon="5.6643194"><ele>228.0</ele><time>2026-03-22T17:10:20.129Z</time></trkpt><trkpt lat="49.2387875" lon="5.66439"><ele>228.0</ele><time>2026-03-22T17:10:21.129Z</time></trkpt><trkpt lat="49.2388934" lon="5.6644548"><ele>228.25</ele><time>2026-03-22T17:10:22.129Z</time></trkpt><trkpt lat="49.2390024" lon="5.6645201"><ele>228.5</ele><time>2026-03-22T17:10:23.13Z</time></trkpt><trkpt lat="49.2391149" lon="5.6645923"><ele>228.75</ele><time>2026-03-22T17:10:24.13Z</time></trkpt><trkpt lat="49.2392273" lon="5.6646645"><ele>229.0</ele><time>2026-03-22T17:10:25.13Z</time></trkpt><trkpt lat="49.239336" lon="5.6647355"><ele>229.0</ele><time>2026-03-22T17:10:26.129Z</time></trkpt><trkpt lat="49.2394452" lon="5.6648084"><ele>229.0</ele><time>2026-03-22T17:10:27.129Z</time></trkpt><trkpt lat="49.2395546" lon="5.6648781"><ele>229.0</ele><time>2026-03-22T17:10:28.129Z</time></trkpt><trkpt lat="49.2396636" lon="5.6649499"><ele>229.0</ele><time>2026-03-22T17:10:29.131Z</time></trkpt><trkpt lat="49.239775" lon="5.665018"><ele>229.0</ele><time>2026-03-22T17:10:30.13Z</time></trkpt><trkpt lat="49.2398826" lon="5.6650927"><ele>229.0</ele><time>2026-03-22T17:10:31.128Z</time></trkpt><trkpt lat="49.2399913" lon="5.6651568"><ele>229.0</ele><time>2026-03-22T17:10:32.131Z</time></trkpt><trkpt lat="49.2400992" lon="5.6652234"><ele>229.0</ele><time>2026-03-22T17:10:33.129Z</time></trkpt><trkpt lat="49.2402069" lon="5.6652882"><ele>229.0</ele><time>2026-03-22T17:10:34.128Z</time></trkpt><trkpt lat="49.2403162" lon="5.6653499"><ele>229.0</ele><time>2026-03-22T17:10:35.13Z</time></trkpt><trkpt lat="49.2404247" lon="5.6654271"><ele>229.0</ele><time>2026-03-22T17:10:36.13Z</time></trkpt><trkpt lat="49.24054" lon="5.6654869"><ele>229.0</ele><time>2026-03-22T17:10:37.13Z</time></trkpt><trkpt lat="49.2406588" lon="5.6655517"><ele>228.75</ele><time>2026-03-22T17:10:38.129Z</time></trkpt><trkpt lat="49.240774" lon="5.6656176"><ele>228.5</ele><time>2026-03-22T17:10:39.129Z</time></trkpt><trkpt lat="49.2408951" lon="5.6656822"><ele>228.25</ele><time>2026-03-22T17:10:40.13Z</time></trkpt><trkpt lat="49.2410115" lon="5.6657465"><ele>228.0</ele><time>2026-03-22T17:10:41.129Z</time></trkpt><trkpt lat="49.2411282" lon="5.6658069"><ele>228.0</ele><time>2026-03-22T17:10:42.13Z</time></trkpt><trkpt lat="49.2412393" lon="5.6658641"><ele>228.0</ele><time>2026-03-22T17:10:43.129Z</time></trkpt><trkpt lat="49.2413531" lon="5.665924"><ele>228.0</ele><time>2026-03-22T17:10:44.129Z</time></trkpt><trkpt lat="49.2414673" lon="5.6659878"><ele>228.0</ele><time>2026-03-22T17:10:45.13Z</time></trkpt><trkpt lat="49.2415818" lon="5.6660511"><ele>227.5</ele><time>2026-03-22T17:10:46.13Z</time></trkpt><trkpt lat="49.2416962" lon="5.6661128"><ele>227.0</ele><time>2026-03-22T17:10:47.129Z</time></trkpt><trkpt lat="49.2418123" lon="5.6661715"><ele>226.5</ele><time>2026-03-22T17:10:48.13Z</time></trkpt><trkpt lat="49.241927" lon="5.6662324"><ele>226.0</ele><time>2026-03-22T17:10:49.129Z</time></trkpt><trkpt lat="49.2420398" lon="5.6662871"><ele>226.0</ele><time>2026-03-22T17:10:50.128Z</time></trkpt><trkpt lat="49.2421559" lon="5.6663522"><ele>226.0</ele><time>2026-03-22T17:10:51.129Z</time></trkpt><trkpt lat="49.2422717" lon="5.6664142"><ele>226.0</ele><time>2026-03-22T17:10:52.13Z</time></trkpt><trkpt lat="49.2423852" lon="5.6664754"><ele>226.0</ele><time>2026-03-22T17:10:53.129Z</time></trkpt><trkpt lat="49.2424968" lon="5.6665293"><ele>225.0</ele><time>2026-03-22T17:10:54.13Z</time></trkpt><trkpt lat="49.242607" lon="5.6665906"><ele>224.0</ele><time>2026-03-22T17:10:55.13Z</time></trkpt><trkpt lat="49.2427165" lon="5.6666489"><ele>223.0</ele><time>2026-03-22T17:10:56.13Z</time></trkpt><trkpt lat="49.2428252" lon="5.6667044"><ele>222.0</ele><time>2026-03-22T17:10:57.13Z</time></trkpt><trkpt lat="49.2429353" lon="5.6667606"><ele>222.0</ele><time>2026-03-22T17:10:58.129Z</time></trkpt><trkpt lat="49.2430484" lon="5.6668129"><ele>222.0</ele><time>2026-03-22T17:10:59.129Z</time></trkpt><trkpt lat="49.243155" lon="5.66687"><ele>222.0</ele><time>2026-03-22T17:11:00.129Z</time></trkpt><trkpt lat="49.2432601" lon="5.666924"><ele>222.0</ele><time>2026-03-22T17:11:01.13Z</time></trkpt><trkpt lat="49.2433652" lon="5.6669772"><ele>221.75</ele><time>2026-03-22T17:11:02.129Z</time></trkpt><trkpt lat="49.2434723" lon="5.6670382"><ele>221.5</ele><time>2026-03-22T17:11:03.131Z</time></trkpt><trkpt lat="49.2435778" lon="5.6670987"><ele>221.25</ele><time>2026-03-22T17:11:04.128Z</time></trkpt><trkpt lat="49.2436847" lon="5.6671575"><ele>221.0</ele><time>2026-03-22T17:11:05.13Z</time></trkpt><trkpt lat="49.2437903" lon="5.6672141"><ele>221.0</ele><time>2026-03-22T17:11:06.129Z</time></trkpt><trkpt lat="49.2438951" lon="5.667269"><ele>221.0</ele><time>2026-03-22T17:11:07.13Z</time></trkpt><trkpt lat="49.2440036" lon="5.6673298"><ele>221.0</ele><time>2026-03-22T17:11:08.129Z</time></trkpt><trkpt lat="49.2441107" lon="5.6673879"><ele>221.0</ele><time>2026-03-22T17:11:09.13Z</time></trkpt><trkpt lat="49.2442188" lon="5.6674457"><ele>221.0</ele><time>2026-03-22T17:11:10.131Z</time></trkpt><trkpt lat="49.2443288" lon="5.6675045"><ele>221.0</ele><time>2026-03-22T17:11:11.129Z</time></trkpt><trkpt lat="49.2444392" lon="5.6675629"><ele>221.0</ele><time>2026-03-22T17:11:12.129Z</time></trkpt><trkpt lat="49.2445496" lon="5.6676146"><ele>221.0</ele><time>2026-03-22T17:11:13.129Z</time></trkpt><trkpt lat="49.2446591" lon="5.6676697"><ele>221.0</ele><time>2026-03-22T17:11:14.129Z</time></trkpt><trkpt lat="49.2447648" lon="5.6677337"><ele>221.00000000000003</ele><time>2026-03-22T17:11:15.129Z</time></trkpt><trkpt lat="49.2448702" lon="5.667794"><ele>221.00000000000003</ele><time>2026-03-22T17:11:16.131Z</time></trkpt><trkpt lat="49.2449747" lon="5.6678469"><ele>221.0</ele><time>2026-03-22T17:11:17.131Z</time></trkpt><trkpt lat="49.2450804" lon="5.667904"><ele>221.0</ele><time>2026-03-22T17:11:18.128Z</time></trkpt><trkpt lat="49.2451846" lon="5.6679521"><ele>221.0</ele><time>2026-03-22T17:11:19.13Z</time></trkpt><trkpt lat="49.2452908" lon="5.6680007"><ele>221.0</ele><time>2026-03-22T17:11:20.13Z</time></trkpt><trkpt lat="49.2453997" lon="5.6680483"><ele>221.0</ele><time>2026-03-22T17:11:21.129Z</time></trkpt><trkpt lat="49.2455238" lon="5.6680762"><ele>221.0</ele><time>2026-03-22T17:11:22.13Z</time></trkpt><trkpt lat="49.2456492" lon="5.6680801"><ele>221.0</ele><time>2026-03-22T17:11:23.13Z</time></trkpt><trkpt lat="49.2457744" lon="5.6680702"><ele>221.0</ele><time>2026-03-22T17:11:24.13Z</time></trkpt><trkpt lat="49.2458931" lon="5.6680465"><ele>221.0</ele><time>2026-03-22T17:11:25.13Z</time></trkpt><trkpt lat="49.2460196" lon="5.668015"><ele>221.0</ele><time>2026-03-22T17:11:26.129Z</time></trkpt><trkpt lat="49.2461456" lon="5.6679812"><ele>221.0</ele><time>2026-03-22T17:11:27.13Z</time></trkpt><trkpt lat="49.2462731" lon="5.6679521"><ele>221.0</ele><time>2026-03-22T17:11:28.129Z</time></trkpt><trkpt lat="49.2464009" lon="5.6679185"><ele>221.0</ele><time>2026-03-22T17:11:29.129Z</time></trkpt><trkpt lat="49.2465288" lon="5.6678861"><ele>221.0</ele><time>2026-03-22T17:11:30.131Z</time></trkpt><trkpt lat="49.2466542" lon="5.6678523"><ele>220.75</ele><time>2026-03-22T17:11:31.129Z</time></trkpt><trkpt lat="49.2467776" lon="5.667818"><ele>220.5</ele><time>2026-03-22T17:11:32.129Z</time></trkpt><trkpt lat="49.2468984" lon="5.6677838"><ele>220.25</ele><time>2026-03-22T17:11:33.13Z</time></trkpt><trkpt lat="49.2470197" lon="5.6677529"><ele>220.0</ele><time>2026-03-22T17:11:34.13Z</time></trkpt><trkpt lat="49.247145" lon="5.6677206"><ele>220.0</ele><time>2026-03-22T17:11:35.13Z</time></trkpt><trkpt lat="49.2472711" lon="5.6676891"><ele>220.0</ele><time>2026-03-22T17:11:36.13Z</time></trkpt><trkpt lat="49.2473934" lon="5.6676562"><ele>220.0</ele><time>2026-03-22T17:11:37.13Z</time></trkpt><trkpt lat="49.2475214" lon="5.6676196"><ele>220.0</ele><time>2026-03-22T17:11:38.129Z</time></trkpt><trkpt lat="49.2476456" lon="5.6675859"><ele>219.75</ele><time>2026-03-22T17:11:39.13Z</time></trkpt><trkpt lat="49.2477675" lon="5.667546"><ele>219.5</ele><time>2026-03-22T17:11:40.129Z</time></trkpt><trkpt lat="49.2478952" lon="5.6675149"><ele>219.25</ele><time>2026-03-22T17:11:41.129Z</time></trkpt><trkpt lat="49.2480165" lon="5.6674731"><ele>219.0</ele><time>2026-03-22T17:11:42.13Z</time></trkpt><trkpt lat="49.2481424" lon="5.6674372"><ele>219.0</ele><time>2026-03-22T17:11:43.129Z</time></trkpt><trkpt lat="49.2482703" lon="5.6673997"><ele>219.0</ele><time>2026-03-22T17:11:44.129Z</time></trkpt><trkpt lat="49.2484007" lon="5.6673617"><ele>219.0</ele><time>2026-03-22T17:11:45.129Z</time></trkpt><trkpt lat="49.2485311" lon="5.667323"><ele>219.0</ele><time>2026-03-22T17:11:46.13Z</time></trkpt><trkpt lat="49.2486623" lon="5.6672855"><ele>219.0</ele><time>2026-03-22T17:11:47.13Z</time></trkpt><trkpt lat="49.2487983" lon="5.6672501"><ele>219.0</ele><time>2026-03-22T17:11:48.129Z</time></trkpt><trkpt lat="49.248932" lon="5.667216"><ele>219.0</ele><time>2026-03-22T17:11:49.129Z</time></trkpt><trkpt lat="49.2490633" lon="5.6671827"><ele>219.0</ele><time>2026-03-22T17:11:50.129Z</time></trkpt><trkpt lat="49.2491868" lon="5.6671463"><ele>219.0</ele><time>2026-03-22T17:11:51.129Z</time></trkpt><trkpt lat="49.2493042" lon="5.6671108"><ele>219.0</ele><time>2026-03-22T17:11:52.129Z</time></trkpt><trkpt lat="49.2494257" lon="5.6670832"><ele>219.0</ele><time>2026-03-22T17:11:53.128Z</time></trkpt><trkpt lat="49.2495378" lon="5.6670507"><ele>219.0</ele><time>2026-03-22T17:11:54.129Z</time></trkpt><trkpt lat="49.2496583" lon="5.6670163"><ele>219.0</ele><time>2026-03-22T17:11:55.129Z</time></trkpt><trkpt lat="49.2497717" lon="5.6669878"><ele>218.99999999999997</ele><time>2026-03-22T17:11:56.13Z</time></trkpt><trkpt lat="49.2498778" lon="5.6669605"><ele>218.99999999999997</ele><time>2026-03-22T17:11:57.13Z</time></trkpt><trkpt lat="49.2499827" lon="5.6669312"><ele>219.0</ele><time>2026-03-22T17:11:58.129Z</time></trkpt><trkpt lat="49.2500832" lon="5.6669115"><ele>219.0</ele><time>2026-03-22T17:11:59.13Z</time></trkpt><trkpt lat="49.2501721" lon="5.6669111"><ele>219.39999999999998</ele><time>2026-03-22T17:12:00.129Z</time></trkpt><trkpt lat="49.2502492" lon="5.666947"><ele>219.79999999999998</ele><time>2026-03-22T17:12:01.129Z</time></trkpt><trkpt lat="49.2503193" lon="5.6669676"><ele>220.20000000000002</ele><time>2026-03-22T17:12:02.13Z</time></trkpt><trkpt lat="49.2504118" lon="5.6669407"><ele>220.60000000000002</ele><time>2026-03-22T17:12:03.129Z</time></trkpt><trkpt lat="49.2505244" lon="5.6669151"><ele>221.0</ele><time>2026-03-22T17:12:04.13Z</time></trkpt><trkpt lat="49.2506566" lon="5.6668834"><ele>221.0</ele><time>2026-03-22T17:12:05.129Z</time></trkpt><trkpt lat="49.2507997" lon="5.6668444"><ele>221.0</ele><time>2026-03-22T17:12:06.129Z</time></trkpt><trkpt lat="49.2509455" lon="5.6668131"><ele>221.0</ele><time>2026-03-22T17:12:07.13Z</time></trkpt><trkpt lat="49.2510847" lon="5.6667672"><ele>221.0</ele><time>2026-03-22T17:12:08.129Z</time></trkpt><trkpt lat="49.2512207" lon="5.6667311"><ele>221.0</ele><time>2026-03-22T17:12:09.13Z</time></trkpt><trkpt lat="49.2513545" lon="5.6666965"><ele>221.0</ele><time>2026-03-22T17:12:10.13Z</time></trkpt><trkpt lat="49.2514853" lon="5.6666613"><ele>221.0</ele><time>2026-03-22T17:12:11.13Z</time></trkpt><trkpt lat="49.251613" lon="5.6666324"><ele>221.0</ele><time>2026-03-22T17:12:12.13Z</time></trkpt><trkpt lat="49.2517459" lon="5.6665948"><ele>220.5</ele><time>2026-03-22T17:12:13.13Z</time></trkpt><trkpt lat="49.2518836" lon="5.6665568"><ele>220.0</ele><time>2026-03-22T17:12:14.13Z</time></trkpt><trkpt lat="49.2520158" lon="5.6665211"><ele>219.5</ele><time>2026-03-22T17:12:15.13Z</time></trkpt><trkpt lat="49.2521427" lon="5.6664902"><ele>219.0</ele><time>2026-03-22T17:12:16.129Z</time></trkpt><trkpt lat="49.2522658" lon="5.6664605"><ele>219.0</ele><time>2026-03-22T17:12:17.13Z</time></trkpt><trkpt lat="49.2523838" lon="5.6664295"><ele>219.0</ele><time>2026-03-22T17:12:18.13Z</time></trkpt><trkpt lat="49.2525002" lon="5.6664007"><ele>219.0</ele><time>2026-03-22T17:12:19.13Z</time></trkpt><trkpt lat="49.2526134" lon="5.6663738"><ele>219.0</ele><time>2026-03-22T17:12:20.128Z</time></trkpt><trkpt lat="49.2527325" lon="5.6663424"><ele>219.0</ele><time>2026-03-22T17:12:21.129Z</time></trkpt><trkpt lat="49.25286" lon="5.6663053"><ele>219.0</ele><time>2026-03-22T17:12:22.13Z</time></trkpt><trkpt lat="49.2529796" lon="5.6662773"><ele>219.0</ele><time>2026-03-22T17:12:23.129Z</time></trkpt><trkpt lat="49.2530936" lon="5.666246"><ele>219.0</ele><time>2026-03-22T17:12:24.129Z</time></trkpt><trkpt lat="49.2532128" lon="5.6662175"><ele>219.0</ele><time>2026-03-22T17:12:25.13Z</time></trkpt><trkpt lat="49.2533254" lon="5.6661904"><ele>219.0</ele><time>2026-03-22T17:12:26.13Z</time></trkpt><trkpt lat="49.2534384" lon="5.6661618"><ele>219.0</ele><time>2026-03-22T17:12:27.13Z</time></trkpt><trkpt lat="49.2535538" lon="5.666132"><ele>219.0</ele><time>2026-03-22T17:12:28.131Z</time></trkpt><trkpt lat="49.2536668" lon="5.6661061"><ele>219.0</ele><time>2026-03-22T17:12:29.13Z</time></trkpt><trkpt lat="49.2537811" lon="5.6660762"><ele>219.0</ele><time>2026-03-22T17:12:30.131Z</time></trkpt><trkpt lat="49.2538991" lon="5.6660486"><ele>219.0</ele><time>2026-03-22T17:12:31.13Z</time></trkpt><trkpt lat="49.2540098" lon="5.6660238"><ele>219.0</ele><time>2026-03-22T17:12:32.13Z</time></trkpt><trkpt lat="49.2541154" lon="5.6659968"><ele>219.0</ele><time>2026-03-22T17:12:33.13Z</time></trkpt><trkpt lat="49.2542183" lon="5.665961"><ele>218.99999999999997</ele><time>2026-03-22T17:12:34.129Z</time></trkpt><trkpt lat="49.2543253" lon="5.6659293"><ele>218.99999999999997</ele><time>2026-03-22T17:12:35.129Z</time></trkpt><trkpt lat="49.2544271" lon="5.6659057"><ele>219.0</ele><time>2026-03-22T17:12:36.128Z</time></trkpt><trkpt lat="49.2545328" lon="5.6658784"><ele>219.0</ele><time>2026-03-22T17:12:37.129Z</time></trkpt><trkpt lat="49.2546377" lon="5.6658531"><ele>219.0</ele><time>2026-03-22T17:12:38.129Z</time></trkpt><trkpt lat="49.2547494" lon="5.6658201"><ele>218.99999999999997</ele><time>2026-03-22T17:12:39.128Z</time></trkpt><trkpt lat="49.2548546" lon="5.6657891"><ele>218.99999999999997</ele><time>2026-03-22T17:12:40.13Z</time></trkpt><trkpt lat="49.2549651" lon="5.6657568"><ele>219.0</ele><time>2026-03-22T17:12:41.13Z</time></trkpt><trkpt lat="49.2550707" lon="5.6657248"><ele>219.0</ele><time>2026-03-22T17:12:42.13Z</time></trkpt><trkpt lat="49.2551776" lon="5.665699"><ele>219.2</ele><time>2026-03-22T17:12:43.13Z</time></trkpt><trkpt lat="49.2552878" lon="5.6656714"><ele>219.39999999999998</ele><time>2026-03-22T17:12:44.131Z</time></trkpt><trkpt lat="49.2553984" lon="5.6656446"><ele>219.6</ele><time>2026-03-22T17:12:45.13Z</time></trkpt><trkpt lat="49.2555092" lon="5.6656215"><ele>219.8</ele><time>2026-03-22T17:12:46.129Z</time></trkpt><trkpt lat="49.2556167" lon="5.6655906"><ele>220.0</ele><time>2026-03-22T17:12:47.129Z</time></trkpt><trkpt lat="49.255732" lon="5.665562"><ele>220.25</ele><time>2026-03-22T17:12:48.13Z</time></trkpt><trkpt lat="49.2558491" lon="5.6655256"><ele>220.5</ele><time>2026-03-22T17:12:49.13Z</time></trkpt><trkpt lat="49.2559572" lon="5.6655013"><ele>220.75</ele><time>2026-03-22T17:12:50.129Z</time></trkpt><trkpt lat="49.256069" lon="5.6654675"><ele>221.0</ele><time>2026-03-22T17:12:51.129Z</time></trkpt><trkpt lat="49.2561819" lon="5.6654422"><ele>221.0</ele><time>2026-03-22T17:12:52.13Z</time></trkpt><trkpt lat="49.2562949" lon="5.6654139"><ele>221.0</ele><time>2026-03-22T17:12:53.13Z</time></trkpt><trkpt lat="49.256406" lon="5.6653799"><ele>221.0</ele><time>2026-03-22T17:12:54.13Z</time></trkpt><trkpt lat="49.256523" lon="5.6653486"><ele>221.0</ele><time>2026-03-22T17:12:55.13Z</time></trkpt><trkpt lat="49.2566391" lon="5.6653208"><ele>221.0</ele><time>2026-03-22T17:12:56.13Z</time></trkpt><trkpt lat="49.2567533" lon="5.6652904"><ele>221.00000000000003</ele><time>2026-03-22T17:12:57.129Z</time></trkpt><trkpt lat="49.2568697" lon="5.665262"><ele>221.00000000000003</ele><time>2026-03-22T17:12:58.13Z</time></trkpt><trkpt lat="49.2569791" lon="5.6652311"><ele>221.0</ele><time>2026-03-22T17:12:59.13Z</time></trkpt><trkpt lat="49.2570815" lon="5.6652099"><ele>221.0</ele><time>2026-03-22T17:13:00.13Z</time></trkpt><trkpt lat="49.2571804" lon="5.665186"><ele>221.4</ele><time>2026-03-22T17:13:01.129Z</time></trkpt><trkpt lat="49.2572764" lon="5.6651642"><ele>221.8</ele><time>2026-03-22T17:13:02.129Z</time></trkpt><trkpt lat="49.2573737" lon="5.6651393"><ele>222.20000000000002</ele><time>2026-03-22T17:13:03.129Z</time></trkpt><trkpt lat="49.2574793" lon="5.6651059"><ele>222.60000000000002</ele><time>2026-03-22T17:13:04.129Z</time></trkpt><trkpt lat="49.2575826" lon="5.6650735"><ele>223.0</ele><time>2026-03-22T17:13:05.13Z</time></trkpt><trkpt lat="49.257688" lon="5.6650452"><ele>223.2</ele><time>2026-03-22T17:13:06.129Z</time></trkpt><trkpt lat="49.2577935" lon="5.6650219"><ele>223.4</ele><time>2026-03-22T17:13:07.13Z</time></trkpt><trkpt lat="49.2578927" lon="5.6649978"><ele>223.59999999999997</ele><time>2026-03-22T17:13:08.129Z</time></trkpt><trkpt lat="49.2579925" lon="5.6649722"><ele>223.79999999999998</ele><time>2026-03-22T17:13:09.129Z</time></trkpt><trkpt lat="49.2580907" lon="5.6649442"><ele>224.0</ele><time>2026-03-22T17:13:10.129Z</time></trkpt><trkpt lat="49.2581937" lon="5.6649247"><ele>224.39999999999998</ele><time>2026-03-22T17:13:11.13Z</time></trkpt><trkpt lat="49.2582951" lon="5.6649004"><ele>224.79999999999998</ele><time>2026-03-22T17:13:12.13Z</time></trkpt><trkpt lat="49.2583923" lon="5.6648712"><ele>225.20000000000002</ele><time>2026-03-22T17:13:13.13Z</time></trkpt><trkpt lat="49.2584918" lon="5.6648498"><ele>225.60000000000002</ele><time>2026-03-22T17:13:14.13Z</time></trkpt><trkpt lat="49.2585936" lon="5.6648198"><ele>226.0</ele><time>2026-03-22T17:13:15.13Z</time></trkpt><trkpt lat="49.2586886" lon="5.6647974"><ele>226.0</ele><time>2026-03-22T17:13:16.129Z</time></trkpt><trkpt lat="49.2587899" lon="5.6647728"><ele>226.00000000000003</ele><time>2026-03-22T17:13:17.131Z</time></trkpt><trkpt lat="49.2588915" lon="5.6647458"><ele>226.00000000000003</ele><time>2026-03-22T17:13:18.13Z</time></trkpt><trkpt lat="49.258991" lon="5.6647188"><ele>226.0</ele><time>2026-03-22T17:13:19.13Z</time></trkpt><trkpt lat="49.2590901" lon="5.6646911"><ele>226.0</ele><time>2026-03-22T17:13:20.13Z</time></trkpt><trkpt lat="49.2591907" lon="5.6646696"><ele>226.0</ele><time>2026-03-22T17:13:21.129Z</time></trkpt><trkpt lat="49.2592915" lon="5.6646396"><ele>226.00000000000003</ele><time>2026-03-22T17:13:22.128Z</time></trkpt><trkpt lat="49.2593885" lon="5.6646143"><ele>226.00000000000003</ele><time>2026-03-22T17:13:23.13Z</time></trkpt><trkpt lat="49.2594846" lon="5.6645951"><ele>226.0</ele><time>2026-03-22T17:13:24.129Z</time></trkpt><trkpt lat="49.2595844" lon="5.6645755"><ele>226.0</ele><time>2026-03-22T17:13:25.13Z</time></trkpt><trkpt lat="49.2596824" lon="5.6645557"><ele>226.20000000000002</ele><time>2026-03-22T17:13:26.129Z</time></trkpt><trkpt lat="49.2597875" lon="5.6645292"><ele>226.40000000000003</ele><time>2026-03-22T17:13:27.128Z</time></trkpt><trkpt lat="49.2598946" lon="5.6645051"><ele>226.6</ele><time>2026-03-22T17:13:28.13Z</time></trkpt><trkpt lat="49.2599951" lon="5.664476"><ele>226.8</ele><time>2026-03-22T17:13:29.13Z</time></trkpt><trkpt lat="49.2600993" lon="5.6644509"><ele>227.0</ele><time>2026-03-22T17:13:30.13Z</time></trkpt><trkpt lat="49.2601983" lon="5.6644327"><ele>227.2</ele><time>2026-03-22T17:13:31.13Z</time></trkpt><trkpt lat="49.2603" lon="5.6644079"><ele>227.39999999999998</ele><time>2026-03-22T17:13:32.13Z</time></trkpt><trkpt lat="49.260403" lon="5.6643882"><ele>227.60000000000002</ele><time>2026-03-22T17:13:33.13Z</time></trkpt><trkpt lat="49.2605042" lon="5.6643614"><ele>227.8</ele><time>2026-03-22T17:13:34.13Z</time></trkpt><trkpt lat="49.2606126" lon="5.6643439"><ele>228.0</ele><time>2026-03-22T17:13:35.13Z</time></trkpt><trkpt lat="49.2607144" lon="5.664316"><ele>228.0</ele><time>2026-03-22T17:13:36.129Z</time></trkpt><trkpt lat="49.2608145" lon="5.664292"><ele>228.0</ele><time>2026-03-22T17:13:37.13Z</time></trkpt><trkpt lat="49.2609181" lon="5.6642664"><ele>228.0</ele><time>2026-03-22T17:13:38.13Z</time></trkpt><trkpt lat="49.2610202" lon="5.6642444"><ele>228.0</ele><time>2026-03-22T17:13:39.13Z</time></trkpt><trkpt lat="49.261117" lon="5.6642244"><ele>228.0</ele><time>2026-03-22T17:13:40.13Z</time></trkpt><trkpt lat="49.2612149" lon="5.6641998"><ele>228.0</ele><time>2026-03-22T17:13:41.13Z</time></trkpt><trkpt lat="49.2613133" lon="5.6641754"><ele>228.0</ele><time>2026-03-22T17:13:42.129Z</time></trkpt><trkpt lat="49.2614136" lon="5.6641485"><ele>228.0</ele><time>2026-03-22T17:13:43.129Z</time></trkpt><trkpt lat="49.2615123" lon="5.6641264"><ele>228.0</ele><time>2026-03-22T17:13:44.131Z</time></trkpt><trkpt lat="49.2616129" lon="5.6641016"><ele>228.0</ele><time>2026-03-22T17:13:45.129Z</time></trkpt><trkpt lat="49.2617123" lon="5.6640781"><ele>228.2</ele><time>2026-03-22T17:13:46.129Z</time></trkpt><trkpt lat="49.2618121" lon="5.6640521"><ele>228.4</ele><time>2026-03-22T17:13:47.13Z</time></trkpt><trkpt lat="49.2619143" lon="5.6640294"><ele>228.59999999999997</ele><time>2026-03-22T17:13:48.13Z</time></trkpt><trkpt lat="49.2620155" lon="5.6640022"><ele>228.79999999999998</ele><time>2026-03-22T17:13:49.13Z</time></trkpt><trkpt lat="49.2621172" lon="5.6639834"><ele>229.0</ele><time>2026-03-22T17:13:50.13Z</time></trkpt><trkpt lat="49.2622079" lon="5.6639526"><ele>229.39999999999998</ele><time>2026-03-22T17:13:51.129Z</time></trkpt><trkpt lat="49.2623022" lon="5.6639292"><ele>229.79999999999998</ele><time>2026-03-22T17:13:52.129Z</time></trkpt><trkpt lat="49.2623974" lon="5.6639085"><ele>230.20000000000002</ele><time>2026-03-22T17:13:53.129Z</time></trkpt><trkpt lat="49.262486" lon="5.6638812"><ele>230.60000000000002</ele><time>2026-03-22T17:13:54.129Z</time></trkpt><trkpt lat="49.2625775" lon="5.6638482"><ele>231.0</ele><time>2026-03-22T17:13:55.13Z</time></trkpt><trkpt lat="49.262671" lon="5.6638247"><ele>231.0</ele><time>2026-03-22T17:13:56.13Z</time></trkpt><trkpt lat="49.2627627" lon="5.6638029"><ele>231.00000000000003</ele><time>2026-03-22T17:13:57.128Z</time></trkpt><trkpt lat="49.2628545" lon="5.6637804"><ele>231.00000000000003</ele><time>2026-03-22T17:13:58.128Z</time></trkpt><trkpt lat="49.2629455" lon="5.6637617"><ele>231.0</ele><time>2026-03-22T17:13:59.129Z</time></trkpt><trkpt lat="49.2630404" lon="5.6637375"><ele>231.0</ele><time>2026-03-22T17:14:00.13Z</time></trkpt><trkpt lat="49.2631351" lon="5.6637163"><ele>231.66666666666666</ele><time>2026-03-22T17:14:01.13Z</time></trkpt><trkpt lat="49.2632241" lon="5.6636965"><ele>232.33333333333331</ele><time>2026-03-22T17:14:02.131Z</time></trkpt><trkpt lat="49.2633109" lon="5.6636722"><ele>233.0</ele><time>2026-03-22T17:14:03.13Z</time></trkpt><trkpt lat="49.2633978" lon="5.6636491"><ele>233.66666666666666</ele><time>2026-03-22T17:14:04.128Z</time></trkpt><trkpt lat="49.2634861" lon="5.6636308"><ele>234.33333333333331</ele><time>2026-03-22T17:14:05.129Z</time></trkpt><trkpt lat="49.2635713" lon="5.6636078"><ele>235.0</ele><time>2026-03-22T17:14:06.131Z</time></trkpt><trkpt lat="49.2636638" lon="5.6635826"><ele>235.2</ele><time>2026-03-22T17:14:07.13Z</time></trkpt><trkpt lat="49.263759" lon="5.6635615"><ele>235.4</ele><time>2026-03-22T17:14:08.128Z</time></trkpt><trkpt lat="49.2638521" lon="5.6635447"><ele>235.60000000000002</ele><time>2026-03-22T17:14:09.129Z</time></trkpt><trkpt lat="49.2639513" lon="5.6635247"><ele>235.8</ele><time>2026-03-22T17:14:10.129Z</time></trkpt><trkpt lat="49.2640489" lon="5.6635043"><ele>236.0</ele><time>2026-03-22T17:14:11.131Z</time></trkpt><trkpt lat="49.2641471" lon="5.6634792"><ele>236.20000000000002</ele><time>2026-03-22T17:14:12.13Z</time></trkpt><trkpt lat="49.2642391" lon="5.6634463"><ele>236.40000000000003</ele><time>2026-03-22T17:14:13.13Z</time></trkpt><trkpt lat="49.2643314" lon="5.6634221"><ele>236.6</ele><time>2026-03-22T17:14:14.13Z</time></trkpt><trkpt lat="49.2644276" lon="5.6633982"><ele>236.8</ele><time>2026-03-22T17:14:15.129Z</time></trkpt><trkpt lat="49.2645256" lon="5.6633754"><ele>237.0</ele><time>2026-03-22T17:14:16.129Z</time></trkpt><trkpt lat="49.2646198" lon="5.6633529"><ele>237.0</ele><time>2026-03-22T17:14:17.129Z</time></trkpt><trkpt lat="49.264715" lon="5.6633305"><ele>237.0</ele><time>2026-03-22T17:14:18.129Z</time></trkpt><trkpt lat="49.2648097" lon="5.6633084"><ele>237.0</ele><time>2026-03-22T17:14:19.129Z</time></trkpt><trkpt lat="49.2649011" lon="5.663281"><ele>237.0</ele><time>2026-03-22T17:14:20.13Z</time></trkpt><trkpt lat="49.2649911" lon="5.663259"><ele>237.0</ele><time>2026-03-22T17:14:21.129Z</time></trkpt><trkpt lat="49.2650838" lon="5.6632401"><ele>236.8</ele><time>2026-03-22T17:14:22.13Z</time></trkpt><trkpt lat="49.2651787" lon="5.6632146"><ele>236.6</ele><time>2026-03-22T17:14:23.13Z</time></trkpt><trkpt lat="49.2652669" lon="5.663202"><ele>236.40000000000003</ele><time>2026-03-22T17:14:24.13Z</time></trkpt><trkpt lat="49.2653616" lon="5.6631801"><ele>236.20000000000002</ele><time>2026-03-22T17:14:25.129Z</time></trkpt><trkpt lat="49.2654534" lon="5.6631613"><ele>236.0</ele><time>2026-03-22T17:14:26.129Z</time></trkpt><trkpt lat="49.2655523" lon="5.6631363"><ele>236.0</ele><time>2026-03-22T17:14:27.13Z</time></trkpt><trkpt lat="49.2656439" lon="5.6631146"><ele>236.00000000000003</ele><time>2026-03-22T17:14:28.13Z</time></trkpt><trkpt lat="49.2657327" lon="5.6630955"><ele>236.00000000000003</ele><time>2026-03-22T17:14:29.129Z</time></trkpt><trkpt lat="49.2658232" lon="5.6630756"><ele>236.0</ele><time>2026-03-22T17:14:30.129Z</time></trkpt><trkpt lat="49.2659183" lon="5.6630462"><ele>236.0</ele><time>2026-03-22T17:14:31.131Z</time></trkpt><trkpt lat="49.266007" lon="5.6630351"><ele>236.0</ele><time>2026-03-22T17:14:32.13Z</time></trkpt><trkpt lat="49.2660922" lon="5.6630245"><ele>236.00000000000003</ele><time>2026-03-22T17:14:33.129Z</time></trkpt><trkpt lat="49.2661762" lon="5.6629969"><ele>236.00000000000003</ele><time>2026-03-22T17:14:34.13Z</time></trkpt><trkpt lat="49.2662657" lon="5.6629666"><ele>236.0</ele><time>2026-03-22T17:14:35.13Z</time></trkpt><trkpt lat="49.2663444" lon="5.6629332"><ele>236.0</ele><time>2026-03-22T17:14:36.129Z</time></trkpt><trkpt lat="49.2664658" lon="5.6628852"><ele>236.16666666666669</ele><time>2026-03-22T17:14:38.13Z</time></trkpt><trkpt lat="49.2665281" lon="5.6628634"><ele>236.33333333333334</ele><time>2026-03-22T17:14:39.129Z</time></trkpt><trkpt lat="49.266613" lon="5.6628579"><ele>236.5</ele><time>2026-03-22T17:14:40.13Z</time></trkpt><trkpt lat="49.266694" lon="5.6628298"><ele>236.66666666666669</ele><time>2026-03-22T17:14:41.13Z</time></trkpt><trkpt lat="49.2667805" lon="5.6628016"><ele>236.83333333333334</ele><time>2026-03-22T17:14:42.13Z</time></trkpt><trkpt lat="49.2668692" lon="5.6627666"><ele>237.0</ele><time>2026-03-22T17:14:43.131Z</time></trkpt><trkpt lat="49.2669668" lon="5.662745"><ele>237.0</ele><time>2026-03-22T17:14:44.13Z</time></trkpt><trkpt lat="49.2670652" lon="5.6627228"><ele>237.0</ele><time>2026-03-22T17:14:45.13Z</time></trkpt><trkpt lat="49.2671639" lon="5.6626949"><ele>237.0</ele><time>2026-03-22T17:14:46.129Z</time></trkpt><trkpt lat="49.267262" lon="5.6626777"><ele>237.0</ele><time>2026-03-22T17:14:47.129Z</time></trkpt><trkpt lat="49.2673638" lon="5.6626515"><ele>237.0</ele><time>2026-03-22T17:14:48.129Z</time></trkpt><trkpt lat="49.2674631" lon="5.6626307"><ele>237.6</ele><time>2026-03-22T17:14:49.13Z</time></trkpt><trkpt lat="49.2675598" lon="5.6626137"><ele>238.2</ele><time>2026-03-22T17:14:50.128Z</time></trkpt><trkpt lat="49.2676585" lon="5.6625933"><ele>238.8</ele><time>2026-03-22T17:14:51.13Z</time></trkpt><trkpt lat="49.2677598" lon="5.6625711"><ele>239.4</ele><time>2026-03-22T17:14:52.13Z</time></trkpt><trkpt lat="49.267857" lon="5.6625504"><ele>240.0</ele><time>2026-03-22T17:14:53.13Z</time></trkpt><trkpt lat="49.2679503" lon="5.6625248"><ele>240.0</ele><time>2026-03-22T17:14:54.129Z</time></trkpt><trkpt lat="49.2680424" lon="5.6625027"><ele>240.0</ele><time>2026-03-22T17:14:55.129Z</time></trkpt><trkpt lat="49.2681408" lon="5.662478"><ele>240.0</ele><time>2026-03-22T17:14:56.129Z</time></trkpt><trkpt lat="49.268236" lon="5.6624571"><ele>240.0</ele><time>2026-03-22T17:14:57.129Z</time></trkpt><trkpt lat="49.2683302" lon="5.6624312"><ele>240.0</ele><time>2026-03-22T17:14:58.131Z</time></trkpt><trkpt lat="49.268429" lon="5.6624052"><ele>240.0</ele><time>2026-03-22T17:14:59.13Z</time></trkpt><trkpt lat="49.2685231" lon="5.6623779"><ele>240.0</ele><time>2026-03-22T17:15:00.131Z</time></trkpt><trkpt lat="49.2686127" lon="5.6623541"><ele>240.0</ele><time>2026-03-22T17:15:01.129Z</time></trkpt><trkpt lat="49.2687044" lon="5.6623309"><ele>240.0</ele><time>2026-03-22T17:15:02.129Z</time></trkpt><trkpt lat="49.2687988" lon="5.6623028"><ele>240.0</ele><time>2026-03-22T17:15:03.129Z</time></trkpt><trkpt lat="49.2688954" lon="5.6622735"><ele>240.16666666666666</ele><time>2026-03-22T17:15:04.13Z</time></trkpt><trkpt lat="49.2689886" lon="5.6622455"><ele>240.33333333333331</ele><time>2026-03-22T17:15:05.13Z</time></trkpt><trkpt lat="49.2690816" lon="5.662224"><ele>240.5</ele><time>2026-03-22T17:15:06.13Z</time></trkpt><trkpt lat="49.2691679" lon="5.6621995"><ele>240.66666666666666</ele><time>2026-03-22T17:15:07.13Z</time></trkpt><trkpt lat="49.2692546" lon="5.6621888"><ele>240.83333333333331</ele><time>2026-03-22T17:15:08.129Z</time></trkpt><trkpt lat="49.2693395" lon="5.6622016"><ele>241.0</ele><time>2026-03-22T17:15:09.13Z</time></trkpt><trkpt lat="49.269419" lon="5.6622539"><ele>241.0</ele><time>2026-03-22T17:15:10.13Z</time></trkpt><trkpt lat="49.2694874" lon="5.6623305"><ele>241.00000000000003</ele><time>2026-03-22T17:15:11.129Z</time></trkpt><trkpt lat="49.269532" lon="5.6624649"><ele>241.00000000000003</ele><time>2026-03-22T17:15:12.13Z</time></trkpt><trkpt lat="49.2695702" lon="5.6626175"><ele>241.0</ele><time>2026-03-22T17:15:13.131Z</time></trkpt><trkpt lat="49.2696099" lon="5.6627584"><ele>241.0</ele><time>2026-03-22T17:15:14.13Z</time></trkpt><trkpt lat="49.2696509" lon="5.662902"><ele>241.16666666666666</ele><time>2026-03-22T17:15:15.131Z</time></trkpt><trkpt lat="49.2696944" lon="5.6630394"><ele>241.33333333333331</ele><time>2026-03-22T17:15:16.13Z</time></trkpt><trkpt lat="49.2697318" lon="5.6631602"><ele>241.5</ele><time>2026-03-22T17:15:17.13Z</time></trkpt><trkpt lat="49.2697699" lon="5.6632665"><ele>241.66666666666669</ele><time>2026-03-22T17:15:18.13Z</time></trkpt><trkpt lat="49.2698227" lon="5.6633548"><ele>241.83333333333334</ele><time>2026-03-22T17:15:19.129Z</time></trkpt><trkpt lat="49.2698771" lon="5.6634576"><ele>242.0</ele><time>2026-03-22T17:15:20.129Z</time></trkpt><trkpt lat="49.2699252" lon="5.6635701"><ele>242.0</ele><time>2026-03-22T17:15:21.13Z</time></trkpt><trkpt lat="49.2699713" lon="5.6637014"><ele>242.0</ele><time>2026-03-22T17:15:22.13Z</time></trkpt><trkpt lat="49.2700141" lon="5.6638406"><ele>242.0</ele><time>2026-03-22T17:15:23.129Z</time></trkpt><trkpt lat="49.2700613" lon="5.6639776"><ele>242.0</ele><time>2026-03-22T17:15:24.129Z</time></trkpt><trkpt lat="49.2701077" lon="5.6641231"><ele>242.0</ele><time>2026-03-22T17:15:25.13Z</time></trkpt><trkpt lat="49.2701586" lon="5.6642715"><ele>242.0</ele><time>2026-03-22T17:15:26.13Z</time></trkpt><trkpt lat="49.27021" lon="5.6644238"><ele>242.0</ele><time>2026-03-22T17:15:27.128Z</time></trkpt><trkpt lat="49.2702607" lon="5.6645777"><ele>242.0</ele><time>2026-03-22T17:15:28.129Z</time></trkpt><trkpt lat="49.2703149" lon="5.6647298"><ele>242.0</ele><time>2026-03-22T17:15:29.129Z</time></trkpt><trkpt lat="49.2703645" lon="5.6648824"><ele>242.0</ele><time>2026-03-22T17:15:30.13Z</time></trkpt><trkpt lat="49.2704141" lon="5.665034"><ele>242.39999999999998</ele><time>2026-03-22T17:15:31.131Z</time></trkpt><trkpt lat="49.2704681" lon="5.665185"><ele>242.79999999999998</ele><time>2026-03-22T17:15:32.13Z</time></trkpt><trkpt lat="49.270518" lon="5.6653321"><ele>243.2</ele><time>2026-03-22T17:15:33.13Z</time></trkpt><trkpt lat="49.2705678" lon="5.6654673"><ele>243.6</ele><time>2026-03-22T17:15:34.13Z</time></trkpt><trkpt lat="49.2706191" lon="5.6656017"><ele>244.0</ele><time>2026-03-22T17:15:35.13Z</time></trkpt><trkpt lat="49.2706708" lon="5.6657444"><ele>244.0</ele><time>2026-03-22T17:15:36.129Z</time></trkpt><trkpt lat="49.2707229" lon="5.6658816"><ele>243.99999999999997</ele><time>2026-03-22T17:15:37.129Z</time></trkpt><trkpt lat="49.2707792" lon="5.6660324"><ele>243.99999999999997</ele><time>2026-03-22T17:15:38.128Z</time></trkpt><trkpt lat="49.2708369" lon="5.6661858"><ele>244.0</ele><time>2026-03-22T17:15:39.13Z</time></trkpt><trkpt lat="49.2708914" lon="5.6663401"><ele>244.0</ele><time>2026-03-22T17:15:40.131Z</time></trkpt><trkpt lat="49.2709496" lon="5.6664903"><ele>244.0</ele><time>2026-03-22T17:15:41.131Z</time></trkpt><trkpt lat="49.2710086" lon="5.666629"><ele>243.99999999999997</ele><time>2026-03-22T17:15:42.13Z</time></trkpt><trkpt lat="49.2710774" lon="5.6667549"><ele>243.99999999999997</ele><time>2026-03-22T17:15:43.129Z</time></trkpt><trkpt lat="49.2711523" lon="5.6668684"><ele>244.0</ele><time>2026-03-22T17:15:44.129Z</time></trkpt><trkpt lat="49.2712311" lon="5.6669659"><ele>244.0</ele><time>2026-03-22T17:15:45.13Z</time></trkpt><trkpt lat="49.2713016" lon="5.6670692"><ele>243.99999999999997</ele><time>2026-03-22T17:15:46.13Z</time></trkpt><trkpt lat="49.2713588" lon="5.6671692"><ele>244.0</ele><time>2026-03-22T17:15:47.13Z</time></trkpt><trkpt lat="49.271408" lon="5.6672581"><ele>244.0</ele><time>2026-03-22T17:15:48.13Z</time></trkpt><trkpt lat="49.2714903" lon="5.6673398"><ele>244.0</ele><time>2026-03-22T17:15:50.13Z</time></trkpt><trkpt lat="49.2715875" lon="5.6672915"><ele>243.99999999999997</ele><time>2026-03-22T17:15:52.13Z</time></trkpt><trkpt lat="49.2716473" lon="5.6672534"><ele>244.0</ele><time>2026-03-22T17:15:53.129Z</time></trkpt><trkpt lat="49.2717051" lon="5.6672095"><ele>244.33333333333331</ele><time>2026-03-22T17:15:54.13Z</time></trkpt><trkpt lat="49.2718079" lon="5.6671235"><ele>244.66666666666666</ele><time>2026-03-22T17:15:56.131Z</time></trkpt><trkpt lat="49.2718652" lon="5.6670748"><ele>245.0</ele><time>2026-03-22T17:15:57.13Z</time></trkpt><trkpt lat="49.2719299" lon="5.6670325"><ele>245.33333333333331</ele><time>2026-03-22T17:15:58.13Z</time></trkpt><trkpt lat="49.2719891" lon="5.6669857"><ele>245.66666666666666</ele><time>2026-03-22T17:15:59.13Z</time></trkpt><trkpt lat="49.2720541" lon="5.6669357"><ele>246.0</ele><time>2026-03-22T17:16:00.129Z</time></trkpt><trkpt lat="49.2721208" lon="5.666887"><ele>246.16666666666666</ele><time>2026-03-22T17:16:01.129Z</time></trkpt><trkpt lat="49.2721857" lon="5.6668269"><ele>246.33333333333331</ele><time>2026-03-22T17:16:02.129Z</time></trkpt><trkpt lat="49.2722553" lon="5.6667727"><ele>246.5</ele><time>2026-03-22T17:16:03.13Z</time></trkpt><trkpt lat="49.272333" lon="5.6667146"><ele>246.66666666666666</ele><time>2026-03-22T17:16:04.13Z</time></trkpt><trkpt lat="49.2724141" lon="5.6666597"><ele>246.83333333333331</ele><time>2026-03-22T17:16:05.13Z</time></trkpt><trkpt lat="49.2724971" lon="5.6665995"><ele>247.0</ele><time>2026-03-22T17:16:06.13Z</time></trkpt><trkpt lat="49.2725816" lon="5.6665454"><ele>247.16666666666666</ele><time>2026-03-22T17:16:07.131Z</time></trkpt><trkpt lat="49.2726576" lon="5.6664995"><ele>247.33333333333331</ele><time>2026-03-22T17:16:08.129Z</time></trkpt><trkpt lat="49.2727367" lon="5.6664412"><ele>247.5</ele><time>2026-03-22T17:16:09.13Z</time></trkpt><trkpt lat="49.2728117" lon="5.6663832"><ele>247.66666666666669</ele><time>2026-03-22T17:16:10.13Z</time></trkpt><trkpt lat="49.272888" lon="5.6663262"><ele>247.83333333333334</ele><time>2026-03-22T17:16:11.13Z</time></trkpt><trkpt lat="49.2729648" lon="5.6662692"><ele>248.0</ele><time>2026-03-22T17:16:12.13Z</time></trkpt><trkpt lat="49.2730421" lon="5.6662125"><ele>248.00000000000003</ele><time>2026-03-22T17:16:13.13Z</time></trkpt><trkpt lat="49.2731206" lon="5.666154"><ele>248.0</ele><time>2026-03-22T17:16:14.13Z</time></trkpt><trkpt lat="49.2731984" lon="5.6660931"><ele>248.0</ele><time>2026-03-22T17:16:15.13Z</time></trkpt><trkpt lat="49.2732816" lon="5.6660301"><ele>248.0</ele><time>2026-03-22T17:16:16.129Z</time></trkpt><trkpt lat="49.2733609" lon="5.6659672"><ele>248.00000000000003</ele><time>2026-03-22T17:16:17.129Z</time></trkpt><trkpt lat="49.2734338" lon="5.6659116"><ele>248.0</ele><time>2026-03-22T17:16:18.13Z</time></trkpt><trkpt lat="49.2735112" lon="5.6658545"><ele>248.0</ele><time>2026-03-22T17:16:19.13Z</time></trkpt><trkpt lat="49.2735981" lon="5.6657952"><ele>248.0</ele><time>2026-03-22T17:16:20.13Z</time></trkpt><trkpt lat="49.2736836" lon="5.6657325"><ele>248.0</ele><time>2026-03-22T17:16:21.13Z</time></trkpt><trkpt lat="49.273769" lon="5.6656667"><ele>248.0</ele><time>2026-03-22T17:16:22.13Z</time></trkpt><trkpt lat="49.2738626" lon="5.6655909"><ele>248.0</ele><time>2026-03-22T17:16:23.13Z</time></trkpt><trkpt lat="49.2739504" lon="5.6655233"><ele>247.8</ele><time>2026-03-22T17:16:24.13Z</time></trkpt><trkpt lat="49.2740401" lon="5.6654609"><ele>247.60000000000002</ele><time>2026-03-22T17:16:25.13Z</time></trkpt><trkpt lat="49.2741295" lon="5.6653961"><ele>247.39999999999998</ele><time>2026-03-22T17:16:26.13Z</time></trkpt><trkpt lat="49.2742172" lon="5.6653307"><ele>247.2</ele><time>2026-03-22T17:16:27.13Z</time></trkpt><trkpt lat="49.2743042" lon="5.6652594"><ele>247.0</ele><time>2026-03-22T17:16:28.13Z</time></trkpt><trkpt lat="49.274395" lon="5.6651971"><ele>247.0</ele><time>2026-03-22T17:16:29.13Z</time></trkpt><trkpt lat="49.2744803" lon="5.6651313"><ele>247.0</ele><time>2026-03-22T17:16:30.13Z</time></trkpt><trkpt lat="49.274563" lon="5.6650711"><ele>247.0</ele><time>2026-03-22T17:16:31.131Z</time></trkpt><trkpt lat="49.2746486" lon="5.6650106"><ele>247.0</ele><time>2026-03-22T17:16:32.13Z</time></trkpt><trkpt lat="49.2747298" lon="5.6649516"><ele>247.0</ele><time>2026-03-22T17:16:33.129Z</time></trkpt><trkpt lat="49.2748071" lon="5.6648923"><ele>247.2</ele><time>2026-03-22T17:16:34.13Z</time></trkpt><trkpt lat="49.2748857" lon="5.6648329"><ele>247.39999999999998</ele><time>2026-03-22T17:16:35.13Z</time></trkpt><trkpt lat="49.274969" lon="5.664773"><ele>247.60000000000002</ele><time>2026-03-22T17:16:36.13Z</time></trkpt><trkpt lat="49.275055" lon="5.6647149"><ele>247.8</ele><time>2026-03-22T17:16:37.13Z</time></trkpt><trkpt lat="49.2751419" lon="5.6646541"><ele>248.0</ele><time>2026-03-22T17:16:38.131Z</time></trkpt><trkpt lat="49.2752259" lon="5.6645938"><ele>248.00000000000003</ele><time>2026-03-22T17:16:39.13Z</time></trkpt><trkpt lat="49.2753044" lon="5.6645244"><ele>248.0</ele><time>2026-03-22T17:16:40.13Z</time></trkpt><trkpt lat="49.275377" lon="5.6644552"><ele>248.0</ele><time>2026-03-22T17:16:41.13Z</time></trkpt><trkpt lat="49.275443" lon="5.6643988"><ele>248.0</ele><time>2026-03-22T17:16:42.13Z</time></trkpt><trkpt lat="49.2755032" lon="5.6643599"><ele>248.00000000000003</ele><time>2026-03-22T17:16:43.13Z</time></trkpt><trkpt lat="49.2755917" lon="5.664365"><ele>248.0</ele><time>2026-03-22T17:16:45.129Z</time></trkpt><trkpt lat="49.2756602" lon="5.6644783"><ele>247.83333333333334</ele><time>2026-03-22T17:16:47.129Z</time></trkpt><trkpt lat="49.2757228" lon="5.6646157"><ele>247.66666666666669</ele><time>2026-03-22T17:16:49.13Z</time></trkpt><trkpt lat="49.27576" lon="5.6647098"><ele>247.5</ele><time>2026-03-22T17:16:50.13Z</time></trkpt><trkpt lat="49.275807" lon="5.6648035"><ele>247.33333333333331</ele><time>2026-03-22T17:16:51.13Z</time></trkpt><trkpt lat="49.2758595" lon="5.664918"><ele>247.16666666666666</ele><time>2026-03-22T17:16:52.129Z</time></trkpt><trkpt lat="49.2759112" lon="5.6650252"><ele>247.0</ele><time>2026-03-22T17:16:53.13Z</time></trkpt><trkpt lat="49.2759643" lon="5.6651441"><ele>247.0</ele><time>2026-03-22T17:16:54.13Z</time></trkpt><trkpt lat="49.2760173" lon="5.6652525"><ele>247.0</ele><time>2026-03-22T17:16:55.13Z</time></trkpt><trkpt lat="49.2760677" lon="5.6653604"><ele>247.0</ele><time>2026-03-22T17:16:56.13Z</time></trkpt><trkpt lat="49.2761193" lon="5.6654719"><ele>247.0</ele><time>2026-03-22T17:16:57.13Z</time></trkpt><trkpt lat="49.2761723" lon="5.6655867"><ele>247.0</ele><time>2026-03-22T17:16:58.129Z</time></trkpt><trkpt lat="49.2762294" lon="5.6657093"><ele>247.0</ele><time>2026-03-22T17:16:59.13Z</time></trkpt><trkpt lat="49.2762883" lon="5.6658329"><ele>247.0</ele><time>2026-03-22T17:17:00.13Z</time></trkpt><trkpt lat="49.2763452" lon="5.6659576"><ele>247.0</ele><time>2026-03-22T17:17:01.13Z</time></trkpt><trkpt lat="49.2763994" lon="5.666084"><ele>247.0</ele><time>2026-03-22T17:17:02.13Z</time></trkpt><trkpt lat="49.2764562" lon="5.6662061"><ele>247.0</ele><time>2026-03-22T17:17:03.13Z</time></trkpt><trkpt lat="49.2765153" lon="5.6663271"><ele>247.39999999999998</ele><time>2026-03-22T17:17:04.13Z</time></trkpt><trkpt lat="49.27657" lon="5.6664465"><ele>247.79999999999998</ele><time>2026-03-22T17:17:05.13Z</time></trkpt><trkpt lat="49.2766275" lon="5.6665669"><ele>248.2</ele><time>2026-03-22T17:17:06.13Z</time></trkpt><trkpt lat="49.2766781" lon="5.666681"><ele>248.6</ele><time>2026-03-22T17:17:07.129Z</time></trkpt><trkpt lat="49.2767304" lon="5.6668004"><ele>249.0</ele><time>2026-03-22T17:17:08.13Z</time></trkpt><trkpt lat="49.2767829" lon="5.6669184"><ele>249.39999999999998</ele><time>2026-03-22T17:17:09.13Z</time></trkpt><trkpt lat="49.2768317" lon="5.6670385"><ele>249.79999999999998</ele><time>2026-03-22T17:17:10.129Z</time></trkpt><trkpt lat="49.2768808" lon="5.6671568"><ele>250.20000000000002</ele><time>2026-03-22T17:17:11.129Z</time></trkpt><trkpt lat="49.2769254" lon="5.6672832"><ele>250.60000000000002</ele><time>2026-03-22T17:17:12.13Z</time></trkpt><trkpt lat="49.2769704" lon="5.6674149"><ele>251.0</ele><time>2026-03-22T17:17:13.13Z</time></trkpt><trkpt lat="49.2770145" lon="5.6675396"><ele>251.0</ele><time>2026-03-22T17:17:14.13Z</time></trkpt><trkpt lat="49.2770499" lon="5.6676712"><ele>251.00000000000003</ele><time>2026-03-22T17:17:15.129Z</time></trkpt><trkpt lat="49.2770824" lon="5.6678058"><ele>251.00000000000003</ele><time>2026-03-22T17:17:16.129Z</time></trkpt><trkpt lat="49.2771191" lon="5.6679497"><ele>251.0</ele><time>2026-03-22T17:17:17.129Z</time></trkpt><trkpt lat="49.2771464" lon="5.6680876"><ele>251.0</ele><time>2026-03-22T17:17:18.131Z</time></trkpt><trkpt lat="49.2771713" lon="5.6682211"><ele>251.16666666666669</ele><time>2026-03-22T17:17:19.13Z</time></trkpt><trkpt lat="49.2771989" lon="5.6683569"><ele>251.33333333333334</ele><time>2026-03-22T17:17:20.13Z</time></trkpt><trkpt lat="49.2772217" lon="5.6684862"><ele>251.5</ele><time>2026-03-22T17:17:21.13Z</time></trkpt><trkpt lat="49.2772485" lon="5.6686185"><ele>251.66666666666669</ele><time>2026-03-22T17:17:22.13Z</time></trkpt><trkpt lat="49.2772746" lon="5.6687471"><ele>251.83333333333334</ele><time>2026-03-22T17:17:23.13Z</time></trkpt><trkpt lat="49.277299" lon="5.6688774"><ele>252.0</ele><time>2026-03-22T17:17:24.13Z</time></trkpt><trkpt lat="49.2773199" lon="5.6690063"><ele>252.33333333333334</ele><time>2026-03-22T17:17:25.13Z</time></trkpt><trkpt lat="49.2773436" lon="5.6691333"><ele>252.66666666666669</ele><time>2026-03-22T17:17:26.131Z</time></trkpt><trkpt lat="49.2773718" lon="5.6692612"><ele>253.0</ele><time>2026-03-22T17:17:27.129Z</time></trkpt><trkpt lat="49.2773982" lon="5.6693844"><ele>253.33333333333334</ele><time>2026-03-22T17:17:28.129Z</time></trkpt><trkpt lat="49.2774253" lon="5.6695091"><ele>253.66666666666669</ele><time>2026-03-22T17:17:29.13Z</time></trkpt><trkpt lat="49.2774508" lon="5.669631"><ele>254.0</ele><time>2026-03-22T17:17:30.129Z</time></trkpt><trkpt lat="49.2774759" lon="5.6697443"><ele>254.00000000000003</ele><time>2026-03-22T17:17:31.13Z</time></trkpt><trkpt lat="49.277499" lon="5.669863"><ele>254.0</ele><time>2026-03-22T17:17:32.13Z</time></trkpt><trkpt lat="49.2775246" lon="5.6699726"><ele>254.0</ele><time>2026-03-22T17:17:33.13Z</time></trkpt><trkpt lat="49.2775449" lon="5.6700794"><ele>254.0</ele><time>2026-03-22T17:17:34.13Z</time></trkpt><trkpt lat="49.2775696" lon="5.6701946"><ele>254.00000000000003</ele><time>2026-03-22T17:17:35.13Z</time></trkpt><trkpt lat="49.2775945" lon="5.6703024"><ele>254.0</ele><time>2026-03-22T17:17:36.13Z</time></trkpt><trkpt lat="49.2776191" lon="5.6704038"><ele>254.0</ele><time>2026-03-22T17:17:37.13Z</time></trkpt><trkpt lat="49.2776404" lon="5.6705023"><ele>254.0</ele><time>2026-03-22T17:17:38.13Z</time></trkpt><trkpt lat="49.2776664" lon="5.6705964"><ele>254.0</ele><time>2026-03-22T17:17:39.13Z</time></trkpt><trkpt lat="49.2776881" lon="5.670692"><ele>254.0</ele><time>2026-03-22T17:17:40.13Z</time></trkpt><trkpt lat="49.2777107" lon="5.6707837"><ele>254.0</ele><time>2026-03-22T17:17:41.13Z</time></trkpt><trkpt lat="49.2777331" lon="5.670875"><ele>254.0</ele><time>2026-03-22T17:17:42.129Z</time></trkpt><trkpt lat="49.2777547" lon="5.6709665"><ele>254.0</ele><time>2026-03-22T17:17:43.13Z</time></trkpt><trkpt lat="49.2777942" lon="5.6711293"><ele>254.2</ele><time>2026-03-22T17:17:45.129Z</time></trkpt><trkpt lat="49.2778291" lon="5.6712831"><ele>254.39999999999998</ele><time>2026-03-22T17:17:47.13Z</time></trkpt><trkpt lat="49.2778613" lon="5.6714319"><ele>254.6</ele><time>2026-03-22T17:17:49.13Z</time></trkpt><trkpt lat="49.2778958" lon="5.6715637"><ele>254.8</ele><time>2026-03-22T17:17:51.13Z</time></trkpt><trkpt lat="49.2779305" lon="5.6716862"><ele>255.0</ele><time>2026-03-22T17:17:53.13Z</time></trkpt><trkpt lat="49.2779708" lon="5.6718111"><ele>255.0</ele><time>2026-03-22T17:17:55.13Z</time></trkpt><trkpt lat="49.2779967" lon="5.6719594"><ele>255.0</ele><time>2026-03-22T17:17:57.13Z</time></trkpt><trkpt lat="49.2780329" lon="5.6721012"><ele>255.0</ele><time>2026-03-22T17:17:59.13Z</time></trkpt><trkpt lat="49.2780715" lon="5.6722668"><ele>255.0</ele><time>2026-03-22T17:18:01.13Z</time></trkpt><trkpt lat="49.2780956" lon="5.6723637"><ele>255.0</ele><time>2026-03-22T17:18:02.13Z</time></trkpt><trkpt lat="49.2781201" lon="5.6724687"><ele>255.16666666666666</ele><time>2026-03-22T17:18:03.131Z</time></trkpt><trkpt lat="49.2781437" lon="5.6725823"><ele>255.33333333333331</ele><time>2026-03-22T17:18:04.13Z</time></trkpt><trkpt lat="49.2781682" lon="5.6726963"><ele>255.5</ele><time>2026-03-22T17:18:05.13Z</time></trkpt><trkpt lat="49.2781999" lon="5.6728203"><ele>255.66666666666666</ele><time>2026-03-22T17:18:06.13Z</time></trkpt><trkpt lat="49.2782364" lon="5.6729474"><ele>255.83333333333331</ele><time>2026-03-22T17:18:07.13Z</time></trkpt><trkpt lat="49.2782679" lon="5.673077"><ele>256.0</ele><time>2026-03-22T17:18:08.13Z</time></trkpt><trkpt lat="49.2782956" lon="5.6732068"><ele>255.99999999999997</ele><time>2026-03-22T17:18:09.13Z</time></trkpt><trkpt lat="49.2783258" lon="5.6733358"><ele>256.0</ele><time>2026-03-22T17:18:10.13Z</time></trkpt><trkpt lat="49.2783586" lon="5.6734631"><ele>256.0</ele><time>2026-03-22T17:18:11.13Z</time></trkpt><trkpt lat="49.2783879" lon="5.6735874"><ele>256.0</ele><time>2026-03-22T17:18:12.13Z</time></trkpt><trkpt lat="49.278416" lon="5.6737087"><ele>255.99999999999997</ele><time>2026-03-22T17:18:13.13Z</time></trkpt><trkpt lat="49.2784418" lon="5.6738284"><ele>256.0</ele><time>2026-03-22T17:18:14.13Z</time></trkpt><trkpt lat="49.2784709" lon="5.6739467"><ele>255.99999999999997</ele><time>2026-03-22T17:18:15.129Z</time></trkpt><trkpt lat="49.2785008" lon="5.6740681"><ele>256.0</ele><time>2026-03-22T17:18:16.129Z</time></trkpt><trkpt lat="49.2785246" lon="5.6741905"><ele>256.0</ele><time>2026-03-22T17:18:17.13Z</time></trkpt><trkpt lat="49.2785429" lon="5.6743216"><ele>256.0</ele><time>2026-03-22T17:18:18.13Z</time></trkpt><trkpt lat="49.2785579" lon="5.6744565"><ele>255.99999999999997</ele><time>2026-03-22T17:18:19.129Z</time></trkpt><trkpt lat="49.2785701" lon="5.6745889"><ele>256.0</ele><time>2026-03-22T17:18:20.13Z</time></trkpt><trkpt lat="49.2785734" lon="5.6747265"><ele>255.0</ele><time>2026-03-22T17:18:21.13Z</time></trkpt><trkpt lat="49.278573" lon="5.6748543"><ele>255.0</ele><time>2026-03-22T17:18:22.13Z</time></trkpt><trkpt lat="49.278572" lon="5.6749778"><ele>255.0</ele><time>2026-03-22T17:18:23.13Z</time></trkpt><trkpt lat="49.2785685" lon="5.6750908"><ele>255.0</ele><time>2026-03-22T17:18:24.13Z</time></trkpt><trkpt lat="49.2785746" lon="5.6752556"><ele>255.0</ele><time>2026-03-22T17:18:26.129Z</time></trkpt><trkpt lat="49.2785901" lon="5.6753562"><ele>254.0</ele><time>2026-03-22T17:18:29.13Z</time></trkpt></trkseg></trk></gpx>